<?xml version="1.0" encoding="UTF-8" standalone="no" ?>
<gpx xmlns="http://www.topografix.com/GPX/1/1" xmlns:xsi="http://www.w3.org/2001/XMLSchema-instance" xsi:schemaLocation="http://www.topografix.com/GPX/1/1 http://www.topografix.com/GPX/1/1/gpx.xsd" version="1.1" creator="VisuGPX - https://www.visugpx.com">
  <metadata>
    <name>VERTICALE du GRAND SERRE 2023 - ALLER et Retour</name>
    <desc><![CDATA[VERTICALE du GRAND SERRE 2023 - ALLER et Retour]]></desc>
  </metadata>
  <trk>
    <name><![CDATA[Cholonge Trail - VERTICALE du GRAND SERRE 2023]]></name>
    <desc><![CDATA[VERTICALE du GRAND SERRE 2023]]></desc>
    <extensions>
      <line xmlns="http://www.topografix.com/GPX/gpx_style/0/2">
        <color>00FF00</color>
        <width>4</width>
      </line>
    </extensions>
    <trkseg>
      <trkpt lat="45.00738" lon="5.80349">
        <ele>1142.1999511719</ele>
        <time>2023-10-01T08:01:42.000Z</time>
      </trkpt>
      <trkpt lat="45.00737" lon="5.8035">
        <ele>1142.1999511719</ele>
        <time>2023-10-01T08:01:43.000Z</time>
      </trkpt>
      <trkpt lat="45.00737" lon="5.80351">
        <ele>1142.1999511719</ele>
        <time>2023-10-01T08:01:44.000Z</time>
      </trkpt>
      <trkpt lat="45.00736" lon="5.80353">
        <ele>1142</ele>
        <time>2023-10-01T08:01:45.000Z</time>
      </trkpt>
      <trkpt lat="45.00736" lon="5.80355">
        <ele>1142.1999511719</ele>
        <time>2023-10-01T08:01:46.000Z</time>
      </trkpt>
      <trkpt lat="45.00736" lon="5.80357">
        <ele>1142.5999755859</ele>
        <time>2023-10-01T08:01:47.000Z</time>
      </trkpt>
      <trkpt lat="45.00736" lon="5.80359">
        <ele>1143</ele>
        <time>2023-10-01T08:01:48.000Z</time>
      </trkpt>
      <trkpt lat="45.00736" lon="5.80361">
        <ele>1143.5999755859</ele>
        <time>2023-10-01T08:01:49.000Z</time>
      </trkpt>
      <trkpt lat="45.00735" lon="5.80364">
        <ele>1144.4000244141</ele>
        <time>2023-10-01T08:01:50.000Z</time>
      </trkpt>
      <trkpt lat="45.00735" lon="5.80366">
        <ele>1145.1999511719</ele>
        <time>2023-10-01T08:01:51.000Z</time>
      </trkpt>
      <trkpt lat="45.00735" lon="5.80368">
        <ele>1145.5999755859</ele>
        <time>2023-10-01T08:01:52.000Z</time>
      </trkpt>
      <trkpt lat="45.00734" lon="5.80369">
        <ele>1146</ele>
        <time>2023-10-01T08:01:53.000Z</time>
      </trkpt>
      <trkpt lat="45.00734" lon="5.80371">
        <ele>1146.4000244141</ele>
        <time>2023-10-01T08:01:54.000Z</time>
      </trkpt>
      <trkpt lat="45.00733" lon="5.80373">
        <ele>1147</ele>
        <time>2023-10-01T08:01:55.000Z</time>
      </trkpt>
      <trkpt lat="45.00733" lon="5.80374">
        <ele>1147.1999511719</ele>
        <time>2023-10-01T08:01:56.000Z</time>
      </trkpt>
      <trkpt lat="45.00733" lon="5.80376">
        <ele>1147.5999755859</ele>
        <time>2023-10-01T08:01:57.000Z</time>
      </trkpt>
      <trkpt lat="45.00732" lon="5.80377">
        <ele>1148.1999511719</ele>
        <time>2023-10-01T08:01:58.000Z</time>
      </trkpt>
      <trkpt lat="45.00731" lon="5.80379">
        <ele>1148.5999755859</ele>
        <time>2023-10-01T08:01:59.000Z</time>
      </trkpt>
      <trkpt lat="45.00731" lon="5.8038">
        <ele>1149</ele>
        <time>2023-10-01T08:02:00.000Z</time>
      </trkpt>
      <trkpt lat="45.0073" lon="5.80382">
        <ele>1149.4000244141</ele>
        <time>2023-10-01T08:02:01.000Z</time>
      </trkpt>
      <trkpt lat="45.00729" lon="5.80384">
        <ele>1149.8000488281</ele>
        <time>2023-10-01T08:02:02.000Z</time>
      </trkpt>
      <trkpt lat="45.00729" lon="5.80385">
        <ele>1150.1999511719</ele>
        <time>2023-10-01T08:02:03.000Z</time>
      </trkpt>
      <trkpt lat="45.00728" lon="5.80387">
        <ele>1150.8000488281</ele>
        <time>2023-10-01T08:02:04.000Z</time>
      </trkpt>
      <trkpt lat="45.00727" lon="5.80389">
        <ele>1151</ele>
        <time>2023-10-01T08:02:05.000Z</time>
      </trkpt>
      <trkpt lat="45.00727" lon="5.8039">
        <ele>1151.8000488281</ele>
        <time>2023-10-01T08:02:06.000Z</time>
      </trkpt>
      <trkpt lat="45.00726" lon="5.80392">
        <ele>1152</ele>
        <time>2023-10-01T08:02:07.000Z</time>
      </trkpt>
      <trkpt lat="45.00726" lon="5.80394">
        <ele>1152.4000244141</ele>
        <time>2023-10-01T08:02:08.000Z</time>
      </trkpt>
      <trkpt lat="45.00725" lon="5.80395">
        <ele>1153.1999511719</ele>
        <time>2023-10-01T08:02:09.000Z</time>
      </trkpt>
      <trkpt lat="45.00724" lon="5.80396">
        <ele>1153.4000244141</ele>
        <time>2023-10-01T08:02:10.000Z</time>
      </trkpt>
      <trkpt lat="45.00724" lon="5.80398">
        <ele>1154</ele>
        <time>2023-10-01T08:02:11.000Z</time>
      </trkpt>
      <trkpt lat="45.00723" lon="5.804">
        <ele>1154.4000244141</ele>
        <time>2023-10-01T08:02:12.000Z</time>
      </trkpt>
      <trkpt lat="45.00723" lon="5.80402">
        <ele>1154.8000488281</ele>
        <time>2023-10-01T08:02:13.000Z</time>
      </trkpt>
      <trkpt lat="45.00722" lon="5.80404">
        <ele>1155.1999511719</ele>
        <time>2023-10-01T08:02:14.000Z</time>
      </trkpt>
      <trkpt lat="45.00722" lon="5.80405">
        <ele>1155.4000244141</ele>
        <time>2023-10-01T08:02:15.000Z</time>
      </trkpt>
      <trkpt lat="45.00721" lon="5.80406">
        <ele>1156</ele>
        <time>2023-10-01T08:02:16.000Z</time>
      </trkpt>
      <trkpt lat="45.00721" lon="5.80408">
        <ele>1156.1999511719</ele>
        <time>2023-10-01T08:02:17.000Z</time>
      </trkpt>
      <trkpt lat="45.00721" lon="5.8041">
        <ele>1156.5999755859</ele>
        <time>2023-10-01T08:02:18.000Z</time>
      </trkpt>
      <trkpt lat="45.00721" lon="5.80412">
        <ele>1157</ele>
        <time>2023-10-01T08:02:19.000Z</time>
      </trkpt>
      <trkpt lat="45.00721" lon="5.80413">
        <ele>1157.4000244141</ele>
        <time>2023-10-01T08:02:20.000Z</time>
      </trkpt>
      <trkpt lat="45.0072" lon="5.80415">
        <ele>1157.8000488281</ele>
        <time>2023-10-01T08:02:21.000Z</time>
      </trkpt>
      <trkpt lat="45.0072" lon="5.80416">
        <ele>1158</ele>
        <time>2023-10-01T08:02:22.000Z</time>
      </trkpt>
      <trkpt lat="45.0072" lon="5.80417">
        <ele>1158.4000244141</ele>
        <time>2023-10-01T08:02:23.000Z</time>
      </trkpt>
      <trkpt lat="45.0072" lon="5.80419">
        <ele>1158.5999755859</ele>
        <time>2023-10-01T08:02:24.000Z</time>
      </trkpt>
      <trkpt lat="45.0072" lon="5.80421">
        <ele>1159</ele>
        <time>2023-10-01T08:02:25.000Z</time>
      </trkpt>
      <trkpt lat="45.0072" lon="5.80422">
        <ele>1159.4000244141</ele>
        <time>2023-10-01T08:02:26.000Z</time>
      </trkpt>
      <trkpt lat="45.0072" lon="5.80423">
        <ele>1159.8000488281</ele>
        <time>2023-10-01T08:02:27.000Z</time>
      </trkpt>
      <trkpt lat="45.0072" lon="5.80425">
        <ele>1160.1999511719</ele>
        <time>2023-10-01T08:02:28.000Z</time>
      </trkpt>
      <trkpt lat="45.0072" lon="5.80427">
        <ele>1160.5999755859</ele>
        <time>2023-10-01T08:02:29.000Z</time>
      </trkpt>
      <trkpt lat="45.00719" lon="5.80429">
        <ele>1161</ele>
        <time>2023-10-01T08:02:30.000Z</time>
      </trkpt>
      <trkpt lat="45.00719" lon="5.8043">
        <ele>1161.4000244141</ele>
        <time>2023-10-01T08:02:31.000Z</time>
      </trkpt>
      <trkpt lat="45.00719" lon="5.80431">
        <ele>1161.8000488281</ele>
        <time>2023-10-01T08:02:32.000Z</time>
      </trkpt>
      <trkpt lat="45.00719" lon="5.80432">
        <ele>1162</ele>
        <time>2023-10-01T08:02:33.000Z</time>
      </trkpt>
      <trkpt lat="45.00718" lon="5.80433">
        <ele>1162.4000244141</ele>
        <time>2023-10-01T08:02:34.000Z</time>
      </trkpt>
      <trkpt lat="45.00718" lon="5.80435">
        <ele>1162.8000488281</ele>
        <time>2023-10-01T08:02:35.000Z</time>
      </trkpt>
      <trkpt lat="45.00718" lon="5.80436">
        <ele>1163</ele>
        <time>2023-10-01T08:02:36.000Z</time>
      </trkpt>
      <trkpt lat="45.00718" lon="5.80437">
        <ele>1163.1999511719</ele>
        <time>2023-10-01T08:02:37.000Z</time>
      </trkpt>
      <trkpt lat="45.00718" lon="5.80439">
        <ele>1163.5999755859</ele>
        <time>2023-10-01T08:02:38.000Z</time>
      </trkpt>
      <trkpt lat="45.00717" lon="5.80441">
        <ele>1163.8000488281</ele>
        <time>2023-10-01T08:02:39.000Z</time>
      </trkpt>
      <trkpt lat="45.00717" lon="5.80443">
        <ele>1164.1999511719</ele>
        <time>2023-10-01T08:02:40.000Z</time>
      </trkpt>
      <trkpt lat="45.00717" lon="5.80444">
        <ele>1164.5999755859</ele>
        <time>2023-10-01T08:02:41.000Z</time>
      </trkpt>
      <trkpt lat="45.00717" lon="5.80445">
        <ele>1164.8000488281</ele>
        <time>2023-10-01T08:02:42.000Z</time>
      </trkpt>
      <trkpt lat="45.00716" lon="5.80447">
        <ele>1165</ele>
        <time>2023-10-01T08:02:43.000Z</time>
      </trkpt>
      <trkpt lat="45.00716" lon="5.80448">
        <ele>1165.4000244141</ele>
        <time>2023-10-01T08:02:44.000Z</time>
      </trkpt>
      <trkpt lat="45.00716" lon="5.8045">
        <ele>1166</ele>
        <time>2023-10-01T08:02:45.000Z</time>
      </trkpt>
      <trkpt lat="45.00715" lon="5.80452">
        <ele>1166.4000244141</ele>
        <time>2023-10-01T08:02:46.000Z</time>
      </trkpt>
      <trkpt lat="45.00715" lon="5.80454">
        <ele>1166.5999755859</ele>
        <time>2023-10-01T08:02:47.000Z</time>
      </trkpt>
      <trkpt lat="45.00715" lon="5.80455">
        <ele>1167.1999511719</ele>
        <time>2023-10-01T08:02:48.000Z</time>
      </trkpt>
      <trkpt lat="45.00715" lon="5.80456">
        <ele>1167.5999755859</ele>
        <time>2023-10-01T08:02:49.000Z</time>
      </trkpt>
      <trkpt lat="45.00715" lon="5.80457">
        <ele>1168</ele>
        <time>2023-10-01T08:02:50.000Z</time>
      </trkpt>
      <trkpt lat="45.00714" lon="5.80459">
        <ele>1168.1999511719</ele>
        <time>2023-10-01T08:02:51.000Z</time>
      </trkpt>
      <trkpt lat="45.00714" lon="5.8046">
        <ele>1168.5999755859</ele>
        <time>2023-10-01T08:02:52.000Z</time>
      </trkpt>
      <trkpt lat="45.00714" lon="5.80462">
        <ele>1169</ele>
        <time>2023-10-01T08:02:53.000Z</time>
      </trkpt>
      <trkpt lat="45.00714" lon="5.80463">
        <ele>1169.1999511719</ele>
        <time>2023-10-01T08:02:54.000Z</time>
      </trkpt>
      <trkpt lat="45.00714" lon="5.80465">
        <ele>1169.4000244141</ele>
        <time>2023-10-01T08:02:55.000Z</time>
      </trkpt>
      <trkpt lat="45.00713" lon="5.80466">
        <ele>1169.8000488281</ele>
        <time>2023-10-01T08:02:56.000Z</time>
      </trkpt>
      <trkpt lat="45.00713" lon="5.80467">
        <ele>1170.1999511719</ele>
        <time>2023-10-01T08:02:57.000Z</time>
      </trkpt>
      <trkpt lat="45.00712" lon="5.80468">
        <ele>1170.4000244141</ele>
        <time>2023-10-01T08:02:58.000Z</time>
      </trkpt>
      <trkpt lat="45.00712" lon="5.80469">
        <ele>1170.5999755859</ele>
        <time>2023-10-01T08:02:59.000Z</time>
      </trkpt>
      <trkpt lat="45.00712" lon="5.8047">
        <ele>1170.8000488281</ele>
        <time>2023-10-01T08:03:00.000Z</time>
      </trkpt>
      <trkpt lat="45.00711" lon="5.80472">
        <ele>1171.1999511719</ele>
        <time>2023-10-01T08:03:01.000Z</time>
      </trkpt>
      <trkpt lat="45.00711" lon="5.80473">
        <ele>1171.4000244141</ele>
        <time>2023-10-01T08:03:02.000Z</time>
      </trkpt>
      <trkpt lat="45.00711" lon="5.80475">
        <ele>1171.8000488281</ele>
        <time>2023-10-01T08:03:03.000Z</time>
      </trkpt>
      <trkpt lat="45.00711" lon="5.80476">
        <ele>1172.1999511719</ele>
        <time>2023-10-01T08:03:04.000Z</time>
      </trkpt>
      <trkpt lat="45.0071" lon="5.80478">
        <ele>1172.4000244141</ele>
        <time>2023-10-01T08:03:05.000Z</time>
      </trkpt>
      <trkpt lat="45.0071" lon="5.80479">
        <ele>1172.8000488281</ele>
        <time>2023-10-01T08:03:06.000Z</time>
      </trkpt>
      <trkpt lat="45.0071" lon="5.8048">
        <ele>1173</ele>
        <time>2023-10-01T08:03:07.000Z</time>
      </trkpt>
      <trkpt lat="45.0071" lon="5.80481">
        <ele>1173.4000244141</ele>
        <time>2023-10-01T08:03:08.000Z</time>
      </trkpt>
      <trkpt lat="45.0071" lon="5.80482">
        <ele>1173.8000488281</ele>
        <time>2023-10-01T08:03:09.000Z</time>
      </trkpt>
      <trkpt lat="45.0071" lon="5.80484">
        <ele>1174</ele>
        <time>2023-10-01T08:03:10.000Z</time>
      </trkpt>
      <trkpt lat="45.0071" lon="5.80486">
        <ele>1174.4000244141</ele>
        <time>2023-10-01T08:03:11.000Z</time>
      </trkpt>
      <trkpt lat="45.00709" lon="5.80488">
        <ele>1174.8000488281</ele>
        <time>2023-10-01T08:03:12.000Z</time>
      </trkpt>
      <trkpt lat="45.00709" lon="5.80489">
        <ele>1175</ele>
        <time>2023-10-01T08:03:13.000Z</time>
      </trkpt>
      <trkpt lat="45.00709" lon="5.8049">
        <ele>1175.4000244141</ele>
        <time>2023-10-01T08:03:14.000Z</time>
      </trkpt>
      <trkpt lat="45.00709" lon="5.80492">
        <ele>1176</ele>
        <time>2023-10-01T08:03:15.000Z</time>
      </trkpt>
      <trkpt lat="45.00709" lon="5.80493">
        <ele>1176.4000244141</ele>
        <time>2023-10-01T08:03:16.000Z</time>
      </trkpt>
      <trkpt lat="45.00708" lon="5.80494">
        <ele>1176.8000488281</ele>
        <time>2023-10-01T08:03:17.000Z</time>
      </trkpt>
      <trkpt lat="45.00708" lon="5.80495">
        <ele>1177.1999511719</ele>
        <time>2023-10-01T08:03:18.000Z</time>
      </trkpt>
      <trkpt lat="45.00708" lon="5.80496">
        <ele>1177.5999755859</ele>
        <time>2023-10-01T08:03:19.000Z</time>
      </trkpt>
      <trkpt lat="45.00708" lon="5.80497">
        <ele>1177.8000488281</ele>
        <time>2023-10-01T08:03:20.000Z</time>
      </trkpt>
      <trkpt lat="45.00707" lon="5.80499">
        <ele>1178.1999511719</ele>
        <time>2023-10-01T08:03:21.000Z</time>
      </trkpt>
      <trkpt lat="45.00707" lon="5.80501">
        <ele>1178.4000244141</ele>
        <time>2023-10-01T08:03:22.000Z</time>
      </trkpt>
      <trkpt lat="45.00707" lon="5.80502">
        <ele>1178.8000488281</ele>
        <time>2023-10-01T08:03:23.000Z</time>
      </trkpt>
      <trkpt lat="45.00707" lon="5.80503">
        <ele>1179.1999511719</ele>
        <time>2023-10-01T08:03:24.000Z</time>
      </trkpt>
      <trkpt lat="45.00706" lon="5.80504">
        <ele>1179.4000244141</ele>
        <time>2023-10-01T08:03:25.000Z</time>
      </trkpt>
      <trkpt lat="45.00706" lon="5.80505">
        <ele>1179.8000488281</ele>
        <time>2023-10-01T08:03:26.000Z</time>
      </trkpt>
      <trkpt lat="45.00706" lon="5.80506">
        <ele>1180</ele>
        <time>2023-10-01T08:03:27.000Z</time>
      </trkpt>
      <trkpt lat="45.00706" lon="5.80507">
        <ele>1180.1999511719</ele>
        <time>2023-10-01T08:03:28.000Z</time>
      </trkpt>
      <trkpt lat="45.00706" lon="5.80508">
        <ele>1180.5999755859</ele>
        <time>2023-10-01T08:03:29.000Z</time>
      </trkpt>
      <trkpt lat="45.00706" lon="5.80509">
        <ele>1180.8000488281</ele>
        <time>2023-10-01T08:03:30.000Z</time>
      </trkpt>
      <trkpt lat="45.00705" lon="5.80511">
        <ele>1181.1999511719</ele>
        <time>2023-10-01T08:03:31.000Z</time>
      </trkpt>
      <trkpt lat="45.00705" lon="5.80512">
        <ele>1181.4000244141</ele>
        <time>2023-10-01T08:03:32.000Z</time>
      </trkpt>
      <trkpt lat="45.00705" lon="5.80513">
        <ele>1181.8000488281</ele>
        <time>2023-10-01T08:03:33.000Z</time>
      </trkpt>
      <trkpt lat="45.00705" lon="5.80515">
        <ele>1182</ele>
        <time>2023-10-01T08:03:34.000Z</time>
      </trkpt>
      <trkpt lat="45.00705" lon="5.80516">
        <ele>1182.4000244141</ele>
        <time>2023-10-01T08:03:35.000Z</time>
      </trkpt>
      <trkpt lat="45.00705" lon="5.80518">
        <ele>1182.8000488281</ele>
        <time>2023-10-01T08:03:36.000Z</time>
      </trkpt>
      <trkpt lat="45.00705" lon="5.8052">
        <ele>1183.1999511719</ele>
        <time>2023-10-01T08:03:37.000Z</time>
      </trkpt>
      <trkpt lat="45.00705" lon="5.80521">
        <ele>1183.4000244141</ele>
        <time>2023-10-01T08:03:38.000Z</time>
      </trkpt>
      <trkpt lat="45.00705" lon="5.80522">
        <ele>1183.8000488281</ele>
        <time>2023-10-01T08:03:39.000Z</time>
      </trkpt>
      <trkpt lat="45.00705" lon="5.80523">
        <ele>1184.1999511719</ele>
        <time>2023-10-01T08:03:40.000Z</time>
      </trkpt>
      <trkpt lat="45.00705" lon="5.80524">
        <ele>1184.5999755859</ele>
        <time>2023-10-01T08:03:41.000Z</time>
      </trkpt>
      <trkpt lat="45.00705" lon="5.80526">
        <ele>1184.8000488281</ele>
        <time>2023-10-01T08:03:42.000Z</time>
      </trkpt>
      <trkpt lat="45.00704" lon="5.80528">
        <ele>1185.1999511719</ele>
        <time>2023-10-01T08:03:43.000Z</time>
      </trkpt>
      <trkpt lat="45.00704" lon="5.80529">
        <ele>1185.5999755859</ele>
        <time>2023-10-01T08:03:44.000Z</time>
      </trkpt>
      <trkpt lat="45.00703" lon="5.80531">
        <ele>1186</ele>
        <time>2023-10-01T08:03:45.000Z</time>
      </trkpt>
      <trkpt lat="45.00703" lon="5.80531">
        <ele>1186.4000244141</ele>
        <time>2023-10-01T08:03:46.000Z</time>
      </trkpt>
      <trkpt lat="45.00703" lon="5.80532">
        <ele>1186.8000488281</ele>
        <time>2023-10-01T08:03:47.000Z</time>
      </trkpt>
      <trkpt lat="45.00703" lon="5.80533">
        <ele>1187.1999511719</ele>
        <time>2023-10-01T08:03:48.000Z</time>
      </trkpt>
      <trkpt lat="45.00703" lon="5.80534">
        <ele>1187.5999755859</ele>
        <time>2023-10-01T08:03:49.000Z</time>
      </trkpt>
      <trkpt lat="45.00703" lon="5.80535">
        <ele>1187.8000488281</ele>
        <time>2023-10-01T08:03:50.000Z</time>
      </trkpt>
      <trkpt lat="45.00703" lon="5.80536">
        <ele>1188</ele>
        <time>2023-10-01T08:03:51.000Z</time>
      </trkpt>
      <trkpt lat="45.00703" lon="5.80538">
        <ele>1188.4000244141</ele>
        <time>2023-10-01T08:03:52.000Z</time>
      </trkpt>
      <trkpt lat="45.00703" lon="5.80539">
        <ele>1188.5999755859</ele>
        <time>2023-10-01T08:03:53.000Z</time>
      </trkpt>
      <trkpt lat="45.00703" lon="5.8054">
        <ele>1188.8000488281</ele>
        <time>2023-10-01T08:03:54.000Z</time>
      </trkpt>
      <trkpt lat="45.00703" lon="5.80541">
        <ele>1189.1999511719</ele>
        <time>2023-10-01T08:03:55.000Z</time>
      </trkpt>
      <trkpt lat="45.00703" lon="5.80543">
        <ele>1189.5999755859</ele>
        <time>2023-10-01T08:03:56.000Z</time>
      </trkpt>
      <trkpt lat="45.00703" lon="5.80545">
        <ele>1190</ele>
        <time>2023-10-01T08:03:57.000Z</time>
      </trkpt>
      <trkpt lat="45.00703" lon="5.80546">
        <ele>1190.1999511719</ele>
        <time>2023-10-01T08:03:58.000Z</time>
      </trkpt>
      <trkpt lat="45.00703" lon="5.80547">
        <ele>1190.4000244141</ele>
        <time>2023-10-01T08:03:59.000Z</time>
      </trkpt>
      <trkpt lat="45.00703" lon="5.80549">
        <ele>1191</ele>
        <time>2023-10-01T08:04:00.000Z</time>
      </trkpt>
      <trkpt lat="45.00703" lon="5.8055">
        <ele>1191.1999511719</ele>
        <time>2023-10-01T08:04:01.000Z</time>
      </trkpt>
      <trkpt lat="45.00703" lon="5.80551">
        <ele>1191.4000244141</ele>
        <time>2023-10-01T08:04:02.000Z</time>
      </trkpt>
      <trkpt lat="45.00703" lon="5.80552">
        <ele>1191.8000488281</ele>
        <time>2023-10-01T08:04:03.000Z</time>
      </trkpt>
      <trkpt lat="45.00703" lon="5.80553">
        <ele>1192.1999511719</ele>
        <time>2023-10-01T08:04:04.000Z</time>
      </trkpt>
      <trkpt lat="45.00703" lon="5.80555">
        <ele>1192.4000244141</ele>
        <time>2023-10-01T08:04:05.000Z</time>
      </trkpt>
      <trkpt lat="45.00703" lon="5.80557">
        <ele>1192.8000488281</ele>
        <time>2023-10-01T08:04:06.000Z</time>
      </trkpt>
      <trkpt lat="45.00703" lon="5.80559">
        <ele>1193</ele>
        <time>2023-10-01T08:04:07.000Z</time>
      </trkpt>
      <trkpt lat="45.00703" lon="5.8056">
        <ele>1193.4000244141</ele>
        <time>2023-10-01T08:04:08.000Z</time>
      </trkpt>
      <trkpt lat="45.00703" lon="5.80561">
        <ele>1193.5999755859</ele>
        <time>2023-10-01T08:04:09.000Z</time>
      </trkpt>
      <trkpt lat="45.00703" lon="5.80562">
        <ele>1194</ele>
        <time>2023-10-01T08:04:10.000Z</time>
      </trkpt>
      <trkpt lat="45.00703" lon="5.80564">
        <ele>1194.5999755859</ele>
        <time>2023-10-01T08:04:11.000Z</time>
      </trkpt>
      <trkpt lat="45.00703" lon="5.80565">
        <ele>1194.8000488281</ele>
        <time>2023-10-01T08:04:12.000Z</time>
      </trkpt>
      <trkpt lat="45.00703" lon="5.80567">
        <ele>1195.1999511719</ele>
        <time>2023-10-01T08:04:13.000Z</time>
      </trkpt>
      <trkpt lat="45.00703" lon="5.80568">
        <ele>1195.4000244141</ele>
        <time>2023-10-01T08:04:14.000Z</time>
      </trkpt>
      <trkpt lat="45.00703" lon="5.80569">
        <ele>1195.8000488281</ele>
        <time>2023-10-01T08:04:15.000Z</time>
      </trkpt>
      <trkpt lat="45.00703" lon="5.8057">
        <ele>1196</ele>
        <time>2023-10-01T08:04:16.000Z</time>
      </trkpt>
      <trkpt lat="45.00703" lon="5.80573">
        <ele>1196.4000244141</ele>
        <time>2023-10-01T08:04:17.000Z</time>
      </trkpt>
      <trkpt lat="45.00703" lon="5.80574">
        <ele>1196.8000488281</ele>
        <time>2023-10-01T08:04:18.000Z</time>
      </trkpt>
      <trkpt lat="45.00703" lon="5.80575">
        <ele>1197</ele>
        <time>2023-10-01T08:04:19.000Z</time>
      </trkpt>
      <trkpt lat="45.00703" lon="5.80576">
        <ele>1197.4000244141</ele>
        <time>2023-10-01T08:04:20.000Z</time>
      </trkpt>
      <trkpt lat="45.00703" lon="5.80577">
        <ele>1197.8000488281</ele>
        <time>2023-10-01T08:04:21.000Z</time>
      </trkpt>
      <trkpt lat="45.00703" lon="5.80579">
        <ele>1198</ele>
        <time>2023-10-01T08:04:22.000Z</time>
      </trkpt>
      <trkpt lat="45.00703" lon="5.8058">
        <ele>1198.4000244141</ele>
        <time>2023-10-01T08:04:23.000Z</time>
      </trkpt>
      <trkpt lat="45.00702" lon="5.80581">
        <ele>1198.5999755859</ele>
        <time>2023-10-01T08:04:24.000Z</time>
      </trkpt>
      <trkpt lat="45.00702" lon="5.80582">
        <ele>1198.8000488281</ele>
        <time>2023-10-01T08:04:25.000Z</time>
      </trkpt>
      <trkpt lat="45.00702" lon="5.80584">
        <ele>1199.1999511719</ele>
        <time>2023-10-01T08:04:26.000Z</time>
      </trkpt>
      <trkpt lat="45.00701" lon="5.80585">
        <ele>1199.5999755859</ele>
        <time>2023-10-01T08:04:27.000Z</time>
      </trkpt>
      <trkpt lat="45.00701" lon="5.80586">
        <ele>1199.8000488281</ele>
        <time>2023-10-01T08:04:28.000Z</time>
      </trkpt>
      <trkpt lat="45.00701" lon="5.80588">
        <ele>1200.1999511719</ele>
        <time>2023-10-01T08:04:29.000Z</time>
      </trkpt>
      <trkpt lat="45.007" lon="5.80589">
        <ele>1200.4000244141</ele>
        <time>2023-10-01T08:04:30.000Z</time>
      </trkpt>
      <trkpt lat="45.007" lon="5.80591">
        <ele>1200.5999755859</ele>
        <time>2023-10-01T08:04:31.000Z</time>
      </trkpt>
      <trkpt lat="45.007" lon="5.80592">
        <ele>1201</ele>
        <time>2023-10-01T08:04:32.000Z</time>
      </trkpt>
      <trkpt lat="45.007" lon="5.80592">
        <ele>1201.4000244141</ele>
        <time>2023-10-01T08:04:33.000Z</time>
      </trkpt>
      <trkpt lat="45.007" lon="5.80593">
        <ele>1201.8000488281</ele>
        <time>2023-10-01T08:04:34.000Z</time>
      </trkpt>
      <trkpt lat="45.007" lon="5.80594">
        <ele>1202</ele>
        <time>2023-10-01T08:04:35.000Z</time>
      </trkpt>
      <trkpt lat="45.00699" lon="5.80595">
        <ele>1202.1999511719</ele>
        <time>2023-10-01T08:04:36.000Z</time>
      </trkpt>
      <trkpt lat="45.007" lon="5.80596">
        <ele>1202.5999755859</ele>
        <time>2023-10-01T08:04:37.000Z</time>
      </trkpt>
      <trkpt lat="45.007" lon="5.80597">
        <ele>1203</ele>
        <time>2023-10-01T08:04:38.000Z</time>
      </trkpt>
      <trkpt lat="45.007" lon="5.80597">
        <ele>1203.5999755859</ele>
        <time>2023-10-01T08:04:39.000Z</time>
      </trkpt>
      <trkpt lat="45.007" lon="5.80599">
        <ele>1203.8000488281</ele>
        <time>2023-10-01T08:04:40.000Z</time>
      </trkpt>
      <trkpt lat="45.007" lon="5.80599">
        <ele>1204.1999511719</ele>
        <time>2023-10-01T08:04:41.000Z</time>
      </trkpt>
      <trkpt lat="45.00699" lon="5.806">
        <ele>1204.4000244141</ele>
        <time>2023-10-01T08:04:42.000Z</time>
      </trkpt>
      <trkpt lat="45.00699" lon="5.806">
        <ele>1204.8000488281</ele>
        <time>2023-10-01T08:04:43.000Z</time>
      </trkpt>
      <trkpt lat="45.00699" lon="5.80601">
        <ele>1205.1999511719</ele>
        <time>2023-10-01T08:04:44.000Z</time>
      </trkpt>
      <trkpt lat="45.00699" lon="5.80603">
        <ele>1205.5999755859</ele>
        <time>2023-10-01T08:04:45.000Z</time>
      </trkpt>
      <trkpt lat="45.00699" lon="5.80604">
        <ele>1206</ele>
        <time>2023-10-01T08:04:46.000Z</time>
      </trkpt>
      <trkpt lat="45.00699" lon="5.80605">
        <ele>1206.1999511719</ele>
        <time>2023-10-01T08:04:47.000Z</time>
      </trkpt>
      <trkpt lat="45.00699" lon="5.80606">
        <ele>1206.5999755859</ele>
        <time>2023-10-01T08:04:48.000Z</time>
      </trkpt>
      <trkpt lat="45.00699" lon="5.80608">
        <ele>1207</ele>
        <time>2023-10-01T08:04:49.000Z</time>
      </trkpt>
      <trkpt lat="45.00698" lon="5.80609">
        <ele>1207.1999511719</ele>
        <time>2023-10-01T08:04:50.000Z</time>
      </trkpt>
      <trkpt lat="45.00698" lon="5.8061">
        <ele>1207.4000244141</ele>
        <time>2023-10-01T08:04:51.000Z</time>
      </trkpt>
      <trkpt lat="45.00699" lon="5.80612">
        <ele>1207.5999755859</ele>
        <time>2023-10-01T08:04:52.000Z</time>
      </trkpt>
      <trkpt lat="45.00699" lon="5.80613">
        <ele>1208</ele>
        <time>2023-10-01T08:04:53.000Z</time>
      </trkpt>
      <trkpt lat="45.00699" lon="5.80614">
        <ele>1208.1999511719</ele>
        <time>2023-10-01T08:04:54.000Z</time>
      </trkpt>
      <trkpt lat="45.00699" lon="5.80616">
        <ele>1208.4000244141</ele>
        <time>2023-10-01T08:04:55.000Z</time>
      </trkpt>
      <trkpt lat="45.00698" lon="5.80617">
        <ele>1208.8000488281</ele>
        <time>2023-10-01T08:04:56.000Z</time>
      </trkpt>
      <trkpt lat="45.00698" lon="5.80618">
        <ele>1209</ele>
        <time>2023-10-01T08:04:57.000Z</time>
      </trkpt>
      <trkpt lat="45.00698" lon="5.80619">
        <ele>1209.1999511719</ele>
        <time>2023-10-01T08:04:58.000Z</time>
      </trkpt>
      <trkpt lat="45.00698" lon="5.8062">
        <ele>1209.8000488281</ele>
        <time>2023-10-01T08:04:59.000Z</time>
      </trkpt>
      <trkpt lat="45.00698" lon="5.80621">
        <ele>1210</ele>
        <time>2023-10-01T08:05:00.000Z</time>
      </trkpt>
      <trkpt lat="45.00698" lon="5.80622">
        <ele>1210.4000244141</ele>
        <time>2023-10-01T08:05:01.000Z</time>
      </trkpt>
      <trkpt lat="45.00698" lon="5.80624">
        <ele>1210.5999755859</ele>
        <time>2023-10-01T08:05:02.000Z</time>
      </trkpt>
      <trkpt lat="45.00697" lon="5.80625">
        <ele>1210.8000488281</ele>
        <time>2023-10-01T08:05:03.000Z</time>
      </trkpt>
      <trkpt lat="45.00697" lon="5.80627">
        <ele>1211.1999511719</ele>
        <time>2023-10-01T08:05:04.000Z</time>
      </trkpt>
      <trkpt lat="45.00697" lon="5.80628">
        <ele>1211.4000244141</ele>
        <time>2023-10-01T08:05:05.000Z</time>
      </trkpt>
      <trkpt lat="45.00696" lon="5.80629">
        <ele>1211.5999755859</ele>
        <time>2023-10-01T08:05:06.000Z</time>
      </trkpt>
      <trkpt lat="45.00696" lon="5.8063">
        <ele>1211.8000488281</ele>
        <time>2023-10-01T08:05:07.000Z</time>
      </trkpt>
      <trkpt lat="45.00696" lon="5.80631">
        <ele>1212</ele>
        <time>2023-10-01T08:05:08.000Z</time>
      </trkpt>
      <trkpt lat="45.00695" lon="5.80633">
        <ele>1212.5999755859</ele>
        <time>2023-10-01T08:05:09.000Z</time>
      </trkpt>
      <trkpt lat="45.00696" lon="5.80634">
        <ele>1212.8000488281</ele>
        <time>2023-10-01T08:05:10.000Z</time>
      </trkpt>
      <trkpt lat="45.00696" lon="5.80634">
        <ele>1213.1999511719</ele>
        <time>2023-10-01T08:05:11.000Z</time>
      </trkpt>
      <trkpt lat="45.00696" lon="5.80635">
        <ele>1213.4000244141</ele>
        <time>2023-10-01T08:05:12.000Z</time>
      </trkpt>
      <trkpt lat="45.00696" lon="5.80636">
        <ele>1213.5999755859</ele>
        <time>2023-10-01T08:05:13.000Z</time>
      </trkpt>
      <trkpt lat="45.00695" lon="5.80636">
        <ele>1214.1999511719</ele>
        <time>2023-10-01T08:05:14.000Z</time>
      </trkpt>
      <trkpt lat="45.00695" lon="5.80637">
        <ele>1214.4000244141</ele>
        <time>2023-10-01T08:05:15.000Z</time>
      </trkpt>
      <trkpt lat="45.00695" lon="5.80638">
        <ele>1214.8000488281</ele>
        <time>2023-10-01T08:05:16.000Z</time>
      </trkpt>
      <trkpt lat="45.00694" lon="5.80639">
        <ele>1215</ele>
        <time>2023-10-01T08:05:17.000Z</time>
      </trkpt>
      <trkpt lat="45.00694" lon="5.8064">
        <ele>1215.4000244141</ele>
        <time>2023-10-01T08:05:18.000Z</time>
      </trkpt>
      <trkpt lat="45.00694" lon="5.80641">
        <ele>1215.5999755859</ele>
        <time>2023-10-01T08:05:19.000Z</time>
      </trkpt>
      <trkpt lat="45.00693" lon="5.80643">
        <ele>1216</ele>
        <time>2023-10-01T08:05:20.000Z</time>
      </trkpt>
      <trkpt lat="45.00692" lon="5.80645">
        <ele>1216.1999511719</ele>
        <time>2023-10-01T08:05:21.000Z</time>
      </trkpt>
      <trkpt lat="45.00692" lon="5.80646">
        <ele>1216.4000244141</ele>
        <time>2023-10-01T08:05:22.000Z</time>
      </trkpt>
      <trkpt lat="45.00691" lon="5.80648">
        <ele>1216.4000244141</ele>
        <time>2023-10-01T08:05:23.000Z</time>
      </trkpt>
      <trkpt lat="45.0069" lon="5.80649">
        <ele>1216.5999755859</ele>
        <time>2023-10-01T08:05:24.000Z</time>
      </trkpt>
      <trkpt lat="45.0069" lon="5.80649">
        <ele>1216.5999755859</ele>
        <time>2023-10-01T08:05:25.000Z</time>
      </trkpt>
      <trkpt lat="45.00689" lon="5.8065">
        <ele>1217</ele>
        <time>2023-10-01T08:05:26.000Z</time>
      </trkpt>
      <trkpt lat="45.00689" lon="5.80651">
        <ele>1217.1999511719</ele>
        <time>2023-10-01T08:05:27.000Z</time>
      </trkpt>
      <trkpt lat="45.00689" lon="5.80652">
        <ele>1217.4000244141</ele>
        <time>2023-10-01T08:05:28.000Z</time>
      </trkpt>
      <trkpt lat="45.00689" lon="5.80652">
        <ele>1217.5999755859</ele>
        <time>2023-10-01T08:05:29.000Z</time>
      </trkpt>
      <trkpt lat="45.00689" lon="5.80653">
        <ele>1218</ele>
        <time>2023-10-01T08:05:30.000Z</time>
      </trkpt>
      <trkpt lat="45.00689" lon="5.80654">
        <ele>1218.4000244141</ele>
        <time>2023-10-01T08:05:31.000Z</time>
      </trkpt>
      <trkpt lat="45.00689" lon="5.80655">
        <ele>1218.8000488281</ele>
        <time>2023-10-01T08:05:32.000Z</time>
      </trkpt>
      <trkpt lat="45.00689" lon="5.80656">
        <ele>1219</ele>
        <time>2023-10-01T08:05:33.000Z</time>
      </trkpt>
      <trkpt lat="45.00689" lon="5.80658">
        <ele>1219.4000244141</ele>
        <time>2023-10-01T08:05:34.000Z</time>
      </trkpt>
      <trkpt lat="45.00689" lon="5.80659">
        <ele>1219.5999755859</ele>
        <time>2023-10-01T08:05:35.000Z</time>
      </trkpt>
      <trkpt lat="45.00689" lon="5.8066">
        <ele>1219.8000488281</ele>
        <time>2023-10-01T08:05:36.000Z</time>
      </trkpt>
      <trkpt lat="45.00689" lon="5.80662">
        <ele>1220.1999511719</ele>
        <time>2023-10-01T08:05:37.000Z</time>
      </trkpt>
      <trkpt lat="45.00689" lon="5.80663">
        <ele>1220.5999755859</ele>
        <time>2023-10-01T08:05:38.000Z</time>
      </trkpt>
      <trkpt lat="45.00689" lon="5.80664">
        <ele>1220.8000488281</ele>
        <time>2023-10-01T08:05:39.000Z</time>
      </trkpt>
      <trkpt lat="45.00689" lon="5.80665">
        <ele>1221.1999511719</ele>
        <time>2023-10-01T08:05:40.000Z</time>
      </trkpt>
      <trkpt lat="45.00689" lon="5.80666">
        <ele>1221.4000244141</ele>
        <time>2023-10-01T08:05:41.000Z</time>
      </trkpt>
      <trkpt lat="45.00689" lon="5.80667">
        <ele>1221.8000488281</ele>
        <time>2023-10-01T08:05:42.000Z</time>
      </trkpt>
      <trkpt lat="45.00689" lon="5.80667">
        <ele>1222</ele>
        <time>2023-10-01T08:05:43.000Z</time>
      </trkpt>
      <trkpt lat="45.00689" lon="5.80667">
        <ele>1222.4000244141</ele>
        <time>2023-10-01T08:05:44.000Z</time>
      </trkpt>
      <trkpt lat="45.00689" lon="5.80668">
        <ele>1222.8000488281</ele>
        <time>2023-10-01T08:05:45.000Z</time>
      </trkpt>
      <trkpt lat="45.00688" lon="5.80669">
        <ele>1223.1999511719</ele>
        <time>2023-10-01T08:05:46.000Z</time>
      </trkpt>
      <trkpt lat="45.00688" lon="5.80671">
        <ele>1223.8000488281</ele>
        <time>2023-10-01T08:05:47.000Z</time>
      </trkpt>
      <trkpt lat="45.00688" lon="5.80672">
        <ele>1224.1999511719</ele>
        <time>2023-10-01T08:05:48.000Z</time>
      </trkpt>
      <trkpt lat="45.00688" lon="5.80674">
        <ele>1224.5999755859</ele>
        <time>2023-10-01T08:05:49.000Z</time>
      </trkpt>
      <trkpt lat="45.00689" lon="5.80676">
        <ele>1225</ele>
        <time>2023-10-01T08:05:50.000Z</time>
      </trkpt>
      <trkpt lat="45.00689" lon="5.80677">
        <ele>1225.1999511719</ele>
        <time>2023-10-01T08:05:51.000Z</time>
      </trkpt>
      <trkpt lat="45.0069" lon="5.80678">
        <ele>1225.4000244141</ele>
        <time>2023-10-01T08:05:52.000Z</time>
      </trkpt>
      <trkpt lat="45.0069" lon="5.80679">
        <ele>1225.5999755859</ele>
        <time>2023-10-01T08:05:53.000Z</time>
      </trkpt>
      <trkpt lat="45.0069" lon="5.8068">
        <ele>1226</ele>
        <time>2023-10-01T08:05:54.000Z</time>
      </trkpt>
      <trkpt lat="45.0069" lon="5.80682">
        <ele>1226.1999511719</ele>
        <time>2023-10-01T08:05:55.000Z</time>
      </trkpt>
      <trkpt lat="45.0069" lon="5.80683">
        <ele>1226.8000488281</ele>
        <time>2023-10-01T08:05:56.000Z</time>
      </trkpt>
      <trkpt lat="45.0069" lon="5.80684">
        <ele>1227</ele>
        <time>2023-10-01T08:05:57.000Z</time>
      </trkpt>
      <trkpt lat="45.0069" lon="5.80685">
        <ele>1227.4000244141</ele>
        <time>2023-10-01T08:05:58.000Z</time>
      </trkpt>
      <trkpt lat="45.0069" lon="5.80686">
        <ele>1227.8000488281</ele>
        <time>2023-10-01T08:05:59.000Z</time>
      </trkpt>
      <trkpt lat="45.0069" lon="5.80687">
        <ele>1227.8000488281</ele>
        <time>2023-10-01T08:06:00.000Z</time>
      </trkpt>
      <trkpt lat="45.0069" lon="5.80688">
        <ele>1228.1999511719</ele>
        <time>2023-10-01T08:06:01.000Z</time>
      </trkpt>
      <trkpt lat="45.00689" lon="5.80689">
        <ele>1228.5999755859</ele>
        <time>2023-10-01T08:06:02.000Z</time>
      </trkpt>
      <trkpt lat="45.00689" lon="5.80689">
        <ele>1228.8000488281</ele>
        <time>2023-10-01T08:06:03.000Z</time>
      </trkpt>
      <trkpt lat="45.00689" lon="5.8069">
        <ele>1229.1999511719</ele>
        <time>2023-10-01T08:06:04.000Z</time>
      </trkpt>
      <trkpt lat="45.00689" lon="5.80691">
        <ele>1229.4000244141</ele>
        <time>2023-10-01T08:06:05.000Z</time>
      </trkpt>
      <trkpt lat="45.0069" lon="5.80693">
        <ele>1229.5999755859</ele>
        <time>2023-10-01T08:06:06.000Z</time>
      </trkpt>
      <trkpt lat="45.0069" lon="5.80694">
        <ele>1229.8000488281</ele>
        <time>2023-10-01T08:06:07.000Z</time>
      </trkpt>
      <trkpt lat="45.0069" lon="5.80695">
        <ele>1230.1999511719</ele>
        <time>2023-10-01T08:06:08.000Z</time>
      </trkpt>
      <trkpt lat="45.0069" lon="5.80696">
        <ele>1230.4000244141</ele>
        <time>2023-10-01T08:06:09.000Z</time>
      </trkpt>
      <trkpt lat="45.0069" lon="5.80697">
        <ele>1230.8000488281</ele>
        <time>2023-10-01T08:06:10.000Z</time>
      </trkpt>
      <trkpt lat="45.0069" lon="5.80698">
        <ele>1231.1999511719</ele>
        <time>2023-10-01T08:06:11.000Z</time>
      </trkpt>
      <trkpt lat="45.00691" lon="5.80698">
        <ele>1231.4000244141</ele>
        <time>2023-10-01T08:06:12.000Z</time>
      </trkpt>
      <trkpt lat="45.00691" lon="5.80698">
        <ele>1231.8000488281</ele>
        <time>2023-10-01T08:06:13.000Z</time>
      </trkpt>
      <trkpt lat="45.00691" lon="5.80699">
        <ele>1232.1999511719</ele>
        <time>2023-10-01T08:06:14.000Z</time>
      </trkpt>
      <trkpt lat="45.0069" lon="5.807">
        <ele>1232.4000244141</ele>
        <time>2023-10-01T08:06:15.000Z</time>
      </trkpt>
      <trkpt lat="45.0069" lon="5.80702">
        <ele>1232.8000488281</ele>
        <time>2023-10-01T08:06:16.000Z</time>
      </trkpt>
      <trkpt lat="45.0069" lon="5.80701">
        <ele>1233.1999511719</ele>
        <time>2023-10-01T08:06:17.000Z</time>
      </trkpt>
      <trkpt lat="45.0069" lon="5.80702">
        <ele>1233.4000244141</ele>
        <time>2023-10-01T08:06:18.000Z</time>
      </trkpt>
      <trkpt lat="45.0069" lon="5.80702">
        <ele>1233.8000488281</ele>
        <time>2023-10-01T08:06:19.000Z</time>
      </trkpt>
      <trkpt lat="45.0069" lon="5.80704">
        <ele>1234</ele>
        <time>2023-10-01T08:06:20.000Z</time>
      </trkpt>
      <trkpt lat="45.0069" lon="5.80704">
        <ele>1234.5999755859</ele>
        <time>2023-10-01T08:06:21.000Z</time>
      </trkpt>
      <trkpt lat="45.00689" lon="5.80705">
        <ele>1234.5999755859</ele>
        <time>2023-10-01T08:06:22.000Z</time>
      </trkpt>
      <trkpt lat="45.00689" lon="5.80706">
        <ele>1235</ele>
        <time>2023-10-01T08:06:23.000Z</time>
      </trkpt>
      <trkpt lat="45.00689" lon="5.80708">
        <ele>1235.4000244141</ele>
        <time>2023-10-01T08:06:24.000Z</time>
      </trkpt>
      <trkpt lat="45.0069" lon="5.80708">
        <ele>1235.5999755859</ele>
        <time>2023-10-01T08:06:25.000Z</time>
      </trkpt>
      <trkpt lat="45.0069" lon="5.80709">
        <ele>1236</ele>
        <time>2023-10-01T08:06:26.000Z</time>
      </trkpt>
      <trkpt lat="45.0069" lon="5.80708">
        <ele>1236.4000244141</ele>
        <time>2023-10-01T08:06:27.000Z</time>
      </trkpt>
      <trkpt lat="45.00689" lon="5.80709">
        <ele>1236.8000488281</ele>
        <time>2023-10-01T08:06:28.000Z</time>
      </trkpt>
      <trkpt lat="45.00689" lon="5.8071">
        <ele>1237</ele>
        <time>2023-10-01T08:06:29.000Z</time>
      </trkpt>
      <trkpt lat="45.00689" lon="5.8071">
        <ele>1237.4000244141</ele>
        <time>2023-10-01T08:06:30.000Z</time>
      </trkpt>
      <trkpt lat="45.00689" lon="5.8071">
        <ele>1237.8000488281</ele>
        <time>2023-10-01T08:06:31.000Z</time>
      </trkpt>
      <trkpt lat="45.00689" lon="5.8071">
        <ele>1238</ele>
        <time>2023-10-01T08:06:32.000Z</time>
      </trkpt>
      <trkpt lat="45.00688" lon="5.80711">
        <ele>1238.4000244141</ele>
        <time>2023-10-01T08:06:33.000Z</time>
      </trkpt>
      <trkpt lat="45.00688" lon="5.80712">
        <ele>1238.8000488281</ele>
        <time>2023-10-01T08:06:34.000Z</time>
      </trkpt>
      <trkpt lat="45.00688" lon="5.80712">
        <ele>1239.1999511719</ele>
        <time>2023-10-01T08:06:35.000Z</time>
      </trkpt>
      <trkpt lat="45.00688" lon="5.80713">
        <ele>1239.5999755859</ele>
        <time>2023-10-01T08:06:36.000Z</time>
      </trkpt>
      <trkpt lat="45.00688" lon="5.80714">
        <ele>1239.8000488281</ele>
        <time>2023-10-01T08:06:37.000Z</time>
      </trkpt>
      <trkpt lat="45.00688" lon="5.80714">
        <ele>1240</ele>
        <time>2023-10-01T08:06:38.000Z</time>
      </trkpt>
      <trkpt lat="45.00689" lon="5.80715">
        <ele>1240.4000244141</ele>
        <time>2023-10-01T08:06:39.000Z</time>
      </trkpt>
      <trkpt lat="45.00689" lon="5.80715">
        <ele>1240.5999755859</ele>
        <time>2023-10-01T08:06:40.000Z</time>
      </trkpt>
      <trkpt lat="45.00689" lon="5.80716">
        <ele>1241</ele>
        <time>2023-10-01T08:06:41.000Z</time>
      </trkpt>
      <trkpt lat="45.00689" lon="5.80717">
        <ele>1241.1999511719</ele>
        <time>2023-10-01T08:06:42.000Z</time>
      </trkpt>
      <trkpt lat="45.00689" lon="5.80718">
        <ele>1241.4000244141</ele>
        <time>2023-10-01T08:06:43.000Z</time>
      </trkpt>
      <trkpt lat="45.00689" lon="5.80719">
        <ele>1241.8000488281</ele>
        <time>2023-10-01T08:06:44.000Z</time>
      </trkpt>
      <trkpt lat="45.00689" lon="5.80719">
        <ele>1242.1999511719</ele>
        <time>2023-10-01T08:06:45.000Z</time>
      </trkpt>
      <trkpt lat="45.00689" lon="5.8072">
        <ele>1242.5999755859</ele>
        <time>2023-10-01T08:06:46.000Z</time>
      </trkpt>
      <trkpt lat="45.00689" lon="5.80722">
        <ele>1242.8000488281</ele>
        <time>2023-10-01T08:06:47.000Z</time>
      </trkpt>
      <trkpt lat="45.00689" lon="5.80722">
        <ele>1243.1999511719</ele>
        <time>2023-10-01T08:06:48.000Z</time>
      </trkpt>
      <trkpt lat="45.0069" lon="5.80723">
        <ele>1243.5999755859</ele>
        <time>2023-10-01T08:06:49.000Z</time>
      </trkpt>
      <trkpt lat="45.0069" lon="5.80723">
        <ele>1243.8000488281</ele>
        <time>2023-10-01T08:06:50.000Z</time>
      </trkpt>
      <trkpt lat="45.00689" lon="5.80723">
        <ele>1244.1999511719</ele>
        <time>2023-10-01T08:06:51.000Z</time>
      </trkpt>
      <trkpt lat="45.00689" lon="5.80725">
        <ele>1244.4000244141</ele>
        <time>2023-10-01T08:06:52.000Z</time>
      </trkpt>
      <trkpt lat="45.00689" lon="5.80725">
        <ele>1244.5999755859</ele>
        <time>2023-10-01T08:06:53.000Z</time>
      </trkpt>
      <trkpt lat="45.00689" lon="5.80726">
        <ele>1245</ele>
        <time>2023-10-01T08:06:54.000Z</time>
      </trkpt>
      <trkpt lat="45.00689" lon="5.80727">
        <ele>1245.1999511719</ele>
        <time>2023-10-01T08:06:55.000Z</time>
      </trkpt>
      <trkpt lat="45.00689" lon="5.80727">
        <ele>1245.5999755859</ele>
        <time>2023-10-01T08:06:56.000Z</time>
      </trkpt>
      <trkpt lat="45.00689" lon="5.80729">
        <ele>1246</ele>
        <time>2023-10-01T08:06:57.000Z</time>
      </trkpt>
      <trkpt lat="45.00689" lon="5.8073">
        <ele>1246.4000244141</ele>
        <time>2023-10-01T08:06:58.000Z</time>
      </trkpt>
      <trkpt lat="45.00689" lon="5.8073">
        <ele>1246.5999755859</ele>
        <time>2023-10-01T08:06:59.000Z</time>
      </trkpt>
      <trkpt lat="45.00688" lon="5.80732">
        <ele>1246.8000488281</ele>
        <time>2023-10-01T08:07:00.000Z</time>
      </trkpt>
      <trkpt lat="45.00689" lon="5.80733">
        <ele>1247</ele>
        <time>2023-10-01T08:07:01.000Z</time>
      </trkpt>
      <trkpt lat="45.00689" lon="5.80734">
        <ele>1247</ele>
        <time>2023-10-01T08:07:02.000Z</time>
      </trkpt>
      <trkpt lat="45.00689" lon="5.80734">
        <ele>1247.5999755859</ele>
        <time>2023-10-01T08:07:03.000Z</time>
      </trkpt>
      <trkpt lat="45.00689" lon="5.80735">
        <ele>1247.5999755859</ele>
        <time>2023-10-01T08:07:04.000Z</time>
      </trkpt>
      <trkpt lat="45.00689" lon="5.80735">
        <ele>1247.8000488281</ele>
        <time>2023-10-01T08:07:05.000Z</time>
      </trkpt>
      <trkpt lat="45.00689" lon="5.80736">
        <ele>1248.1999511719</ele>
        <time>2023-10-01T08:07:06.000Z</time>
      </trkpt>
      <trkpt lat="45.00689" lon="5.80738">
        <ele>1248.5999755859</ele>
        <time>2023-10-01T08:07:07.000Z</time>
      </trkpt>
      <trkpt lat="45.00689" lon="5.80739">
        <ele>1249</ele>
        <time>2023-10-01T08:07:08.000Z</time>
      </trkpt>
      <trkpt lat="45.00689" lon="5.8074">
        <ele>1249.1999511719</ele>
        <time>2023-10-01T08:07:09.000Z</time>
      </trkpt>
      <trkpt lat="45.00689" lon="5.80741">
        <ele>1249.5999755859</ele>
        <time>2023-10-01T08:07:10.000Z</time>
      </trkpt>
      <trkpt lat="45.00689" lon="5.80741">
        <ele>1250</ele>
        <time>2023-10-01T08:07:11.000Z</time>
      </trkpt>
      <trkpt lat="45.00689" lon="5.80742">
        <ele>1250.1999511719</ele>
        <time>2023-10-01T08:07:12.000Z</time>
      </trkpt>
      <trkpt lat="45.00689" lon="5.80743">
        <ele>1250.5999755859</ele>
        <time>2023-10-01T08:07:13.000Z</time>
      </trkpt>
      <trkpt lat="45.00689" lon="5.80744">
        <ele>1251</ele>
        <time>2023-10-01T08:07:14.000Z</time>
      </trkpt>
      <trkpt lat="45.00688" lon="5.80745">
        <ele>1251.4000244141</ele>
        <time>2023-10-01T08:07:15.000Z</time>
      </trkpt>
      <trkpt lat="45.00688" lon="5.80746">
        <ele>1251.8000488281</ele>
        <time>2023-10-01T08:07:16.000Z</time>
      </trkpt>
      <trkpt lat="45.00689" lon="5.80746">
        <ele>1252.1999511719</ele>
        <time>2023-10-01T08:07:17.000Z</time>
      </trkpt>
      <trkpt lat="45.00688" lon="5.80747">
        <ele>1252.4000244141</ele>
        <time>2023-10-01T08:07:18.000Z</time>
      </trkpt>
      <trkpt lat="45.00688" lon="5.80748">
        <ele>1252.5999755859</ele>
        <time>2023-10-01T08:07:19.000Z</time>
      </trkpt>
      <trkpt lat="45.00688" lon="5.80749">
        <ele>1252.8000488281</ele>
        <time>2023-10-01T08:07:20.000Z</time>
      </trkpt>
      <trkpt lat="45.00688" lon="5.8075">
        <ele>1253.1999511719</ele>
        <time>2023-10-01T08:07:21.000Z</time>
      </trkpt>
      <trkpt lat="45.00688" lon="5.80751">
        <ele>1253.4000244141</ele>
        <time>2023-10-01T08:07:22.000Z</time>
      </trkpt>
      <trkpt lat="45.00688" lon="5.80752">
        <ele>1253.5999755859</ele>
        <time>2023-10-01T08:07:23.000Z</time>
      </trkpt>
      <trkpt lat="45.00688" lon="5.80752">
        <ele>1254</ele>
        <time>2023-10-01T08:07:24.000Z</time>
      </trkpt>
      <trkpt lat="45.00688" lon="5.80754">
        <ele>1254.4000244141</ele>
        <time>2023-10-01T08:07:25.000Z</time>
      </trkpt>
      <trkpt lat="45.00688" lon="5.80755">
        <ele>1254.5999755859</ele>
        <time>2023-10-01T08:07:26.000Z</time>
      </trkpt>
      <trkpt lat="45.00688" lon="5.80756">
        <ele>1255</ele>
        <time>2023-10-01T08:07:27.000Z</time>
      </trkpt>
      <trkpt lat="45.00688" lon="5.80757">
        <ele>1255.1999511719</ele>
        <time>2023-10-01T08:07:28.000Z</time>
      </trkpt>
      <trkpt lat="45.00688" lon="5.80758">
        <ele>1255.4000244141</ele>
        <time>2023-10-01T08:07:29.000Z</time>
      </trkpt>
      <trkpt lat="45.00688" lon="5.80759">
        <ele>1255.8000488281</ele>
        <time>2023-10-01T08:07:30.000Z</time>
      </trkpt>
      <trkpt lat="45.00688" lon="5.80759">
        <ele>1256.1999511719</ele>
        <time>2023-10-01T08:07:31.000Z</time>
      </trkpt>
      <trkpt lat="45.00688" lon="5.8076">
        <ele>1256.4000244141</ele>
        <time>2023-10-01T08:07:32.000Z</time>
      </trkpt>
      <trkpt lat="45.00688" lon="5.80761">
        <ele>1256.5999755859</ele>
        <time>2023-10-01T08:07:33.000Z</time>
      </trkpt>
      <trkpt lat="45.00688" lon="5.80761">
        <ele>1257</ele>
        <time>2023-10-01T08:07:34.000Z</time>
      </trkpt>
      <trkpt lat="45.00688" lon="5.80762">
        <ele>1257.1999511719</ele>
        <time>2023-10-01T08:07:35.000Z</time>
      </trkpt>
      <trkpt lat="45.00688" lon="5.80764">
        <ele>1257.4000244141</ele>
        <time>2023-10-01T08:07:36.000Z</time>
      </trkpt>
      <trkpt lat="45.00688" lon="5.80764">
        <ele>1257.5999755859</ele>
        <time>2023-10-01T08:07:37.000Z</time>
      </trkpt>
      <trkpt lat="45.00688" lon="5.80766">
        <ele>1258</ele>
        <time>2023-10-01T08:07:38.000Z</time>
      </trkpt>
      <trkpt lat="45.00688" lon="5.80767">
        <ele>1258.5999755859</ele>
        <time>2023-10-01T08:07:39.000Z</time>
      </trkpt>
      <trkpt lat="45.00687" lon="5.80768">
        <ele>1258.5999755859</ele>
        <time>2023-10-01T08:07:40.000Z</time>
      </trkpt>
      <trkpt lat="45.00687" lon="5.80769">
        <ele>1259</ele>
        <time>2023-10-01T08:07:41.000Z</time>
      </trkpt>
      <trkpt lat="45.00687" lon="5.80769">
        <ele>1259.1999511719</ele>
        <time>2023-10-01T08:07:42.000Z</time>
      </trkpt>
      <trkpt lat="45.00687" lon="5.8077">
        <ele>1259.5999755859</ele>
        <time>2023-10-01T08:07:43.000Z</time>
      </trkpt>
      <trkpt lat="45.00686" lon="5.80771">
        <ele>1259.8000488281</ele>
        <time>2023-10-01T08:07:44.000Z</time>
      </trkpt>
      <trkpt lat="45.00686" lon="5.80771">
        <ele>1260.1999511719</ele>
        <time>2023-10-01T08:07:45.000Z</time>
      </trkpt>
      <trkpt lat="45.00686" lon="5.80772">
        <ele>1260.4000244141</ele>
        <time>2023-10-01T08:07:46.000Z</time>
      </trkpt>
      <trkpt lat="45.00686" lon="5.80772">
        <ele>1261</ele>
        <time>2023-10-01T08:07:47.000Z</time>
      </trkpt>
      <trkpt lat="45.00686" lon="5.80773">
        <ele>1261.1999511719</ele>
        <time>2023-10-01T08:07:48.000Z</time>
      </trkpt>
      <trkpt lat="45.00686" lon="5.80773">
        <ele>1261.4000244141</ele>
        <time>2023-10-01T08:07:49.000Z</time>
      </trkpt>
      <trkpt lat="45.00686" lon="5.80773">
        <ele>1261.5999755859</ele>
        <time>2023-10-01T08:07:50.000Z</time>
      </trkpt>
      <trkpt lat="45.00686" lon="5.80774">
        <ele>1262</ele>
        <time>2023-10-01T08:07:51.000Z</time>
      </trkpt>
      <trkpt lat="45.00686" lon="5.80774">
        <ele>1262.1999511719</ele>
        <time>2023-10-01T08:07:52.000Z</time>
      </trkpt>
      <trkpt lat="45.00686" lon="5.80774">
        <ele>1262.4000244141</ele>
        <time>2023-10-01T08:07:53.000Z</time>
      </trkpt>
      <trkpt lat="45.00686" lon="5.80775">
        <ele>1262.8000488281</ele>
        <time>2023-10-01T08:07:54.000Z</time>
      </trkpt>
      <trkpt lat="45.00687" lon="5.80775">
        <ele>1263.1999511719</ele>
        <time>2023-10-01T08:07:55.000Z</time>
      </trkpt>
      <trkpt lat="45.00687" lon="5.80776">
        <ele>1263.4000244141</ele>
        <time>2023-10-01T08:07:56.000Z</time>
      </trkpt>
      <trkpt lat="45.00686" lon="5.80777">
        <ele>1263.5999755859</ele>
        <time>2023-10-01T08:07:57.000Z</time>
      </trkpt>
      <trkpt lat="45.00686" lon="5.80778">
        <ele>1264</ele>
        <time>2023-10-01T08:07:58.000Z</time>
      </trkpt>
      <trkpt lat="45.00686" lon="5.80778">
        <ele>1264.4000244141</ele>
        <time>2023-10-01T08:07:59.000Z</time>
      </trkpt>
      <trkpt lat="45.00686" lon="5.80779">
        <ele>1264.8000488281</ele>
        <time>2023-10-01T08:08:00.000Z</time>
      </trkpt>
      <trkpt lat="45.00685" lon="5.80781">
        <ele>1265</ele>
        <time>2023-10-01T08:08:01.000Z</time>
      </trkpt>
      <trkpt lat="45.00685" lon="5.80783">
        <ele>1265.1999511719</ele>
        <time>2023-10-01T08:08:02.000Z</time>
      </trkpt>
      <trkpt lat="45.00685" lon="5.80784">
        <ele>1265.4000244141</ele>
        <time>2023-10-01T08:08:03.000Z</time>
      </trkpt>
      <trkpt lat="45.00685" lon="5.80785">
        <ele>1265.5999755859</ele>
        <time>2023-10-01T08:08:04.000Z</time>
      </trkpt>
      <trkpt lat="45.00685" lon="5.80786">
        <ele>1266</ele>
        <time>2023-10-01T08:08:05.000Z</time>
      </trkpt>
      <trkpt lat="45.00685" lon="5.80786">
        <ele>1266.4000244141</ele>
        <time>2023-10-01T08:08:06.000Z</time>
      </trkpt>
      <trkpt lat="45.00685" lon="5.80787">
        <ele>1266.8000488281</ele>
        <time>2023-10-01T08:08:07.000Z</time>
      </trkpt>
      <trkpt lat="45.00685" lon="5.80788">
        <ele>1266.8000488281</ele>
        <time>2023-10-01T08:08:08.000Z</time>
      </trkpt>
      <trkpt lat="45.00685" lon="5.80789">
        <ele>1267.1999511719</ele>
        <time>2023-10-01T08:08:09.000Z</time>
      </trkpt>
      <trkpt lat="45.00685" lon="5.80791">
        <ele>1267.4000244141</ele>
        <time>2023-10-01T08:08:10.000Z</time>
      </trkpt>
      <trkpt lat="45.00685" lon="5.80791">
        <ele>1267.5999755859</ele>
        <time>2023-10-01T08:08:11.000Z</time>
      </trkpt>
      <trkpt lat="45.00685" lon="5.80793">
        <ele>1268</ele>
        <time>2023-10-01T08:08:12.000Z</time>
      </trkpt>
      <trkpt lat="45.00685" lon="5.80794">
        <ele>1268.1999511719</ele>
        <time>2023-10-01T08:08:13.000Z</time>
      </trkpt>
      <trkpt lat="45.00685" lon="5.80795">
        <ele>1268.4000244141</ele>
        <time>2023-10-01T08:08:14.000Z</time>
      </trkpt>
      <trkpt lat="45.00685" lon="5.80795">
        <ele>1268.8000488281</ele>
        <time>2023-10-01T08:08:15.000Z</time>
      </trkpt>
      <trkpt lat="45.00685" lon="5.80796">
        <ele>1268.8000488281</ele>
        <time>2023-10-01T08:08:16.000Z</time>
      </trkpt>
      <trkpt lat="45.00685" lon="5.80796">
        <ele>1269.1999511719</ele>
        <time>2023-10-01T08:08:17.000Z</time>
      </trkpt>
      <trkpt lat="45.00685" lon="5.80797">
        <ele>1269.5999755859</ele>
        <time>2023-10-01T08:08:18.000Z</time>
      </trkpt>
      <trkpt lat="45.00685" lon="5.80798">
        <ele>1269.8000488281</ele>
        <time>2023-10-01T08:08:19.000Z</time>
      </trkpt>
      <trkpt lat="45.00685" lon="5.80799">
        <ele>1270.1999511719</ele>
        <time>2023-10-01T08:08:20.000Z</time>
      </trkpt>
      <trkpt lat="45.00685" lon="5.808">
        <ele>1270.5999755859</ele>
        <time>2023-10-01T08:08:21.000Z</time>
      </trkpt>
      <trkpt lat="45.00685" lon="5.80801">
        <ele>1271</ele>
        <time>2023-10-01T08:08:22.000Z</time>
      </trkpt>
      <trkpt lat="45.00685" lon="5.80803">
        <ele>1271.1999511719</ele>
        <time>2023-10-01T08:08:23.000Z</time>
      </trkpt>
      <trkpt lat="45.00685" lon="5.80804">
        <ele>1271.4000244141</ele>
        <time>2023-10-01T08:08:24.000Z</time>
      </trkpt>
      <trkpt lat="45.00685" lon="5.80804">
        <ele>1271.8000488281</ele>
        <time>2023-10-01T08:08:25.000Z</time>
      </trkpt>
      <trkpt lat="45.00685" lon="5.80805">
        <ele>1272</ele>
        <time>2023-10-01T08:08:26.000Z</time>
      </trkpt>
      <trkpt lat="45.00685" lon="5.80806">
        <ele>1272.1999511719</ele>
        <time>2023-10-01T08:08:27.000Z</time>
      </trkpt>
      <trkpt lat="45.00684" lon="5.80806">
        <ele>1272.4000244141</ele>
        <time>2023-10-01T08:08:28.000Z</time>
      </trkpt>
      <trkpt lat="45.00684" lon="5.80807">
        <ele>1272.5999755859</ele>
        <time>2023-10-01T08:08:29.000Z</time>
      </trkpt>
      <trkpt lat="45.00684" lon="5.80808">
        <ele>1273</ele>
        <time>2023-10-01T08:08:30.000Z</time>
      </trkpt>
      <trkpt lat="45.00684" lon="5.80808">
        <ele>1273.4000244141</ele>
        <time>2023-10-01T08:08:31.000Z</time>
      </trkpt>
      <trkpt lat="45.00684" lon="5.80809">
        <ele>1273.5999755859</ele>
        <time>2023-10-01T08:08:32.000Z</time>
      </trkpt>
      <trkpt lat="45.00684" lon="5.8081">
        <ele>1274</ele>
        <time>2023-10-01T08:08:33.000Z</time>
      </trkpt>
      <trkpt lat="45.00684" lon="5.80811">
        <ele>1274.1999511719</ele>
        <time>2023-10-01T08:08:34.000Z</time>
      </trkpt>
      <trkpt lat="45.00684" lon="5.80812">
        <ele>1274.5999755859</ele>
        <time>2023-10-01T08:08:35.000Z</time>
      </trkpt>
      <trkpt lat="45.00684" lon="5.80813">
        <ele>1275</ele>
        <time>2023-10-01T08:08:36.000Z</time>
      </trkpt>
      <trkpt lat="45.00684" lon="5.80813">
        <ele>1275.1999511719</ele>
        <time>2023-10-01T08:08:37.000Z</time>
      </trkpt>
      <trkpt lat="45.00684" lon="5.80814">
        <ele>1275.5999755859</ele>
        <time>2023-10-01T08:08:38.000Z</time>
      </trkpt>
      <trkpt lat="45.00684" lon="5.80815">
        <ele>1276</ele>
        <time>2023-10-01T08:08:39.000Z</time>
      </trkpt>
      <trkpt lat="45.00684" lon="5.80816">
        <ele>1276.1999511719</ele>
        <time>2023-10-01T08:08:40.000Z</time>
      </trkpt>
      <trkpt lat="45.00684" lon="5.80818">
        <ele>1276.5999755859</ele>
        <time>2023-10-01T08:08:41.000Z</time>
      </trkpt>
      <trkpt lat="45.00684" lon="5.80819">
        <ele>1276.5999755859</ele>
        <time>2023-10-01T08:08:42.000Z</time>
      </trkpt>
      <trkpt lat="45.00684" lon="5.8082">
        <ele>1277</ele>
        <time>2023-10-01T08:08:43.000Z</time>
      </trkpt>
      <trkpt lat="45.00684" lon="5.80821">
        <ele>1277.1999511719</ele>
        <time>2023-10-01T08:08:44.000Z</time>
      </trkpt>
      <trkpt lat="45.00684" lon="5.80822">
        <ele>1277.4000244141</ele>
        <time>2023-10-01T08:08:45.000Z</time>
      </trkpt>
      <trkpt lat="45.00684" lon="5.80823">
        <ele>1277.5999755859</ele>
        <time>2023-10-01T08:08:46.000Z</time>
      </trkpt>
      <trkpt lat="45.00684" lon="5.80823">
        <ele>1277.8000488281</ele>
        <time>2023-10-01T08:08:47.000Z</time>
      </trkpt>
      <trkpt lat="45.00684" lon="5.80824">
        <ele>1278</ele>
        <time>2023-10-01T08:08:48.000Z</time>
      </trkpt>
      <trkpt lat="45.00684" lon="5.80825">
        <ele>1278.4000244141</ele>
        <time>2023-10-01T08:08:49.000Z</time>
      </trkpt>
      <trkpt lat="45.00683" lon="5.80826">
        <ele>1278.8000488281</ele>
        <time>2023-10-01T08:08:50.000Z</time>
      </trkpt>
      <trkpt lat="45.00683" lon="5.80826">
        <ele>1278.8000488281</ele>
        <time>2023-10-01T08:08:51.000Z</time>
      </trkpt>
      <trkpt lat="45.00682" lon="5.80827">
        <ele>1279.1999511719</ele>
        <time>2023-10-01T08:08:52.000Z</time>
      </trkpt>
      <trkpt lat="45.00682" lon="5.80827">
        <ele>1279.4000244141</ele>
        <time>2023-10-01T08:08:53.000Z</time>
      </trkpt>
      <trkpt lat="45.00682" lon="5.80829">
        <ele>1279.8000488281</ele>
        <time>2023-10-01T08:08:54.000Z</time>
      </trkpt>
      <trkpt lat="45.00682" lon="5.80829">
        <ele>1280</ele>
        <time>2023-10-01T08:08:55.000Z</time>
      </trkpt>
      <trkpt lat="45.00682" lon="5.80831">
        <ele>1280.1999511719</ele>
        <time>2023-10-01T08:08:56.000Z</time>
      </trkpt>
      <trkpt lat="45.00683" lon="5.80832">
        <ele>1280.5999755859</ele>
        <time>2023-10-01T08:08:57.000Z</time>
      </trkpt>
      <trkpt lat="45.00683" lon="5.80833">
        <ele>1280.8000488281</ele>
        <time>2023-10-01T08:08:58.000Z</time>
      </trkpt>
      <trkpt lat="45.00683" lon="5.80833">
        <ele>1281.4000244141</ele>
        <time>2023-10-01T08:08:59.000Z</time>
      </trkpt>
      <trkpt lat="45.00682" lon="5.80834">
        <ele>1281.5999755859</ele>
        <time>2023-10-01T08:09:00.000Z</time>
      </trkpt>
      <trkpt lat="45.00681" lon="5.80835">
        <ele>1281.5999755859</ele>
        <time>2023-10-01T08:09:01.000Z</time>
      </trkpt>
      <trkpt lat="45.00681" lon="5.80836">
        <ele>1281.8000488281</ele>
        <time>2023-10-01T08:09:02.000Z</time>
      </trkpt>
      <trkpt lat="45.0068" lon="5.80837">
        <ele>1282</ele>
        <time>2023-10-01T08:09:03.000Z</time>
      </trkpt>
      <trkpt lat="45.00681" lon="5.80838">
        <ele>1282.4000244141</ele>
        <time>2023-10-01T08:09:04.000Z</time>
      </trkpt>
      <trkpt lat="45.00681" lon="5.80839">
        <ele>1282.5999755859</ele>
        <time>2023-10-01T08:09:05.000Z</time>
      </trkpt>
      <trkpt lat="45.00682" lon="5.8084">
        <ele>1283</ele>
        <time>2023-10-01T08:09:06.000Z</time>
      </trkpt>
      <trkpt lat="45.00681" lon="5.80841">
        <ele>1283.4000244141</ele>
        <time>2023-10-01T08:09:07.000Z</time>
      </trkpt>
      <trkpt lat="45.00682" lon="5.80841">
        <ele>1283.8000488281</ele>
        <time>2023-10-01T08:09:08.000Z</time>
      </trkpt>
      <trkpt lat="45.00682" lon="5.80841">
        <ele>1284</ele>
        <time>2023-10-01T08:09:09.000Z</time>
      </trkpt>
      <trkpt lat="45.00681" lon="5.80843">
        <ele>1284.1999511719</ele>
        <time>2023-10-01T08:09:10.000Z</time>
      </trkpt>
      <trkpt lat="45.00681" lon="5.80844">
        <ele>1284.4000244141</ele>
        <time>2023-10-01T08:09:11.000Z</time>
      </trkpt>
      <trkpt lat="45.00681" lon="5.80845">
        <ele>1284.5999755859</ele>
        <time>2023-10-01T08:09:12.000Z</time>
      </trkpt>
      <trkpt lat="45.00681" lon="5.80845">
        <ele>1285</ele>
        <time>2023-10-01T08:09:13.000Z</time>
      </trkpt>
      <trkpt lat="45.00681" lon="5.80846">
        <ele>1285.4000244141</ele>
        <time>2023-10-01T08:09:14.000Z</time>
      </trkpt>
      <trkpt lat="45.00681" lon="5.80847">
        <ele>1285.4000244141</ele>
        <time>2023-10-01T08:09:15.000Z</time>
      </trkpt>
      <trkpt lat="45.00681" lon="5.80848">
        <ele>1285.8000488281</ele>
        <time>2023-10-01T08:09:16.000Z</time>
      </trkpt>
      <trkpt lat="45.00681" lon="5.80848">
        <ele>1286</ele>
        <time>2023-10-01T08:09:17.000Z</time>
      </trkpt>
      <trkpt lat="45.00681" lon="5.80849">
        <ele>1286.1999511719</ele>
        <time>2023-10-01T08:09:18.000Z</time>
      </trkpt>
      <trkpt lat="45.00681" lon="5.8085">
        <ele>1286.4000244141</ele>
        <time>2023-10-01T08:09:19.000Z</time>
      </trkpt>
      <trkpt lat="45.0068" lon="5.8085">
        <ele>1286.8000488281</ele>
        <time>2023-10-01T08:09:20.000Z</time>
      </trkpt>
      <trkpt lat="45.0068" lon="5.80851">
        <ele>1287.1999511719</ele>
        <time>2023-10-01T08:09:21.000Z</time>
      </trkpt>
      <trkpt lat="45.0068" lon="5.80852">
        <ele>1287.4000244141</ele>
        <time>2023-10-01T08:09:22.000Z</time>
      </trkpt>
      <trkpt lat="45.0068" lon="5.80853">
        <ele>1287.8000488281</ele>
        <time>2023-10-01T08:09:23.000Z</time>
      </trkpt>
      <trkpt lat="45.0068" lon="5.80854">
        <ele>1288</ele>
        <time>2023-10-01T08:09:24.000Z</time>
      </trkpt>
      <trkpt lat="45.0068" lon="5.80854">
        <ele>1288.4000244141</ele>
        <time>2023-10-01T08:09:25.000Z</time>
      </trkpt>
      <trkpt lat="45.0068" lon="5.80855">
        <ele>1288.5999755859</ele>
        <time>2023-10-01T08:09:26.000Z</time>
      </trkpt>
      <trkpt lat="45.0068" lon="5.80856">
        <ele>1288.8000488281</ele>
        <time>2023-10-01T08:09:27.000Z</time>
      </trkpt>
      <trkpt lat="45.0068" lon="5.80857">
        <ele>1289.4000244141</ele>
        <time>2023-10-01T08:09:28.000Z</time>
      </trkpt>
      <trkpt lat="45.00679" lon="5.80858">
        <ele>1289.5999755859</ele>
        <time>2023-10-01T08:09:29.000Z</time>
      </trkpt>
      <trkpt lat="45.00679" lon="5.80859">
        <ele>1289.8000488281</ele>
        <time>2023-10-01T08:09:30.000Z</time>
      </trkpt>
      <trkpt lat="45.00679" lon="5.8086">
        <ele>1290.1999511719</ele>
        <time>2023-10-01T08:09:31.000Z</time>
      </trkpt>
      <trkpt lat="45.00679" lon="5.80861">
        <ele>1290.1999511719</ele>
        <time>2023-10-01T08:09:32.000Z</time>
      </trkpt>
      <trkpt lat="45.00679" lon="5.80862">
        <ele>1290.4000244141</ele>
        <time>2023-10-01T08:09:33.000Z</time>
      </trkpt>
      <trkpt lat="45.00679" lon="5.80862">
        <ele>1290.8000488281</ele>
        <time>2023-10-01T08:09:34.000Z</time>
      </trkpt>
      <trkpt lat="45.00679" lon="5.80863">
        <ele>1291.1999511719</ele>
        <time>2023-10-01T08:09:35.000Z</time>
      </trkpt>
      <trkpt lat="45.00678" lon="5.80864">
        <ele>1291.4000244141</ele>
        <time>2023-10-01T08:09:36.000Z</time>
      </trkpt>
      <trkpt lat="45.00679" lon="5.80864">
        <ele>1291.8000488281</ele>
        <time>2023-10-01T08:09:37.000Z</time>
      </trkpt>
      <trkpt lat="45.00678" lon="5.80865">
        <ele>1292.1999511719</ele>
        <time>2023-10-01T08:09:38.000Z</time>
      </trkpt>
      <trkpt lat="45.00678" lon="5.80866">
        <ele>1292.4000244141</ele>
        <time>2023-10-01T08:09:39.000Z</time>
      </trkpt>
      <trkpt lat="45.00678" lon="5.80866">
        <ele>1292.8000488281</ele>
        <time>2023-10-01T08:09:40.000Z</time>
      </trkpt>
      <trkpt lat="45.00678" lon="5.80867">
        <ele>1293.1999511719</ele>
        <time>2023-10-01T08:09:41.000Z</time>
      </trkpt>
      <trkpt lat="45.00677" lon="5.80867">
        <ele>1293.4000244141</ele>
        <time>2023-10-01T08:09:42.000Z</time>
      </trkpt>
      <trkpt lat="45.00677" lon="5.80868">
        <ele>1293.5999755859</ele>
        <time>2023-10-01T08:09:43.000Z</time>
      </trkpt>
      <trkpt lat="45.00677" lon="5.80868">
        <ele>1293.8000488281</ele>
        <time>2023-10-01T08:09:44.000Z</time>
      </trkpt>
      <trkpt lat="45.00678" lon="5.80869">
        <ele>1294</ele>
        <time>2023-10-01T08:09:45.000Z</time>
      </trkpt>
      <trkpt lat="45.00678" lon="5.8087">
        <ele>1294.5999755859</ele>
        <time>2023-10-01T08:09:46.000Z</time>
      </trkpt>
      <trkpt lat="45.00678" lon="5.80871">
        <ele>1294.8000488281</ele>
        <time>2023-10-01T08:09:47.000Z</time>
      </trkpt>
      <trkpt lat="45.00678" lon="5.80871">
        <ele>1295</ele>
        <time>2023-10-01T08:09:48.000Z</time>
      </trkpt>
      <trkpt lat="45.00678" lon="5.80872">
        <ele>1295.4000244141</ele>
        <time>2023-10-01T08:09:49.000Z</time>
      </trkpt>
      <trkpt lat="45.00678" lon="5.80872">
        <ele>1295.5999755859</ele>
        <time>2023-10-01T08:09:50.000Z</time>
      </trkpt>
      <trkpt lat="45.00678" lon="5.80874">
        <ele>1296</ele>
        <time>2023-10-01T08:09:51.000Z</time>
      </trkpt>
      <trkpt lat="45.00678" lon="5.80875">
        <ele>1296.1999511719</ele>
        <time>2023-10-01T08:09:52.000Z</time>
      </trkpt>
      <trkpt lat="45.00678" lon="5.80876">
        <ele>1296.4000244141</ele>
        <time>2023-10-01T08:09:53.000Z</time>
      </trkpt>
      <trkpt lat="45.00678" lon="5.80876">
        <ele>1296.8000488281</ele>
        <time>2023-10-01T08:09:54.000Z</time>
      </trkpt>
      <trkpt lat="45.00678" lon="5.80876">
        <ele>1297</ele>
        <time>2023-10-01T08:09:55.000Z</time>
      </trkpt>
      <trkpt lat="45.00678" lon="5.80877">
        <ele>1297.5999755859</ele>
        <time>2023-10-01T08:09:56.000Z</time>
      </trkpt>
      <trkpt lat="45.00678" lon="5.80878">
        <ele>1297.8000488281</ele>
        <time>2023-10-01T08:09:57.000Z</time>
      </trkpt>
      <trkpt lat="45.00677" lon="5.80878">
        <ele>1298</ele>
        <time>2023-10-01T08:09:58.000Z</time>
      </trkpt>
      <trkpt lat="45.00678" lon="5.80879">
        <ele>1298.4000244141</ele>
        <time>2023-10-01T08:09:59.000Z</time>
      </trkpt>
      <trkpt lat="45.00677" lon="5.80881">
        <ele>1298.5999755859</ele>
        <time>2023-10-01T08:10:00.000Z</time>
      </trkpt>
      <trkpt lat="45.00677" lon="5.80882">
        <ele>1298.8000488281</ele>
        <time>2023-10-01T08:10:01.000Z</time>
      </trkpt>
      <trkpt lat="45.00677" lon="5.80883">
        <ele>1299.1999511719</ele>
        <time>2023-10-01T08:10:02.000Z</time>
      </trkpt>
      <trkpt lat="45.00677" lon="5.80884">
        <ele>1299.5999755859</ele>
        <time>2023-10-01T08:10:03.000Z</time>
      </trkpt>
      <trkpt lat="45.00676" lon="5.80886">
        <ele>1299.5999755859</ele>
        <time>2023-10-01T08:10:04.000Z</time>
      </trkpt>
      <trkpt lat="45.00676" lon="5.80886">
        <ele>1299.8000488281</ele>
        <time>2023-10-01T08:10:05.000Z</time>
      </trkpt>
      <trkpt lat="45.00676" lon="5.80886">
        <ele>1300.1999511719</ele>
        <time>2023-10-01T08:10:06.000Z</time>
      </trkpt>
      <trkpt lat="45.00676" lon="5.80887">
        <ele>1300.5999755859</ele>
        <time>2023-10-01T08:10:07.000Z</time>
      </trkpt>
      <trkpt lat="45.00677" lon="5.80887">
        <ele>1300.8000488281</ele>
        <time>2023-10-01T08:10:08.000Z</time>
      </trkpt>
      <trkpt lat="45.00677" lon="5.80888">
        <ele>1301.1999511719</ele>
        <time>2023-10-01T08:10:09.000Z</time>
      </trkpt>
      <trkpt lat="45.00677" lon="5.80889">
        <ele>1301.4000244141</ele>
        <time>2023-10-01T08:10:10.000Z</time>
      </trkpt>
      <trkpt lat="45.00677" lon="5.8089">
        <ele>1301.8000488281</ele>
        <time>2023-10-01T08:10:11.000Z</time>
      </trkpt>
      <trkpt lat="45.00677" lon="5.80891">
        <ele>1302</ele>
        <time>2023-10-01T08:10:12.000Z</time>
      </trkpt>
      <trkpt lat="45.00677" lon="5.80892">
        <ele>1302.1999511719</ele>
        <time>2023-10-01T08:10:13.000Z</time>
      </trkpt>
      <trkpt lat="45.00676" lon="5.80892">
        <ele>1302.4000244141</ele>
        <time>2023-10-01T08:10:14.000Z</time>
      </trkpt>
      <trkpt lat="45.00676" lon="5.80893">
        <ele>1302.5999755859</ele>
        <time>2023-10-01T08:10:15.000Z</time>
      </trkpt>
      <trkpt lat="45.00676" lon="5.80893">
        <ele>1303</ele>
        <time>2023-10-01T08:10:16.000Z</time>
      </trkpt>
      <trkpt lat="45.00675" lon="5.80894">
        <ele>1303.4000244141</ele>
        <time>2023-10-01T08:10:17.000Z</time>
      </trkpt>
      <trkpt lat="45.00675" lon="5.80894">
        <ele>1303.5999755859</ele>
        <time>2023-10-01T08:10:18.000Z</time>
      </trkpt>
      <trkpt lat="45.00675" lon="5.80895">
        <ele>1303.8000488281</ele>
        <time>2023-10-01T08:10:19.000Z</time>
      </trkpt>
      <trkpt lat="45.00674" lon="5.80895">
        <ele>1304</ele>
        <time>2023-10-01T08:10:20.000Z</time>
      </trkpt>
      <trkpt lat="45.00674" lon="5.80897">
        <ele>1304.4000244141</ele>
        <time>2023-10-01T08:10:21.000Z</time>
      </trkpt>
      <trkpt lat="45.00674" lon="5.80897">
        <ele>1304.5999755859</ele>
        <time>2023-10-01T08:10:22.000Z</time>
      </trkpt>
      <trkpt lat="45.00674" lon="5.80898">
        <ele>1305</ele>
        <time>2023-10-01T08:10:23.000Z</time>
      </trkpt>
      <trkpt lat="45.00674" lon="5.80898">
        <ele>1305.4000244141</ele>
        <time>2023-10-01T08:10:24.000Z</time>
      </trkpt>
      <trkpt lat="45.00674" lon="5.80899">
        <ele>1305.5999755859</ele>
        <time>2023-10-01T08:10:25.000Z</time>
      </trkpt>
      <trkpt lat="45.00675" lon="5.809">
        <ele>1306</ele>
        <time>2023-10-01T08:10:26.000Z</time>
      </trkpt>
      <trkpt lat="45.00675" lon="5.80901">
        <ele>1306.1999511719</ele>
        <time>2023-10-01T08:10:27.000Z</time>
      </trkpt>
      <trkpt lat="45.00675" lon="5.80902">
        <ele>1306.4000244141</ele>
        <time>2023-10-01T08:10:28.000Z</time>
      </trkpt>
      <trkpt lat="45.00675" lon="5.80904">
        <ele>1306.8000488281</ele>
        <time>2023-10-01T08:10:29.000Z</time>
      </trkpt>
      <trkpt lat="45.00675" lon="5.80904">
        <ele>1307</ele>
        <time>2023-10-01T08:10:30.000Z</time>
      </trkpt>
      <trkpt lat="45.00675" lon="5.80906">
        <ele>1307.1999511719</ele>
        <time>2023-10-01T08:10:31.000Z</time>
      </trkpt>
      <trkpt lat="45.00675" lon="5.80906">
        <ele>1307.5999755859</ele>
        <time>2023-10-01T08:10:32.000Z</time>
      </trkpt>
      <trkpt lat="45.00675" lon="5.80906">
        <ele>1308</ele>
        <time>2023-10-01T08:10:33.000Z</time>
      </trkpt>
      <trkpt lat="45.00675" lon="5.80907">
        <ele>1308.4000244141</ele>
        <time>2023-10-01T08:10:34.000Z</time>
      </trkpt>
      <trkpt lat="45.00674" lon="5.80907">
        <ele>1308.5999755859</ele>
        <time>2023-10-01T08:10:35.000Z</time>
      </trkpt>
      <trkpt lat="45.00674" lon="5.80907">
        <ele>1308.8000488281</ele>
        <time>2023-10-01T08:10:36.000Z</time>
      </trkpt>
      <trkpt lat="45.00674" lon="5.80908">
        <ele>1309.1999511719</ele>
        <time>2023-10-01T08:10:37.000Z</time>
      </trkpt>
      <trkpt lat="45.00674" lon="5.80909">
        <ele>1309.4000244141</ele>
        <time>2023-10-01T08:10:38.000Z</time>
      </trkpt>
      <trkpt lat="45.00674" lon="5.80909">
        <ele>1309.5999755859</ele>
        <time>2023-10-01T08:10:39.000Z</time>
      </trkpt>
      <trkpt lat="45.00674" lon="5.80911">
        <ele>1310</ele>
        <time>2023-10-01T08:10:40.000Z</time>
      </trkpt>
      <trkpt lat="45.00674" lon="5.80911">
        <ele>1310.1999511719</ele>
        <time>2023-10-01T08:10:41.000Z</time>
      </trkpt>
      <trkpt lat="45.00674" lon="5.80912">
        <ele>1310.5999755859</ele>
        <time>2023-10-01T08:10:42.000Z</time>
      </trkpt>
      <trkpt lat="45.00674" lon="5.80912">
        <ele>1310.8000488281</ele>
        <time>2023-10-01T08:10:43.000Z</time>
      </trkpt>
      <trkpt lat="45.00674" lon="5.80913">
        <ele>1311.1999511719</ele>
        <time>2023-10-01T08:10:44.000Z</time>
      </trkpt>
      <trkpt lat="45.00674" lon="5.80914">
        <ele>1311.4000244141</ele>
        <time>2023-10-01T08:10:45.000Z</time>
      </trkpt>
      <trkpt lat="45.00674" lon="5.80914">
        <ele>1311.5999755859</ele>
        <time>2023-10-01T08:10:46.000Z</time>
      </trkpt>
      <trkpt lat="45.00675" lon="5.80915">
        <ele>1312</ele>
        <time>2023-10-01T08:10:47.000Z</time>
      </trkpt>
      <trkpt lat="45.00674" lon="5.80916">
        <ele>1312.1999511719</ele>
        <time>2023-10-01T08:10:48.000Z</time>
      </trkpt>
      <trkpt lat="45.00674" lon="5.80918">
        <ele>1312.5999755859</ele>
        <time>2023-10-01T08:10:49.000Z</time>
      </trkpt>
      <trkpt lat="45.00674" lon="5.8092">
        <ele>1313</ele>
        <time>2023-10-01T08:10:50.000Z</time>
      </trkpt>
      <trkpt lat="45.00674" lon="5.8092">
        <ele>1313.1999511719</ele>
        <time>2023-10-01T08:10:51.000Z</time>
      </trkpt>
      <trkpt lat="45.00674" lon="5.80922">
        <ele>1313.4000244141</ele>
        <time>2023-10-01T08:10:52.000Z</time>
      </trkpt>
      <trkpt lat="45.00674" lon="5.80923">
        <ele>1313.5999755859</ele>
        <time>2023-10-01T08:10:53.000Z</time>
      </trkpt>
      <trkpt lat="45.00674" lon="5.80923">
        <ele>1314</ele>
        <time>2023-10-01T08:10:54.000Z</time>
      </trkpt>
      <trkpt lat="45.00674" lon="5.80924">
        <ele>1314.4000244141</ele>
        <time>2023-10-01T08:10:55.000Z</time>
      </trkpt>
      <trkpt lat="45.00675" lon="5.80925">
        <ele>1314.5999755859</ele>
        <time>2023-10-01T08:10:56.000Z</time>
      </trkpt>
      <trkpt lat="45.00674" lon="5.80925">
        <ele>1314.8000488281</ele>
        <time>2023-10-01T08:10:57.000Z</time>
      </trkpt>
      <trkpt lat="45.00674" lon="5.80926">
        <ele>1315.4000244141</ele>
        <time>2023-10-01T08:10:58.000Z</time>
      </trkpt>
      <trkpt lat="45.00674" lon="5.80926">
        <ele>1315.4000244141</ele>
        <time>2023-10-01T08:10:59.000Z</time>
      </trkpt>
      <trkpt lat="45.00673" lon="5.80927">
        <ele>1315.5999755859</ele>
        <time>2023-10-01T08:11:00.000Z</time>
      </trkpt>
      <trkpt lat="45.00673" lon="5.80928">
        <ele>1315.8000488281</ele>
        <time>2023-10-01T08:11:01.000Z</time>
      </trkpt>
      <trkpt lat="45.00673" lon="5.80929">
        <ele>1316.1999511719</ele>
        <time>2023-10-01T08:11:02.000Z</time>
      </trkpt>
      <trkpt lat="45.00673" lon="5.80929">
        <ele>1316.5999755859</ele>
        <time>2023-10-01T08:11:03.000Z</time>
      </trkpt>
      <trkpt lat="45.00673" lon="5.8093">
        <ele>1317</ele>
        <time>2023-10-01T08:11:04.000Z</time>
      </trkpt>
      <trkpt lat="45.00673" lon="5.80931">
        <ele>1317.4000244141</ele>
        <time>2023-10-01T08:11:05.000Z</time>
      </trkpt>
      <trkpt lat="45.00673" lon="5.80932">
        <ele>1317.5999755859</ele>
        <time>2023-10-01T08:11:06.000Z</time>
      </trkpt>
      <trkpt lat="45.00673" lon="5.80932">
        <ele>1318.1999511719</ele>
        <time>2023-10-01T08:11:07.000Z</time>
      </trkpt>
      <trkpt lat="45.00674" lon="5.80934">
        <ele>1318.4000244141</ele>
        <time>2023-10-01T08:11:08.000Z</time>
      </trkpt>
      <trkpt lat="45.00674" lon="5.80935">
        <ele>1318.5999755859</ele>
        <time>2023-10-01T08:11:09.000Z</time>
      </trkpt>
      <trkpt lat="45.00674" lon="5.80935">
        <ele>1319</ele>
        <time>2023-10-01T08:11:10.000Z</time>
      </trkpt>
      <trkpt lat="45.00674" lon="5.80936">
        <ele>1319.1999511719</ele>
        <time>2023-10-01T08:11:11.000Z</time>
      </trkpt>
      <trkpt lat="45.00674" lon="5.80938">
        <ele>1319.5999755859</ele>
        <time>2023-10-01T08:11:12.000Z</time>
      </trkpt>
      <trkpt lat="45.00673" lon="5.80938">
        <ele>1320</ele>
        <time>2023-10-01T08:11:13.000Z</time>
      </trkpt>
      <trkpt lat="45.00673" lon="5.80939">
        <ele>1320.1999511719</ele>
        <time>2023-10-01T08:11:14.000Z</time>
      </trkpt>
      <trkpt lat="45.00673" lon="5.8094">
        <ele>1320.5999755859</ele>
        <time>2023-10-01T08:11:15.000Z</time>
      </trkpt>
      <trkpt lat="45.00673" lon="5.8094">
        <ele>1321</ele>
        <time>2023-10-01T08:11:16.000Z</time>
      </trkpt>
      <trkpt lat="45.00672" lon="5.8094">
        <ele>1321.4000244141</ele>
        <time>2023-10-01T08:11:17.000Z</time>
      </trkpt>
      <trkpt lat="45.00672" lon="5.80941">
        <ele>1321.4000244141</ele>
        <time>2023-10-01T08:11:18.000Z</time>
      </trkpt>
      <trkpt lat="45.00672" lon="5.80942">
        <ele>1321.8000488281</ele>
        <time>2023-10-01T08:11:19.000Z</time>
      </trkpt>
      <trkpt lat="45.00672" lon="5.80942">
        <ele>1322.1999511719</ele>
        <time>2023-10-01T08:11:20.000Z</time>
      </trkpt>
      <trkpt lat="45.00671" lon="5.80942">
        <ele>1322.4000244141</ele>
        <time>2023-10-01T08:11:21.000Z</time>
      </trkpt>
      <trkpt lat="45.00671" lon="5.80943">
        <ele>1322.5999755859</ele>
        <time>2023-10-01T08:11:22.000Z</time>
      </trkpt>
      <trkpt lat="45.00671" lon="5.80945">
        <ele>1323</ele>
        <time>2023-10-01T08:11:23.000Z</time>
      </trkpt>
      <trkpt lat="45.00671" lon="5.80945">
        <ele>1323.1999511719</ele>
        <time>2023-10-01T08:11:24.000Z</time>
      </trkpt>
      <trkpt lat="45.00671" lon="5.80945">
        <ele>1323.5999755859</ele>
        <time>2023-10-01T08:11:25.000Z</time>
      </trkpt>
      <trkpt lat="45.00671" lon="5.80946">
        <ele>1324</ele>
        <time>2023-10-01T08:11:26.000Z</time>
      </trkpt>
      <trkpt lat="45.00671" lon="5.80947">
        <ele>1324.1999511719</ele>
        <time>2023-10-01T08:11:27.000Z</time>
      </trkpt>
      <trkpt lat="45.00671" lon="5.80947">
        <ele>1324.4000244141</ele>
        <time>2023-10-01T08:11:28.000Z</time>
      </trkpt>
      <trkpt lat="45.00671" lon="5.80949">
        <ele>1324.8000488281</ele>
        <time>2023-10-01T08:11:29.000Z</time>
      </trkpt>
      <trkpt lat="45.00671" lon="5.8095">
        <ele>1325</ele>
        <time>2023-10-01T08:11:30.000Z</time>
      </trkpt>
      <trkpt lat="45.00671" lon="5.80951">
        <ele>1325.1999511719</ele>
        <time>2023-10-01T08:11:31.000Z</time>
      </trkpt>
      <trkpt lat="45.00671" lon="5.80952">
        <ele>1325.5999755859</ele>
        <time>2023-10-01T08:11:32.000Z</time>
      </trkpt>
      <trkpt lat="45.00671" lon="5.80953">
        <ele>1326</ele>
        <time>2023-10-01T08:11:33.000Z</time>
      </trkpt>
      <trkpt lat="45.0067" lon="5.80954">
        <ele>1326.4000244141</ele>
        <time>2023-10-01T08:11:34.000Z</time>
      </trkpt>
      <trkpt lat="45.0067" lon="5.80954">
        <ele>1326.5999755859</ele>
        <time>2023-10-01T08:11:35.000Z</time>
      </trkpt>
      <trkpt lat="45.0067" lon="5.80954">
        <ele>1327</ele>
        <time>2023-10-01T08:11:36.000Z</time>
      </trkpt>
      <trkpt lat="45.0067" lon="5.80954">
        <ele>1327.1999511719</ele>
        <time>2023-10-01T08:11:37.000Z</time>
      </trkpt>
      <trkpt lat="45.0067" lon="5.80956">
        <ele>1327.4000244141</ele>
        <time>2023-10-01T08:11:38.000Z</time>
      </trkpt>
      <trkpt lat="45.0067" lon="5.80956">
        <ele>1327.8000488281</ele>
        <time>2023-10-01T08:11:39.000Z</time>
      </trkpt>
      <trkpt lat="45.0067" lon="5.80957">
        <ele>1328</ele>
        <time>2023-10-01T08:11:40.000Z</time>
      </trkpt>
      <trkpt lat="45.0067" lon="5.80957">
        <ele>1328.4000244141</ele>
        <time>2023-10-01T08:11:41.000Z</time>
      </trkpt>
      <trkpt lat="45.00671" lon="5.80958">
        <ele>1328.5999755859</ele>
        <time>2023-10-01T08:11:42.000Z</time>
      </trkpt>
      <trkpt lat="45.00671" lon="5.8096">
        <ele>1329.1999511719</ele>
        <time>2023-10-01T08:11:43.000Z</time>
      </trkpt>
      <trkpt lat="45.00671" lon="5.80961">
        <ele>1329.4000244141</ele>
        <time>2023-10-01T08:11:44.000Z</time>
      </trkpt>
      <trkpt lat="45.00671" lon="5.80962">
        <ele>1329.8000488281</ele>
        <time>2023-10-01T08:11:45.000Z</time>
      </trkpt>
      <trkpt lat="45.00671" lon="5.80962">
        <ele>1330</ele>
        <time>2023-10-01T08:11:46.000Z</time>
      </trkpt>
      <trkpt lat="45.0067" lon="5.80963">
        <ele>1330.4000244141</ele>
        <time>2023-10-01T08:11:47.000Z</time>
      </trkpt>
      <trkpt lat="45.0067" lon="5.80964">
        <ele>1330.8000488281</ele>
        <time>2023-10-01T08:11:48.000Z</time>
      </trkpt>
      <trkpt lat="45.0067" lon="5.80965">
        <ele>1331.1999511719</ele>
        <time>2023-10-01T08:11:49.000Z</time>
      </trkpt>
      <trkpt lat="45.00669" lon="5.80967">
        <ele>1331.4000244141</ele>
        <time>2023-10-01T08:11:50.000Z</time>
      </trkpt>
      <trkpt lat="45.00669" lon="5.80968">
        <ele>1331.8000488281</ele>
        <time>2023-10-01T08:11:51.000Z</time>
      </trkpt>
      <trkpt lat="45.00669" lon="5.80968">
        <ele>1332</ele>
        <time>2023-10-01T08:11:52.000Z</time>
      </trkpt>
      <trkpt lat="45.00668" lon="5.80968">
        <ele>1332.4000244141</ele>
        <time>2023-10-01T08:11:53.000Z</time>
      </trkpt>
      <trkpt lat="45.00668" lon="5.80969">
        <ele>1332.8000488281</ele>
        <time>2023-10-01T08:11:54.000Z</time>
      </trkpt>
      <trkpt lat="45.00667" lon="5.80969">
        <ele>1333</ele>
        <time>2023-10-01T08:11:55.000Z</time>
      </trkpt>
      <trkpt lat="45.00667" lon="5.8097">
        <ele>1333.4000244141</ele>
        <time>2023-10-01T08:11:56.000Z</time>
      </trkpt>
      <trkpt lat="45.00666" lon="5.80971">
        <ele>1333.5999755859</ele>
        <time>2023-10-01T08:11:57.000Z</time>
      </trkpt>
      <trkpt lat="45.00666" lon="5.80972">
        <ele>1334</ele>
        <time>2023-10-01T08:11:58.000Z</time>
      </trkpt>
      <trkpt lat="45.00665" lon="5.80973">
        <ele>1334.4000244141</ele>
        <time>2023-10-01T08:11:59.000Z</time>
      </trkpt>
      <trkpt lat="45.00665" lon="5.80974">
        <ele>1334.5999755859</ele>
        <time>2023-10-01T08:12:00.000Z</time>
      </trkpt>
      <trkpt lat="45.00665" lon="5.80974">
        <ele>1334.8000488281</ele>
        <time>2023-10-01T08:12:01.000Z</time>
      </trkpt>
      <trkpt lat="45.00665" lon="5.80974">
        <ele>1335.4000244141</ele>
        <time>2023-10-01T08:12:02.000Z</time>
      </trkpt>
      <trkpt lat="45.00665" lon="5.80975">
        <ele>1335.8000488281</ele>
        <time>2023-10-01T08:12:03.000Z</time>
      </trkpt>
      <trkpt lat="45.00665" lon="5.80975">
        <ele>1336.4000244141</ele>
        <time>2023-10-01T08:12:04.000Z</time>
      </trkpt>
      <trkpt lat="45.00666" lon="5.80976">
        <ele>1336.4000244141</ele>
        <time>2023-10-01T08:12:05.000Z</time>
      </trkpt>
      <trkpt lat="45.00666" lon="5.80976">
        <ele>1337</ele>
        <time>2023-10-01T08:12:06.000Z</time>
      </trkpt>
      <trkpt lat="45.00667" lon="5.80976">
        <ele>1337.1999511719</ele>
        <time>2023-10-01T08:12:07.000Z</time>
      </trkpt>
      <trkpt lat="45.00668" lon="5.80977">
        <ele>1337.5999755859</ele>
        <time>2023-10-01T08:12:08.000Z</time>
      </trkpt>
      <trkpt lat="45.00668" lon="5.80978">
        <ele>1337.8000488281</ele>
        <time>2023-10-01T08:12:09.000Z</time>
      </trkpt>
      <trkpt lat="45.00669" lon="5.80979">
        <ele>1338.4000244141</ele>
        <time>2023-10-01T08:12:10.000Z</time>
      </trkpt>
      <trkpt lat="45.00669" lon="5.80981">
        <ele>1338.5999755859</ele>
        <time>2023-10-01T08:12:11.000Z</time>
      </trkpt>
      <trkpt lat="45.00669" lon="5.80982">
        <ele>1338.8000488281</ele>
        <time>2023-10-01T08:12:12.000Z</time>
      </trkpt>
      <trkpt lat="45.00669" lon="5.80984">
        <ele>1339.1999511719</ele>
        <time>2023-10-01T08:12:13.000Z</time>
      </trkpt>
      <trkpt lat="45.00669" lon="5.80985">
        <ele>1339.4000244141</ele>
        <time>2023-10-01T08:12:14.000Z</time>
      </trkpt>
      <trkpt lat="45.00669" lon="5.80985">
        <ele>1339.8000488281</ele>
        <time>2023-10-01T08:12:15.000Z</time>
      </trkpt>
      <trkpt lat="45.00669" lon="5.80986">
        <ele>1340</ele>
        <time>2023-10-01T08:12:16.000Z</time>
      </trkpt>
      <trkpt lat="45.00669" lon="5.80986">
        <ele>1340.4000244141</ele>
        <time>2023-10-01T08:12:17.000Z</time>
      </trkpt>
      <trkpt lat="45.00669" lon="5.80986">
        <ele>1340.8000488281</ele>
        <time>2023-10-01T08:12:18.000Z</time>
      </trkpt>
      <trkpt lat="45.00669" lon="5.80986">
        <ele>1341</ele>
        <time>2023-10-01T08:12:19.000Z</time>
      </trkpt>
      <trkpt lat="45.00669" lon="5.80987">
        <ele>1341.1999511719</ele>
        <time>2023-10-01T08:12:20.000Z</time>
      </trkpt>
      <trkpt lat="45.00669" lon="5.80988">
        <ele>1341.5999755859</ele>
        <time>2023-10-01T08:12:21.000Z</time>
      </trkpt>
      <trkpt lat="45.0067" lon="5.80989">
        <ele>1341.8000488281</ele>
        <time>2023-10-01T08:12:22.000Z</time>
      </trkpt>
      <trkpt lat="45.0067" lon="5.80991">
        <ele>1342.1999511719</ele>
        <time>2023-10-01T08:12:23.000Z</time>
      </trkpt>
      <trkpt lat="45.00669" lon="5.80992">
        <ele>1342.5999755859</ele>
        <time>2023-10-01T08:12:24.000Z</time>
      </trkpt>
      <trkpt lat="45.0067" lon="5.80993">
        <ele>1342.8000488281</ele>
        <time>2023-10-01T08:12:25.000Z</time>
      </trkpt>
      <trkpt lat="45.0067" lon="5.80994">
        <ele>1343.1999511719</ele>
        <time>2023-10-01T08:12:26.000Z</time>
      </trkpt>
      <trkpt lat="45.0067" lon="5.80995">
        <ele>1343.4000244141</ele>
        <time>2023-10-01T08:12:27.000Z</time>
      </trkpt>
      <trkpt lat="45.0067" lon="5.80996">
        <ele>1343.8000488281</ele>
        <time>2023-10-01T08:12:28.000Z</time>
      </trkpt>
      <trkpt lat="45.0067" lon="5.80996">
        <ele>1344</ele>
        <time>2023-10-01T08:12:29.000Z</time>
      </trkpt>
      <trkpt lat="45.0067" lon="5.80997">
        <ele>1344.1999511719</ele>
        <time>2023-10-01T08:12:30.000Z</time>
      </trkpt>
      <trkpt lat="45.00671" lon="5.80999">
        <ele>1344.4000244141</ele>
        <time>2023-10-01T08:12:31.000Z</time>
      </trkpt>
      <trkpt lat="45.00671" lon="5.81">
        <ele>1344.5999755859</ele>
        <time>2023-10-01T08:12:32.000Z</time>
      </trkpt>
      <trkpt lat="45.00671" lon="5.81">
        <ele>1345</ele>
        <time>2023-10-01T08:12:33.000Z</time>
      </trkpt>
      <trkpt lat="45.00671" lon="5.81001">
        <ele>1345.4000244141</ele>
        <time>2023-10-01T08:12:34.000Z</time>
      </trkpt>
      <trkpt lat="45.00671" lon="5.81001">
        <ele>1345.8000488281</ele>
        <time>2023-10-01T08:12:35.000Z</time>
      </trkpt>
      <trkpt lat="45.00671" lon="5.81002">
        <ele>1346.1999511719</ele>
        <time>2023-10-01T08:12:36.000Z</time>
      </trkpt>
      <trkpt lat="45.00671" lon="5.81004">
        <ele>1346.4000244141</ele>
        <time>2023-10-01T08:12:37.000Z</time>
      </trkpt>
      <trkpt lat="45.00671" lon="5.81004">
        <ele>1346.8000488281</ele>
        <time>2023-10-01T08:12:38.000Z</time>
      </trkpt>
      <trkpt lat="45.00671" lon="5.81005">
        <ele>1347</ele>
        <time>2023-10-01T08:12:39.000Z</time>
      </trkpt>
      <trkpt lat="45.00671" lon="5.81006">
        <ele>1347.5999755859</ele>
        <time>2023-10-01T08:12:40.000Z</time>
      </trkpt>
      <trkpt lat="45.00671" lon="5.81006">
        <ele>1347.8000488281</ele>
        <time>2023-10-01T08:12:41.000Z</time>
      </trkpt>
      <trkpt lat="45.00671" lon="5.81006">
        <ele>1348</ele>
        <time>2023-10-01T08:12:42.000Z</time>
      </trkpt>
      <trkpt lat="45.00671" lon="5.81007">
        <ele>1348.4000244141</ele>
        <time>2023-10-01T08:12:43.000Z</time>
      </trkpt>
      <trkpt lat="45.00671" lon="5.81007">
        <ele>1348.5999755859</ele>
        <time>2023-10-01T08:12:44.000Z</time>
      </trkpt>
      <trkpt lat="45.00671" lon="5.81008">
        <ele>1348.8000488281</ele>
        <time>2023-10-01T08:12:45.000Z</time>
      </trkpt>
      <trkpt lat="45.00671" lon="5.81008">
        <ele>1348.8000488281</ele>
        <time>2023-10-01T08:12:46.000Z</time>
      </trkpt>
      <trkpt lat="45.00671" lon="5.81009">
        <ele>1349.1999511719</ele>
        <time>2023-10-01T08:12:47.000Z</time>
      </trkpt>
      <trkpt lat="45.00671" lon="5.8101">
        <ele>1349.4000244141</ele>
        <time>2023-10-01T08:12:48.000Z</time>
      </trkpt>
      <trkpt lat="45.00672" lon="5.8101">
        <ele>1349.8000488281</ele>
        <time>2023-10-01T08:12:49.000Z</time>
      </trkpt>
      <trkpt lat="45.00672" lon="5.81011">
        <ele>1350</ele>
        <time>2023-10-01T08:12:50.000Z</time>
      </trkpt>
      <trkpt lat="45.00672" lon="5.81011">
        <ele>1350.1999511719</ele>
        <time>2023-10-01T08:12:51.000Z</time>
      </trkpt>
      <trkpt lat="45.00671" lon="5.81012">
        <ele>1350.5999755859</ele>
        <time>2023-10-01T08:12:52.000Z</time>
      </trkpt>
      <trkpt lat="45.00671" lon="5.81012">
        <ele>1350.8000488281</ele>
        <time>2023-10-01T08:12:53.000Z</time>
      </trkpt>
      <trkpt lat="45.00671" lon="5.81013">
        <ele>1351.1999511719</ele>
        <time>2023-10-01T08:12:54.000Z</time>
      </trkpt>
      <trkpt lat="45.00671" lon="5.81014">
        <ele>1351.4000244141</ele>
        <time>2023-10-01T08:12:55.000Z</time>
      </trkpt>
      <trkpt lat="45.00671" lon="5.81015">
        <ele>1351.8000488281</ele>
        <time>2023-10-01T08:12:56.000Z</time>
      </trkpt>
      <trkpt lat="45.0067" lon="5.81015">
        <ele>1352.1999511719</ele>
        <time>2023-10-01T08:12:57.000Z</time>
      </trkpt>
      <trkpt lat="45.0067" lon="5.81016">
        <ele>1352.5999755859</ele>
        <time>2023-10-01T08:12:58.000Z</time>
      </trkpt>
      <trkpt lat="45.0067" lon="5.81018">
        <ele>1352.5999755859</ele>
        <time>2023-10-01T08:12:59.000Z</time>
      </trkpt>
      <trkpt lat="45.00669" lon="5.81019">
        <ele>1353</ele>
        <time>2023-10-01T08:13:00.000Z</time>
      </trkpt>
      <trkpt lat="45.00669" lon="5.8102">
        <ele>1353.1999511719</ele>
        <time>2023-10-01T08:13:01.000Z</time>
      </trkpt>
      <trkpt lat="45.00668" lon="5.8102">
        <ele>1353.5999755859</ele>
        <time>2023-10-01T08:13:02.000Z</time>
      </trkpt>
      <trkpt lat="45.00668" lon="5.8102">
        <ele>1353.8000488281</ele>
        <time>2023-10-01T08:13:03.000Z</time>
      </trkpt>
      <trkpt lat="45.00668" lon="5.8102">
        <ele>1354.1999511719</ele>
        <time>2023-10-01T08:13:04.000Z</time>
      </trkpt>
      <trkpt lat="45.00667" lon="5.8102">
        <ele>1354.5999755859</ele>
        <time>2023-10-01T08:13:05.000Z</time>
      </trkpt>
      <trkpt lat="45.00667" lon="5.81021">
        <ele>1354.8000488281</ele>
        <time>2023-10-01T08:13:06.000Z</time>
      </trkpt>
      <trkpt lat="45.00666" lon="5.81022">
        <ele>1355.1999511719</ele>
        <time>2023-10-01T08:13:07.000Z</time>
      </trkpt>
      <trkpt lat="45.00666" lon="5.81022">
        <ele>1355.4000244141</ele>
        <time>2023-10-01T08:13:08.000Z</time>
      </trkpt>
      <trkpt lat="45.00666" lon="5.81022">
        <ele>1355.8000488281</ele>
        <time>2023-10-01T08:13:09.000Z</time>
      </trkpt>
      <trkpt lat="45.00666" lon="5.81023">
        <ele>1356</ele>
        <time>2023-10-01T08:13:10.000Z</time>
      </trkpt>
      <trkpt lat="45.00667" lon="5.81023">
        <ele>1356.4000244141</ele>
        <time>2023-10-01T08:13:11.000Z</time>
      </trkpt>
      <trkpt lat="45.00667" lon="5.81023">
        <ele>1356.5999755859</ele>
        <time>2023-10-01T08:13:12.000Z</time>
      </trkpt>
      <trkpt lat="45.00667" lon="5.81023">
        <ele>1357</ele>
        <time>2023-10-01T08:13:13.000Z</time>
      </trkpt>
      <trkpt lat="45.00667" lon="5.81024">
        <ele>1357.1999511719</ele>
        <time>2023-10-01T08:13:14.000Z</time>
      </trkpt>
      <trkpt lat="45.00666" lon="5.81025">
        <ele>1357.5999755859</ele>
        <time>2023-10-01T08:13:15.000Z</time>
      </trkpt>
      <trkpt lat="45.00666" lon="5.81026">
        <ele>1357.8000488281</ele>
        <time>2023-10-01T08:13:16.000Z</time>
      </trkpt>
      <trkpt lat="45.00666" lon="5.81027">
        <ele>1358.1999511719</ele>
        <time>2023-10-01T08:13:17.000Z</time>
      </trkpt>
      <trkpt lat="45.00666" lon="5.81028">
        <ele>1358.4000244141</ele>
        <time>2023-10-01T08:13:18.000Z</time>
      </trkpt>
      <trkpt lat="45.00666" lon="5.81029">
        <ele>1358.8000488281</ele>
        <time>2023-10-01T08:13:19.000Z</time>
      </trkpt>
      <trkpt lat="45.00666" lon="5.8103">
        <ele>1359</ele>
        <time>2023-10-01T08:13:20.000Z</time>
      </trkpt>
      <trkpt lat="45.00666" lon="5.8103">
        <ele>1359.4000244141</ele>
        <time>2023-10-01T08:13:21.000Z</time>
      </trkpt>
      <trkpt lat="45.00667" lon="5.81031">
        <ele>1359.5999755859</ele>
        <time>2023-10-01T08:13:22.000Z</time>
      </trkpt>
      <trkpt lat="45.00667" lon="5.81032">
        <ele>1359.8000488281</ele>
        <time>2023-10-01T08:13:23.000Z</time>
      </trkpt>
      <trkpt lat="45.00667" lon="5.81033">
        <ele>1360.4000244141</ele>
        <time>2023-10-01T08:13:24.000Z</time>
      </trkpt>
      <trkpt lat="45.00667" lon="5.81034">
        <ele>1360.4000244141</ele>
        <time>2023-10-01T08:13:25.000Z</time>
      </trkpt>
      <trkpt lat="45.00667" lon="5.81035">
        <ele>1360.8000488281</ele>
        <time>2023-10-01T08:13:26.000Z</time>
      </trkpt>
      <trkpt lat="45.00666" lon="5.81035">
        <ele>1361.1999511719</ele>
        <time>2023-10-01T08:13:27.000Z</time>
      </trkpt>
      <trkpt lat="45.00666" lon="5.81036">
        <ele>1361.4000244141</ele>
        <time>2023-10-01T08:13:28.000Z</time>
      </trkpt>
      <trkpt lat="45.00666" lon="5.81036">
        <ele>1361.5999755859</ele>
        <time>2023-10-01T08:13:29.000Z</time>
      </trkpt>
      <trkpt lat="45.00666" lon="5.81036">
        <ele>1361.8000488281</ele>
        <time>2023-10-01T08:13:30.000Z</time>
      </trkpt>
      <trkpt lat="45.00666" lon="5.81037">
        <ele>1362</ele>
        <time>2023-10-01T08:13:31.000Z</time>
      </trkpt>
      <trkpt lat="45.00666" lon="5.81038">
        <ele>1362.1999511719</ele>
        <time>2023-10-01T08:13:32.000Z</time>
      </trkpt>
      <trkpt lat="45.00666" lon="5.81039">
        <ele>1362.5999755859</ele>
        <time>2023-10-01T08:13:33.000Z</time>
      </trkpt>
      <trkpt lat="45.00666" lon="5.8104">
        <ele>1363</ele>
        <time>2023-10-01T08:13:34.000Z</time>
      </trkpt>
      <trkpt lat="45.00666" lon="5.8104">
        <ele>1363.1999511719</ele>
        <time>2023-10-01T08:13:35.000Z</time>
      </trkpt>
      <trkpt lat="45.00666" lon="5.81042">
        <ele>1363.4000244141</ele>
        <time>2023-10-01T08:13:36.000Z</time>
      </trkpt>
      <trkpt lat="45.00665" lon="5.81043">
        <ele>1363.5999755859</ele>
        <time>2023-10-01T08:13:37.000Z</time>
      </trkpt>
      <trkpt lat="45.00665" lon="5.81044">
        <ele>1364</ele>
        <time>2023-10-01T08:13:38.000Z</time>
      </trkpt>
      <trkpt lat="45.00665" lon="5.81045">
        <ele>1364.4000244141</ele>
        <time>2023-10-01T08:13:39.000Z</time>
      </trkpt>
      <trkpt lat="45.00664" lon="5.81046">
        <ele>1364.5999755859</ele>
        <time>2023-10-01T08:13:40.000Z</time>
      </trkpt>
      <trkpt lat="45.00664" lon="5.81046">
        <ele>1365</ele>
        <time>2023-10-01T08:13:41.000Z</time>
      </trkpt>
      <trkpt lat="45.00664" lon="5.81046">
        <ele>1365.4000244141</ele>
        <time>2023-10-01T08:13:42.000Z</time>
      </trkpt>
      <trkpt lat="45.00664" lon="5.81046">
        <ele>1365.5999755859</ele>
        <time>2023-10-01T08:13:43.000Z</time>
      </trkpt>
      <trkpt lat="45.00664" lon="5.81048">
        <ele>1366</ele>
        <time>2023-10-01T08:13:44.000Z</time>
      </trkpt>
      <trkpt lat="45.00664" lon="5.81048">
        <ele>1366.1999511719</ele>
        <time>2023-10-01T08:13:45.000Z</time>
      </trkpt>
      <trkpt lat="45.00663" lon="5.81049">
        <ele>1366.5999755859</ele>
        <time>2023-10-01T08:13:46.000Z</time>
      </trkpt>
      <trkpt lat="45.00663" lon="5.8105">
        <ele>1367</ele>
        <time>2023-10-01T08:13:47.000Z</time>
      </trkpt>
      <trkpt lat="45.00663" lon="5.81051">
        <ele>1367.1999511719</ele>
        <time>2023-10-01T08:13:48.000Z</time>
      </trkpt>
      <trkpt lat="45.00662" lon="5.81053">
        <ele>1367.4000244141</ele>
        <time>2023-10-01T08:13:49.000Z</time>
      </trkpt>
      <trkpt lat="45.00662" lon="5.81054">
        <ele>1367.8000488281</ele>
        <time>2023-10-01T08:13:50.000Z</time>
      </trkpt>
      <trkpt lat="45.00662" lon="5.81054">
        <ele>1368.1999511719</ele>
        <time>2023-10-01T08:13:51.000Z</time>
      </trkpt>
      <trkpt lat="45.00662" lon="5.81055">
        <ele>1368.5999755859</ele>
        <time>2023-10-01T08:13:52.000Z</time>
      </trkpt>
      <trkpt lat="45.00662" lon="5.81056">
        <ele>1368.8000488281</ele>
        <time>2023-10-01T08:13:53.000Z</time>
      </trkpt>
      <trkpt lat="45.00662" lon="5.81056">
        <ele>1369.1999511719</ele>
        <time>2023-10-01T08:13:54.000Z</time>
      </trkpt>
      <trkpt lat="45.00662" lon="5.81057">
        <ele>1369.4000244141</ele>
        <time>2023-10-01T08:13:55.000Z</time>
      </trkpt>
      <trkpt lat="45.00662" lon="5.81057">
        <ele>1369.8000488281</ele>
        <time>2023-10-01T08:13:56.000Z</time>
      </trkpt>
      <trkpt lat="45.00662" lon="5.81058">
        <ele>1370</ele>
        <time>2023-10-01T08:13:57.000Z</time>
      </trkpt>
      <trkpt lat="45.00662" lon="5.81058">
        <ele>1370.4000244141</ele>
        <time>2023-10-01T08:13:58.000Z</time>
      </trkpt>
      <trkpt lat="45.00662" lon="5.8106">
        <ele>1370.5999755859</ele>
        <time>2023-10-01T08:13:59.000Z</time>
      </trkpt>
      <trkpt lat="45.00662" lon="5.81061">
        <ele>1371</ele>
        <time>2023-10-01T08:14:00.000Z</time>
      </trkpt>
      <trkpt lat="45.00662" lon="5.81062">
        <ele>1371.1999511719</ele>
        <time>2023-10-01T08:14:01.000Z</time>
      </trkpt>
      <trkpt lat="45.00662" lon="5.81062">
        <ele>1371.5999755859</ele>
        <time>2023-10-01T08:14:02.000Z</time>
      </trkpt>
      <trkpt lat="45.00663" lon="5.81062">
        <ele>1372</ele>
        <time>2023-10-01T08:14:03.000Z</time>
      </trkpt>
      <trkpt lat="45.00663" lon="5.81062">
        <ele>1372.4000244141</ele>
        <time>2023-10-01T08:14:04.000Z</time>
      </trkpt>
      <trkpt lat="45.00663" lon="5.81061">
        <ele>1372.5999755859</ele>
        <time>2023-10-01T08:14:05.000Z</time>
      </trkpt>
      <trkpt lat="45.00663" lon="5.81061">
        <ele>1373</ele>
        <time>2023-10-01T08:14:06.000Z</time>
      </trkpt>
      <trkpt lat="45.00663" lon="5.81062">
        <ele>1373.4000244141</ele>
        <time>2023-10-01T08:14:07.000Z</time>
      </trkpt>
      <trkpt lat="45.00663" lon="5.81063">
        <ele>1373.5999755859</ele>
        <time>2023-10-01T08:14:08.000Z</time>
      </trkpt>
      <trkpt lat="45.00662" lon="5.81063">
        <ele>1373.8000488281</ele>
        <time>2023-10-01T08:14:09.000Z</time>
      </trkpt>
      <trkpt lat="45.00662" lon="5.81064">
        <ele>1374.1999511719</ele>
        <time>2023-10-01T08:14:10.000Z</time>
      </trkpt>
      <trkpt lat="45.00661" lon="5.81065">
        <ele>1374.5999755859</ele>
        <time>2023-10-01T08:14:11.000Z</time>
      </trkpt>
      <trkpt lat="45.00661" lon="5.81066">
        <ele>1374.8000488281</ele>
        <time>2023-10-01T08:14:12.000Z</time>
      </trkpt>
      <trkpt lat="45.00662" lon="5.81067">
        <ele>1375</ele>
        <time>2023-10-01T08:14:13.000Z</time>
      </trkpt>
      <trkpt lat="45.00662" lon="5.81069">
        <ele>1375.4000244141</ele>
        <time>2023-10-01T08:14:14.000Z</time>
      </trkpt>
      <trkpt lat="45.00662" lon="5.81069">
        <ele>1375.5999755859</ele>
        <time>2023-10-01T08:14:15.000Z</time>
      </trkpt>
      <trkpt lat="45.00662" lon="5.8107">
        <ele>1376</ele>
        <time>2023-10-01T08:14:16.000Z</time>
      </trkpt>
      <trkpt lat="45.00662" lon="5.81071">
        <ele>1376.1999511719</ele>
        <time>2023-10-01T08:14:17.000Z</time>
      </trkpt>
      <trkpt lat="45.00662" lon="5.81072">
        <ele>1376.4000244141</ele>
        <time>2023-10-01T08:14:18.000Z</time>
      </trkpt>
      <trkpt lat="45.00662" lon="5.81072">
        <ele>1376.8000488281</ele>
        <time>2023-10-01T08:14:19.000Z</time>
      </trkpt>
      <trkpt lat="45.00662" lon="5.81073">
        <ele>1377.1999511719</ele>
        <time>2023-10-01T08:14:20.000Z</time>
      </trkpt>
      <trkpt lat="45.00663" lon="5.81074">
        <ele>1377.5999755859</ele>
        <time>2023-10-01T08:14:21.000Z</time>
      </trkpt>
      <trkpt lat="45.00663" lon="5.81075">
        <ele>1377.8000488281</ele>
        <time>2023-10-01T08:14:22.000Z</time>
      </trkpt>
      <trkpt lat="45.00663" lon="5.81075">
        <ele>1378.1999511719</ele>
        <time>2023-10-01T08:14:23.000Z</time>
      </trkpt>
      <trkpt lat="45.00663" lon="5.81076">
        <ele>1378.5999755859</ele>
        <time>2023-10-01T08:14:24.000Z</time>
      </trkpt>
      <trkpt lat="45.00663" lon="5.81077">
        <ele>1378.8000488281</ele>
        <time>2023-10-01T08:14:25.000Z</time>
      </trkpt>
      <trkpt lat="45.00663" lon="5.81078">
        <ele>1379.1999511719</ele>
        <time>2023-10-01T08:14:26.000Z</time>
      </trkpt>
      <trkpt lat="45.00663" lon="5.81078">
        <ele>1379.5999755859</ele>
        <time>2023-10-01T08:14:27.000Z</time>
      </trkpt>
      <trkpt lat="45.00663" lon="5.81079">
        <ele>1379.8000488281</ele>
        <time>2023-10-01T08:14:28.000Z</time>
      </trkpt>
      <trkpt lat="45.00663" lon="5.81079">
        <ele>1380.1999511719</ele>
        <time>2023-10-01T08:14:29.000Z</time>
      </trkpt>
      <trkpt lat="45.00663" lon="5.8108">
        <ele>1380.5999755859</ele>
        <time>2023-10-01T08:14:30.000Z</time>
      </trkpt>
      <trkpt lat="45.00663" lon="5.8108">
        <ele>1381</ele>
        <time>2023-10-01T08:14:31.000Z</time>
      </trkpt>
      <trkpt lat="45.00663" lon="5.81081">
        <ele>1381.4000244141</ele>
        <time>2023-10-01T08:14:32.000Z</time>
      </trkpt>
      <trkpt lat="45.00663" lon="5.81082">
        <ele>1381.8000488281</ele>
        <time>2023-10-01T08:14:33.000Z</time>
      </trkpt>
      <trkpt lat="45.00662" lon="5.81083">
        <ele>1382</ele>
        <time>2023-10-01T08:14:34.000Z</time>
      </trkpt>
      <trkpt lat="45.00663" lon="5.81083">
        <ele>1382.1999511719</ele>
        <time>2023-10-01T08:14:35.000Z</time>
      </trkpt>
      <trkpt lat="45.00662" lon="5.81084">
        <ele>1382.4000244141</ele>
        <time>2023-10-01T08:14:36.000Z</time>
      </trkpt>
      <trkpt lat="45.00662" lon="5.81085">
        <ele>1382.5999755859</ele>
        <time>2023-10-01T08:14:37.000Z</time>
      </trkpt>
      <trkpt lat="45.00661" lon="5.81085">
        <ele>1383</ele>
        <time>2023-10-01T08:14:38.000Z</time>
      </trkpt>
      <trkpt lat="45.00661" lon="5.81086">
        <ele>1383.1999511719</ele>
        <time>2023-10-01T08:14:39.000Z</time>
      </trkpt>
      <trkpt lat="45.00661" lon="5.81086">
        <ele>1383.5999755859</ele>
        <time>2023-10-01T08:14:40.000Z</time>
      </trkpt>
      <trkpt lat="45.00661" lon="5.81086">
        <ele>1384</ele>
        <time>2023-10-01T08:14:41.000Z</time>
      </trkpt>
      <trkpt lat="45.0066" lon="5.81087">
        <ele>1384.4000244141</ele>
        <time>2023-10-01T08:14:42.000Z</time>
      </trkpt>
      <trkpt lat="45.0066" lon="5.81088">
        <ele>1384.5999755859</ele>
        <time>2023-10-01T08:14:43.000Z</time>
      </trkpt>
      <trkpt lat="45.0066" lon="5.81089">
        <ele>1384.8000488281</ele>
        <time>2023-10-01T08:14:44.000Z</time>
      </trkpt>
      <trkpt lat="45.0066" lon="5.8109">
        <ele>1385.1999511719</ele>
        <time>2023-10-01T08:14:45.000Z</time>
      </trkpt>
      <trkpt lat="45.0066" lon="5.8109">
        <ele>1385.4000244141</ele>
        <time>2023-10-01T08:14:46.000Z</time>
      </trkpt>
      <trkpt lat="45.0066" lon="5.81091">
        <ele>1385.8000488281</ele>
        <time>2023-10-01T08:14:47.000Z</time>
      </trkpt>
      <trkpt lat="45.0066" lon="5.81091">
        <ele>1386</ele>
        <time>2023-10-01T08:14:48.000Z</time>
      </trkpt>
      <trkpt lat="45.0066" lon="5.81092">
        <ele>1386.1999511719</ele>
        <time>2023-10-01T08:14:49.000Z</time>
      </trkpt>
      <trkpt lat="45.00661" lon="5.81093">
        <ele>1386.5999755859</ele>
        <time>2023-10-01T08:14:50.000Z</time>
      </trkpt>
      <trkpt lat="45.00661" lon="5.81094">
        <ele>1387</ele>
        <time>2023-10-01T08:14:51.000Z</time>
      </trkpt>
      <trkpt lat="45.00662" lon="5.81095">
        <ele>1387.1999511719</ele>
        <time>2023-10-01T08:14:52.000Z</time>
      </trkpt>
      <trkpt lat="45.00662" lon="5.81095">
        <ele>1387.4000244141</ele>
        <time>2023-10-01T08:14:53.000Z</time>
      </trkpt>
      <trkpt lat="45.00661" lon="5.81095">
        <ele>1387.8000488281</ele>
        <time>2023-10-01T08:14:54.000Z</time>
      </trkpt>
      <trkpt lat="45.00661" lon="5.81095">
        <ele>1388.1999511719</ele>
        <time>2023-10-01T08:14:55.000Z</time>
      </trkpt>
      <trkpt lat="45.00661" lon="5.81096">
        <ele>1388.4000244141</ele>
        <time>2023-10-01T08:14:56.000Z</time>
      </trkpt>
      <trkpt lat="45.0066" lon="5.81096">
        <ele>1388.5999755859</ele>
        <time>2023-10-01T08:14:57.000Z</time>
      </trkpt>
      <trkpt lat="45.0066" lon="5.81097">
        <ele>1389</ele>
        <time>2023-10-01T08:14:58.000Z</time>
      </trkpt>
      <trkpt lat="45.0066" lon="5.81098">
        <ele>1389.4000244141</ele>
        <time>2023-10-01T08:14:59.000Z</time>
      </trkpt>
      <trkpt lat="45.0066" lon="5.81098">
        <ele>1389.5999755859</ele>
        <time>2023-10-01T08:15:00.000Z</time>
      </trkpt>
      <trkpt lat="45.00659" lon="5.81099">
        <ele>1389.8000488281</ele>
        <time>2023-10-01T08:15:01.000Z</time>
      </trkpt>
      <trkpt lat="45.00659" lon="5.81099">
        <ele>1390</ele>
        <time>2023-10-01T08:15:02.000Z</time>
      </trkpt>
      <trkpt lat="45.00659" lon="5.811">
        <ele>1390.1999511719</ele>
        <time>2023-10-01T08:15:03.000Z</time>
      </trkpt>
      <trkpt lat="45.00659" lon="5.811">
        <ele>1390.5999755859</ele>
        <time>2023-10-01T08:15:04.000Z</time>
      </trkpt>
      <trkpt lat="45.00658" lon="5.81101">
        <ele>1390.8000488281</ele>
        <time>2023-10-01T08:15:05.000Z</time>
      </trkpt>
      <trkpt lat="45.00658" lon="5.81102">
        <ele>1391.1999511719</ele>
        <time>2023-10-01T08:15:06.000Z</time>
      </trkpt>
      <trkpt lat="45.00657" lon="5.81103">
        <ele>1391.4000244141</ele>
        <time>2023-10-01T08:15:07.000Z</time>
      </trkpt>
      <trkpt lat="45.00657" lon="5.81103">
        <ele>1391.8000488281</ele>
        <time>2023-10-01T08:15:08.000Z</time>
      </trkpt>
      <trkpt lat="45.00657" lon="5.81103">
        <ele>1392.1999511719</ele>
        <time>2023-10-01T08:15:09.000Z</time>
      </trkpt>
      <trkpt lat="45.00657" lon="5.81103">
        <ele>1392.4000244141</ele>
        <time>2023-10-01T08:15:10.000Z</time>
      </trkpt>
      <trkpt lat="45.00657" lon="5.81104">
        <ele>1392.8000488281</ele>
        <time>2023-10-01T08:15:11.000Z</time>
      </trkpt>
      <trkpt lat="45.00657" lon="5.81104">
        <ele>1392.8000488281</ele>
        <time>2023-10-01T08:15:12.000Z</time>
      </trkpt>
      <trkpt lat="45.00656" lon="5.81105">
        <ele>1393.1999511719</ele>
        <time>2023-10-01T08:15:13.000Z</time>
      </trkpt>
      <trkpt lat="45.00656" lon="5.81106">
        <ele>1393.4000244141</ele>
        <time>2023-10-01T08:15:14.000Z</time>
      </trkpt>
      <trkpt lat="45.00656" lon="5.81106">
        <ele>1393.8000488281</ele>
        <time>2023-10-01T08:15:15.000Z</time>
      </trkpt>
      <trkpt lat="45.00655" lon="5.81106">
        <ele>1394</ele>
        <time>2023-10-01T08:15:16.000Z</time>
      </trkpt>
      <trkpt lat="45.00655" lon="5.81106">
        <ele>1394.1999511719</ele>
        <time>2023-10-01T08:15:17.000Z</time>
      </trkpt>
      <trkpt lat="45.00655" lon="5.81107">
        <ele>1394.4000244141</ele>
        <time>2023-10-01T08:15:18.000Z</time>
      </trkpt>
      <trkpt lat="45.00655" lon="5.81107">
        <ele>1394.8000488281</ele>
        <time>2023-10-01T08:15:19.000Z</time>
      </trkpt>
      <trkpt lat="45.00656" lon="5.81108">
        <ele>1395.1999511719</ele>
        <time>2023-10-01T08:15:20.000Z</time>
      </trkpt>
      <trkpt lat="45.00656" lon="5.81109">
        <ele>1395.5999755859</ele>
        <time>2023-10-01T08:15:21.000Z</time>
      </trkpt>
      <trkpt lat="45.00657" lon="5.81109">
        <ele>1395.8000488281</ele>
        <time>2023-10-01T08:15:22.000Z</time>
      </trkpt>
      <trkpt lat="45.00657" lon="5.8111">
        <ele>1396.1999511719</ele>
        <time>2023-10-01T08:15:23.000Z</time>
      </trkpt>
      <trkpt lat="45.00658" lon="5.81111">
        <ele>1396.4000244141</ele>
        <time>2023-10-01T08:15:24.000Z</time>
      </trkpt>
      <trkpt lat="45.00659" lon="5.81112">
        <ele>1396.5999755859</ele>
        <time>2023-10-01T08:15:25.000Z</time>
      </trkpt>
      <trkpt lat="45.00659" lon="5.81113">
        <ele>1396.8000488281</ele>
        <time>2023-10-01T08:15:26.000Z</time>
      </trkpt>
      <trkpt lat="45.00659" lon="5.81114">
        <ele>1397</ele>
        <time>2023-10-01T08:15:27.000Z</time>
      </trkpt>
      <trkpt lat="45.00658" lon="5.81115">
        <ele>1397.4000244141</ele>
        <time>2023-10-01T08:15:28.000Z</time>
      </trkpt>
      <trkpt lat="45.00658" lon="5.81116">
        <ele>1397.5999755859</ele>
        <time>2023-10-01T08:15:29.000Z</time>
      </trkpt>
      <trkpt lat="45.00658" lon="5.81116">
        <ele>1398</ele>
        <time>2023-10-01T08:15:30.000Z</time>
      </trkpt>
      <trkpt lat="45.00658" lon="5.81116">
        <ele>1398.1999511719</ele>
        <time>2023-10-01T08:15:31.000Z</time>
      </trkpt>
      <trkpt lat="45.00658" lon="5.81117">
        <ele>1398.5999755859</ele>
        <time>2023-10-01T08:15:32.000Z</time>
      </trkpt>
      <trkpt lat="45.00658" lon="5.81117">
        <ele>1398.8000488281</ele>
        <time>2023-10-01T08:15:33.000Z</time>
      </trkpt>
      <trkpt lat="45.00658" lon="5.81118">
        <ele>1399.1999511719</ele>
        <time>2023-10-01T08:15:34.000Z</time>
      </trkpt>
      <trkpt lat="45.00658" lon="5.81118">
        <ele>1399.4000244141</ele>
        <time>2023-10-01T08:15:35.000Z</time>
      </trkpt>
      <trkpt lat="45.00658" lon="5.81119">
        <ele>1399.8000488281</ele>
        <time>2023-10-01T08:15:36.000Z</time>
      </trkpt>
      <trkpt lat="45.00658" lon="5.81119">
        <ele>1400</ele>
        <time>2023-10-01T08:15:37.000Z</time>
      </trkpt>
      <trkpt lat="45.00658" lon="5.8112">
        <ele>1400.4000244141</ele>
        <time>2023-10-01T08:15:38.000Z</time>
      </trkpt>
      <trkpt lat="45.00658" lon="5.81122">
        <ele>1400.5999755859</ele>
        <time>2023-10-01T08:15:39.000Z</time>
      </trkpt>
      <trkpt lat="45.00658" lon="5.81122">
        <ele>1401</ele>
        <time>2023-10-01T08:15:40.000Z</time>
      </trkpt>
      <trkpt lat="45.00658" lon="5.81122">
        <ele>1401.1999511719</ele>
        <time>2023-10-01T08:15:41.000Z</time>
      </trkpt>
      <trkpt lat="45.00658" lon="5.81123">
        <ele>1401.4000244141</ele>
        <time>2023-10-01T08:15:42.000Z</time>
      </trkpt>
      <trkpt lat="45.00658" lon="5.81123">
        <ele>1401.8000488281</ele>
        <time>2023-10-01T08:15:43.000Z</time>
      </trkpt>
      <trkpt lat="45.00658" lon="5.81124">
        <ele>1402</ele>
        <time>2023-10-01T08:15:44.000Z</time>
      </trkpt>
      <trkpt lat="45.00658" lon="5.81125">
        <ele>1402.4000244141</ele>
        <time>2023-10-01T08:15:45.000Z</time>
      </trkpt>
      <trkpt lat="45.00658" lon="5.81125">
        <ele>1402.5999755859</ele>
        <time>2023-10-01T08:15:46.000Z</time>
      </trkpt>
      <trkpt lat="45.00658" lon="5.81126">
        <ele>1403</ele>
        <time>2023-10-01T08:15:47.000Z</time>
      </trkpt>
      <trkpt lat="45.00658" lon="5.81127">
        <ele>1403.1999511719</ele>
        <time>2023-10-01T08:15:48.000Z</time>
      </trkpt>
      <trkpt lat="45.00659" lon="5.81128">
        <ele>1403.5999755859</ele>
        <time>2023-10-01T08:15:49.000Z</time>
      </trkpt>
      <trkpt lat="45.00659" lon="5.81129">
        <ele>1404</ele>
        <time>2023-10-01T08:15:50.000Z</time>
      </trkpt>
      <trkpt lat="45.00659" lon="5.8113">
        <ele>1404.1999511719</ele>
        <time>2023-10-01T08:15:51.000Z</time>
      </trkpt>
      <trkpt lat="45.0066" lon="5.8113">
        <ele>1404.4000244141</ele>
        <time>2023-10-01T08:15:52.000Z</time>
      </trkpt>
      <trkpt lat="45.0066" lon="5.81131">
        <ele>1404.5999755859</ele>
        <time>2023-10-01T08:15:53.000Z</time>
      </trkpt>
      <trkpt lat="45.0066" lon="5.81131">
        <ele>1405</ele>
        <time>2023-10-01T08:15:54.000Z</time>
      </trkpt>
      <trkpt lat="45.0066" lon="5.81131">
        <ele>1405.1999511719</ele>
        <time>2023-10-01T08:15:55.000Z</time>
      </trkpt>
      <trkpt lat="45.0066" lon="5.81132">
        <ele>1405.5999755859</ele>
        <time>2023-10-01T08:15:56.000Z</time>
      </trkpt>
      <trkpt lat="45.00661" lon="5.81132">
        <ele>1405.8000488281</ele>
        <time>2023-10-01T08:15:57.000Z</time>
      </trkpt>
      <trkpt lat="45.00661" lon="5.81132">
        <ele>1406.4000244141</ele>
        <time>2023-10-01T08:15:58.000Z</time>
      </trkpt>
      <trkpt lat="45.00661" lon="5.81133">
        <ele>1406.4000244141</ele>
        <time>2023-10-01T08:15:59.000Z</time>
      </trkpt>
      <trkpt lat="45.00661" lon="5.81133">
        <ele>1406.8000488281</ele>
        <time>2023-10-01T08:16:00.000Z</time>
      </trkpt>
      <trkpt lat="45.00661" lon="5.81134">
        <ele>1407.1999511719</ele>
        <time>2023-10-01T08:16:01.000Z</time>
      </trkpt>
      <trkpt lat="45.00661" lon="5.81134">
        <ele>1407.4000244141</ele>
        <time>2023-10-01T08:16:02.000Z</time>
      </trkpt>
      <trkpt lat="45.00661" lon="5.81136">
        <ele>1407.5999755859</ele>
        <time>2023-10-01T08:16:03.000Z</time>
      </trkpt>
      <trkpt lat="45.00661" lon="5.81137">
        <ele>1408</ele>
        <time>2023-10-01T08:16:04.000Z</time>
      </trkpt>
      <trkpt lat="45.00661" lon="5.81137">
        <ele>1408</ele>
        <time>2023-10-01T08:16:05.000Z</time>
      </trkpt>
      <trkpt lat="45.00661" lon="5.81138">
        <ele>1408.4000244141</ele>
        <time>2023-10-01T08:16:06.000Z</time>
      </trkpt>
      <trkpt lat="45.00661" lon="5.81139">
        <ele>1408.5999755859</ele>
        <time>2023-10-01T08:16:07.000Z</time>
      </trkpt>
      <trkpt lat="45.00661" lon="5.81139">
        <ele>1409</ele>
        <time>2023-10-01T08:16:08.000Z</time>
      </trkpt>
      <trkpt lat="45.00661" lon="5.8114">
        <ele>1409.1999511719</ele>
        <time>2023-10-01T08:16:09.000Z</time>
      </trkpt>
      <trkpt lat="45.00661" lon="5.81141">
        <ele>1409.4000244141</ele>
        <time>2023-10-01T08:16:10.000Z</time>
      </trkpt>
      <trkpt lat="45.00661" lon="5.81141">
        <ele>1409.8000488281</ele>
        <time>2023-10-01T08:16:11.000Z</time>
      </trkpt>
      <trkpt lat="45.00661" lon="5.81142">
        <ele>1410.1999511719</ele>
        <time>2023-10-01T08:16:12.000Z</time>
      </trkpt>
      <trkpt lat="45.00661" lon="5.81141">
        <ele>1410.5999755859</ele>
        <time>2023-10-01T08:16:13.000Z</time>
      </trkpt>
      <trkpt lat="45.00661" lon="5.81142">
        <ele>1410.8000488281</ele>
        <time>2023-10-01T08:16:14.000Z</time>
      </trkpt>
      <trkpt lat="45.00662" lon="5.81143">
        <ele>1411.1999511719</ele>
        <time>2023-10-01T08:16:15.000Z</time>
      </trkpt>
      <trkpt lat="45.00662" lon="5.81144">
        <ele>1411.5999755859</ele>
        <time>2023-10-01T08:16:16.000Z</time>
      </trkpt>
      <trkpt lat="45.00662" lon="5.81145">
        <ele>1411.8000488281</ele>
        <time>2023-10-01T08:16:17.000Z</time>
      </trkpt>
      <trkpt lat="45.00662" lon="5.81145">
        <ele>1412.1999511719</ele>
        <time>2023-10-01T08:16:18.000Z</time>
      </trkpt>
      <trkpt lat="45.00661" lon="5.81146">
        <ele>1412.4000244141</ele>
        <time>2023-10-01T08:16:19.000Z</time>
      </trkpt>
      <trkpt lat="45.00661" lon="5.81148">
        <ele>1412.5999755859</ele>
        <time>2023-10-01T08:16:20.000Z</time>
      </trkpt>
      <trkpt lat="45.00661" lon="5.81148">
        <ele>1413</ele>
        <time>2023-10-01T08:16:21.000Z</time>
      </trkpt>
      <trkpt lat="45.0066" lon="5.81149">
        <ele>1413.1999511719</ele>
        <time>2023-10-01T08:16:22.000Z</time>
      </trkpt>
      <trkpt lat="45.0066" lon="5.81149">
        <ele>1413.5999755859</ele>
        <time>2023-10-01T08:16:23.000Z</time>
      </trkpt>
      <trkpt lat="45.0066" lon="5.81149">
        <ele>1413.8000488281</ele>
        <time>2023-10-01T08:16:24.000Z</time>
      </trkpt>
      <trkpt lat="45.00659" lon="5.81149">
        <ele>1414.1999511719</ele>
        <time>2023-10-01T08:16:25.000Z</time>
      </trkpt>
      <trkpt lat="45.00659" lon="5.81149">
        <ele>1414.5999755859</ele>
        <time>2023-10-01T08:16:26.000Z</time>
      </trkpt>
      <trkpt lat="45.00659" lon="5.8115">
        <ele>1414.8000488281</ele>
        <time>2023-10-01T08:16:27.000Z</time>
      </trkpt>
      <trkpt lat="45.00659" lon="5.8115">
        <ele>1415</ele>
        <time>2023-10-01T08:16:28.000Z</time>
      </trkpt>
      <trkpt lat="45.00659" lon="5.81152">
        <ele>1415.1999511719</ele>
        <time>2023-10-01T08:16:29.000Z</time>
      </trkpt>
      <trkpt lat="45.00659" lon="5.81152">
        <ele>1415.4000244141</ele>
        <time>2023-10-01T08:16:30.000Z</time>
      </trkpt>
      <trkpt lat="45.00659" lon="5.81154">
        <ele>1415.8000488281</ele>
        <time>2023-10-01T08:16:31.000Z</time>
      </trkpt>
      <trkpt lat="45.00659" lon="5.81154">
        <ele>1416.1999511719</ele>
        <time>2023-10-01T08:16:32.000Z</time>
      </trkpt>
      <trkpt lat="45.00659" lon="5.81155">
        <ele>1416.4000244141</ele>
        <time>2023-10-01T08:16:33.000Z</time>
      </trkpt>
      <trkpt lat="45.00659" lon="5.81156">
        <ele>1416.8000488281</ele>
        <time>2023-10-01T08:16:34.000Z</time>
      </trkpt>
      <trkpt lat="45.00659" lon="5.81156">
        <ele>1417</ele>
        <time>2023-10-01T08:16:35.000Z</time>
      </trkpt>
      <trkpt lat="45.00659" lon="5.81156">
        <ele>1417.1999511719</ele>
        <time>2023-10-01T08:16:36.000Z</time>
      </trkpt>
      <trkpt lat="45.00659" lon="5.81157">
        <ele>1417.4000244141</ele>
        <time>2023-10-01T08:16:37.000Z</time>
      </trkpt>
      <trkpt lat="45.0066" lon="5.81158">
        <ele>1417.5999755859</ele>
        <time>2023-10-01T08:16:38.000Z</time>
      </trkpt>
      <trkpt lat="45.0066" lon="5.81159">
        <ele>1418</ele>
        <time>2023-10-01T08:16:39.000Z</time>
      </trkpt>
      <trkpt lat="45.00661" lon="5.8116">
        <ele>1418.4000244141</ele>
        <time>2023-10-01T08:16:40.000Z</time>
      </trkpt>
      <trkpt lat="45.00661" lon="5.8116">
        <ele>1418.5999755859</ele>
        <time>2023-10-01T08:16:41.000Z</time>
      </trkpt>
      <trkpt lat="45.00661" lon="5.81161">
        <ele>1418.8000488281</ele>
        <time>2023-10-01T08:16:42.000Z</time>
      </trkpt>
      <trkpt lat="45.00661" lon="5.81161">
        <ele>1419.1999511719</ele>
        <time>2023-10-01T08:16:43.000Z</time>
      </trkpt>
      <trkpt lat="45.00661" lon="5.81161">
        <ele>1419.5999755859</ele>
        <time>2023-10-01T08:16:44.000Z</time>
      </trkpt>
      <trkpt lat="45.00661" lon="5.81162">
        <ele>1420</ele>
        <time>2023-10-01T08:16:45.000Z</time>
      </trkpt>
      <trkpt lat="45.00661" lon="5.81162">
        <ele>1420.1999511719</ele>
        <time>2023-10-01T08:16:46.000Z</time>
      </trkpt>
      <trkpt lat="45.0066" lon="5.81163">
        <ele>1420.5999755859</ele>
        <time>2023-10-01T08:16:47.000Z</time>
      </trkpt>
      <trkpt lat="45.0066" lon="5.81163">
        <ele>1420.8000488281</ele>
        <time>2023-10-01T08:16:48.000Z</time>
      </trkpt>
      <trkpt lat="45.0066" lon="5.81164">
        <ele>1421.1999511719</ele>
        <time>2023-10-01T08:16:49.000Z</time>
      </trkpt>
      <trkpt lat="45.00659" lon="5.81164">
        <ele>1421.4000244141</ele>
        <time>2023-10-01T08:16:50.000Z</time>
      </trkpt>
      <trkpt lat="45.00659" lon="5.81165">
        <ele>1421.5999755859</ele>
        <time>2023-10-01T08:16:51.000Z</time>
      </trkpt>
      <trkpt lat="45.00658" lon="5.81165">
        <ele>1421.8000488281</ele>
        <time>2023-10-01T08:16:52.000Z</time>
      </trkpt>
      <trkpt lat="45.00658" lon="5.81166">
        <ele>1422.1999511719</ele>
        <time>2023-10-01T08:16:53.000Z</time>
      </trkpt>
      <trkpt lat="45.00658" lon="5.81167">
        <ele>1422.5999755859</ele>
        <time>2023-10-01T08:16:54.000Z</time>
      </trkpt>
      <trkpt lat="45.00658" lon="5.81167">
        <ele>1422.5999755859</ele>
        <time>2023-10-01T08:16:55.000Z</time>
      </trkpt>
      <trkpt lat="45.00658" lon="5.81168">
        <ele>1423</ele>
        <time>2023-10-01T08:16:56.000Z</time>
      </trkpt>
      <trkpt lat="45.00658" lon="5.81169">
        <ele>1423.1999511719</ele>
        <time>2023-10-01T08:16:57.000Z</time>
      </trkpt>
      <trkpt lat="45.00659" lon="5.81169">
        <ele>1423.5999755859</ele>
        <time>2023-10-01T08:16:58.000Z</time>
      </trkpt>
      <trkpt lat="45.00659" lon="5.81169">
        <ele>1424</ele>
        <time>2023-10-01T08:16:59.000Z</time>
      </trkpt>
      <trkpt lat="45.00659" lon="5.81171">
        <ele>1424.1999511719</ele>
        <time>2023-10-01T08:17:00.000Z</time>
      </trkpt>
      <trkpt lat="45.00659" lon="5.81172">
        <ele>1424.5999755859</ele>
        <time>2023-10-01T08:17:01.000Z</time>
      </trkpt>
      <trkpt lat="45.00659" lon="5.81173">
        <ele>1425</ele>
        <time>2023-10-01T08:17:02.000Z</time>
      </trkpt>
      <trkpt lat="45.00659" lon="5.81174">
        <ele>1425.1999511719</ele>
        <time>2023-10-01T08:17:03.000Z</time>
      </trkpt>
      <trkpt lat="45.00659" lon="5.81175">
        <ele>1425.4000244141</ele>
        <time>2023-10-01T08:17:04.000Z</time>
      </trkpt>
      <trkpt lat="45.00659" lon="5.81176">
        <ele>1425.8000488281</ele>
        <time>2023-10-01T08:17:05.000Z</time>
      </trkpt>
      <trkpt lat="45.00659" lon="5.81176">
        <ele>1426.1999511719</ele>
        <time>2023-10-01T08:17:06.000Z</time>
      </trkpt>
      <trkpt lat="45.00658" lon="5.81177">
        <ele>1426.4000244141</ele>
        <time>2023-10-01T08:17:07.000Z</time>
      </trkpt>
      <trkpt lat="45.00658" lon="5.81178">
        <ele>1426.8000488281</ele>
        <time>2023-10-01T08:17:08.000Z</time>
      </trkpt>
      <trkpt lat="45.00658" lon="5.81178">
        <ele>1427</ele>
        <time>2023-10-01T08:17:09.000Z</time>
      </trkpt>
      <trkpt lat="45.00658" lon="5.81178">
        <ele>1427.4000244141</ele>
        <time>2023-10-01T08:17:10.000Z</time>
      </trkpt>
      <trkpt lat="45.00658" lon="5.81178">
        <ele>1427.5999755859</ele>
        <time>2023-10-01T08:17:11.000Z</time>
      </trkpt>
      <trkpt lat="45.00658" lon="5.81178">
        <ele>1428</ele>
        <time>2023-10-01T08:17:12.000Z</time>
      </trkpt>
      <trkpt lat="45.00658" lon="5.81179">
        <ele>1428.4000244141</ele>
        <time>2023-10-01T08:17:13.000Z</time>
      </trkpt>
      <trkpt lat="45.00658" lon="5.81179">
        <ele>1428.5999755859</ele>
        <time>2023-10-01T08:17:14.000Z</time>
      </trkpt>
      <trkpt lat="45.00657" lon="5.8118">
        <ele>1429</ele>
        <time>2023-10-01T08:17:15.000Z</time>
      </trkpt>
      <trkpt lat="45.00657" lon="5.8118">
        <ele>1429.4000244141</ele>
        <time>2023-10-01T08:17:16.000Z</time>
      </trkpt>
      <trkpt lat="45.00657" lon="5.81181">
        <ele>1429.5999755859</ele>
        <time>2023-10-01T08:17:17.000Z</time>
      </trkpt>
      <trkpt lat="45.00657" lon="5.81181">
        <ele>1430</ele>
        <time>2023-10-01T08:17:18.000Z</time>
      </trkpt>
      <trkpt lat="45.00656" lon="5.81182">
        <ele>1430.1999511719</ele>
        <time>2023-10-01T08:17:19.000Z</time>
      </trkpt>
      <trkpt lat="45.00656" lon="5.81183">
        <ele>1430.5999755859</ele>
        <time>2023-10-01T08:17:20.000Z</time>
      </trkpt>
      <trkpt lat="45.00656" lon="5.81184">
        <ele>1431</ele>
        <time>2023-10-01T08:17:21.000Z</time>
      </trkpt>
      <trkpt lat="45.00656" lon="5.81184">
        <ele>1431.1999511719</ele>
        <time>2023-10-01T08:17:22.000Z</time>
      </trkpt>
      <trkpt lat="45.00656" lon="5.81184">
        <ele>1431.5999755859</ele>
        <time>2023-10-01T08:17:23.000Z</time>
      </trkpt>
      <trkpt lat="45.00655" lon="5.81184">
        <ele>1432</ele>
        <time>2023-10-01T08:17:24.000Z</time>
      </trkpt>
      <trkpt lat="45.00655" lon="5.81184">
        <ele>1432.4000244141</ele>
        <time>2023-10-01T08:17:25.000Z</time>
      </trkpt>
      <trkpt lat="45.00655" lon="5.81185">
        <ele>1432.8000488281</ele>
        <time>2023-10-01T08:17:26.000Z</time>
      </trkpt>
      <trkpt lat="45.00655" lon="5.81185">
        <ele>1433</ele>
        <time>2023-10-01T08:17:27.000Z</time>
      </trkpt>
      <trkpt lat="45.00655" lon="5.81186">
        <ele>1433.1999511719</ele>
        <time>2023-10-01T08:17:28.000Z</time>
      </trkpt>
      <trkpt lat="45.00655" lon="5.81187">
        <ele>1433.5999755859</ele>
        <time>2023-10-01T08:17:29.000Z</time>
      </trkpt>
      <trkpt lat="45.00655" lon="5.81188">
        <ele>1434.1999511719</ele>
        <time>2023-10-01T08:17:30.000Z</time>
      </trkpt>
      <trkpt lat="45.00654" lon="5.81189">
        <ele>1434.4000244141</ele>
        <time>2023-10-01T08:17:31.000Z</time>
      </trkpt>
      <trkpt lat="45.00654" lon="5.81189">
        <ele>1434.8000488281</ele>
        <time>2023-10-01T08:17:32.000Z</time>
      </trkpt>
      <trkpt lat="45.00654" lon="5.8119">
        <ele>1435.1999511719</ele>
        <time>2023-10-01T08:17:33.000Z</time>
      </trkpt>
      <trkpt lat="45.00653" lon="5.81192">
        <ele>1435.4000244141</ele>
        <time>2023-10-01T08:17:34.000Z</time>
      </trkpt>
      <trkpt lat="45.00653" lon="5.81193">
        <ele>1435.5999755859</ele>
        <time>2023-10-01T08:17:35.000Z</time>
      </trkpt>
      <trkpt lat="45.00653" lon="5.81193">
        <ele>1436</ele>
        <time>2023-10-01T08:17:36.000Z</time>
      </trkpt>
      <trkpt lat="45.00652" lon="5.81193">
        <ele>1436.1999511719</ele>
        <time>2023-10-01T08:17:37.000Z</time>
      </trkpt>
      <trkpt lat="45.00652" lon="5.81194">
        <ele>1436.5999755859</ele>
        <time>2023-10-01T08:17:38.000Z</time>
      </trkpt>
      <trkpt lat="45.00651" lon="5.81194">
        <ele>1436.8000488281</ele>
        <time>2023-10-01T08:17:39.000Z</time>
      </trkpt>
      <trkpt lat="45.00651" lon="5.81195">
        <ele>1437</ele>
        <time>2023-10-01T08:17:40.000Z</time>
      </trkpt>
      <trkpt lat="45.0065" lon="5.81195">
        <ele>1437.4000244141</ele>
        <time>2023-10-01T08:17:41.000Z</time>
      </trkpt>
      <trkpt lat="45.0065" lon="5.81196">
        <ele>1437.5999755859</ele>
        <time>2023-10-01T08:17:42.000Z</time>
      </trkpt>
      <trkpt lat="45.0065" lon="5.81197">
        <ele>1437.8000488281</ele>
        <time>2023-10-01T08:17:43.000Z</time>
      </trkpt>
      <trkpt lat="45.0065" lon="5.81198">
        <ele>1438.1999511719</ele>
        <time>2023-10-01T08:17:44.000Z</time>
      </trkpt>
      <trkpt lat="45.00649" lon="5.81198">
        <ele>1438.4000244141</ele>
        <time>2023-10-01T08:17:45.000Z</time>
      </trkpt>
      <trkpt lat="45.00649" lon="5.81199">
        <ele>1438.8000488281</ele>
        <time>2023-10-01T08:17:46.000Z</time>
      </trkpt>
      <trkpt lat="45.00649" lon="5.81198">
        <ele>1439</ele>
        <time>2023-10-01T08:17:47.000Z</time>
      </trkpt>
      <trkpt lat="45.00649" lon="5.81199">
        <ele>1439.1999511719</ele>
        <time>2023-10-01T08:17:48.000Z</time>
      </trkpt>
      <trkpt lat="45.00649" lon="5.81199">
        <ele>1439.4000244141</ele>
        <time>2023-10-01T08:17:49.000Z</time>
      </trkpt>
      <trkpt lat="45.00649" lon="5.81199">
        <ele>1439.8000488281</ele>
        <time>2023-10-01T08:17:50.000Z</time>
      </trkpt>
      <trkpt lat="45.00649" lon="5.812">
        <ele>1440</ele>
        <time>2023-10-01T08:17:51.000Z</time>
      </trkpt>
      <trkpt lat="45.00649" lon="5.812">
        <ele>1440.5999755859</ele>
        <time>2023-10-01T08:17:52.000Z</time>
      </trkpt>
      <trkpt lat="45.00649" lon="5.812">
        <ele>1440.8000488281</ele>
        <time>2023-10-01T08:17:53.000Z</time>
      </trkpt>
      <trkpt lat="45.00649" lon="5.81201">
        <ele>1441</ele>
        <time>2023-10-01T08:17:54.000Z</time>
      </trkpt>
      <trkpt lat="45.00648" lon="5.81202">
        <ele>1441.1999511719</ele>
        <time>2023-10-01T08:17:55.000Z</time>
      </trkpt>
      <trkpt lat="45.00648" lon="5.81203">
        <ele>1441.4000244141</ele>
        <time>2023-10-01T08:17:56.000Z</time>
      </trkpt>
      <trkpt lat="45.00647" lon="5.81204">
        <ele>1441.8000488281</ele>
        <time>2023-10-01T08:17:57.000Z</time>
      </trkpt>
      <trkpt lat="45.00647" lon="5.81205">
        <ele>1442.1999511719</ele>
        <time>2023-10-01T08:17:58.000Z</time>
      </trkpt>
      <trkpt lat="45.00647" lon="5.81205">
        <ele>1442.4000244141</ele>
        <time>2023-10-01T08:17:59.000Z</time>
      </trkpt>
      <trkpt lat="45.00647" lon="5.81205">
        <ele>1442.8000488281</ele>
        <time>2023-10-01T08:18:00.000Z</time>
      </trkpt>
      <trkpt lat="45.00647" lon="5.81205">
        <ele>1443.1999511719</ele>
        <time>2023-10-01T08:18:01.000Z</time>
      </trkpt>
      <trkpt lat="45.00647" lon="5.81206">
        <ele>1443.4000244141</ele>
        <time>2023-10-01T08:18:02.000Z</time>
      </trkpt>
      <trkpt lat="45.00647" lon="5.81207">
        <ele>1443.5999755859</ele>
        <time>2023-10-01T08:18:03.000Z</time>
      </trkpt>
      <trkpt lat="45.00647" lon="5.81207">
        <ele>1444</ele>
        <time>2023-10-01T08:18:04.000Z</time>
      </trkpt>
      <trkpt lat="45.00647" lon="5.81208">
        <ele>1444.1999511719</ele>
        <time>2023-10-01T08:18:05.000Z</time>
      </trkpt>
      <trkpt lat="45.00647" lon="5.81209">
        <ele>1444.5999755859</ele>
        <time>2023-10-01T08:18:06.000Z</time>
      </trkpt>
      <trkpt lat="45.00646" lon="5.81209">
        <ele>1445</ele>
        <time>2023-10-01T08:18:07.000Z</time>
      </trkpt>
      <trkpt lat="45.00646" lon="5.8121">
        <ele>1445.4000244141</ele>
        <time>2023-10-01T08:18:08.000Z</time>
      </trkpt>
      <trkpt lat="45.00645" lon="5.8121">
        <ele>1445.8000488281</ele>
        <time>2023-10-01T08:18:09.000Z</time>
      </trkpt>
      <trkpt lat="45.00645" lon="5.8121">
        <ele>1445.8000488281</ele>
        <time>2023-10-01T08:18:10.000Z</time>
      </trkpt>
      <trkpt lat="45.00645" lon="5.81209">
        <ele>1446.1999511719</ele>
        <time>2023-10-01T08:18:11.000Z</time>
      </trkpt>
      <trkpt lat="45.00644" lon="5.81209">
        <ele>1446.4000244141</ele>
        <time>2023-10-01T08:18:12.000Z</time>
      </trkpt>
      <trkpt lat="45.00644" lon="5.8121">
        <ele>1446.5999755859</ele>
        <time>2023-10-01T08:18:13.000Z</time>
      </trkpt>
      <trkpt lat="45.00643" lon="5.81211">
        <ele>1447.1999511719</ele>
        <time>2023-10-01T08:18:14.000Z</time>
      </trkpt>
      <trkpt lat="45.00644" lon="5.81211">
        <ele>1447.4000244141</ele>
        <time>2023-10-01T08:18:15.000Z</time>
      </trkpt>
      <trkpt lat="45.00643" lon="5.81211">
        <ele>1447.8000488281</ele>
        <time>2023-10-01T08:18:16.000Z</time>
      </trkpt>
      <trkpt lat="45.00643" lon="5.81212">
        <ele>1448</ele>
        <time>2023-10-01T08:18:17.000Z</time>
      </trkpt>
      <trkpt lat="45.00642" lon="5.81212">
        <ele>1448.1999511719</ele>
        <time>2023-10-01T08:18:18.000Z</time>
      </trkpt>
      <trkpt lat="45.00642" lon="5.81213">
        <ele>1448.5999755859</ele>
        <time>2023-10-01T08:18:19.000Z</time>
      </trkpt>
      <trkpt lat="45.00642" lon="5.81213">
        <ele>1448.8000488281</ele>
        <time>2023-10-01T08:18:20.000Z</time>
      </trkpt>
      <trkpt lat="45.00642" lon="5.81213">
        <ele>1449</ele>
        <time>2023-10-01T08:18:21.000Z</time>
      </trkpt>
      <trkpt lat="45.00641" lon="5.81214">
        <ele>1449.1999511719</ele>
        <time>2023-10-01T08:18:22.000Z</time>
      </trkpt>
      <trkpt lat="45.00641" lon="5.81215">
        <ele>1449.5999755859</ele>
        <time>2023-10-01T08:18:23.000Z</time>
      </trkpt>
      <trkpt lat="45.00641" lon="5.81215">
        <ele>1450</ele>
        <time>2023-10-01T08:18:24.000Z</time>
      </trkpt>
      <trkpt lat="45.0064" lon="5.81216">
        <ele>1450.1999511719</ele>
        <time>2023-10-01T08:18:25.000Z</time>
      </trkpt>
      <trkpt lat="45.00641" lon="5.81216">
        <ele>1450.4000244141</ele>
        <time>2023-10-01T08:18:26.000Z</time>
      </trkpt>
      <trkpt lat="45.0064" lon="5.81216">
        <ele>1450.8000488281</ele>
        <time>2023-10-01T08:18:27.000Z</time>
      </trkpt>
      <trkpt lat="45.0064" lon="5.81217">
        <ele>1451</ele>
        <time>2023-10-01T08:18:28.000Z</time>
      </trkpt>
      <trkpt lat="45.0064" lon="5.81217">
        <ele>1451.4000244141</ele>
        <time>2023-10-01T08:18:29.000Z</time>
      </trkpt>
      <trkpt lat="45.0064" lon="5.81218">
        <ele>1451.8000488281</ele>
        <time>2023-10-01T08:18:30.000Z</time>
      </trkpt>
      <trkpt lat="45.0064" lon="5.81219">
        <ele>1452</ele>
        <time>2023-10-01T08:18:31.000Z</time>
      </trkpt>
      <trkpt lat="45.00641" lon="5.81219">
        <ele>1452.1999511719</ele>
        <time>2023-10-01T08:18:32.000Z</time>
      </trkpt>
      <trkpt lat="45.00641" lon="5.8122">
        <ele>1452.5999755859</ele>
        <time>2023-10-01T08:18:33.000Z</time>
      </trkpt>
      <trkpt lat="45.00641" lon="5.81221">
        <ele>1452.8000488281</ele>
        <time>2023-10-01T08:18:34.000Z</time>
      </trkpt>
      <trkpt lat="45.00641" lon="5.81222">
        <ele>1453.1999511719</ele>
        <time>2023-10-01T08:18:35.000Z</time>
      </trkpt>
      <trkpt lat="45.00641" lon="5.81222">
        <ele>1453.4000244141</ele>
        <time>2023-10-01T08:18:36.000Z</time>
      </trkpt>
      <trkpt lat="45.00641" lon="5.81223">
        <ele>1453.8000488281</ele>
        <time>2023-10-01T08:18:37.000Z</time>
      </trkpt>
      <trkpt lat="45.00641" lon="5.81225">
        <ele>1454.1999511719</ele>
        <time>2023-10-01T08:18:38.000Z</time>
      </trkpt>
      <trkpt lat="45.00641" lon="5.81225">
        <ele>1454.4000244141</ele>
        <time>2023-10-01T08:18:39.000Z</time>
      </trkpt>
      <trkpt lat="45.00641" lon="5.81225">
        <ele>1454.8000488281</ele>
        <time>2023-10-01T08:18:40.000Z</time>
      </trkpt>
      <trkpt lat="45.00641" lon="5.81226">
        <ele>1455.1999511719</ele>
        <time>2023-10-01T08:18:41.000Z</time>
      </trkpt>
      <trkpt lat="45.00641" lon="5.81227">
        <ele>1455.4000244141</ele>
        <time>2023-10-01T08:18:42.000Z</time>
      </trkpt>
      <trkpt lat="45.00641" lon="5.81227">
        <ele>1455.5999755859</ele>
        <time>2023-10-01T08:18:43.000Z</time>
      </trkpt>
      <trkpt lat="45.00641" lon="5.81228">
        <ele>1456</ele>
        <time>2023-10-01T08:18:44.000Z</time>
      </trkpt>
      <trkpt lat="45.00641" lon="5.81229">
        <ele>1456.1999511719</ele>
        <time>2023-10-01T08:18:45.000Z</time>
      </trkpt>
      <trkpt lat="45.00641" lon="5.8123">
        <ele>1456.5999755859</ele>
        <time>2023-10-01T08:18:46.000Z</time>
      </trkpt>
      <trkpt lat="45.00642" lon="5.8123">
        <ele>1456.8000488281</ele>
        <time>2023-10-01T08:18:47.000Z</time>
      </trkpt>
      <trkpt lat="45.00641" lon="5.81232">
        <ele>1457</ele>
        <time>2023-10-01T08:18:48.000Z</time>
      </trkpt>
      <trkpt lat="45.00641" lon="5.81233">
        <ele>1457.4000244141</ele>
        <time>2023-10-01T08:18:49.000Z</time>
      </trkpt>
      <trkpt lat="45.00641" lon="5.81233">
        <ele>1457.5999755859</ele>
        <time>2023-10-01T08:18:50.000Z</time>
      </trkpt>
      <trkpt lat="45.00641" lon="5.81234">
        <ele>1458</ele>
        <time>2023-10-01T08:18:51.000Z</time>
      </trkpt>
      <trkpt lat="45.00641" lon="5.81235">
        <ele>1458.1999511719</ele>
        <time>2023-10-01T08:18:52.000Z</time>
      </trkpt>
      <trkpt lat="45.00641" lon="5.81236">
        <ele>1458.4000244141</ele>
        <time>2023-10-01T08:18:53.000Z</time>
      </trkpt>
      <trkpt lat="45.00642" lon="5.81236">
        <ele>1458.8000488281</ele>
        <time>2023-10-01T08:18:54.000Z</time>
      </trkpt>
      <trkpt lat="45.00641" lon="5.81237">
        <ele>1459</ele>
        <time>2023-10-01T08:18:55.000Z</time>
      </trkpt>
      <trkpt lat="45.00641" lon="5.81237">
        <ele>1459.4000244141</ele>
        <time>2023-10-01T08:18:56.000Z</time>
      </trkpt>
      <trkpt lat="45.00641" lon="5.81237">
        <ele>1459.5999755859</ele>
        <time>2023-10-01T08:18:57.000Z</time>
      </trkpt>
      <trkpt lat="45.00641" lon="5.81238">
        <ele>1460.1999511719</ele>
        <time>2023-10-01T08:18:58.000Z</time>
      </trkpt>
      <trkpt lat="45.00641" lon="5.81239">
        <ele>1460.4000244141</ele>
        <time>2023-10-01T08:18:59.000Z</time>
      </trkpt>
      <trkpt lat="45.00641" lon="5.81239">
        <ele>1460.5999755859</ele>
        <time>2023-10-01T08:19:00.000Z</time>
      </trkpt>
      <trkpt lat="45.00641" lon="5.81239">
        <ele>1461.1999511719</ele>
        <time>2023-10-01T08:19:01.000Z</time>
      </trkpt>
      <trkpt lat="45.00641" lon="5.8124">
        <ele>1461.4000244141</ele>
        <time>2023-10-01T08:19:02.000Z</time>
      </trkpt>
      <trkpt lat="45.00641" lon="5.8124">
        <ele>1461.5999755859</ele>
        <time>2023-10-01T08:19:03.000Z</time>
      </trkpt>
      <trkpt lat="45.0064" lon="5.81241">
        <ele>1462</ele>
        <time>2023-10-01T08:19:04.000Z</time>
      </trkpt>
      <trkpt lat="45.0064" lon="5.81241">
        <ele>1462.4000244141</ele>
        <time>2023-10-01T08:19:05.000Z</time>
      </trkpt>
      <trkpt lat="45.0064" lon="5.81241">
        <ele>1462.8000488281</ele>
        <time>2023-10-01T08:19:06.000Z</time>
      </trkpt>
      <trkpt lat="45.0064" lon="5.81242">
        <ele>1463.1999511719</ele>
        <time>2023-10-01T08:19:07.000Z</time>
      </trkpt>
      <trkpt lat="45.0064" lon="5.81242">
        <ele>1463.4000244141</ele>
        <time>2023-10-01T08:19:08.000Z</time>
      </trkpt>
      <trkpt lat="45.00639" lon="5.81243">
        <ele>1463.5999755859</ele>
        <time>2023-10-01T08:19:09.000Z</time>
      </trkpt>
      <trkpt lat="45.0064" lon="5.81243">
        <ele>1463.8000488281</ele>
        <time>2023-10-01T08:19:10.000Z</time>
      </trkpt>
      <trkpt lat="45.0064" lon="5.81245">
        <ele>1464</ele>
        <time>2023-10-01T08:19:11.000Z</time>
      </trkpt>
      <trkpt lat="45.0064" lon="5.81245">
        <ele>1464.4000244141</ele>
        <time>2023-10-01T08:19:12.000Z</time>
      </trkpt>
      <trkpt lat="45.0064" lon="5.81246">
        <ele>1464.5999755859</ele>
        <time>2023-10-01T08:19:13.000Z</time>
      </trkpt>
      <trkpt lat="45.00639" lon="5.81246">
        <ele>1464.5999755859</ele>
        <time>2023-10-01T08:19:14.000Z</time>
      </trkpt>
      <trkpt lat="45.00639" lon="5.81247">
        <ele>1465</ele>
        <time>2023-10-01T08:19:15.000Z</time>
      </trkpt>
      <trkpt lat="45.00639" lon="5.81248">
        <ele>1465.4000244141</ele>
        <time>2023-10-01T08:19:16.000Z</time>
      </trkpt>
      <trkpt lat="45.00639" lon="5.81248">
        <ele>1465.4000244141</ele>
        <time>2023-10-01T08:19:17.000Z</time>
      </trkpt>
      <trkpt lat="45.00639" lon="5.81249">
        <ele>1465.8000488281</ele>
        <time>2023-10-01T08:19:18.000Z</time>
      </trkpt>
      <trkpt lat="45.00639" lon="5.8125">
        <ele>1466</ele>
        <time>2023-10-01T08:19:19.000Z</time>
      </trkpt>
      <trkpt lat="45.00639" lon="5.8125">
        <ele>1466.1999511719</ele>
        <time>2023-10-01T08:19:20.000Z</time>
      </trkpt>
      <trkpt lat="45.00639" lon="5.8125">
        <ele>1466.4000244141</ele>
        <time>2023-10-01T08:19:21.000Z</time>
      </trkpt>
      <trkpt lat="45.00639" lon="5.81251">
        <ele>1466.8000488281</ele>
        <time>2023-10-01T08:19:22.000Z</time>
      </trkpt>
      <trkpt lat="45.00639" lon="5.81252">
        <ele>1467</ele>
        <time>2023-10-01T08:19:23.000Z</time>
      </trkpt>
      <trkpt lat="45.00639" lon="5.81252">
        <ele>1467.1999511719</ele>
        <time>2023-10-01T08:19:24.000Z</time>
      </trkpt>
      <trkpt lat="45.00638" lon="5.81251">
        <ele>1467.4000244141</ele>
        <time>2023-10-01T08:19:25.000Z</time>
      </trkpt>
      <trkpt lat="45.00638" lon="5.81252">
        <ele>1467.8000488281</ele>
        <time>2023-10-01T08:19:26.000Z</time>
      </trkpt>
      <trkpt lat="45.00638" lon="5.81252">
        <ele>1468</ele>
        <time>2023-10-01T08:19:27.000Z</time>
      </trkpt>
      <trkpt lat="45.00638" lon="5.81253">
        <ele>1468.4000244141</ele>
        <time>2023-10-01T08:19:28.000Z</time>
      </trkpt>
      <trkpt lat="45.00638" lon="5.81254">
        <ele>1468.8000488281</ele>
        <time>2023-10-01T08:19:29.000Z</time>
      </trkpt>
      <trkpt lat="45.00638" lon="5.81254">
        <ele>1469</ele>
        <time>2023-10-01T08:19:30.000Z</time>
      </trkpt>
      <trkpt lat="45.00638" lon="5.81254">
        <ele>1469.1999511719</ele>
        <time>2023-10-01T08:19:31.000Z</time>
      </trkpt>
      <trkpt lat="45.00637" lon="5.81255">
        <ele>1469.5999755859</ele>
        <time>2023-10-01T08:19:32.000Z</time>
      </trkpt>
      <trkpt lat="45.00637" lon="5.81256">
        <ele>1469.8000488281</ele>
        <time>2023-10-01T08:19:33.000Z</time>
      </trkpt>
      <trkpt lat="45.00637" lon="5.81256">
        <ele>1470</ele>
        <time>2023-10-01T08:19:34.000Z</time>
      </trkpt>
      <trkpt lat="45.00637" lon="5.81257">
        <ele>1470.5999755859</ele>
        <time>2023-10-01T08:19:35.000Z</time>
      </trkpt>
      <trkpt lat="45.00637" lon="5.81258">
        <ele>1470.8000488281</ele>
        <time>2023-10-01T08:19:36.000Z</time>
      </trkpt>
      <trkpt lat="45.00637" lon="5.81258">
        <ele>1471</ele>
        <time>2023-10-01T08:19:37.000Z</time>
      </trkpt>
      <trkpt lat="45.00637" lon="5.81258">
        <ele>1471.4000244141</ele>
        <time>2023-10-01T08:19:38.000Z</time>
      </trkpt>
      <trkpt lat="45.00637" lon="5.81258">
        <ele>1471.8000488281</ele>
        <time>2023-10-01T08:19:39.000Z</time>
      </trkpt>
      <trkpt lat="45.00638" lon="5.81259">
        <ele>1472</ele>
        <time>2023-10-01T08:19:40.000Z</time>
      </trkpt>
      <trkpt lat="45.00638" lon="5.81259">
        <ele>1472.4000244141</ele>
        <time>2023-10-01T08:19:41.000Z</time>
      </trkpt>
      <trkpt lat="45.00638" lon="5.8126">
        <ele>1472.5999755859</ele>
        <time>2023-10-01T08:19:42.000Z</time>
      </trkpt>
      <trkpt lat="45.00638" lon="5.81259">
        <ele>1473</ele>
        <time>2023-10-01T08:19:43.000Z</time>
      </trkpt>
      <trkpt lat="45.00638" lon="5.8126">
        <ele>1473.1999511719</ele>
        <time>2023-10-01T08:19:44.000Z</time>
      </trkpt>
      <trkpt lat="45.00638" lon="5.8126">
        <ele>1473.5999755859</ele>
        <time>2023-10-01T08:19:45.000Z</time>
      </trkpt>
      <trkpt lat="45.00638" lon="5.81261">
        <ele>1474</ele>
        <time>2023-10-01T08:19:46.000Z</time>
      </trkpt>
      <trkpt lat="45.00639" lon="5.81262">
        <ele>1474.4000244141</ele>
        <time>2023-10-01T08:19:47.000Z</time>
      </trkpt>
      <trkpt lat="45.00639" lon="5.81263">
        <ele>1474.5999755859</ele>
        <time>2023-10-01T08:19:48.000Z</time>
      </trkpt>
      <trkpt lat="45.00639" lon="5.81263">
        <ele>1475</ele>
        <time>2023-10-01T08:19:49.000Z</time>
      </trkpt>
      <trkpt lat="45.00639" lon="5.81263">
        <ele>1475.4000244141</ele>
        <time>2023-10-01T08:19:50.000Z</time>
      </trkpt>
      <trkpt lat="45.00638" lon="5.81264">
        <ele>1475.5999755859</ele>
        <time>2023-10-01T08:19:51.000Z</time>
      </trkpt>
      <trkpt lat="45.00638" lon="5.81264">
        <ele>1476</ele>
        <time>2023-10-01T08:19:52.000Z</time>
      </trkpt>
      <trkpt lat="45.00638" lon="5.81265">
        <ele>1476.4000244141</ele>
        <time>2023-10-01T08:19:53.000Z</time>
      </trkpt>
      <trkpt lat="45.00638" lon="5.81266">
        <ele>1476.8000488281</ele>
        <time>2023-10-01T08:19:54.000Z</time>
      </trkpt>
      <trkpt lat="45.00637" lon="5.81267">
        <ele>1477</ele>
        <time>2023-10-01T08:19:55.000Z</time>
      </trkpt>
      <trkpt lat="45.00637" lon="5.81267">
        <ele>1477.4000244141</ele>
        <time>2023-10-01T08:19:56.000Z</time>
      </trkpt>
      <trkpt lat="45.00637" lon="5.81269">
        <ele>1477.5999755859</ele>
        <time>2023-10-01T08:19:57.000Z</time>
      </trkpt>
      <trkpt lat="45.00636" lon="5.81269">
        <ele>1478</ele>
        <time>2023-10-01T08:19:58.000Z</time>
      </trkpt>
      <trkpt lat="45.00636" lon="5.8127">
        <ele>1478.1999511719</ele>
        <time>2023-10-01T08:19:59.000Z</time>
      </trkpt>
      <trkpt lat="45.00636" lon="5.8127">
        <ele>1478.5999755859</ele>
        <time>2023-10-01T08:20:00.000Z</time>
      </trkpt>
      <trkpt lat="45.00636" lon="5.81271">
        <ele>1479</ele>
        <time>2023-10-01T08:20:01.000Z</time>
      </trkpt>
      <trkpt lat="45.00636" lon="5.81272">
        <ele>1479.5999755859</ele>
        <time>2023-10-01T08:20:02.000Z</time>
      </trkpt>
      <trkpt lat="45.00636" lon="5.81273">
        <ele>1479.8000488281</ele>
        <time>2023-10-01T08:20:03.000Z</time>
      </trkpt>
      <trkpt lat="45.00636" lon="5.81274">
        <ele>1480</ele>
        <time>2023-10-01T08:20:04.000Z</time>
      </trkpt>
      <trkpt lat="45.00636" lon="5.81274">
        <ele>1480.4000244141</ele>
        <time>2023-10-01T08:20:05.000Z</time>
      </trkpt>
      <trkpt lat="45.00636" lon="5.81275">
        <ele>1480.8000488281</ele>
        <time>2023-10-01T08:20:06.000Z</time>
      </trkpt>
      <trkpt lat="45.00637" lon="5.81276">
        <ele>1481</ele>
        <time>2023-10-01T08:20:07.000Z</time>
      </trkpt>
      <trkpt lat="45.00637" lon="5.81275">
        <ele>1481.1999511719</ele>
        <time>2023-10-01T08:20:08.000Z</time>
      </trkpt>
      <trkpt lat="45.00637" lon="5.81276">
        <ele>1481.4000244141</ele>
        <time>2023-10-01T08:20:09.000Z</time>
      </trkpt>
      <trkpt lat="45.00637" lon="5.81276">
        <ele>1481.5999755859</ele>
        <time>2023-10-01T08:20:10.000Z</time>
      </trkpt>
      <trkpt lat="45.00637" lon="5.81277">
        <ele>1482</ele>
        <time>2023-10-01T08:20:11.000Z</time>
      </trkpt>
      <trkpt lat="45.00637" lon="5.81278">
        <ele>1482.4000244141</ele>
        <time>2023-10-01T08:20:12.000Z</time>
      </trkpt>
      <trkpt lat="45.00637" lon="5.81278">
        <ele>1482.5999755859</ele>
        <time>2023-10-01T08:20:13.000Z</time>
      </trkpt>
      <trkpt lat="45.00638" lon="5.81279">
        <ele>1483</ele>
        <time>2023-10-01T08:20:14.000Z</time>
      </trkpt>
      <trkpt lat="45.00637" lon="5.8128">
        <ele>1483.1999511719</ele>
        <time>2023-10-01T08:20:15.000Z</time>
      </trkpt>
      <trkpt lat="45.00637" lon="5.81281">
        <ele>1483.5999755859</ele>
        <time>2023-10-01T08:20:16.000Z</time>
      </trkpt>
      <trkpt lat="45.00637" lon="5.81282">
        <ele>1483.8000488281</ele>
        <time>2023-10-01T08:20:17.000Z</time>
      </trkpt>
      <trkpt lat="45.00637" lon="5.81283">
        <ele>1484.1999511719</ele>
        <time>2023-10-01T08:20:18.000Z</time>
      </trkpt>
      <trkpt lat="45.00637" lon="5.81284">
        <ele>1484.4000244141</ele>
        <time>2023-10-01T08:20:19.000Z</time>
      </trkpt>
      <trkpt lat="45.00637" lon="5.81284">
        <ele>1484.8000488281</ele>
        <time>2023-10-01T08:20:20.000Z</time>
      </trkpt>
      <trkpt lat="45.00637" lon="5.81284">
        <ele>1485</ele>
        <time>2023-10-01T08:20:21.000Z</time>
      </trkpt>
      <trkpt lat="45.00637" lon="5.81285">
        <ele>1485.1999511719</ele>
        <time>2023-10-01T08:20:22.000Z</time>
      </trkpt>
      <trkpt lat="45.00638" lon="5.81286">
        <ele>1485.4000244141</ele>
        <time>2023-10-01T08:20:23.000Z</time>
      </trkpt>
      <trkpt lat="45.00638" lon="5.81287">
        <ele>1485.8000488281</ele>
        <time>2023-10-01T08:20:24.000Z</time>
      </trkpt>
      <trkpt lat="45.00638" lon="5.81287">
        <ele>1486.1999511719</ele>
        <time>2023-10-01T08:20:25.000Z</time>
      </trkpt>
      <trkpt lat="45.00638" lon="5.81287">
        <ele>1486.4000244141</ele>
        <time>2023-10-01T08:20:26.000Z</time>
      </trkpt>
      <trkpt lat="45.00638" lon="5.81288">
        <ele>1486.8000488281</ele>
        <time>2023-10-01T08:20:27.000Z</time>
      </trkpt>
      <trkpt lat="45.00637" lon="5.81288">
        <ele>1487</ele>
        <time>2023-10-01T08:20:28.000Z</time>
      </trkpt>
      <trkpt lat="45.00637" lon="5.81288">
        <ele>1487.1999511719</ele>
        <time>2023-10-01T08:20:29.000Z</time>
      </trkpt>
      <trkpt lat="45.00637" lon="5.8129">
        <ele>1487.5999755859</ele>
        <time>2023-10-01T08:20:30.000Z</time>
      </trkpt>
      <trkpt lat="45.00637" lon="5.81289">
        <ele>1487.8000488281</ele>
        <time>2023-10-01T08:20:31.000Z</time>
      </trkpt>
      <trkpt lat="45.00637" lon="5.81289">
        <ele>1488</ele>
        <time>2023-10-01T08:20:32.000Z</time>
      </trkpt>
      <trkpt lat="45.00636" lon="5.81289">
        <ele>1488.4000244141</ele>
        <time>2023-10-01T08:20:33.000Z</time>
      </trkpt>
      <trkpt lat="45.00636" lon="5.8129">
        <ele>1488.8000488281</ele>
        <time>2023-10-01T08:20:34.000Z</time>
      </trkpt>
      <trkpt lat="45.00636" lon="5.8129">
        <ele>1489</ele>
        <time>2023-10-01T08:20:35.000Z</time>
      </trkpt>
      <trkpt lat="45.00636" lon="5.8129">
        <ele>1489.4000244141</ele>
        <time>2023-10-01T08:20:36.000Z</time>
      </trkpt>
      <trkpt lat="45.00636" lon="5.81291">
        <ele>1489.5999755859</ele>
        <time>2023-10-01T08:20:37.000Z</time>
      </trkpt>
      <trkpt lat="45.00636" lon="5.81291">
        <ele>1490</ele>
        <time>2023-10-01T08:20:38.000Z</time>
      </trkpt>
      <trkpt lat="45.00636" lon="5.81292">
        <ele>1490.1999511719</ele>
        <time>2023-10-01T08:20:39.000Z</time>
      </trkpt>
      <trkpt lat="45.00636" lon="5.81293">
        <ele>1490.5999755859</ele>
        <time>2023-10-01T08:20:40.000Z</time>
      </trkpt>
      <trkpt lat="45.00636" lon="5.81294">
        <ele>1491</ele>
        <time>2023-10-01T08:20:41.000Z</time>
      </trkpt>
      <trkpt lat="45.00636" lon="5.81295">
        <ele>1491.1999511719</ele>
        <time>2023-10-01T08:20:42.000Z</time>
      </trkpt>
      <trkpt lat="45.00636" lon="5.81295">
        <ele>1491.4000244141</ele>
        <time>2023-10-01T08:20:43.000Z</time>
      </trkpt>
      <trkpt lat="45.00636" lon="5.81296">
        <ele>1491.8000488281</ele>
        <time>2023-10-01T08:20:44.000Z</time>
      </trkpt>
      <trkpt lat="45.00637" lon="5.81297">
        <ele>1492</ele>
        <time>2023-10-01T08:20:45.000Z</time>
      </trkpt>
      <trkpt lat="45.00636" lon="5.81298">
        <ele>1492.4000244141</ele>
        <time>2023-10-01T08:20:46.000Z</time>
      </trkpt>
      <trkpt lat="45.00636" lon="5.81299">
        <ele>1492.5999755859</ele>
        <time>2023-10-01T08:20:47.000Z</time>
      </trkpt>
      <trkpt lat="45.00636" lon="5.813">
        <ele>1493</ele>
        <time>2023-10-01T08:20:48.000Z</time>
      </trkpt>
      <trkpt lat="45.00636" lon="5.81301">
        <ele>1493.4000244141</ele>
        <time>2023-10-01T08:20:49.000Z</time>
      </trkpt>
      <trkpt lat="45.00636" lon="5.81302">
        <ele>1493.5999755859</ele>
        <time>2023-10-01T08:20:50.000Z</time>
      </trkpt>
      <trkpt lat="45.00636" lon="5.81302">
        <ele>1493.8000488281</ele>
        <time>2023-10-01T08:20:51.000Z</time>
      </trkpt>
      <trkpt lat="45.00636" lon="5.81302">
        <ele>1494.4000244141</ele>
        <time>2023-10-01T08:20:52.000Z</time>
      </trkpt>
      <trkpt lat="45.00636" lon="5.81302">
        <ele>1494.5999755859</ele>
        <time>2023-10-01T08:20:53.000Z</time>
      </trkpt>
      <trkpt lat="45.00636" lon="5.81302">
        <ele>1495</ele>
        <time>2023-10-01T08:20:54.000Z</time>
      </trkpt>
      <trkpt lat="45.00636" lon="5.81303">
        <ele>1495.1999511719</ele>
        <time>2023-10-01T08:20:55.000Z</time>
      </trkpt>
      <trkpt lat="45.00636" lon="5.81305">
        <ele>1495.5999755859</ele>
        <time>2023-10-01T08:20:56.000Z</time>
      </trkpt>
      <trkpt lat="45.00636" lon="5.81306">
        <ele>1495.8000488281</ele>
        <time>2023-10-01T08:20:57.000Z</time>
      </trkpt>
      <trkpt lat="45.00636" lon="5.81306">
        <ele>1496.1999511719</ele>
        <time>2023-10-01T08:20:58.000Z</time>
      </trkpt>
      <trkpt lat="45.00636" lon="5.81306">
        <ele>1496.4000244141</ele>
        <time>2023-10-01T08:20:59.000Z</time>
      </trkpt>
      <trkpt lat="45.00635" lon="5.81307">
        <ele>1496.8000488281</ele>
        <time>2023-10-01T08:21:00.000Z</time>
      </trkpt>
      <trkpt lat="45.00635" lon="5.81308">
        <ele>1497</ele>
        <time>2023-10-01T08:21:01.000Z</time>
      </trkpt>
      <trkpt lat="45.00635" lon="5.81307">
        <ele>1497.4000244141</ele>
        <time>2023-10-01T08:21:02.000Z</time>
      </trkpt>
      <trkpt lat="45.00635" lon="5.81308">
        <ele>1497.8000488281</ele>
        <time>2023-10-01T08:21:03.000Z</time>
      </trkpt>
      <trkpt lat="45.00635" lon="5.81308">
        <ele>1498</ele>
        <time>2023-10-01T08:21:04.000Z</time>
      </trkpt>
      <trkpt lat="45.00635" lon="5.81308">
        <ele>1498.1999511719</ele>
        <time>2023-10-01T08:21:05.000Z</time>
      </trkpt>
      <trkpt lat="45.00636" lon="5.81308">
        <ele>1498.4000244141</ele>
        <time>2023-10-01T08:21:06.000Z</time>
      </trkpt>
      <trkpt lat="45.00636" lon="5.81308">
        <ele>1498.8000488281</ele>
        <time>2023-10-01T08:21:07.000Z</time>
      </trkpt>
      <trkpt lat="45.00636" lon="5.81308">
        <ele>1499.1999511719</ele>
        <time>2023-10-01T08:21:08.000Z</time>
      </trkpt>
      <trkpt lat="45.00636" lon="5.81309">
        <ele>1499.4000244141</ele>
        <time>2023-10-01T08:21:09.000Z</time>
      </trkpt>
      <trkpt lat="45.00635" lon="5.81309">
        <ele>1499.8000488281</ele>
        <time>2023-10-01T08:21:10.000Z</time>
      </trkpt>
      <trkpt lat="45.00635" lon="5.8131">
        <ele>1500</ele>
        <time>2023-10-01T08:21:11.000Z</time>
      </trkpt>
      <trkpt lat="45.00635" lon="5.81311">
        <ele>1500.1999511719</ele>
        <time>2023-10-01T08:21:12.000Z</time>
      </trkpt>
      <trkpt lat="45.00635" lon="5.81312">
        <ele>1500.5999755859</ele>
        <time>2023-10-01T08:21:13.000Z</time>
      </trkpt>
      <trkpt lat="45.00635" lon="5.81313">
        <ele>1500.8000488281</ele>
        <time>2023-10-01T08:21:14.000Z</time>
      </trkpt>
      <trkpt lat="45.00635" lon="5.81314">
        <ele>1501.4000244141</ele>
        <time>2023-10-01T08:21:15.000Z</time>
      </trkpt>
      <trkpt lat="45.00635" lon="5.81314">
        <ele>1501.5999755859</ele>
        <time>2023-10-01T08:21:16.000Z</time>
      </trkpt>
      <trkpt lat="45.00635" lon="5.81314">
        <ele>1501.8000488281</ele>
        <time>2023-10-01T08:21:17.000Z</time>
      </trkpt>
      <trkpt lat="45.00635" lon="5.81315">
        <ele>1502.1999511719</ele>
        <time>2023-10-01T08:21:18.000Z</time>
      </trkpt>
      <trkpt lat="45.00635" lon="5.81314">
        <ele>1502.4000244141</ele>
        <time>2023-10-01T08:21:19.000Z</time>
      </trkpt>
      <trkpt lat="45.00635" lon="5.81315">
        <ele>1502.5999755859</ele>
        <time>2023-10-01T08:21:20.000Z</time>
      </trkpt>
      <trkpt lat="45.00635" lon="5.81316">
        <ele>1503</ele>
        <time>2023-10-01T08:21:21.000Z</time>
      </trkpt>
      <trkpt lat="45.00635" lon="5.81317">
        <ele>1503.1999511719</ele>
        <time>2023-10-01T08:21:22.000Z</time>
      </trkpt>
      <trkpt lat="45.00636" lon="5.81317">
        <ele>1503.5999755859</ele>
        <time>2023-10-01T08:21:23.000Z</time>
      </trkpt>
      <trkpt lat="45.00636" lon="5.81317">
        <ele>1504</ele>
        <time>2023-10-01T08:21:24.000Z</time>
      </trkpt>
      <trkpt lat="45.00636" lon="5.81318">
        <ele>1504.1999511719</ele>
        <time>2023-10-01T08:21:25.000Z</time>
      </trkpt>
      <trkpt lat="45.00637" lon="5.81319">
        <ele>1504.5999755859</ele>
        <time>2023-10-01T08:21:26.000Z</time>
      </trkpt>
      <trkpt lat="45.00637" lon="5.81319">
        <ele>1504.5999755859</ele>
        <time>2023-10-01T08:21:27.000Z</time>
      </trkpt>
      <trkpt lat="45.00637" lon="5.8132">
        <ele>1505</ele>
        <time>2023-10-01T08:21:28.000Z</time>
      </trkpt>
      <trkpt lat="45.00637" lon="5.8132">
        <ele>1505.1999511719</ele>
        <time>2023-10-01T08:21:29.000Z</time>
      </trkpt>
      <trkpt lat="45.00637" lon="5.81321">
        <ele>1505.4000244141</ele>
        <time>2023-10-01T08:21:30.000Z</time>
      </trkpt>
      <trkpt lat="45.00637" lon="5.81323">
        <ele>1505.8000488281</ele>
        <time>2023-10-01T08:21:31.000Z</time>
      </trkpt>
      <trkpt lat="45.00637" lon="5.81323">
        <ele>1506</ele>
        <time>2023-10-01T08:21:32.000Z</time>
      </trkpt>
      <trkpt lat="45.00637" lon="5.81324">
        <ele>1506.1999511719</ele>
        <time>2023-10-01T08:21:33.000Z</time>
      </trkpt>
      <trkpt lat="45.00637" lon="5.81324">
        <ele>1506.4000244141</ele>
        <time>2023-10-01T08:21:34.000Z</time>
      </trkpt>
      <trkpt lat="45.00637" lon="5.81325">
        <ele>1506.8000488281</ele>
        <time>2023-10-01T08:21:35.000Z</time>
      </trkpt>
      <trkpt lat="45.00637" lon="5.81325">
        <ele>1507</ele>
        <time>2023-10-01T08:21:36.000Z</time>
      </trkpt>
      <trkpt lat="45.00637" lon="5.81326">
        <ele>1507.1999511719</ele>
        <time>2023-10-01T08:21:37.000Z</time>
      </trkpt>
      <trkpt lat="45.00637" lon="5.81326">
        <ele>1507.5999755859</ele>
        <time>2023-10-01T08:21:38.000Z</time>
      </trkpt>
      <trkpt lat="45.00637" lon="5.81326">
        <ele>1507.8000488281</ele>
        <time>2023-10-01T08:21:39.000Z</time>
      </trkpt>
      <trkpt lat="45.00637" lon="5.81325">
        <ele>1508.1999511719</ele>
        <time>2023-10-01T08:21:40.000Z</time>
      </trkpt>
      <trkpt lat="45.00637" lon="5.81326">
        <ele>1508.5999755859</ele>
        <time>2023-10-01T08:21:41.000Z</time>
      </trkpt>
      <trkpt lat="45.00637" lon="5.81327">
        <ele>1508.8000488281</ele>
        <time>2023-10-01T08:21:42.000Z</time>
      </trkpt>
      <trkpt lat="45.00637" lon="5.81328">
        <ele>1509</ele>
        <time>2023-10-01T08:21:43.000Z</time>
      </trkpt>
      <trkpt lat="45.00636" lon="5.8133">
        <ele>1509.4000244141</ele>
        <time>2023-10-01T08:21:44.000Z</time>
      </trkpt>
      <trkpt lat="45.00636" lon="5.81331">
        <ele>1509.5999755859</ele>
        <time>2023-10-01T08:21:45.000Z</time>
      </trkpt>
      <trkpt lat="45.00636" lon="5.8133">
        <ele>1509.8000488281</ele>
        <time>2023-10-01T08:21:46.000Z</time>
      </trkpt>
      <trkpt lat="45.00636" lon="5.81331">
        <ele>1510.1999511719</ele>
        <time>2023-10-01T08:21:47.000Z</time>
      </trkpt>
      <trkpt lat="45.00636" lon="5.81331">
        <ele>1510.4000244141</ele>
        <time>2023-10-01T08:21:48.000Z</time>
      </trkpt>
      <trkpt lat="45.00637" lon="5.81331">
        <ele>1510.5999755859</ele>
        <time>2023-10-01T08:21:49.000Z</time>
      </trkpt>
      <trkpt lat="45.00637" lon="5.81332">
        <ele>1511</ele>
        <time>2023-10-01T08:21:50.000Z</time>
      </trkpt>
      <trkpt lat="45.00637" lon="5.81333">
        <ele>1511.1999511719</ele>
        <time>2023-10-01T08:21:51.000Z</time>
      </trkpt>
      <trkpt lat="45.00637" lon="5.81333">
        <ele>1511.4000244141</ele>
        <time>2023-10-01T08:21:52.000Z</time>
      </trkpt>
      <trkpt lat="45.00638" lon="5.81334">
        <ele>1511.8000488281</ele>
        <time>2023-10-01T08:21:53.000Z</time>
      </trkpt>
      <trkpt lat="45.00637" lon="5.81334">
        <ele>1512</ele>
        <time>2023-10-01T08:21:54.000Z</time>
      </trkpt>
      <trkpt lat="45.00637" lon="5.81335">
        <ele>1512.1999511719</ele>
        <time>2023-10-01T08:21:55.000Z</time>
      </trkpt>
      <trkpt lat="45.00637" lon="5.81336">
        <ele>1512.5999755859</ele>
        <time>2023-10-01T08:21:56.000Z</time>
      </trkpt>
      <trkpt lat="45.00637" lon="5.81337">
        <ele>1512.8000488281</ele>
        <time>2023-10-01T08:21:57.000Z</time>
      </trkpt>
      <trkpt lat="45.00637" lon="5.81337">
        <ele>1513.1999511719</ele>
        <time>2023-10-01T08:21:58.000Z</time>
      </trkpt>
      <trkpt lat="45.00637" lon="5.81337">
        <ele>1513.4000244141</ele>
        <time>2023-10-01T08:21:59.000Z</time>
      </trkpt>
      <trkpt lat="45.00637" lon="5.81338">
        <ele>1513.5999755859</ele>
        <time>2023-10-01T08:22:00.000Z</time>
      </trkpt>
      <trkpt lat="45.00637" lon="5.81338">
        <ele>1513.8000488281</ele>
        <time>2023-10-01T08:22:01.000Z</time>
      </trkpt>
      <trkpt lat="45.00637" lon="5.81339">
        <ele>1514.1999511719</ele>
        <time>2023-10-01T08:22:02.000Z</time>
      </trkpt>
      <trkpt lat="45.00637" lon="5.81339">
        <ele>1514.4000244141</ele>
        <time>2023-10-01T08:22:03.000Z</time>
      </trkpt>
      <trkpt lat="45.00637" lon="5.8134">
        <ele>1514.8000488281</ele>
        <time>2023-10-01T08:22:04.000Z</time>
      </trkpt>
      <trkpt lat="45.00637" lon="5.81341">
        <ele>1515.1999511719</ele>
        <time>2023-10-01T08:22:05.000Z</time>
      </trkpt>
      <trkpt lat="45.00636" lon="5.81341">
        <ele>1515.1999511719</ele>
        <time>2023-10-01T08:22:06.000Z</time>
      </trkpt>
      <trkpt lat="45.00636" lon="5.81342">
        <ele>1515.5999755859</ele>
        <time>2023-10-01T08:22:07.000Z</time>
      </trkpt>
      <trkpt lat="45.00636" lon="5.81343">
        <ele>1515.8000488281</ele>
        <time>2023-10-01T08:22:08.000Z</time>
      </trkpt>
      <trkpt lat="45.00636" lon="5.81343">
        <ele>1516</ele>
        <time>2023-10-01T08:22:09.000Z</time>
      </trkpt>
      <trkpt lat="45.00636" lon="5.81343">
        <ele>1516.1999511719</ele>
        <time>2023-10-01T08:22:10.000Z</time>
      </trkpt>
      <trkpt lat="45.00636" lon="5.81343">
        <ele>1516.5999755859</ele>
        <time>2023-10-01T08:22:11.000Z</time>
      </trkpt>
      <trkpt lat="45.00636" lon="5.81343">
        <ele>1516.8000488281</ele>
        <time>2023-10-01T08:22:12.000Z</time>
      </trkpt>
      <trkpt lat="45.00636" lon="5.81343">
        <ele>1517</ele>
        <time>2023-10-01T08:22:13.000Z</time>
      </trkpt>
      <trkpt lat="45.00636" lon="5.81344">
        <ele>1517.4000244141</ele>
        <time>2023-10-01T08:22:14.000Z</time>
      </trkpt>
      <trkpt lat="45.00636" lon="5.81344">
        <ele>1517.5999755859</ele>
        <time>2023-10-01T08:22:15.000Z</time>
      </trkpt>
      <trkpt lat="45.00636" lon="5.81345">
        <ele>1518</ele>
        <time>2023-10-01T08:22:16.000Z</time>
      </trkpt>
      <trkpt lat="45.00636" lon="5.81345">
        <ele>1518.1999511719</ele>
        <time>2023-10-01T08:22:17.000Z</time>
      </trkpt>
      <trkpt lat="45.00636" lon="5.81345">
        <ele>1518.1999511719</ele>
        <time>2023-10-01T08:22:18.000Z</time>
      </trkpt>
      <trkpt lat="45.00636" lon="5.81345">
        <ele>1518.4000244141</ele>
        <time>2023-10-01T08:22:19.000Z</time>
      </trkpt>
      <trkpt lat="45.00636" lon="5.81345">
        <ele>1518.5999755859</ele>
        <time>2023-10-01T08:22:20.000Z</time>
      </trkpt>
      <trkpt lat="45.00636" lon="5.81346">
        <ele>1518.8000488281</ele>
        <time>2023-10-01T08:22:21.000Z</time>
      </trkpt>
      <trkpt lat="45.00636" lon="5.81347">
        <ele>1519.1999511719</ele>
        <time>2023-10-01T08:22:22.000Z</time>
      </trkpt>
      <trkpt lat="45.00637" lon="5.81347">
        <ele>1519.4000244141</ele>
        <time>2023-10-01T08:22:23.000Z</time>
      </trkpt>
      <trkpt lat="45.00637" lon="5.81347">
        <ele>1519.5999755859</ele>
        <time>2023-10-01T08:22:24.000Z</time>
      </trkpt>
      <trkpt lat="45.00637" lon="5.81348">
        <ele>1520</ele>
        <time>2023-10-01T08:22:25.000Z</time>
      </trkpt>
      <trkpt lat="45.00637" lon="5.81348">
        <ele>1520.4000244141</ele>
        <time>2023-10-01T08:22:26.000Z</time>
      </trkpt>
      <trkpt lat="45.00637" lon="5.81348">
        <ele>1520.8000488281</ele>
        <time>2023-10-01T08:22:27.000Z</time>
      </trkpt>
      <trkpt lat="45.00637" lon="5.81348">
        <ele>1521</ele>
        <time>2023-10-01T08:22:28.000Z</time>
      </trkpt>
      <trkpt lat="45.00637" lon="5.81349">
        <ele>1521.1999511719</ele>
        <time>2023-10-01T08:22:29.000Z</time>
      </trkpt>
      <trkpt lat="45.00637" lon="5.81348">
        <ele>1521.5999755859</ele>
        <time>2023-10-01T08:22:30.000Z</time>
      </trkpt>
      <trkpt lat="45.00637" lon="5.81349">
        <ele>1521.8000488281</ele>
        <time>2023-10-01T08:22:31.000Z</time>
      </trkpt>
      <trkpt lat="45.00637" lon="5.8135">
        <ele>1522</ele>
        <time>2023-10-01T08:22:32.000Z</time>
      </trkpt>
      <trkpt lat="45.00637" lon="5.81351">
        <ele>1522.1999511719</ele>
        <time>2023-10-01T08:22:33.000Z</time>
      </trkpt>
      <trkpt lat="45.00638" lon="5.81352">
        <ele>1522.5999755859</ele>
        <time>2023-10-01T08:22:34.000Z</time>
      </trkpt>
      <trkpt lat="45.00638" lon="5.81354">
        <ele>1522.8000488281</ele>
        <time>2023-10-01T08:22:35.000Z</time>
      </trkpt>
      <trkpt lat="45.00638" lon="5.81355">
        <ele>1523</ele>
        <time>2023-10-01T08:22:36.000Z</time>
      </trkpt>
      <trkpt lat="45.00639" lon="5.81356">
        <ele>1523.1999511719</ele>
        <time>2023-10-01T08:22:37.000Z</time>
      </trkpt>
      <trkpt lat="45.00638" lon="5.81356">
        <ele>1523.5999755859</ele>
        <time>2023-10-01T08:22:38.000Z</time>
      </trkpt>
      <trkpt lat="45.00638" lon="5.81356">
        <ele>1524</ele>
        <time>2023-10-01T08:22:39.000Z</time>
      </trkpt>
      <trkpt lat="45.00639" lon="5.81357">
        <ele>1524.1999511719</ele>
        <time>2023-10-01T08:22:40.000Z</time>
      </trkpt>
      <trkpt lat="45.00638" lon="5.81357">
        <ele>1524.4000244141</ele>
        <time>2023-10-01T08:22:41.000Z</time>
      </trkpt>
      <trkpt lat="45.00638" lon="5.81358">
        <ele>1524.8000488281</ele>
        <time>2023-10-01T08:22:42.000Z</time>
      </trkpt>
      <trkpt lat="45.00638" lon="5.81359">
        <ele>1525</ele>
        <time>2023-10-01T08:22:43.000Z</time>
      </trkpt>
      <trkpt lat="45.00639" lon="5.8136">
        <ele>1525.1999511719</ele>
        <time>2023-10-01T08:22:44.000Z</time>
      </trkpt>
      <trkpt lat="45.00639" lon="5.8136">
        <ele>1525.5999755859</ele>
        <time>2023-10-01T08:22:45.000Z</time>
      </trkpt>
      <trkpt lat="45.00639" lon="5.81361">
        <ele>1525.8000488281</ele>
        <time>2023-10-01T08:22:46.000Z</time>
      </trkpt>
      <trkpt lat="45.00639" lon="5.81361">
        <ele>1526</ele>
        <time>2023-10-01T08:22:47.000Z</time>
      </trkpt>
      <trkpt lat="45.00639" lon="5.81362">
        <ele>1526.1999511719</ele>
        <time>2023-10-01T08:22:48.000Z</time>
      </trkpt>
      <trkpt lat="45.00639" lon="5.81362">
        <ele>1526.5999755859</ele>
        <time>2023-10-01T08:22:49.000Z</time>
      </trkpt>
      <trkpt lat="45.00639" lon="5.81362">
        <ele>1526.5999755859</ele>
        <time>2023-10-01T08:22:50.000Z</time>
      </trkpt>
      <trkpt lat="45.00639" lon="5.81362">
        <ele>1527</ele>
        <time>2023-10-01T08:22:51.000Z</time>
      </trkpt>
      <trkpt lat="45.00639" lon="5.81363">
        <ele>1527.1999511719</ele>
        <time>2023-10-01T08:22:52.000Z</time>
      </trkpt>
      <trkpt lat="45.0064" lon="5.81364">
        <ele>1527.4000244141</ele>
        <time>2023-10-01T08:22:53.000Z</time>
      </trkpt>
      <trkpt lat="45.0064" lon="5.81364">
        <ele>1527.8000488281</ele>
        <time>2023-10-01T08:22:54.000Z</time>
      </trkpt>
      <trkpt lat="45.00639" lon="5.81364">
        <ele>1528</ele>
        <time>2023-10-01T08:22:55.000Z</time>
      </trkpt>
      <trkpt lat="45.00639" lon="5.81365">
        <ele>1528.4000244141</ele>
        <time>2023-10-01T08:22:56.000Z</time>
      </trkpt>
      <trkpt lat="45.00639" lon="5.81366">
        <ele>1528.4000244141</ele>
        <time>2023-10-01T08:22:57.000Z</time>
      </trkpt>
      <trkpt lat="45.00639" lon="5.81367">
        <ele>1528.8000488281</ele>
        <time>2023-10-01T08:22:58.000Z</time>
      </trkpt>
      <trkpt lat="45.00639" lon="5.81368">
        <ele>1529</ele>
        <time>2023-10-01T08:22:59.000Z</time>
      </trkpt>
      <trkpt lat="45.00639" lon="5.81369">
        <ele>1529.1999511719</ele>
        <time>2023-10-01T08:23:00.000Z</time>
      </trkpt>
      <trkpt lat="45.00639" lon="5.81369">
        <ele>1529.5999755859</ele>
        <time>2023-10-01T08:23:01.000Z</time>
      </trkpt>
      <trkpt lat="45.00639" lon="5.81369">
        <ele>1529.5999755859</ele>
        <time>2023-10-01T08:23:02.000Z</time>
      </trkpt>
      <trkpt lat="45.00638" lon="5.81369">
        <ele>1530</ele>
        <time>2023-10-01T08:23:03.000Z</time>
      </trkpt>
      <trkpt lat="45.00637" lon="5.81371">
        <ele>1530.1999511719</ele>
        <time>2023-10-01T08:23:04.000Z</time>
      </trkpt>
      <trkpt lat="45.00638" lon="5.81371">
        <ele>1530.4000244141</ele>
        <time>2023-10-01T08:23:05.000Z</time>
      </trkpt>
      <trkpt lat="45.00637" lon="5.81372">
        <ele>1530.5999755859</ele>
        <time>2023-10-01T08:23:06.000Z</time>
      </trkpt>
      <trkpt lat="45.00637" lon="5.81372">
        <ele>1531</ele>
        <time>2023-10-01T08:23:07.000Z</time>
      </trkpt>
      <trkpt lat="45.00637" lon="5.81372">
        <ele>1531.1999511719</ele>
        <time>2023-10-01T08:23:08.000Z</time>
      </trkpt>
      <trkpt lat="45.00637" lon="5.81372">
        <ele>1531.4000244141</ele>
        <time>2023-10-01T08:23:09.000Z</time>
      </trkpt>
      <trkpt lat="45.00637" lon="5.81373">
        <ele>1531.8000488281</ele>
        <time>2023-10-01T08:23:10.000Z</time>
      </trkpt>
      <trkpt lat="45.00637" lon="5.81374">
        <ele>1532</ele>
        <time>2023-10-01T08:23:11.000Z</time>
      </trkpt>
      <trkpt lat="45.00637" lon="5.81374">
        <ele>1532.4000244141</ele>
        <time>2023-10-01T08:23:12.000Z</time>
      </trkpt>
      <trkpt lat="45.00637" lon="5.81374">
        <ele>1532.4000244141</ele>
        <time>2023-10-01T08:23:13.000Z</time>
      </trkpt>
      <trkpt lat="45.00638" lon="5.81374">
        <ele>1532.5999755859</ele>
        <time>2023-10-01T08:23:14.000Z</time>
      </trkpt>
      <trkpt lat="45.00638" lon="5.81375">
        <ele>1532.8000488281</ele>
        <time>2023-10-01T08:23:15.000Z</time>
      </trkpt>
      <trkpt lat="45.00639" lon="5.81376">
        <ele>1533</ele>
        <time>2023-10-01T08:23:16.000Z</time>
      </trkpt>
      <trkpt lat="45.00639" lon="5.81376">
        <ele>1533.1999511719</ele>
        <time>2023-10-01T08:23:17.000Z</time>
      </trkpt>
      <trkpt lat="45.00639" lon="5.81376">
        <ele>1533.4000244141</ele>
        <time>2023-10-01T08:23:18.000Z</time>
      </trkpt>
      <trkpt lat="45.00639" lon="5.81377">
        <ele>1533.5999755859</ele>
        <time>2023-10-01T08:23:19.000Z</time>
      </trkpt>
      <trkpt lat="45.00639" lon="5.81377">
        <ele>1533.8000488281</ele>
        <time>2023-10-01T08:23:20.000Z</time>
      </trkpt>
      <trkpt lat="45.00639" lon="5.81378">
        <ele>1534.1999511719</ele>
        <time>2023-10-01T08:23:21.000Z</time>
      </trkpt>
      <trkpt lat="45.00639" lon="5.81377">
        <ele>1534.5999755859</ele>
        <time>2023-10-01T08:23:22.000Z</time>
      </trkpt>
      <trkpt lat="45.0064" lon="5.81377">
        <ele>1534.8000488281</ele>
        <time>2023-10-01T08:23:23.000Z</time>
      </trkpt>
      <trkpt lat="45.00641" lon="5.81378">
        <ele>1535</ele>
        <time>2023-10-01T08:23:24.000Z</time>
      </trkpt>
      <trkpt lat="45.00641" lon="5.81378">
        <ele>1535.1999511719</ele>
        <time>2023-10-01T08:23:25.000Z</time>
      </trkpt>
      <trkpt lat="45.00641" lon="5.81379">
        <ele>1535.5999755859</ele>
        <time>2023-10-01T08:23:26.000Z</time>
      </trkpt>
      <trkpt lat="45.00641" lon="5.81379">
        <ele>1535.8000488281</ele>
        <time>2023-10-01T08:23:27.000Z</time>
      </trkpt>
      <trkpt lat="45.00641" lon="5.8138">
        <ele>1536</ele>
        <time>2023-10-01T08:23:28.000Z</time>
      </trkpt>
      <trkpt lat="45.00641" lon="5.81381">
        <ele>1536.1999511719</ele>
        <time>2023-10-01T08:23:29.000Z</time>
      </trkpt>
      <trkpt lat="45.00641" lon="5.81382">
        <ele>1536.4000244141</ele>
        <time>2023-10-01T08:23:30.000Z</time>
      </trkpt>
      <trkpt lat="45.00641" lon="5.81383">
        <ele>1536.8000488281</ele>
        <time>2023-10-01T08:23:31.000Z</time>
      </trkpt>
      <trkpt lat="45.00642" lon="5.81384">
        <ele>1537.1999511719</ele>
        <time>2023-10-01T08:23:32.000Z</time>
      </trkpt>
      <trkpt lat="45.00642" lon="5.81384">
        <ele>1537.4000244141</ele>
        <time>2023-10-01T08:23:33.000Z</time>
      </trkpt>
      <trkpt lat="45.00642" lon="5.81385">
        <ele>1537.5999755859</ele>
        <time>2023-10-01T08:23:34.000Z</time>
      </trkpt>
      <trkpt lat="45.00642" lon="5.81385">
        <ele>1537.8000488281</ele>
        <time>2023-10-01T08:23:35.000Z</time>
      </trkpt>
      <trkpt lat="45.00642" lon="5.81386">
        <ele>1538.1999511719</ele>
        <time>2023-10-01T08:23:36.000Z</time>
      </trkpt>
      <trkpt lat="45.00642" lon="5.81387">
        <ele>1538.5999755859</ele>
        <time>2023-10-01T08:23:37.000Z</time>
      </trkpt>
      <trkpt lat="45.00642" lon="5.81388">
        <ele>1538.8000488281</ele>
        <time>2023-10-01T08:23:38.000Z</time>
      </trkpt>
      <trkpt lat="45.00642" lon="5.81388">
        <ele>1539.1999511719</ele>
        <time>2023-10-01T08:23:39.000Z</time>
      </trkpt>
      <trkpt lat="45.00642" lon="5.81389">
        <ele>1539.4000244141</ele>
        <time>2023-10-01T08:23:40.000Z</time>
      </trkpt>
      <trkpt lat="45.00642" lon="5.8139">
        <ele>1539.4000244141</ele>
        <time>2023-10-01T08:23:41.000Z</time>
      </trkpt>
      <trkpt lat="45.00643" lon="5.81391">
        <ele>1539.5999755859</ele>
        <time>2023-10-01T08:23:42.000Z</time>
      </trkpt>
      <trkpt lat="45.00643" lon="5.81391">
        <ele>1540</ele>
        <time>2023-10-01T08:23:43.000Z</time>
      </trkpt>
      <trkpt lat="45.00643" lon="5.81392">
        <ele>1540.1999511719</ele>
        <time>2023-10-01T08:23:44.000Z</time>
      </trkpt>
      <trkpt lat="45.00643" lon="5.81393">
        <ele>1540.5999755859</ele>
        <time>2023-10-01T08:23:45.000Z</time>
      </trkpt>
      <trkpt lat="45.00643" lon="5.81394">
        <ele>1540.8000488281</ele>
        <time>2023-10-01T08:23:46.000Z</time>
      </trkpt>
      <trkpt lat="45.00643" lon="5.81395">
        <ele>1541</ele>
        <time>2023-10-01T08:23:47.000Z</time>
      </trkpt>
      <trkpt lat="45.00642" lon="5.81395">
        <ele>1541.4000244141</ele>
        <time>2023-10-01T08:23:48.000Z</time>
      </trkpt>
      <trkpt lat="45.00642" lon="5.81395">
        <ele>1541.5999755859</ele>
        <time>2023-10-01T08:23:49.000Z</time>
      </trkpt>
      <trkpt lat="45.00642" lon="5.81396">
        <ele>1542</ele>
        <time>2023-10-01T08:23:50.000Z</time>
      </trkpt>
      <trkpt lat="45.00643" lon="5.81397">
        <ele>1542.1999511719</ele>
        <time>2023-10-01T08:23:51.000Z</time>
      </trkpt>
      <trkpt lat="45.00643" lon="5.81398">
        <ele>1542.4000244141</ele>
        <time>2023-10-01T08:23:52.000Z</time>
      </trkpt>
      <trkpt lat="45.00643" lon="5.81398">
        <ele>1542.8000488281</ele>
        <time>2023-10-01T08:23:53.000Z</time>
      </trkpt>
      <trkpt lat="45.00643" lon="5.81399">
        <ele>1543</ele>
        <time>2023-10-01T08:23:54.000Z</time>
      </trkpt>
      <trkpt lat="45.00643" lon="5.814">
        <ele>1543.4000244141</ele>
        <time>2023-10-01T08:23:55.000Z</time>
      </trkpt>
      <trkpt lat="45.00643" lon="5.814">
        <ele>1543.5999755859</ele>
        <time>2023-10-01T08:23:56.000Z</time>
      </trkpt>
      <trkpt lat="45.00643" lon="5.81401">
        <ele>1543.8000488281</ele>
        <time>2023-10-01T08:23:57.000Z</time>
      </trkpt>
      <trkpt lat="45.00643" lon="5.81402">
        <ele>1544.1999511719</ele>
        <time>2023-10-01T08:23:58.000Z</time>
      </trkpt>
      <trkpt lat="45.00643" lon="5.81403">
        <ele>1544.4000244141</ele>
        <time>2023-10-01T08:23:59.000Z</time>
      </trkpt>
      <trkpt lat="45.00644" lon="5.81403">
        <ele>1544.8000488281</ele>
        <time>2023-10-01T08:24:00.000Z</time>
      </trkpt>
      <trkpt lat="45.00643" lon="5.81404">
        <ele>1545</ele>
        <time>2023-10-01T08:24:01.000Z</time>
      </trkpt>
      <trkpt lat="45.00643" lon="5.81405">
        <ele>1545.1999511719</ele>
        <time>2023-10-01T08:24:02.000Z</time>
      </trkpt>
      <trkpt lat="45.00643" lon="5.81406">
        <ele>1545.4000244141</ele>
        <time>2023-10-01T08:24:03.000Z</time>
      </trkpt>
      <trkpt lat="45.00643" lon="5.81407">
        <ele>1545.8000488281</ele>
        <time>2023-10-01T08:24:04.000Z</time>
      </trkpt>
      <trkpt lat="45.00644" lon="5.81408">
        <ele>1546</ele>
        <time>2023-10-01T08:24:05.000Z</time>
      </trkpt>
      <trkpt lat="45.00644" lon="5.81408">
        <ele>1546.1999511719</ele>
        <time>2023-10-01T08:24:06.000Z</time>
      </trkpt>
      <trkpt lat="45.00644" lon="5.81409">
        <ele>1546.5999755859</ele>
        <time>2023-10-01T08:24:07.000Z</time>
      </trkpt>
      <trkpt lat="45.00644" lon="5.81409">
        <ele>1546.8000488281</ele>
        <time>2023-10-01T08:24:08.000Z</time>
      </trkpt>
      <trkpt lat="45.00644" lon="5.8141">
        <ele>1547.1999511719</ele>
        <time>2023-10-01T08:24:09.000Z</time>
      </trkpt>
      <trkpt lat="45.00644" lon="5.8141">
        <ele>1547.4000244141</ele>
        <time>2023-10-01T08:24:10.000Z</time>
      </trkpt>
      <trkpt lat="45.00645" lon="5.81409">
        <ele>1547.5999755859</ele>
        <time>2023-10-01T08:24:11.000Z</time>
      </trkpt>
      <trkpt lat="45.00645" lon="5.81409">
        <ele>1547.8000488281</ele>
        <time>2023-10-01T08:24:12.000Z</time>
      </trkpt>
      <trkpt lat="45.00645" lon="5.81409">
        <ele>1548.1999511719</ele>
        <time>2023-10-01T08:24:13.000Z</time>
      </trkpt>
      <trkpt lat="45.00644" lon="5.81409">
        <ele>1548.5999755859</ele>
        <time>2023-10-01T08:24:14.000Z</time>
      </trkpt>
      <trkpt lat="45.00645" lon="5.8141">
        <ele>1548.8000488281</ele>
        <time>2023-10-01T08:24:15.000Z</time>
      </trkpt>
      <trkpt lat="45.00645" lon="5.8141">
        <ele>1549.1999511719</ele>
        <time>2023-10-01T08:24:16.000Z</time>
      </trkpt>
      <trkpt lat="45.00645" lon="5.81411">
        <ele>1549.5999755859</ele>
        <time>2023-10-01T08:24:17.000Z</time>
      </trkpt>
      <trkpt lat="45.00645" lon="5.81411">
        <ele>1549.8000488281</ele>
        <time>2023-10-01T08:24:18.000Z</time>
      </trkpt>
      <trkpt lat="45.00645" lon="5.81412">
        <ele>1550.1999511719</ele>
        <time>2023-10-01T08:24:19.000Z</time>
      </trkpt>
      <trkpt lat="45.00645" lon="5.81412">
        <ele>1550.4000244141</ele>
        <time>2023-10-01T08:24:20.000Z</time>
      </trkpt>
      <trkpt lat="45.00645" lon="5.81412">
        <ele>1550.8000488281</ele>
        <time>2023-10-01T08:24:21.000Z</time>
      </trkpt>
      <trkpt lat="45.00646" lon="5.81413">
        <ele>1550.8000488281</ele>
        <time>2023-10-01T08:24:22.000Z</time>
      </trkpt>
      <trkpt lat="45.00647" lon="5.81413">
        <ele>1551</ele>
        <time>2023-10-01T08:24:23.000Z</time>
      </trkpt>
      <trkpt lat="45.00647" lon="5.81414">
        <ele>1551.1999511719</ele>
        <time>2023-10-01T08:24:24.000Z</time>
      </trkpt>
      <trkpt lat="45.00647" lon="5.81415">
        <ele>1551.5999755859</ele>
        <time>2023-10-01T08:24:25.000Z</time>
      </trkpt>
      <trkpt lat="45.00647" lon="5.81416">
        <ele>1551.8000488281</ele>
        <time>2023-10-01T08:24:26.000Z</time>
      </trkpt>
      <trkpt lat="45.00646" lon="5.81416">
        <ele>1552</ele>
        <time>2023-10-01T08:24:27.000Z</time>
      </trkpt>
      <trkpt lat="45.00646" lon="5.81417">
        <ele>1552.4000244141</ele>
        <time>2023-10-01T08:24:28.000Z</time>
      </trkpt>
      <trkpt lat="45.00646" lon="5.81418">
        <ele>1552.5999755859</ele>
        <time>2023-10-01T08:24:29.000Z</time>
      </trkpt>
      <trkpt lat="45.00646" lon="5.81418">
        <ele>1553</ele>
        <time>2023-10-01T08:24:30.000Z</time>
      </trkpt>
      <trkpt lat="45.00646" lon="5.81418">
        <ele>1553</ele>
        <time>2023-10-01T08:24:31.000Z</time>
      </trkpt>
      <trkpt lat="45.00646" lon="5.81419">
        <ele>1553.4000244141</ele>
        <time>2023-10-01T08:24:32.000Z</time>
      </trkpt>
      <trkpt lat="45.00646" lon="5.81419">
        <ele>1553.5999755859</ele>
        <time>2023-10-01T08:24:33.000Z</time>
      </trkpt>
      <trkpt lat="45.00646" lon="5.8142">
        <ele>1554</ele>
        <time>2023-10-01T08:24:34.000Z</time>
      </trkpt>
      <trkpt lat="45.00646" lon="5.81421">
        <ele>1554</ele>
        <time>2023-10-01T08:24:35.000Z</time>
      </trkpt>
      <trkpt lat="45.00646" lon="5.81421">
        <ele>1554.4000244141</ele>
        <time>2023-10-01T08:24:36.000Z</time>
      </trkpt>
      <trkpt lat="45.00646" lon="5.81421">
        <ele>1554.5999755859</ele>
        <time>2023-10-01T08:24:37.000Z</time>
      </trkpt>
      <trkpt lat="45.00645" lon="5.81422">
        <ele>1554.5999755859</ele>
        <time>2023-10-01T08:24:38.000Z</time>
      </trkpt>
      <trkpt lat="45.00646" lon="5.81423">
        <ele>1555</ele>
        <time>2023-10-01T08:24:39.000Z</time>
      </trkpt>
      <trkpt lat="45.00646" lon="5.81423">
        <ele>1555.1999511719</ele>
        <time>2023-10-01T08:24:40.000Z</time>
      </trkpt>
      <trkpt lat="45.00646" lon="5.81424">
        <ele>1555.4000244141</ele>
        <time>2023-10-01T08:24:41.000Z</time>
      </trkpt>
      <trkpt lat="45.00646" lon="5.81425">
        <ele>1555.8000488281</ele>
        <time>2023-10-01T08:24:42.000Z</time>
      </trkpt>
      <trkpt lat="45.00646" lon="5.81425">
        <ele>1556</ele>
        <time>2023-10-01T08:24:43.000Z</time>
      </trkpt>
      <trkpt lat="45.00646" lon="5.81426">
        <ele>1556.4000244141</ele>
        <time>2023-10-01T08:24:44.000Z</time>
      </trkpt>
      <trkpt lat="45.00646" lon="5.81427">
        <ele>1556.5999755859</ele>
        <time>2023-10-01T08:24:45.000Z</time>
      </trkpt>
      <trkpt lat="45.00646" lon="5.81427">
        <ele>1556.8000488281</ele>
        <time>2023-10-01T08:24:46.000Z</time>
      </trkpt>
      <trkpt lat="45.00645" lon="5.81428">
        <ele>1556.8000488281</ele>
        <time>2023-10-01T08:24:47.000Z</time>
      </trkpt>
      <trkpt lat="45.00645" lon="5.81428">
        <ele>1557</ele>
        <time>2023-10-01T08:24:48.000Z</time>
      </trkpt>
      <trkpt lat="45.00646" lon="5.81428">
        <ele>1557.1999511719</ele>
        <time>2023-10-01T08:24:49.000Z</time>
      </trkpt>
      <trkpt lat="45.00646" lon="5.81429">
        <ele>1557.5999755859</ele>
        <time>2023-10-01T08:24:50.000Z</time>
      </trkpt>
      <trkpt lat="45.00645" lon="5.8143">
        <ele>1557.8000488281</ele>
        <time>2023-10-01T08:24:51.000Z</time>
      </trkpt>
      <trkpt lat="45.00645" lon="5.8143">
        <ele>1558</ele>
        <time>2023-10-01T08:24:52.000Z</time>
      </trkpt>
      <trkpt lat="45.00645" lon="5.81431">
        <ele>1558.4000244141</ele>
        <time>2023-10-01T08:24:53.000Z</time>
      </trkpt>
      <trkpt lat="45.00645" lon="5.81432">
        <ele>1558.4000244141</ele>
        <time>2023-10-01T08:24:54.000Z</time>
      </trkpt>
      <trkpt lat="45.00644" lon="5.81433">
        <ele>1558.8000488281</ele>
        <time>2023-10-01T08:24:55.000Z</time>
      </trkpt>
      <trkpt lat="45.00643" lon="5.81433">
        <ele>1559</ele>
        <time>2023-10-01T08:24:56.000Z</time>
      </trkpt>
      <trkpt lat="45.00644" lon="5.81433">
        <ele>1559.1999511719</ele>
        <time>2023-10-01T08:24:57.000Z</time>
      </trkpt>
      <trkpt lat="45.00643" lon="5.81433">
        <ele>1559.5999755859</ele>
        <time>2023-10-01T08:24:58.000Z</time>
      </trkpt>
      <trkpt lat="45.00643" lon="5.81434">
        <ele>1560</ele>
        <time>2023-10-01T08:24:59.000Z</time>
      </trkpt>
      <trkpt lat="45.00644" lon="5.81434">
        <ele>1560.1999511719</ele>
        <time>2023-10-01T08:25:00.000Z</time>
      </trkpt>
      <trkpt lat="45.00644" lon="5.81435">
        <ele>1560.1999511719</ele>
        <time>2023-10-01T08:25:01.000Z</time>
      </trkpt>
      <trkpt lat="45.00646" lon="5.81436">
        <ele>1560.4000244141</ele>
        <time>2023-10-01T08:25:02.000Z</time>
      </trkpt>
      <trkpt lat="45.00646" lon="5.81436">
        <ele>1560.5999755859</ele>
        <time>2023-10-01T08:25:03.000Z</time>
      </trkpt>
      <trkpt lat="45.00647" lon="5.81437">
        <ele>1560.8000488281</ele>
        <time>2023-10-01T08:25:04.000Z</time>
      </trkpt>
      <trkpt lat="45.00648" lon="5.81438">
        <ele>1561</ele>
        <time>2023-10-01T08:25:05.000Z</time>
      </trkpt>
      <trkpt lat="45.00648" lon="5.81439">
        <ele>1561.1999511719</ele>
        <time>2023-10-01T08:25:06.000Z</time>
      </trkpt>
      <trkpt lat="45.00647" lon="5.81441">
        <ele>1561.5999755859</ele>
        <time>2023-10-01T08:25:07.000Z</time>
      </trkpt>
      <trkpt lat="45.00646" lon="5.81442">
        <ele>1561.8000488281</ele>
        <time>2023-10-01T08:25:08.000Z</time>
      </trkpt>
      <trkpt lat="45.00646" lon="5.81442">
        <ele>1561.8000488281</ele>
        <time>2023-10-01T08:25:09.000Z</time>
      </trkpt>
      <trkpt lat="45.00646" lon="5.81443">
        <ele>1562.1999511719</ele>
        <time>2023-10-01T08:25:10.000Z</time>
      </trkpt>
      <trkpt lat="45.00645" lon="5.81443">
        <ele>1562.4000244141</ele>
        <time>2023-10-01T08:25:11.000Z</time>
      </trkpt>
      <trkpt lat="45.00645" lon="5.81443">
        <ele>1562.5999755859</ele>
        <time>2023-10-01T08:25:12.000Z</time>
      </trkpt>
      <trkpt lat="45.00644" lon="5.81443">
        <ele>1562.8000488281</ele>
        <time>2023-10-01T08:25:13.000Z</time>
      </trkpt>
      <trkpt lat="45.00644" lon="5.81443">
        <ele>1563</ele>
        <time>2023-10-01T08:25:14.000Z</time>
      </trkpt>
      <trkpt lat="45.00644" lon="5.81443">
        <ele>1563.4000244141</ele>
        <time>2023-10-01T08:25:15.000Z</time>
      </trkpt>
      <trkpt lat="45.00643" lon="5.81443">
        <ele>1563.5999755859</ele>
        <time>2023-10-01T08:25:16.000Z</time>
      </trkpt>
      <trkpt lat="45.00642" lon="5.81444">
        <ele>1563.8000488281</ele>
        <time>2023-10-01T08:25:17.000Z</time>
      </trkpt>
      <trkpt lat="45.00642" lon="5.81444">
        <ele>1564.1999511719</ele>
        <time>2023-10-01T08:25:18.000Z</time>
      </trkpt>
      <trkpt lat="45.00642" lon="5.81444">
        <ele>1564.1999511719</ele>
        <time>2023-10-01T08:25:19.000Z</time>
      </trkpt>
      <trkpt lat="45.00641" lon="5.81445">
        <ele>1564.5999755859</ele>
        <time>2023-10-01T08:25:20.000Z</time>
      </trkpt>
      <trkpt lat="45.00641" lon="5.81445">
        <ele>1564.8000488281</ele>
        <time>2023-10-01T08:25:21.000Z</time>
      </trkpt>
      <trkpt lat="45.00641" lon="5.81445">
        <ele>1565.1999511719</ele>
        <time>2023-10-01T08:25:22.000Z</time>
      </trkpt>
      <trkpt lat="45.0064" lon="5.81446">
        <ele>1565.4000244141</ele>
        <time>2023-10-01T08:25:23.000Z</time>
      </trkpt>
      <trkpt lat="45.0064" lon="5.81446">
        <ele>1565.8000488281</ele>
        <time>2023-10-01T08:25:24.000Z</time>
      </trkpt>
      <trkpt lat="45.00639" lon="5.81447">
        <ele>1566</ele>
        <time>2023-10-01T08:25:25.000Z</time>
      </trkpt>
      <trkpt lat="45.00638" lon="5.81448">
        <ele>1566.1999511719</ele>
        <time>2023-10-01T08:25:26.000Z</time>
      </trkpt>
      <trkpt lat="45.00638" lon="5.81448">
        <ele>1566.4000244141</ele>
        <time>2023-10-01T08:25:27.000Z</time>
      </trkpt>
      <trkpt lat="45.00639" lon="5.81447">
        <ele>1566.8000488281</ele>
        <time>2023-10-01T08:25:28.000Z</time>
      </trkpt>
      <trkpt lat="45.00638" lon="5.81448">
        <ele>1567</ele>
        <time>2023-10-01T08:25:29.000Z</time>
      </trkpt>
      <trkpt lat="45.00637" lon="5.81448">
        <ele>1567</ele>
        <time>2023-10-01T08:25:30.000Z</time>
      </trkpt>
      <trkpt lat="45.00637" lon="5.81448">
        <ele>1567.4000244141</ele>
        <time>2023-10-01T08:25:31.000Z</time>
      </trkpt>
      <trkpt lat="45.00637" lon="5.81448">
        <ele>1567.8000488281</ele>
        <time>2023-10-01T08:25:32.000Z</time>
      </trkpt>
      <trkpt lat="45.00637" lon="5.81449">
        <ele>1568</ele>
        <time>2023-10-01T08:25:33.000Z</time>
      </trkpt>
      <trkpt lat="45.00638" lon="5.81449">
        <ele>1568.1999511719</ele>
        <time>2023-10-01T08:25:34.000Z</time>
      </trkpt>
      <trkpt lat="45.00637" lon="5.8145">
        <ele>1568.4000244141</ele>
        <time>2023-10-01T08:25:35.000Z</time>
      </trkpt>
      <trkpt lat="45.00637" lon="5.8145">
        <ele>1568.8000488281</ele>
        <time>2023-10-01T08:25:36.000Z</time>
      </trkpt>
      <trkpt lat="45.00637" lon="5.81451">
        <ele>1569</ele>
        <time>2023-10-01T08:25:37.000Z</time>
      </trkpt>
      <trkpt lat="45.00637" lon="5.81451">
        <ele>1569.4000244141</ele>
        <time>2023-10-01T08:25:38.000Z</time>
      </trkpt>
      <trkpt lat="45.00638" lon="5.81451">
        <ele>1569.5999755859</ele>
        <time>2023-10-01T08:25:39.000Z</time>
      </trkpt>
      <trkpt lat="45.00638" lon="5.81452">
        <ele>1569.8000488281</ele>
        <time>2023-10-01T08:25:40.000Z</time>
      </trkpt>
      <trkpt lat="45.00637" lon="5.81453">
        <ele>1570</ele>
        <time>2023-10-01T08:25:41.000Z</time>
      </trkpt>
      <trkpt lat="45.00637" lon="5.81454">
        <ele>1570.1999511719</ele>
        <time>2023-10-01T08:25:42.000Z</time>
      </trkpt>
      <trkpt lat="45.00636" lon="5.81455">
        <ele>1570.4000244141</ele>
        <time>2023-10-01T08:25:43.000Z</time>
      </trkpt>
      <trkpt lat="45.00635" lon="5.81456">
        <ele>1570.5999755859</ele>
        <time>2023-10-01T08:25:44.000Z</time>
      </trkpt>
      <trkpt lat="45.00635" lon="5.81457">
        <ele>1570.5999755859</ele>
        <time>2023-10-01T08:25:45.000Z</time>
      </trkpt>
      <trkpt lat="45.00635" lon="5.81457">
        <ele>1570.8000488281</ele>
        <time>2023-10-01T08:25:46.000Z</time>
      </trkpt>
      <trkpt lat="45.00635" lon="5.81457">
        <ele>1571</ele>
        <time>2023-10-01T08:25:47.000Z</time>
      </trkpt>
      <trkpt lat="45.00635" lon="5.81457">
        <ele>1571</ele>
        <time>2023-10-01T08:25:48.000Z</time>
      </trkpt>
      <trkpt lat="45.00634" lon="5.81457">
        <ele>1571.1999511719</ele>
        <time>2023-10-01T08:25:49.000Z</time>
      </trkpt>
      <trkpt lat="45.00634" lon="5.81457">
        <ele>1571.4000244141</ele>
        <time>2023-10-01T08:25:50.000Z</time>
      </trkpt>
      <trkpt lat="45.00634" lon="5.81457">
        <ele>1571.5999755859</ele>
        <time>2023-10-01T08:25:51.000Z</time>
      </trkpt>
      <trkpt lat="45.00634" lon="5.81457">
        <ele>1571.8000488281</ele>
        <time>2023-10-01T08:25:52.000Z</time>
      </trkpt>
      <trkpt lat="45.00634" lon="5.81458">
        <ele>1572</ele>
        <time>2023-10-01T08:25:53.000Z</time>
      </trkpt>
      <trkpt lat="45.00634" lon="5.81458">
        <ele>1572.1999511719</ele>
        <time>2023-10-01T08:25:54.000Z</time>
      </trkpt>
      <trkpt lat="45.00634" lon="5.81458">
        <ele>1572.5999755859</ele>
        <time>2023-10-01T08:25:55.000Z</time>
      </trkpt>
      <trkpt lat="45.00633" lon="5.81458">
        <ele>1572.8000488281</ele>
        <time>2023-10-01T08:25:56.000Z</time>
      </trkpt>
      <trkpt lat="45.00633" lon="5.81459">
        <ele>1573</ele>
        <time>2023-10-01T08:25:57.000Z</time>
      </trkpt>
      <trkpt lat="45.00633" lon="5.81459">
        <ele>1573</ele>
        <time>2023-10-01T08:25:58.000Z</time>
      </trkpt>
      <trkpt lat="45.00632" lon="5.81459">
        <ele>1573.1999511719</ele>
        <time>2023-10-01T08:25:59.000Z</time>
      </trkpt>
      <trkpt lat="45.00632" lon="5.8146">
        <ele>1573.4000244141</ele>
        <time>2023-10-01T08:26:00.000Z</time>
      </trkpt>
      <trkpt lat="45.00632" lon="5.8146">
        <ele>1573.4000244141</ele>
        <time>2023-10-01T08:26:01.000Z</time>
      </trkpt>
      <trkpt lat="45.00631" lon="5.81461">
        <ele>1573.5999755859</ele>
        <time>2023-10-01T08:26:02.000Z</time>
      </trkpt>
      <trkpt lat="45.00631" lon="5.81461">
        <ele>1573.8000488281</ele>
        <time>2023-10-01T08:26:03.000Z</time>
      </trkpt>
      <trkpt lat="45.00631" lon="5.81462">
        <ele>1574</ele>
        <time>2023-10-01T08:26:04.000Z</time>
      </trkpt>
      <trkpt lat="45.00631" lon="5.81462">
        <ele>1574.4000244141</ele>
        <time>2023-10-01T08:26:05.000Z</time>
      </trkpt>
      <trkpt lat="45.00631" lon="5.81462">
        <ele>1574.5999755859</ele>
        <time>2023-10-01T08:26:06.000Z</time>
      </trkpt>
      <trkpt lat="45.00631" lon="5.81463">
        <ele>1575</ele>
        <time>2023-10-01T08:26:07.000Z</time>
      </trkpt>
      <trkpt lat="45.00631" lon="5.81464">
        <ele>1575.1999511719</ele>
        <time>2023-10-01T08:26:08.000Z</time>
      </trkpt>
      <trkpt lat="45.00631" lon="5.81464">
        <ele>1575.5999755859</ele>
        <time>2023-10-01T08:26:09.000Z</time>
      </trkpt>
      <trkpt lat="45.0063" lon="5.81466">
        <ele>1575.8000488281</ele>
        <time>2023-10-01T08:26:10.000Z</time>
      </trkpt>
      <trkpt lat="45.00631" lon="5.81466">
        <ele>1576</ele>
        <time>2023-10-01T08:26:11.000Z</time>
      </trkpt>
      <trkpt lat="45.00631" lon="5.81467">
        <ele>1576.1999511719</ele>
        <time>2023-10-01T08:26:12.000Z</time>
      </trkpt>
      <trkpt lat="45.00631" lon="5.81467">
        <ele>1576.8000488281</ele>
        <time>2023-10-01T08:26:13.000Z</time>
      </trkpt>
      <trkpt lat="45.00631" lon="5.81468">
        <ele>1577</ele>
        <time>2023-10-01T08:26:14.000Z</time>
      </trkpt>
      <trkpt lat="45.00631" lon="5.81469">
        <ele>1577.1999511719</ele>
        <time>2023-10-01T08:26:15.000Z</time>
      </trkpt>
      <trkpt lat="45.00631" lon="5.81469">
        <ele>1577.4000244141</ele>
        <time>2023-10-01T08:26:16.000Z</time>
      </trkpt>
      <trkpt lat="45.00631" lon="5.81469">
        <ele>1577.8000488281</ele>
        <time>2023-10-01T08:26:17.000Z</time>
      </trkpt>
      <trkpt lat="45.00631" lon="5.81469">
        <ele>1578</ele>
        <time>2023-10-01T08:26:18.000Z</time>
      </trkpt>
      <trkpt lat="45.00631" lon="5.8147">
        <ele>1578.1999511719</ele>
        <time>2023-10-01T08:26:19.000Z</time>
      </trkpt>
      <trkpt lat="45.00632" lon="5.81471">
        <ele>1578.4000244141</ele>
        <time>2023-10-01T08:26:20.000Z</time>
      </trkpt>
      <trkpt lat="45.00631" lon="5.81471">
        <ele>1578.8000488281</ele>
        <time>2023-10-01T08:26:21.000Z</time>
      </trkpt>
      <trkpt lat="45.00631" lon="5.81471">
        <ele>1579</ele>
        <time>2023-10-01T08:26:22.000Z</time>
      </trkpt>
      <trkpt lat="45.00631" lon="5.81471">
        <ele>1579.1999511719</ele>
        <time>2023-10-01T08:26:23.000Z</time>
      </trkpt>
      <trkpt lat="45.00631" lon="5.81473">
        <ele>1579.5999755859</ele>
        <time>2023-10-01T08:26:24.000Z</time>
      </trkpt>
      <trkpt lat="45.00631" lon="5.81474">
        <ele>1579.8000488281</ele>
        <time>2023-10-01T08:26:25.000Z</time>
      </trkpt>
      <trkpt lat="45.00631" lon="5.81474">
        <ele>1579.8000488281</ele>
        <time>2023-10-01T08:26:26.000Z</time>
      </trkpt>
      <trkpt lat="45.00631" lon="5.81475">
        <ele>1580.4000244141</ele>
        <time>2023-10-01T08:26:27.000Z</time>
      </trkpt>
      <trkpt lat="45.00631" lon="5.81475">
        <ele>1580.5999755859</ele>
        <time>2023-10-01T08:26:28.000Z</time>
      </trkpt>
      <trkpt lat="45.0063" lon="5.81475">
        <ele>1580.8000488281</ele>
        <time>2023-10-01T08:26:29.000Z</time>
      </trkpt>
      <trkpt lat="45.0063" lon="5.81475">
        <ele>1581</ele>
        <time>2023-10-01T08:26:30.000Z</time>
      </trkpt>
      <trkpt lat="45.0063" lon="5.81476">
        <ele>1581.1999511719</ele>
        <time>2023-10-01T08:26:31.000Z</time>
      </trkpt>
      <trkpt lat="45.0063" lon="5.81476">
        <ele>1581.4000244141</ele>
        <time>2023-10-01T08:26:32.000Z</time>
      </trkpt>
      <trkpt lat="45.0063" lon="5.81476">
        <ele>1581.5999755859</ele>
        <time>2023-10-01T08:26:33.000Z</time>
      </trkpt>
      <trkpt lat="45.00629" lon="5.81477">
        <ele>1582</ele>
        <time>2023-10-01T08:26:34.000Z</time>
      </trkpt>
      <trkpt lat="45.00629" lon="5.81477">
        <ele>1582.1999511719</ele>
        <time>2023-10-01T08:26:35.000Z</time>
      </trkpt>
      <trkpt lat="45.00629" lon="5.81479">
        <ele>1582.5999755859</ele>
        <time>2023-10-01T08:26:36.000Z</time>
      </trkpt>
      <trkpt lat="45.00629" lon="5.8148">
        <ele>1582.5999755859</ele>
        <time>2023-10-01T08:26:37.000Z</time>
      </trkpt>
      <trkpt lat="45.00629" lon="5.8148">
        <ele>1583</ele>
        <time>2023-10-01T08:26:38.000Z</time>
      </trkpt>
      <trkpt lat="45.00628" lon="5.8148">
        <ele>1583.4000244141</ele>
        <time>2023-10-01T08:26:39.000Z</time>
      </trkpt>
      <trkpt lat="45.00629" lon="5.81481">
        <ele>1583.5999755859</ele>
        <time>2023-10-01T08:26:40.000Z</time>
      </trkpt>
      <trkpt lat="45.00629" lon="5.81482">
        <ele>1584</ele>
        <time>2023-10-01T08:26:41.000Z</time>
      </trkpt>
      <trkpt lat="45.00629" lon="5.81482">
        <ele>1584.1999511719</ele>
        <time>2023-10-01T08:26:42.000Z</time>
      </trkpt>
      <trkpt lat="45.00628" lon="5.81483">
        <ele>1584.5999755859</ele>
        <time>2023-10-01T08:26:43.000Z</time>
      </trkpt>
      <trkpt lat="45.00629" lon="5.81484">
        <ele>1584.8000488281</ele>
        <time>2023-10-01T08:26:44.000Z</time>
      </trkpt>
      <trkpt lat="45.00629" lon="5.81483">
        <ele>1585.1999511719</ele>
        <time>2023-10-01T08:26:45.000Z</time>
      </trkpt>
      <trkpt lat="45.00628" lon="5.81483">
        <ele>1585.5999755859</ele>
        <time>2023-10-01T08:26:46.000Z</time>
      </trkpt>
      <trkpt lat="45.00628" lon="5.81485">
        <ele>1585.5999755859</ele>
        <time>2023-10-01T08:26:47.000Z</time>
      </trkpt>
      <trkpt lat="45.00628" lon="5.81485">
        <ele>1586</ele>
        <time>2023-10-01T08:26:48.000Z</time>
      </trkpt>
      <trkpt lat="45.00628" lon="5.81486">
        <ele>1586.4000244141</ele>
        <time>2023-10-01T08:26:49.000Z</time>
      </trkpt>
      <trkpt lat="45.00629" lon="5.81487">
        <ele>1586.5999755859</ele>
        <time>2023-10-01T08:26:50.000Z</time>
      </trkpt>
      <trkpt lat="45.00629" lon="5.81487">
        <ele>1587</ele>
        <time>2023-10-01T08:26:51.000Z</time>
      </trkpt>
      <trkpt lat="45.00629" lon="5.81488">
        <ele>1587.1999511719</ele>
        <time>2023-10-01T08:26:52.000Z</time>
      </trkpt>
      <trkpt lat="45.00628" lon="5.81488">
        <ele>1587.5999755859</ele>
        <time>2023-10-01T08:26:53.000Z</time>
      </trkpt>
      <trkpt lat="45.00628" lon="5.81489">
        <ele>1587.8000488281</ele>
        <time>2023-10-01T08:26:54.000Z</time>
      </trkpt>
      <trkpt lat="45.00628" lon="5.8149">
        <ele>1588.1999511719</ele>
        <time>2023-10-01T08:26:55.000Z</time>
      </trkpt>
      <trkpt lat="45.00628" lon="5.81491">
        <ele>1588.5999755859</ele>
        <time>2023-10-01T08:26:56.000Z</time>
      </trkpt>
      <trkpt lat="45.00628" lon="5.81491">
        <ele>1588.8000488281</ele>
        <time>2023-10-01T08:26:57.000Z</time>
      </trkpt>
      <trkpt lat="45.00628" lon="5.81492">
        <ele>1589.4000244141</ele>
        <time>2023-10-01T08:26:58.000Z</time>
      </trkpt>
      <trkpt lat="45.00627" lon="5.81493">
        <ele>1589.5999755859</ele>
        <time>2023-10-01T08:26:59.000Z</time>
      </trkpt>
      <trkpt lat="45.00627" lon="5.81493">
        <ele>1590</ele>
        <time>2023-10-01T08:27:00.000Z</time>
      </trkpt>
      <trkpt lat="45.00627" lon="5.81494">
        <ele>1590.4000244141</ele>
        <time>2023-10-01T08:27:01.000Z</time>
      </trkpt>
      <trkpt lat="45.00627" lon="5.81494">
        <ele>1590.5999755859</ele>
        <time>2023-10-01T08:27:02.000Z</time>
      </trkpt>
      <trkpt lat="45.00627" lon="5.81495">
        <ele>1591</ele>
        <time>2023-10-01T08:27:03.000Z</time>
      </trkpt>
      <trkpt lat="45.00627" lon="5.81496">
        <ele>1591.4000244141</ele>
        <time>2023-10-01T08:27:04.000Z</time>
      </trkpt>
      <trkpt lat="45.00626" lon="5.81496">
        <ele>1591.5999755859</ele>
        <time>2023-10-01T08:27:05.000Z</time>
      </trkpt>
      <trkpt lat="45.00626" lon="5.81497">
        <ele>1591.8000488281</ele>
        <time>2023-10-01T08:27:06.000Z</time>
      </trkpt>
      <trkpt lat="45.00626" lon="5.81499">
        <ele>1592.1999511719</ele>
        <time>2023-10-01T08:27:07.000Z</time>
      </trkpt>
      <trkpt lat="45.00627" lon="5.81499">
        <ele>1592.4000244141</ele>
        <time>2023-10-01T08:27:08.000Z</time>
      </trkpt>
      <trkpt lat="45.00627" lon="5.81499">
        <ele>1592.5999755859</ele>
        <time>2023-10-01T08:27:09.000Z</time>
      </trkpt>
      <trkpt lat="45.00627" lon="5.81498">
        <ele>1592.8000488281</ele>
        <time>2023-10-01T08:27:10.000Z</time>
      </trkpt>
      <trkpt lat="45.00627" lon="5.81499">
        <ele>1593.1999511719</ele>
        <time>2023-10-01T08:27:11.000Z</time>
      </trkpt>
      <trkpt lat="45.00627" lon="5.81499">
        <ele>1593.4000244141</ele>
        <time>2023-10-01T08:27:12.000Z</time>
      </trkpt>
      <trkpt lat="45.00627" lon="5.815">
        <ele>1593.5999755859</ele>
        <time>2023-10-01T08:27:13.000Z</time>
      </trkpt>
      <trkpt lat="45.00627" lon="5.815">
        <ele>1594</ele>
        <time>2023-10-01T08:27:14.000Z</time>
      </trkpt>
      <trkpt lat="45.00627" lon="5.81501">
        <ele>1594.1999511719</ele>
        <time>2023-10-01T08:27:15.000Z</time>
      </trkpt>
      <trkpt lat="45.00627" lon="5.81501">
        <ele>1594.5999755859</ele>
        <time>2023-10-01T08:27:16.000Z</time>
      </trkpt>
      <trkpt lat="45.00627" lon="5.81502">
        <ele>1594.5999755859</ele>
        <time>2023-10-01T08:27:17.000Z</time>
      </trkpt>
      <trkpt lat="45.00627" lon="5.81502">
        <ele>1595</ele>
        <time>2023-10-01T08:27:18.000Z</time>
      </trkpt>
      <trkpt lat="45.00626" lon="5.81503">
        <ele>1595.1999511719</ele>
        <time>2023-10-01T08:27:19.000Z</time>
      </trkpt>
      <trkpt lat="45.00626" lon="5.81503">
        <ele>1595.5999755859</ele>
        <time>2023-10-01T08:27:20.000Z</time>
      </trkpt>
      <trkpt lat="45.00626" lon="5.81503">
        <ele>1595.5999755859</ele>
        <time>2023-10-01T08:27:21.000Z</time>
      </trkpt>
      <trkpt lat="45.00626" lon="5.81504">
        <ele>1595.8000488281</ele>
        <time>2023-10-01T08:27:22.000Z</time>
      </trkpt>
      <trkpt lat="45.00626" lon="5.81504">
        <ele>1596</ele>
        <time>2023-10-01T08:27:23.000Z</time>
      </trkpt>
      <trkpt lat="45.00626" lon="5.81505">
        <ele>1596.4000244141</ele>
        <time>2023-10-01T08:27:24.000Z</time>
      </trkpt>
      <trkpt lat="45.00626" lon="5.81505">
        <ele>1596.5999755859</ele>
        <time>2023-10-01T08:27:25.000Z</time>
      </trkpt>
      <trkpt lat="45.00626" lon="5.81506">
        <ele>1596.8000488281</ele>
        <time>2023-10-01T08:27:26.000Z</time>
      </trkpt>
      <trkpt lat="45.00626" lon="5.81507">
        <ele>1597.1999511719</ele>
        <time>2023-10-01T08:27:27.000Z</time>
      </trkpt>
      <trkpt lat="45.00626" lon="5.81507">
        <ele>1597.4000244141</ele>
        <time>2023-10-01T08:27:28.000Z</time>
      </trkpt>
      <trkpt lat="45.00626" lon="5.81508">
        <ele>1597.5999755859</ele>
        <time>2023-10-01T08:27:29.000Z</time>
      </trkpt>
      <trkpt lat="45.00625" lon="5.81509">
        <ele>1598</ele>
        <time>2023-10-01T08:27:30.000Z</time>
      </trkpt>
      <trkpt lat="45.00625" lon="5.8151">
        <ele>1598.1999511719</ele>
        <time>2023-10-01T08:27:31.000Z</time>
      </trkpt>
      <trkpt lat="45.00625" lon="5.8151">
        <ele>1598.4000244141</ele>
        <time>2023-10-01T08:27:32.000Z</time>
      </trkpt>
      <trkpt lat="45.00625" lon="5.81511">
        <ele>1598.8000488281</ele>
        <time>2023-10-01T08:27:33.000Z</time>
      </trkpt>
      <trkpt lat="45.00625" lon="5.81511">
        <ele>1599</ele>
        <time>2023-10-01T08:27:34.000Z</time>
      </trkpt>
      <trkpt lat="45.00625" lon="5.81512">
        <ele>1599.1999511719</ele>
        <time>2023-10-01T08:27:35.000Z</time>
      </trkpt>
      <trkpt lat="45.00625" lon="5.81512">
        <ele>1599.4000244141</ele>
        <time>2023-10-01T08:27:36.000Z</time>
      </trkpt>
      <trkpt lat="45.00624" lon="5.81514">
        <ele>1599.8000488281</ele>
        <time>2023-10-01T08:27:37.000Z</time>
      </trkpt>
      <trkpt lat="45.00624" lon="5.81514">
        <ele>1600</ele>
        <time>2023-10-01T08:27:38.000Z</time>
      </trkpt>
      <trkpt lat="45.00624" lon="5.81514">
        <ele>1600.1999511719</ele>
        <time>2023-10-01T08:27:39.000Z</time>
      </trkpt>
      <trkpt lat="45.00624" lon="5.81515">
        <ele>1600.4000244141</ele>
        <time>2023-10-01T08:27:40.000Z</time>
      </trkpt>
      <trkpt lat="45.00624" lon="5.81515">
        <ele>1600.8000488281</ele>
        <time>2023-10-01T08:27:41.000Z</time>
      </trkpt>
      <trkpt lat="45.00624" lon="5.81514">
        <ele>1601.1999511719</ele>
        <time>2023-10-01T08:27:42.000Z</time>
      </trkpt>
      <trkpt lat="45.00624" lon="5.81515">
        <ele>1601.4000244141</ele>
        <time>2023-10-01T08:27:43.000Z</time>
      </trkpt>
      <trkpt lat="45.00624" lon="5.81516">
        <ele>1601.4000244141</ele>
        <time>2023-10-01T08:27:44.000Z</time>
      </trkpt>
      <trkpt lat="45.00624" lon="5.81516">
        <ele>1601.8000488281</ele>
        <time>2023-10-01T08:27:45.000Z</time>
      </trkpt>
      <trkpt lat="45.00624" lon="5.81517">
        <ele>1602</ele>
        <time>2023-10-01T08:27:46.000Z</time>
      </trkpt>
      <trkpt lat="45.00624" lon="5.81518">
        <ele>1602.1999511719</ele>
        <time>2023-10-01T08:27:47.000Z</time>
      </trkpt>
      <trkpt lat="45.00624" lon="5.81518">
        <ele>1602.5999755859</ele>
        <time>2023-10-01T08:27:48.000Z</time>
      </trkpt>
      <trkpt lat="45.00623" lon="5.81519">
        <ele>1602.8000488281</ele>
        <time>2023-10-01T08:27:49.000Z</time>
      </trkpt>
      <trkpt lat="45.00623" lon="5.81519">
        <ele>1603</ele>
        <time>2023-10-01T08:27:50.000Z</time>
      </trkpt>
      <trkpt lat="45.00623" lon="5.8152">
        <ele>1603.4000244141</ele>
        <time>2023-10-01T08:27:51.000Z</time>
      </trkpt>
      <trkpt lat="45.00623" lon="5.81521">
        <ele>1603.8000488281</ele>
        <time>2023-10-01T08:27:52.000Z</time>
      </trkpt>
      <trkpt lat="45.00623" lon="5.81522">
        <ele>1604</ele>
        <time>2023-10-01T08:27:53.000Z</time>
      </trkpt>
      <trkpt lat="45.00623" lon="5.81522">
        <ele>1604.1999511719</ele>
        <time>2023-10-01T08:27:54.000Z</time>
      </trkpt>
      <trkpt lat="45.00623" lon="5.81522">
        <ele>1604.5999755859</ele>
        <time>2023-10-01T08:27:55.000Z</time>
      </trkpt>
      <trkpt lat="45.00623" lon="5.81523">
        <ele>1604.8000488281</ele>
        <time>2023-10-01T08:27:56.000Z</time>
      </trkpt>
      <trkpt lat="45.00623" lon="5.81523">
        <ele>1605.1999511719</ele>
        <time>2023-10-01T08:27:57.000Z</time>
      </trkpt>
      <trkpt lat="45.00623" lon="5.81524">
        <ele>1605.4000244141</ele>
        <time>2023-10-01T08:27:58.000Z</time>
      </trkpt>
      <trkpt lat="45.00623" lon="5.81524">
        <ele>1605.5999755859</ele>
        <time>2023-10-01T08:27:59.000Z</time>
      </trkpt>
      <trkpt lat="45.00623" lon="5.81525">
        <ele>1605.8000488281</ele>
        <time>2023-10-01T08:28:00.000Z</time>
      </trkpt>
      <trkpt lat="45.00623" lon="5.81524">
        <ele>1606.1999511719</ele>
        <time>2023-10-01T08:28:01.000Z</time>
      </trkpt>
      <trkpt lat="45.00623" lon="5.81525">
        <ele>1606.4000244141</ele>
        <time>2023-10-01T08:28:02.000Z</time>
      </trkpt>
      <trkpt lat="45.00623" lon="5.81526">
        <ele>1606.5999755859</ele>
        <time>2023-10-01T08:28:03.000Z</time>
      </trkpt>
      <trkpt lat="45.00623" lon="5.81527">
        <ele>1606.8000488281</ele>
        <time>2023-10-01T08:28:04.000Z</time>
      </trkpt>
      <trkpt lat="45.00623" lon="5.81528">
        <ele>1607.1999511719</ele>
        <time>2023-10-01T08:28:05.000Z</time>
      </trkpt>
      <trkpt lat="45.00623" lon="5.81528">
        <ele>1607.5999755859</ele>
        <time>2023-10-01T08:28:06.000Z</time>
      </trkpt>
      <trkpt lat="45.00623" lon="5.81528">
        <ele>1607.8000488281</ele>
        <time>2023-10-01T08:28:07.000Z</time>
      </trkpt>
      <trkpt lat="45.00622" lon="5.81528">
        <ele>1608</ele>
        <time>2023-10-01T08:28:08.000Z</time>
      </trkpt>
      <trkpt lat="45.00622" lon="5.81529">
        <ele>1608.4000244141</ele>
        <time>2023-10-01T08:28:09.000Z</time>
      </trkpt>
      <trkpt lat="45.00622" lon="5.8153">
        <ele>1608.5999755859</ele>
        <time>2023-10-01T08:28:10.000Z</time>
      </trkpt>
      <trkpt lat="45.00622" lon="5.8153">
        <ele>1609</ele>
        <time>2023-10-01T08:28:11.000Z</time>
      </trkpt>
      <trkpt lat="45.00622" lon="5.8153">
        <ele>1609.1999511719</ele>
        <time>2023-10-01T08:28:12.000Z</time>
      </trkpt>
      <trkpt lat="45.00622" lon="5.8153">
        <ele>1609.4000244141</ele>
        <time>2023-10-01T08:28:13.000Z</time>
      </trkpt>
      <trkpt lat="45.00622" lon="5.81531">
        <ele>1609.5999755859</ele>
        <time>2023-10-01T08:28:14.000Z</time>
      </trkpt>
      <trkpt lat="45.00622" lon="5.81533">
        <ele>1610</ele>
        <time>2023-10-01T08:28:15.000Z</time>
      </trkpt>
      <trkpt lat="45.00622" lon="5.81533">
        <ele>1610.1999511719</ele>
        <time>2023-10-01T08:28:16.000Z</time>
      </trkpt>
      <trkpt lat="45.00621" lon="5.81533">
        <ele>1610.4000244141</ele>
        <time>2023-10-01T08:28:17.000Z</time>
      </trkpt>
      <trkpt lat="45.00621" lon="5.81534">
        <ele>1610.8000488281</ele>
        <time>2023-10-01T08:28:18.000Z</time>
      </trkpt>
      <trkpt lat="45.00621" lon="5.81534">
        <ele>1610.8000488281</ele>
        <time>2023-10-01T08:28:19.000Z</time>
      </trkpt>
      <trkpt lat="45.00621" lon="5.81534">
        <ele>1611.1999511719</ele>
        <time>2023-10-01T08:28:20.000Z</time>
      </trkpt>
      <trkpt lat="45.00621" lon="5.81534">
        <ele>1611.5999755859</ele>
        <time>2023-10-01T08:28:21.000Z</time>
      </trkpt>
      <trkpt lat="45.00621" lon="5.81535">
        <ele>1611.8000488281</ele>
        <time>2023-10-01T08:28:22.000Z</time>
      </trkpt>
      <trkpt lat="45.00621" lon="5.81535">
        <ele>1612</ele>
        <time>2023-10-01T08:28:23.000Z</time>
      </trkpt>
      <trkpt lat="45.00621" lon="5.81536">
        <ele>1612.4000244141</ele>
        <time>2023-10-01T08:28:24.000Z</time>
      </trkpt>
      <trkpt lat="45.00621" lon="5.81537">
        <ele>1612.5999755859</ele>
        <time>2023-10-01T08:28:25.000Z</time>
      </trkpt>
      <trkpt lat="45.00621" lon="5.81538">
        <ele>1613</ele>
        <time>2023-10-01T08:28:26.000Z</time>
      </trkpt>
      <trkpt lat="45.00621" lon="5.81538">
        <ele>1613.1999511719</ele>
        <time>2023-10-01T08:28:27.000Z</time>
      </trkpt>
      <trkpt lat="45.00621" lon="5.81538">
        <ele>1613.5999755859</ele>
        <time>2023-10-01T08:28:28.000Z</time>
      </trkpt>
      <trkpt lat="45.00621" lon="5.8154">
        <ele>1613.8000488281</ele>
        <time>2023-10-01T08:28:29.000Z</time>
      </trkpt>
      <trkpt lat="45.00621" lon="5.8154">
        <ele>1614</ele>
        <time>2023-10-01T08:28:30.000Z</time>
      </trkpt>
      <trkpt lat="45.00621" lon="5.8154">
        <ele>1614.1999511719</ele>
        <time>2023-10-01T08:28:31.000Z</time>
      </trkpt>
      <trkpt lat="45.00621" lon="5.81541">
        <ele>1614.4000244141</ele>
        <time>2023-10-01T08:28:32.000Z</time>
      </trkpt>
      <trkpt lat="45.0062" lon="5.81542">
        <ele>1614.8000488281</ele>
        <time>2023-10-01T08:28:33.000Z</time>
      </trkpt>
      <trkpt lat="45.0062" lon="5.81543">
        <ele>1615</ele>
        <time>2023-10-01T08:28:34.000Z</time>
      </trkpt>
      <trkpt lat="45.0062" lon="5.81543">
        <ele>1615.1999511719</ele>
        <time>2023-10-01T08:28:35.000Z</time>
      </trkpt>
      <trkpt lat="45.0062" lon="5.81544">
        <ele>1615.4000244141</ele>
        <time>2023-10-01T08:28:36.000Z</time>
      </trkpt>
      <trkpt lat="45.0062" lon="5.81544">
        <ele>1615.8000488281</ele>
        <time>2023-10-01T08:28:37.000Z</time>
      </trkpt>
      <trkpt lat="45.00619" lon="5.81545">
        <ele>1616.1999511719</ele>
        <time>2023-10-01T08:28:38.000Z</time>
      </trkpt>
      <trkpt lat="45.0062" lon="5.81545">
        <ele>1616.4000244141</ele>
        <time>2023-10-01T08:28:39.000Z</time>
      </trkpt>
      <trkpt lat="45.0062" lon="5.81545">
        <ele>1616.8000488281</ele>
        <time>2023-10-01T08:28:40.000Z</time>
      </trkpt>
      <trkpt lat="45.00619" lon="5.81546">
        <ele>1617</ele>
        <time>2023-10-01T08:28:41.000Z</time>
      </trkpt>
      <trkpt lat="45.00619" lon="5.81546">
        <ele>1617.1999511719</ele>
        <time>2023-10-01T08:28:42.000Z</time>
      </trkpt>
      <trkpt lat="45.00619" lon="5.81547">
        <ele>1617.1999511719</ele>
        <time>2023-10-01T08:28:43.000Z</time>
      </trkpt>
      <trkpt lat="45.00619" lon="5.81547">
        <ele>1617.5999755859</ele>
        <time>2023-10-01T08:28:44.000Z</time>
      </trkpt>
      <trkpt lat="45.00619" lon="5.81548">
        <ele>1617.5999755859</ele>
        <time>2023-10-01T08:28:45.000Z</time>
      </trkpt>
      <trkpt lat="45.00619" lon="5.81549">
        <ele>1618</ele>
        <time>2023-10-01T08:28:46.000Z</time>
      </trkpt>
      <trkpt lat="45.00619" lon="5.81549">
        <ele>1618.1999511719</ele>
        <time>2023-10-01T08:28:47.000Z</time>
      </trkpt>
      <trkpt lat="45.00619" lon="5.81549">
        <ele>1618.8000488281</ele>
        <time>2023-10-01T08:28:48.000Z</time>
      </trkpt>
      <trkpt lat="45.00619" lon="5.8155">
        <ele>1619</ele>
        <time>2023-10-01T08:28:49.000Z</time>
      </trkpt>
      <trkpt lat="45.00619" lon="5.8155">
        <ele>1619.1999511719</ele>
        <time>2023-10-01T08:28:50.000Z</time>
      </trkpt>
      <trkpt lat="45.00619" lon="5.8155">
        <ele>1619.4000244141</ele>
        <time>2023-10-01T08:28:51.000Z</time>
      </trkpt>
      <trkpt lat="45.00619" lon="5.81551">
        <ele>1619.5999755859</ele>
        <time>2023-10-01T08:28:52.000Z</time>
      </trkpt>
      <trkpt lat="45.00618" lon="5.81552">
        <ele>1620</ele>
        <time>2023-10-01T08:28:53.000Z</time>
      </trkpt>
      <trkpt lat="45.00618" lon="5.81553">
        <ele>1620.1999511719</ele>
        <time>2023-10-01T08:28:54.000Z</time>
      </trkpt>
      <trkpt lat="45.00618" lon="5.81554">
        <ele>1620.5999755859</ele>
        <time>2023-10-01T08:28:55.000Z</time>
      </trkpt>
      <trkpt lat="45.00618" lon="5.81554">
        <ele>1620.8000488281</ele>
        <time>2023-10-01T08:28:56.000Z</time>
      </trkpt>
      <trkpt lat="45.00618" lon="5.81554">
        <ele>1621</ele>
        <time>2023-10-01T08:28:57.000Z</time>
      </trkpt>
      <trkpt lat="45.00618" lon="5.81555">
        <ele>1621.4000244141</ele>
        <time>2023-10-01T08:28:58.000Z</time>
      </trkpt>
      <trkpt lat="45.00618" lon="5.81555">
        <ele>1621.5999755859</ele>
        <time>2023-10-01T08:28:59.000Z</time>
      </trkpt>
      <trkpt lat="45.00618" lon="5.81557">
        <ele>1621.8000488281</ele>
        <time>2023-10-01T08:29:00.000Z</time>
      </trkpt>
      <trkpt lat="45.00617" lon="5.81557">
        <ele>1622.1999511719</ele>
        <time>2023-10-01T08:29:01.000Z</time>
      </trkpt>
      <trkpt lat="45.00618" lon="5.81557">
        <ele>1622.4000244141</ele>
        <time>2023-10-01T08:29:02.000Z</time>
      </trkpt>
      <trkpt lat="45.00618" lon="5.81558">
        <ele>1622.8000488281</ele>
        <time>2023-10-01T08:29:03.000Z</time>
      </trkpt>
      <trkpt lat="45.00617" lon="5.81559">
        <ele>1623</ele>
        <time>2023-10-01T08:29:04.000Z</time>
      </trkpt>
      <trkpt lat="45.00617" lon="5.81559">
        <ele>1623.4000244141</ele>
        <time>2023-10-01T08:29:05.000Z</time>
      </trkpt>
      <trkpt lat="45.00617" lon="5.8156">
        <ele>1623.8000488281</ele>
        <time>2023-10-01T08:29:06.000Z</time>
      </trkpt>
      <trkpt lat="45.00617" lon="5.8156">
        <ele>1623.8000488281</ele>
        <time>2023-10-01T08:29:07.000Z</time>
      </trkpt>
      <trkpt lat="45.00617" lon="5.8156">
        <ele>1624</ele>
        <time>2023-10-01T08:29:08.000Z</time>
      </trkpt>
      <trkpt lat="45.00617" lon="5.81561">
        <ele>1624.1999511719</ele>
        <time>2023-10-01T08:29:09.000Z</time>
      </trkpt>
      <trkpt lat="45.00616" lon="5.81561">
        <ele>1624.4000244141</ele>
        <time>2023-10-01T08:29:10.000Z</time>
      </trkpt>
      <trkpt lat="45.00616" lon="5.81561">
        <ele>1624.5999755859</ele>
        <time>2023-10-01T08:29:11.000Z</time>
      </trkpt>
      <trkpt lat="45.00616" lon="5.81562">
        <ele>1625</ele>
        <time>2023-10-01T08:29:12.000Z</time>
      </trkpt>
      <trkpt lat="45.00616" lon="5.81563">
        <ele>1625.1999511719</ele>
        <time>2023-10-01T08:29:13.000Z</time>
      </trkpt>
      <trkpt lat="45.00616" lon="5.81563">
        <ele>1625.5999755859</ele>
        <time>2023-10-01T08:29:14.000Z</time>
      </trkpt>
      <trkpt lat="45.00616" lon="5.81564">
        <ele>1625.8000488281</ele>
        <time>2023-10-01T08:29:15.000Z</time>
      </trkpt>
      <trkpt lat="45.00616" lon="5.81564">
        <ele>1625.8000488281</ele>
        <time>2023-10-01T08:29:16.000Z</time>
      </trkpt>
      <trkpt lat="45.00616" lon="5.81565">
        <ele>1626</ele>
        <time>2023-10-01T08:29:17.000Z</time>
      </trkpt>
      <trkpt lat="45.00616" lon="5.81566">
        <ele>1626.4000244141</ele>
        <time>2023-10-01T08:29:18.000Z</time>
      </trkpt>
      <trkpt lat="45.00616" lon="5.81566">
        <ele>1626.5999755859</ele>
        <time>2023-10-01T08:29:19.000Z</time>
      </trkpt>
      <trkpt lat="45.00616" lon="5.81566">
        <ele>1627</ele>
        <time>2023-10-01T08:29:20.000Z</time>
      </trkpt>
      <trkpt lat="45.00616" lon="5.81566">
        <ele>1627.4000244141</ele>
        <time>2023-10-01T08:29:21.000Z</time>
      </trkpt>
      <trkpt lat="45.00616" lon="5.81567">
        <ele>1627.5999755859</ele>
        <time>2023-10-01T08:29:22.000Z</time>
      </trkpt>
      <trkpt lat="45.00615" lon="5.81568">
        <ele>1628</ele>
        <time>2023-10-01T08:29:23.000Z</time>
      </trkpt>
      <trkpt lat="45.00615" lon="5.81568">
        <ele>1628.1999511719</ele>
        <time>2023-10-01T08:29:24.000Z</time>
      </trkpt>
      <trkpt lat="45.00616" lon="5.81569">
        <ele>1628.5999755859</ele>
        <time>2023-10-01T08:29:25.000Z</time>
      </trkpt>
      <trkpt lat="45.00616" lon="5.81569">
        <ele>1628.8000488281</ele>
        <time>2023-10-01T08:29:26.000Z</time>
      </trkpt>
      <trkpt lat="45.00616" lon="5.81569">
        <ele>1629</ele>
        <time>2023-10-01T08:29:27.000Z</time>
      </trkpt>
      <trkpt lat="45.00616" lon="5.8157">
        <ele>1629.4000244141</ele>
        <time>2023-10-01T08:29:28.000Z</time>
      </trkpt>
      <trkpt lat="45.00616" lon="5.8157">
        <ele>1629.5999755859</ele>
        <time>2023-10-01T08:29:29.000Z</time>
      </trkpt>
      <trkpt lat="45.00615" lon="5.81572">
        <ele>1630</ele>
        <time>2023-10-01T08:29:30.000Z</time>
      </trkpt>
      <trkpt lat="45.00616" lon="5.81572">
        <ele>1630.4000244141</ele>
        <time>2023-10-01T08:29:31.000Z</time>
      </trkpt>
      <trkpt lat="45.00616" lon="5.81573">
        <ele>1630.4000244141</ele>
        <time>2023-10-01T08:29:32.000Z</time>
      </trkpt>
      <trkpt lat="45.00616" lon="5.81574">
        <ele>1630.8000488281</ele>
        <time>2023-10-01T08:29:33.000Z</time>
      </trkpt>
      <trkpt lat="45.00616" lon="5.81575">
        <ele>1631</ele>
        <time>2023-10-01T08:29:34.000Z</time>
      </trkpt>
      <trkpt lat="45.00616" lon="5.81576">
        <ele>1631.1999511719</ele>
        <time>2023-10-01T08:29:35.000Z</time>
      </trkpt>
      <trkpt lat="45.00615" lon="5.81576">
        <ele>1631.5999755859</ele>
        <time>2023-10-01T08:29:36.000Z</time>
      </trkpt>
      <trkpt lat="45.00615" lon="5.81576">
        <ele>1632</ele>
        <time>2023-10-01T08:29:37.000Z</time>
      </trkpt>
      <trkpt lat="45.00615" lon="5.81577">
        <ele>1632.1999511719</ele>
        <time>2023-10-01T08:29:38.000Z</time>
      </trkpt>
      <trkpt lat="45.00615" lon="5.81577">
        <ele>1632.4000244141</ele>
        <time>2023-10-01T08:29:39.000Z</time>
      </trkpt>
      <trkpt lat="45.00615" lon="5.81578">
        <ele>1632.5999755859</ele>
        <time>2023-10-01T08:29:40.000Z</time>
      </trkpt>
      <trkpt lat="45.00615" lon="5.81579">
        <ele>1633.1999511719</ele>
        <time>2023-10-01T08:29:41.000Z</time>
      </trkpt>
      <trkpt lat="45.00615" lon="5.81579">
        <ele>1633.4000244141</ele>
        <time>2023-10-01T08:29:42.000Z</time>
      </trkpt>
      <trkpt lat="45.00615" lon="5.8158">
        <ele>1633.5999755859</ele>
        <time>2023-10-01T08:29:43.000Z</time>
      </trkpt>
      <trkpt lat="45.00615" lon="5.81581">
        <ele>1633.8000488281</ele>
        <time>2023-10-01T08:29:44.000Z</time>
      </trkpt>
      <trkpt lat="45.00615" lon="5.81582">
        <ele>1634.1999511719</ele>
        <time>2023-10-01T08:29:45.000Z</time>
      </trkpt>
      <trkpt lat="45.00615" lon="5.81582">
        <ele>1634.5999755859</ele>
        <time>2023-10-01T08:29:46.000Z</time>
      </trkpt>
      <trkpt lat="45.00615" lon="5.81583">
        <ele>1634.8000488281</ele>
        <time>2023-10-01T08:29:47.000Z</time>
      </trkpt>
      <trkpt lat="45.00615" lon="5.81583">
        <ele>1635.1999511719</ele>
        <time>2023-10-01T08:29:48.000Z</time>
      </trkpt>
      <trkpt lat="45.00614" lon="5.81584">
        <ele>1635.4000244141</ele>
        <time>2023-10-01T08:29:49.000Z</time>
      </trkpt>
      <trkpt lat="45.00615" lon="5.81585">
        <ele>1635.8000488281</ele>
        <time>2023-10-01T08:29:50.000Z</time>
      </trkpt>
      <trkpt lat="45.00615" lon="5.81585">
        <ele>1636</ele>
        <time>2023-10-01T08:29:51.000Z</time>
      </trkpt>
      <trkpt lat="45.00614" lon="5.81585">
        <ele>1636.4000244141</ele>
        <time>2023-10-01T08:29:52.000Z</time>
      </trkpt>
      <trkpt lat="45.00614" lon="5.81585">
        <ele>1636.5999755859</ele>
        <time>2023-10-01T08:29:53.000Z</time>
      </trkpt>
      <trkpt lat="45.00614" lon="5.81586">
        <ele>1637</ele>
        <time>2023-10-01T08:29:54.000Z</time>
      </trkpt>
      <trkpt lat="45.00614" lon="5.81588">
        <ele>1637.4000244141</ele>
        <time>2023-10-01T08:29:55.000Z</time>
      </trkpt>
      <trkpt lat="45.00614" lon="5.81589">
        <ele>1637.5999755859</ele>
        <time>2023-10-01T08:29:56.000Z</time>
      </trkpt>
      <trkpt lat="45.00613" lon="5.81589">
        <ele>1637.8000488281</ele>
        <time>2023-10-01T08:29:57.000Z</time>
      </trkpt>
      <trkpt lat="45.00613" lon="5.81589">
        <ele>1638.4000244141</ele>
        <time>2023-10-01T08:29:58.000Z</time>
      </trkpt>
      <trkpt lat="45.00613" lon="5.8159">
        <ele>1638.5999755859</ele>
        <time>2023-10-01T08:29:59.000Z</time>
      </trkpt>
      <trkpt lat="45.00613" lon="5.8159">
        <ele>1638.8000488281</ele>
        <time>2023-10-01T08:30:00.000Z</time>
      </trkpt>
      <trkpt lat="45.00613" lon="5.81591">
        <ele>1639.1999511719</ele>
        <time>2023-10-01T08:30:01.000Z</time>
      </trkpt>
      <trkpt lat="45.00613" lon="5.81591">
        <ele>1639.4000244141</ele>
        <time>2023-10-01T08:30:02.000Z</time>
      </trkpt>
      <trkpt lat="45.00612" lon="5.81592">
        <ele>1639.5999755859</ele>
        <time>2023-10-01T08:30:03.000Z</time>
      </trkpt>
      <trkpt lat="45.00612" lon="5.81593">
        <ele>1640</ele>
        <time>2023-10-01T08:30:04.000Z</time>
      </trkpt>
      <trkpt lat="45.00612" lon="5.81592">
        <ele>1640.1999511719</ele>
        <time>2023-10-01T08:30:05.000Z</time>
      </trkpt>
      <trkpt lat="45.00612" lon="5.81592">
        <ele>1640.4000244141</ele>
        <time>2023-10-01T08:30:06.000Z</time>
      </trkpt>
      <trkpt lat="45.00612" lon="5.81593">
        <ele>1640.4000244141</ele>
        <time>2023-10-01T08:30:07.000Z</time>
      </trkpt>
      <trkpt lat="45.00612" lon="5.81593">
        <ele>1640.5999755859</ele>
        <time>2023-10-01T08:30:08.000Z</time>
      </trkpt>
      <trkpt lat="45.00612" lon="5.81594">
        <ele>1641.1999511719</ele>
        <time>2023-10-01T08:30:09.000Z</time>
      </trkpt>
      <trkpt lat="45.00612" lon="5.81595">
        <ele>1641.4000244141</ele>
        <time>2023-10-01T08:30:10.000Z</time>
      </trkpt>
      <trkpt lat="45.00612" lon="5.81595">
        <ele>1641.5999755859</ele>
        <time>2023-10-01T08:30:11.000Z</time>
      </trkpt>
      <trkpt lat="45.00612" lon="5.81596">
        <ele>1642</ele>
        <time>2023-10-01T08:30:12.000Z</time>
      </trkpt>
      <trkpt lat="45.00612" lon="5.81596">
        <ele>1642.1999511719</ele>
        <time>2023-10-01T08:30:13.000Z</time>
      </trkpt>
      <trkpt lat="45.00611" lon="5.81596">
        <ele>1642.5999755859</ele>
        <time>2023-10-01T08:30:14.000Z</time>
      </trkpt>
      <trkpt lat="45.00611" lon="5.81596">
        <ele>1642.8000488281</ele>
        <time>2023-10-01T08:30:15.000Z</time>
      </trkpt>
      <trkpt lat="45.00611" lon="5.81597">
        <ele>1643</ele>
        <time>2023-10-01T08:30:16.000Z</time>
      </trkpt>
      <trkpt lat="45.00611" lon="5.81598">
        <ele>1643.4000244141</ele>
        <time>2023-10-01T08:30:17.000Z</time>
      </trkpt>
      <trkpt lat="45.00611" lon="5.81599">
        <ele>1643.8000488281</ele>
        <time>2023-10-01T08:30:18.000Z</time>
      </trkpt>
      <trkpt lat="45.00611" lon="5.81599">
        <ele>1644</ele>
        <time>2023-10-01T08:30:19.000Z</time>
      </trkpt>
      <trkpt lat="45.00611" lon="5.816">
        <ele>1644.1999511719</ele>
        <time>2023-10-01T08:30:20.000Z</time>
      </trkpt>
      <trkpt lat="45.00611" lon="5.816">
        <ele>1644.5999755859</ele>
        <time>2023-10-01T08:30:21.000Z</time>
      </trkpt>
      <trkpt lat="45.00611" lon="5.81602">
        <ele>1644.8000488281</ele>
        <time>2023-10-01T08:30:22.000Z</time>
      </trkpt>
      <trkpt lat="45.00611" lon="5.81603">
        <ele>1645</ele>
        <time>2023-10-01T08:30:23.000Z</time>
      </trkpt>
      <trkpt lat="45.00611" lon="5.81604">
        <ele>1645.4000244141</ele>
        <time>2023-10-01T08:30:24.000Z</time>
      </trkpt>
      <trkpt lat="45.00611" lon="5.81605">
        <ele>1645.8000488281</ele>
        <time>2023-10-01T08:30:25.000Z</time>
      </trkpt>
      <trkpt lat="45.00611" lon="5.81605">
        <ele>1646</ele>
        <time>2023-10-01T08:30:26.000Z</time>
      </trkpt>
      <trkpt lat="45.00611" lon="5.81606">
        <ele>1646.4000244141</ele>
        <time>2023-10-01T08:30:27.000Z</time>
      </trkpt>
      <trkpt lat="45.00611" lon="5.81606">
        <ele>1646.8000488281</ele>
        <time>2023-10-01T08:30:28.000Z</time>
      </trkpt>
      <trkpt lat="45.00611" lon="5.81607">
        <ele>1647</ele>
        <time>2023-10-01T08:30:29.000Z</time>
      </trkpt>
      <trkpt lat="45.00611" lon="5.81607">
        <ele>1647.4000244141</ele>
        <time>2023-10-01T08:30:30.000Z</time>
      </trkpt>
      <trkpt lat="45.00611" lon="5.81607">
        <ele>1647.5999755859</ele>
        <time>2023-10-01T08:30:31.000Z</time>
      </trkpt>
      <trkpt lat="45.00611" lon="5.81608">
        <ele>1647.8000488281</ele>
        <time>2023-10-01T08:30:32.000Z</time>
      </trkpt>
      <trkpt lat="45.00611" lon="5.81609">
        <ele>1648.1999511719</ele>
        <time>2023-10-01T08:30:33.000Z</time>
      </trkpt>
      <trkpt lat="45.00611" lon="5.81609">
        <ele>1648.4000244141</ele>
        <time>2023-10-01T08:30:34.000Z</time>
      </trkpt>
      <trkpt lat="45.00611" lon="5.81609">
        <ele>1648.5999755859</ele>
        <time>2023-10-01T08:30:35.000Z</time>
      </trkpt>
      <trkpt lat="45.00611" lon="5.81609">
        <ele>1648.8000488281</ele>
        <time>2023-10-01T08:30:36.000Z</time>
      </trkpt>
      <trkpt lat="45.00611" lon="5.8161">
        <ele>1649</ele>
        <time>2023-10-01T08:30:37.000Z</time>
      </trkpt>
      <trkpt lat="45.0061" lon="5.81611">
        <ele>1649.4000244141</ele>
        <time>2023-10-01T08:30:38.000Z</time>
      </trkpt>
      <trkpt lat="45.0061" lon="5.81611">
        <ele>1649.5999755859</ele>
        <time>2023-10-01T08:30:39.000Z</time>
      </trkpt>
      <trkpt lat="45.0061" lon="5.81611">
        <ele>1650</ele>
        <time>2023-10-01T08:30:40.000Z</time>
      </trkpt>
      <trkpt lat="45.0061" lon="5.81613">
        <ele>1650.1999511719</ele>
        <time>2023-10-01T08:30:41.000Z</time>
      </trkpt>
      <trkpt lat="45.0061" lon="5.81613">
        <ele>1650.4000244141</ele>
        <time>2023-10-01T08:30:42.000Z</time>
      </trkpt>
      <trkpt lat="45.0061" lon="5.81613">
        <ele>1650.8000488281</ele>
        <time>2023-10-01T08:30:43.000Z</time>
      </trkpt>
      <trkpt lat="45.0061" lon="5.81614">
        <ele>1651</ele>
        <time>2023-10-01T08:30:44.000Z</time>
      </trkpt>
      <trkpt lat="45.0061" lon="5.81614">
        <ele>1651.1999511719</ele>
        <time>2023-10-01T08:30:45.000Z</time>
      </trkpt>
      <trkpt lat="45.0061" lon="5.81615">
        <ele>1651.5999755859</ele>
        <time>2023-10-01T08:30:46.000Z</time>
      </trkpt>
      <trkpt lat="45.0061" lon="5.81616">
        <ele>1652</ele>
        <time>2023-10-01T08:30:47.000Z</time>
      </trkpt>
      <trkpt lat="45.0061" lon="5.81616">
        <ele>1652.1999511719</ele>
        <time>2023-10-01T08:30:48.000Z</time>
      </trkpt>
      <trkpt lat="45.00609" lon="5.81616">
        <ele>1652.5999755859</ele>
        <time>2023-10-01T08:30:49.000Z</time>
      </trkpt>
      <trkpt lat="45.00609" lon="5.81617">
        <ele>1652.8000488281</ele>
        <time>2023-10-01T08:30:50.000Z</time>
      </trkpt>
      <trkpt lat="45.00609" lon="5.81617">
        <ele>1653.1999511719</ele>
        <time>2023-10-01T08:30:51.000Z</time>
      </trkpt>
      <trkpt lat="45.00608" lon="5.81618">
        <ele>1653.4000244141</ele>
        <time>2023-10-01T08:30:52.000Z</time>
      </trkpt>
      <trkpt lat="45.00608" lon="5.81618">
        <ele>1653.5999755859</ele>
        <time>2023-10-01T08:30:53.000Z</time>
      </trkpt>
      <trkpt lat="45.00608" lon="5.81618">
        <ele>1654</ele>
        <time>2023-10-01T08:30:54.000Z</time>
      </trkpt>
      <trkpt lat="45.00609" lon="5.81618">
        <ele>1654.1999511719</ele>
        <time>2023-10-01T08:30:55.000Z</time>
      </trkpt>
      <trkpt lat="45.00609" lon="5.81619">
        <ele>1654.5999755859</ele>
        <time>2023-10-01T08:30:56.000Z</time>
      </trkpt>
      <trkpt lat="45.00609" lon="5.81619">
        <ele>1654.5999755859</ele>
        <time>2023-10-01T08:30:57.000Z</time>
      </trkpt>
      <trkpt lat="45.00609" lon="5.8162">
        <ele>1654.8000488281</ele>
        <time>2023-10-01T08:30:58.000Z</time>
      </trkpt>
      <trkpt lat="45.00609" lon="5.81621">
        <ele>1655.4000244141</ele>
        <time>2023-10-01T08:30:59.000Z</time>
      </trkpt>
      <trkpt lat="45.00609" lon="5.81622">
        <ele>1655.4000244141</ele>
        <time>2023-10-01T08:31:00.000Z</time>
      </trkpt>
      <trkpt lat="45.00609" lon="5.81623">
        <ele>1655.8000488281</ele>
        <time>2023-10-01T08:31:01.000Z</time>
      </trkpt>
      <trkpt lat="45.00608" lon="5.81623">
        <ele>1656</ele>
        <time>2023-10-01T08:31:02.000Z</time>
      </trkpt>
      <trkpt lat="45.00608" lon="5.81624">
        <ele>1656</ele>
        <time>2023-10-01T08:31:03.000Z</time>
      </trkpt>
      <trkpt lat="45.00607" lon="5.81624">
        <ele>1656.1999511719</ele>
        <time>2023-10-01T08:31:04.000Z</time>
      </trkpt>
      <trkpt lat="45.00607" lon="5.81625">
        <ele>1656.4000244141</ele>
        <time>2023-10-01T08:31:05.000Z</time>
      </trkpt>
      <trkpt lat="45.00606" lon="5.81626">
        <ele>1656.5999755859</ele>
        <time>2023-10-01T08:31:06.000Z</time>
      </trkpt>
      <trkpt lat="45.00606" lon="5.81626">
        <ele>1656.8000488281</ele>
        <time>2023-10-01T08:31:07.000Z</time>
      </trkpt>
      <trkpt lat="45.00605" lon="5.81627">
        <ele>1657.1999511719</ele>
        <time>2023-10-01T08:31:08.000Z</time>
      </trkpt>
      <trkpt lat="45.00605" lon="5.81628">
        <ele>1657.4000244141</ele>
        <time>2023-10-01T08:31:09.000Z</time>
      </trkpt>
      <trkpt lat="45.00605" lon="5.81628">
        <ele>1657.5999755859</ele>
        <time>2023-10-01T08:31:10.000Z</time>
      </trkpt>
      <trkpt lat="45.00605" lon="5.81628">
        <ele>1657.8000488281</ele>
        <time>2023-10-01T08:31:11.000Z</time>
      </trkpt>
      <trkpt lat="45.00605" lon="5.81628">
        <ele>1658</ele>
        <time>2023-10-01T08:31:12.000Z</time>
      </trkpt>
      <trkpt lat="45.00605" lon="5.81628">
        <ele>1658.5999755859</ele>
        <time>2023-10-01T08:31:13.000Z</time>
      </trkpt>
      <trkpt lat="45.00605" lon="5.81629">
        <ele>1659</ele>
        <time>2023-10-01T08:31:14.000Z</time>
      </trkpt>
      <trkpt lat="45.00605" lon="5.81629">
        <ele>1659.1999511719</ele>
        <time>2023-10-01T08:31:15.000Z</time>
      </trkpt>
      <trkpt lat="45.00605" lon="5.8163">
        <ele>1659.4000244141</ele>
        <time>2023-10-01T08:31:16.000Z</time>
      </trkpt>
      <trkpt lat="45.00606" lon="5.81631">
        <ele>1659.8000488281</ele>
        <time>2023-10-01T08:31:17.000Z</time>
      </trkpt>
      <trkpt lat="45.00606" lon="5.81632">
        <ele>1660</ele>
        <time>2023-10-01T08:31:18.000Z</time>
      </trkpt>
      <trkpt lat="45.00606" lon="5.81632">
        <ele>1660.1999511719</ele>
        <time>2023-10-01T08:31:19.000Z</time>
      </trkpt>
      <trkpt lat="45.00606" lon="5.81632">
        <ele>1660.4000244141</ele>
        <time>2023-10-01T08:31:20.000Z</time>
      </trkpt>
      <trkpt lat="45.00606" lon="5.81633">
        <ele>1660.5999755859</ele>
        <time>2023-10-01T08:31:21.000Z</time>
      </trkpt>
      <trkpt lat="45.00606" lon="5.81633">
        <ele>1661</ele>
        <time>2023-10-01T08:31:22.000Z</time>
      </trkpt>
      <trkpt lat="45.00606" lon="5.81634">
        <ele>1661.1999511719</ele>
        <time>2023-10-01T08:31:23.000Z</time>
      </trkpt>
      <trkpt lat="45.00605" lon="5.81634">
        <ele>1661.4000244141</ele>
        <time>2023-10-01T08:31:24.000Z</time>
      </trkpt>
      <trkpt lat="45.00604" lon="5.81634">
        <ele>1661.4000244141</ele>
        <time>2023-10-01T08:31:25.000Z</time>
      </trkpt>
      <trkpt lat="45.00603" lon="5.81634">
        <ele>1661.8000488281</ele>
        <time>2023-10-01T08:31:26.000Z</time>
      </trkpt>
      <trkpt lat="45.00603" lon="5.81634">
        <ele>1662.1999511719</ele>
        <time>2023-10-01T08:31:27.000Z</time>
      </trkpt>
      <trkpt lat="45.00603" lon="5.81634">
        <ele>1662.4000244141</ele>
        <time>2023-10-01T08:31:28.000Z</time>
      </trkpt>
      <trkpt lat="45.00602" lon="5.81635">
        <ele>1662.8000488281</ele>
        <time>2023-10-01T08:31:29.000Z</time>
      </trkpt>
      <trkpt lat="45.00602" lon="5.81635">
        <ele>1663</ele>
        <time>2023-10-01T08:31:30.000Z</time>
      </trkpt>
      <trkpt lat="45.00602" lon="5.81636">
        <ele>1663.4000244141</ele>
        <time>2023-10-01T08:31:31.000Z</time>
      </trkpt>
      <trkpt lat="45.00603" lon="5.81637">
        <ele>1663.8000488281</ele>
        <time>2023-10-01T08:31:32.000Z</time>
      </trkpt>
      <trkpt lat="45.00604" lon="5.81638">
        <ele>1664.1999511719</ele>
        <time>2023-10-01T08:31:33.000Z</time>
      </trkpt>
      <trkpt lat="45.00604" lon="5.81639">
        <ele>1664.4000244141</ele>
        <time>2023-10-01T08:31:34.000Z</time>
      </trkpt>
      <trkpt lat="45.00604" lon="5.8164">
        <ele>1664.5999755859</ele>
        <time>2023-10-01T08:31:35.000Z</time>
      </trkpt>
      <trkpt lat="45.00604" lon="5.81641">
        <ele>1664.8000488281</ele>
        <time>2023-10-01T08:31:36.000Z</time>
      </trkpt>
      <trkpt lat="45.00603" lon="5.81642">
        <ele>1665.1999511719</ele>
        <time>2023-10-01T08:31:37.000Z</time>
      </trkpt>
      <trkpt lat="45.00604" lon="5.81642">
        <ele>1665.4000244141</ele>
        <time>2023-10-01T08:31:38.000Z</time>
      </trkpt>
      <trkpt lat="45.00604" lon="5.81642">
        <ele>1665.5999755859</ele>
        <time>2023-10-01T08:31:39.000Z</time>
      </trkpt>
      <trkpt lat="45.00604" lon="5.81643">
        <ele>1665.8000488281</ele>
        <time>2023-10-01T08:31:40.000Z</time>
      </trkpt>
      <trkpt lat="45.00604" lon="5.81644">
        <ele>1666</ele>
        <time>2023-10-01T08:31:41.000Z</time>
      </trkpt>
      <trkpt lat="45.00604" lon="5.81644">
        <ele>1666.4000244141</ele>
        <time>2023-10-01T08:31:42.000Z</time>
      </trkpt>
      <trkpt lat="45.00604" lon="5.81645">
        <ele>1666.5999755859</ele>
        <time>2023-10-01T08:31:43.000Z</time>
      </trkpt>
      <trkpt lat="45.00604" lon="5.81646">
        <ele>1667</ele>
        <time>2023-10-01T08:31:44.000Z</time>
      </trkpt>
      <trkpt lat="45.00605" lon="5.81646">
        <ele>1667.1999511719</ele>
        <time>2023-10-01T08:31:45.000Z</time>
      </trkpt>
      <trkpt lat="45.00605" lon="5.81646">
        <ele>1667.5999755859</ele>
        <time>2023-10-01T08:31:46.000Z</time>
      </trkpt>
      <trkpt lat="45.00605" lon="5.81647">
        <ele>1667.5999755859</ele>
        <time>2023-10-01T08:31:47.000Z</time>
      </trkpt>
      <trkpt lat="45.00605" lon="5.81647">
        <ele>1667.8000488281</ele>
        <time>2023-10-01T08:31:48.000Z</time>
      </trkpt>
      <trkpt lat="45.00606" lon="5.81647">
        <ele>1668.1999511719</ele>
        <time>2023-10-01T08:31:49.000Z</time>
      </trkpt>
      <trkpt lat="45.00605" lon="5.81646">
        <ele>1668.4000244141</ele>
        <time>2023-10-01T08:31:50.000Z</time>
      </trkpt>
      <trkpt lat="45.00605" lon="5.81647">
        <ele>1668.4000244141</ele>
        <time>2023-10-01T08:31:51.000Z</time>
      </trkpt>
      <trkpt lat="45.00606" lon="5.81648">
        <ele>1668.4000244141</ele>
        <time>2023-10-01T08:31:52.000Z</time>
      </trkpt>
      <trkpt lat="45.00606" lon="5.81648">
        <ele>1668.4000244141</ele>
        <time>2023-10-01T08:31:53.000Z</time>
      </trkpt>
      <trkpt lat="45.00606" lon="5.81648">
        <ele>1668.5999755859</ele>
        <time>2023-10-01T08:31:54.000Z</time>
      </trkpt>
      <trkpt lat="45.00606" lon="5.81649">
        <ele>1668.5999755859</ele>
        <time>2023-10-01T08:31:55.000Z</time>
      </trkpt>
      <trkpt lat="45.00605" lon="5.81649">
        <ele>1668.5999755859</ele>
        <time>2023-10-01T08:31:56.000Z</time>
      </trkpt>
      <trkpt lat="45.00605" lon="5.8165">
        <ele>1668.8000488281</ele>
        <time>2023-10-01T08:31:57.000Z</time>
      </trkpt>
      <trkpt lat="45.00605" lon="5.8165">
        <ele>1669</ele>
        <time>2023-10-01T08:31:58.000Z</time>
      </trkpt>
      <trkpt lat="45.00605" lon="5.8165">
        <ele>1669.1999511719</ele>
        <time>2023-10-01T08:31:59.000Z</time>
      </trkpt>
      <trkpt lat="45.00605" lon="5.81651">
        <ele>1669.5999755859</ele>
        <time>2023-10-01T08:32:00.000Z</time>
      </trkpt>
      <trkpt lat="45.00605" lon="5.81652">
        <ele>1670</ele>
        <time>2023-10-01T08:32:01.000Z</time>
      </trkpt>
      <trkpt lat="45.00605" lon="5.81652">
        <ele>1670.4000244141</ele>
        <time>2023-10-01T08:32:02.000Z</time>
      </trkpt>
      <trkpt lat="45.00605" lon="5.81652">
        <ele>1671</ele>
        <time>2023-10-01T08:32:03.000Z</time>
      </trkpt>
      <trkpt lat="45.00605" lon="5.81652">
        <ele>1671.1999511719</ele>
        <time>2023-10-01T08:32:04.000Z</time>
      </trkpt>
      <trkpt lat="45.00605" lon="5.81653">
        <ele>1671.4000244141</ele>
        <time>2023-10-01T08:32:05.000Z</time>
      </trkpt>
      <trkpt lat="45.00605" lon="5.81653">
        <ele>1671.8000488281</ele>
        <time>2023-10-01T08:32:06.000Z</time>
      </trkpt>
      <trkpt lat="45.00605" lon="5.81654">
        <ele>1672</ele>
        <time>2023-10-01T08:32:07.000Z</time>
      </trkpt>
      <trkpt lat="45.00605" lon="5.81655">
        <ele>1672.1999511719</ele>
        <time>2023-10-01T08:32:08.000Z</time>
      </trkpt>
      <trkpt lat="45.00605" lon="5.81655">
        <ele>1672.4000244141</ele>
        <time>2023-10-01T08:32:09.000Z</time>
      </trkpt>
      <trkpt lat="45.00605" lon="5.81656">
        <ele>1673</ele>
        <time>2023-10-01T08:32:10.000Z</time>
      </trkpt>
      <trkpt lat="45.00605" lon="5.81656">
        <ele>1673.4000244141</ele>
        <time>2023-10-01T08:32:11.000Z</time>
      </trkpt>
      <trkpt lat="45.00604" lon="5.81657">
        <ele>1673.5999755859</ele>
        <time>2023-10-01T08:32:12.000Z</time>
      </trkpt>
      <trkpt lat="45.00604" lon="5.81658">
        <ele>1674</ele>
        <time>2023-10-01T08:32:13.000Z</time>
      </trkpt>
      <trkpt lat="45.00604" lon="5.81658">
        <ele>1674.1999511719</ele>
        <time>2023-10-01T08:32:14.000Z</time>
      </trkpt>
      <trkpt lat="45.00604" lon="5.81659">
        <ele>1674.4000244141</ele>
        <time>2023-10-01T08:32:15.000Z</time>
      </trkpt>
      <trkpt lat="45.00604" lon="5.81659">
        <ele>1675</ele>
        <time>2023-10-01T08:32:16.000Z</time>
      </trkpt>
      <trkpt lat="45.00604" lon="5.81659">
        <ele>1675.1999511719</ele>
        <time>2023-10-01T08:32:17.000Z</time>
      </trkpt>
      <trkpt lat="45.00604" lon="5.8166">
        <ele>1675.5999755859</ele>
        <time>2023-10-01T08:32:18.000Z</time>
      </trkpt>
      <trkpt lat="45.00604" lon="5.81661">
        <ele>1676</ele>
        <time>2023-10-01T08:32:19.000Z</time>
      </trkpt>
      <trkpt lat="45.00604" lon="5.81662">
        <ele>1676.1999511719</ele>
        <time>2023-10-01T08:32:20.000Z</time>
      </trkpt>
      <trkpt lat="45.00603" lon="5.81663">
        <ele>1676.5999755859</ele>
        <time>2023-10-01T08:32:21.000Z</time>
      </trkpt>
      <trkpt lat="45.00604" lon="5.81664">
        <ele>1676.8000488281</ele>
        <time>2023-10-01T08:32:22.000Z</time>
      </trkpt>
      <trkpt lat="45.00604" lon="5.81664">
        <ele>1677.1999511719</ele>
        <time>2023-10-01T08:32:23.000Z</time>
      </trkpt>
      <trkpt lat="45.00604" lon="5.81664">
        <ele>1677.4000244141</ele>
        <time>2023-10-01T08:32:24.000Z</time>
      </trkpt>
      <trkpt lat="45.00603" lon="5.81665">
        <ele>1677.8000488281</ele>
        <time>2023-10-01T08:32:25.000Z</time>
      </trkpt>
      <trkpt lat="45.00603" lon="5.81665">
        <ele>1678</ele>
        <time>2023-10-01T08:32:26.000Z</time>
      </trkpt>
      <trkpt lat="45.00603" lon="5.81666">
        <ele>1678.1999511719</ele>
        <time>2023-10-01T08:32:27.000Z</time>
      </trkpt>
      <trkpt lat="45.00603" lon="5.81667">
        <ele>1678.5999755859</ele>
        <time>2023-10-01T08:32:28.000Z</time>
      </trkpt>
      <trkpt lat="45.00603" lon="5.81667">
        <ele>1678.8000488281</ele>
        <time>2023-10-01T08:32:29.000Z</time>
      </trkpt>
      <trkpt lat="45.00603" lon="5.81668">
        <ele>1679</ele>
        <time>2023-10-01T08:32:30.000Z</time>
      </trkpt>
      <trkpt lat="45.00603" lon="5.81668">
        <ele>1679.4000244141</ele>
        <time>2023-10-01T08:32:31.000Z</time>
      </trkpt>
      <trkpt lat="45.00603" lon="5.81669">
        <ele>1679.8000488281</ele>
        <time>2023-10-01T08:32:32.000Z</time>
      </trkpt>
      <trkpt lat="45.00602" lon="5.81669">
        <ele>1680.1999511719</ele>
        <time>2023-10-01T08:32:33.000Z</time>
      </trkpt>
      <trkpt lat="45.00602" lon="5.8167">
        <ele>1680.5999755859</ele>
        <time>2023-10-01T08:32:34.000Z</time>
      </trkpt>
      <trkpt lat="45.00603" lon="5.8167">
        <ele>1680.8000488281</ele>
        <time>2023-10-01T08:32:35.000Z</time>
      </trkpt>
      <trkpt lat="45.00603" lon="5.8167">
        <ele>1681</ele>
        <time>2023-10-01T08:32:36.000Z</time>
      </trkpt>
      <trkpt lat="45.00602" lon="5.8167">
        <ele>1681.1999511719</ele>
        <time>2023-10-01T08:32:37.000Z</time>
      </trkpt>
      <trkpt lat="45.00602" lon="5.81671">
        <ele>1681.8000488281</ele>
        <time>2023-10-01T08:32:38.000Z</time>
      </trkpt>
      <trkpt lat="45.00602" lon="5.81672">
        <ele>1682.1999511719</ele>
        <time>2023-10-01T08:32:39.000Z</time>
      </trkpt>
      <trkpt lat="45.00602" lon="5.81672">
        <ele>1682.5999755859</ele>
        <time>2023-10-01T08:32:40.000Z</time>
      </trkpt>
      <trkpt lat="45.00602" lon="5.81673">
        <ele>1682.8000488281</ele>
        <time>2023-10-01T08:32:41.000Z</time>
      </trkpt>
      <trkpt lat="45.00602" lon="5.81673">
        <ele>1683</ele>
        <time>2023-10-01T08:32:42.000Z</time>
      </trkpt>
      <trkpt lat="45.00602" lon="5.81673">
        <ele>1683.4000244141</ele>
        <time>2023-10-01T08:32:43.000Z</time>
      </trkpt>
      <trkpt lat="45.00601" lon="5.81674">
        <ele>1683.8000488281</ele>
        <time>2023-10-01T08:32:44.000Z</time>
      </trkpt>
      <trkpt lat="45.00601" lon="5.81675">
        <ele>1684</ele>
        <time>2023-10-01T08:32:45.000Z</time>
      </trkpt>
      <trkpt lat="45.00601" lon="5.81675">
        <ele>1684.4000244141</ele>
        <time>2023-10-01T08:32:46.000Z</time>
      </trkpt>
      <trkpt lat="45.00601" lon="5.81676">
        <ele>1684.5999755859</ele>
        <time>2023-10-01T08:32:47.000Z</time>
      </trkpt>
      <trkpt lat="45.00601" lon="5.81677">
        <ele>1684.8000488281</ele>
        <time>2023-10-01T08:32:48.000Z</time>
      </trkpt>
      <trkpt lat="45.00601" lon="5.81677">
        <ele>1685.1999511719</ele>
        <time>2023-10-01T08:32:49.000Z</time>
      </trkpt>
      <trkpt lat="45.00601" lon="5.81677">
        <ele>1685.4000244141</ele>
        <time>2023-10-01T08:32:50.000Z</time>
      </trkpt>
      <trkpt lat="45.00601" lon="5.81678">
        <ele>1685.8000488281</ele>
        <time>2023-10-01T08:32:51.000Z</time>
      </trkpt>
      <trkpt lat="45.00601" lon="5.81678">
        <ele>1686</ele>
        <time>2023-10-01T08:32:52.000Z</time>
      </trkpt>
      <trkpt lat="45.00601" lon="5.81678">
        <ele>1686.4000244141</ele>
        <time>2023-10-01T08:32:53.000Z</time>
      </trkpt>
      <trkpt lat="45.00601" lon="5.81679">
        <ele>1686.5999755859</ele>
        <time>2023-10-01T08:32:54.000Z</time>
      </trkpt>
      <trkpt lat="45.00601" lon="5.81679">
        <ele>1687</ele>
        <time>2023-10-01T08:32:55.000Z</time>
      </trkpt>
      <trkpt lat="45.00601" lon="5.8168">
        <ele>1687.4000244141</ele>
        <time>2023-10-01T08:32:56.000Z</time>
      </trkpt>
      <trkpt lat="45.00601" lon="5.8168">
        <ele>1687.5999755859</ele>
        <time>2023-10-01T08:32:57.000Z</time>
      </trkpt>
      <trkpt lat="45.006" lon="5.81681">
        <ele>1687.8000488281</ele>
        <time>2023-10-01T08:32:58.000Z</time>
      </trkpt>
      <trkpt lat="45.00601" lon="5.81681">
        <ele>1688.1999511719</ele>
        <time>2023-10-01T08:32:59.000Z</time>
      </trkpt>
      <trkpt lat="45.00601" lon="5.81681">
        <ele>1688.4000244141</ele>
        <time>2023-10-01T08:33:00.000Z</time>
      </trkpt>
      <trkpt lat="45.00601" lon="5.81683">
        <ele>1688.5999755859</ele>
        <time>2023-10-01T08:33:01.000Z</time>
      </trkpt>
      <trkpt lat="45.006" lon="5.81684">
        <ele>1688.8000488281</ele>
        <time>2023-10-01T08:33:02.000Z</time>
      </trkpt>
      <trkpt lat="45.006" lon="5.81684">
        <ele>1689.1999511719</ele>
        <time>2023-10-01T08:33:03.000Z</time>
      </trkpt>
      <trkpt lat="45.006" lon="5.81685">
        <ele>1689.5999755859</ele>
        <time>2023-10-01T08:33:04.000Z</time>
      </trkpt>
      <trkpt lat="45.006" lon="5.81686">
        <ele>1690</ele>
        <time>2023-10-01T08:33:05.000Z</time>
      </trkpt>
      <trkpt lat="45.006" lon="5.81686">
        <ele>1690.4000244141</ele>
        <time>2023-10-01T08:33:06.000Z</time>
      </trkpt>
      <trkpt lat="45.006" lon="5.81687">
        <ele>1690.5999755859</ele>
        <time>2023-10-01T08:33:07.000Z</time>
      </trkpt>
      <trkpt lat="45.006" lon="5.81687">
        <ele>1690.8000488281</ele>
        <time>2023-10-01T08:33:08.000Z</time>
      </trkpt>
      <trkpt lat="45.006" lon="5.81688">
        <ele>1691.1999511719</ele>
        <time>2023-10-01T08:33:09.000Z</time>
      </trkpt>
      <trkpt lat="45.006" lon="5.81688">
        <ele>1691.5999755859</ele>
        <time>2023-10-01T08:33:10.000Z</time>
      </trkpt>
      <trkpt lat="45.006" lon="5.81688">
        <ele>1691.8000488281</ele>
        <time>2023-10-01T08:33:11.000Z</time>
      </trkpt>
      <trkpt lat="45.006" lon="5.81688">
        <ele>1692</ele>
        <time>2023-10-01T08:33:12.000Z</time>
      </trkpt>
      <trkpt lat="45.006" lon="5.81689">
        <ele>1692.1999511719</ele>
        <time>2023-10-01T08:33:13.000Z</time>
      </trkpt>
      <trkpt lat="45.006" lon="5.81689">
        <ele>1692.5999755859</ele>
        <time>2023-10-01T08:33:14.000Z</time>
      </trkpt>
      <trkpt lat="45.006" lon="5.8169">
        <ele>1692.8000488281</ele>
        <time>2023-10-01T08:33:15.000Z</time>
      </trkpt>
      <trkpt lat="45.00599" lon="5.8169">
        <ele>1693</ele>
        <time>2023-10-01T08:33:16.000Z</time>
      </trkpt>
      <trkpt lat="45.006" lon="5.8169">
        <ele>1693.1999511719</ele>
        <time>2023-10-01T08:33:17.000Z</time>
      </trkpt>
      <trkpt lat="45.006" lon="5.81691">
        <ele>1693.4000244141</ele>
        <time>2023-10-01T08:33:18.000Z</time>
      </trkpt>
      <trkpt lat="45.006" lon="5.81692">
        <ele>1693.8000488281</ele>
        <time>2023-10-01T08:33:19.000Z</time>
      </trkpt>
      <trkpt lat="45.006" lon="5.81692">
        <ele>1694.1999511719</ele>
        <time>2023-10-01T08:33:20.000Z</time>
      </trkpt>
      <trkpt lat="45.006" lon="5.81693">
        <ele>1694.4000244141</ele>
        <time>2023-10-01T08:33:21.000Z</time>
      </trkpt>
      <trkpt lat="45.006" lon="5.81693">
        <ele>1694.5999755859</ele>
        <time>2023-10-01T08:33:22.000Z</time>
      </trkpt>
      <trkpt lat="45.00599" lon="5.81694">
        <ele>1695</ele>
        <time>2023-10-01T08:33:23.000Z</time>
      </trkpt>
      <trkpt lat="45.00599" lon="5.81695">
        <ele>1695.1999511719</ele>
        <time>2023-10-01T08:33:24.000Z</time>
      </trkpt>
      <trkpt lat="45.00598" lon="5.81695">
        <ele>1695.4000244141</ele>
        <time>2023-10-01T08:33:25.000Z</time>
      </trkpt>
      <trkpt lat="45.00598" lon="5.81695">
        <ele>1695.5999755859</ele>
        <time>2023-10-01T08:33:26.000Z</time>
      </trkpt>
      <trkpt lat="45.00598" lon="5.81695">
        <ele>1695.8000488281</ele>
        <time>2023-10-01T08:33:27.000Z</time>
      </trkpt>
      <trkpt lat="45.00599" lon="5.81695">
        <ele>1696.1999511719</ele>
        <time>2023-10-01T08:33:28.000Z</time>
      </trkpt>
      <trkpt lat="45.00599" lon="5.81695">
        <ele>1696.4000244141</ele>
        <time>2023-10-01T08:33:29.000Z</time>
      </trkpt>
      <trkpt lat="45.00599" lon="5.81695">
        <ele>1696.5999755859</ele>
        <time>2023-10-01T08:33:30.000Z</time>
      </trkpt>
      <trkpt lat="45.006" lon="5.81697">
        <ele>1697</ele>
        <time>2023-10-01T08:33:31.000Z</time>
      </trkpt>
      <trkpt lat="45.006" lon="5.81697">
        <ele>1697.4000244141</ele>
        <time>2023-10-01T08:33:32.000Z</time>
      </trkpt>
      <trkpt lat="45.006" lon="5.81698">
        <ele>1697.5999755859</ele>
        <time>2023-10-01T08:33:33.000Z</time>
      </trkpt>
      <trkpt lat="45.00599" lon="5.81698">
        <ele>1698</ele>
        <time>2023-10-01T08:33:34.000Z</time>
      </trkpt>
      <trkpt lat="45.00599" lon="5.81699">
        <ele>1698.1999511719</ele>
        <time>2023-10-01T08:33:35.000Z</time>
      </trkpt>
      <trkpt lat="45.00599" lon="5.81699">
        <ele>1698.1999511719</ele>
        <time>2023-10-01T08:33:36.000Z</time>
      </trkpt>
      <trkpt lat="45.00599" lon="5.817">
        <ele>1698.5999755859</ele>
        <time>2023-10-01T08:33:37.000Z</time>
      </trkpt>
      <trkpt lat="45.00599" lon="5.817">
        <ele>1698.8000488281</ele>
        <time>2023-10-01T08:33:38.000Z</time>
      </trkpt>
      <trkpt lat="45.00599" lon="5.81701">
        <ele>1699</ele>
        <time>2023-10-01T08:33:39.000Z</time>
      </trkpt>
      <trkpt lat="45.00599" lon="5.81702">
        <ele>1699.1999511719</ele>
        <time>2023-10-01T08:33:40.000Z</time>
      </trkpt>
      <trkpt lat="45.00598" lon="5.81703">
        <ele>1699.5999755859</ele>
        <time>2023-10-01T08:33:41.000Z</time>
      </trkpt>
      <trkpt lat="45.00598" lon="5.81703">
        <ele>1699.5999755859</ele>
        <time>2023-10-01T08:33:42.000Z</time>
      </trkpt>
      <trkpt lat="45.00598" lon="5.81704">
        <ele>1699.8000488281</ele>
        <time>2023-10-01T08:33:43.000Z</time>
      </trkpt>
      <trkpt lat="45.00597" lon="5.81705">
        <ele>1700</ele>
        <time>2023-10-01T08:33:44.000Z</time>
      </trkpt>
      <trkpt lat="45.00597" lon="5.81706">
        <ele>1700</ele>
        <time>2023-10-01T08:33:45.000Z</time>
      </trkpt>
      <trkpt lat="45.00596" lon="5.81707">
        <ele>1700.1999511719</ele>
        <time>2023-10-01T08:33:46.000Z</time>
      </trkpt>
      <trkpt lat="45.00596" lon="5.81707">
        <ele>1700.4000244141</ele>
        <time>2023-10-01T08:33:47.000Z</time>
      </trkpt>
      <trkpt lat="45.00596" lon="5.81707">
        <ele>1700.5999755859</ele>
        <time>2023-10-01T08:33:48.000Z</time>
      </trkpt>
      <trkpt lat="45.00597" lon="5.81707">
        <ele>1701</ele>
        <time>2023-10-01T08:33:49.000Z</time>
      </trkpt>
      <trkpt lat="45.00597" lon="5.81707">
        <ele>1701.1999511719</ele>
        <time>2023-10-01T08:33:50.000Z</time>
      </trkpt>
      <trkpt lat="45.00597" lon="5.81707">
        <ele>1701.1999511719</ele>
        <time>2023-10-01T08:33:51.000Z</time>
      </trkpt>
      <trkpt lat="45.00598" lon="5.81708">
        <ele>1701.5999755859</ele>
        <time>2023-10-01T08:33:52.000Z</time>
      </trkpt>
      <trkpt lat="45.00598" lon="5.81708">
        <ele>1701.8000488281</ele>
        <time>2023-10-01T08:33:53.000Z</time>
      </trkpt>
      <trkpt lat="45.00598" lon="5.81708">
        <ele>1702</ele>
        <time>2023-10-01T08:33:54.000Z</time>
      </trkpt>
      <trkpt lat="45.00598" lon="5.81708">
        <ele>1702.1999511719</ele>
        <time>2023-10-01T08:33:55.000Z</time>
      </trkpt>
      <trkpt lat="45.00598" lon="5.81709">
        <ele>1702.4000244141</ele>
        <time>2023-10-01T08:33:56.000Z</time>
      </trkpt>
      <trkpt lat="45.00599" lon="5.81709">
        <ele>1702.4000244141</ele>
        <time>2023-10-01T08:33:57.000Z</time>
      </trkpt>
      <trkpt lat="45.00599" lon="5.8171">
        <ele>1702.8000488281</ele>
        <time>2023-10-01T08:33:58.000Z</time>
      </trkpt>
      <trkpt lat="45.00598" lon="5.8171">
        <ele>1703.1999511719</ele>
        <time>2023-10-01T08:33:59.000Z</time>
      </trkpt>
      <trkpt lat="45.00598" lon="5.8171">
        <ele>1703.4000244141</ele>
        <time>2023-10-01T08:34:00.000Z</time>
      </trkpt>
      <trkpt lat="45.00597" lon="5.8171">
        <ele>1703.5999755859</ele>
        <time>2023-10-01T08:34:01.000Z</time>
      </trkpt>
      <trkpt lat="45.00597" lon="5.8171">
        <ele>1704</ele>
        <time>2023-10-01T08:34:02.000Z</time>
      </trkpt>
      <trkpt lat="45.00596" lon="5.81711">
        <ele>1704.1999511719</ele>
        <time>2023-10-01T08:34:03.000Z</time>
      </trkpt>
      <trkpt lat="45.00596" lon="5.81712">
        <ele>1704.1999511719</ele>
        <time>2023-10-01T08:34:04.000Z</time>
      </trkpt>
      <trkpt lat="45.00596" lon="5.81712">
        <ele>1704.4000244141</ele>
        <time>2023-10-01T08:34:05.000Z</time>
      </trkpt>
      <trkpt lat="45.00596" lon="5.81712">
        <ele>1704.5999755859</ele>
        <time>2023-10-01T08:34:06.000Z</time>
      </trkpt>
      <trkpt lat="45.00596" lon="5.81713">
        <ele>1704.8000488281</ele>
        <time>2023-10-01T08:34:07.000Z</time>
      </trkpt>
      <trkpt lat="45.00596" lon="5.81713">
        <ele>1705.1999511719</ele>
        <time>2023-10-01T08:34:08.000Z</time>
      </trkpt>
      <trkpt lat="45.00596" lon="5.81714">
        <ele>1705.8000488281</ele>
        <time>2023-10-01T08:34:09.000Z</time>
      </trkpt>
      <trkpt lat="45.00596" lon="5.81713">
        <ele>1706</ele>
        <time>2023-10-01T08:34:10.000Z</time>
      </trkpt>
      <trkpt lat="45.00596" lon="5.81714">
        <ele>1706.1999511719</ele>
        <time>2023-10-01T08:34:11.000Z</time>
      </trkpt>
      <trkpt lat="45.00596" lon="5.81714">
        <ele>1706.5999755859</ele>
        <time>2023-10-01T08:34:12.000Z</time>
      </trkpt>
      <trkpt lat="45.00596" lon="5.81715">
        <ele>1706.8000488281</ele>
        <time>2023-10-01T08:34:13.000Z</time>
      </trkpt>
      <trkpt lat="45.00596" lon="5.81715">
        <ele>1707.4000244141</ele>
        <time>2023-10-01T08:34:14.000Z</time>
      </trkpt>
      <trkpt lat="45.00596" lon="5.81716">
        <ele>1707.5999755859</ele>
        <time>2023-10-01T08:34:15.000Z</time>
      </trkpt>
      <trkpt lat="45.00596" lon="5.81717">
        <ele>1707.8000488281</ele>
        <time>2023-10-01T08:34:16.000Z</time>
      </trkpt>
      <trkpt lat="45.00596" lon="5.81718">
        <ele>1708.1999511719</ele>
        <time>2023-10-01T08:34:17.000Z</time>
      </trkpt>
      <trkpt lat="45.00595" lon="5.8172">
        <ele>1708.4000244141</ele>
        <time>2023-10-01T08:34:18.000Z</time>
      </trkpt>
      <trkpt lat="45.00596" lon="5.8172">
        <ele>1708.8000488281</ele>
        <time>2023-10-01T08:34:19.000Z</time>
      </trkpt>
      <trkpt lat="45.00595" lon="5.8172">
        <ele>1709</ele>
        <time>2023-10-01T08:34:20.000Z</time>
      </trkpt>
      <trkpt lat="45.00596" lon="5.81721">
        <ele>1709.4000244141</ele>
        <time>2023-10-01T08:34:21.000Z</time>
      </trkpt>
      <trkpt lat="45.00596" lon="5.81721">
        <ele>1709.5999755859</ele>
        <time>2023-10-01T08:34:22.000Z</time>
      </trkpt>
      <trkpt lat="45.00596" lon="5.81721">
        <ele>1710</ele>
        <time>2023-10-01T08:34:23.000Z</time>
      </trkpt>
      <trkpt lat="45.00596" lon="5.81722">
        <ele>1710.4000244141</ele>
        <time>2023-10-01T08:34:24.000Z</time>
      </trkpt>
      <trkpt lat="45.00595" lon="5.81722">
        <ele>1710.5999755859</ele>
        <time>2023-10-01T08:34:25.000Z</time>
      </trkpt>
      <trkpt lat="45.00595" lon="5.81722">
        <ele>1711</ele>
        <time>2023-10-01T08:34:26.000Z</time>
      </trkpt>
      <trkpt lat="45.00595" lon="5.81723">
        <ele>1711.1999511719</ele>
        <time>2023-10-01T08:34:27.000Z</time>
      </trkpt>
      <trkpt lat="45.00595" lon="5.81722">
        <ele>1711.4000244141</ele>
        <time>2023-10-01T08:34:28.000Z</time>
      </trkpt>
      <trkpt lat="45.00595" lon="5.81723">
        <ele>1711.8000488281</ele>
        <time>2023-10-01T08:34:29.000Z</time>
      </trkpt>
      <trkpt lat="45.00595" lon="5.81724">
        <ele>1712.1999511719</ele>
        <time>2023-10-01T08:34:30.000Z</time>
      </trkpt>
      <trkpt lat="45.00595" lon="5.81725">
        <ele>1712.4000244141</ele>
        <time>2023-10-01T08:34:31.000Z</time>
      </trkpt>
      <trkpt lat="45.00595" lon="5.81725">
        <ele>1712.5999755859</ele>
        <time>2023-10-01T08:34:32.000Z</time>
      </trkpt>
      <trkpt lat="45.00595" lon="5.81727">
        <ele>1713</ele>
        <time>2023-10-01T08:34:33.000Z</time>
      </trkpt>
      <trkpt lat="45.00595" lon="5.81728">
        <ele>1713.1999511719</ele>
        <time>2023-10-01T08:34:34.000Z</time>
      </trkpt>
      <trkpt lat="45.00595" lon="5.81728">
        <ele>1713.5999755859</ele>
        <time>2023-10-01T08:34:35.000Z</time>
      </trkpt>
      <trkpt lat="45.00595" lon="5.81729">
        <ele>1713.8000488281</ele>
        <time>2023-10-01T08:34:36.000Z</time>
      </trkpt>
      <trkpt lat="45.00595" lon="5.81729">
        <ele>1714.1999511719</ele>
        <time>2023-10-01T08:34:37.000Z</time>
      </trkpt>
      <trkpt lat="45.00595" lon="5.8173">
        <ele>1714.4000244141</ele>
        <time>2023-10-01T08:34:38.000Z</time>
      </trkpt>
      <trkpt lat="45.00594" lon="5.8173">
        <ele>1714.5999755859</ele>
        <time>2023-10-01T08:34:39.000Z</time>
      </trkpt>
      <trkpt lat="45.00594" lon="5.8173">
        <ele>1715</ele>
        <time>2023-10-01T08:34:40.000Z</time>
      </trkpt>
      <trkpt lat="45.00594" lon="5.81731">
        <ele>1715.4000244141</ele>
        <time>2023-10-01T08:34:41.000Z</time>
      </trkpt>
      <trkpt lat="45.00594" lon="5.81731">
        <ele>1715.5999755859</ele>
        <time>2023-10-01T08:34:42.000Z</time>
      </trkpt>
      <trkpt lat="45.00594" lon="5.81732">
        <ele>1716</ele>
        <time>2023-10-01T08:34:43.000Z</time>
      </trkpt>
      <trkpt lat="45.00593" lon="5.81732">
        <ele>1716.1999511719</ele>
        <time>2023-10-01T08:34:44.000Z</time>
      </trkpt>
      <trkpt lat="45.00593" lon="5.81733">
        <ele>1716.4000244141</ele>
        <time>2023-10-01T08:34:45.000Z</time>
      </trkpt>
      <trkpt lat="45.00593" lon="5.81734">
        <ele>1716.8000488281</ele>
        <time>2023-10-01T08:34:46.000Z</time>
      </trkpt>
      <trkpt lat="45.00593" lon="5.81733">
        <ele>1717</ele>
        <time>2023-10-01T08:34:47.000Z</time>
      </trkpt>
      <trkpt lat="45.00593" lon="5.81734">
        <ele>1717.4000244141</ele>
        <time>2023-10-01T08:34:48.000Z</time>
      </trkpt>
      <trkpt lat="45.00593" lon="5.81734">
        <ele>1717.5999755859</ele>
        <time>2023-10-01T08:34:49.000Z</time>
      </trkpt>
      <trkpt lat="45.00593" lon="5.81734">
        <ele>1717.8000488281</ele>
        <time>2023-10-01T08:34:50.000Z</time>
      </trkpt>
      <trkpt lat="45.00593" lon="5.81734">
        <ele>1718.1999511719</ele>
        <time>2023-10-01T08:34:51.000Z</time>
      </trkpt>
      <trkpt lat="45.00593" lon="5.81735">
        <ele>1718.4000244141</ele>
        <time>2023-10-01T08:34:52.000Z</time>
      </trkpt>
      <trkpt lat="45.00593" lon="5.81735">
        <ele>1718.5999755859</ele>
        <time>2023-10-01T08:34:53.000Z</time>
      </trkpt>
      <trkpt lat="45.00593" lon="5.81736">
        <ele>1718.8000488281</ele>
        <time>2023-10-01T08:34:54.000Z</time>
      </trkpt>
      <trkpt lat="45.00592" lon="5.81737">
        <ele>1719.1999511719</ele>
        <time>2023-10-01T08:34:55.000Z</time>
      </trkpt>
      <trkpt lat="45.00593" lon="5.81737">
        <ele>1719.5999755859</ele>
        <time>2023-10-01T08:34:56.000Z</time>
      </trkpt>
      <trkpt lat="45.00592" lon="5.81737">
        <ele>1719.8000488281</ele>
        <time>2023-10-01T08:34:57.000Z</time>
      </trkpt>
      <trkpt lat="45.00592" lon="5.81739">
        <ele>1719.8000488281</ele>
        <time>2023-10-01T08:34:58.000Z</time>
      </trkpt>
      <trkpt lat="45.00592" lon="5.81739">
        <ele>1720.1999511719</ele>
        <time>2023-10-01T08:34:59.000Z</time>
      </trkpt>
      <trkpt lat="45.00592" lon="5.8174">
        <ele>1720.4000244141</ele>
        <time>2023-10-01T08:35:00.000Z</time>
      </trkpt>
      <trkpt lat="45.00592" lon="5.81741">
        <ele>1720.5999755859</ele>
        <time>2023-10-01T08:35:01.000Z</time>
      </trkpt>
      <trkpt lat="45.00592" lon="5.81741">
        <ele>1721</ele>
        <time>2023-10-01T08:35:02.000Z</time>
      </trkpt>
      <trkpt lat="45.00592" lon="5.81742">
        <ele>1721.1999511719</ele>
        <time>2023-10-01T08:35:03.000Z</time>
      </trkpt>
      <trkpt lat="45.00592" lon="5.81743">
        <ele>1721.5999755859</ele>
        <time>2023-10-01T08:35:04.000Z</time>
      </trkpt>
      <trkpt lat="45.00592" lon="5.81744">
        <ele>1721.8000488281</ele>
        <time>2023-10-01T08:35:05.000Z</time>
      </trkpt>
      <trkpt lat="45.00592" lon="5.81744">
        <ele>1722.1999511719</ele>
        <time>2023-10-01T08:35:06.000Z</time>
      </trkpt>
      <trkpt lat="45.00592" lon="5.81744">
        <ele>1722.4000244141</ele>
        <time>2023-10-01T08:35:07.000Z</time>
      </trkpt>
      <trkpt lat="45.00592" lon="5.81745">
        <ele>1722.8000488281</ele>
        <time>2023-10-01T08:35:08.000Z</time>
      </trkpt>
      <trkpt lat="45.00592" lon="5.81745">
        <ele>1723</ele>
        <time>2023-10-01T08:35:09.000Z</time>
      </trkpt>
      <trkpt lat="45.00592" lon="5.81746">
        <ele>1723.4000244141</ele>
        <time>2023-10-01T08:35:10.000Z</time>
      </trkpt>
      <trkpt lat="45.00591" lon="5.81747">
        <ele>1723.8000488281</ele>
        <time>2023-10-01T08:35:11.000Z</time>
      </trkpt>
      <trkpt lat="45.00591" lon="5.81747">
        <ele>1723.8000488281</ele>
        <time>2023-10-01T08:35:12.000Z</time>
      </trkpt>
      <trkpt lat="45.00591" lon="5.81748">
        <ele>1724.1999511719</ele>
        <time>2023-10-01T08:35:13.000Z</time>
      </trkpt>
      <trkpt lat="45.00591" lon="5.81749">
        <ele>1724.4000244141</ele>
        <time>2023-10-01T08:35:14.000Z</time>
      </trkpt>
      <trkpt lat="45.00591" lon="5.81749">
        <ele>1724.8000488281</ele>
        <time>2023-10-01T08:35:15.000Z</time>
      </trkpt>
      <trkpt lat="45.00591" lon="5.8175">
        <ele>1725</ele>
        <time>2023-10-01T08:35:16.000Z</time>
      </trkpt>
      <trkpt lat="45.00591" lon="5.81749">
        <ele>1725.1999511719</ele>
        <time>2023-10-01T08:35:17.000Z</time>
      </trkpt>
      <trkpt lat="45.00591" lon="5.81751">
        <ele>1725.5999755859</ele>
        <time>2023-10-01T08:35:18.000Z</time>
      </trkpt>
      <trkpt lat="45.00591" lon="5.81751">
        <ele>1725.8000488281</ele>
        <time>2023-10-01T08:35:19.000Z</time>
      </trkpt>
      <trkpt lat="45.00591" lon="5.81752">
        <ele>1726.1999511719</ele>
        <time>2023-10-01T08:35:20.000Z</time>
      </trkpt>
      <trkpt lat="45.00591" lon="5.81752">
        <ele>1726.4000244141</ele>
        <time>2023-10-01T08:35:21.000Z</time>
      </trkpt>
      <trkpt lat="45.00591" lon="5.81753">
        <ele>1726.5999755859</ele>
        <time>2023-10-01T08:35:22.000Z</time>
      </trkpt>
      <trkpt lat="45.00591" lon="5.81754">
        <ele>1727.1999511719</ele>
        <time>2023-10-01T08:35:23.000Z</time>
      </trkpt>
      <trkpt lat="45.00591" lon="5.81754">
        <ele>1727.1999511719</ele>
        <time>2023-10-01T08:35:24.000Z</time>
      </trkpt>
      <trkpt lat="45.00591" lon="5.81755">
        <ele>1727.5999755859</ele>
        <time>2023-10-01T08:35:25.000Z</time>
      </trkpt>
      <trkpt lat="45.0059" lon="5.81755">
        <ele>1727.8000488281</ele>
        <time>2023-10-01T08:35:26.000Z</time>
      </trkpt>
      <trkpt lat="45.0059" lon="5.81756">
        <ele>1728</ele>
        <time>2023-10-01T08:35:27.000Z</time>
      </trkpt>
      <trkpt lat="45.0059" lon="5.81757">
        <ele>1728.1999511719</ele>
        <time>2023-10-01T08:35:28.000Z</time>
      </trkpt>
      <trkpt lat="45.0059" lon="5.81757">
        <ele>1728.5999755859</ele>
        <time>2023-10-01T08:35:29.000Z</time>
      </trkpt>
      <trkpt lat="45.0059" lon="5.81757">
        <ele>1729</ele>
        <time>2023-10-01T08:35:30.000Z</time>
      </trkpt>
      <trkpt lat="45.0059" lon="5.81758">
        <ele>1729.1999511719</ele>
        <time>2023-10-01T08:35:31.000Z</time>
      </trkpt>
      <trkpt lat="45.0059" lon="5.81758">
        <ele>1729.4000244141</ele>
        <time>2023-10-01T08:35:32.000Z</time>
      </trkpt>
      <trkpt lat="45.0059" lon="5.81759">
        <ele>1729.8000488281</ele>
        <time>2023-10-01T08:35:33.000Z</time>
      </trkpt>
      <trkpt lat="45.0059" lon="5.81759">
        <ele>1730.1999511719</ele>
        <time>2023-10-01T08:35:34.000Z</time>
      </trkpt>
      <trkpt lat="45.0059" lon="5.8176">
        <ele>1730.1999511719</ele>
        <time>2023-10-01T08:35:35.000Z</time>
      </trkpt>
      <trkpt lat="45.0059" lon="5.81761">
        <ele>1730.4000244141</ele>
        <time>2023-10-01T08:35:36.000Z</time>
      </trkpt>
      <trkpt lat="45.0059" lon="5.81761">
        <ele>1730.5999755859</ele>
        <time>2023-10-01T08:35:37.000Z</time>
      </trkpt>
      <trkpt lat="45.0059" lon="5.81762">
        <ele>1731</ele>
        <time>2023-10-01T08:35:38.000Z</time>
      </trkpt>
      <trkpt lat="45.00589" lon="5.81762">
        <ele>1731.4000244141</ele>
        <time>2023-10-01T08:35:39.000Z</time>
      </trkpt>
      <trkpt lat="45.00589" lon="5.81763">
        <ele>1731.5999755859</ele>
        <time>2023-10-01T08:35:40.000Z</time>
      </trkpt>
      <trkpt lat="45.00589" lon="5.81763">
        <ele>1731.8000488281</ele>
        <time>2023-10-01T08:35:41.000Z</time>
      </trkpt>
      <trkpt lat="45.00589" lon="5.81764">
        <ele>1732.1999511719</ele>
        <time>2023-10-01T08:35:42.000Z</time>
      </trkpt>
      <trkpt lat="45.00589" lon="5.81764">
        <ele>1732.5999755859</ele>
        <time>2023-10-01T08:35:43.000Z</time>
      </trkpt>
      <trkpt lat="45.00589" lon="5.81765">
        <ele>1732.8000488281</ele>
        <time>2023-10-01T08:35:44.000Z</time>
      </trkpt>
      <trkpt lat="45.00589" lon="5.81765">
        <ele>1732.8000488281</ele>
        <time>2023-10-01T08:35:45.000Z</time>
      </trkpt>
      <trkpt lat="45.00589" lon="5.81766">
        <ele>1733.1999511719</ele>
        <time>2023-10-01T08:35:46.000Z</time>
      </trkpt>
      <trkpt lat="45.00589" lon="5.81766">
        <ele>1733.4000244141</ele>
        <time>2023-10-01T08:35:47.000Z</time>
      </trkpt>
      <trkpt lat="45.00589" lon="5.81766">
        <ele>1733.5999755859</ele>
        <time>2023-10-01T08:35:48.000Z</time>
      </trkpt>
      <trkpt lat="45.00589" lon="5.81766">
        <ele>1734</ele>
        <time>2023-10-01T08:35:49.000Z</time>
      </trkpt>
      <trkpt lat="45.00589" lon="5.81766">
        <ele>1734</ele>
        <time>2023-10-01T08:35:50.000Z</time>
      </trkpt>
      <trkpt lat="45.00589" lon="5.81767">
        <ele>1734.4000244141</ele>
        <time>2023-10-01T08:35:51.000Z</time>
      </trkpt>
      <trkpt lat="45.00589" lon="5.81767">
        <ele>1734.8000488281</ele>
        <time>2023-10-01T08:35:52.000Z</time>
      </trkpt>
      <trkpt lat="45.00589" lon="5.81768">
        <ele>1735</ele>
        <time>2023-10-01T08:35:53.000Z</time>
      </trkpt>
      <trkpt lat="45.00589" lon="5.81768">
        <ele>1735.1999511719</ele>
        <time>2023-10-01T08:35:54.000Z</time>
      </trkpt>
      <trkpt lat="45.00589" lon="5.81769">
        <ele>1735.5999755859</ele>
        <time>2023-10-01T08:35:55.000Z</time>
      </trkpt>
      <trkpt lat="45.00589" lon="5.8177">
        <ele>1735.8000488281</ele>
        <time>2023-10-01T08:35:56.000Z</time>
      </trkpt>
      <trkpt lat="45.00589" lon="5.8177">
        <ele>1736.1999511719</ele>
        <time>2023-10-01T08:35:57.000Z</time>
      </trkpt>
      <trkpt lat="45.00589" lon="5.81771">
        <ele>1736.4000244141</ele>
        <time>2023-10-01T08:35:58.000Z</time>
      </trkpt>
      <trkpt lat="45.00589" lon="5.81771">
        <ele>1736.5999755859</ele>
        <time>2023-10-01T08:35:59.000Z</time>
      </trkpt>
      <trkpt lat="45.00588" lon="5.81773">
        <ele>1736.8000488281</ele>
        <time>2023-10-01T08:36:00.000Z</time>
      </trkpt>
      <trkpt lat="45.00588" lon="5.81774">
        <ele>1737.1999511719</ele>
        <time>2023-10-01T08:36:01.000Z</time>
      </trkpt>
      <trkpt lat="45.00589" lon="5.81774">
        <ele>1737.4000244141</ele>
        <time>2023-10-01T08:36:02.000Z</time>
      </trkpt>
      <trkpt lat="45.00589" lon="5.81774">
        <ele>1737.8000488281</ele>
        <time>2023-10-01T08:36:03.000Z</time>
      </trkpt>
      <trkpt lat="45.00588" lon="5.81775">
        <ele>1738</ele>
        <time>2023-10-01T08:36:04.000Z</time>
      </trkpt>
      <trkpt lat="45.00588" lon="5.81776">
        <ele>1738.4000244141</ele>
        <time>2023-10-01T08:36:05.000Z</time>
      </trkpt>
      <trkpt lat="45.00588" lon="5.81776">
        <ele>1738.5999755859</ele>
        <time>2023-10-01T08:36:06.000Z</time>
      </trkpt>
      <trkpt lat="45.00588" lon="5.81777">
        <ele>1739</ele>
        <time>2023-10-01T08:36:07.000Z</time>
      </trkpt>
      <trkpt lat="45.00588" lon="5.81778">
        <ele>1739.1999511719</ele>
        <time>2023-10-01T08:36:08.000Z</time>
      </trkpt>
      <trkpt lat="45.00588" lon="5.81778">
        <ele>1739.4000244141</ele>
        <time>2023-10-01T08:36:09.000Z</time>
      </trkpt>
      <trkpt lat="45.00588" lon="5.81779">
        <ele>1740</ele>
        <time>2023-10-01T08:36:10.000Z</time>
      </trkpt>
      <trkpt lat="45.00588" lon="5.81779">
        <ele>1740.1999511719</ele>
        <time>2023-10-01T08:36:11.000Z</time>
      </trkpt>
      <trkpt lat="45.00588" lon="5.8178">
        <ele>1740.5999755859</ele>
        <time>2023-10-01T08:36:12.000Z</time>
      </trkpt>
      <trkpt lat="45.00588" lon="5.8178">
        <ele>1740.8000488281</ele>
        <time>2023-10-01T08:36:13.000Z</time>
      </trkpt>
      <trkpt lat="45.00588" lon="5.81781">
        <ele>1741</ele>
        <time>2023-10-01T08:36:14.000Z</time>
      </trkpt>
      <trkpt lat="45.00588" lon="5.81781">
        <ele>1741.4000244141</ele>
        <time>2023-10-01T08:36:15.000Z</time>
      </trkpt>
      <trkpt lat="45.00588" lon="5.81781">
        <ele>1741.5999755859</ele>
        <time>2023-10-01T08:36:16.000Z</time>
      </trkpt>
      <trkpt lat="45.00588" lon="5.81782">
        <ele>1742</ele>
        <time>2023-10-01T08:36:17.000Z</time>
      </trkpt>
      <trkpt lat="45.00588" lon="5.81782">
        <ele>1742.1999511719</ele>
        <time>2023-10-01T08:36:18.000Z</time>
      </trkpt>
      <trkpt lat="45.00588" lon="5.81782">
        <ele>1742.4000244141</ele>
        <time>2023-10-01T08:36:19.000Z</time>
      </trkpt>
      <trkpt lat="45.00588" lon="5.81783">
        <ele>1742.8000488281</ele>
        <time>2023-10-01T08:36:20.000Z</time>
      </trkpt>
      <trkpt lat="45.00588" lon="5.81783">
        <ele>1743.1999511719</ele>
        <time>2023-10-01T08:36:21.000Z</time>
      </trkpt>
      <trkpt lat="45.00588" lon="5.81784">
        <ele>1743.4000244141</ele>
        <time>2023-10-01T08:36:22.000Z</time>
      </trkpt>
      <trkpt lat="45.00588" lon="5.81785">
        <ele>1743.5999755859</ele>
        <time>2023-10-01T08:36:23.000Z</time>
      </trkpt>
      <trkpt lat="45.00588" lon="5.81785">
        <ele>1743.8000488281</ele>
        <time>2023-10-01T08:36:24.000Z</time>
      </trkpt>
      <trkpt lat="45.00588" lon="5.81786">
        <ele>1744</ele>
        <time>2023-10-01T08:36:25.000Z</time>
      </trkpt>
      <trkpt lat="45.00588" lon="5.81786">
        <ele>1744.1999511719</ele>
        <time>2023-10-01T08:36:26.000Z</time>
      </trkpt>
      <trkpt lat="45.00588" lon="5.81786">
        <ele>1744.4000244141</ele>
        <time>2023-10-01T08:36:27.000Z</time>
      </trkpt>
      <trkpt lat="45.00587" lon="5.81787">
        <ele>1744.8000488281</ele>
        <time>2023-10-01T08:36:28.000Z</time>
      </trkpt>
      <trkpt lat="45.00587" lon="5.81787">
        <ele>1745</ele>
        <time>2023-10-01T08:36:29.000Z</time>
      </trkpt>
      <trkpt lat="45.00587" lon="5.81787">
        <ele>1745.4000244141</ele>
        <time>2023-10-01T08:36:30.000Z</time>
      </trkpt>
      <trkpt lat="45.00587" lon="5.81788">
        <ele>1745.4000244141</ele>
        <time>2023-10-01T08:36:31.000Z</time>
      </trkpt>
      <trkpt lat="45.00587" lon="5.81789">
        <ele>1745.8000488281</ele>
        <time>2023-10-01T08:36:32.000Z</time>
      </trkpt>
      <trkpt lat="45.00587" lon="5.81789">
        <ele>1746</ele>
        <time>2023-10-01T08:36:33.000Z</time>
      </trkpt>
      <trkpt lat="45.00586" lon="5.81789">
        <ele>1746.1999511719</ele>
        <time>2023-10-01T08:36:34.000Z</time>
      </trkpt>
      <trkpt lat="45.00585" lon="5.8179">
        <ele>1746.4000244141</ele>
        <time>2023-10-01T08:36:35.000Z</time>
      </trkpt>
      <trkpt lat="45.00584" lon="5.81791">
        <ele>1746.8000488281</ele>
        <time>2023-10-01T08:36:36.000Z</time>
      </trkpt>
      <trkpt lat="45.00584" lon="5.81791">
        <ele>1747</ele>
        <time>2023-10-01T08:36:37.000Z</time>
      </trkpt>
      <trkpt lat="45.00583" lon="5.81791">
        <ele>1747.1999511719</ele>
        <time>2023-10-01T08:36:38.000Z</time>
      </trkpt>
      <trkpt lat="45.00583" lon="5.81791">
        <ele>1747.4000244141</ele>
        <time>2023-10-01T08:36:39.000Z</time>
      </trkpt>
      <trkpt lat="45.00582" lon="5.81791">
        <ele>1747.5999755859</ele>
        <time>2023-10-01T08:36:40.000Z</time>
      </trkpt>
      <trkpt lat="45.00582" lon="5.81791">
        <ele>1747.8000488281</ele>
        <time>2023-10-01T08:36:41.000Z</time>
      </trkpt>
      <trkpt lat="45.00582" lon="5.81791">
        <ele>1748</ele>
        <time>2023-10-01T08:36:42.000Z</time>
      </trkpt>
      <trkpt lat="45.00581" lon="5.81792">
        <ele>1748.1999511719</ele>
        <time>2023-10-01T08:36:43.000Z</time>
      </trkpt>
      <trkpt lat="45.00581" lon="5.81792">
        <ele>1748.5999755859</ele>
        <time>2023-10-01T08:36:44.000Z</time>
      </trkpt>
      <trkpt lat="45.00581" lon="5.81792">
        <ele>1748.8000488281</ele>
        <time>2023-10-01T08:36:45.000Z</time>
      </trkpt>
      <trkpt lat="45.00581" lon="5.81792">
        <ele>1749</ele>
        <time>2023-10-01T08:36:46.000Z</time>
      </trkpt>
      <trkpt lat="45.00581" lon="5.81792">
        <ele>1749.1999511719</ele>
        <time>2023-10-01T08:36:47.000Z</time>
      </trkpt>
      <trkpt lat="45.00581" lon="5.81793">
        <ele>1749.5999755859</ele>
        <time>2023-10-01T08:36:48.000Z</time>
      </trkpt>
      <trkpt lat="45.00581" lon="5.81794">
        <ele>1749.8000488281</ele>
        <time>2023-10-01T08:36:49.000Z</time>
      </trkpt>
      <trkpt lat="45.00582" lon="5.81795">
        <ele>1750.1999511719</ele>
        <time>2023-10-01T08:36:50.000Z</time>
      </trkpt>
      <trkpt lat="45.00583" lon="5.81796">
        <ele>1750.4000244141</ele>
        <time>2023-10-01T08:36:51.000Z</time>
      </trkpt>
      <trkpt lat="45.00583" lon="5.81797">
        <ele>1750.5999755859</ele>
        <time>2023-10-01T08:36:52.000Z</time>
      </trkpt>
      <trkpt lat="45.00584" lon="5.81798">
        <ele>1750.8000488281</ele>
        <time>2023-10-01T08:36:53.000Z</time>
      </trkpt>
      <trkpt lat="45.00585" lon="5.81799">
        <ele>1751</ele>
        <time>2023-10-01T08:36:54.000Z</time>
      </trkpt>
      <trkpt lat="45.00586" lon="5.818">
        <ele>1751.1999511719</ele>
        <time>2023-10-01T08:36:55.000Z</time>
      </trkpt>
      <trkpt lat="45.00586" lon="5.81801">
        <ele>1751.5999755859</ele>
        <time>2023-10-01T08:36:56.000Z</time>
      </trkpt>
      <trkpt lat="45.00587" lon="5.81802">
        <ele>1751.8000488281</ele>
        <time>2023-10-01T08:36:57.000Z</time>
      </trkpt>
      <trkpt lat="45.00587" lon="5.81803">
        <ele>1752</ele>
        <time>2023-10-01T08:36:58.000Z</time>
      </trkpt>
      <trkpt lat="45.00588" lon="5.81804">
        <ele>1752.1999511719</ele>
        <time>2023-10-01T08:36:59.000Z</time>
      </trkpt>
      <trkpt lat="45.00588" lon="5.81804">
        <ele>1752.1999511719</ele>
        <time>2023-10-01T08:37:00.000Z</time>
      </trkpt>
      <trkpt lat="45.00588" lon="5.81805">
        <ele>1752.4000244141</ele>
        <time>2023-10-01T08:37:01.000Z</time>
      </trkpt>
      <trkpt lat="45.00588" lon="5.81806">
        <ele>1752.8000488281</ele>
        <time>2023-10-01T08:37:02.000Z</time>
      </trkpt>
      <trkpt lat="45.00587" lon="5.81806">
        <ele>1753</ele>
        <time>2023-10-01T08:37:03.000Z</time>
      </trkpt>
      <trkpt lat="45.00587" lon="5.81806">
        <ele>1753.1999511719</ele>
        <time>2023-10-01T08:37:04.000Z</time>
      </trkpt>
      <trkpt lat="45.00587" lon="5.81807">
        <ele>1753.4000244141</ele>
        <time>2023-10-01T08:37:05.000Z</time>
      </trkpt>
      <trkpt lat="45.00586" lon="5.81807">
        <ele>1753.5999755859</ele>
        <time>2023-10-01T08:37:06.000Z</time>
      </trkpt>
      <trkpt lat="45.00585" lon="5.81807">
        <ele>1753.8000488281</ele>
        <time>2023-10-01T08:37:07.000Z</time>
      </trkpt>
      <trkpt lat="45.00585" lon="5.81807">
        <ele>1754</ele>
        <time>2023-10-01T08:37:08.000Z</time>
      </trkpt>
      <trkpt lat="45.00584" lon="5.81807">
        <ele>1754.1999511719</ele>
        <time>2023-10-01T08:37:09.000Z</time>
      </trkpt>
      <trkpt lat="45.00585" lon="5.81807">
        <ele>1754.5999755859</ele>
        <time>2023-10-01T08:37:10.000Z</time>
      </trkpt>
      <trkpt lat="45.00585" lon="5.81807">
        <ele>1754.8000488281</ele>
        <time>2023-10-01T08:37:11.000Z</time>
      </trkpt>
      <trkpt lat="45.00585" lon="5.81808">
        <ele>1755</ele>
        <time>2023-10-01T08:37:12.000Z</time>
      </trkpt>
      <trkpt lat="45.00585" lon="5.81808">
        <ele>1755.4000244141</ele>
        <time>2023-10-01T08:37:13.000Z</time>
      </trkpt>
      <trkpt lat="45.00585" lon="5.81809">
        <ele>1755.5999755859</ele>
        <time>2023-10-01T08:37:14.000Z</time>
      </trkpt>
      <trkpt lat="45.00585" lon="5.81809">
        <ele>1756</ele>
        <time>2023-10-01T08:37:15.000Z</time>
      </trkpt>
      <trkpt lat="45.00585" lon="5.81809">
        <ele>1756.1999511719</ele>
        <time>2023-10-01T08:37:16.000Z</time>
      </trkpt>
      <trkpt lat="45.00585" lon="5.8181">
        <ele>1756.1999511719</ele>
        <time>2023-10-01T08:37:17.000Z</time>
      </trkpt>
      <trkpt lat="45.00585" lon="5.8181">
        <ele>1756.5999755859</ele>
        <time>2023-10-01T08:37:18.000Z</time>
      </trkpt>
      <trkpt lat="45.00585" lon="5.81812">
        <ele>1757</ele>
        <time>2023-10-01T08:37:19.000Z</time>
      </trkpt>
      <trkpt lat="45.00585" lon="5.81812">
        <ele>1757.1999511719</ele>
        <time>2023-10-01T08:37:20.000Z</time>
      </trkpt>
      <trkpt lat="45.00585" lon="5.81813">
        <ele>1757.4000244141</ele>
        <time>2023-10-01T08:37:21.000Z</time>
      </trkpt>
      <trkpt lat="45.00585" lon="5.81813">
        <ele>1757.8000488281</ele>
        <time>2023-10-01T08:37:22.000Z</time>
      </trkpt>
      <trkpt lat="45.00585" lon="5.81813">
        <ele>1758</ele>
        <time>2023-10-01T08:37:23.000Z</time>
      </trkpt>
      <trkpt lat="45.00584" lon="5.81813">
        <ele>1758.4000244141</ele>
        <time>2023-10-01T08:37:24.000Z</time>
      </trkpt>
      <trkpt lat="45.00584" lon="5.81813">
        <ele>1758.5999755859</ele>
        <time>2023-10-01T08:37:25.000Z</time>
      </trkpt>
      <trkpt lat="45.00584" lon="5.81814">
        <ele>1758.8000488281</ele>
        <time>2023-10-01T08:37:26.000Z</time>
      </trkpt>
      <trkpt lat="45.00584" lon="5.81815">
        <ele>1759.1999511719</ele>
        <time>2023-10-01T08:37:27.000Z</time>
      </trkpt>
      <trkpt lat="45.00584" lon="5.81815">
        <ele>1759.4000244141</ele>
        <time>2023-10-01T08:37:28.000Z</time>
      </trkpt>
      <trkpt lat="45.00584" lon="5.81817">
        <ele>1759.5999755859</ele>
        <time>2023-10-01T08:37:29.000Z</time>
      </trkpt>
      <trkpt lat="45.00584" lon="5.81818">
        <ele>1760</ele>
        <time>2023-10-01T08:37:30.000Z</time>
      </trkpt>
      <trkpt lat="45.00584" lon="5.81818">
        <ele>1760.1999511719</ele>
        <time>2023-10-01T08:37:31.000Z</time>
      </trkpt>
      <trkpt lat="45.00584" lon="5.81818">
        <ele>1760.4000244141</ele>
        <time>2023-10-01T08:37:32.000Z</time>
      </trkpt>
      <trkpt lat="45.00584" lon="5.81819">
        <ele>1760.8000488281</ele>
        <time>2023-10-01T08:37:33.000Z</time>
      </trkpt>
      <trkpt lat="45.00584" lon="5.81819">
        <ele>1761.1999511719</ele>
        <time>2023-10-01T08:37:34.000Z</time>
      </trkpt>
      <trkpt lat="45.00584" lon="5.8182">
        <ele>1761.4000244141</ele>
        <time>2023-10-01T08:37:35.000Z</time>
      </trkpt>
      <trkpt lat="45.00584" lon="5.81821">
        <ele>1761.5999755859</ele>
        <time>2023-10-01T08:37:36.000Z</time>
      </trkpt>
      <trkpt lat="45.00584" lon="5.81821">
        <ele>1761.8000488281</ele>
        <time>2023-10-01T08:37:37.000Z</time>
      </trkpt>
      <trkpt lat="45.00584" lon="5.81821">
        <ele>1762.1999511719</ele>
        <time>2023-10-01T08:37:38.000Z</time>
      </trkpt>
      <trkpt lat="45.00584" lon="5.81821">
        <ele>1762.5999755859</ele>
        <time>2023-10-01T08:37:39.000Z</time>
      </trkpt>
      <trkpt lat="45.00583" lon="5.81823">
        <ele>1762.8000488281</ele>
        <time>2023-10-01T08:37:40.000Z</time>
      </trkpt>
      <trkpt lat="45.00583" lon="5.81823">
        <ele>1763.1999511719</ele>
        <time>2023-10-01T08:37:41.000Z</time>
      </trkpt>
      <trkpt lat="45.00583" lon="5.81824">
        <ele>1763.4000244141</ele>
        <time>2023-10-01T08:37:42.000Z</time>
      </trkpt>
      <trkpt lat="45.00583" lon="5.81825">
        <ele>1763.8000488281</ele>
        <time>2023-10-01T08:37:43.000Z</time>
      </trkpt>
      <trkpt lat="45.00583" lon="5.81824">
        <ele>1764</ele>
        <time>2023-10-01T08:37:44.000Z</time>
      </trkpt>
      <trkpt lat="45.00583" lon="5.81825">
        <ele>1764.4000244141</ele>
        <time>2023-10-01T08:37:45.000Z</time>
      </trkpt>
      <trkpt lat="45.00583" lon="5.81825">
        <ele>1764.4000244141</ele>
        <time>2023-10-01T08:37:46.000Z</time>
      </trkpt>
      <trkpt lat="45.00583" lon="5.81826">
        <ele>1764.5999755859</ele>
        <time>2023-10-01T08:37:47.000Z</time>
      </trkpt>
      <trkpt lat="45.00583" lon="5.81826">
        <ele>1765</ele>
        <time>2023-10-01T08:37:48.000Z</time>
      </trkpt>
      <trkpt lat="45.00583" lon="5.81827">
        <ele>1765.4000244141</ele>
        <time>2023-10-01T08:37:49.000Z</time>
      </trkpt>
      <trkpt lat="45.00584" lon="5.81828">
        <ele>1765.8000488281</ele>
        <time>2023-10-01T08:37:50.000Z</time>
      </trkpt>
      <trkpt lat="45.00583" lon="5.81828">
        <ele>1766</ele>
        <time>2023-10-01T08:37:51.000Z</time>
      </trkpt>
      <trkpt lat="45.00583" lon="5.81828">
        <ele>1766.1999511719</ele>
        <time>2023-10-01T08:37:52.000Z</time>
      </trkpt>
      <trkpt lat="45.00583" lon="5.81829">
        <ele>1766.4000244141</ele>
        <time>2023-10-01T08:37:53.000Z</time>
      </trkpt>
      <trkpt lat="45.00583" lon="5.8183">
        <ele>1766.5999755859</ele>
        <time>2023-10-01T08:37:54.000Z</time>
      </trkpt>
      <trkpt lat="45.00583" lon="5.81831">
        <ele>1766.8000488281</ele>
        <time>2023-10-01T08:37:55.000Z</time>
      </trkpt>
      <trkpt lat="45.00583" lon="5.81831">
        <ele>1767.1999511719</ele>
        <time>2023-10-01T08:37:56.000Z</time>
      </trkpt>
      <trkpt lat="45.00582" lon="5.81831">
        <ele>1767.4000244141</ele>
        <time>2023-10-01T08:37:57.000Z</time>
      </trkpt>
      <trkpt lat="45.00582" lon="5.81832">
        <ele>1767.8000488281</ele>
        <time>2023-10-01T08:37:58.000Z</time>
      </trkpt>
      <trkpt lat="45.00582" lon="5.81833">
        <ele>1768</ele>
        <time>2023-10-01T08:37:59.000Z</time>
      </trkpt>
      <trkpt lat="45.00582" lon="5.81832">
        <ele>1768.1999511719</ele>
        <time>2023-10-01T08:38:00.000Z</time>
      </trkpt>
      <trkpt lat="45.00582" lon="5.81833">
        <ele>1768.5999755859</ele>
        <time>2023-10-01T08:38:01.000Z</time>
      </trkpt>
      <trkpt lat="45.00582" lon="5.81833">
        <ele>1768.8000488281</ele>
        <time>2023-10-01T08:38:02.000Z</time>
      </trkpt>
      <trkpt lat="45.00582" lon="5.81833">
        <ele>1768.8000488281</ele>
        <time>2023-10-01T08:38:03.000Z</time>
      </trkpt>
      <trkpt lat="45.00582" lon="5.81833">
        <ele>1769.1999511719</ele>
        <time>2023-10-01T08:38:04.000Z</time>
      </trkpt>
      <trkpt lat="45.00582" lon="5.81834">
        <ele>1769.4000244141</ele>
        <time>2023-10-01T08:38:05.000Z</time>
      </trkpt>
      <trkpt lat="45.00582" lon="5.81835">
        <ele>1769.8000488281</ele>
        <time>2023-10-01T08:38:06.000Z</time>
      </trkpt>
      <trkpt lat="45.00582" lon="5.81836">
        <ele>1770</ele>
        <time>2023-10-01T08:38:07.000Z</time>
      </trkpt>
      <trkpt lat="45.00582" lon="5.81836">
        <ele>1770.4000244141</ele>
        <time>2023-10-01T08:38:08.000Z</time>
      </trkpt>
      <trkpt lat="45.00582" lon="5.81836">
        <ele>1770.5999755859</ele>
        <time>2023-10-01T08:38:09.000Z</time>
      </trkpt>
      <trkpt lat="45.00582" lon="5.81837">
        <ele>1770.8000488281</ele>
        <time>2023-10-01T08:38:10.000Z</time>
      </trkpt>
      <trkpt lat="45.00582" lon="5.81837">
        <ele>1771.1999511719</ele>
        <time>2023-10-01T08:38:11.000Z</time>
      </trkpt>
      <trkpt lat="45.00582" lon="5.81838">
        <ele>1771.5999755859</ele>
        <time>2023-10-01T08:38:12.000Z</time>
      </trkpt>
      <trkpt lat="45.00582" lon="5.81838">
        <ele>1771.8000488281</ele>
        <time>2023-10-01T08:38:13.000Z</time>
      </trkpt>
      <trkpt lat="45.00582" lon="5.81839">
        <ele>1772</ele>
        <time>2023-10-01T08:38:14.000Z</time>
      </trkpt>
      <trkpt lat="45.00582" lon="5.81839">
        <ele>1772.4000244141</ele>
        <time>2023-10-01T08:38:15.000Z</time>
      </trkpt>
      <trkpt lat="45.00582" lon="5.8184">
        <ele>1772.8000488281</ele>
        <time>2023-10-01T08:38:16.000Z</time>
      </trkpt>
      <trkpt lat="45.00582" lon="5.81841">
        <ele>1773.1999511719</ele>
        <time>2023-10-01T08:38:17.000Z</time>
      </trkpt>
      <trkpt lat="45.00582" lon="5.81841">
        <ele>1773.4000244141</ele>
        <time>2023-10-01T08:38:18.000Z</time>
      </trkpt>
      <trkpt lat="45.00582" lon="5.81842">
        <ele>1773.8000488281</ele>
        <time>2023-10-01T08:38:19.000Z</time>
      </trkpt>
      <trkpt lat="45.00582" lon="5.81842">
        <ele>1774</ele>
        <time>2023-10-01T08:38:20.000Z</time>
      </trkpt>
      <trkpt lat="45.00581" lon="5.81842">
        <ele>1774.1999511719</ele>
        <time>2023-10-01T08:38:21.000Z</time>
      </trkpt>
      <trkpt lat="45.00581" lon="5.81843">
        <ele>1774.5999755859</ele>
        <time>2023-10-01T08:38:22.000Z</time>
      </trkpt>
      <trkpt lat="45.00581" lon="5.81843">
        <ele>1774.8000488281</ele>
        <time>2023-10-01T08:38:23.000Z</time>
      </trkpt>
      <trkpt lat="45.00581" lon="5.81844">
        <ele>1775</ele>
        <time>2023-10-01T08:38:24.000Z</time>
      </trkpt>
      <trkpt lat="45.00581" lon="5.81844">
        <ele>1775.4000244141</ele>
        <time>2023-10-01T08:38:25.000Z</time>
      </trkpt>
      <trkpt lat="45.00581" lon="5.81844">
        <ele>1775.5999755859</ele>
        <time>2023-10-01T08:38:26.000Z</time>
      </trkpt>
      <trkpt lat="45.00581" lon="5.81845">
        <ele>1776</ele>
        <time>2023-10-01T08:38:27.000Z</time>
      </trkpt>
      <trkpt lat="45.00581" lon="5.81845">
        <ele>1776.1999511719</ele>
        <time>2023-10-01T08:38:28.000Z</time>
      </trkpt>
      <trkpt lat="45.00581" lon="5.81846">
        <ele>1776.5999755859</ele>
        <time>2023-10-01T08:38:29.000Z</time>
      </trkpt>
      <trkpt lat="45.00581" lon="5.81847">
        <ele>1777</ele>
        <time>2023-10-01T08:38:30.000Z</time>
      </trkpt>
      <trkpt lat="45.00581" lon="5.81848">
        <ele>1777</ele>
        <time>2023-10-01T08:38:31.000Z</time>
      </trkpt>
      <trkpt lat="45.0058" lon="5.81849">
        <ele>1777.4000244141</ele>
        <time>2023-10-01T08:38:32.000Z</time>
      </trkpt>
      <trkpt lat="45.0058" lon="5.81849">
        <ele>1777.8000488281</ele>
        <time>2023-10-01T08:38:33.000Z</time>
      </trkpt>
      <trkpt lat="45.0058" lon="5.81849">
        <ele>1777.8000488281</ele>
        <time>2023-10-01T08:38:34.000Z</time>
      </trkpt>
      <trkpt lat="45.0058" lon="5.8185">
        <ele>1778.4000244141</ele>
        <time>2023-10-01T08:38:35.000Z</time>
      </trkpt>
      <trkpt lat="45.0058" lon="5.81851">
        <ele>1778.5999755859</ele>
        <time>2023-10-01T08:38:36.000Z</time>
      </trkpt>
      <trkpt lat="45.0058" lon="5.81851">
        <ele>1779</ele>
        <time>2023-10-01T08:38:37.000Z</time>
      </trkpt>
      <trkpt lat="45.0058" lon="5.81851">
        <ele>1779.1999511719</ele>
        <time>2023-10-01T08:38:38.000Z</time>
      </trkpt>
      <trkpt lat="45.0058" lon="5.81851">
        <ele>1779.5999755859</ele>
        <time>2023-10-01T08:38:39.000Z</time>
      </trkpt>
      <trkpt lat="45.0058" lon="5.81851">
        <ele>1780</ele>
        <time>2023-10-01T08:38:40.000Z</time>
      </trkpt>
      <trkpt lat="45.0058" lon="5.81851">
        <ele>1780.1999511719</ele>
        <time>2023-10-01T08:38:41.000Z</time>
      </trkpt>
      <trkpt lat="45.0058" lon="5.81852">
        <ele>1780.4000244141</ele>
        <time>2023-10-01T08:38:42.000Z</time>
      </trkpt>
      <trkpt lat="45.0058" lon="5.81853">
        <ele>1780.5999755859</ele>
        <time>2023-10-01T08:38:43.000Z</time>
      </trkpt>
      <trkpt lat="45.0058" lon="5.81853">
        <ele>1780.8000488281</ele>
        <time>2023-10-01T08:38:44.000Z</time>
      </trkpt>
      <trkpt lat="45.0058" lon="5.81854">
        <ele>1781</ele>
        <time>2023-10-01T08:38:45.000Z</time>
      </trkpt>
      <trkpt lat="45.0058" lon="5.81854">
        <ele>1781.1999511719</ele>
        <time>2023-10-01T08:38:46.000Z</time>
      </trkpt>
      <trkpt lat="45.0058" lon="5.81854">
        <ele>1781.4000244141</ele>
        <time>2023-10-01T08:38:47.000Z</time>
      </trkpt>
      <trkpt lat="45.0058" lon="5.81855">
        <ele>1781.8000488281</ele>
        <time>2023-10-01T08:38:48.000Z</time>
      </trkpt>
      <trkpt lat="45.00579" lon="5.81856">
        <ele>1782</ele>
        <time>2023-10-01T08:38:49.000Z</time>
      </trkpt>
      <trkpt lat="45.00579" lon="5.81856">
        <ele>1782.1999511719</ele>
        <time>2023-10-01T08:38:50.000Z</time>
      </trkpt>
      <trkpt lat="45.00579" lon="5.81857">
        <ele>1782.5999755859</ele>
        <time>2023-10-01T08:38:51.000Z</time>
      </trkpt>
      <trkpt lat="45.00579" lon="5.81857">
        <ele>1782.8000488281</ele>
        <time>2023-10-01T08:38:52.000Z</time>
      </trkpt>
      <trkpt lat="45.0058" lon="5.81857">
        <ele>1783</ele>
        <time>2023-10-01T08:38:53.000Z</time>
      </trkpt>
      <trkpt lat="45.0058" lon="5.81858">
        <ele>1783.4000244141</ele>
        <time>2023-10-01T08:38:54.000Z</time>
      </trkpt>
      <trkpt lat="45.0058" lon="5.81859">
        <ele>1783.5999755859</ele>
        <time>2023-10-01T08:38:55.000Z</time>
      </trkpt>
      <trkpt lat="45.00579" lon="5.81859">
        <ele>1783.8000488281</ele>
        <time>2023-10-01T08:38:56.000Z</time>
      </trkpt>
      <trkpt lat="45.00579" lon="5.81859">
        <ele>1784.4000244141</ele>
        <time>2023-10-01T08:38:57.000Z</time>
      </trkpt>
      <trkpt lat="45.00579" lon="5.81859">
        <ele>1784.5999755859</ele>
        <time>2023-10-01T08:38:58.000Z</time>
      </trkpt>
      <trkpt lat="45.00579" lon="5.81859">
        <ele>1785</ele>
        <time>2023-10-01T08:38:59.000Z</time>
      </trkpt>
      <trkpt lat="45.00579" lon="5.8186">
        <ele>1785.1999511719</ele>
        <time>2023-10-01T08:39:00.000Z</time>
      </trkpt>
      <trkpt lat="45.00579" lon="5.8186">
        <ele>1785.5999755859</ele>
        <time>2023-10-01T08:39:01.000Z</time>
      </trkpt>
      <trkpt lat="45.00579" lon="5.8186">
        <ele>1785.8000488281</ele>
        <time>2023-10-01T08:39:02.000Z</time>
      </trkpt>
      <trkpt lat="45.00579" lon="5.8186">
        <ele>1786.1999511719</ele>
        <time>2023-10-01T08:39:03.000Z</time>
      </trkpt>
      <trkpt lat="45.00579" lon="5.81861">
        <ele>1786.4000244141</ele>
        <time>2023-10-01T08:39:04.000Z</time>
      </trkpt>
      <trkpt lat="45.00579" lon="5.81862">
        <ele>1786.4000244141</ele>
        <time>2023-10-01T08:39:05.000Z</time>
      </trkpt>
      <trkpt lat="45.00579" lon="5.81862">
        <ele>1786.5999755859</ele>
        <time>2023-10-01T08:39:06.000Z</time>
      </trkpt>
      <trkpt lat="45.00579" lon="5.81863">
        <ele>1787</ele>
        <time>2023-10-01T08:39:07.000Z</time>
      </trkpt>
      <trkpt lat="45.00578" lon="5.81863">
        <ele>1787.1999511719</ele>
        <time>2023-10-01T08:39:08.000Z</time>
      </trkpt>
      <trkpt lat="45.00578" lon="5.81864">
        <ele>1787.4000244141</ele>
        <time>2023-10-01T08:39:09.000Z</time>
      </trkpt>
      <trkpt lat="45.00578" lon="5.81865">
        <ele>1787.8000488281</ele>
        <time>2023-10-01T08:39:10.000Z</time>
      </trkpt>
      <trkpt lat="45.00577" lon="5.81866">
        <ele>1788</ele>
        <time>2023-10-01T08:39:11.000Z</time>
      </trkpt>
      <trkpt lat="45.00577" lon="5.81866">
        <ele>1788.1999511719</ele>
        <time>2023-10-01T08:39:12.000Z</time>
      </trkpt>
      <trkpt lat="45.00578" lon="5.81866">
        <ele>1788.4000244141</ele>
        <time>2023-10-01T08:39:13.000Z</time>
      </trkpt>
      <trkpt lat="45.00578" lon="5.81867">
        <ele>1788.8000488281</ele>
        <time>2023-10-01T08:39:14.000Z</time>
      </trkpt>
      <trkpt lat="45.00578" lon="5.81867">
        <ele>1789</ele>
        <time>2023-10-01T08:39:15.000Z</time>
      </trkpt>
      <trkpt lat="45.00577" lon="5.81868">
        <ele>1789.4000244141</ele>
        <time>2023-10-01T08:39:16.000Z</time>
      </trkpt>
      <trkpt lat="45.00577" lon="5.81869">
        <ele>1789.8000488281</ele>
        <time>2023-10-01T08:39:17.000Z</time>
      </trkpt>
      <trkpt lat="45.00577" lon="5.81869">
        <ele>1790.1999511719</ele>
        <time>2023-10-01T08:39:18.000Z</time>
      </trkpt>
      <trkpt lat="45.00577" lon="5.8187">
        <ele>1790.5999755859</ele>
        <time>2023-10-01T08:39:19.000Z</time>
      </trkpt>
      <trkpt lat="45.00577" lon="5.8187">
        <ele>1790.8000488281</ele>
        <time>2023-10-01T08:39:20.000Z</time>
      </trkpt>
      <trkpt lat="45.00577" lon="5.81871">
        <ele>1791</ele>
        <time>2023-10-01T08:39:21.000Z</time>
      </trkpt>
      <trkpt lat="45.00577" lon="5.81872">
        <ele>1791.4000244141</ele>
        <time>2023-10-01T08:39:22.000Z</time>
      </trkpt>
      <trkpt lat="45.00577" lon="5.81872">
        <ele>1791.5999755859</ele>
        <time>2023-10-01T08:39:23.000Z</time>
      </trkpt>
      <trkpt lat="45.00577" lon="5.81872">
        <ele>1792</ele>
        <time>2023-10-01T08:39:24.000Z</time>
      </trkpt>
      <trkpt lat="45.00577" lon="5.81873">
        <ele>1792.1999511719</ele>
        <time>2023-10-01T08:39:25.000Z</time>
      </trkpt>
      <trkpt lat="45.00577" lon="5.81873">
        <ele>1792.4000244141</ele>
        <time>2023-10-01T08:39:26.000Z</time>
      </trkpt>
      <trkpt lat="45.00577" lon="5.81873">
        <ele>1792.8000488281</ele>
        <time>2023-10-01T08:39:27.000Z</time>
      </trkpt>
      <trkpt lat="45.00577" lon="5.81874">
        <ele>1792.8000488281</ele>
        <time>2023-10-01T08:39:28.000Z</time>
      </trkpt>
      <trkpt lat="45.00577" lon="5.81874">
        <ele>1793.1999511719</ele>
        <time>2023-10-01T08:39:29.000Z</time>
      </trkpt>
      <trkpt lat="45.00576" lon="5.81875">
        <ele>1793.4000244141</ele>
        <time>2023-10-01T08:39:30.000Z</time>
      </trkpt>
      <trkpt lat="45.00576" lon="5.81875">
        <ele>1793.8000488281</ele>
        <time>2023-10-01T08:39:31.000Z</time>
      </trkpt>
      <trkpt lat="45.00576" lon="5.81876">
        <ele>1794</ele>
        <time>2023-10-01T08:39:32.000Z</time>
      </trkpt>
      <trkpt lat="45.00575" lon="5.81876">
        <ele>1794.4000244141</ele>
        <time>2023-10-01T08:39:33.000Z</time>
      </trkpt>
      <trkpt lat="45.00575" lon="5.81876">
        <ele>1794.5999755859</ele>
        <time>2023-10-01T08:39:34.000Z</time>
      </trkpt>
      <trkpt lat="45.00575" lon="5.81877">
        <ele>1795</ele>
        <time>2023-10-01T08:39:35.000Z</time>
      </trkpt>
      <trkpt lat="45.00575" lon="5.81877">
        <ele>1795.4000244141</ele>
        <time>2023-10-01T08:39:36.000Z</time>
      </trkpt>
      <trkpt lat="45.00575" lon="5.81877">
        <ele>1795.5999755859</ele>
        <time>2023-10-01T08:39:37.000Z</time>
      </trkpt>
      <trkpt lat="45.00575" lon="5.81878">
        <ele>1796</ele>
        <time>2023-10-01T08:39:38.000Z</time>
      </trkpt>
      <trkpt lat="45.00575" lon="5.81878">
        <ele>1796.1999511719</ele>
        <time>2023-10-01T08:39:39.000Z</time>
      </trkpt>
      <trkpt lat="45.00575" lon="5.81878">
        <ele>1796.5999755859</ele>
        <time>2023-10-01T08:39:40.000Z</time>
      </trkpt>
      <trkpt lat="45.00574" lon="5.81878">
        <ele>1796.8000488281</ele>
        <time>2023-10-01T08:39:41.000Z</time>
      </trkpt>
      <trkpt lat="45.00574" lon="5.81879">
        <ele>1797</ele>
        <time>2023-10-01T08:39:42.000Z</time>
      </trkpt>
      <trkpt lat="45.00574" lon="5.8188">
        <ele>1797.1999511719</ele>
        <time>2023-10-01T08:39:43.000Z</time>
      </trkpt>
      <trkpt lat="45.00574" lon="5.8188">
        <ele>1797.5999755859</ele>
        <time>2023-10-01T08:39:44.000Z</time>
      </trkpt>
      <trkpt lat="45.00574" lon="5.81881">
        <ele>1797.8000488281</ele>
        <time>2023-10-01T08:39:45.000Z</time>
      </trkpt>
      <trkpt lat="45.00574" lon="5.81882">
        <ele>1798.1999511719</ele>
        <time>2023-10-01T08:39:46.000Z</time>
      </trkpt>
      <trkpt lat="45.00573" lon="5.81883">
        <ele>1798.4000244141</ele>
        <time>2023-10-01T08:39:47.000Z</time>
      </trkpt>
      <trkpt lat="45.00573" lon="5.81884">
        <ele>1798.5999755859</ele>
        <time>2023-10-01T08:39:48.000Z</time>
      </trkpt>
      <trkpt lat="45.00573" lon="5.81884">
        <ele>1798.8000488281</ele>
        <time>2023-10-01T08:39:49.000Z</time>
      </trkpt>
      <trkpt lat="45.00573" lon="5.81884">
        <ele>1799.1999511719</ele>
        <time>2023-10-01T08:39:50.000Z</time>
      </trkpt>
      <trkpt lat="45.00573" lon="5.81884">
        <ele>1799.1999511719</ele>
        <time>2023-10-01T08:39:51.000Z</time>
      </trkpt>
      <trkpt lat="45.00573" lon="5.81885">
        <ele>1799.4000244141</ele>
        <time>2023-10-01T08:39:52.000Z</time>
      </trkpt>
      <trkpt lat="45.00573" lon="5.81885">
        <ele>1799.8000488281</ele>
        <time>2023-10-01T08:39:53.000Z</time>
      </trkpt>
      <trkpt lat="45.00573" lon="5.81886">
        <ele>1800.1999511719</ele>
        <time>2023-10-01T08:39:54.000Z</time>
      </trkpt>
      <trkpt lat="45.00573" lon="5.81886">
        <ele>1800.5999755859</ele>
        <time>2023-10-01T08:39:55.000Z</time>
      </trkpt>
      <trkpt lat="45.00573" lon="5.81886">
        <ele>1800.8000488281</ele>
        <time>2023-10-01T08:39:56.000Z</time>
      </trkpt>
      <trkpt lat="45.00573" lon="5.81886">
        <ele>1801</ele>
        <time>2023-10-01T08:39:57.000Z</time>
      </trkpt>
      <trkpt lat="45.00574" lon="5.81888">
        <ele>1801.1999511719</ele>
        <time>2023-10-01T08:39:58.000Z</time>
      </trkpt>
      <trkpt lat="45.00574" lon="5.81888">
        <ele>1801.5999755859</ele>
        <time>2023-10-01T08:39:59.000Z</time>
      </trkpt>
      <trkpt lat="45.00574" lon="5.81888">
        <ele>1802</ele>
        <time>2023-10-01T08:40:00.000Z</time>
      </trkpt>
      <trkpt lat="45.00574" lon="5.81889">
        <ele>1802.1999511719</ele>
        <time>2023-10-01T08:40:01.000Z</time>
      </trkpt>
      <trkpt lat="45.00574" lon="5.81888">
        <ele>1802.4000244141</ele>
        <time>2023-10-01T08:40:02.000Z</time>
      </trkpt>
      <trkpt lat="45.00574" lon="5.81889">
        <ele>1802.5999755859</ele>
        <time>2023-10-01T08:40:03.000Z</time>
      </trkpt>
      <trkpt lat="45.00574" lon="5.81889">
        <ele>1802.8000488281</ele>
        <time>2023-10-01T08:40:04.000Z</time>
      </trkpt>
      <trkpt lat="45.00574" lon="5.8189">
        <ele>1803</ele>
        <time>2023-10-01T08:40:05.000Z</time>
      </trkpt>
      <trkpt lat="45.00573" lon="5.81891">
        <ele>1803.4000244141</ele>
        <time>2023-10-01T08:40:06.000Z</time>
      </trkpt>
      <trkpt lat="45.00573" lon="5.81891">
        <ele>1803.5999755859</ele>
        <time>2023-10-01T08:40:07.000Z</time>
      </trkpt>
      <trkpt lat="45.00573" lon="5.81891">
        <ele>1803.8000488281</ele>
        <time>2023-10-01T08:40:08.000Z</time>
      </trkpt>
      <trkpt lat="45.00573" lon="5.81892">
        <ele>1804</ele>
        <time>2023-10-01T08:40:09.000Z</time>
      </trkpt>
      <trkpt lat="45.00573" lon="5.81893">
        <ele>1804.1999511719</ele>
        <time>2023-10-01T08:40:10.000Z</time>
      </trkpt>
      <trkpt lat="45.00572" lon="5.81893">
        <ele>1804.5999755859</ele>
        <time>2023-10-01T08:40:11.000Z</time>
      </trkpt>
      <trkpt lat="45.00572" lon="5.81894">
        <ele>1804.8000488281</ele>
        <time>2023-10-01T08:40:12.000Z</time>
      </trkpt>
      <trkpt lat="45.00572" lon="5.81894">
        <ele>1805.1999511719</ele>
        <time>2023-10-01T08:40:13.000Z</time>
      </trkpt>
      <trkpt lat="45.00572" lon="5.81895">
        <ele>1805.1999511719</ele>
        <time>2023-10-01T08:40:14.000Z</time>
      </trkpt>
      <trkpt lat="45.00572" lon="5.81895">
        <ele>1805.5999755859</ele>
        <time>2023-10-01T08:40:15.000Z</time>
      </trkpt>
      <trkpt lat="45.00572" lon="5.81895">
        <ele>1805.5999755859</ele>
        <time>2023-10-01T08:40:16.000Z</time>
      </trkpt>
      <trkpt lat="45.00572" lon="5.81895">
        <ele>1806</ele>
        <time>2023-10-01T08:40:17.000Z</time>
      </trkpt>
      <trkpt lat="45.00571" lon="5.81896">
        <ele>1806.1999511719</ele>
        <time>2023-10-01T08:40:18.000Z</time>
      </trkpt>
      <trkpt lat="45.00572" lon="5.81896">
        <ele>1806.5999755859</ele>
        <time>2023-10-01T08:40:19.000Z</time>
      </trkpt>
      <trkpt lat="45.00572" lon="5.81897">
        <ele>1807</ele>
        <time>2023-10-01T08:40:20.000Z</time>
      </trkpt>
      <trkpt lat="45.00571" lon="5.81897">
        <ele>1807.1999511719</ele>
        <time>2023-10-01T08:40:21.000Z</time>
      </trkpt>
      <trkpt lat="45.00571" lon="5.81898">
        <ele>1807.4000244141</ele>
        <time>2023-10-01T08:40:22.000Z</time>
      </trkpt>
      <trkpt lat="45.00571" lon="5.81898">
        <ele>1807.5999755859</ele>
        <time>2023-10-01T08:40:23.000Z</time>
      </trkpt>
      <trkpt lat="45.00571" lon="5.81898">
        <ele>1808</ele>
        <time>2023-10-01T08:40:24.000Z</time>
      </trkpt>
      <trkpt lat="45.00571" lon="5.81897">
        <ele>1808.4000244141</ele>
        <time>2023-10-01T08:40:25.000Z</time>
      </trkpt>
      <trkpt lat="45.00571" lon="5.81898">
        <ele>1808.5999755859</ele>
        <time>2023-10-01T08:40:26.000Z</time>
      </trkpt>
      <trkpt lat="45.00571" lon="5.81898">
        <ele>1809</ele>
        <time>2023-10-01T08:40:27.000Z</time>
      </trkpt>
      <trkpt lat="45.00571" lon="5.81898">
        <ele>1809.1999511719</ele>
        <time>2023-10-01T08:40:28.000Z</time>
      </trkpt>
      <trkpt lat="45.00571" lon="5.81899">
        <ele>1809.1999511719</ele>
        <time>2023-10-01T08:40:29.000Z</time>
      </trkpt>
      <trkpt lat="45.00571" lon="5.819">
        <ele>1809.5999755859</ele>
        <time>2023-10-01T08:40:30.000Z</time>
      </trkpt>
      <trkpt lat="45.00571" lon="5.81901">
        <ele>1810</ele>
        <time>2023-10-01T08:40:31.000Z</time>
      </trkpt>
      <trkpt lat="45.0057" lon="5.81902">
        <ele>1810.1999511719</ele>
        <time>2023-10-01T08:40:32.000Z</time>
      </trkpt>
      <trkpt lat="45.0057" lon="5.81902">
        <ele>1810.5999755859</ele>
        <time>2023-10-01T08:40:33.000Z</time>
      </trkpt>
      <trkpt lat="45.0057" lon="5.81903">
        <ele>1811</ele>
        <time>2023-10-01T08:40:34.000Z</time>
      </trkpt>
      <trkpt lat="45.0057" lon="5.81903">
        <ele>1811.1999511719</ele>
        <time>2023-10-01T08:40:35.000Z</time>
      </trkpt>
      <trkpt lat="45.00571" lon="5.81903">
        <ele>1811.4000244141</ele>
        <time>2023-10-01T08:40:36.000Z</time>
      </trkpt>
      <trkpt lat="45.00571" lon="5.81903">
        <ele>1811.5999755859</ele>
        <time>2023-10-01T08:40:37.000Z</time>
      </trkpt>
      <trkpt lat="45.00571" lon="5.81903">
        <ele>1812</ele>
        <time>2023-10-01T08:40:38.000Z</time>
      </trkpt>
      <trkpt lat="45.00571" lon="5.81904">
        <ele>1812.4000244141</ele>
        <time>2023-10-01T08:40:39.000Z</time>
      </trkpt>
      <trkpt lat="45.00571" lon="5.81905">
        <ele>1812.5999755859</ele>
        <time>2023-10-01T08:40:40.000Z</time>
      </trkpt>
      <trkpt lat="45.0057" lon="5.81905">
        <ele>1813</ele>
        <time>2023-10-01T08:40:41.000Z</time>
      </trkpt>
      <trkpt lat="45.0057" lon="5.81906">
        <ele>1813.4000244141</ele>
        <time>2023-10-01T08:40:42.000Z</time>
      </trkpt>
      <trkpt lat="45.0057" lon="5.81906">
        <ele>1813.5999755859</ele>
        <time>2023-10-01T08:40:43.000Z</time>
      </trkpt>
      <trkpt lat="45.0057" lon="5.81907">
        <ele>1813.8000488281</ele>
        <time>2023-10-01T08:40:44.000Z</time>
      </trkpt>
      <trkpt lat="45.0057" lon="5.81908">
        <ele>1814</ele>
        <time>2023-10-01T08:40:45.000Z</time>
      </trkpt>
      <trkpt lat="45.0057" lon="5.81908">
        <ele>1814.1999511719</ele>
        <time>2023-10-01T08:40:46.000Z</time>
      </trkpt>
      <trkpt lat="45.0057" lon="5.81909">
        <ele>1814.8000488281</ele>
        <time>2023-10-01T08:40:47.000Z</time>
      </trkpt>
      <trkpt lat="45.00569" lon="5.81909">
        <ele>1815</ele>
        <time>2023-10-01T08:40:48.000Z</time>
      </trkpt>
      <trkpt lat="45.0057" lon="5.8191">
        <ele>1815.1999511719</ele>
        <time>2023-10-01T08:40:49.000Z</time>
      </trkpt>
      <trkpt lat="45.00569" lon="5.8191">
        <ele>1815.5999755859</ele>
        <time>2023-10-01T08:40:50.000Z</time>
      </trkpt>
      <trkpt lat="45.00569" lon="5.8191">
        <ele>1815.5999755859</ele>
        <time>2023-10-01T08:40:51.000Z</time>
      </trkpt>
      <trkpt lat="45.00569" lon="5.81909">
        <ele>1816</ele>
        <time>2023-10-01T08:40:52.000Z</time>
      </trkpt>
      <trkpt lat="45.00569" lon="5.81909">
        <ele>1816.1999511719</ele>
        <time>2023-10-01T08:40:53.000Z</time>
      </trkpt>
      <trkpt lat="45.00569" lon="5.8191">
        <ele>1816.4000244141</ele>
        <time>2023-10-01T08:40:54.000Z</time>
      </trkpt>
      <trkpt lat="45.00569" lon="5.81911">
        <ele>1816.4000244141</ele>
        <time>2023-10-01T08:40:55.000Z</time>
      </trkpt>
      <trkpt lat="45.00569" lon="5.81911">
        <ele>1816.4000244141</ele>
        <time>2023-10-01T08:40:56.000Z</time>
      </trkpt>
      <trkpt lat="45.00569" lon="5.81912">
        <ele>1816.4000244141</ele>
        <time>2023-10-01T08:40:57.000Z</time>
      </trkpt>
      <trkpt lat="45.00569" lon="5.81913">
        <ele>1816.8000488281</ele>
        <time>2023-10-01T08:40:58.000Z</time>
      </trkpt>
      <trkpt lat="45.00569" lon="5.81913">
        <ele>1817.1999511719</ele>
        <time>2023-10-01T08:40:59.000Z</time>
      </trkpt>
      <trkpt lat="45.00569" lon="5.81913">
        <ele>1817.4000244141</ele>
        <time>2023-10-01T08:41:00.000Z</time>
      </trkpt>
      <trkpt lat="45.00569" lon="5.81914">
        <ele>1817.8000488281</ele>
        <time>2023-10-01T08:41:01.000Z</time>
      </trkpt>
      <trkpt lat="45.00569" lon="5.81914">
        <ele>1818.1999511719</ele>
        <time>2023-10-01T08:41:02.000Z</time>
      </trkpt>
      <trkpt lat="45.00569" lon="5.81914">
        <ele>1818.5999755859</ele>
        <time>2023-10-01T08:41:03.000Z</time>
      </trkpt>
      <trkpt lat="45.00569" lon="5.81915">
        <ele>1818.8000488281</ele>
        <time>2023-10-01T08:41:04.000Z</time>
      </trkpt>
      <trkpt lat="45.00569" lon="5.81916">
        <ele>1819</ele>
        <time>2023-10-01T08:41:05.000Z</time>
      </trkpt>
      <trkpt lat="45.00569" lon="5.81916">
        <ele>1819.4000244141</ele>
        <time>2023-10-01T08:41:06.000Z</time>
      </trkpt>
      <trkpt lat="45.00569" lon="5.81916">
        <ele>1819.5999755859</ele>
        <time>2023-10-01T08:41:07.000Z</time>
      </trkpt>
      <trkpt lat="45.00569" lon="5.81917">
        <ele>1819.8000488281</ele>
        <time>2023-10-01T08:41:08.000Z</time>
      </trkpt>
      <trkpt lat="45.00569" lon="5.81918">
        <ele>1820.1999511719</ele>
        <time>2023-10-01T08:41:09.000Z</time>
      </trkpt>
      <trkpt lat="45.00569" lon="5.81919">
        <ele>1820.4000244141</ele>
        <time>2023-10-01T08:41:10.000Z</time>
      </trkpt>
      <trkpt lat="45.00569" lon="5.81919">
        <ele>1820.8000488281</ele>
        <time>2023-10-01T08:41:11.000Z</time>
      </trkpt>
      <trkpt lat="45.00569" lon="5.81919">
        <ele>1821</ele>
        <time>2023-10-01T08:41:12.000Z</time>
      </trkpt>
      <trkpt lat="45.00568" lon="5.8192">
        <ele>1821.4000244141</ele>
        <time>2023-10-01T08:41:13.000Z</time>
      </trkpt>
      <trkpt lat="45.00568" lon="5.81921">
        <ele>1821.5999755859</ele>
        <time>2023-10-01T08:41:14.000Z</time>
      </trkpt>
      <trkpt lat="45.00568" lon="5.81921">
        <ele>1822</ele>
        <time>2023-10-01T08:41:15.000Z</time>
      </trkpt>
      <trkpt lat="45.00568" lon="5.81922">
        <ele>1822.4000244141</ele>
        <time>2023-10-01T08:41:16.000Z</time>
      </trkpt>
      <trkpt lat="45.00568" lon="5.81922">
        <ele>1822.4000244141</ele>
        <time>2023-10-01T08:41:17.000Z</time>
      </trkpt>
      <trkpt lat="45.00568" lon="5.81922">
        <ele>1822.8000488281</ele>
        <time>2023-10-01T08:41:18.000Z</time>
      </trkpt>
      <trkpt lat="45.00568" lon="5.81923">
        <ele>1823</ele>
        <time>2023-10-01T08:41:19.000Z</time>
      </trkpt>
      <trkpt lat="45.00568" lon="5.81923">
        <ele>1823.1999511719</ele>
        <time>2023-10-01T08:41:20.000Z</time>
      </trkpt>
      <trkpt lat="45.00568" lon="5.81924">
        <ele>1823.4000244141</ele>
        <time>2023-10-01T08:41:21.000Z</time>
      </trkpt>
      <trkpt lat="45.00568" lon="5.81925">
        <ele>1824</ele>
        <time>2023-10-01T08:41:22.000Z</time>
      </trkpt>
      <trkpt lat="45.00568" lon="5.81926">
        <ele>1824.1999511719</ele>
        <time>2023-10-01T08:41:23.000Z</time>
      </trkpt>
      <trkpt lat="45.00568" lon="5.81927">
        <ele>1824.5999755859</ele>
        <time>2023-10-01T08:41:24.000Z</time>
      </trkpt>
      <trkpt lat="45.00568" lon="5.81927">
        <ele>1824.8000488281</ele>
        <time>2023-10-01T08:41:25.000Z</time>
      </trkpt>
      <trkpt lat="45.00568" lon="5.81926">
        <ele>1824.8000488281</ele>
        <time>2023-10-01T08:41:26.000Z</time>
      </trkpt>
      <trkpt lat="45.00567" lon="5.81927">
        <ele>1825.1999511719</ele>
        <time>2023-10-01T08:41:27.000Z</time>
      </trkpt>
      <trkpt lat="45.00568" lon="5.81928">
        <ele>1825.4000244141</ele>
        <time>2023-10-01T08:41:28.000Z</time>
      </trkpt>
      <trkpt lat="45.00568" lon="5.81928">
        <ele>1825.8000488281</ele>
        <time>2023-10-01T08:41:29.000Z</time>
      </trkpt>
      <trkpt lat="45.00567" lon="5.81928">
        <ele>1826</ele>
        <time>2023-10-01T08:41:30.000Z</time>
      </trkpt>
      <trkpt lat="45.00567" lon="5.81928">
        <ele>1826.1999511719</ele>
        <time>2023-10-01T08:41:31.000Z</time>
      </trkpt>
      <trkpt lat="45.00567" lon="5.81929">
        <ele>1826.5999755859</ele>
        <time>2023-10-01T08:41:32.000Z</time>
      </trkpt>
      <trkpt lat="45.00567" lon="5.8193">
        <ele>1826.8000488281</ele>
        <time>2023-10-01T08:41:33.000Z</time>
      </trkpt>
      <trkpt lat="45.00567" lon="5.8193">
        <ele>1827.1999511719</ele>
        <time>2023-10-01T08:41:34.000Z</time>
      </trkpt>
      <trkpt lat="45.00567" lon="5.8193">
        <ele>1827.4000244141</ele>
        <time>2023-10-01T08:41:35.000Z</time>
      </trkpt>
      <trkpt lat="45.00567" lon="5.8193">
        <ele>1827.8000488281</ele>
        <time>2023-10-01T08:41:36.000Z</time>
      </trkpt>
      <trkpt lat="45.00567" lon="5.81931">
        <ele>1828</ele>
        <time>2023-10-01T08:41:37.000Z</time>
      </trkpt>
      <trkpt lat="45.00568" lon="5.81931">
        <ele>1828.1999511719</ele>
        <time>2023-10-01T08:41:38.000Z</time>
      </trkpt>
      <trkpt lat="45.00568" lon="5.81932">
        <ele>1828.4000244141</ele>
        <time>2023-10-01T08:41:39.000Z</time>
      </trkpt>
      <trkpt lat="45.00568" lon="5.81933">
        <ele>1828.8000488281</ele>
        <time>2023-10-01T08:41:40.000Z</time>
      </trkpt>
      <trkpt lat="45.00568" lon="5.81933">
        <ele>1829</ele>
        <time>2023-10-01T08:41:41.000Z</time>
      </trkpt>
      <trkpt lat="45.00568" lon="5.81934">
        <ele>1829.4000244141</ele>
        <time>2023-10-01T08:41:42.000Z</time>
      </trkpt>
      <trkpt lat="45.00567" lon="5.81934">
        <ele>1829.8000488281</ele>
        <time>2023-10-01T08:41:43.000Z</time>
      </trkpt>
      <trkpt lat="45.00567" lon="5.81935">
        <ele>1830</ele>
        <time>2023-10-01T08:41:44.000Z</time>
      </trkpt>
      <trkpt lat="45.00567" lon="5.81937">
        <ele>1830</ele>
        <time>2023-10-01T08:41:45.000Z</time>
      </trkpt>
      <trkpt lat="45.00567" lon="5.81938">
        <ele>1830.1999511719</ele>
        <time>2023-10-01T08:41:46.000Z</time>
      </trkpt>
      <trkpt lat="45.00567" lon="5.81938">
        <ele>1830.5999755859</ele>
        <time>2023-10-01T08:41:47.000Z</time>
      </trkpt>
      <trkpt lat="45.00567" lon="5.81938">
        <ele>1830.8000488281</ele>
        <time>2023-10-01T08:41:48.000Z</time>
      </trkpt>
      <trkpt lat="45.00567" lon="5.81939">
        <ele>1831.1999511719</ele>
        <time>2023-10-01T08:41:49.000Z</time>
      </trkpt>
      <trkpt lat="45.00567" lon="5.81939">
        <ele>1831.5999755859</ele>
        <time>2023-10-01T08:41:50.000Z</time>
      </trkpt>
      <trkpt lat="45.00568" lon="5.8194">
        <ele>1831.8000488281</ele>
        <time>2023-10-01T08:41:51.000Z</time>
      </trkpt>
      <trkpt lat="45.00567" lon="5.8194">
        <ele>1832</ele>
        <time>2023-10-01T08:41:52.000Z</time>
      </trkpt>
      <trkpt lat="45.00567" lon="5.81939">
        <ele>1832.1999511719</ele>
        <time>2023-10-01T08:41:53.000Z</time>
      </trkpt>
      <trkpt lat="45.00567" lon="5.8194">
        <ele>1832.5999755859</ele>
        <time>2023-10-01T08:41:54.000Z</time>
      </trkpt>
      <trkpt lat="45.00566" lon="5.8194">
        <ele>1832.8000488281</ele>
        <time>2023-10-01T08:41:55.000Z</time>
      </trkpt>
      <trkpt lat="45.00566" lon="5.81941">
        <ele>1833</ele>
        <time>2023-10-01T08:41:56.000Z</time>
      </trkpt>
      <trkpt lat="45.00566" lon="5.81941">
        <ele>1833.4000244141</ele>
        <time>2023-10-01T08:41:57.000Z</time>
      </trkpt>
      <trkpt lat="45.00566" lon="5.81942">
        <ele>1833.4000244141</ele>
        <time>2023-10-01T08:41:58.000Z</time>
      </trkpt>
      <trkpt lat="45.00565" lon="5.81942">
        <ele>1833.5999755859</ele>
        <time>2023-10-01T08:41:59.000Z</time>
      </trkpt>
      <trkpt lat="45.00565" lon="5.81943">
        <ele>1833.8000488281</ele>
        <time>2023-10-01T08:42:00.000Z</time>
      </trkpt>
      <trkpt lat="45.00565" lon="5.81943">
        <ele>1834.1999511719</ele>
        <time>2023-10-01T08:42:01.000Z</time>
      </trkpt>
      <trkpt lat="45.00565" lon="5.81943">
        <ele>1834.4000244141</ele>
        <time>2023-10-01T08:42:02.000Z</time>
      </trkpt>
      <trkpt lat="45.00565" lon="5.81944">
        <ele>1834.8000488281</ele>
        <time>2023-10-01T08:42:03.000Z</time>
      </trkpt>
      <trkpt lat="45.00565" lon="5.81944">
        <ele>1835</ele>
        <time>2023-10-01T08:42:04.000Z</time>
      </trkpt>
      <trkpt lat="45.00565" lon="5.81944">
        <ele>1835.1999511719</ele>
        <time>2023-10-01T08:42:05.000Z</time>
      </trkpt>
      <trkpt lat="45.00565" lon="5.81944">
        <ele>1835.5999755859</ele>
        <time>2023-10-01T08:42:06.000Z</time>
      </trkpt>
      <trkpt lat="45.00565" lon="5.81945">
        <ele>1835.8000488281</ele>
        <time>2023-10-01T08:42:07.000Z</time>
      </trkpt>
      <trkpt lat="45.00565" lon="5.81945">
        <ele>1836</ele>
        <time>2023-10-01T08:42:08.000Z</time>
      </trkpt>
      <trkpt lat="45.00565" lon="5.81945">
        <ele>1836.1999511719</ele>
        <time>2023-10-01T08:42:09.000Z</time>
      </trkpt>
      <trkpt lat="45.00565" lon="5.81946">
        <ele>1836.5999755859</ele>
        <time>2023-10-01T08:42:10.000Z</time>
      </trkpt>
      <trkpt lat="45.00566" lon="5.81947">
        <ele>1836.8000488281</ele>
        <time>2023-10-01T08:42:11.000Z</time>
      </trkpt>
      <trkpt lat="45.00566" lon="5.81948">
        <ele>1837.1999511719</ele>
        <time>2023-10-01T08:42:12.000Z</time>
      </trkpt>
      <trkpt lat="45.00566" lon="5.81948">
        <ele>1837.5999755859</ele>
        <time>2023-10-01T08:42:13.000Z</time>
      </trkpt>
      <trkpt lat="45.00566" lon="5.81949">
        <ele>1837.8000488281</ele>
        <time>2023-10-01T08:42:14.000Z</time>
      </trkpt>
      <trkpt lat="45.00566" lon="5.8195">
        <ele>1838</ele>
        <time>2023-10-01T08:42:15.000Z</time>
      </trkpt>
      <trkpt lat="45.00565" lon="5.8195">
        <ele>1838.1999511719</ele>
        <time>2023-10-01T08:42:16.000Z</time>
      </trkpt>
      <trkpt lat="45.00565" lon="5.81951">
        <ele>1838.5999755859</ele>
        <time>2023-10-01T08:42:17.000Z</time>
      </trkpt>
      <trkpt lat="45.00565" lon="5.81951">
        <ele>1838.8000488281</ele>
        <time>2023-10-01T08:42:18.000Z</time>
      </trkpt>
      <trkpt lat="45.00565" lon="5.81951">
        <ele>1839</ele>
        <time>2023-10-01T08:42:19.000Z</time>
      </trkpt>
      <trkpt lat="45.00565" lon="5.81951">
        <ele>1839.4000244141</ele>
        <time>2023-10-01T08:42:20.000Z</time>
      </trkpt>
      <trkpt lat="45.00565" lon="5.81951">
        <ele>1839.8000488281</ele>
        <time>2023-10-01T08:42:21.000Z</time>
      </trkpt>
      <trkpt lat="45.00565" lon="5.81952">
        <ele>1840</ele>
        <time>2023-10-01T08:42:22.000Z</time>
      </trkpt>
      <trkpt lat="45.00565" lon="5.81952">
        <ele>1840.1999511719</ele>
        <time>2023-10-01T08:42:23.000Z</time>
      </trkpt>
      <trkpt lat="45.00565" lon="5.81953">
        <ele>1840.4000244141</ele>
        <time>2023-10-01T08:42:24.000Z</time>
      </trkpt>
      <trkpt lat="45.00565" lon="5.81954">
        <ele>1841</ele>
        <time>2023-10-01T08:42:25.000Z</time>
      </trkpt>
      <trkpt lat="45.00565" lon="5.81954">
        <ele>1841</ele>
        <time>2023-10-01T08:42:26.000Z</time>
      </trkpt>
      <trkpt lat="45.00565" lon="5.81955">
        <ele>1841.4000244141</ele>
        <time>2023-10-01T08:42:27.000Z</time>
      </trkpt>
      <trkpt lat="45.00565" lon="5.81956">
        <ele>1841.8000488281</ele>
        <time>2023-10-01T08:42:28.000Z</time>
      </trkpt>
      <trkpt lat="45.00565" lon="5.81957">
        <ele>1842</ele>
        <time>2023-10-01T08:42:29.000Z</time>
      </trkpt>
      <trkpt lat="45.00564" lon="5.81957">
        <ele>1842.4000244141</ele>
        <time>2023-10-01T08:42:30.000Z</time>
      </trkpt>
      <trkpt lat="45.00564" lon="5.81957">
        <ele>1842.5999755859</ele>
        <time>2023-10-01T08:42:31.000Z</time>
      </trkpt>
      <trkpt lat="45.00564" lon="5.81959">
        <ele>1842.8000488281</ele>
        <time>2023-10-01T08:42:32.000Z</time>
      </trkpt>
      <trkpt lat="45.00564" lon="5.81959">
        <ele>1843.1999511719</ele>
        <time>2023-10-01T08:42:33.000Z</time>
      </trkpt>
      <trkpt lat="45.00564" lon="5.8196">
        <ele>1843.5999755859</ele>
        <time>2023-10-01T08:42:34.000Z</time>
      </trkpt>
      <trkpt lat="45.00564" lon="5.8196">
        <ele>1843.8000488281</ele>
        <time>2023-10-01T08:42:35.000Z</time>
      </trkpt>
      <trkpt lat="45.00564" lon="5.81961">
        <ele>1843.8000488281</ele>
        <time>2023-10-01T08:42:36.000Z</time>
      </trkpt>
      <trkpt lat="45.00564" lon="5.81962">
        <ele>1844.1999511719</ele>
        <time>2023-10-01T08:42:37.000Z</time>
      </trkpt>
      <trkpt lat="45.00564" lon="5.81961">
        <ele>1844.4000244141</ele>
        <time>2023-10-01T08:42:38.000Z</time>
      </trkpt>
      <trkpt lat="45.00563" lon="5.81961">
        <ele>1844.5999755859</ele>
        <time>2023-10-01T08:42:39.000Z</time>
      </trkpt>
      <trkpt lat="45.00564" lon="5.81962">
        <ele>1845</ele>
        <time>2023-10-01T08:42:40.000Z</time>
      </trkpt>
      <trkpt lat="45.00564" lon="5.81962">
        <ele>1845.1999511719</ele>
        <time>2023-10-01T08:42:41.000Z</time>
      </trkpt>
      <trkpt lat="45.00563" lon="5.81962">
        <ele>1845.5999755859</ele>
        <time>2023-10-01T08:42:42.000Z</time>
      </trkpt>
      <trkpt lat="45.00563" lon="5.81963">
        <ele>1845.8000488281</ele>
        <time>2023-10-01T08:42:43.000Z</time>
      </trkpt>
      <trkpt lat="45.00563" lon="5.81963">
        <ele>1846</ele>
        <time>2023-10-01T08:42:44.000Z</time>
      </trkpt>
      <trkpt lat="45.00563" lon="5.81964">
        <ele>1846.4000244141</ele>
        <time>2023-10-01T08:42:45.000Z</time>
      </trkpt>
      <trkpt lat="45.00563" lon="5.81964">
        <ele>1846.5999755859</ele>
        <time>2023-10-01T08:42:46.000Z</time>
      </trkpt>
      <trkpt lat="45.00563" lon="5.81964">
        <ele>1846.8000488281</ele>
        <time>2023-10-01T08:42:47.000Z</time>
      </trkpt>
      <trkpt lat="45.00563" lon="5.81965">
        <ele>1847</ele>
        <time>2023-10-01T08:42:48.000Z</time>
      </trkpt>
      <trkpt lat="45.00563" lon="5.81966">
        <ele>1847.1999511719</ele>
        <time>2023-10-01T08:42:49.000Z</time>
      </trkpt>
      <trkpt lat="45.00563" lon="5.81965">
        <ele>1847.8000488281</ele>
        <time>2023-10-01T08:42:50.000Z</time>
      </trkpt>
      <trkpt lat="45.00562" lon="5.81966">
        <ele>1848</ele>
        <time>2023-10-01T08:42:51.000Z</time>
      </trkpt>
      <trkpt lat="45.00562" lon="5.81967">
        <ele>1848.1999511719</ele>
        <time>2023-10-01T08:42:52.000Z</time>
      </trkpt>
      <trkpt lat="45.00562" lon="5.81968">
        <ele>1848.4000244141</ele>
        <time>2023-10-01T08:42:53.000Z</time>
      </trkpt>
      <trkpt lat="45.00562" lon="5.81968">
        <ele>1848.8000488281</ele>
        <time>2023-10-01T08:42:54.000Z</time>
      </trkpt>
      <trkpt lat="45.00562" lon="5.81969">
        <ele>1849</ele>
        <time>2023-10-01T08:42:55.000Z</time>
      </trkpt>
      <trkpt lat="45.00562" lon="5.8197">
        <ele>1849.4000244141</ele>
        <time>2023-10-01T08:42:56.000Z</time>
      </trkpt>
      <trkpt lat="45.00562" lon="5.8197">
        <ele>1849.5999755859</ele>
        <time>2023-10-01T08:42:57.000Z</time>
      </trkpt>
      <trkpt lat="45.00562" lon="5.81971">
        <ele>1850</ele>
        <time>2023-10-01T08:42:58.000Z</time>
      </trkpt>
      <trkpt lat="45.00562" lon="5.81972">
        <ele>1850.1999511719</ele>
        <time>2023-10-01T08:42:59.000Z</time>
      </trkpt>
      <trkpt lat="45.00562" lon="5.81972">
        <ele>1850.4000244141</ele>
        <time>2023-10-01T08:43:00.000Z</time>
      </trkpt>
      <trkpt lat="45.00562" lon="5.81972">
        <ele>1850.8000488281</ele>
        <time>2023-10-01T08:43:01.000Z</time>
      </trkpt>
      <trkpt lat="45.00562" lon="5.81973">
        <ele>1851</ele>
        <time>2023-10-01T08:43:02.000Z</time>
      </trkpt>
      <trkpt lat="45.00562" lon="5.81973">
        <ele>1851.1999511719</ele>
        <time>2023-10-01T08:43:03.000Z</time>
      </trkpt>
      <trkpt lat="45.00562" lon="5.81974">
        <ele>1851.4000244141</ele>
        <time>2023-10-01T08:43:04.000Z</time>
      </trkpt>
      <trkpt lat="45.00562" lon="5.81975">
        <ele>1851.8000488281</ele>
        <time>2023-10-01T08:43:05.000Z</time>
      </trkpt>
      <trkpt lat="45.00562" lon="5.81976">
        <ele>1852.1999511719</ele>
        <time>2023-10-01T08:43:06.000Z</time>
      </trkpt>
      <trkpt lat="45.00562" lon="5.81976">
        <ele>1852.4000244141</ele>
        <time>2023-10-01T08:43:07.000Z</time>
      </trkpt>
      <trkpt lat="45.00562" lon="5.81976">
        <ele>1852.8000488281</ele>
        <time>2023-10-01T08:43:08.000Z</time>
      </trkpt>
      <trkpt lat="45.00563" lon="5.81976">
        <ele>1853</ele>
        <time>2023-10-01T08:43:09.000Z</time>
      </trkpt>
      <trkpt lat="45.00563" lon="5.81977">
        <ele>1853.4000244141</ele>
        <time>2023-10-01T08:43:10.000Z</time>
      </trkpt>
      <trkpt lat="45.00562" lon="5.81978">
        <ele>1853.5999755859</ele>
        <time>2023-10-01T08:43:11.000Z</time>
      </trkpt>
      <trkpt lat="45.00562" lon="5.81978">
        <ele>1853.8000488281</ele>
        <time>2023-10-01T08:43:12.000Z</time>
      </trkpt>
      <trkpt lat="45.00562" lon="5.81978">
        <ele>1854</ele>
        <time>2023-10-01T08:43:13.000Z</time>
      </trkpt>
      <trkpt lat="45.00562" lon="5.81979">
        <ele>1854.4000244141</ele>
        <time>2023-10-01T08:43:14.000Z</time>
      </trkpt>
      <trkpt lat="45.00562" lon="5.81979">
        <ele>1854.5999755859</ele>
        <time>2023-10-01T08:43:15.000Z</time>
      </trkpt>
      <trkpt lat="45.00562" lon="5.8198">
        <ele>1854.8000488281</ele>
        <time>2023-10-01T08:43:16.000Z</time>
      </trkpt>
      <trkpt lat="45.00562" lon="5.8198">
        <ele>1855.1999511719</ele>
        <time>2023-10-01T08:43:17.000Z</time>
      </trkpt>
      <trkpt lat="45.00562" lon="5.81981">
        <ele>1855.1999511719</ele>
        <time>2023-10-01T08:43:18.000Z</time>
      </trkpt>
      <trkpt lat="45.00561" lon="5.81982">
        <ele>1855.4000244141</ele>
        <time>2023-10-01T08:43:19.000Z</time>
      </trkpt>
      <trkpt lat="45.00561" lon="5.81983">
        <ele>1855.8000488281</ele>
        <time>2023-10-01T08:43:20.000Z</time>
      </trkpt>
      <trkpt lat="45.00561" lon="5.81983">
        <ele>1856</ele>
        <time>2023-10-01T08:43:21.000Z</time>
      </trkpt>
      <trkpt lat="45.00561" lon="5.81984">
        <ele>1856.1999511719</ele>
        <time>2023-10-01T08:43:22.000Z</time>
      </trkpt>
      <trkpt lat="45.00561" lon="5.81984">
        <ele>1856.4000244141</ele>
        <time>2023-10-01T08:43:23.000Z</time>
      </trkpt>
      <trkpt lat="45.00561" lon="5.81985">
        <ele>1856.8000488281</ele>
        <time>2023-10-01T08:43:24.000Z</time>
      </trkpt>
      <trkpt lat="45.00561" lon="5.81984">
        <ele>1857</ele>
        <time>2023-10-01T08:43:25.000Z</time>
      </trkpt>
      <trkpt lat="45.00561" lon="5.81985">
        <ele>1857.1999511719</ele>
        <time>2023-10-01T08:43:26.000Z</time>
      </trkpt>
      <trkpt lat="45.00561" lon="5.81985">
        <ele>1857.4000244141</ele>
        <time>2023-10-01T08:43:27.000Z</time>
      </trkpt>
      <trkpt lat="45.00561" lon="5.81986">
        <ele>1857.8000488281</ele>
        <time>2023-10-01T08:43:28.000Z</time>
      </trkpt>
      <trkpt lat="45.00561" lon="5.81986">
        <ele>1858</ele>
        <time>2023-10-01T08:43:29.000Z</time>
      </trkpt>
      <trkpt lat="45.00561" lon="5.81986">
        <ele>1858.4000244141</ele>
        <time>2023-10-01T08:43:30.000Z</time>
      </trkpt>
      <trkpt lat="45.00561" lon="5.81987">
        <ele>1858.5999755859</ele>
        <time>2023-10-01T08:43:31.000Z</time>
      </trkpt>
      <trkpt lat="45.00561" lon="5.81987">
        <ele>1859</ele>
        <time>2023-10-01T08:43:32.000Z</time>
      </trkpt>
      <trkpt lat="45.00561" lon="5.81988">
        <ele>1859.1999511719</ele>
        <time>2023-10-01T08:43:33.000Z</time>
      </trkpt>
      <trkpt lat="45.00561" lon="5.81989">
        <ele>1859.4000244141</ele>
        <time>2023-10-01T08:43:34.000Z</time>
      </trkpt>
      <trkpt lat="45.0056" lon="5.81989">
        <ele>1859.5999755859</ele>
        <time>2023-10-01T08:43:35.000Z</time>
      </trkpt>
      <trkpt lat="45.0056" lon="5.8199">
        <ele>1860</ele>
        <time>2023-10-01T08:43:36.000Z</time>
      </trkpt>
      <trkpt lat="45.0056" lon="5.8199">
        <ele>1860.4000244141</ele>
        <time>2023-10-01T08:43:37.000Z</time>
      </trkpt>
      <trkpt lat="45.0056" lon="5.8199">
        <ele>1860.5999755859</ele>
        <time>2023-10-01T08:43:38.000Z</time>
      </trkpt>
      <trkpt lat="45.0056" lon="5.81991">
        <ele>1860.8000488281</ele>
        <time>2023-10-01T08:43:39.000Z</time>
      </trkpt>
      <trkpt lat="45.0056" lon="5.81992">
        <ele>1861</ele>
        <time>2023-10-01T08:43:40.000Z</time>
      </trkpt>
      <trkpt lat="45.0056" lon="5.81993">
        <ele>1861.4000244141</ele>
        <time>2023-10-01T08:43:41.000Z</time>
      </trkpt>
      <trkpt lat="45.00559" lon="5.81993">
        <ele>1861.5999755859</ele>
        <time>2023-10-01T08:43:42.000Z</time>
      </trkpt>
      <trkpt lat="45.00559" lon="5.81993">
        <ele>1862</ele>
        <time>2023-10-01T08:43:43.000Z</time>
      </trkpt>
      <trkpt lat="45.00559" lon="5.81994">
        <ele>1862.1999511719</ele>
        <time>2023-10-01T08:43:44.000Z</time>
      </trkpt>
      <trkpt lat="45.00559" lon="5.81994">
        <ele>1862.4000244141</ele>
        <time>2023-10-01T08:43:45.000Z</time>
      </trkpt>
      <trkpt lat="45.00559" lon="5.81994">
        <ele>1862.5999755859</ele>
        <time>2023-10-01T08:43:46.000Z</time>
      </trkpt>
      <trkpt lat="45.0056" lon="5.81995">
        <ele>1863</ele>
        <time>2023-10-01T08:43:47.000Z</time>
      </trkpt>
      <trkpt lat="45.0056" lon="5.81995">
        <ele>1863.1999511719</ele>
        <time>2023-10-01T08:43:48.000Z</time>
      </trkpt>
      <trkpt lat="45.0056" lon="5.81996">
        <ele>1863.4000244141</ele>
        <time>2023-10-01T08:43:49.000Z</time>
      </trkpt>
      <trkpt lat="45.00559" lon="5.81997">
        <ele>1863.5999755859</ele>
        <time>2023-10-01T08:43:50.000Z</time>
      </trkpt>
      <trkpt lat="45.00559" lon="5.81998">
        <ele>1863.8000488281</ele>
        <time>2023-10-01T08:43:51.000Z</time>
      </trkpt>
      <trkpt lat="45.00559" lon="5.81997">
        <ele>1864</ele>
        <time>2023-10-01T08:43:52.000Z</time>
      </trkpt>
      <trkpt lat="45.00559" lon="5.81997">
        <ele>1864.4000244141</ele>
        <time>2023-10-01T08:43:53.000Z</time>
      </trkpt>
      <trkpt lat="45.00558" lon="5.81998">
        <ele>1864.5999755859</ele>
        <time>2023-10-01T08:43:54.000Z</time>
      </trkpt>
      <trkpt lat="45.00558" lon="5.81998">
        <ele>1864.8000488281</ele>
        <time>2023-10-01T08:43:55.000Z</time>
      </trkpt>
      <trkpt lat="45.00559" lon="5.81999">
        <ele>1865.1999511719</ele>
        <time>2023-10-01T08:43:56.000Z</time>
      </trkpt>
      <trkpt lat="45.00558" lon="5.81999">
        <ele>1865.4000244141</ele>
        <time>2023-10-01T08:43:57.000Z</time>
      </trkpt>
      <trkpt lat="45.00558" lon="5.82">
        <ele>1865.5999755859</ele>
        <time>2023-10-01T08:43:58.000Z</time>
      </trkpt>
      <trkpt lat="45.00558" lon="5.82">
        <ele>1865.8000488281</ele>
        <time>2023-10-01T08:43:59.000Z</time>
      </trkpt>
      <trkpt lat="45.00558" lon="5.82">
        <ele>1865.8000488281</ele>
        <time>2023-10-01T08:44:00.000Z</time>
      </trkpt>
      <trkpt lat="45.00558" lon="5.82001">
        <ele>1866.1999511719</ele>
        <time>2023-10-01T08:44:01.000Z</time>
      </trkpt>
      <trkpt lat="45.00558" lon="5.82002">
        <ele>1866.4000244141</ele>
        <time>2023-10-01T08:44:02.000Z</time>
      </trkpt>
      <trkpt lat="45.00558" lon="5.82002">
        <ele>1867</ele>
        <time>2023-10-01T08:44:03.000Z</time>
      </trkpt>
      <trkpt lat="45.00558" lon="5.82003">
        <ele>1867.1999511719</ele>
        <time>2023-10-01T08:44:04.000Z</time>
      </trkpt>
      <trkpt lat="45.00558" lon="5.82004">
        <ele>1867.5999755859</ele>
        <time>2023-10-01T08:44:05.000Z</time>
      </trkpt>
      <trkpt lat="45.00558" lon="5.82005">
        <ele>1867.8000488281</ele>
        <time>2023-10-01T08:44:06.000Z</time>
      </trkpt>
      <trkpt lat="45.00558" lon="5.82005">
        <ele>1868</ele>
        <time>2023-10-01T08:44:07.000Z</time>
      </trkpt>
      <trkpt lat="45.00558" lon="5.82006">
        <ele>1868.1999511719</ele>
        <time>2023-10-01T08:44:08.000Z</time>
      </trkpt>
      <trkpt lat="45.00558" lon="5.82006">
        <ele>1868.4000244141</ele>
        <time>2023-10-01T08:44:09.000Z</time>
      </trkpt>
      <trkpt lat="45.00557" lon="5.82007">
        <ele>1868.8000488281</ele>
        <time>2023-10-01T08:44:10.000Z</time>
      </trkpt>
      <trkpt lat="45.00557" lon="5.82008">
        <ele>1869</ele>
        <time>2023-10-01T08:44:11.000Z</time>
      </trkpt>
      <trkpt lat="45.00557" lon="5.82007">
        <ele>1869.1999511719</ele>
        <time>2023-10-01T08:44:12.000Z</time>
      </trkpt>
      <trkpt lat="45.00557" lon="5.82008">
        <ele>1869.4000244141</ele>
        <time>2023-10-01T08:44:13.000Z</time>
      </trkpt>
      <trkpt lat="45.00557" lon="5.82009">
        <ele>1869.8000488281</ele>
        <time>2023-10-01T08:44:14.000Z</time>
      </trkpt>
      <trkpt lat="45.00557" lon="5.82009">
        <ele>1870.1999511719</ele>
        <time>2023-10-01T08:44:15.000Z</time>
      </trkpt>
      <trkpt lat="45.00557" lon="5.8201">
        <ele>1870.4000244141</ele>
        <time>2023-10-01T08:44:16.000Z</time>
      </trkpt>
      <trkpt lat="45.00557" lon="5.8201">
        <ele>1870.8000488281</ele>
        <time>2023-10-01T08:44:17.000Z</time>
      </trkpt>
      <trkpt lat="45.00557" lon="5.82011">
        <ele>1871</ele>
        <time>2023-10-01T08:44:18.000Z</time>
      </trkpt>
      <trkpt lat="45.00557" lon="5.82011">
        <ele>1871.4000244141</ele>
        <time>2023-10-01T08:44:19.000Z</time>
      </trkpt>
      <trkpt lat="45.00558" lon="5.82011">
        <ele>1871.5999755859</ele>
        <time>2023-10-01T08:44:20.000Z</time>
      </trkpt>
      <trkpt lat="45.00558" lon="5.82011">
        <ele>1871.8000488281</ele>
        <time>2023-10-01T08:44:21.000Z</time>
      </trkpt>
      <trkpt lat="45.00558" lon="5.82012">
        <ele>1872.1999511719</ele>
        <time>2023-10-01T08:44:22.000Z</time>
      </trkpt>
      <trkpt lat="45.00558" lon="5.82012">
        <ele>1872.4000244141</ele>
        <time>2023-10-01T08:44:23.000Z</time>
      </trkpt>
      <trkpt lat="45.00558" lon="5.82012">
        <ele>1872.8000488281</ele>
        <time>2023-10-01T08:44:24.000Z</time>
      </trkpt>
      <trkpt lat="45.00558" lon="5.82013">
        <ele>1873</ele>
        <time>2023-10-01T08:44:25.000Z</time>
      </trkpt>
      <trkpt lat="45.00557" lon="5.82014">
        <ele>1873.1999511719</ele>
        <time>2023-10-01T08:44:26.000Z</time>
      </trkpt>
      <trkpt lat="45.00557" lon="5.82014">
        <ele>1873.4000244141</ele>
        <time>2023-10-01T08:44:27.000Z</time>
      </trkpt>
      <trkpt lat="45.00557" lon="5.82015">
        <ele>1873.5999755859</ele>
        <time>2023-10-01T08:44:28.000Z</time>
      </trkpt>
      <trkpt lat="45.00556" lon="5.82016">
        <ele>1873.8000488281</ele>
        <time>2023-10-01T08:44:29.000Z</time>
      </trkpt>
      <trkpt lat="45.00556" lon="5.82016">
        <ele>1874</ele>
        <time>2023-10-01T08:44:30.000Z</time>
      </trkpt>
      <trkpt lat="45.00555" lon="5.82017">
        <ele>1874.1999511719</ele>
        <time>2023-10-01T08:44:31.000Z</time>
      </trkpt>
      <trkpt lat="45.00555" lon="5.82017">
        <ele>1874.5999755859</ele>
        <time>2023-10-01T08:44:32.000Z</time>
      </trkpt>
      <trkpt lat="45.00555" lon="5.82018">
        <ele>1874.8000488281</ele>
        <time>2023-10-01T08:44:33.000Z</time>
      </trkpt>
      <trkpt lat="45.00555" lon="5.82018">
        <ele>1875</ele>
        <time>2023-10-01T08:44:34.000Z</time>
      </trkpt>
      <trkpt lat="45.00555" lon="5.82018">
        <ele>1875.4000244141</ele>
        <time>2023-10-01T08:44:35.000Z</time>
      </trkpt>
      <trkpt lat="45.00555" lon="5.82018">
        <ele>1875.5999755859</ele>
        <time>2023-10-01T08:44:36.000Z</time>
      </trkpt>
      <trkpt lat="45.00555" lon="5.82019">
        <ele>1876</ele>
        <time>2023-10-01T08:44:37.000Z</time>
      </trkpt>
      <trkpt lat="45.00555" lon="5.8202">
        <ele>1876.1999511719</ele>
        <time>2023-10-01T08:44:38.000Z</time>
      </trkpt>
      <trkpt lat="45.00555" lon="5.8202">
        <ele>1876.4000244141</ele>
        <time>2023-10-01T08:44:39.000Z</time>
      </trkpt>
      <trkpt lat="45.00555" lon="5.82021">
        <ele>1876.8000488281</ele>
        <time>2023-10-01T08:44:40.000Z</time>
      </trkpt>
      <trkpt lat="45.00555" lon="5.82021">
        <ele>1876.8000488281</ele>
        <time>2023-10-01T08:44:41.000Z</time>
      </trkpt>
      <trkpt lat="45.00555" lon="5.82022">
        <ele>1877.1999511719</ele>
        <time>2023-10-01T08:44:42.000Z</time>
      </trkpt>
      <trkpt lat="45.00555" lon="5.82022">
        <ele>1877.4000244141</ele>
        <time>2023-10-01T08:44:43.000Z</time>
      </trkpt>
      <trkpt lat="45.00554" lon="5.82022">
        <ele>1878</ele>
        <time>2023-10-01T08:44:44.000Z</time>
      </trkpt>
      <trkpt lat="45.00554" lon="5.82023">
        <ele>1878</ele>
        <time>2023-10-01T08:44:45.000Z</time>
      </trkpt>
      <trkpt lat="45.00554" lon="5.82024">
        <ele>1878.1999511719</ele>
        <time>2023-10-01T08:44:46.000Z</time>
      </trkpt>
      <trkpt lat="45.00553" lon="5.82024">
        <ele>1878.5999755859</ele>
        <time>2023-10-01T08:44:47.000Z</time>
      </trkpt>
      <trkpt lat="45.00553" lon="5.82025">
        <ele>1878.8000488281</ele>
        <time>2023-10-01T08:44:48.000Z</time>
      </trkpt>
      <trkpt lat="45.00553" lon="5.82025">
        <ele>1879</ele>
        <time>2023-10-01T08:44:49.000Z</time>
      </trkpt>
      <trkpt lat="45.00554" lon="5.82025">
        <ele>1879.1999511719</ele>
        <time>2023-10-01T08:44:50.000Z</time>
      </trkpt>
      <trkpt lat="45.00554" lon="5.82025">
        <ele>1879.5999755859</ele>
        <time>2023-10-01T08:44:51.000Z</time>
      </trkpt>
      <trkpt lat="45.00554" lon="5.82026">
        <ele>1879.8000488281</ele>
        <time>2023-10-01T08:44:52.000Z</time>
      </trkpt>
      <trkpt lat="45.00554" lon="5.82026">
        <ele>1880</ele>
        <time>2023-10-01T08:44:53.000Z</time>
      </trkpt>
      <trkpt lat="45.00554" lon="5.82027">
        <ele>1880.1999511719</ele>
        <time>2023-10-01T08:44:54.000Z</time>
      </trkpt>
      <trkpt lat="45.00554" lon="5.82027">
        <ele>1880.4000244141</ele>
        <time>2023-10-01T08:44:55.000Z</time>
      </trkpt>
      <trkpt lat="45.00554" lon="5.82028">
        <ele>1880.5999755859</ele>
        <time>2023-10-01T08:44:56.000Z</time>
      </trkpt>
      <trkpt lat="45.00554" lon="5.82029">
        <ele>1880.5999755859</ele>
        <time>2023-10-01T08:44:57.000Z</time>
      </trkpt>
      <trkpt lat="45.00554" lon="5.82029">
        <ele>1881</ele>
        <time>2023-10-01T08:44:58.000Z</time>
      </trkpt>
      <trkpt lat="45.00553" lon="5.8203">
        <ele>1881.4000244141</ele>
        <time>2023-10-01T08:44:59.000Z</time>
      </trkpt>
      <trkpt lat="45.00553" lon="5.82031">
        <ele>1881.4000244141</ele>
        <time>2023-10-01T08:45:00.000Z</time>
      </trkpt>
      <trkpt lat="45.00553" lon="5.82031">
        <ele>1881.8000488281</ele>
        <time>2023-10-01T08:45:01.000Z</time>
      </trkpt>
      <trkpt lat="45.00553" lon="5.82031">
        <ele>1882</ele>
        <time>2023-10-01T08:45:02.000Z</time>
      </trkpt>
      <trkpt lat="45.00553" lon="5.82032">
        <ele>1882.4000244141</ele>
        <time>2023-10-01T08:45:03.000Z</time>
      </trkpt>
      <trkpt lat="45.00553" lon="5.82032">
        <ele>1882.5999755859</ele>
        <time>2023-10-01T08:45:04.000Z</time>
      </trkpt>
      <trkpt lat="45.00554" lon="5.82033">
        <ele>1882.8000488281</ele>
        <time>2023-10-01T08:45:05.000Z</time>
      </trkpt>
      <trkpt lat="45.00554" lon="5.82033">
        <ele>1883.1999511719</ele>
        <time>2023-10-01T08:45:06.000Z</time>
      </trkpt>
      <trkpt lat="45.00554" lon="5.82035">
        <ele>1883.4000244141</ele>
        <time>2023-10-01T08:45:07.000Z</time>
      </trkpt>
      <trkpt lat="45.00554" lon="5.82036">
        <ele>1883.8000488281</ele>
        <time>2023-10-01T08:45:08.000Z</time>
      </trkpt>
      <trkpt lat="45.00554" lon="5.82037">
        <ele>1884</ele>
        <time>2023-10-01T08:45:09.000Z</time>
      </trkpt>
      <trkpt lat="45.00553" lon="5.82038">
        <ele>1884.1999511719</ele>
        <time>2023-10-01T08:45:10.000Z</time>
      </trkpt>
      <trkpt lat="45.00553" lon="5.82039">
        <ele>1884.4000244141</ele>
        <time>2023-10-01T08:45:11.000Z</time>
      </trkpt>
      <trkpt lat="45.00553" lon="5.82039">
        <ele>1884.8000488281</ele>
        <time>2023-10-01T08:45:12.000Z</time>
      </trkpt>
      <trkpt lat="45.00553" lon="5.82039">
        <ele>1885.1999511719</ele>
        <time>2023-10-01T08:45:13.000Z</time>
      </trkpt>
      <trkpt lat="45.00553" lon="5.82039">
        <ele>1885.4000244141</ele>
        <time>2023-10-01T08:45:14.000Z</time>
      </trkpt>
      <trkpt lat="45.00553" lon="5.8204">
        <ele>1885.5999755859</ele>
        <time>2023-10-01T08:45:15.000Z</time>
      </trkpt>
      <trkpt lat="45.00553" lon="5.82041">
        <ele>1885.8000488281</ele>
        <time>2023-10-01T08:45:16.000Z</time>
      </trkpt>
      <trkpt lat="45.00552" lon="5.82041">
        <ele>1886.1999511719</ele>
        <time>2023-10-01T08:45:17.000Z</time>
      </trkpt>
      <trkpt lat="45.00552" lon="5.82042">
        <ele>1886.4000244141</ele>
        <time>2023-10-01T08:45:18.000Z</time>
      </trkpt>
      <trkpt lat="45.00552" lon="5.82042">
        <ele>1886.5999755859</ele>
        <time>2023-10-01T08:45:19.000Z</time>
      </trkpt>
      <trkpt lat="45.00552" lon="5.82043">
        <ele>1886.8000488281</ele>
        <time>2023-10-01T08:45:20.000Z</time>
      </trkpt>
      <trkpt lat="45.00551" lon="5.82043">
        <ele>1887.1999511719</ele>
        <time>2023-10-01T08:45:21.000Z</time>
      </trkpt>
      <trkpt lat="45.00551" lon="5.82044">
        <ele>1887.4000244141</ele>
        <time>2023-10-01T08:45:22.000Z</time>
      </trkpt>
      <trkpt lat="45.00551" lon="5.82044">
        <ele>1887.5999755859</ele>
        <time>2023-10-01T08:45:23.000Z</time>
      </trkpt>
      <trkpt lat="45.00551" lon="5.82044">
        <ele>1888</ele>
        <time>2023-10-01T08:45:24.000Z</time>
      </trkpt>
      <trkpt lat="45.00551" lon="5.82044">
        <ele>1888</ele>
        <time>2023-10-01T08:45:25.000Z</time>
      </trkpt>
      <trkpt lat="45.00551" lon="5.82044">
        <ele>1888.4000244141</ele>
        <time>2023-10-01T08:45:26.000Z</time>
      </trkpt>
      <trkpt lat="45.00551" lon="5.82045">
        <ele>1888.5999755859</ele>
        <time>2023-10-01T08:45:27.000Z</time>
      </trkpt>
      <trkpt lat="45.00551" lon="5.82046">
        <ele>1888.8000488281</ele>
        <time>2023-10-01T08:45:28.000Z</time>
      </trkpt>
      <trkpt lat="45.00551" lon="5.82046">
        <ele>1889</ele>
        <time>2023-10-01T08:45:29.000Z</time>
      </trkpt>
      <trkpt lat="45.00551" lon="5.82047">
        <ele>1889.4000244141</ele>
        <time>2023-10-01T08:45:30.000Z</time>
      </trkpt>
      <trkpt lat="45.00551" lon="5.82047">
        <ele>1889.4000244141</ele>
        <time>2023-10-01T08:45:31.000Z</time>
      </trkpt>
      <trkpt lat="45.00551" lon="5.82048">
        <ele>1889.5999755859</ele>
        <time>2023-10-01T08:45:32.000Z</time>
      </trkpt>
      <trkpt lat="45.00551" lon="5.82049">
        <ele>1890</ele>
        <time>2023-10-01T08:45:33.000Z</time>
      </trkpt>
      <trkpt lat="45.00551" lon="5.8205">
        <ele>1890.1999511719</ele>
        <time>2023-10-01T08:45:34.000Z</time>
      </trkpt>
      <trkpt lat="45.00551" lon="5.8205">
        <ele>1890.4000244141</ele>
        <time>2023-10-01T08:45:35.000Z</time>
      </trkpt>
      <trkpt lat="45.00551" lon="5.8205">
        <ele>1890.8000488281</ele>
        <time>2023-10-01T08:45:36.000Z</time>
      </trkpt>
      <trkpt lat="45.00551" lon="5.82051">
        <ele>1891</ele>
        <time>2023-10-01T08:45:37.000Z</time>
      </trkpt>
      <trkpt lat="45.00551" lon="5.82051">
        <ele>1891.1999511719</ele>
        <time>2023-10-01T08:45:38.000Z</time>
      </trkpt>
      <trkpt lat="45.00551" lon="5.82052">
        <ele>1891.4000244141</ele>
        <time>2023-10-01T08:45:39.000Z</time>
      </trkpt>
      <trkpt lat="45.0055" lon="5.82053">
        <ele>1891.5999755859</ele>
        <time>2023-10-01T08:45:40.000Z</time>
      </trkpt>
      <trkpt lat="45.0055" lon="5.82054">
        <ele>1891.8000488281</ele>
        <time>2023-10-01T08:45:41.000Z</time>
      </trkpt>
      <trkpt lat="45.0055" lon="5.82055">
        <ele>1892</ele>
        <time>2023-10-01T08:45:42.000Z</time>
      </trkpt>
      <trkpt lat="45.0055" lon="5.82055">
        <ele>1892.4000244141</ele>
        <time>2023-10-01T08:45:43.000Z</time>
      </trkpt>
      <trkpt lat="45.0055" lon="5.82055">
        <ele>1892.5999755859</ele>
        <time>2023-10-01T08:45:44.000Z</time>
      </trkpt>
      <trkpt lat="45.0055" lon="5.82056">
        <ele>1892.8000488281</ele>
        <time>2023-10-01T08:45:45.000Z</time>
      </trkpt>
      <trkpt lat="45.0055" lon="5.82057">
        <ele>1893.1999511719</ele>
        <time>2023-10-01T08:45:46.000Z</time>
      </trkpt>
      <trkpt lat="45.0055" lon="5.82057">
        <ele>1893.4000244141</ele>
        <time>2023-10-01T08:45:47.000Z</time>
      </trkpt>
      <trkpt lat="45.0055" lon="5.82057">
        <ele>1893.8000488281</ele>
        <time>2023-10-01T08:45:48.000Z</time>
      </trkpt>
      <trkpt lat="45.0055" lon="5.82057">
        <ele>1894.1999511719</ele>
        <time>2023-10-01T08:45:49.000Z</time>
      </trkpt>
      <trkpt lat="45.0055" lon="5.82058">
        <ele>1894.4000244141</ele>
        <time>2023-10-01T08:45:50.000Z</time>
      </trkpt>
      <trkpt lat="45.0055" lon="5.82059">
        <ele>1894.5999755859</ele>
        <time>2023-10-01T08:45:51.000Z</time>
      </trkpt>
      <trkpt lat="45.0055" lon="5.82059">
        <ele>1894.8000488281</ele>
        <time>2023-10-01T08:45:52.000Z</time>
      </trkpt>
      <trkpt lat="45.0055" lon="5.8206">
        <ele>1895</ele>
        <time>2023-10-01T08:45:53.000Z</time>
      </trkpt>
      <trkpt lat="45.0055" lon="5.8206">
        <ele>1895.4000244141</ele>
        <time>2023-10-01T08:45:54.000Z</time>
      </trkpt>
      <trkpt lat="45.0055" lon="5.82061">
        <ele>1895.5999755859</ele>
        <time>2023-10-01T08:45:55.000Z</time>
      </trkpt>
      <trkpt lat="45.0055" lon="5.82062">
        <ele>1895.8000488281</ele>
        <time>2023-10-01T08:45:56.000Z</time>
      </trkpt>
      <trkpt lat="45.0055" lon="5.82062">
        <ele>1896.1999511719</ele>
        <time>2023-10-01T08:45:57.000Z</time>
      </trkpt>
      <trkpt lat="45.0055" lon="5.82063">
        <ele>1896.4000244141</ele>
        <time>2023-10-01T08:45:58.000Z</time>
      </trkpt>
      <trkpt lat="45.0055" lon="5.82063">
        <ele>1896.5999755859</ele>
        <time>2023-10-01T08:45:59.000Z</time>
      </trkpt>
      <trkpt lat="45.0055" lon="5.82063">
        <ele>1897</ele>
        <time>2023-10-01T08:46:00.000Z</time>
      </trkpt>
      <trkpt lat="45.0055" lon="5.82064">
        <ele>1897.1999511719</ele>
        <time>2023-10-01T08:46:01.000Z</time>
      </trkpt>
      <trkpt lat="45.00549" lon="5.82065">
        <ele>1897.4000244141</ele>
        <time>2023-10-01T08:46:02.000Z</time>
      </trkpt>
      <trkpt lat="45.00549" lon="5.82066">
        <ele>1897.5999755859</ele>
        <time>2023-10-01T08:46:03.000Z</time>
      </trkpt>
      <trkpt lat="45.00549" lon="5.82067">
        <ele>1897.8000488281</ele>
        <time>2023-10-01T08:46:04.000Z</time>
      </trkpt>
      <trkpt lat="45.00549" lon="5.82066">
        <ele>1898.1999511719</ele>
        <time>2023-10-01T08:46:05.000Z</time>
      </trkpt>
      <trkpt lat="45.00549" lon="5.82067">
        <ele>1898.4000244141</ele>
        <time>2023-10-01T08:46:06.000Z</time>
      </trkpt>
      <trkpt lat="45.00548" lon="5.82068">
        <ele>1898.5999755859</ele>
        <time>2023-10-01T08:46:07.000Z</time>
      </trkpt>
      <trkpt lat="45.00548" lon="5.82069">
        <ele>1899</ele>
        <time>2023-10-01T08:46:08.000Z</time>
      </trkpt>
      <trkpt lat="45.00548" lon="5.82069">
        <ele>1899.1999511719</ele>
        <time>2023-10-01T08:46:09.000Z</time>
      </trkpt>
      <trkpt lat="45.00548" lon="5.82069">
        <ele>1899.5999755859</ele>
        <time>2023-10-01T08:46:10.000Z</time>
      </trkpt>
      <trkpt lat="45.00548" lon="5.8207">
        <ele>1899.8000488281</ele>
        <time>2023-10-01T08:46:11.000Z</time>
      </trkpt>
      <trkpt lat="45.00548" lon="5.8207">
        <ele>1900.1999511719</ele>
        <time>2023-10-01T08:46:12.000Z</time>
      </trkpt>
      <trkpt lat="45.00548" lon="5.82071">
        <ele>1900.4000244141</ele>
        <time>2023-10-01T08:46:13.000Z</time>
      </trkpt>
      <trkpt lat="45.00548" lon="5.82072">
        <ele>1900.5999755859</ele>
        <time>2023-10-01T08:46:14.000Z</time>
      </trkpt>
      <trkpt lat="45.00549" lon="5.82073">
        <ele>1900.8000488281</ele>
        <time>2023-10-01T08:46:15.000Z</time>
      </trkpt>
      <trkpt lat="45.00549" lon="5.82074">
        <ele>1901</ele>
        <time>2023-10-01T08:46:16.000Z</time>
      </trkpt>
      <trkpt lat="45.00548" lon="5.82075">
        <ele>1901.4000244141</ele>
        <time>2023-10-01T08:46:17.000Z</time>
      </trkpt>
      <trkpt lat="45.00548" lon="5.82075">
        <ele>1901.5999755859</ele>
        <time>2023-10-01T08:46:18.000Z</time>
      </trkpt>
      <trkpt lat="45.00548" lon="5.82076">
        <ele>1902</ele>
        <time>2023-10-01T08:46:19.000Z</time>
      </trkpt>
      <trkpt lat="45.00548" lon="5.82077">
        <ele>1902.1999511719</ele>
        <time>2023-10-01T08:46:20.000Z</time>
      </trkpt>
      <trkpt lat="45.00548" lon="5.82077">
        <ele>1902.4000244141</ele>
        <time>2023-10-01T08:46:21.000Z</time>
      </trkpt>
      <trkpt lat="45.00548" lon="5.82078">
        <ele>1902.5999755859</ele>
        <time>2023-10-01T08:46:22.000Z</time>
      </trkpt>
      <trkpt lat="45.00548" lon="5.82078">
        <ele>1902.8000488281</ele>
        <time>2023-10-01T08:46:23.000Z</time>
      </trkpt>
      <trkpt lat="45.00548" lon="5.82079">
        <ele>1903.1999511719</ele>
        <time>2023-10-01T08:46:24.000Z</time>
      </trkpt>
      <trkpt lat="45.00548" lon="5.82079">
        <ele>1903.5999755859</ele>
        <time>2023-10-01T08:46:25.000Z</time>
      </trkpt>
      <trkpt lat="45.00548" lon="5.8208">
        <ele>1903.5999755859</ele>
        <time>2023-10-01T08:46:26.000Z</time>
      </trkpt>
      <trkpt lat="45.00547" lon="5.82081">
        <ele>1904</ele>
        <time>2023-10-01T08:46:27.000Z</time>
      </trkpt>
      <trkpt lat="45.00547" lon="5.82082">
        <ele>1904.1999511719</ele>
        <time>2023-10-01T08:46:28.000Z</time>
      </trkpt>
      <trkpt lat="45.00547" lon="5.82083">
        <ele>1904.5999755859</ele>
        <time>2023-10-01T08:46:29.000Z</time>
      </trkpt>
      <trkpt lat="45.00547" lon="5.82083">
        <ele>1904.8000488281</ele>
        <time>2023-10-01T08:46:30.000Z</time>
      </trkpt>
      <trkpt lat="45.00547" lon="5.82084">
        <ele>1905</ele>
        <time>2023-10-01T08:46:31.000Z</time>
      </trkpt>
      <trkpt lat="45.00547" lon="5.82084">
        <ele>1905.4000244141</ele>
        <time>2023-10-01T08:46:32.000Z</time>
      </trkpt>
      <trkpt lat="45.00547" lon="5.82085">
        <ele>1905.5999755859</ele>
        <time>2023-10-01T08:46:33.000Z</time>
      </trkpt>
      <trkpt lat="45.00547" lon="5.82085">
        <ele>1906</ele>
        <time>2023-10-01T08:46:34.000Z</time>
      </trkpt>
      <trkpt lat="45.00547" lon="5.82086">
        <ele>1906.1999511719</ele>
        <time>2023-10-01T08:46:35.000Z</time>
      </trkpt>
      <trkpt lat="45.00547" lon="5.82087">
        <ele>1906.4000244141</ele>
        <time>2023-10-01T08:46:36.000Z</time>
      </trkpt>
      <trkpt lat="45.00547" lon="5.82087">
        <ele>1906.8000488281</ele>
        <time>2023-10-01T08:46:37.000Z</time>
      </trkpt>
      <trkpt lat="45.00547" lon="5.82088">
        <ele>1907.1999511719</ele>
        <time>2023-10-01T08:46:38.000Z</time>
      </trkpt>
      <trkpt lat="45.00547" lon="5.82088">
        <ele>1907.1999511719</ele>
        <time>2023-10-01T08:46:39.000Z</time>
      </trkpt>
      <trkpt lat="45.00547" lon="5.82089">
        <ele>1907.5999755859</ele>
        <time>2023-10-01T08:46:40.000Z</time>
      </trkpt>
      <trkpt lat="45.00547" lon="5.82089">
        <ele>1907.8000488281</ele>
        <time>2023-10-01T08:46:41.000Z</time>
      </trkpt>
      <trkpt lat="45.00546" lon="5.82089">
        <ele>1908</ele>
        <time>2023-10-01T08:46:42.000Z</time>
      </trkpt>
      <trkpt lat="45.00546" lon="5.82089">
        <ele>1908.4000244141</ele>
        <time>2023-10-01T08:46:43.000Z</time>
      </trkpt>
      <trkpt lat="45.00546" lon="5.82089">
        <ele>1908.5999755859</ele>
        <time>2023-10-01T08:46:44.000Z</time>
      </trkpt>
      <trkpt lat="45.00546" lon="5.8209">
        <ele>1908.8000488281</ele>
        <time>2023-10-01T08:46:45.000Z</time>
      </trkpt>
      <trkpt lat="45.00546" lon="5.82091">
        <ele>1909</ele>
        <time>2023-10-01T08:46:46.000Z</time>
      </trkpt>
      <trkpt lat="45.00546" lon="5.82091">
        <ele>1909.4000244141</ele>
        <time>2023-10-01T08:46:47.000Z</time>
      </trkpt>
      <trkpt lat="45.00545" lon="5.82091">
        <ele>1909.5999755859</ele>
        <time>2023-10-01T08:46:48.000Z</time>
      </trkpt>
      <trkpt lat="45.00545" lon="5.82091">
        <ele>1909.8000488281</ele>
        <time>2023-10-01T08:46:49.000Z</time>
      </trkpt>
      <trkpt lat="45.00545" lon="5.82092">
        <ele>1910</ele>
        <time>2023-10-01T08:46:50.000Z</time>
      </trkpt>
      <trkpt lat="45.00545" lon="5.82092">
        <ele>1910.4000244141</ele>
        <time>2023-10-01T08:46:51.000Z</time>
      </trkpt>
      <trkpt lat="45.00545" lon="5.82093">
        <ele>1910.4000244141</ele>
        <time>2023-10-01T08:46:52.000Z</time>
      </trkpt>
      <trkpt lat="45.00545" lon="5.82094">
        <ele>1910.8000488281</ele>
        <time>2023-10-01T08:46:53.000Z</time>
      </trkpt>
      <trkpt lat="45.00545" lon="5.82094">
        <ele>1911.1999511719</ele>
        <time>2023-10-01T08:46:54.000Z</time>
      </trkpt>
      <trkpt lat="45.00545" lon="5.82095">
        <ele>1911.4000244141</ele>
        <time>2023-10-01T08:46:55.000Z</time>
      </trkpt>
      <trkpt lat="45.00545" lon="5.82096">
        <ele>1911.5999755859</ele>
        <time>2023-10-01T08:46:56.000Z</time>
      </trkpt>
      <trkpt lat="45.00545" lon="5.82097">
        <ele>1911.8000488281</ele>
        <time>2023-10-01T08:46:57.000Z</time>
      </trkpt>
      <trkpt lat="45.00544" lon="5.82098">
        <ele>1912.1999511719</ele>
        <time>2023-10-01T08:46:58.000Z</time>
      </trkpt>
      <trkpt lat="45.00544" lon="5.82098">
        <ele>1912.5999755859</ele>
        <time>2023-10-01T08:46:59.000Z</time>
      </trkpt>
      <trkpt lat="45.00544" lon="5.82098">
        <ele>1912.8000488281</ele>
        <time>2023-10-01T08:47:00.000Z</time>
      </trkpt>
      <trkpt lat="45.00544" lon="5.82098">
        <ele>1913</ele>
        <time>2023-10-01T08:47:01.000Z</time>
      </trkpt>
      <trkpt lat="45.00544" lon="5.82099">
        <ele>1913.1999511719</ele>
        <time>2023-10-01T08:47:02.000Z</time>
      </trkpt>
      <trkpt lat="45.00544" lon="5.82099">
        <ele>1913.5999755859</ele>
        <time>2023-10-01T08:47:03.000Z</time>
      </trkpt>
      <trkpt lat="45.00544" lon="5.821">
        <ele>1913.8000488281</ele>
        <time>2023-10-01T08:47:04.000Z</time>
      </trkpt>
      <trkpt lat="45.00544" lon="5.82101">
        <ele>1914</ele>
        <time>2023-10-01T08:47:05.000Z</time>
      </trkpt>
      <trkpt lat="45.00544" lon="5.82102">
        <ele>1914.1999511719</ele>
        <time>2023-10-01T08:47:06.000Z</time>
      </trkpt>
      <trkpt lat="45.00543" lon="5.82103">
        <ele>1914.4000244141</ele>
        <time>2023-10-01T08:47:07.000Z</time>
      </trkpt>
      <trkpt lat="45.00543" lon="5.82104">
        <ele>1914.8000488281</ele>
        <time>2023-10-01T08:47:08.000Z</time>
      </trkpt>
      <trkpt lat="45.00543" lon="5.82104">
        <ele>1915.1999511719</ele>
        <time>2023-10-01T08:47:09.000Z</time>
      </trkpt>
      <trkpt lat="45.00543" lon="5.82105">
        <ele>1915.4000244141</ele>
        <time>2023-10-01T08:47:10.000Z</time>
      </trkpt>
      <trkpt lat="45.00543" lon="5.82105">
        <ele>1915.5999755859</ele>
        <time>2023-10-01T08:47:11.000Z</time>
      </trkpt>
      <trkpt lat="45.00543" lon="5.82106">
        <ele>1915.8000488281</ele>
        <time>2023-10-01T08:47:12.000Z</time>
      </trkpt>
      <trkpt lat="45.00543" lon="5.82106">
        <ele>1916.1999511719</ele>
        <time>2023-10-01T08:47:13.000Z</time>
      </trkpt>
      <trkpt lat="45.00543" lon="5.82106">
        <ele>1916.5999755859</ele>
        <time>2023-10-01T08:47:14.000Z</time>
      </trkpt>
      <trkpt lat="45.00543" lon="5.82107">
        <ele>1916.5999755859</ele>
        <time>2023-10-01T08:47:15.000Z</time>
      </trkpt>
      <trkpt lat="45.00543" lon="5.82108">
        <ele>1917.1999511719</ele>
        <time>2023-10-01T08:47:16.000Z</time>
      </trkpt>
      <trkpt lat="45.00542" lon="5.82109">
        <ele>1917.4000244141</ele>
        <time>2023-10-01T08:47:17.000Z</time>
      </trkpt>
      <trkpt lat="45.00542" lon="5.8211">
        <ele>1917.8000488281</ele>
        <time>2023-10-01T08:47:18.000Z</time>
      </trkpt>
      <trkpt lat="45.00542" lon="5.82109">
        <ele>1918</ele>
        <time>2023-10-01T08:47:19.000Z</time>
      </trkpt>
      <trkpt lat="45.00542" lon="5.8211">
        <ele>1918.1999511719</ele>
        <time>2023-10-01T08:47:20.000Z</time>
      </trkpt>
      <trkpt lat="45.00542" lon="5.8211">
        <ele>1918.5999755859</ele>
        <time>2023-10-01T08:47:21.000Z</time>
      </trkpt>
      <trkpt lat="45.00542" lon="5.82111">
        <ele>1918.8000488281</ele>
        <time>2023-10-01T08:47:22.000Z</time>
      </trkpt>
      <trkpt lat="45.00542" lon="5.82112">
        <ele>1919</ele>
        <time>2023-10-01T08:47:23.000Z</time>
      </trkpt>
      <trkpt lat="45.00542" lon="5.82112">
        <ele>1919.4000244141</ele>
        <time>2023-10-01T08:47:24.000Z</time>
      </trkpt>
      <trkpt lat="45.00541" lon="5.82113">
        <ele>1919.5999755859</ele>
        <time>2023-10-01T08:47:25.000Z</time>
      </trkpt>
      <trkpt lat="45.00541" lon="5.82114">
        <ele>1919.8000488281</ele>
        <time>2023-10-01T08:47:26.000Z</time>
      </trkpt>
      <trkpt lat="45.00541" lon="5.82115">
        <ele>1920</ele>
        <time>2023-10-01T08:47:27.000Z</time>
      </trkpt>
      <trkpt lat="45.00541" lon="5.82116">
        <ele>1920.5999755859</ele>
        <time>2023-10-01T08:47:28.000Z</time>
      </trkpt>
      <trkpt lat="45.0054" lon="5.82117">
        <ele>1920.8000488281</ele>
        <time>2023-10-01T08:47:29.000Z</time>
      </trkpt>
      <trkpt lat="45.0054" lon="5.82118">
        <ele>1921.1999511719</ele>
        <time>2023-10-01T08:47:30.000Z</time>
      </trkpt>
      <trkpt lat="45.00541" lon="5.82117">
        <ele>1921.4000244141</ele>
        <time>2023-10-01T08:47:31.000Z</time>
      </trkpt>
      <trkpt lat="45.0054" lon="5.82118">
        <ele>1921.8000488281</ele>
        <time>2023-10-01T08:47:32.000Z</time>
      </trkpt>
      <trkpt lat="45.00541" lon="5.82119">
        <ele>1922.1999511719</ele>
        <time>2023-10-01T08:47:33.000Z</time>
      </trkpt>
      <trkpt lat="45.0054" lon="5.8212">
        <ele>1922.4000244141</ele>
        <time>2023-10-01T08:47:34.000Z</time>
      </trkpt>
      <trkpt lat="45.00541" lon="5.8212">
        <ele>1922.5999755859</ele>
        <time>2023-10-01T08:47:35.000Z</time>
      </trkpt>
      <trkpt lat="45.00541" lon="5.82121">
        <ele>1922.8000488281</ele>
        <time>2023-10-01T08:47:36.000Z</time>
      </trkpt>
      <trkpt lat="45.00541" lon="5.82121">
        <ele>1923</ele>
        <time>2023-10-01T08:47:37.000Z</time>
      </trkpt>
      <trkpt lat="45.0054" lon="5.82122">
        <ele>1923.4000244141</ele>
        <time>2023-10-01T08:47:38.000Z</time>
      </trkpt>
      <trkpt lat="45.0054" lon="5.82122">
        <ele>1923.8000488281</ele>
        <time>2023-10-01T08:47:39.000Z</time>
      </trkpt>
      <trkpt lat="45.0054" lon="5.82122">
        <ele>1924</ele>
        <time>2023-10-01T08:47:40.000Z</time>
      </trkpt>
      <trkpt lat="45.0054" lon="5.82123">
        <ele>1924.1999511719</ele>
        <time>2023-10-01T08:47:41.000Z</time>
      </trkpt>
      <trkpt lat="45.0054" lon="5.82123">
        <ele>1924.4000244141</ele>
        <time>2023-10-01T08:47:42.000Z</time>
      </trkpt>
      <trkpt lat="45.0054" lon="5.82124">
        <ele>1924.5999755859</ele>
        <time>2023-10-01T08:47:43.000Z</time>
      </trkpt>
      <trkpt lat="45.00539" lon="5.82125">
        <ele>1925</ele>
        <time>2023-10-01T08:47:44.000Z</time>
      </trkpt>
      <trkpt lat="45.00539" lon="5.82126">
        <ele>1925.1999511719</ele>
        <time>2023-10-01T08:47:45.000Z</time>
      </trkpt>
      <trkpt lat="45.00539" lon="5.82127">
        <ele>1925.5999755859</ele>
        <time>2023-10-01T08:47:46.000Z</time>
      </trkpt>
      <trkpt lat="45.00539" lon="5.82126">
        <ele>1925.8000488281</ele>
        <time>2023-10-01T08:47:47.000Z</time>
      </trkpt>
      <trkpt lat="45.00539" lon="5.82127">
        <ele>1926</ele>
        <time>2023-10-01T08:47:48.000Z</time>
      </trkpt>
      <trkpt lat="45.00539" lon="5.82127">
        <ele>1926.1999511719</ele>
        <time>2023-10-01T08:47:49.000Z</time>
      </trkpt>
      <trkpt lat="45.00538" lon="5.82127">
        <ele>1926.5999755859</ele>
        <time>2023-10-01T08:47:50.000Z</time>
      </trkpt>
      <trkpt lat="45.00538" lon="5.82127">
        <ele>1927</ele>
        <time>2023-10-01T08:47:51.000Z</time>
      </trkpt>
      <trkpt lat="45.00538" lon="5.82128">
        <ele>1927</ele>
        <time>2023-10-01T08:47:52.000Z</time>
      </trkpt>
      <trkpt lat="45.00538" lon="5.82129">
        <ele>1927.1999511719</ele>
        <time>2023-10-01T08:47:53.000Z</time>
      </trkpt>
      <trkpt lat="45.00538" lon="5.82129">
        <ele>1927.5999755859</ele>
        <time>2023-10-01T08:47:54.000Z</time>
      </trkpt>
      <trkpt lat="45.00538" lon="5.8213">
        <ele>1927.8000488281</ele>
        <time>2023-10-01T08:47:55.000Z</time>
      </trkpt>
      <trkpt lat="45.00538" lon="5.8213">
        <ele>1928</ele>
        <time>2023-10-01T08:47:56.000Z</time>
      </trkpt>
      <trkpt lat="45.00538" lon="5.82131">
        <ele>1928.4000244141</ele>
        <time>2023-10-01T08:47:57.000Z</time>
      </trkpt>
      <trkpt lat="45.00537" lon="5.82132">
        <ele>1928.8000488281</ele>
        <time>2023-10-01T08:47:58.000Z</time>
      </trkpt>
      <trkpt lat="45.00537" lon="5.82133">
        <ele>1929</ele>
        <time>2023-10-01T08:47:59.000Z</time>
      </trkpt>
      <trkpt lat="45.00537" lon="5.82133">
        <ele>1929.1999511719</ele>
        <time>2023-10-01T08:48:00.000Z</time>
      </trkpt>
      <trkpt lat="45.00538" lon="5.82134">
        <ele>1929.5999755859</ele>
        <time>2023-10-01T08:48:01.000Z</time>
      </trkpt>
      <trkpt lat="45.00537" lon="5.82135">
        <ele>1929.8000488281</ele>
        <time>2023-10-01T08:48:02.000Z</time>
      </trkpt>
      <trkpt lat="45.00538" lon="5.82135">
        <ele>1930.1999511719</ele>
        <time>2023-10-01T08:48:03.000Z</time>
      </trkpt>
      <trkpt lat="45.00538" lon="5.82135">
        <ele>1930.4000244141</ele>
        <time>2023-10-01T08:48:04.000Z</time>
      </trkpt>
      <trkpt lat="45.00537" lon="5.82136">
        <ele>1930.5999755859</ele>
        <time>2023-10-01T08:48:05.000Z</time>
      </trkpt>
      <trkpt lat="45.00538" lon="5.82136">
        <ele>1931</ele>
        <time>2023-10-01T08:48:06.000Z</time>
      </trkpt>
      <trkpt lat="45.00537" lon="5.82137">
        <ele>1931.1999511719</ele>
        <time>2023-10-01T08:48:07.000Z</time>
      </trkpt>
      <trkpt lat="45.00537" lon="5.82138">
        <ele>1931.4000244141</ele>
        <time>2023-10-01T08:48:08.000Z</time>
      </trkpt>
      <trkpt lat="45.00537" lon="5.82138">
        <ele>1931.8000488281</ele>
        <time>2023-10-01T08:48:09.000Z</time>
      </trkpt>
      <trkpt lat="45.00537" lon="5.82139">
        <ele>1932</ele>
        <time>2023-10-01T08:48:10.000Z</time>
      </trkpt>
      <trkpt lat="45.00537" lon="5.82139">
        <ele>1932.4000244141</ele>
        <time>2023-10-01T08:48:11.000Z</time>
      </trkpt>
      <trkpt lat="45.00537" lon="5.8214">
        <ele>1932.5999755859</ele>
        <time>2023-10-01T08:48:12.000Z</time>
      </trkpt>
      <trkpt lat="45.00537" lon="5.82141">
        <ele>1933</ele>
        <time>2023-10-01T08:48:13.000Z</time>
      </trkpt>
      <trkpt lat="45.00537" lon="5.82141">
        <ele>1933.1999511719</ele>
        <time>2023-10-01T08:48:14.000Z</time>
      </trkpt>
      <trkpt lat="45.00537" lon="5.82142">
        <ele>1933.4000244141</ele>
        <time>2023-10-01T08:48:15.000Z</time>
      </trkpt>
      <trkpt lat="45.00537" lon="5.82143">
        <ele>1933.8000488281</ele>
        <time>2023-10-01T08:48:16.000Z</time>
      </trkpt>
      <trkpt lat="45.00537" lon="5.82143">
        <ele>1934</ele>
        <time>2023-10-01T08:48:17.000Z</time>
      </trkpt>
      <trkpt lat="45.00536" lon="5.82144">
        <ele>1934.4000244141</ele>
        <time>2023-10-01T08:48:18.000Z</time>
      </trkpt>
      <trkpt lat="45.00536" lon="5.82145">
        <ele>1934.5999755859</ele>
        <time>2023-10-01T08:48:19.000Z</time>
      </trkpt>
      <trkpt lat="45.00536" lon="5.82146">
        <ele>1935</ele>
        <time>2023-10-01T08:48:20.000Z</time>
      </trkpt>
      <trkpt lat="45.00536" lon="5.82147">
        <ele>1935.1999511719</ele>
        <time>2023-10-01T08:48:21.000Z</time>
      </trkpt>
      <trkpt lat="45.00535" lon="5.82148">
        <ele>1935.4000244141</ele>
        <time>2023-10-01T08:48:22.000Z</time>
      </trkpt>
      <trkpt lat="45.00535" lon="5.82148">
        <ele>1935.8000488281</ele>
        <time>2023-10-01T08:48:23.000Z</time>
      </trkpt>
      <trkpt lat="45.00535" lon="5.82148">
        <ele>1936.1999511719</ele>
        <time>2023-10-01T08:48:24.000Z</time>
      </trkpt>
      <trkpt lat="45.00536" lon="5.82148">
        <ele>1936.5999755859</ele>
        <time>2023-10-01T08:48:25.000Z</time>
      </trkpt>
      <trkpt lat="45.00536" lon="5.82149">
        <ele>1936.8000488281</ele>
        <time>2023-10-01T08:48:26.000Z</time>
      </trkpt>
      <trkpt lat="45.00536" lon="5.82149">
        <ele>1937</ele>
        <time>2023-10-01T08:48:27.000Z</time>
      </trkpt>
      <trkpt lat="45.00536" lon="5.8215">
        <ele>1937.1999511719</ele>
        <time>2023-10-01T08:48:28.000Z</time>
      </trkpt>
      <trkpt lat="45.00536" lon="5.82151">
        <ele>1937.5999755859</ele>
        <time>2023-10-01T08:48:29.000Z</time>
      </trkpt>
      <trkpt lat="45.00536" lon="5.82151">
        <ele>1937.8000488281</ele>
        <time>2023-10-01T08:48:30.000Z</time>
      </trkpt>
      <trkpt lat="45.00536" lon="5.82152">
        <ele>1938</ele>
        <time>2023-10-01T08:48:31.000Z</time>
      </trkpt>
      <trkpt lat="45.00536" lon="5.82152">
        <ele>1938.1999511719</ele>
        <time>2023-10-01T08:48:32.000Z</time>
      </trkpt>
      <trkpt lat="45.00535" lon="5.82152">
        <ele>1938.5999755859</ele>
        <time>2023-10-01T08:48:33.000Z</time>
      </trkpt>
      <trkpt lat="45.00535" lon="5.82153">
        <ele>1938.8000488281</ele>
        <time>2023-10-01T08:48:34.000Z</time>
      </trkpt>
      <trkpt lat="45.00535" lon="5.82154">
        <ele>1939</ele>
        <time>2023-10-01T08:48:35.000Z</time>
      </trkpt>
      <trkpt lat="45.00534" lon="5.82154">
        <ele>1939.1999511719</ele>
        <time>2023-10-01T08:48:36.000Z</time>
      </trkpt>
      <trkpt lat="45.00534" lon="5.82154">
        <ele>1939.5999755859</ele>
        <time>2023-10-01T08:48:37.000Z</time>
      </trkpt>
      <trkpt lat="45.00534" lon="5.82155">
        <ele>1939.8000488281</ele>
        <time>2023-10-01T08:48:38.000Z</time>
      </trkpt>
      <trkpt lat="45.00534" lon="5.82156">
        <ele>1940.1999511719</ele>
        <time>2023-10-01T08:48:39.000Z</time>
      </trkpt>
      <trkpt lat="45.00534" lon="5.82157">
        <ele>1940.4000244141</ele>
        <time>2023-10-01T08:48:40.000Z</time>
      </trkpt>
      <trkpt lat="45.00534" lon="5.82157">
        <ele>1940.5999755859</ele>
        <time>2023-10-01T08:48:41.000Z</time>
      </trkpt>
      <trkpt lat="45.00534" lon="5.82157">
        <ele>1940.8000488281</ele>
        <time>2023-10-01T08:48:42.000Z</time>
      </trkpt>
      <trkpt lat="45.00534" lon="5.82157">
        <ele>1941.1999511719</ele>
        <time>2023-10-01T08:48:43.000Z</time>
      </trkpt>
      <trkpt lat="45.00534" lon="5.82158">
        <ele>1941.4000244141</ele>
        <time>2023-10-01T08:48:44.000Z</time>
      </trkpt>
      <trkpt lat="45.00534" lon="5.82158">
        <ele>1941.5999755859</ele>
        <time>2023-10-01T08:48:45.000Z</time>
      </trkpt>
      <trkpt lat="45.00534" lon="5.82159">
        <ele>1941.8000488281</ele>
        <time>2023-10-01T08:48:46.000Z</time>
      </trkpt>
      <trkpt lat="45.00534" lon="5.8216">
        <ele>1942.1999511719</ele>
        <time>2023-10-01T08:48:47.000Z</time>
      </trkpt>
      <trkpt lat="45.00534" lon="5.8216">
        <ele>1942.5999755859</ele>
        <time>2023-10-01T08:48:48.000Z</time>
      </trkpt>
      <trkpt lat="45.00534" lon="5.82161">
        <ele>1943</ele>
        <time>2023-10-01T08:48:49.000Z</time>
      </trkpt>
      <trkpt lat="45.00534" lon="5.82161">
        <ele>1943.1999511719</ele>
        <time>2023-10-01T08:48:50.000Z</time>
      </trkpt>
      <trkpt lat="45.00534" lon="5.82162">
        <ele>1943.4000244141</ele>
        <time>2023-10-01T08:48:51.000Z</time>
      </trkpt>
      <trkpt lat="45.00533" lon="5.82162">
        <ele>1943.8000488281</ele>
        <time>2023-10-01T08:48:52.000Z</time>
      </trkpt>
      <trkpt lat="45.00533" lon="5.82163">
        <ele>1944</ele>
        <time>2023-10-01T08:48:53.000Z</time>
      </trkpt>
      <trkpt lat="45.00533" lon="5.82164">
        <ele>1944.4000244141</ele>
        <time>2023-10-01T08:48:54.000Z</time>
      </trkpt>
      <trkpt lat="45.00533" lon="5.82164">
        <ele>1944.4000244141</ele>
        <time>2023-10-01T08:48:55.000Z</time>
      </trkpt>
      <trkpt lat="45.00533" lon="5.82166">
        <ele>1944.8000488281</ele>
        <time>2023-10-01T08:48:56.000Z</time>
      </trkpt>
      <trkpt lat="45.00533" lon="5.82165">
        <ele>1945.1999511719</ele>
        <time>2023-10-01T08:48:57.000Z</time>
      </trkpt>
      <trkpt lat="45.00533" lon="5.82165">
        <ele>1945.4000244141</ele>
        <time>2023-10-01T08:48:58.000Z</time>
      </trkpt>
      <trkpt lat="45.00532" lon="5.82166">
        <ele>1945.5999755859</ele>
        <time>2023-10-01T08:48:59.000Z</time>
      </trkpt>
      <trkpt lat="45.00532" lon="5.82167">
        <ele>1946</ele>
        <time>2023-10-01T08:49:00.000Z</time>
      </trkpt>
      <trkpt lat="45.00532" lon="5.82168">
        <ele>1946.1999511719</ele>
        <time>2023-10-01T08:49:01.000Z</time>
      </trkpt>
      <trkpt lat="45.00532" lon="5.82169">
        <ele>1946.5999755859</ele>
        <time>2023-10-01T08:49:02.000Z</time>
      </trkpt>
      <trkpt lat="45.00532" lon="5.8217">
        <ele>1946.8000488281</ele>
        <time>2023-10-01T08:49:03.000Z</time>
      </trkpt>
      <trkpt lat="45.00533" lon="5.8217">
        <ele>1947</ele>
        <time>2023-10-01T08:49:04.000Z</time>
      </trkpt>
      <trkpt lat="45.00533" lon="5.8217">
        <ele>1947.4000244141</ele>
        <time>2023-10-01T08:49:05.000Z</time>
      </trkpt>
      <trkpt lat="45.00532" lon="5.82171">
        <ele>1947.5999755859</ele>
        <time>2023-10-01T08:49:06.000Z</time>
      </trkpt>
      <trkpt lat="45.00532" lon="5.82171">
        <ele>1947.8000488281</ele>
        <time>2023-10-01T08:49:07.000Z</time>
      </trkpt>
      <trkpt lat="45.00532" lon="5.82172">
        <ele>1948.1999511719</ele>
        <time>2023-10-01T08:49:08.000Z</time>
      </trkpt>
      <trkpt lat="45.00532" lon="5.82173">
        <ele>1948.4000244141</ele>
        <time>2023-10-01T08:49:09.000Z</time>
      </trkpt>
      <trkpt lat="45.00532" lon="5.82174">
        <ele>1948.8000488281</ele>
        <time>2023-10-01T08:49:10.000Z</time>
      </trkpt>
      <trkpt lat="45.00532" lon="5.82175">
        <ele>1949</ele>
        <time>2023-10-01T08:49:11.000Z</time>
      </trkpt>
      <trkpt lat="45.00532" lon="5.82175">
        <ele>1949.1999511719</ele>
        <time>2023-10-01T08:49:12.000Z</time>
      </trkpt>
      <trkpt lat="45.00532" lon="5.82176">
        <ele>1949.5999755859</ele>
        <time>2023-10-01T08:49:13.000Z</time>
      </trkpt>
      <trkpt lat="45.00532" lon="5.82177">
        <ele>1950</ele>
        <time>2023-10-01T08:49:14.000Z</time>
      </trkpt>
      <trkpt lat="45.00532" lon="5.82178">
        <ele>1950.1999511719</ele>
        <time>2023-10-01T08:49:15.000Z</time>
      </trkpt>
      <trkpt lat="45.00532" lon="5.82179">
        <ele>1950.4000244141</ele>
        <time>2023-10-01T08:49:16.000Z</time>
      </trkpt>
      <trkpt lat="45.00532" lon="5.8218">
        <ele>1950.5999755859</ele>
        <time>2023-10-01T08:49:17.000Z</time>
      </trkpt>
      <trkpt lat="45.00532" lon="5.82181">
        <ele>1951</ele>
        <time>2023-10-01T08:49:18.000Z</time>
      </trkpt>
      <trkpt lat="45.00532" lon="5.82182">
        <ele>1951.1999511719</ele>
        <time>2023-10-01T08:49:19.000Z</time>
      </trkpt>
      <trkpt lat="45.00532" lon="5.82183">
        <ele>1951.5999755859</ele>
        <time>2023-10-01T08:49:20.000Z</time>
      </trkpt>
      <trkpt lat="45.00532" lon="5.82183">
        <ele>1951.8000488281</ele>
        <time>2023-10-01T08:49:21.000Z</time>
      </trkpt>
      <trkpt lat="45.00532" lon="5.82184">
        <ele>1952.1999511719</ele>
        <time>2023-10-01T08:49:22.000Z</time>
      </trkpt>
      <trkpt lat="45.00532" lon="5.82184">
        <ele>1952.4000244141</ele>
        <time>2023-10-01T08:49:23.000Z</time>
      </trkpt>
      <trkpt lat="45.00532" lon="5.82184">
        <ele>1952.5999755859</ele>
        <time>2023-10-01T08:49:24.000Z</time>
      </trkpt>
      <trkpt lat="45.00532" lon="5.82184">
        <ele>1953</ele>
        <time>2023-10-01T08:49:25.000Z</time>
      </trkpt>
      <trkpt lat="45.00532" lon="5.82184">
        <ele>1953.1999511719</ele>
        <time>2023-10-01T08:49:26.000Z</time>
      </trkpt>
      <trkpt lat="45.00532" lon="5.82184">
        <ele>1953.5999755859</ele>
        <time>2023-10-01T08:49:27.000Z</time>
      </trkpt>
      <trkpt lat="45.00532" lon="5.82185">
        <ele>1954</ele>
        <time>2023-10-01T08:49:28.000Z</time>
      </trkpt>
      <trkpt lat="45.00532" lon="5.82185">
        <ele>1954</ele>
        <time>2023-10-01T08:49:29.000Z</time>
      </trkpt>
      <trkpt lat="45.00532" lon="5.82187">
        <ele>1954.4000244141</ele>
        <time>2023-10-01T08:49:30.000Z</time>
      </trkpt>
      <trkpt lat="45.00531" lon="5.82188">
        <ele>1954.5999755859</ele>
        <time>2023-10-01T08:49:31.000Z</time>
      </trkpt>
      <trkpt lat="45.00531" lon="5.82189">
        <ele>1954.8000488281</ele>
        <time>2023-10-01T08:49:32.000Z</time>
      </trkpt>
      <trkpt lat="45.00531" lon="5.82189">
        <ele>1955</ele>
        <time>2023-10-01T08:49:33.000Z</time>
      </trkpt>
      <trkpt lat="45.00531" lon="5.82191">
        <ele>1955.4000244141</ele>
        <time>2023-10-01T08:49:34.000Z</time>
      </trkpt>
      <trkpt lat="45.00531" lon="5.82191">
        <ele>1955.5999755859</ele>
        <time>2023-10-01T08:49:35.000Z</time>
      </trkpt>
      <trkpt lat="45.00531" lon="5.82192">
        <ele>1956</ele>
        <time>2023-10-01T08:49:36.000Z</time>
      </trkpt>
      <trkpt lat="45.00531" lon="5.82192">
        <ele>1956.4000244141</ele>
        <time>2023-10-01T08:49:37.000Z</time>
      </trkpt>
      <trkpt lat="45.00531" lon="5.82193">
        <ele>1956.4000244141</ele>
        <time>2023-10-01T08:49:38.000Z</time>
      </trkpt>
      <trkpt lat="45.0053" lon="5.82195">
        <ele>1956.5999755859</ele>
        <time>2023-10-01T08:49:39.000Z</time>
      </trkpt>
      <trkpt lat="45.0053" lon="5.82194">
        <ele>1957</ele>
        <time>2023-10-01T08:49:40.000Z</time>
      </trkpt>
      <trkpt lat="45.0053" lon="5.82196">
        <ele>1957.4000244141</ele>
        <time>2023-10-01T08:49:41.000Z</time>
      </trkpt>
      <trkpt lat="45.0053" lon="5.82196">
        <ele>1957.8000488281</ele>
        <time>2023-10-01T08:49:42.000Z</time>
      </trkpt>
      <trkpt lat="45.00531" lon="5.82197">
        <ele>1958</ele>
        <time>2023-10-01T08:49:43.000Z</time>
      </trkpt>
      <trkpt lat="45.00531" lon="5.82198">
        <ele>1958.4000244141</ele>
        <time>2023-10-01T08:49:44.000Z</time>
      </trkpt>
      <trkpt lat="45.00531" lon="5.82199">
        <ele>1958.5999755859</ele>
        <time>2023-10-01T08:49:45.000Z</time>
      </trkpt>
      <trkpt lat="45.00531" lon="5.82198">
        <ele>1958.8000488281</ele>
        <time>2023-10-01T08:49:46.000Z</time>
      </trkpt>
      <trkpt lat="45.00531" lon="5.82199">
        <ele>1959.1999511719</ele>
        <time>2023-10-01T08:49:47.000Z</time>
      </trkpt>
      <trkpt lat="45.0053" lon="5.82199">
        <ele>1959.4000244141</ele>
        <time>2023-10-01T08:49:48.000Z</time>
      </trkpt>
      <trkpt lat="45.0053" lon="5.822">
        <ele>1959.8000488281</ele>
        <time>2023-10-01T08:49:49.000Z</time>
      </trkpt>
      <trkpt lat="45.0053" lon="5.822">
        <ele>1960</ele>
        <time>2023-10-01T08:49:50.000Z</time>
      </trkpt>
      <trkpt lat="45.0053" lon="5.82201">
        <ele>1960.1999511719</ele>
        <time>2023-10-01T08:49:51.000Z</time>
      </trkpt>
      <trkpt lat="45.0053" lon="5.82202">
        <ele>1960.5999755859</ele>
        <time>2023-10-01T08:49:52.000Z</time>
      </trkpt>
      <trkpt lat="45.0053" lon="5.82203">
        <ele>1961</ele>
        <time>2023-10-01T08:49:53.000Z</time>
      </trkpt>
      <trkpt lat="45.0053" lon="5.82202">
        <ele>1961.1999511719</ele>
        <time>2023-10-01T08:49:54.000Z</time>
      </trkpt>
      <trkpt lat="45.00529" lon="5.82203">
        <ele>1961.5999755859</ele>
        <time>2023-10-01T08:49:55.000Z</time>
      </trkpt>
      <trkpt lat="45.00529" lon="5.82204">
        <ele>1961.8000488281</ele>
        <time>2023-10-01T08:49:56.000Z</time>
      </trkpt>
      <trkpt lat="45.00529" lon="5.82205">
        <ele>1962.1999511719</ele>
        <time>2023-10-01T08:49:57.000Z</time>
      </trkpt>
      <trkpt lat="45.00529" lon="5.82206">
        <ele>1962.4000244141</ele>
        <time>2023-10-01T08:49:58.000Z</time>
      </trkpt>
      <trkpt lat="45.00529" lon="5.82206">
        <ele>1962.5999755859</ele>
        <time>2023-10-01T08:49:59.000Z</time>
      </trkpt>
      <trkpt lat="45.00529" lon="5.82206">
        <ele>1963</ele>
        <time>2023-10-01T08:50:00.000Z</time>
      </trkpt>
      <trkpt lat="45.00529" lon="5.82206">
        <ele>1963.1999511719</ele>
        <time>2023-10-01T08:50:01.000Z</time>
      </trkpt>
      <trkpt lat="45.00528" lon="5.82206">
        <ele>1963.4000244141</ele>
        <time>2023-10-01T08:50:02.000Z</time>
      </trkpt>
      <trkpt lat="45.00528" lon="5.82207">
        <ele>1963.8000488281</ele>
        <time>2023-10-01T08:50:03.000Z</time>
      </trkpt>
      <trkpt lat="45.00528" lon="5.82207">
        <ele>1964</ele>
        <time>2023-10-01T08:50:04.000Z</time>
      </trkpt>
      <trkpt lat="45.00528" lon="5.82209">
        <ele>1964.1999511719</ele>
        <time>2023-10-01T08:50:05.000Z</time>
      </trkpt>
      <trkpt lat="45.00528" lon="5.82209">
        <ele>1964.5999755859</ele>
        <time>2023-10-01T08:50:06.000Z</time>
      </trkpt>
      <trkpt lat="45.00528" lon="5.82209">
        <ele>1964.8000488281</ele>
        <time>2023-10-01T08:50:07.000Z</time>
      </trkpt>
      <trkpt lat="45.00528" lon="5.8221">
        <ele>1965</ele>
        <time>2023-10-01T08:50:08.000Z</time>
      </trkpt>
      <trkpt lat="45.00528" lon="5.82211">
        <ele>1965.4000244141</ele>
        <time>2023-10-01T08:50:09.000Z</time>
      </trkpt>
      <trkpt lat="45.00528" lon="5.82211">
        <ele>1965.5999755859</ele>
        <time>2023-10-01T08:50:10.000Z</time>
      </trkpt>
      <trkpt lat="45.00528" lon="5.82213">
        <ele>1965.8000488281</ele>
        <time>2023-10-01T08:50:11.000Z</time>
      </trkpt>
      <trkpt lat="45.00528" lon="5.82213">
        <ele>1966.1999511719</ele>
        <time>2023-10-01T08:50:12.000Z</time>
      </trkpt>
      <trkpt lat="45.00528" lon="5.82214">
        <ele>1966.4000244141</ele>
        <time>2023-10-01T08:50:13.000Z</time>
      </trkpt>
      <trkpt lat="45.00528" lon="5.82214">
        <ele>1966.8000488281</ele>
        <time>2023-10-01T08:50:14.000Z</time>
      </trkpt>
      <trkpt lat="45.00528" lon="5.82215">
        <ele>1967</ele>
        <time>2023-10-01T08:50:15.000Z</time>
      </trkpt>
      <trkpt lat="45.00528" lon="5.82216">
        <ele>1967.4000244141</ele>
        <time>2023-10-01T08:50:16.000Z</time>
      </trkpt>
      <trkpt lat="45.00527" lon="5.82216">
        <ele>1967.8000488281</ele>
        <time>2023-10-01T08:50:17.000Z</time>
      </trkpt>
      <trkpt lat="45.00527" lon="5.82217">
        <ele>1967.8000488281</ele>
        <time>2023-10-01T08:50:18.000Z</time>
      </trkpt>
      <trkpt lat="45.00527" lon="5.82218">
        <ele>1968.1999511719</ele>
        <time>2023-10-01T08:50:19.000Z</time>
      </trkpt>
      <trkpt lat="45.00527" lon="5.82218">
        <ele>1968.5999755859</ele>
        <time>2023-10-01T08:50:20.000Z</time>
      </trkpt>
      <trkpt lat="45.00527" lon="5.82219">
        <ele>1968.8000488281</ele>
        <time>2023-10-01T08:50:21.000Z</time>
      </trkpt>
      <trkpt lat="45.00527" lon="5.82219">
        <ele>1969.1999511719</ele>
        <time>2023-10-01T08:50:22.000Z</time>
      </trkpt>
      <trkpt lat="45.00528" lon="5.8222">
        <ele>1969.4000244141</ele>
        <time>2023-10-01T08:50:23.000Z</time>
      </trkpt>
      <trkpt lat="45.00528" lon="5.8222">
        <ele>1969.5999755859</ele>
        <time>2023-10-01T08:50:24.000Z</time>
      </trkpt>
      <trkpt lat="45.00528" lon="5.82221">
        <ele>1970.1999511719</ele>
        <time>2023-10-01T08:50:25.000Z</time>
      </trkpt>
      <trkpt lat="45.00528" lon="5.82221">
        <ele>1970.4000244141</ele>
        <time>2023-10-01T08:50:26.000Z</time>
      </trkpt>
      <trkpt lat="45.00527" lon="5.82221">
        <ele>1970.8000488281</ele>
        <time>2023-10-01T08:50:27.000Z</time>
      </trkpt>
      <trkpt lat="45.00527" lon="5.82222">
        <ele>1971.1999511719</ele>
        <time>2023-10-01T08:50:28.000Z</time>
      </trkpt>
      <trkpt lat="45.00527" lon="5.82223">
        <ele>1971.4000244141</ele>
        <time>2023-10-01T08:50:29.000Z</time>
      </trkpt>
      <trkpt lat="45.00527" lon="5.82224">
        <ele>1971.5999755859</ele>
        <time>2023-10-01T08:50:30.000Z</time>
      </trkpt>
      <trkpt lat="45.00527" lon="5.82224">
        <ele>1971.8000488281</ele>
        <time>2023-10-01T08:50:31.000Z</time>
      </trkpt>
      <trkpt lat="45.00527" lon="5.82225">
        <ele>1972</ele>
        <time>2023-10-01T08:50:32.000Z</time>
      </trkpt>
      <trkpt lat="45.00526" lon="5.82226">
        <ele>1972.1999511719</ele>
        <time>2023-10-01T08:50:33.000Z</time>
      </trkpt>
      <trkpt lat="45.00527" lon="5.82226">
        <ele>1972.5999755859</ele>
        <time>2023-10-01T08:50:34.000Z</time>
      </trkpt>
      <trkpt lat="45.00526" lon="5.82226">
        <ele>1972.8000488281</ele>
        <time>2023-10-01T08:50:35.000Z</time>
      </trkpt>
      <trkpt lat="45.00526" lon="5.82226">
        <ele>1973.1999511719</ele>
        <time>2023-10-01T08:50:36.000Z</time>
      </trkpt>
      <trkpt lat="45.00526" lon="5.82227">
        <ele>1973.5999755859</ele>
        <time>2023-10-01T08:50:37.000Z</time>
      </trkpt>
      <trkpt lat="45.00526" lon="5.82227">
        <ele>1973.8000488281</ele>
        <time>2023-10-01T08:50:38.000Z</time>
      </trkpt>
      <trkpt lat="45.00526" lon="5.82227">
        <ele>1974.1999511719</ele>
        <time>2023-10-01T08:50:39.000Z</time>
      </trkpt>
      <trkpt lat="45.00526" lon="5.82228">
        <ele>1974.4000244141</ele>
        <time>2023-10-01T08:50:40.000Z</time>
      </trkpt>
      <trkpt lat="45.00526" lon="5.82229">
        <ele>1974.5999755859</ele>
        <time>2023-10-01T08:50:41.000Z</time>
      </trkpt>
      <trkpt lat="45.00526" lon="5.82229">
        <ele>1974.8000488281</ele>
        <time>2023-10-01T08:50:42.000Z</time>
      </trkpt>
      <trkpt lat="45.00525" lon="5.8223">
        <ele>1975.1999511719</ele>
        <time>2023-10-01T08:50:43.000Z</time>
      </trkpt>
      <trkpt lat="45.00525" lon="5.8223">
        <ele>1975.4000244141</ele>
        <time>2023-10-01T08:50:44.000Z</time>
      </trkpt>
      <trkpt lat="45.00525" lon="5.8223">
        <ele>1975.5999755859</ele>
        <time>2023-10-01T08:50:45.000Z</time>
      </trkpt>
      <trkpt lat="45.00525" lon="5.82231">
        <ele>1976</ele>
        <time>2023-10-01T08:50:46.000Z</time>
      </trkpt>
      <trkpt lat="45.00524" lon="5.82232">
        <ele>1976.1999511719</ele>
        <time>2023-10-01T08:50:47.000Z</time>
      </trkpt>
      <trkpt lat="45.00524" lon="5.82232">
        <ele>1976.4000244141</ele>
        <time>2023-10-01T08:50:48.000Z</time>
      </trkpt>
      <trkpt lat="45.00524" lon="5.82233">
        <ele>1976.8000488281</ele>
        <time>2023-10-01T08:50:49.000Z</time>
      </trkpt>
      <trkpt lat="45.00525" lon="5.82233">
        <ele>1977</ele>
        <time>2023-10-01T08:50:50.000Z</time>
      </trkpt>
      <trkpt lat="45.00525" lon="5.82233">
        <ele>1977.4000244141</ele>
        <time>2023-10-01T08:50:51.000Z</time>
      </trkpt>
      <trkpt lat="45.00525" lon="5.82233">
        <ele>1977.5999755859</ele>
        <time>2023-10-01T08:50:52.000Z</time>
      </trkpt>
      <trkpt lat="45.00524" lon="5.82234">
        <ele>1977.8000488281</ele>
        <time>2023-10-01T08:50:53.000Z</time>
      </trkpt>
      <trkpt lat="45.00524" lon="5.82235">
        <ele>1978.1999511719</ele>
        <time>2023-10-01T08:50:54.000Z</time>
      </trkpt>
      <trkpt lat="45.00524" lon="5.82236">
        <ele>1978.5999755859</ele>
        <time>2023-10-01T08:50:55.000Z</time>
      </trkpt>
      <trkpt lat="45.00524" lon="5.82237">
        <ele>1979</ele>
        <time>2023-10-01T08:50:56.000Z</time>
      </trkpt>
      <trkpt lat="45.00524" lon="5.82238">
        <ele>1979.1999511719</ele>
        <time>2023-10-01T08:50:57.000Z</time>
      </trkpt>
      <trkpt lat="45.00524" lon="5.82238">
        <ele>1979.5999755859</ele>
        <time>2023-10-01T08:50:58.000Z</time>
      </trkpt>
      <trkpt lat="45.00524" lon="5.82239">
        <ele>1979.8000488281</ele>
        <time>2023-10-01T08:50:59.000Z</time>
      </trkpt>
      <trkpt lat="45.00524" lon="5.82239">
        <ele>1980.1999511719</ele>
        <time>2023-10-01T08:51:00.000Z</time>
      </trkpt>
      <trkpt lat="45.00524" lon="5.8224">
        <ele>1980.4000244141</ele>
        <time>2023-10-01T08:51:01.000Z</time>
      </trkpt>
      <trkpt lat="45.00524" lon="5.8224">
        <ele>1980.8000488281</ele>
        <time>2023-10-01T08:51:02.000Z</time>
      </trkpt>
      <trkpt lat="45.00524" lon="5.82241">
        <ele>1981</ele>
        <time>2023-10-01T08:51:03.000Z</time>
      </trkpt>
      <trkpt lat="45.00523" lon="5.82242">
        <ele>1981.1999511719</ele>
        <time>2023-10-01T08:51:04.000Z</time>
      </trkpt>
      <trkpt lat="45.00523" lon="5.82242">
        <ele>1981.5999755859</ele>
        <time>2023-10-01T08:51:05.000Z</time>
      </trkpt>
      <trkpt lat="45.00523" lon="5.82243">
        <ele>1981.8000488281</ele>
        <time>2023-10-01T08:51:06.000Z</time>
      </trkpt>
      <trkpt lat="45.00523" lon="5.82243">
        <ele>1982</ele>
        <time>2023-10-01T08:51:07.000Z</time>
      </trkpt>
      <trkpt lat="45.00522" lon="5.82244">
        <ele>1982.4000244141</ele>
        <time>2023-10-01T08:51:08.000Z</time>
      </trkpt>
      <trkpt lat="45.00522" lon="5.82244">
        <ele>1982.8000488281</ele>
        <time>2023-10-01T08:51:09.000Z</time>
      </trkpt>
      <trkpt lat="45.00522" lon="5.82244">
        <ele>1983</ele>
        <time>2023-10-01T08:51:10.000Z</time>
      </trkpt>
      <trkpt lat="45.00522" lon="5.82244">
        <ele>1983.1999511719</ele>
        <time>2023-10-01T08:51:11.000Z</time>
      </trkpt>
      <trkpt lat="45.00522" lon="5.82244">
        <ele>1983.4000244141</ele>
        <time>2023-10-01T08:51:12.000Z</time>
      </trkpt>
      <trkpt lat="45.00522" lon="5.82245">
        <ele>1983.8000488281</ele>
        <time>2023-10-01T08:51:13.000Z</time>
      </trkpt>
      <trkpt lat="45.00522" lon="5.82246">
        <ele>1984</ele>
        <time>2023-10-01T08:51:14.000Z</time>
      </trkpt>
      <trkpt lat="45.00522" lon="5.82246">
        <ele>1984.1999511719</ele>
        <time>2023-10-01T08:51:15.000Z</time>
      </trkpt>
      <trkpt lat="45.00522" lon="5.82247">
        <ele>1984.5999755859</ele>
        <time>2023-10-01T08:51:16.000Z</time>
      </trkpt>
      <trkpt lat="45.00522" lon="5.82247">
        <ele>1984.8000488281</ele>
        <time>2023-10-01T08:51:17.000Z</time>
      </trkpt>
      <trkpt lat="45.00522" lon="5.82247">
        <ele>1985</ele>
        <time>2023-10-01T08:51:18.000Z</time>
      </trkpt>
      <trkpt lat="45.00522" lon="5.82248">
        <ele>1985.1999511719</ele>
        <time>2023-10-01T08:51:19.000Z</time>
      </trkpt>
      <trkpt lat="45.00522" lon="5.82249">
        <ele>1985.4000244141</ele>
        <time>2023-10-01T08:51:20.000Z</time>
      </trkpt>
      <trkpt lat="45.00521" lon="5.8225">
        <ele>1985.5999755859</ele>
        <time>2023-10-01T08:51:21.000Z</time>
      </trkpt>
      <trkpt lat="45.00521" lon="5.8225">
        <ele>1985.8000488281</ele>
        <time>2023-10-01T08:51:22.000Z</time>
      </trkpt>
      <trkpt lat="45.00521" lon="5.82252">
        <ele>1986.1999511719</ele>
        <time>2023-10-01T08:51:23.000Z</time>
      </trkpt>
      <trkpt lat="45.0052" lon="5.82252">
        <ele>1986.4000244141</ele>
        <time>2023-10-01T08:51:24.000Z</time>
      </trkpt>
      <trkpt lat="45.0052" lon="5.82252">
        <ele>1986.8000488281</ele>
        <time>2023-10-01T08:51:25.000Z</time>
      </trkpt>
      <trkpt lat="45.0052" lon="5.82253">
        <ele>1987</ele>
        <time>2023-10-01T08:51:26.000Z</time>
      </trkpt>
      <trkpt lat="45.00521" lon="5.82253">
        <ele>1987.1999511719</ele>
        <time>2023-10-01T08:51:27.000Z</time>
      </trkpt>
      <trkpt lat="45.00521" lon="5.82254">
        <ele>1987.4000244141</ele>
        <time>2023-10-01T08:51:28.000Z</time>
      </trkpt>
      <trkpt lat="45.00521" lon="5.82254">
        <ele>1987.8000488281</ele>
        <time>2023-10-01T08:51:29.000Z</time>
      </trkpt>
      <trkpt lat="45.00521" lon="5.82254">
        <ele>1988</ele>
        <time>2023-10-01T08:51:30.000Z</time>
      </trkpt>
      <trkpt lat="45.00521" lon="5.82255">
        <ele>1988.1999511719</ele>
        <time>2023-10-01T08:51:31.000Z</time>
      </trkpt>
      <trkpt lat="45.00521" lon="5.82256">
        <ele>1988.5999755859</ele>
        <time>2023-10-01T08:51:32.000Z</time>
      </trkpt>
      <trkpt lat="45.00521" lon="5.82257">
        <ele>1989</ele>
        <time>2023-10-01T08:51:33.000Z</time>
      </trkpt>
      <trkpt lat="45.00521" lon="5.82257">
        <ele>1989.4000244141</ele>
        <time>2023-10-01T08:51:34.000Z</time>
      </trkpt>
      <trkpt lat="45.00521" lon="5.82258">
        <ele>1989.5999755859</ele>
        <time>2023-10-01T08:51:35.000Z</time>
      </trkpt>
      <trkpt lat="45.00522" lon="5.82258">
        <ele>1989.8000488281</ele>
        <time>2023-10-01T08:51:36.000Z</time>
      </trkpt>
      <trkpt lat="45.00522" lon="5.82259">
        <ele>1990.1999511719</ele>
        <time>2023-10-01T08:51:37.000Z</time>
      </trkpt>
      <trkpt lat="45.00522" lon="5.82259">
        <ele>1990.5999755859</ele>
        <time>2023-10-01T08:51:38.000Z</time>
      </trkpt>
      <trkpt lat="45.00521" lon="5.82259">
        <ele>1990.8000488281</ele>
        <time>2023-10-01T08:51:39.000Z</time>
      </trkpt>
      <trkpt lat="45.00521" lon="5.8226">
        <ele>1991</ele>
        <time>2023-10-01T08:51:40.000Z</time>
      </trkpt>
      <trkpt lat="45.00521" lon="5.82261">
        <ele>1991.1999511719</ele>
        <time>2023-10-01T08:51:41.000Z</time>
      </trkpt>
      <trkpt lat="45.00521" lon="5.82261">
        <ele>1991.4000244141</ele>
        <time>2023-10-01T08:51:42.000Z</time>
      </trkpt>
      <trkpt lat="45.00521" lon="5.82262">
        <ele>1991.8000488281</ele>
        <time>2023-10-01T08:51:43.000Z</time>
      </trkpt>
      <trkpt lat="45.0052" lon="5.82263">
        <ele>1992</ele>
        <time>2023-10-01T08:51:44.000Z</time>
      </trkpt>
      <trkpt lat="45.0052" lon="5.82263">
        <ele>1992.1999511719</ele>
        <time>2023-10-01T08:51:45.000Z</time>
      </trkpt>
      <trkpt lat="45.0052" lon="5.82263">
        <ele>1992.4000244141</ele>
        <time>2023-10-01T08:51:46.000Z</time>
      </trkpt>
      <trkpt lat="45.0052" lon="5.82263">
        <ele>1992.8000488281</ele>
        <time>2023-10-01T08:51:47.000Z</time>
      </trkpt>
      <trkpt lat="45.0052" lon="5.82264">
        <ele>1993</ele>
        <time>2023-10-01T08:51:48.000Z</time>
      </trkpt>
      <trkpt lat="45.0052" lon="5.82265">
        <ele>1993.1999511719</ele>
        <time>2023-10-01T08:51:49.000Z</time>
      </trkpt>
      <trkpt lat="45.0052" lon="5.82265">
        <ele>1993.5999755859</ele>
        <time>2023-10-01T08:51:50.000Z</time>
      </trkpt>
      <trkpt lat="45.0052" lon="5.82266">
        <ele>1993.8000488281</ele>
        <time>2023-10-01T08:51:51.000Z</time>
      </trkpt>
      <trkpt lat="45.0052" lon="5.82267">
        <ele>1994</ele>
        <time>2023-10-01T08:51:52.000Z</time>
      </trkpt>
      <trkpt lat="45.0052" lon="5.82267">
        <ele>1994.4000244141</ele>
        <time>2023-10-01T08:51:53.000Z</time>
      </trkpt>
      <trkpt lat="45.0052" lon="5.82267">
        <ele>1994.5999755859</ele>
        <time>2023-10-01T08:51:54.000Z</time>
      </trkpt>
      <trkpt lat="45.0052" lon="5.82268">
        <ele>1994.5999755859</ele>
        <time>2023-10-01T08:51:55.000Z</time>
      </trkpt>
      <trkpt lat="45.0052" lon="5.82269">
        <ele>1995</ele>
        <time>2023-10-01T08:51:56.000Z</time>
      </trkpt>
      <trkpt lat="45.0052" lon="5.8227">
        <ele>1995.1999511719</ele>
        <time>2023-10-01T08:51:57.000Z</time>
      </trkpt>
      <trkpt lat="45.0052" lon="5.8227">
        <ele>1995.4000244141</ele>
        <time>2023-10-01T08:51:58.000Z</time>
      </trkpt>
      <trkpt lat="45.0052" lon="5.82271">
        <ele>1995.8000488281</ele>
        <time>2023-10-01T08:51:59.000Z</time>
      </trkpt>
      <trkpt lat="45.0052" lon="5.82272">
        <ele>1996.1999511719</ele>
        <time>2023-10-01T08:52:00.000Z</time>
      </trkpt>
      <trkpt lat="45.00519" lon="5.82273">
        <ele>1996.4000244141</ele>
        <time>2023-10-01T08:52:01.000Z</time>
      </trkpt>
      <trkpt lat="45.0052" lon="5.82274">
        <ele>1996.8000488281</ele>
        <time>2023-10-01T08:52:02.000Z</time>
      </trkpt>
      <trkpt lat="45.0052" lon="5.82274">
        <ele>1997.1999511719</ele>
        <time>2023-10-01T08:52:03.000Z</time>
      </trkpt>
      <trkpt lat="45.0052" lon="5.82274">
        <ele>1997.4000244141</ele>
        <time>2023-10-01T08:52:04.000Z</time>
      </trkpt>
      <trkpt lat="45.0052" lon="5.82275">
        <ele>1997.5999755859</ele>
        <time>2023-10-01T08:52:05.000Z</time>
      </trkpt>
      <trkpt lat="45.0052" lon="5.82275">
        <ele>1998</ele>
        <time>2023-10-01T08:52:06.000Z</time>
      </trkpt>
      <trkpt lat="45.00519" lon="5.82276">
        <ele>1998.1999511719</ele>
        <time>2023-10-01T08:52:07.000Z</time>
      </trkpt>
      <trkpt lat="45.00519" lon="5.82277">
        <ele>1998.5999755859</ele>
        <time>2023-10-01T08:52:08.000Z</time>
      </trkpt>
      <trkpt lat="45.00519" lon="5.82277">
        <ele>1998.8000488281</ele>
        <time>2023-10-01T08:52:09.000Z</time>
      </trkpt>
      <trkpt lat="45.00519" lon="5.82279">
        <ele>1999</ele>
        <time>2023-10-01T08:52:10.000Z</time>
      </trkpt>
      <trkpt lat="45.00519" lon="5.82279">
        <ele>1999.4000244141</ele>
        <time>2023-10-01T08:52:11.000Z</time>
      </trkpt>
      <trkpt lat="45.00519" lon="5.8228">
        <ele>1999.8000488281</ele>
        <time>2023-10-01T08:52:12.000Z</time>
      </trkpt>
      <trkpt lat="45.00519" lon="5.82281">
        <ele>2000</ele>
        <time>2023-10-01T08:52:13.000Z</time>
      </trkpt>
      <trkpt lat="45.00519" lon="5.82282">
        <ele>2000.4000244141</ele>
        <time>2023-10-01T08:52:14.000Z</time>
      </trkpt>
      <trkpt lat="45.00519" lon="5.82282">
        <ele>2000.8000488281</ele>
        <time>2023-10-01T08:52:15.000Z</time>
      </trkpt>
      <trkpt lat="45.00519" lon="5.82283">
        <ele>2001</ele>
        <time>2023-10-01T08:52:16.000Z</time>
      </trkpt>
      <trkpt lat="45.00519" lon="5.82283">
        <ele>2001.1999511719</ele>
        <time>2023-10-01T08:52:17.000Z</time>
      </trkpt>
      <trkpt lat="45.00519" lon="5.82283">
        <ele>2001.4000244141</ele>
        <time>2023-10-01T08:52:18.000Z</time>
      </trkpt>
      <trkpt lat="45.00518" lon="5.82284">
        <ele>2001.5999755859</ele>
        <time>2023-10-01T08:52:19.000Z</time>
      </trkpt>
      <trkpt lat="45.00518" lon="5.82284">
        <ele>2002</ele>
        <time>2023-10-01T08:52:20.000Z</time>
      </trkpt>
      <trkpt lat="45.00518" lon="5.82285">
        <ele>2002.1999511719</ele>
        <time>2023-10-01T08:52:21.000Z</time>
      </trkpt>
      <trkpt lat="45.00518" lon="5.82285">
        <ele>2002.4000244141</ele>
        <time>2023-10-01T08:52:22.000Z</time>
      </trkpt>
      <trkpt lat="45.00517" lon="5.82286">
        <ele>2002.8000488281</ele>
        <time>2023-10-01T08:52:23.000Z</time>
      </trkpt>
      <trkpt lat="45.00517" lon="5.82287">
        <ele>2003</ele>
        <time>2023-10-01T08:52:24.000Z</time>
      </trkpt>
      <trkpt lat="45.00517" lon="5.82287">
        <ele>2003.1999511719</ele>
        <time>2023-10-01T08:52:25.000Z</time>
      </trkpt>
      <trkpt lat="45.00517" lon="5.82287">
        <ele>2003.4000244141</ele>
        <time>2023-10-01T08:52:26.000Z</time>
      </trkpt>
      <trkpt lat="45.00517" lon="5.82288">
        <ele>2003.5999755859</ele>
        <time>2023-10-01T08:52:27.000Z</time>
      </trkpt>
      <trkpt lat="45.00517" lon="5.82289">
        <ele>2003.8000488281</ele>
        <time>2023-10-01T08:52:28.000Z</time>
      </trkpt>
      <trkpt lat="45.00517" lon="5.82289">
        <ele>2004.1999511719</ele>
        <time>2023-10-01T08:52:29.000Z</time>
      </trkpt>
      <trkpt lat="45.00516" lon="5.8229">
        <ele>2004.4000244141</ele>
        <time>2023-10-01T08:52:30.000Z</time>
      </trkpt>
      <trkpt lat="45.00516" lon="5.8229">
        <ele>2004.5999755859</ele>
        <time>2023-10-01T08:52:31.000Z</time>
      </trkpt>
      <trkpt lat="45.00516" lon="5.82291">
        <ele>2005</ele>
        <time>2023-10-01T08:52:32.000Z</time>
      </trkpt>
      <trkpt lat="45.00516" lon="5.82291">
        <ele>2005.4000244141</ele>
        <time>2023-10-01T08:52:33.000Z</time>
      </trkpt>
      <trkpt lat="45.00516" lon="5.82292">
        <ele>2005.5999755859</ele>
        <time>2023-10-01T08:52:34.000Z</time>
      </trkpt>
      <trkpt lat="45.00516" lon="5.82293">
        <ele>2005.5999755859</ele>
        <time>2023-10-01T08:52:35.000Z</time>
      </trkpt>
      <trkpt lat="45.00516" lon="5.82294">
        <ele>2005.8000488281</ele>
        <time>2023-10-01T08:52:36.000Z</time>
      </trkpt>
      <trkpt lat="45.00516" lon="5.82295">
        <ele>2006.1999511719</ele>
        <time>2023-10-01T08:52:37.000Z</time>
      </trkpt>
      <trkpt lat="45.00516" lon="5.82296">
        <ele>2006.4000244141</ele>
        <time>2023-10-01T08:52:38.000Z</time>
      </trkpt>
      <trkpt lat="45.00516" lon="5.82296">
        <ele>2006.8000488281</ele>
        <time>2023-10-01T08:52:39.000Z</time>
      </trkpt>
      <trkpt lat="45.00516" lon="5.82296">
        <ele>2007</ele>
        <time>2023-10-01T08:52:40.000Z</time>
      </trkpt>
      <trkpt lat="45.00516" lon="5.82297">
        <ele>2007.4000244141</ele>
        <time>2023-10-01T08:52:41.000Z</time>
      </trkpt>
      <trkpt lat="45.00516" lon="5.82297">
        <ele>2007.4000244141</ele>
        <time>2023-10-01T08:52:42.000Z</time>
      </trkpt>
      <trkpt lat="45.00516" lon="5.82297">
        <ele>2007.8000488281</ele>
        <time>2023-10-01T08:52:43.000Z</time>
      </trkpt>
      <trkpt lat="45.00516" lon="5.82299">
        <ele>2008</ele>
        <time>2023-10-01T08:52:44.000Z</time>
      </trkpt>
      <trkpt lat="45.00515" lon="5.823">
        <ele>2008.1999511719</ele>
        <time>2023-10-01T08:52:45.000Z</time>
      </trkpt>
      <trkpt lat="45.00515" lon="5.82301">
        <ele>2008.4000244141</ele>
        <time>2023-10-01T08:52:46.000Z</time>
      </trkpt>
      <trkpt lat="45.00516" lon="5.82302">
        <ele>2008.8000488281</ele>
        <time>2023-10-01T08:52:47.000Z</time>
      </trkpt>
      <trkpt lat="45.00516" lon="5.82302">
        <ele>2009.1999511719</ele>
        <time>2023-10-01T08:52:48.000Z</time>
      </trkpt>
      <trkpt lat="45.00516" lon="5.82303">
        <ele>2009.5999755859</ele>
        <time>2023-10-01T08:52:49.000Z</time>
      </trkpt>
      <trkpt lat="45.00516" lon="5.82303">
        <ele>2009.8000488281</ele>
        <time>2023-10-01T08:52:50.000Z</time>
      </trkpt>
      <trkpt lat="45.00515" lon="5.82303">
        <ele>2010.1999511719</ele>
        <time>2023-10-01T08:52:51.000Z</time>
      </trkpt>
      <trkpt lat="45.00515" lon="5.82303">
        <ele>2010.4000244141</ele>
        <time>2023-10-01T08:52:52.000Z</time>
      </trkpt>
      <trkpt lat="45.00515" lon="5.82304">
        <ele>2010.5999755859</ele>
        <time>2023-10-01T08:52:53.000Z</time>
      </trkpt>
      <trkpt lat="45.00514" lon="5.82305">
        <ele>2011</ele>
        <time>2023-10-01T08:52:54.000Z</time>
      </trkpt>
      <trkpt lat="45.00515" lon="5.82306">
        <ele>2011.1999511719</ele>
        <time>2023-10-01T08:52:55.000Z</time>
      </trkpt>
      <trkpt lat="45.00514" lon="5.82307">
        <ele>2011.4000244141</ele>
        <time>2023-10-01T08:52:56.000Z</time>
      </trkpt>
      <trkpt lat="45.00514" lon="5.82307">
        <ele>2011.5999755859</ele>
        <time>2023-10-01T08:52:57.000Z</time>
      </trkpt>
      <trkpt lat="45.00514" lon="5.82308">
        <ele>2011.8000488281</ele>
        <time>2023-10-01T08:52:58.000Z</time>
      </trkpt>
      <trkpt lat="45.00515" lon="5.82308">
        <ele>2012.1999511719</ele>
        <time>2023-10-01T08:52:59.000Z</time>
      </trkpt>
      <trkpt lat="45.00515" lon="5.82309">
        <ele>2012.4000244141</ele>
        <time>2023-10-01T08:53:00.000Z</time>
      </trkpt>
      <trkpt lat="45.00515" lon="5.8231">
        <ele>2012.5999755859</ele>
        <time>2023-10-01T08:53:01.000Z</time>
      </trkpt>
      <trkpt lat="45.00515" lon="5.8231">
        <ele>2013</ele>
        <time>2023-10-01T08:53:02.000Z</time>
      </trkpt>
      <trkpt lat="45.00515" lon="5.82311">
        <ele>2013</ele>
        <time>2023-10-01T08:53:03.000Z</time>
      </trkpt>
      <trkpt lat="45.00516" lon="5.82311">
        <ele>2013.4000244141</ele>
        <time>2023-10-01T08:53:04.000Z</time>
      </trkpt>
      <trkpt lat="45.00516" lon="5.82311">
        <ele>2013.5999755859</ele>
        <time>2023-10-01T08:53:05.000Z</time>
      </trkpt>
      <trkpt lat="45.00516" lon="5.82312">
        <ele>2014</ele>
        <time>2023-10-01T08:53:06.000Z</time>
      </trkpt>
      <trkpt lat="45.00516" lon="5.82312">
        <ele>2014.1999511719</ele>
        <time>2023-10-01T08:53:07.000Z</time>
      </trkpt>
      <trkpt lat="45.00517" lon="5.82313">
        <ele>2014.4000244141</ele>
        <time>2023-10-01T08:53:08.000Z</time>
      </trkpt>
      <trkpt lat="45.00517" lon="5.82314">
        <ele>2014.8000488281</ele>
        <time>2023-10-01T08:53:09.000Z</time>
      </trkpt>
      <trkpt lat="45.00518" lon="5.82315">
        <ele>2015</ele>
        <time>2023-10-01T08:53:10.000Z</time>
      </trkpt>
      <trkpt lat="45.00518" lon="5.82315">
        <ele>2015.1999511719</ele>
        <time>2023-10-01T08:53:11.000Z</time>
      </trkpt>
      <trkpt lat="45.00518" lon="5.82316">
        <ele>2015.5999755859</ele>
        <time>2023-10-01T08:53:12.000Z</time>
      </trkpt>
      <trkpt lat="45.00518" lon="5.82317">
        <ele>2015.8000488281</ele>
        <time>2023-10-01T08:53:13.000Z</time>
      </trkpt>
      <trkpt lat="45.00518" lon="5.82317">
        <ele>2016</ele>
        <time>2023-10-01T08:53:14.000Z</time>
      </trkpt>
      <trkpt lat="45.00518" lon="5.82318">
        <ele>2016.1999511719</ele>
        <time>2023-10-01T08:53:15.000Z</time>
      </trkpt>
      <trkpt lat="45.00518" lon="5.82319">
        <ele>2016.4000244141</ele>
        <time>2023-10-01T08:53:16.000Z</time>
      </trkpt>
      <trkpt lat="45.00518" lon="5.8232">
        <ele>2016.5999755859</ele>
        <time>2023-10-01T08:53:17.000Z</time>
      </trkpt>
      <trkpt lat="45.00518" lon="5.8232">
        <ele>2017</ele>
        <time>2023-10-01T08:53:18.000Z</time>
      </trkpt>
      <trkpt lat="45.00518" lon="5.82321">
        <ele>2017.1999511719</ele>
        <time>2023-10-01T08:53:19.000Z</time>
      </trkpt>
      <trkpt lat="45.00518" lon="5.82322">
        <ele>2017.5999755859</ele>
        <time>2023-10-01T08:53:20.000Z</time>
      </trkpt>
      <trkpt lat="45.00518" lon="5.82323">
        <ele>2017.8000488281</ele>
        <time>2023-10-01T08:53:21.000Z</time>
      </trkpt>
      <trkpt lat="45.00518" lon="5.82323">
        <ele>2018</ele>
        <time>2023-10-01T08:53:22.000Z</time>
      </trkpt>
      <trkpt lat="45.00518" lon="5.82324">
        <ele>2018.4000244141</ele>
        <time>2023-10-01T08:53:23.000Z</time>
      </trkpt>
      <trkpt lat="45.00518" lon="5.82325">
        <ele>2018.5999755859</ele>
        <time>2023-10-01T08:53:24.000Z</time>
      </trkpt>
      <trkpt lat="45.00518" lon="5.82326">
        <ele>2019</ele>
        <time>2023-10-01T08:53:25.000Z</time>
      </trkpt>
      <trkpt lat="45.00518" lon="5.82327">
        <ele>2019.4000244141</ele>
        <time>2023-10-01T08:53:26.000Z</time>
      </trkpt>
      <trkpt lat="45.00518" lon="5.82328">
        <ele>2019.5999755859</ele>
        <time>2023-10-01T08:53:27.000Z</time>
      </trkpt>
      <trkpt lat="45.00518" lon="5.82328">
        <ele>2020</ele>
        <time>2023-10-01T08:53:28.000Z</time>
      </trkpt>
      <trkpt lat="45.00518" lon="5.82329">
        <ele>2020.1999511719</ele>
        <time>2023-10-01T08:53:29.000Z</time>
      </trkpt>
      <trkpt lat="45.00518" lon="5.82329">
        <ele>2020.4000244141</ele>
        <time>2023-10-01T08:53:30.000Z</time>
      </trkpt>
      <trkpt lat="45.00518" lon="5.8233">
        <ele>2020.5999755859</ele>
        <time>2023-10-01T08:53:31.000Z</time>
      </trkpt>
      <trkpt lat="45.00518" lon="5.8233">
        <ele>2020.8000488281</ele>
        <time>2023-10-01T08:53:32.000Z</time>
      </trkpt>
      <trkpt lat="45.00518" lon="5.82331">
        <ele>2021.1999511719</ele>
        <time>2023-10-01T08:53:33.000Z</time>
      </trkpt>
      <trkpt lat="45.00518" lon="5.82331">
        <ele>2021.4000244141</ele>
        <time>2023-10-01T08:53:34.000Z</time>
      </trkpt>
      <trkpt lat="45.00518" lon="5.82333">
        <ele>2021.8000488281</ele>
        <time>2023-10-01T08:53:35.000Z</time>
      </trkpt>
      <trkpt lat="45.00517" lon="5.82333">
        <ele>2022.1999511719</ele>
        <time>2023-10-01T08:53:36.000Z</time>
      </trkpt>
      <trkpt lat="45.00517" lon="5.82333">
        <ele>2022.4000244141</ele>
        <time>2023-10-01T08:53:37.000Z</time>
      </trkpt>
      <trkpt lat="45.00517" lon="5.82334">
        <ele>2022.5999755859</ele>
        <time>2023-10-01T08:53:38.000Z</time>
      </trkpt>
      <trkpt lat="45.00518" lon="5.82334">
        <ele>2022.8000488281</ele>
        <time>2023-10-01T08:53:39.000Z</time>
      </trkpt>
      <trkpt lat="45.00518" lon="5.82335">
        <ele>2023</ele>
        <time>2023-10-01T08:53:40.000Z</time>
      </trkpt>
      <trkpt lat="45.00518" lon="5.82336">
        <ele>2023.1999511719</ele>
        <time>2023-10-01T08:53:41.000Z</time>
      </trkpt>
      <trkpt lat="45.00518" lon="5.82336">
        <ele>2023.4000244141</ele>
        <time>2023-10-01T08:53:42.000Z</time>
      </trkpt>
      <trkpt lat="45.00518" lon="5.82336">
        <ele>2023.5999755859</ele>
        <time>2023-10-01T08:53:43.000Z</time>
      </trkpt>
      <trkpt lat="45.00519" lon="5.82337">
        <ele>2024</ele>
        <time>2023-10-01T08:53:44.000Z</time>
      </trkpt>
      <trkpt lat="45.00519" lon="5.82338">
        <ele>2024.1999511719</ele>
        <time>2023-10-01T08:53:45.000Z</time>
      </trkpt>
      <trkpt lat="45.00519" lon="5.82339">
        <ele>2024.4000244141</ele>
        <time>2023-10-01T08:53:46.000Z</time>
      </trkpt>
      <trkpt lat="45.00519" lon="5.82339">
        <ele>2024.8000488281</ele>
        <time>2023-10-01T08:53:47.000Z</time>
      </trkpt>
      <trkpt lat="45.00519" lon="5.8234">
        <ele>2025</ele>
        <time>2023-10-01T08:53:48.000Z</time>
      </trkpt>
      <trkpt lat="45.00519" lon="5.82341">
        <ele>2025.4000244141</ele>
        <time>2023-10-01T08:53:49.000Z</time>
      </trkpt>
      <trkpt lat="45.00519" lon="5.82341">
        <ele>2025.5999755859</ele>
        <time>2023-10-01T08:53:50.000Z</time>
      </trkpt>
      <trkpt lat="45.00519" lon="5.82341">
        <ele>2025.8000488281</ele>
        <time>2023-10-01T08:53:51.000Z</time>
      </trkpt>
      <trkpt lat="45.00519" lon="5.82342">
        <ele>2026.1999511719</ele>
        <time>2023-10-01T08:53:52.000Z</time>
      </trkpt>
      <trkpt lat="45.00519" lon="5.82343">
        <ele>2026.4000244141</ele>
        <time>2023-10-01T08:53:53.000Z</time>
      </trkpt>
      <trkpt lat="45.00519" lon="5.82343">
        <ele>2026.8000488281</ele>
        <time>2023-10-01T08:53:54.000Z</time>
      </trkpt>
      <trkpt lat="45.00519" lon="5.82345">
        <ele>2027</ele>
        <time>2023-10-01T08:53:55.000Z</time>
      </trkpt>
      <trkpt lat="45.00519" lon="5.82346">
        <ele>2027.1999511719</ele>
        <time>2023-10-01T08:53:56.000Z</time>
      </trkpt>
      <trkpt lat="45.00519" lon="5.82347">
        <ele>2027.4000244141</ele>
        <time>2023-10-01T08:53:57.000Z</time>
      </trkpt>
      <trkpt lat="45.00519" lon="5.82348">
        <ele>2027.8000488281</ele>
        <time>2023-10-01T08:53:58.000Z</time>
      </trkpt>
      <trkpt lat="45.00519" lon="5.82349">
        <ele>2028</ele>
        <time>2023-10-01T08:53:59.000Z</time>
      </trkpt>
      <trkpt lat="45.00519" lon="5.82349">
        <ele>2028.4000244141</ele>
        <time>2023-10-01T08:54:00.000Z</time>
      </trkpt>
      <trkpt lat="45.00519" lon="5.82349">
        <ele>2028.8000488281</ele>
        <time>2023-10-01T08:54:01.000Z</time>
      </trkpt>
      <trkpt lat="45.00519" lon="5.8235">
        <ele>2029.1999511719</ele>
        <time>2023-10-01T08:54:02.000Z</time>
      </trkpt>
      <trkpt lat="45.00519" lon="5.8235">
        <ele>2029.4000244141</ele>
        <time>2023-10-01T08:54:03.000Z</time>
      </trkpt>
      <trkpt lat="45.00519" lon="5.82351">
        <ele>2029.5999755859</ele>
        <time>2023-10-01T08:54:04.000Z</time>
      </trkpt>
      <trkpt lat="45.0052" lon="5.82351">
        <ele>2029.8000488281</ele>
        <time>2023-10-01T08:54:05.000Z</time>
      </trkpt>
      <trkpt lat="45.0052" lon="5.82352">
        <ele>2030</ele>
        <time>2023-10-01T08:54:06.000Z</time>
      </trkpt>
      <trkpt lat="45.0052" lon="5.82353">
        <ele>2030.4000244141</ele>
        <time>2023-10-01T08:54:07.000Z</time>
      </trkpt>
      <trkpt lat="45.00519" lon="5.82354">
        <ele>2030.5999755859</ele>
        <time>2023-10-01T08:54:08.000Z</time>
      </trkpt>
      <trkpt lat="45.00519" lon="5.82355">
        <ele>2031</ele>
        <time>2023-10-01T08:54:09.000Z</time>
      </trkpt>
      <trkpt lat="45.00519" lon="5.82355">
        <ele>2031.1999511719</ele>
        <time>2023-10-01T08:54:10.000Z</time>
      </trkpt>
      <trkpt lat="45.00519" lon="5.82355">
        <ele>2031.4000244141</ele>
        <time>2023-10-01T08:54:11.000Z</time>
      </trkpt>
      <trkpt lat="45.00519" lon="5.82356">
        <ele>2032</ele>
        <time>2023-10-01T08:54:12.000Z</time>
      </trkpt>
      <trkpt lat="45.00519" lon="5.82356">
        <ele>2032.1999511719</ele>
        <time>2023-10-01T08:54:13.000Z</time>
      </trkpt>
      <trkpt lat="45.00519" lon="5.82357">
        <ele>2032.4000244141</ele>
        <time>2023-10-01T08:54:14.000Z</time>
      </trkpt>
      <trkpt lat="45.00519" lon="5.82357">
        <ele>2032.8000488281</ele>
        <time>2023-10-01T08:54:15.000Z</time>
      </trkpt>
      <trkpt lat="45.00519" lon="5.82358">
        <ele>2033</ele>
        <time>2023-10-01T08:54:16.000Z</time>
      </trkpt>
      <trkpt lat="45.00519" lon="5.82359">
        <ele>2033.4000244141</ele>
        <time>2023-10-01T08:54:17.000Z</time>
      </trkpt>
      <trkpt lat="45.00519" lon="5.8236">
        <ele>2033.5999755859</ele>
        <time>2023-10-01T08:54:18.000Z</time>
      </trkpt>
      <trkpt lat="45.00519" lon="5.8236">
        <ele>2033.8000488281</ele>
        <time>2023-10-01T08:54:19.000Z</time>
      </trkpt>
      <trkpt lat="45.00518" lon="5.82361">
        <ele>2034.1999511719</ele>
        <time>2023-10-01T08:54:20.000Z</time>
      </trkpt>
      <trkpt lat="45.00518" lon="5.82362">
        <ele>2034.5999755859</ele>
        <time>2023-10-01T08:54:21.000Z</time>
      </trkpt>
      <trkpt lat="45.00518" lon="5.82362">
        <ele>2034.8000488281</ele>
        <time>2023-10-01T08:54:22.000Z</time>
      </trkpt>
      <trkpt lat="45.00518" lon="5.82362">
        <ele>2035.1999511719</ele>
        <time>2023-10-01T08:54:23.000Z</time>
      </trkpt>
      <trkpt lat="45.00518" lon="5.82362">
        <ele>2035.1999511719</ele>
        <time>2023-10-01T08:54:24.000Z</time>
      </trkpt>
      <trkpt lat="45.00518" lon="5.82362">
        <ele>2035.4000244141</ele>
        <time>2023-10-01T08:54:25.000Z</time>
      </trkpt>
      <trkpt lat="45.00517" lon="5.82363">
        <ele>2035.8000488281</ele>
        <time>2023-10-01T08:54:26.000Z</time>
      </trkpt>
      <trkpt lat="45.00517" lon="5.82364">
        <ele>2036.1999511719</ele>
        <time>2023-10-01T08:54:27.000Z</time>
      </trkpt>
      <trkpt lat="45.00517" lon="5.82365">
        <ele>2036.4000244141</ele>
        <time>2023-10-01T08:54:28.000Z</time>
      </trkpt>
      <trkpt lat="45.00517" lon="5.82366">
        <ele>2036.4000244141</ele>
        <time>2023-10-01T08:54:29.000Z</time>
      </trkpt>
      <trkpt lat="45.00517" lon="5.82366">
        <ele>2036.5999755859</ele>
        <time>2023-10-01T08:54:30.000Z</time>
      </trkpt>
      <trkpt lat="45.00517" lon="5.82368">
        <ele>2036.8000488281</ele>
        <time>2023-10-01T08:54:31.000Z</time>
      </trkpt>
      <trkpt lat="45.00517" lon="5.82369">
        <ele>2037.1999511719</ele>
        <time>2023-10-01T08:54:32.000Z</time>
      </trkpt>
      <trkpt lat="45.00517" lon="5.82369">
        <ele>2037.4000244141</ele>
        <time>2023-10-01T08:54:33.000Z</time>
      </trkpt>
      <trkpt lat="45.00518" lon="5.8237">
        <ele>2037.8000488281</ele>
        <time>2023-10-01T08:54:34.000Z</time>
      </trkpt>
      <trkpt lat="45.00518" lon="5.8237">
        <ele>2038</ele>
        <time>2023-10-01T08:54:35.000Z</time>
      </trkpt>
      <trkpt lat="45.00518" lon="5.8237">
        <ele>2038.4000244141</ele>
        <time>2023-10-01T08:54:36.000Z</time>
      </trkpt>
      <trkpt lat="45.00518" lon="5.82371">
        <ele>2038.5999755859</ele>
        <time>2023-10-01T08:54:37.000Z</time>
      </trkpt>
      <trkpt lat="45.00518" lon="5.82371">
        <ele>2039</ele>
        <time>2023-10-01T08:54:38.000Z</time>
      </trkpt>
      <trkpt lat="45.00518" lon="5.82372">
        <ele>2039.1999511719</ele>
        <time>2023-10-01T08:54:39.000Z</time>
      </trkpt>
      <trkpt lat="45.00518" lon="5.82373">
        <ele>2039.4000244141</ele>
        <time>2023-10-01T08:54:40.000Z</time>
      </trkpt>
      <trkpt lat="45.00517" lon="5.82374">
        <ele>2039.5999755859</ele>
        <time>2023-10-01T08:54:41.000Z</time>
      </trkpt>
      <trkpt lat="45.00517" lon="5.82375">
        <ele>2040</ele>
        <time>2023-10-01T08:54:42.000Z</time>
      </trkpt>
      <trkpt lat="45.00517" lon="5.82376">
        <ele>2040.1999511719</ele>
        <time>2023-10-01T08:54:43.000Z</time>
      </trkpt>
      <trkpt lat="45.00517" lon="5.82376">
        <ele>2040.5999755859</ele>
        <time>2023-10-01T08:54:44.000Z</time>
      </trkpt>
      <trkpt lat="45.00517" lon="5.82377">
        <ele>2041</ele>
        <time>2023-10-01T08:54:45.000Z</time>
      </trkpt>
      <trkpt lat="45.00516" lon="5.82377">
        <ele>2041.4000244141</ele>
        <time>2023-10-01T08:54:46.000Z</time>
      </trkpt>
      <trkpt lat="45.00516" lon="5.82378">
        <ele>2041.5999755859</ele>
        <time>2023-10-01T08:54:47.000Z</time>
      </trkpt>
      <trkpt lat="45.00517" lon="5.82378">
        <ele>2042</ele>
        <time>2023-10-01T08:54:48.000Z</time>
      </trkpt>
      <trkpt lat="45.00517" lon="5.82379">
        <ele>2042.1999511719</ele>
        <time>2023-10-01T08:54:49.000Z</time>
      </trkpt>
      <trkpt lat="45.00517" lon="5.8238">
        <ele>2042.4000244141</ele>
        <time>2023-10-01T08:54:50.000Z</time>
      </trkpt>
      <trkpt lat="45.00517" lon="5.82381">
        <ele>2042.5999755859</ele>
        <time>2023-10-01T08:54:51.000Z</time>
      </trkpt>
      <trkpt lat="45.00517" lon="5.82382">
        <ele>2043</ele>
        <time>2023-10-01T08:54:52.000Z</time>
      </trkpt>
      <trkpt lat="45.00516" lon="5.82382">
        <ele>2043.4000244141</ele>
        <time>2023-10-01T08:54:53.000Z</time>
      </trkpt>
      <trkpt lat="45.00516" lon="5.82383">
        <ele>2043.5999755859</ele>
        <time>2023-10-01T08:54:54.000Z</time>
      </trkpt>
      <trkpt lat="45.00516" lon="5.82384">
        <ele>2043.8000488281</ele>
        <time>2023-10-01T08:54:55.000Z</time>
      </trkpt>
      <trkpt lat="45.00516" lon="5.82384">
        <ele>2044.1999511719</ele>
        <time>2023-10-01T08:54:56.000Z</time>
      </trkpt>
      <trkpt lat="45.00516" lon="5.82384">
        <ele>2044.1999511719</ele>
        <time>2023-10-01T08:54:57.000Z</time>
      </trkpt>
      <trkpt lat="45.00517" lon="5.82385">
        <ele>2044.5999755859</ele>
        <time>2023-10-01T08:54:58.000Z</time>
      </trkpt>
      <trkpt lat="45.00517" lon="5.82386">
        <ele>2045</ele>
        <time>2023-10-01T08:54:59.000Z</time>
      </trkpt>
      <trkpt lat="45.00517" lon="5.82386">
        <ele>2045</ele>
        <time>2023-10-01T08:55:00.000Z</time>
      </trkpt>
      <trkpt lat="45.00517" lon="5.82387">
        <ele>2045.4000244141</ele>
        <time>2023-10-01T08:55:01.000Z</time>
      </trkpt>
      <trkpt lat="45.00517" lon="5.82387">
        <ele>2045.8000488281</ele>
        <time>2023-10-01T08:55:02.000Z</time>
      </trkpt>
      <trkpt lat="45.00517" lon="5.82389">
        <ele>2046</ele>
        <time>2023-10-01T08:55:03.000Z</time>
      </trkpt>
      <trkpt lat="45.00517" lon="5.82389">
        <ele>2046.1999511719</ele>
        <time>2023-10-01T08:55:04.000Z</time>
      </trkpt>
      <trkpt lat="45.00517" lon="5.82389">
        <ele>2046.5999755859</ele>
        <time>2023-10-01T08:55:05.000Z</time>
      </trkpt>
      <trkpt lat="45.00517" lon="5.8239">
        <ele>2047</ele>
        <time>2023-10-01T08:55:06.000Z</time>
      </trkpt>
      <trkpt lat="45.00517" lon="5.8239">
        <ele>2047.1999511719</ele>
        <time>2023-10-01T08:55:07.000Z</time>
      </trkpt>
      <trkpt lat="45.00517" lon="5.82391">
        <ele>2047.5999755859</ele>
        <time>2023-10-01T08:55:08.000Z</time>
      </trkpt>
      <trkpt lat="45.00517" lon="5.82392">
        <ele>2048</ele>
        <time>2023-10-01T08:55:09.000Z</time>
      </trkpt>
      <trkpt lat="45.00517" lon="5.82392">
        <ele>2048.1999511719</ele>
        <time>2023-10-01T08:55:10.000Z</time>
      </trkpt>
      <trkpt lat="45.00517" lon="5.82393">
        <ele>2048.3999023438</ele>
        <time>2023-10-01T08:55:11.000Z</time>
      </trkpt>
      <trkpt lat="45.00516" lon="5.82393">
        <ele>2048.8000488281</ele>
        <time>2023-10-01T08:55:12.000Z</time>
      </trkpt>
      <trkpt lat="45.00516" lon="5.82394">
        <ele>2049</ele>
        <time>2023-10-01T08:55:13.000Z</time>
      </trkpt>
      <trkpt lat="45.00516" lon="5.82394">
        <ele>2049.3999023438</ele>
        <time>2023-10-01T08:55:14.000Z</time>
      </trkpt>
      <trkpt lat="45.00516" lon="5.82394">
        <ele>2049.6000976562</ele>
        <time>2023-10-01T08:55:15.000Z</time>
      </trkpt>
      <trkpt lat="45.00516" lon="5.82395">
        <ele>2050</ele>
        <time>2023-10-01T08:55:16.000Z</time>
      </trkpt>
      <trkpt lat="45.00516" lon="5.82396">
        <ele>2050.1999511719</ele>
        <time>2023-10-01T08:55:17.000Z</time>
      </trkpt>
      <trkpt lat="45.00516" lon="5.82396">
        <ele>2050.3999023438</ele>
        <time>2023-10-01T08:55:18.000Z</time>
      </trkpt>
      <trkpt lat="45.00516" lon="5.82397">
        <ele>2050.6000976562</ele>
        <time>2023-10-01T08:55:19.000Z</time>
      </trkpt>
      <trkpt lat="45.00515" lon="5.82397">
        <ele>2050.8000488281</ele>
        <time>2023-10-01T08:55:20.000Z</time>
      </trkpt>
      <trkpt lat="45.00515" lon="5.82398">
        <ele>2051</ele>
        <time>2023-10-01T08:55:21.000Z</time>
      </trkpt>
      <trkpt lat="45.00515" lon="5.82399">
        <ele>2051.1999511719</ele>
        <time>2023-10-01T08:55:22.000Z</time>
      </trkpt>
      <trkpt lat="45.00516" lon="5.824">
        <ele>2051.3999023438</ele>
        <time>2023-10-01T08:55:23.000Z</time>
      </trkpt>
      <trkpt lat="45.00516" lon="5.824">
        <ele>2052</ele>
        <time>2023-10-01T08:55:24.000Z</time>
      </trkpt>
      <trkpt lat="45.00516" lon="5.82401">
        <ele>2052.1999511719</ele>
        <time>2023-10-01T08:55:25.000Z</time>
      </trkpt>
      <trkpt lat="45.00516" lon="5.82401">
        <ele>2052.6000976562</ele>
        <time>2023-10-01T08:55:26.000Z</time>
      </trkpt>
      <trkpt lat="45.00516" lon="5.82402">
        <ele>2052.8000488281</ele>
        <time>2023-10-01T08:55:27.000Z</time>
      </trkpt>
      <trkpt lat="45.00516" lon="5.82403">
        <ele>2053.1999511719</ele>
        <time>2023-10-01T08:55:28.000Z</time>
      </trkpt>
      <trkpt lat="45.00516" lon="5.82404">
        <ele>2053.3999023438</ele>
        <time>2023-10-01T08:55:29.000Z</time>
      </trkpt>
      <trkpt lat="45.00516" lon="5.82405">
        <ele>2053.6000976562</ele>
        <time>2023-10-01T08:55:30.000Z</time>
      </trkpt>
      <trkpt lat="45.00516" lon="5.82405">
        <ele>2054.1999511719</ele>
        <time>2023-10-01T08:55:31.000Z</time>
      </trkpt>
      <trkpt lat="45.00516" lon="5.82406">
        <ele>2054.3999023438</ele>
        <time>2023-10-01T08:55:32.000Z</time>
      </trkpt>
      <trkpt lat="45.00516" lon="5.82407">
        <ele>2054.8000488281</ele>
        <time>2023-10-01T08:55:33.000Z</time>
      </trkpt>
      <trkpt lat="45.00516" lon="5.82407">
        <ele>2055</ele>
        <time>2023-10-01T08:55:34.000Z</time>
      </trkpt>
      <trkpt lat="45.00516" lon="5.82409">
        <ele>2055.3999023438</ele>
        <time>2023-10-01T08:55:35.000Z</time>
      </trkpt>
      <trkpt lat="45.00516" lon="5.82409">
        <ele>2055.8000488281</ele>
        <time>2023-10-01T08:55:36.000Z</time>
      </trkpt>
      <trkpt lat="45.00516" lon="5.8241">
        <ele>2056</ele>
        <time>2023-10-01T08:55:37.000Z</time>
      </trkpt>
      <trkpt lat="45.00516" lon="5.8241">
        <ele>2056.1999511719</ele>
        <time>2023-10-01T08:55:38.000Z</time>
      </trkpt>
      <trkpt lat="45.00516" lon="5.8241">
        <ele>2056.6000976562</ele>
        <time>2023-10-01T08:55:39.000Z</time>
      </trkpt>
      <trkpt lat="45.00516" lon="5.8241">
        <ele>2056.8000488281</ele>
        <time>2023-10-01T08:55:40.000Z</time>
      </trkpt>
      <trkpt lat="45.00516" lon="5.82411">
        <ele>2057.1999511719</ele>
        <time>2023-10-01T08:55:41.000Z</time>
      </trkpt>
      <trkpt lat="45.00516" lon="5.82411">
        <ele>2057.3999023438</ele>
        <time>2023-10-01T08:55:42.000Z</time>
      </trkpt>
      <trkpt lat="45.00516" lon="5.82412">
        <ele>2057.6000976562</ele>
        <time>2023-10-01T08:55:43.000Z</time>
      </trkpt>
      <trkpt lat="45.00516" lon="5.82412">
        <ele>2058</ele>
        <time>2023-10-01T08:55:44.000Z</time>
      </trkpt>
      <trkpt lat="45.00516" lon="5.82413">
        <ele>2058.1999511719</ele>
        <time>2023-10-01T08:55:45.000Z</time>
      </trkpt>
      <trkpt lat="45.00516" lon="5.82414">
        <ele>2058.1999511719</ele>
        <time>2023-10-01T08:55:46.000Z</time>
      </trkpt>
      <trkpt lat="45.00516" lon="5.82415">
        <ele>2058.6000976562</ele>
        <time>2023-10-01T08:55:47.000Z</time>
      </trkpt>
      <trkpt lat="45.00516" lon="5.82416">
        <ele>2058.8000488281</ele>
        <time>2023-10-01T08:55:48.000Z</time>
      </trkpt>
      <trkpt lat="45.00516" lon="5.82417">
        <ele>2059</ele>
        <time>2023-10-01T08:55:49.000Z</time>
      </trkpt>
      <trkpt lat="45.00516" lon="5.82418">
        <ele>2059.3999023438</ele>
        <time>2023-10-01T08:55:50.000Z</time>
      </trkpt>
      <trkpt lat="45.00516" lon="5.82418">
        <ele>2059.8000488281</ele>
        <time>2023-10-01T08:55:51.000Z</time>
      </trkpt>
      <trkpt lat="45.00516" lon="5.82418">
        <ele>2060</ele>
        <time>2023-10-01T08:55:52.000Z</time>
      </trkpt>
      <trkpt lat="45.00516" lon="5.82419">
        <ele>2060.3999023438</ele>
        <time>2023-10-01T08:55:53.000Z</time>
      </trkpt>
      <trkpt lat="45.00516" lon="5.82419">
        <ele>2060.6000976562</ele>
        <time>2023-10-01T08:55:54.000Z</time>
      </trkpt>
      <trkpt lat="45.00516" lon="5.82421">
        <ele>2060.8000488281</ele>
        <time>2023-10-01T08:55:55.000Z</time>
      </trkpt>
      <trkpt lat="45.00516" lon="5.82421">
        <ele>2061.1999511719</ele>
        <time>2023-10-01T08:55:56.000Z</time>
      </trkpt>
      <trkpt lat="45.00515" lon="5.82422">
        <ele>2061.3999023438</ele>
        <time>2023-10-01T08:55:57.000Z</time>
      </trkpt>
      <trkpt lat="45.00516" lon="5.82422">
        <ele>2061.6000976562</ele>
        <time>2023-10-01T08:55:58.000Z</time>
      </trkpt>
      <trkpt lat="45.00516" lon="5.82423">
        <ele>2062</ele>
        <time>2023-10-01T08:55:59.000Z</time>
      </trkpt>
      <trkpt lat="45.00516" lon="5.82424">
        <ele>2062.1999511719</ele>
        <time>2023-10-01T08:56:00.000Z</time>
      </trkpt>
      <trkpt lat="45.00516" lon="5.82425">
        <ele>2062.8000488281</ele>
        <time>2023-10-01T08:56:01.000Z</time>
      </trkpt>
      <trkpt lat="45.00515" lon="5.82425">
        <ele>2063</ele>
        <time>2023-10-01T08:56:02.000Z</time>
      </trkpt>
      <trkpt lat="45.00515" lon="5.82426">
        <ele>2063.3999023438</ele>
        <time>2023-10-01T08:56:03.000Z</time>
      </trkpt>
      <trkpt lat="45.00515" lon="5.82427">
        <ele>2063.6000976562</ele>
        <time>2023-10-01T08:56:04.000Z</time>
      </trkpt>
      <trkpt lat="45.00515" lon="5.82428">
        <ele>2063.8000488281</ele>
        <time>2023-10-01T08:56:05.000Z</time>
      </trkpt>
      <trkpt lat="45.00515" lon="5.82429">
        <ele>2064.1999511719</ele>
        <time>2023-10-01T08:56:06.000Z</time>
      </trkpt>
      <trkpt lat="45.00515" lon="5.8243">
        <ele>2064.3999023438</ele>
        <time>2023-10-01T08:56:07.000Z</time>
      </trkpt>
      <trkpt lat="45.00516" lon="5.82431">
        <ele>2064.6000976562</ele>
        <time>2023-10-01T08:56:08.000Z</time>
      </trkpt>
      <trkpt lat="45.00516" lon="5.82432">
        <ele>2065</ele>
        <time>2023-10-01T08:56:09.000Z</time>
      </trkpt>
      <trkpt lat="45.00516" lon="5.82432">
        <ele>2065.1999511719</ele>
        <time>2023-10-01T08:56:10.000Z</time>
      </trkpt>
      <trkpt lat="45.00516" lon="5.82434">
        <ele>2065.3999023438</ele>
        <time>2023-10-01T08:56:11.000Z</time>
      </trkpt>
      <trkpt lat="45.00516" lon="5.82434">
        <ele>2065.6000976562</ele>
        <time>2023-10-01T08:56:12.000Z</time>
      </trkpt>
      <trkpt lat="45.00516" lon="5.82434">
        <ele>2066</ele>
        <time>2023-10-01T08:56:13.000Z</time>
      </trkpt>
      <trkpt lat="45.00516" lon="5.82435">
        <ele>2066.3999023438</ele>
        <time>2023-10-01T08:56:14.000Z</time>
      </trkpt>
      <trkpt lat="45.00516" lon="5.82436">
        <ele>2066.6000976562</ele>
        <time>2023-10-01T08:56:15.000Z</time>
      </trkpt>
      <trkpt lat="45.00516" lon="5.82436">
        <ele>2066.8000488281</ele>
        <time>2023-10-01T08:56:16.000Z</time>
      </trkpt>
      <trkpt lat="45.00517" lon="5.82437">
        <ele>2067</ele>
        <time>2023-10-01T08:56:17.000Z</time>
      </trkpt>
      <trkpt lat="45.00517" lon="5.82438">
        <ele>2067.1999511719</ele>
        <time>2023-10-01T08:56:18.000Z</time>
      </trkpt>
      <trkpt lat="45.00517" lon="5.82438">
        <ele>2067.6000976562</ele>
        <time>2023-10-01T08:56:19.000Z</time>
      </trkpt>
      <trkpt lat="45.00517" lon="5.82438">
        <ele>2067.8000488281</ele>
        <time>2023-10-01T08:56:20.000Z</time>
      </trkpt>
      <trkpt lat="45.00517" lon="5.82438">
        <ele>2068.1999511719</ele>
        <time>2023-10-01T08:56:21.000Z</time>
      </trkpt>
      <trkpt lat="45.00517" lon="5.82439">
        <ele>2068.6000976562</ele>
        <time>2023-10-01T08:56:22.000Z</time>
      </trkpt>
      <trkpt lat="45.00517" lon="5.8244">
        <ele>2068.8000488281</ele>
        <time>2023-10-01T08:56:23.000Z</time>
      </trkpt>
      <trkpt lat="45.00517" lon="5.82441">
        <ele>2069.1999511719</ele>
        <time>2023-10-01T08:56:24.000Z</time>
      </trkpt>
      <trkpt lat="45.00517" lon="5.82443">
        <ele>2069.3999023438</ele>
        <time>2023-10-01T08:56:25.000Z</time>
      </trkpt>
      <trkpt lat="45.00517" lon="5.82444">
        <ele>2069.8000488281</ele>
        <time>2023-10-01T08:56:26.000Z</time>
      </trkpt>
      <trkpt lat="45.00517" lon="5.82444">
        <ele>2069.8000488281</ele>
        <time>2023-10-01T08:56:27.000Z</time>
      </trkpt>
      <trkpt lat="45.00517" lon="5.82445">
        <ele>2070</ele>
        <time>2023-10-01T08:56:28.000Z</time>
      </trkpt>
      <trkpt lat="45.00517" lon="5.82445">
        <ele>2070.3999023438</ele>
        <time>2023-10-01T08:56:29.000Z</time>
      </trkpt>
      <trkpt lat="45.00517" lon="5.82446">
        <ele>2070.8000488281</ele>
        <time>2023-10-01T08:56:30.000Z</time>
      </trkpt>
      <trkpt lat="45.00517" lon="5.82447">
        <ele>2071.1999511719</ele>
        <time>2023-10-01T08:56:31.000Z</time>
      </trkpt>
      <trkpt lat="45.00517" lon="5.82448">
        <ele>2071.3999023438</ele>
        <time>2023-10-01T08:56:32.000Z</time>
      </trkpt>
      <trkpt lat="45.00517" lon="5.82449">
        <ele>2071.8000488281</ele>
        <time>2023-10-01T08:56:33.000Z</time>
      </trkpt>
      <trkpt lat="45.00517" lon="5.82449">
        <ele>2072.1999511719</ele>
        <time>2023-10-01T08:56:34.000Z</time>
      </trkpt>
      <trkpt lat="45.00517" lon="5.82451">
        <ele>2072.1999511719</ele>
        <time>2023-10-01T08:56:35.000Z</time>
      </trkpt>
      <trkpt lat="45.00517" lon="5.82452">
        <ele>2072.6000976562</ele>
        <time>2023-10-01T08:56:36.000Z</time>
      </trkpt>
      <trkpt lat="45.00517" lon="5.82452">
        <ele>2072.8000488281</ele>
        <time>2023-10-01T08:56:37.000Z</time>
      </trkpt>
      <trkpt lat="45.00518" lon="5.82453">
        <ele>2073.1999511719</ele>
        <time>2023-10-01T08:56:38.000Z</time>
      </trkpt>
      <trkpt lat="45.00518" lon="5.82454">
        <ele>2073.3999023438</ele>
        <time>2023-10-01T08:56:39.000Z</time>
      </trkpt>
      <trkpt lat="45.00518" lon="5.82454">
        <ele>2073.8000488281</ele>
        <time>2023-10-01T08:56:40.000Z</time>
      </trkpt>
      <trkpt lat="45.00518" lon="5.82454">
        <ele>2074</ele>
        <time>2023-10-01T08:56:41.000Z</time>
      </trkpt>
      <trkpt lat="45.00518" lon="5.82454">
        <ele>2074</ele>
        <time>2023-10-01T08:56:42.000Z</time>
      </trkpt>
      <trkpt lat="45.00518" lon="5.82455">
        <ele>2074.3999023438</ele>
        <time>2023-10-01T08:56:43.000Z</time>
      </trkpt>
      <trkpt lat="45.00518" lon="5.82455">
        <ele>2074.6000976562</ele>
        <time>2023-10-01T08:56:44.000Z</time>
      </trkpt>
      <trkpt lat="45.00518" lon="5.82457">
        <ele>2075</ele>
        <time>2023-10-01T08:56:45.000Z</time>
      </trkpt>
      <trkpt lat="45.00518" lon="5.82457">
        <ele>2075.1999511719</ele>
        <time>2023-10-01T08:56:46.000Z</time>
      </trkpt>
      <trkpt lat="45.00518" lon="5.82458">
        <ele>2075.6000976562</ele>
        <time>2023-10-01T08:56:47.000Z</time>
      </trkpt>
      <trkpt lat="45.00518" lon="5.82459">
        <ele>2075.8000488281</ele>
        <time>2023-10-01T08:56:48.000Z</time>
      </trkpt>
      <trkpt lat="45.00518" lon="5.8246">
        <ele>2076</ele>
        <time>2023-10-01T08:56:49.000Z</time>
      </trkpt>
      <trkpt lat="45.00518" lon="5.82461">
        <ele>2076.1999511719</ele>
        <time>2023-10-01T08:56:50.000Z</time>
      </trkpt>
      <trkpt lat="45.00518" lon="5.82461">
        <ele>2076.6000976562</ele>
        <time>2023-10-01T08:56:51.000Z</time>
      </trkpt>
      <trkpt lat="45.00518" lon="5.82462">
        <ele>2076.8000488281</ele>
        <time>2023-10-01T08:56:52.000Z</time>
      </trkpt>
      <trkpt lat="45.00518" lon="5.82462">
        <ele>2077.1999511719</ele>
        <time>2023-10-01T08:56:53.000Z</time>
      </trkpt>
      <trkpt lat="45.00518" lon="5.82464">
        <ele>2077.3999023438</ele>
        <time>2023-10-01T08:56:54.000Z</time>
      </trkpt>
      <trkpt lat="45.00518" lon="5.82465">
        <ele>2077.8000488281</ele>
        <time>2023-10-01T08:56:55.000Z</time>
      </trkpt>
      <trkpt lat="45.00518" lon="5.82466">
        <ele>2078</ele>
        <time>2023-10-01T08:56:56.000Z</time>
      </trkpt>
      <trkpt lat="45.00518" lon="5.82467">
        <ele>2078.1999511719</ele>
        <time>2023-10-01T08:56:57.000Z</time>
      </trkpt>
      <trkpt lat="45.00518" lon="5.82468">
        <ele>2078.3999023438</ele>
        <time>2023-10-01T08:56:58.000Z</time>
      </trkpt>
      <trkpt lat="45.00518" lon="5.82469">
        <ele>2078.8000488281</ele>
        <time>2023-10-01T08:56:59.000Z</time>
      </trkpt>
      <trkpt lat="45.00518" lon="5.82469">
        <ele>2079</ele>
        <time>2023-10-01T08:57:00.000Z</time>
      </trkpt>
      <trkpt lat="45.00518" lon="5.8247">
        <ele>2079.1999511719</ele>
        <time>2023-10-01T08:57:01.000Z</time>
      </trkpt>
      <trkpt lat="45.00518" lon="5.8247">
        <ele>2079.3999023438</ele>
        <time>2023-10-01T08:57:02.000Z</time>
      </trkpt>
      <trkpt lat="45.00518" lon="5.82471">
        <ele>2079.8000488281</ele>
        <time>2023-10-01T08:57:03.000Z</time>
      </trkpt>
      <trkpt lat="45.00518" lon="5.82472">
        <ele>2080.1999511719</ele>
        <time>2023-10-01T08:57:04.000Z</time>
      </trkpt>
      <trkpt lat="45.00518" lon="5.82473">
        <ele>2080.6000976562</ele>
        <time>2023-10-01T08:57:05.000Z</time>
      </trkpt>
      <trkpt lat="45.00517" lon="5.82473">
        <ele>2081</ele>
        <time>2023-10-01T08:57:06.000Z</time>
      </trkpt>
      <trkpt lat="45.00518" lon="5.82474">
        <ele>2081.1999511719</ele>
        <time>2023-10-01T08:57:07.000Z</time>
      </trkpt>
      <trkpt lat="45.00518" lon="5.82475">
        <ele>2081.6000976562</ele>
        <time>2023-10-01T08:57:08.000Z</time>
      </trkpt>
      <trkpt lat="45.00518" lon="5.82475">
        <ele>2081.8000488281</ele>
        <time>2023-10-01T08:57:09.000Z</time>
      </trkpt>
      <trkpt lat="45.00518" lon="5.82476">
        <ele>2082.1999511719</ele>
        <time>2023-10-01T08:57:10.000Z</time>
      </trkpt>
      <trkpt lat="45.00518" lon="5.82477">
        <ele>2082.3999023438</ele>
        <time>2023-10-01T08:57:11.000Z</time>
      </trkpt>
      <trkpt lat="45.00518" lon="5.82477">
        <ele>2082.6000976562</ele>
        <time>2023-10-01T08:57:12.000Z</time>
      </trkpt>
      <trkpt lat="45.00518" lon="5.82478">
        <ele>2082.8000488281</ele>
        <time>2023-10-01T08:57:13.000Z</time>
      </trkpt>
      <trkpt lat="45.00518" lon="5.82479">
        <ele>2083.1999511719</ele>
        <time>2023-10-01T08:57:14.000Z</time>
      </trkpt>
      <trkpt lat="45.00518" lon="5.8248">
        <ele>2083.6000976562</ele>
        <time>2023-10-01T08:57:15.000Z</time>
      </trkpt>
      <trkpt lat="45.00518" lon="5.82481">
        <ele>2083.8000488281</ele>
        <time>2023-10-01T08:57:16.000Z</time>
      </trkpt>
      <trkpt lat="45.00519" lon="5.82481">
        <ele>2084.1999511719</ele>
        <time>2023-10-01T08:57:17.000Z</time>
      </trkpt>
      <trkpt lat="45.00519" lon="5.82482">
        <ele>2084.3999023438</ele>
        <time>2023-10-01T08:57:18.000Z</time>
      </trkpt>
      <trkpt lat="45.00519" lon="5.82482">
        <ele>2084.8000488281</ele>
        <time>2023-10-01T08:57:19.000Z</time>
      </trkpt>
      <trkpt lat="45.00519" lon="5.82483">
        <ele>2085.1999511719</ele>
        <time>2023-10-01T08:57:20.000Z</time>
      </trkpt>
      <trkpt lat="45.00519" lon="5.82484">
        <ele>2085.3999023438</ele>
        <time>2023-10-01T08:57:21.000Z</time>
      </trkpt>
      <trkpt lat="45.00519" lon="5.82484">
        <ele>2085.6000976562</ele>
        <time>2023-10-01T08:57:22.000Z</time>
      </trkpt>
      <trkpt lat="45.00519" lon="5.82485">
        <ele>2086</ele>
        <time>2023-10-01T08:57:23.000Z</time>
      </trkpt>
      <trkpt lat="45.00519" lon="5.82486">
        <ele>2086.1999511719</ele>
        <time>2023-10-01T08:57:24.000Z</time>
      </trkpt>
      <trkpt lat="45.00519" lon="5.82487">
        <ele>2086.6000976562</ele>
        <time>2023-10-01T08:57:25.000Z</time>
      </trkpt>
      <trkpt lat="45.00519" lon="5.82487">
        <ele>2087</ele>
        <time>2023-10-01T08:57:26.000Z</time>
      </trkpt>
      <trkpt lat="45.0052" lon="5.82488">
        <ele>2087.1999511719</ele>
        <time>2023-10-01T08:57:27.000Z</time>
      </trkpt>
      <trkpt lat="45.0052" lon="5.82488">
        <ele>2087.3999023438</ele>
        <time>2023-10-01T08:57:28.000Z</time>
      </trkpt>
      <trkpt lat="45.0052" lon="5.82489">
        <ele>2087.8000488281</ele>
        <time>2023-10-01T08:57:29.000Z</time>
      </trkpt>
      <trkpt lat="45.0052" lon="5.82489">
        <ele>2088.1999511719</ele>
        <time>2023-10-01T08:57:30.000Z</time>
      </trkpt>
      <trkpt lat="45.0052" lon="5.82489">
        <ele>2088.3999023438</ele>
        <time>2023-10-01T08:57:31.000Z</time>
      </trkpt>
      <trkpt lat="45.00521" lon="5.82491">
        <ele>2088.6000976562</ele>
        <time>2023-10-01T08:57:32.000Z</time>
      </trkpt>
      <trkpt lat="45.00521" lon="5.82491">
        <ele>2088.8000488281</ele>
        <time>2023-10-01T08:57:33.000Z</time>
      </trkpt>
      <trkpt lat="45.00521" lon="5.82492">
        <ele>2089.1999511719</ele>
        <time>2023-10-01T08:57:34.000Z</time>
      </trkpt>
      <trkpt lat="45.00521" lon="5.82492">
        <ele>2089.6000976562</ele>
        <time>2023-10-01T08:57:35.000Z</time>
      </trkpt>
      <trkpt lat="45.00521" lon="5.82493">
        <ele>2089.8000488281</ele>
        <time>2023-10-01T08:57:36.000Z</time>
      </trkpt>
      <trkpt lat="45.0052" lon="5.82494">
        <ele>2090.3999023438</ele>
        <time>2023-10-01T08:57:37.000Z</time>
      </trkpt>
      <trkpt lat="45.0052" lon="5.82495">
        <ele>2090.8000488281</ele>
        <time>2023-10-01T08:57:38.000Z</time>
      </trkpt>
      <trkpt lat="45.0052" lon="5.82495">
        <ele>2091</ele>
        <time>2023-10-01T08:57:39.000Z</time>
      </trkpt>
      <trkpt lat="45.0052" lon="5.82496">
        <ele>2091.3999023438</ele>
        <time>2023-10-01T08:57:40.000Z</time>
      </trkpt>
      <trkpt lat="45.0052" lon="5.82497">
        <ele>2091.6000976562</ele>
        <time>2023-10-01T08:57:41.000Z</time>
      </trkpt>
      <trkpt lat="45.0052" lon="5.82497">
        <ele>2091.8000488281</ele>
        <time>2023-10-01T08:57:42.000Z</time>
      </trkpt>
      <trkpt lat="45.00521" lon="5.82498">
        <ele>2092.1999511719</ele>
        <time>2023-10-01T08:57:43.000Z</time>
      </trkpt>
      <trkpt lat="45.00521" lon="5.82498">
        <ele>2092.3999023438</ele>
        <time>2023-10-01T08:57:44.000Z</time>
      </trkpt>
      <trkpt lat="45.00521" lon="5.825">
        <ele>2092.8000488281</ele>
        <time>2023-10-01T08:57:45.000Z</time>
      </trkpt>
      <trkpt lat="45.00521" lon="5.82501">
        <ele>2093</ele>
        <time>2023-10-01T08:57:46.000Z</time>
      </trkpt>
      <trkpt lat="45.00521" lon="5.82502">
        <ele>2093.1999511719</ele>
        <time>2023-10-01T08:57:47.000Z</time>
      </trkpt>
      <trkpt lat="45.00521" lon="5.82502">
        <ele>2093.6000976562</ele>
        <time>2023-10-01T08:57:48.000Z</time>
      </trkpt>
      <trkpt lat="45.00521" lon="5.82503">
        <ele>2094</ele>
        <time>2023-10-01T08:57:49.000Z</time>
      </trkpt>
      <trkpt lat="45.00521" lon="5.82504">
        <ele>2094.1999511719</ele>
        <time>2023-10-01T08:57:50.000Z</time>
      </trkpt>
      <trkpt lat="45.00521" lon="5.82505">
        <ele>2094.6000976562</ele>
        <time>2023-10-01T08:57:51.000Z</time>
      </trkpt>
      <trkpt lat="45.00521" lon="5.82506">
        <ele>2094.8000488281</ele>
        <time>2023-10-01T08:57:52.000Z</time>
      </trkpt>
      <trkpt lat="45.00522" lon="5.82506">
        <ele>2095</ele>
        <time>2023-10-01T08:57:53.000Z</time>
      </trkpt>
      <trkpt lat="45.00522" lon="5.82506">
        <ele>2095.3999023438</ele>
        <time>2023-10-01T08:57:54.000Z</time>
      </trkpt>
      <trkpt lat="45.00522" lon="5.82507">
        <ele>2095.8000488281</ele>
        <time>2023-10-01T08:57:55.000Z</time>
      </trkpt>
      <trkpt lat="45.00522" lon="5.82508">
        <ele>2096</ele>
        <time>2023-10-01T08:57:56.000Z</time>
      </trkpt>
      <trkpt lat="45.00521" lon="5.82508">
        <ele>2096.1999511719</ele>
        <time>2023-10-01T08:57:57.000Z</time>
      </trkpt>
      <trkpt lat="45.00521" lon="5.82509">
        <ele>2096.6000976562</ele>
        <time>2023-10-01T08:57:58.000Z</time>
      </trkpt>
      <trkpt lat="45.00521" lon="5.8251">
        <ele>2096.8000488281</ele>
        <time>2023-10-01T08:57:59.000Z</time>
      </trkpt>
      <trkpt lat="45.00521" lon="5.8251">
        <ele>2097</ele>
        <time>2023-10-01T08:58:00.000Z</time>
      </trkpt>
      <trkpt lat="45.00522" lon="5.82511">
        <ele>2097.3999023438</ele>
        <time>2023-10-01T08:58:01.000Z</time>
      </trkpt>
      <trkpt lat="45.00522" lon="5.82512">
        <ele>2097.6000976562</ele>
        <time>2023-10-01T08:58:02.000Z</time>
      </trkpt>
      <trkpt lat="45.00522" lon="5.82513">
        <ele>2097.8000488281</ele>
        <time>2023-10-01T08:58:03.000Z</time>
      </trkpt>
      <trkpt lat="45.00522" lon="5.82514">
        <ele>2098</ele>
        <time>2023-10-01T08:58:04.000Z</time>
      </trkpt>
      <trkpt lat="45.00521" lon="5.82514">
        <ele>2098.3999023438</ele>
        <time>2023-10-01T08:58:05.000Z</time>
      </trkpt>
      <trkpt lat="45.00521" lon="5.82515">
        <ele>2098.6000976562</ele>
        <time>2023-10-01T08:58:06.000Z</time>
      </trkpt>
      <trkpt lat="45.00521" lon="5.82516">
        <ele>2099</ele>
        <time>2023-10-01T08:58:07.000Z</time>
      </trkpt>
      <trkpt lat="45.00521" lon="5.82516">
        <ele>2099.1999511719</ele>
        <time>2023-10-01T08:58:08.000Z</time>
      </trkpt>
      <trkpt lat="45.00521" lon="5.82517">
        <ele>2099.6000976562</ele>
        <time>2023-10-01T08:58:09.000Z</time>
      </trkpt>
      <trkpt lat="45.00521" lon="5.82517">
        <ele>2099.8000488281</ele>
        <time>2023-10-01T08:58:10.000Z</time>
      </trkpt>
      <trkpt lat="45.00521" lon="5.82518">
        <ele>2100.1999511719</ele>
        <time>2023-10-01T08:58:11.000Z</time>
      </trkpt>
      <trkpt lat="45.00522" lon="5.82519">
        <ele>2100.1999511719</ele>
        <time>2023-10-01T08:58:12.000Z</time>
      </trkpt>
      <trkpt lat="45.00522" lon="5.8252">
        <ele>2100.6000976562</ele>
        <time>2023-10-01T08:58:13.000Z</time>
      </trkpt>
      <trkpt lat="45.00522" lon="5.8252">
        <ele>2100.8000488281</ele>
        <time>2023-10-01T08:58:14.000Z</time>
      </trkpt>
      <trkpt lat="45.00523" lon="5.82521">
        <ele>2101.1999511719</ele>
        <time>2023-10-01T08:58:15.000Z</time>
      </trkpt>
      <trkpt lat="45.00523" lon="5.82522">
        <ele>2101.3999023438</ele>
        <time>2023-10-01T08:58:16.000Z</time>
      </trkpt>
      <trkpt lat="45.00523" lon="5.82523">
        <ele>2101.6000976562</ele>
        <time>2023-10-01T08:58:17.000Z</time>
      </trkpt>
      <trkpt lat="45.00523" lon="5.82523">
        <ele>2102</ele>
        <time>2023-10-01T08:58:18.000Z</time>
      </trkpt>
      <trkpt lat="45.00523" lon="5.82524">
        <ele>2102.3999023438</ele>
        <time>2023-10-01T08:58:19.000Z</time>
      </trkpt>
      <trkpt lat="45.00524" lon="5.82524">
        <ele>2102.3999023438</ele>
        <time>2023-10-01T08:58:20.000Z</time>
      </trkpt>
      <trkpt lat="45.00524" lon="5.82524">
        <ele>2102.8000488281</ele>
        <time>2023-10-01T08:58:21.000Z</time>
      </trkpt>
      <trkpt lat="45.00524" lon="5.82524">
        <ele>2103</ele>
        <time>2023-10-01T08:58:22.000Z</time>
      </trkpt>
      <trkpt lat="45.00524" lon="5.82525">
        <ele>2103.1999511719</ele>
        <time>2023-10-01T08:58:23.000Z</time>
      </trkpt>
      <trkpt lat="45.00523" lon="5.82526">
        <ele>2103.6000976562</ele>
        <time>2023-10-01T08:58:24.000Z</time>
      </trkpt>
      <trkpt lat="45.00523" lon="5.82527">
        <ele>2103.8000488281</ele>
        <time>2023-10-01T08:58:25.000Z</time>
      </trkpt>
      <trkpt lat="45.00522" lon="5.82528">
        <ele>2104</ele>
        <time>2023-10-01T08:58:26.000Z</time>
      </trkpt>
      <trkpt lat="45.00522" lon="5.82529">
        <ele>2104.1999511719</ele>
        <time>2023-10-01T08:58:27.000Z</time>
      </trkpt>
      <trkpt lat="45.00522" lon="5.82529">
        <ele>2104.1999511719</ele>
        <time>2023-10-01T08:58:28.000Z</time>
      </trkpt>
      <trkpt lat="45.00522" lon="5.82529">
        <ele>2104.3999023438</ele>
        <time>2023-10-01T08:58:29.000Z</time>
      </trkpt>
      <trkpt lat="45.00522" lon="5.8253">
        <ele>2104.6000976562</ele>
        <time>2023-10-01T08:58:30.000Z</time>
      </trkpt>
      <trkpt lat="45.00523" lon="5.82531">
        <ele>2104.8000488281</ele>
        <time>2023-10-01T08:58:31.000Z</time>
      </trkpt>
      <trkpt lat="45.00523" lon="5.82531">
        <ele>2105</ele>
        <time>2023-10-01T08:58:32.000Z</time>
      </trkpt>
      <trkpt lat="45.00524" lon="5.82531">
        <ele>2105.3999023438</ele>
        <time>2023-10-01T08:58:33.000Z</time>
      </trkpt>
      <trkpt lat="45.00524" lon="5.82533">
        <ele>2105.6000976562</ele>
        <time>2023-10-01T08:58:34.000Z</time>
      </trkpt>
      <trkpt lat="45.00524" lon="5.82534">
        <ele>2105.8000488281</ele>
        <time>2023-10-01T08:58:35.000Z</time>
      </trkpt>
      <trkpt lat="45.00524" lon="5.82534">
        <ele>2106</ele>
        <time>2023-10-01T08:58:36.000Z</time>
      </trkpt>
      <trkpt lat="45.00524" lon="5.82535">
        <ele>2106.3999023438</ele>
        <time>2023-10-01T08:58:37.000Z</time>
      </trkpt>
      <trkpt lat="45.00525" lon="5.82537">
        <ele>2106.8000488281</ele>
        <time>2023-10-01T08:58:38.000Z</time>
      </trkpt>
      <trkpt lat="45.00524" lon="5.82537">
        <ele>2107</ele>
        <time>2023-10-01T08:58:39.000Z</time>
      </trkpt>
      <trkpt lat="45.00524" lon="5.82538">
        <ele>2107.1999511719</ele>
        <time>2023-10-01T08:58:40.000Z</time>
      </trkpt>
      <trkpt lat="45.00525" lon="5.8254">
        <ele>2107.6000976562</ele>
        <time>2023-10-01T08:58:41.000Z</time>
      </trkpt>
      <trkpt lat="45.00525" lon="5.8254">
        <ele>2107.8000488281</ele>
        <time>2023-10-01T08:58:42.000Z</time>
      </trkpt>
      <trkpt lat="45.00525" lon="5.82541">
        <ele>2108.1999511719</ele>
        <time>2023-10-01T08:58:43.000Z</time>
      </trkpt>
      <trkpt lat="45.00525" lon="5.82541">
        <ele>2108.6000976562</ele>
        <time>2023-10-01T08:58:44.000Z</time>
      </trkpt>
      <trkpt lat="45.00525" lon="5.82542">
        <ele>2108.6000976562</ele>
        <time>2023-10-01T08:58:45.000Z</time>
      </trkpt>
      <trkpt lat="45.00525" lon="5.82543">
        <ele>2109</ele>
        <time>2023-10-01T08:58:46.000Z</time>
      </trkpt>
      <trkpt lat="45.00526" lon="5.82544">
        <ele>2109.1999511719</ele>
        <time>2023-10-01T08:58:47.000Z</time>
      </trkpt>
      <trkpt lat="45.00526" lon="5.82545">
        <ele>2109.6000976562</ele>
        <time>2023-10-01T08:58:48.000Z</time>
      </trkpt>
      <trkpt lat="45.00526" lon="5.82546">
        <ele>2109.8000488281</ele>
        <time>2023-10-01T08:58:49.000Z</time>
      </trkpt>
      <trkpt lat="45.00526" lon="5.82547">
        <ele>2110</ele>
        <time>2023-10-01T08:58:50.000Z</time>
      </trkpt>
      <trkpt lat="45.00526" lon="5.82548">
        <ele>2110.3999023438</ele>
        <time>2023-10-01T08:58:51.000Z</time>
      </trkpt>
      <trkpt lat="45.00526" lon="5.82549">
        <ele>2110.6000976562</ele>
        <time>2023-10-01T08:58:52.000Z</time>
      </trkpt>
      <trkpt lat="45.00526" lon="5.8255">
        <ele>2110.8000488281</ele>
        <time>2023-10-01T08:58:53.000Z</time>
      </trkpt>
      <trkpt lat="45.00526" lon="5.82551">
        <ele>2111</ele>
        <time>2023-10-01T08:58:54.000Z</time>
      </trkpt>
      <trkpt lat="45.00526" lon="5.82551">
        <ele>2111.3999023438</ele>
        <time>2023-10-01T08:58:55.000Z</time>
      </trkpt>
      <trkpt lat="45.00526" lon="5.82551">
        <ele>2111.8000488281</ele>
        <time>2023-10-01T08:58:56.000Z</time>
      </trkpt>
      <trkpt lat="45.00525" lon="5.82552">
        <ele>2112.1999511719</ele>
        <time>2023-10-01T08:58:57.000Z</time>
      </trkpt>
      <trkpt lat="45.00525" lon="5.82552">
        <ele>2112.3999023438</ele>
        <time>2023-10-01T08:58:58.000Z</time>
      </trkpt>
      <trkpt lat="45.00526" lon="5.82553">
        <ele>2112.8000488281</ele>
        <time>2023-10-01T08:58:59.000Z</time>
      </trkpt>
      <trkpt lat="45.00526" lon="5.82554">
        <ele>2113</ele>
        <time>2023-10-01T08:59:00.000Z</time>
      </trkpt>
      <trkpt lat="45.00527" lon="5.82555">
        <ele>2113.1999511719</ele>
        <time>2023-10-01T08:59:01.000Z</time>
      </trkpt>
      <trkpt lat="45.00527" lon="5.82556">
        <ele>2113.1999511719</ele>
        <time>2023-10-01T08:59:02.000Z</time>
      </trkpt>
      <trkpt lat="45.00527" lon="5.82558">
        <ele>2113.3999023438</ele>
        <time>2023-10-01T08:59:03.000Z</time>
      </trkpt>
      <trkpt lat="45.00526" lon="5.82558">
        <ele>2113.3999023438</ele>
        <time>2023-10-01T08:59:04.000Z</time>
      </trkpt>
      <trkpt lat="45.00526" lon="5.82559">
        <ele>2113.6000976562</ele>
        <time>2023-10-01T08:59:05.000Z</time>
      </trkpt>
      <trkpt lat="45.00525" lon="5.82559">
        <ele>2114</ele>
        <time>2023-10-01T08:59:06.000Z</time>
      </trkpt>
      <trkpt lat="45.00525" lon="5.8256">
        <ele>2114.1999511719</ele>
        <time>2023-10-01T08:59:07.000Z</time>
      </trkpt>
      <trkpt lat="45.00525" lon="5.82561">
        <ele>2114.6000976562</ele>
        <time>2023-10-01T08:59:08.000Z</time>
      </trkpt>
      <trkpt lat="45.00525" lon="5.82563">
        <ele>2114.8000488281</ele>
        <time>2023-10-01T08:59:09.000Z</time>
      </trkpt>
      <trkpt lat="45.00525" lon="5.82564">
        <ele>2115</ele>
        <time>2023-10-01T08:59:10.000Z</time>
      </trkpt>
      <trkpt lat="45.00525" lon="5.82565">
        <ele>2115.3999023438</ele>
        <time>2023-10-01T08:59:11.000Z</time>
      </trkpt>
      <trkpt lat="45.00525" lon="5.82566">
        <ele>2115.8000488281</ele>
        <time>2023-10-01T08:59:12.000Z</time>
      </trkpt>
      <trkpt lat="45.00526" lon="5.82567">
        <ele>2116.1999511719</ele>
        <time>2023-10-01T08:59:13.000Z</time>
      </trkpt>
      <trkpt lat="45.00526" lon="5.82568">
        <ele>2116.6000976562</ele>
        <time>2023-10-01T08:59:14.000Z</time>
      </trkpt>
      <trkpt lat="45.00526" lon="5.8257">
        <ele>2116.8000488281</ele>
        <time>2023-10-01T08:59:15.000Z</time>
      </trkpt>
      <trkpt lat="45.00526" lon="5.8257">
        <ele>2117.3999023438</ele>
        <time>2023-10-01T08:59:16.000Z</time>
      </trkpt>
      <trkpt lat="45.00526" lon="5.82571">
        <ele>2117.6000976562</ele>
        <time>2023-10-01T08:59:17.000Z</time>
      </trkpt>
      <trkpt lat="45.00527" lon="5.82573">
        <ele>2118</ele>
        <time>2023-10-01T08:59:18.000Z</time>
      </trkpt>
      <trkpt lat="45.00527" lon="5.82574">
        <ele>2118.3999023438</ele>
        <time>2023-10-01T08:59:19.000Z</time>
      </trkpt>
      <trkpt lat="45.00527" lon="5.82576">
        <ele>2118.6000976562</ele>
        <time>2023-10-01T08:59:20.000Z</time>
      </trkpt>
      <trkpt lat="45.00528" lon="5.82577">
        <ele>2118.8000488281</ele>
        <time>2023-10-01T08:59:21.000Z</time>
      </trkpt>
      <trkpt lat="45.00528" lon="5.82578">
        <ele>2119.1999511719</ele>
        <time>2023-10-01T08:59:22.000Z</time>
      </trkpt>
      <trkpt lat="45.00528" lon="5.82579">
        <ele>2119.6000976562</ele>
        <time>2023-10-01T08:59:23.000Z</time>
      </trkpt>
      <trkpt lat="45.00528" lon="5.82581">
        <ele>2119.8000488281</ele>
        <time>2023-10-01T08:59:24.000Z</time>
      </trkpt>
      <trkpt lat="45.00528" lon="5.82582">
        <ele>2120.1999511719</ele>
        <time>2023-10-01T08:59:25.000Z</time>
      </trkpt>
      <trkpt lat="45.00528" lon="5.82583">
        <ele>2120.3999023438</ele>
        <time>2023-10-01T08:59:26.000Z</time>
      </trkpt>
      <trkpt lat="45.00528" lon="5.82584">
        <ele>2120.8000488281</ele>
        <time>2023-10-01T08:59:27.000Z</time>
      </trkpt>
      <trkpt lat="45.00529" lon="5.82585">
        <ele>2121</ele>
        <time>2023-10-01T08:59:28.000Z</time>
      </trkpt>
      <trkpt lat="45.00529" lon="5.82586">
        <ele>2121.3999023438</ele>
        <time>2023-10-01T08:59:29.000Z</time>
      </trkpt>
      <trkpt lat="45.00529" lon="5.82587">
        <ele>2121.8000488281</ele>
        <time>2023-10-01T08:59:30.000Z</time>
      </trkpt>
      <trkpt lat="45.00529" lon="5.82589">
        <ele>2122.1999511719</ele>
        <time>2023-10-01T08:59:31.000Z</time>
      </trkpt>
      <trkpt lat="45.0053" lon="5.8259">
        <ele>2122.3999023438</ele>
        <time>2023-10-01T08:59:32.000Z</time>
      </trkpt>
      <trkpt lat="45.0053" lon="5.82592">
        <ele>2122.8000488281</ele>
        <time>2023-10-01T08:59:33.000Z</time>
      </trkpt>
      <trkpt lat="45.0053" lon="5.82594">
        <ele>2123.1999511719</ele>
        <time>2023-10-01T08:59:34.000Z</time>
      </trkpt>
      <trkpt lat="45.0053" lon="5.82596">
        <ele>2123.3999023438</ele>
        <time>2023-10-01T08:59:35.000Z</time>
      </trkpt>
      <trkpt lat="45.0053" lon="5.82598">
        <ele>2123.8000488281</ele>
        <time>2023-10-01T08:59:36.000Z</time>
      </trkpt>
      <trkpt lat="45.00531" lon="5.826">
        <ele>2124.3999023438</ele>
        <time>2023-10-01T08:59:37.000Z</time>
      </trkpt>
      <trkpt lat="45.00531" lon="5.82601">
        <ele>2124.8000488281</ele>
        <time>2023-10-01T08:59:38.000Z</time>
      </trkpt>
      <trkpt lat="45.0053" lon="5.82602">
        <ele>2125.1999511719</ele>
        <time>2023-10-01T08:59:39.000Z</time>
      </trkpt>
      <trkpt lat="45.0053" lon="5.82603">
        <ele>2125.8000488281</ele>
        <time>2023-10-01T08:59:40.000Z</time>
      </trkpt>
      <trkpt lat="45.0053" lon="5.82604">
        <ele>2126.1999511719</ele>
        <time>2023-10-01T08:59:41.000Z</time>
      </trkpt>
      <trkpt lat="45.0053" lon="5.82605">
        <ele>2126.1999511719</ele>
        <time>2023-10-01T08:59:42.000Z</time>
      </trkpt>
      <trkpt lat="45.0053" lon="5.82607">
        <ele>2126.6000976562</ele>
        <time>2023-10-01T08:59:43.000Z</time>
      </trkpt>
      <trkpt lat="45.00531" lon="5.82609">
        <ele>2126.8000488281</ele>
        <time>2023-10-01T08:59:44.000Z</time>
      </trkpt>
      <trkpt lat="45.00531" lon="5.8261">
        <ele>2127</ele>
        <time>2023-10-01T08:59:45.000Z</time>
      </trkpt>
      <trkpt lat="45.00531" lon="5.82612">
        <ele>2127.1999511719</ele>
        <time>2023-10-01T08:59:46.000Z</time>
      </trkpt>
      <trkpt lat="45.00531" lon="5.82612">
        <ele>2127.3999023438</ele>
        <time>2023-10-01T08:59:47.000Z</time>
      </trkpt>
      <trkpt lat="45.00531" lon="5.82613">
        <ele>2127.6000976562</ele>
        <time>2023-10-01T08:59:48.000Z</time>
      </trkpt>
      <trkpt lat="45.00531" lon="5.82614">
        <ele>2128.1999511719</ele>
        <time>2023-10-01T08:59:49.000Z</time>
      </trkpt>
      <trkpt lat="45.00531" lon="5.82615">
        <ele>2128.3999023438</ele>
        <time>2023-10-01T08:59:50.000Z</time>
      </trkpt>
      <trkpt lat="45.00532" lon="5.82617">
        <ele>2128.8000488281</ele>
        <time>2023-10-01T08:59:51.000Z</time>
      </trkpt>
      <trkpt lat="45.00531" lon="5.82618">
        <ele>2129</ele>
        <time>2023-10-01T08:59:52.000Z</time>
      </trkpt>
      <trkpt lat="45.00531" lon="5.82621">
        <ele>2129.1999511719</ele>
        <time>2023-10-01T08:59:53.000Z</time>
      </trkpt>
      <trkpt lat="45.00531" lon="5.82623">
        <ele>2129.8000488281</ele>
        <time>2023-10-01T08:59:54.000Z</time>
      </trkpt>
      <trkpt lat="45.00531" lon="5.82625">
        <ele>2130.1999511719</ele>
        <time>2023-10-01T08:59:55.000Z</time>
      </trkpt>
      <trkpt lat="45.00531" lon="5.82628">
        <ele>2130.8000488281</ele>
        <time>2023-10-01T08:59:56.000Z</time>
      </trkpt>
      <trkpt lat="45.00531" lon="5.82629">
        <ele>2131.1999511719</ele>
        <time>2023-10-01T08:59:57.000Z</time>
      </trkpt>
      <trkpt lat="45.00531" lon="5.82631">
        <ele>2131.3999023438</ele>
        <time>2023-10-01T08:59:58.000Z</time>
      </trkpt>
      <trkpt lat="45.00523" lon="5.82616">
        <ele>2127</ele>
        <time>2023-10-01T09:45:26.000Z</time>
      </trkpt>
      <trkpt lat="45.00525" lon="5.82613">
        <ele>2127</ele>
        <time>2023-10-01T09:45:27.000Z</time>
      </trkpt>
      <trkpt lat="45.00524" lon="5.8262">
        <ele>2127</ele>
        <time>2023-10-01T09:45:28.000Z</time>
      </trkpt>
      <trkpt lat="45.00523" lon="5.82612">
        <ele>2127</ele>
        <time>2023-10-01T09:45:29.000Z</time>
      </trkpt>
      <trkpt lat="45.00526" lon="5.8261">
        <ele>2127</ele>
        <time>2023-10-01T09:45:30.000Z</time>
      </trkpt>
      <trkpt lat="45.00525" lon="5.8261">
        <ele>2127</ele>
        <time>2023-10-01T09:45:31.000Z</time>
      </trkpt>
      <trkpt lat="45.00526" lon="5.8261">
        <ele>2126.8000488281</ele>
        <time>2023-10-01T09:45:32.000Z</time>
      </trkpt>
      <trkpt lat="45.00528" lon="5.8261">
        <ele>2126.8000488281</ele>
        <time>2023-10-01T09:45:33.000Z</time>
      </trkpt>
      <trkpt lat="45.00529" lon="5.82609">
        <ele>2126.8000488281</ele>
        <time>2023-10-01T09:45:34.000Z</time>
      </trkpt>
      <trkpt lat="45.00529" lon="5.82608">
        <ele>2126.8000488281</ele>
        <time>2023-10-01T09:45:35.000Z</time>
      </trkpt>
      <trkpt lat="45.0053" lon="5.82608">
        <ele>2126.8000488281</ele>
        <time>2023-10-01T09:45:36.000Z</time>
      </trkpt>
      <trkpt lat="45.00531" lon="5.82606">
        <ele>2126.6000976562</ele>
        <time>2023-10-01T09:45:37.000Z</time>
      </trkpt>
      <trkpt lat="45.00532" lon="5.82605">
        <ele>2126.3999023438</ele>
        <time>2023-10-01T09:45:38.000Z</time>
      </trkpt>
      <trkpt lat="45.00533" lon="5.82604">
        <ele>2126.1999511719</ele>
        <time>2023-10-01T09:45:39.000Z</time>
      </trkpt>
      <trkpt lat="45.00533" lon="5.82604">
        <ele>2126.1999511719</ele>
        <time>2023-10-01T09:45:40.000Z</time>
      </trkpt>
      <trkpt lat="45.00534" lon="5.82603">
        <ele>2126</ele>
        <time>2023-10-01T09:45:41.000Z</time>
      </trkpt>
      <trkpt lat="45.00535" lon="5.82602">
        <ele>2125.8000488281</ele>
        <time>2023-10-01T09:45:42.000Z</time>
      </trkpt>
      <trkpt lat="45.00535" lon="5.82602">
        <ele>2125.6000976562</ele>
        <time>2023-10-01T09:45:43.000Z</time>
      </trkpt>
      <trkpt lat="45.00536" lon="5.82601">
        <ele>2125.1999511719</ele>
        <time>2023-10-01T09:45:44.000Z</time>
      </trkpt>
      <trkpt lat="45.00537" lon="5.82601">
        <ele>2125.1999511719</ele>
        <time>2023-10-01T09:45:45.000Z</time>
      </trkpt>
      <trkpt lat="45.00537" lon="5.82601">
        <ele>2125</ele>
        <time>2023-10-01T09:45:46.000Z</time>
      </trkpt>
      <trkpt lat="45.00537" lon="5.82601">
        <ele>2124.8000488281</ele>
        <time>2023-10-01T09:45:47.000Z</time>
      </trkpt>
      <trkpt lat="45.00537" lon="5.826">
        <ele>2124.8000488281</ele>
        <time>2023-10-01T09:45:48.000Z</time>
      </trkpt>
      <trkpt lat="45.00537" lon="5.826">
        <ele>2124.8000488281</ele>
        <time>2023-10-01T09:45:49.000Z</time>
      </trkpt>
      <trkpt lat="45.00536" lon="5.826">
        <ele>2124.8000488281</ele>
        <time>2023-10-01T09:45:50.000Z</time>
      </trkpt>
      <trkpt lat="45.00537" lon="5.82599">
        <ele>2124.8000488281</ele>
        <time>2023-10-01T09:45:51.000Z</time>
      </trkpt>
      <trkpt lat="45.00537" lon="5.82599">
        <ele>2124.8000488281</ele>
        <time>2023-10-01T09:45:52.000Z</time>
      </trkpt>
      <trkpt lat="45.00537" lon="5.82599">
        <ele>2124.6000976562</ele>
        <time>2023-10-01T09:45:53.000Z</time>
      </trkpt>
      <trkpt lat="45.00537" lon="5.82598">
        <ele>2124.6000976562</ele>
        <time>2023-10-01T09:45:54.000Z</time>
      </trkpt>
      <trkpt lat="45.00537" lon="5.82597">
        <ele>2124.6000976562</ele>
        <time>2023-10-01T09:45:55.000Z</time>
      </trkpt>
      <trkpt lat="45.00537" lon="5.82597">
        <ele>2124.6000976562</ele>
        <time>2023-10-01T09:45:56.000Z</time>
      </trkpt>
      <trkpt lat="45.00538" lon="5.82596">
        <ele>2124.6000976562</ele>
        <time>2023-10-01T09:45:57.000Z</time>
      </trkpt>
      <trkpt lat="45.00539" lon="5.82595">
        <ele>2124.6000976562</ele>
        <time>2023-10-01T09:45:58.000Z</time>
      </trkpt>
      <trkpt lat="45.0054" lon="5.82594">
        <ele>2124.3999023438</ele>
        <time>2023-10-01T09:45:59.000Z</time>
      </trkpt>
      <trkpt lat="45.00541" lon="5.82593">
        <ele>2124.1999511719</ele>
        <time>2023-10-01T09:46:00.000Z</time>
      </trkpt>
      <trkpt lat="45.00541" lon="5.82592">
        <ele>2124.1999511719</ele>
        <time>2023-10-01T09:46:01.000Z</time>
      </trkpt>
      <trkpt lat="45.00542" lon="5.82591">
        <ele>2124</ele>
        <time>2023-10-01T09:46:02.000Z</time>
      </trkpt>
      <trkpt lat="45.00544" lon="5.8259">
        <ele>2123.6000976562</ele>
        <time>2023-10-01T09:46:03.000Z</time>
      </trkpt>
      <trkpt lat="45.00544" lon="5.8259">
        <ele>2123.3999023438</ele>
        <time>2023-10-01T09:46:04.000Z</time>
      </trkpt>
      <trkpt lat="45.00545" lon="5.82589">
        <ele>2123.3999023438</ele>
        <time>2023-10-01T09:46:05.000Z</time>
      </trkpt>
      <trkpt lat="45.00546" lon="5.82588">
        <ele>2123.1999511719</ele>
        <time>2023-10-01T09:46:06.000Z</time>
      </trkpt>
      <trkpt lat="45.00546" lon="5.82587">
        <ele>2123.1999511719</ele>
        <time>2023-10-01T09:46:07.000Z</time>
      </trkpt>
      <trkpt lat="45.00548" lon="5.82586">
        <ele>2123</ele>
        <time>2023-10-01T09:46:08.000Z</time>
      </trkpt>
      <trkpt lat="45.00548" lon="5.82585">
        <ele>2122.8000488281</ele>
        <time>2023-10-01T09:46:09.000Z</time>
      </trkpt>
      <trkpt lat="45.00549" lon="5.82585">
        <ele>2122.6000976562</ele>
        <time>2023-10-01T09:46:10.000Z</time>
      </trkpt>
      <trkpt lat="45.00549" lon="5.82584">
        <ele>2122.6000976562</ele>
        <time>2023-10-01T09:46:11.000Z</time>
      </trkpt>
      <trkpt lat="45.0055" lon="5.82583">
        <ele>2122.3999023438</ele>
        <time>2023-10-01T09:46:12.000Z</time>
      </trkpt>
      <trkpt lat="45.00551" lon="5.82583">
        <ele>2122.1999511719</ele>
        <time>2023-10-01T09:46:13.000Z</time>
      </trkpt>
      <trkpt lat="45.00552" lon="5.82582">
        <ele>2122</ele>
        <time>2023-10-01T09:46:14.000Z</time>
      </trkpt>
      <trkpt lat="45.00552" lon="5.82581">
        <ele>2121.8000488281</ele>
        <time>2023-10-01T09:46:15.000Z</time>
      </trkpt>
      <trkpt lat="45.00553" lon="5.8258">
        <ele>2121.6000976562</ele>
        <time>2023-10-01T09:46:16.000Z</time>
      </trkpt>
      <trkpt lat="45.00553" lon="5.8258">
        <ele>2121.6000976562</ele>
        <time>2023-10-01T09:46:17.000Z</time>
      </trkpt>
      <trkpt lat="45.00554" lon="5.82579">
        <ele>2121.1999511719</ele>
        <time>2023-10-01T09:46:18.000Z</time>
      </trkpt>
      <trkpt lat="45.00555" lon="5.82579">
        <ele>2121</ele>
        <time>2023-10-01T09:46:19.000Z</time>
      </trkpt>
      <trkpt lat="45.00555" lon="5.82578">
        <ele>2120.8000488281</ele>
        <time>2023-10-01T09:46:20.000Z</time>
      </trkpt>
      <trkpt lat="45.00557" lon="5.82578">
        <ele>2120.6000976562</ele>
        <time>2023-10-01T09:46:21.000Z</time>
      </trkpt>
      <trkpt lat="45.00558" lon="5.82577">
        <ele>2120.3999023438</ele>
        <time>2023-10-01T09:46:22.000Z</time>
      </trkpt>
      <trkpt lat="45.00559" lon="5.82576">
        <ele>2120.1999511719</ele>
        <time>2023-10-01T09:46:23.000Z</time>
      </trkpt>
      <trkpt lat="45.0056" lon="5.82575">
        <ele>2119.8000488281</ele>
        <time>2023-10-01T09:46:24.000Z</time>
      </trkpt>
      <trkpt lat="45.0056" lon="5.82574">
        <ele>2119.3999023438</ele>
        <time>2023-10-01T09:46:25.000Z</time>
      </trkpt>
      <trkpt lat="45.0056" lon="5.82573">
        <ele>2119.3999023438</ele>
        <time>2023-10-01T09:46:26.000Z</time>
      </trkpt>
      <trkpt lat="45.00561" lon="5.82571">
        <ele>2119</ele>
        <time>2023-10-01T09:46:27.000Z</time>
      </trkpt>
      <trkpt lat="45.0056" lon="5.82569">
        <ele>2118.3999023438</ele>
        <time>2023-10-01T09:46:28.000Z</time>
      </trkpt>
      <trkpt lat="45.0056" lon="5.82568">
        <ele>2118.1999511719</ele>
        <time>2023-10-01T09:46:29.000Z</time>
      </trkpt>
      <trkpt lat="45.00559" lon="5.82567">
        <ele>2118</ele>
        <time>2023-10-01T09:46:30.000Z</time>
      </trkpt>
      <trkpt lat="45.00558" lon="5.82566">
        <ele>2117.6000976562</ele>
        <time>2023-10-01T09:46:31.000Z</time>
      </trkpt>
      <trkpt lat="45.00557" lon="5.82565">
        <ele>2117.6000976562</ele>
        <time>2023-10-01T09:46:32.000Z</time>
      </trkpt>
      <trkpt lat="45.00555" lon="5.82564">
        <ele>2117.3999023438</ele>
        <time>2023-10-01T09:46:33.000Z</time>
      </trkpt>
      <trkpt lat="45.00554" lon="5.82564">
        <ele>2117.3999023438</ele>
        <time>2023-10-01T09:46:34.000Z</time>
      </trkpt>
      <trkpt lat="45.00553" lon="5.82563">
        <ele>2117.6000976562</ele>
        <time>2023-10-01T09:46:35.000Z</time>
      </trkpt>
      <trkpt lat="45.00552" lon="5.82563">
        <ele>2117.6000976562</ele>
        <time>2023-10-01T09:46:36.000Z</time>
      </trkpt>
      <trkpt lat="45.00551" lon="5.82562">
        <ele>2117.6000976562</ele>
        <time>2023-10-01T09:46:37.000Z</time>
      </trkpt>
      <trkpt lat="45.00551" lon="5.82562">
        <ele>2117.6000976562</ele>
        <time>2023-10-01T09:46:38.000Z</time>
      </trkpt>
      <trkpt lat="45.0055" lon="5.82562">
        <ele>2117.6000976562</ele>
        <time>2023-10-01T09:46:39.000Z</time>
      </trkpt>
      <trkpt lat="45.00548" lon="5.82562">
        <ele>2117.6000976562</ele>
        <time>2023-10-01T09:46:40.000Z</time>
      </trkpt>
      <trkpt lat="45.00548" lon="5.82561">
        <ele>2117.1999511719</ele>
        <time>2023-10-01T09:46:41.000Z</time>
      </trkpt>
      <trkpt lat="45.00547" lon="5.82561">
        <ele>2117</ele>
        <time>2023-10-01T09:46:42.000Z</time>
      </trkpt>
      <trkpt lat="45.00546" lon="5.82561">
        <ele>2117</ele>
        <time>2023-10-01T09:46:43.000Z</time>
      </trkpt>
      <trkpt lat="45.00544" lon="5.8256">
        <ele>2116.8000488281</ele>
        <time>2023-10-01T09:46:44.000Z</time>
      </trkpt>
      <trkpt lat="45.00543" lon="5.8256">
        <ele>2116.8000488281</ele>
        <time>2023-10-01T09:46:45.000Z</time>
      </trkpt>
      <trkpt lat="45.00542" lon="5.82559">
        <ele>2116.8000488281</ele>
        <time>2023-10-01T09:46:46.000Z</time>
      </trkpt>
      <trkpt lat="45.00541" lon="5.82559">
        <ele>2116.8000488281</ele>
        <time>2023-10-01T09:46:47.000Z</time>
      </trkpt>
      <trkpt lat="45.00539" lon="5.82559">
        <ele>2116.6000976562</ele>
        <time>2023-10-01T09:46:48.000Z</time>
      </trkpt>
      <trkpt lat="45.00538" lon="5.82558">
        <ele>2116.3999023438</ele>
        <time>2023-10-01T09:46:49.000Z</time>
      </trkpt>
      <trkpt lat="45.00537" lon="5.82558">
        <ele>2116.1999511719</ele>
        <time>2023-10-01T09:46:50.000Z</time>
      </trkpt>
      <trkpt lat="45.00536" lon="5.82558">
        <ele>2116</ele>
        <time>2023-10-01T09:46:51.000Z</time>
      </trkpt>
      <trkpt lat="45.00535" lon="5.82558">
        <ele>2115.3999023438</ele>
        <time>2023-10-01T09:46:52.000Z</time>
      </trkpt>
      <trkpt lat="45.00534" lon="5.82557">
        <ele>2115</ele>
        <time>2023-10-01T09:46:53.000Z</time>
      </trkpt>
      <trkpt lat="45.00533" lon="5.82557">
        <ele>2114.8000488281</ele>
        <time>2023-10-01T09:46:54.000Z</time>
      </trkpt>
      <trkpt lat="45.00532" lon="5.82557">
        <ele>2114.6000976562</ele>
        <time>2023-10-01T09:46:55.000Z</time>
      </trkpt>
      <trkpt lat="45.00531" lon="5.82556">
        <ele>2114.6000976562</ele>
        <time>2023-10-01T09:46:56.000Z</time>
      </trkpt>
      <trkpt lat="45.0053" lon="5.82556">
        <ele>2114.3999023438</ele>
        <time>2023-10-01T09:46:57.000Z</time>
      </trkpt>
      <trkpt lat="45.00529" lon="5.82556">
        <ele>2114.3999023438</ele>
        <time>2023-10-01T09:46:58.000Z</time>
      </trkpt>
      <trkpt lat="45.00529" lon="5.82556">
        <ele>2114.1999511719</ele>
        <time>2023-10-01T09:46:59.000Z</time>
      </trkpt>
      <trkpt lat="45.00529" lon="5.82555">
        <ele>2114.1999511719</ele>
        <time>2023-10-01T09:47:00.000Z</time>
      </trkpt>
      <trkpt lat="45.00529" lon="5.82555">
        <ele>2114</ele>
        <time>2023-10-01T09:47:01.000Z</time>
      </trkpt>
      <trkpt lat="45.00527" lon="5.82555">
        <ele>2114</ele>
        <time>2023-10-01T09:47:02.000Z</time>
      </trkpt>
      <trkpt lat="45.00526" lon="5.82554">
        <ele>2113.8000488281</ele>
        <time>2023-10-01T09:47:03.000Z</time>
      </trkpt>
      <trkpt lat="45.00525" lon="5.82554">
        <ele>2113.8000488281</ele>
        <time>2023-10-01T09:47:04.000Z</time>
      </trkpt>
      <trkpt lat="45.00524" lon="5.82553">
        <ele>2113.8000488281</ele>
        <time>2023-10-01T09:47:05.000Z</time>
      </trkpt>
      <trkpt lat="45.00523" lon="5.82553">
        <ele>2113.8000488281</ele>
        <time>2023-10-01T09:47:06.000Z</time>
      </trkpt>
      <trkpt lat="45.00522" lon="5.82553">
        <ele>2113.6000976562</ele>
        <time>2023-10-01T09:47:07.000Z</time>
      </trkpt>
      <trkpt lat="45.00521" lon="5.82553">
        <ele>2113.3999023438</ele>
        <time>2023-10-01T09:47:08.000Z</time>
      </trkpt>
      <trkpt lat="45.0052" lon="5.82552">
        <ele>2113.1999511719</ele>
        <time>2023-10-01T09:47:09.000Z</time>
      </trkpt>
      <trkpt lat="45.00519" lon="5.82552">
        <ele>2113</ele>
        <time>2023-10-01T09:47:10.000Z</time>
      </trkpt>
      <trkpt lat="45.00518" lon="5.82552">
        <ele>2113</ele>
        <time>2023-10-01T09:47:11.000Z</time>
      </trkpt>
      <trkpt lat="45.00518" lon="5.82552">
        <ele>2112.8000488281</ele>
        <time>2023-10-01T09:47:12.000Z</time>
      </trkpt>
      <trkpt lat="45.00517" lon="5.82552">
        <ele>2112.8000488281</ele>
        <time>2023-10-01T09:47:13.000Z</time>
      </trkpt>
      <trkpt lat="45.00516" lon="5.82552">
        <ele>2112.8000488281</ele>
        <time>2023-10-01T09:47:14.000Z</time>
      </trkpt>
      <trkpt lat="45.00515" lon="5.82551">
        <ele>2112.3999023438</ele>
        <time>2023-10-01T09:47:15.000Z</time>
      </trkpt>
      <trkpt lat="45.00513" lon="5.82551">
        <ele>2112.1999511719</ele>
        <time>2023-10-01T09:47:16.000Z</time>
      </trkpt>
      <trkpt lat="45.00513" lon="5.8255">
        <ele>2112.1999511719</ele>
        <time>2023-10-01T09:47:17.000Z</time>
      </trkpt>
      <trkpt lat="45.00512" lon="5.8255">
        <ele>2112.1999511719</ele>
        <time>2023-10-01T09:47:18.000Z</time>
      </trkpt>
      <trkpt lat="45.00511" lon="5.8255">
        <ele>2111.8000488281</ele>
        <time>2023-10-01T09:47:19.000Z</time>
      </trkpt>
      <trkpt lat="45.0051" lon="5.8255">
        <ele>2111.6000976562</ele>
        <time>2023-10-01T09:47:20.000Z</time>
      </trkpt>
      <trkpt lat="45.00509" lon="5.82549">
        <ele>2111.6000976562</ele>
        <time>2023-10-01T09:47:21.000Z</time>
      </trkpt>
      <trkpt lat="45.00508" lon="5.82549">
        <ele>2111.6000976562</ele>
        <time>2023-10-01T09:47:22.000Z</time>
      </trkpt>
      <trkpt lat="45.00507" lon="5.82549">
        <ele>2111.3999023438</ele>
        <time>2023-10-01T09:47:23.000Z</time>
      </trkpt>
      <trkpt lat="45.00506" lon="5.82548">
        <ele>2111.1999511719</ele>
        <time>2023-10-01T09:47:24.000Z</time>
      </trkpt>
      <trkpt lat="45.00505" lon="5.82547">
        <ele>2111</ele>
        <time>2023-10-01T09:47:25.000Z</time>
      </trkpt>
      <trkpt lat="45.00504" lon="5.82547">
        <ele>2110.8000488281</ele>
        <time>2023-10-01T09:47:26.000Z</time>
      </trkpt>
      <trkpt lat="45.00503" lon="5.82547">
        <ele>2110.6000976562</ele>
        <time>2023-10-01T09:47:27.000Z</time>
      </trkpt>
      <trkpt lat="45.00503" lon="5.82547">
        <ele>2110.6000976562</ele>
        <time>2023-10-01T09:47:28.000Z</time>
      </trkpt>
      <trkpt lat="45.00502" lon="5.82546">
        <ele>2110.6000976562</ele>
        <time>2023-10-01T09:47:29.000Z</time>
      </trkpt>
      <trkpt lat="45.00501" lon="5.82546">
        <ele>2110.3999023438</ele>
        <time>2023-10-01T09:47:30.000Z</time>
      </trkpt>
      <trkpt lat="45.005" lon="5.82547">
        <ele>2110.1999511719</ele>
        <time>2023-10-01T09:47:31.000Z</time>
      </trkpt>
      <trkpt lat="45.005" lon="5.82547">
        <ele>2110</ele>
        <time>2023-10-01T09:47:32.000Z</time>
      </trkpt>
      <trkpt lat="45.00499" lon="5.82546">
        <ele>2110</ele>
        <time>2023-10-01T09:47:33.000Z</time>
      </trkpt>
      <trkpt lat="45.00499" lon="5.82546">
        <ele>2109.8000488281</ele>
        <time>2023-10-01T09:47:34.000Z</time>
      </trkpt>
      <trkpt lat="45.00498" lon="5.82545">
        <ele>2109.3999023438</ele>
        <time>2023-10-01T09:47:35.000Z</time>
      </trkpt>
      <trkpt lat="45.00498" lon="5.82544">
        <ele>2109</ele>
        <time>2023-10-01T09:47:36.000Z</time>
      </trkpt>
      <trkpt lat="45.00498" lon="5.82543">
        <ele>2109</ele>
        <time>2023-10-01T09:47:37.000Z</time>
      </trkpt>
      <trkpt lat="45.00498" lon="5.82542">
        <ele>2108.8000488281</ele>
        <time>2023-10-01T09:47:38.000Z</time>
      </trkpt>
      <trkpt lat="45.00498" lon="5.82541">
        <ele>2108.6000976562</ele>
        <time>2023-10-01T09:47:39.000Z</time>
      </trkpt>
      <trkpt lat="45.00498" lon="5.8254">
        <ele>2108.6000976562</ele>
        <time>2023-10-01T09:47:40.000Z</time>
      </trkpt>
      <trkpt lat="45.00499" lon="5.8254">
        <ele>2108.3999023438</ele>
        <time>2023-10-01T09:47:41.000Z</time>
      </trkpt>
      <trkpt lat="45.00499" lon="5.82539">
        <ele>2108.3999023438</ele>
        <time>2023-10-01T09:47:42.000Z</time>
      </trkpt>
      <trkpt lat="45.005" lon="5.82538">
        <ele>2108.1999511719</ele>
        <time>2023-10-01T09:47:43.000Z</time>
      </trkpt>
      <trkpt lat="45.00501" lon="5.82538">
        <ele>2108</ele>
        <time>2023-10-01T09:47:44.000Z</time>
      </trkpt>
      <trkpt lat="45.00502" lon="5.82537">
        <ele>2107.8000488281</ele>
        <time>2023-10-01T09:47:45.000Z</time>
      </trkpt>
      <trkpt lat="45.00503" lon="5.82536">
        <ele>2107.8000488281</ele>
        <time>2023-10-01T09:47:46.000Z</time>
      </trkpt>
      <trkpt lat="45.00504" lon="5.82536">
        <ele>2107.8000488281</ele>
        <time>2023-10-01T09:47:47.000Z</time>
      </trkpt>
      <trkpt lat="45.00505" lon="5.82535">
        <ele>2107.6000976562</ele>
        <time>2023-10-01T09:47:48.000Z</time>
      </trkpt>
      <trkpt lat="45.00506" lon="5.82534">
        <ele>2107.3999023438</ele>
        <time>2023-10-01T09:47:49.000Z</time>
      </trkpt>
      <trkpt lat="45.00507" lon="5.82534">
        <ele>2107.1999511719</ele>
        <time>2023-10-01T09:47:50.000Z</time>
      </trkpt>
      <trkpt lat="45.00508" lon="5.82534">
        <ele>2107</ele>
        <time>2023-10-01T09:47:51.000Z</time>
      </trkpt>
      <trkpt lat="45.00509" lon="5.82533">
        <ele>2107</ele>
        <time>2023-10-01T09:47:52.000Z</time>
      </trkpt>
      <trkpt lat="45.0051" lon="5.82533">
        <ele>2107</ele>
        <time>2023-10-01T09:47:53.000Z</time>
      </trkpt>
      <trkpt lat="45.00511" lon="5.82533">
        <ele>2107</ele>
        <time>2023-10-01T09:47:54.000Z</time>
      </trkpt>
      <trkpt lat="45.00511" lon="5.82532">
        <ele>2107</ele>
        <time>2023-10-01T09:47:55.000Z</time>
      </trkpt>
      <trkpt lat="45.00512" lon="5.82532">
        <ele>2106.8000488281</ele>
        <time>2023-10-01T09:47:56.000Z</time>
      </trkpt>
      <trkpt lat="45.00513" lon="5.82532">
        <ele>2106.8000488281</ele>
        <time>2023-10-01T09:47:57.000Z</time>
      </trkpt>
      <trkpt lat="45.00513" lon="5.82532">
        <ele>2106.6000976562</ele>
        <time>2023-10-01T09:47:58.000Z</time>
      </trkpt>
      <trkpt lat="45.00514" lon="5.82531">
        <ele>2106.6000976562</ele>
        <time>2023-10-01T09:47:59.000Z</time>
      </trkpt>
      <trkpt lat="45.00514" lon="5.82531">
        <ele>2106.6000976562</ele>
        <time>2023-10-01T09:48:00.000Z</time>
      </trkpt>
      <trkpt lat="45.00515" lon="5.8253">
        <ele>2106.6000976562</ele>
        <time>2023-10-01T09:48:01.000Z</time>
      </trkpt>
      <trkpt lat="45.00515" lon="5.8253">
        <ele>2106.6000976562</ele>
        <time>2023-10-01T09:48:02.000Z</time>
      </trkpt>
      <trkpt lat="45.00516" lon="5.8253">
        <ele>2106.6000976562</ele>
        <time>2023-10-01T09:48:03.000Z</time>
      </trkpt>
      <trkpt lat="45.00517" lon="5.82529">
        <ele>2106.3999023438</ele>
        <time>2023-10-01T09:48:04.000Z</time>
      </trkpt>
      <trkpt lat="45.00517" lon="5.82529">
        <ele>2106.3999023438</ele>
        <time>2023-10-01T09:48:05.000Z</time>
      </trkpt>
      <trkpt lat="45.00518" lon="5.82529">
        <ele>2106.3999023438</ele>
        <time>2023-10-01T09:48:06.000Z</time>
      </trkpt>
      <trkpt lat="45.00519" lon="5.82529">
        <ele>2106.1999511719</ele>
        <time>2023-10-01T09:48:07.000Z</time>
      </trkpt>
      <trkpt lat="45.0052" lon="5.82528">
        <ele>2106.1999511719</ele>
        <time>2023-10-01T09:48:08.000Z</time>
      </trkpt>
      <trkpt lat="45.00521" lon="5.82527">
        <ele>2106</ele>
        <time>2023-10-01T09:48:09.000Z</time>
      </trkpt>
      <trkpt lat="45.00521" lon="5.82527">
        <ele>2106</ele>
        <time>2023-10-01T09:48:10.000Z</time>
      </trkpt>
      <trkpt lat="45.00522" lon="5.82527">
        <ele>2105.8000488281</ele>
        <time>2023-10-01T09:48:11.000Z</time>
      </trkpt>
      <trkpt lat="45.00523" lon="5.82526">
        <ele>2105.6000976562</ele>
        <time>2023-10-01T09:48:12.000Z</time>
      </trkpt>
      <trkpt lat="45.00523" lon="5.82526">
        <ele>2105.6000976562</ele>
        <time>2023-10-01T09:48:13.000Z</time>
      </trkpt>
      <trkpt lat="45.00523" lon="5.82526">
        <ele>2105.3999023438</ele>
        <time>2023-10-01T09:48:14.000Z</time>
      </trkpt>
      <trkpt lat="45.00524" lon="5.82525">
        <ele>2105.3999023438</ele>
        <time>2023-10-01T09:48:15.000Z</time>
      </trkpt>
      <trkpt lat="45.00524" lon="5.82525">
        <ele>2105.1999511719</ele>
        <time>2023-10-01T09:48:16.000Z</time>
      </trkpt>
      <trkpt lat="45.00525" lon="5.82525">
        <ele>2105.1999511719</ele>
        <time>2023-10-01T09:48:17.000Z</time>
      </trkpt>
      <trkpt lat="45.00526" lon="5.82525">
        <ele>2105.1999511719</ele>
        <time>2023-10-01T09:48:18.000Z</time>
      </trkpt>
      <trkpt lat="45.00526" lon="5.82524">
        <ele>2105.1999511719</ele>
        <time>2023-10-01T09:48:19.000Z</time>
      </trkpt>
      <trkpt lat="45.00527" lon="5.82524">
        <ele>2105.1999511719</ele>
        <time>2023-10-01T09:48:20.000Z</time>
      </trkpt>
      <trkpt lat="45.00527" lon="5.82524">
        <ele>2105</ele>
        <time>2023-10-01T09:48:21.000Z</time>
      </trkpt>
      <trkpt lat="45.00528" lon="5.82523">
        <ele>2105</ele>
        <time>2023-10-01T09:48:22.000Z</time>
      </trkpt>
      <trkpt lat="45.00528" lon="5.82523">
        <ele>2104.8000488281</ele>
        <time>2023-10-01T09:48:23.000Z</time>
      </trkpt>
      <trkpt lat="45.00529" lon="5.82523">
        <ele>2104.6000976562</ele>
        <time>2023-10-01T09:48:24.000Z</time>
      </trkpt>
      <trkpt lat="45.00529" lon="5.82523">
        <ele>2104.3999023438</ele>
        <time>2023-10-01T09:48:25.000Z</time>
      </trkpt>
      <trkpt lat="45.0053" lon="5.82523">
        <ele>2104.3999023438</ele>
        <time>2023-10-01T09:48:26.000Z</time>
      </trkpt>
      <trkpt lat="45.00531" lon="5.82522">
        <ele>2104.3999023438</ele>
        <time>2023-10-01T09:48:27.000Z</time>
      </trkpt>
      <trkpt lat="45.00532" lon="5.82522">
        <ele>2104.3999023438</ele>
        <time>2023-10-01T09:48:28.000Z</time>
      </trkpt>
      <trkpt lat="45.00533" lon="5.82522">
        <ele>2104.1999511719</ele>
        <time>2023-10-01T09:48:29.000Z</time>
      </trkpt>
      <trkpt lat="45.00534" lon="5.82521">
        <ele>2104.1999511719</ele>
        <time>2023-10-01T09:48:30.000Z</time>
      </trkpt>
      <trkpt lat="45.00534" lon="5.8252">
        <ele>2104</ele>
        <time>2023-10-01T09:48:31.000Z</time>
      </trkpt>
      <trkpt lat="45.00536" lon="5.8252">
        <ele>2103.8000488281</ele>
        <time>2023-10-01T09:48:32.000Z</time>
      </trkpt>
      <trkpt lat="45.00537" lon="5.82519">
        <ele>2103.8000488281</ele>
        <time>2023-10-01T09:48:33.000Z</time>
      </trkpt>
      <trkpt lat="45.00538" lon="5.82518">
        <ele>2103.6000976562</ele>
        <time>2023-10-01T09:48:34.000Z</time>
      </trkpt>
      <trkpt lat="45.00539" lon="5.82518">
        <ele>2103.3999023438</ele>
        <time>2023-10-01T09:48:35.000Z</time>
      </trkpt>
      <trkpt lat="45.00539" lon="5.82518">
        <ele>2103.3999023438</ele>
        <time>2023-10-01T09:48:36.000Z</time>
      </trkpt>
      <trkpt lat="45.0054" lon="5.82517">
        <ele>2103.1999511719</ele>
        <time>2023-10-01T09:48:37.000Z</time>
      </trkpt>
      <trkpt lat="45.00541" lon="5.82517">
        <ele>2103</ele>
        <time>2023-10-01T09:48:38.000Z</time>
      </trkpt>
      <trkpt lat="45.00542" lon="5.82516">
        <ele>2102.8000488281</ele>
        <time>2023-10-01T09:48:39.000Z</time>
      </trkpt>
      <trkpt lat="45.00544" lon="5.82516">
        <ele>2102.6000976562</ele>
        <time>2023-10-01T09:48:40.000Z</time>
      </trkpt>
      <trkpt lat="45.00545" lon="5.82516">
        <ele>2102.3999023438</ele>
        <time>2023-10-01T09:48:41.000Z</time>
      </trkpt>
      <trkpt lat="45.00546" lon="5.82515">
        <ele>2102.1999511719</ele>
        <time>2023-10-01T09:48:42.000Z</time>
      </trkpt>
      <trkpt lat="45.00546" lon="5.82515">
        <ele>2102.1999511719</ele>
        <time>2023-10-01T09:48:43.000Z</time>
      </trkpt>
      <trkpt lat="45.00548" lon="5.82515">
        <ele>2102</ele>
        <time>2023-10-01T09:48:44.000Z</time>
      </trkpt>
      <trkpt lat="45.00548" lon="5.82514">
        <ele>2102</ele>
        <time>2023-10-01T09:48:45.000Z</time>
      </trkpt>
      <trkpt lat="45.00549" lon="5.82513">
        <ele>2101.8000488281</ele>
        <time>2023-10-01T09:48:46.000Z</time>
      </trkpt>
      <trkpt lat="45.0055" lon="5.82513">
        <ele>2101.6000976562</ele>
        <time>2023-10-01T09:48:47.000Z</time>
      </trkpt>
      <trkpt lat="45.00551" lon="5.82512">
        <ele>2101.3999023438</ele>
        <time>2023-10-01T09:48:48.000Z</time>
      </trkpt>
      <trkpt lat="45.00551" lon="5.82511">
        <ele>2101.1999511719</ele>
        <time>2023-10-01T09:48:49.000Z</time>
      </trkpt>
      <trkpt lat="45.00552" lon="5.8251">
        <ele>2100.8000488281</ele>
        <time>2023-10-01T09:48:50.000Z</time>
      </trkpt>
      <trkpt lat="45.00553" lon="5.82509">
        <ele>2100.6000976562</ele>
        <time>2023-10-01T09:48:51.000Z</time>
      </trkpt>
      <trkpt lat="45.00554" lon="5.82508">
        <ele>2100.3999023438</ele>
        <time>2023-10-01T09:48:52.000Z</time>
      </trkpt>
      <trkpt lat="45.00555" lon="5.82508">
        <ele>2100.3999023438</ele>
        <time>2023-10-01T09:48:53.000Z</time>
      </trkpt>
      <trkpt lat="45.00555" lon="5.82508">
        <ele>2100.1999511719</ele>
        <time>2023-10-01T09:48:54.000Z</time>
      </trkpt>
      <trkpt lat="45.00556" lon="5.82507">
        <ele>2100</ele>
        <time>2023-10-01T09:48:55.000Z</time>
      </trkpt>
      <trkpt lat="45.00557" lon="5.82506">
        <ele>2099.8000488281</ele>
        <time>2023-10-01T09:48:56.000Z</time>
      </trkpt>
      <trkpt lat="45.00559" lon="5.82506">
        <ele>2099.6000976562</ele>
        <time>2023-10-01T09:48:57.000Z</time>
      </trkpt>
      <trkpt lat="45.0056" lon="5.82505">
        <ele>2099.3999023438</ele>
        <time>2023-10-01T09:48:58.000Z</time>
      </trkpt>
      <trkpt lat="45.00561" lon="5.82505">
        <ele>2099.1999511719</ele>
        <time>2023-10-01T09:48:59.000Z</time>
      </trkpt>
      <trkpt lat="45.00562" lon="5.82504">
        <ele>2099.1999511719</ele>
        <time>2023-10-01T09:49:00.000Z</time>
      </trkpt>
      <trkpt lat="45.00562" lon="5.82503">
        <ele>2098.8000488281</ele>
        <time>2023-10-01T09:49:01.000Z</time>
      </trkpt>
      <trkpt lat="45.00563" lon="5.82502">
        <ele>2098.6000976562</ele>
        <time>2023-10-01T09:49:02.000Z</time>
      </trkpt>
      <trkpt lat="45.00564" lon="5.82502">
        <ele>2098.3999023438</ele>
        <time>2023-10-01T09:49:03.000Z</time>
      </trkpt>
      <trkpt lat="45.00566" lon="5.82501">
        <ele>2098.1999511719</ele>
        <time>2023-10-01T09:49:04.000Z</time>
      </trkpt>
      <trkpt lat="45.00567" lon="5.82501">
        <ele>2098</ele>
        <time>2023-10-01T09:49:05.000Z</time>
      </trkpt>
      <trkpt lat="45.00568" lon="5.82501">
        <ele>2097.8000488281</ele>
        <time>2023-10-01T09:49:06.000Z</time>
      </trkpt>
      <trkpt lat="45.00569" lon="5.825">
        <ele>2097.6000976562</ele>
        <time>2023-10-01T09:49:07.000Z</time>
      </trkpt>
      <trkpt lat="45.0057" lon="5.825">
        <ele>2097.3999023438</ele>
        <time>2023-10-01T09:49:08.000Z</time>
      </trkpt>
      <trkpt lat="45.00571" lon="5.82499">
        <ele>2097</ele>
        <time>2023-10-01T09:49:09.000Z</time>
      </trkpt>
      <trkpt lat="45.00572" lon="5.82499">
        <ele>2096.8000488281</ele>
        <time>2023-10-01T09:49:10.000Z</time>
      </trkpt>
      <trkpt lat="45.00574" lon="5.82498">
        <ele>2096.8000488281</ele>
        <time>2023-10-01T09:49:11.000Z</time>
      </trkpt>
      <trkpt lat="45.00575" lon="5.82498">
        <ele>2096.6000976562</ele>
        <time>2023-10-01T09:49:12.000Z</time>
      </trkpt>
      <trkpt lat="45.00576" lon="5.82497">
        <ele>2096.3999023438</ele>
        <time>2023-10-01T09:49:13.000Z</time>
      </trkpt>
      <trkpt lat="45.00577" lon="5.82496">
        <ele>2096.3999023438</ele>
        <time>2023-10-01T09:49:14.000Z</time>
      </trkpt>
      <trkpt lat="45.00579" lon="5.82496">
        <ele>2096.1999511719</ele>
        <time>2023-10-01T09:49:15.000Z</time>
      </trkpt>
      <trkpt lat="45.0058" lon="5.82495">
        <ele>2096.1999511719</ele>
        <time>2023-10-01T09:49:16.000Z</time>
      </trkpt>
      <trkpt lat="45.00581" lon="5.82495">
        <ele>2096.1999511719</ele>
        <time>2023-10-01T09:49:17.000Z</time>
      </trkpt>
      <trkpt lat="45.00582" lon="5.82495">
        <ele>2095.8000488281</ele>
        <time>2023-10-01T09:49:18.000Z</time>
      </trkpt>
      <trkpt lat="45.00583" lon="5.82494">
        <ele>2095.6000976562</ele>
        <time>2023-10-01T09:49:19.000Z</time>
      </trkpt>
      <trkpt lat="45.00584" lon="5.82494">
        <ele>2095.3999023438</ele>
        <time>2023-10-01T09:49:20.000Z</time>
      </trkpt>
      <trkpt lat="45.00585" lon="5.82493">
        <ele>2095.1999511719</ele>
        <time>2023-10-01T09:49:21.000Z</time>
      </trkpt>
      <trkpt lat="45.00586" lon="5.82493">
        <ele>2095.1999511719</ele>
        <time>2023-10-01T09:49:22.000Z</time>
      </trkpt>
      <trkpt lat="45.00587" lon="5.82492">
        <ele>2095</ele>
        <time>2023-10-01T09:49:23.000Z</time>
      </trkpt>
      <trkpt lat="45.00588" lon="5.82492">
        <ele>2095</ele>
        <time>2023-10-01T09:49:24.000Z</time>
      </trkpt>
      <trkpt lat="45.00589" lon="5.82492">
        <ele>2094.6000976562</ele>
        <time>2023-10-01T09:49:25.000Z</time>
      </trkpt>
      <trkpt lat="45.0059" lon="5.82491">
        <ele>2094.3999023438</ele>
        <time>2023-10-01T09:49:26.000Z</time>
      </trkpt>
      <trkpt lat="45.00591" lon="5.82491">
        <ele>2094.3999023438</ele>
        <time>2023-10-01T09:49:27.000Z</time>
      </trkpt>
      <trkpt lat="45.00592" lon="5.82491">
        <ele>2094.1999511719</ele>
        <time>2023-10-01T09:49:28.000Z</time>
      </trkpt>
      <trkpt lat="45.00592" lon="5.82491">
        <ele>2094</ele>
        <time>2023-10-01T09:49:29.000Z</time>
      </trkpt>
      <trkpt lat="45.00593" lon="5.82491">
        <ele>2093.8000488281</ele>
        <time>2023-10-01T09:49:30.000Z</time>
      </trkpt>
      <trkpt lat="45.00594" lon="5.82491">
        <ele>2093.8000488281</ele>
        <time>2023-10-01T09:49:31.000Z</time>
      </trkpt>
      <trkpt lat="45.00595" lon="5.8249">
        <ele>2093.6000976562</ele>
        <time>2023-10-01T09:49:32.000Z</time>
      </trkpt>
      <trkpt lat="45.00597" lon="5.8249">
        <ele>2093.3999023438</ele>
        <time>2023-10-01T09:49:33.000Z</time>
      </trkpt>
      <trkpt lat="45.00598" lon="5.8249">
        <ele>2093.3999023438</ele>
        <time>2023-10-01T09:49:34.000Z</time>
      </trkpt>
      <trkpt lat="45.00599" lon="5.8249">
        <ele>2093</ele>
        <time>2023-10-01T09:49:35.000Z</time>
      </trkpt>
      <trkpt lat="45.006" lon="5.8249">
        <ele>2092.8000488281</ele>
        <time>2023-10-01T09:49:36.000Z</time>
      </trkpt>
      <trkpt lat="45.00601" lon="5.8249">
        <ele>2092.6000976562</ele>
        <time>2023-10-01T09:49:37.000Z</time>
      </trkpt>
      <trkpt lat="45.00602" lon="5.8249">
        <ele>2092.6000976562</ele>
        <time>2023-10-01T09:49:38.000Z</time>
      </trkpt>
      <trkpt lat="45.00603" lon="5.8249">
        <ele>2092.6000976562</ele>
        <time>2023-10-01T09:49:39.000Z</time>
      </trkpt>
      <trkpt lat="45.00604" lon="5.82489">
        <ele>2092.3999023438</ele>
        <time>2023-10-01T09:49:40.000Z</time>
      </trkpt>
      <trkpt lat="45.00606" lon="5.82489">
        <ele>2092.1999511719</ele>
        <time>2023-10-01T09:49:41.000Z</time>
      </trkpt>
      <trkpt lat="45.00607" lon="5.82489">
        <ele>2092</ele>
        <time>2023-10-01T09:49:42.000Z</time>
      </trkpt>
      <trkpt lat="45.00608" lon="5.82489">
        <ele>2092</ele>
        <time>2023-10-01T09:49:43.000Z</time>
      </trkpt>
      <trkpt lat="45.00609" lon="5.82489">
        <ele>2091.6000976562</ele>
        <time>2023-10-01T09:49:44.000Z</time>
      </trkpt>
      <trkpt lat="45.0061" lon="5.82488">
        <ele>2091.6000976562</ele>
        <time>2023-10-01T09:49:45.000Z</time>
      </trkpt>
      <trkpt lat="45.0061" lon="5.82488">
        <ele>2091.6000976562</ele>
        <time>2023-10-01T09:49:46.000Z</time>
      </trkpt>
      <trkpt lat="45.00611" lon="5.82489">
        <ele>2091.3999023438</ele>
        <time>2023-10-01T09:49:47.000Z</time>
      </trkpt>
      <trkpt lat="45.00611" lon="5.82488">
        <ele>2091.3999023438</ele>
        <time>2023-10-01T09:49:48.000Z</time>
      </trkpt>
      <trkpt lat="45.00611" lon="5.82488">
        <ele>2091.3999023438</ele>
        <time>2023-10-01T09:49:49.000Z</time>
      </trkpt>
      <trkpt lat="45.00611" lon="5.82488">
        <ele>2091.1999511719</ele>
        <time>2023-10-01T09:49:50.000Z</time>
      </trkpt>
      <trkpt lat="45.00611" lon="5.82488">
        <ele>2091.1999511719</ele>
        <time>2023-10-01T09:49:51.000Z</time>
      </trkpt>
      <trkpt lat="45.00612" lon="5.82488">
        <ele>2091.1999511719</ele>
        <time>2023-10-01T09:49:52.000Z</time>
      </trkpt>
      <trkpt lat="45.00613" lon="5.82488">
        <ele>2091.1999511719</ele>
        <time>2023-10-01T09:49:53.000Z</time>
      </trkpt>
      <trkpt lat="45.00614" lon="5.82488">
        <ele>2091.1999511719</ele>
        <time>2023-10-01T09:49:54.000Z</time>
      </trkpt>
      <trkpt lat="45.00615" lon="5.82488">
        <ele>2090.8000488281</ele>
        <time>2023-10-01T09:49:55.000Z</time>
      </trkpt>
      <trkpt lat="45.00616" lon="5.82488">
        <ele>2090.8000488281</ele>
        <time>2023-10-01T09:49:56.000Z</time>
      </trkpt>
      <trkpt lat="45.00618" lon="5.82488">
        <ele>2090.6000976562</ele>
        <time>2023-10-01T09:49:57.000Z</time>
      </trkpt>
      <trkpt lat="45.00619" lon="5.82487">
        <ele>2090.3999023438</ele>
        <time>2023-10-01T09:49:58.000Z</time>
      </trkpt>
      <trkpt lat="45.0062" lon="5.82487">
        <ele>2090.1999511719</ele>
        <time>2023-10-01T09:49:59.000Z</time>
      </trkpt>
      <trkpt lat="45.00622" lon="5.82487">
        <ele>2090.1999511719</ele>
        <time>2023-10-01T09:50:00.000Z</time>
      </trkpt>
      <trkpt lat="45.00623" lon="5.82487">
        <ele>2090</ele>
        <time>2023-10-01T09:50:01.000Z</time>
      </trkpt>
      <trkpt lat="45.00623" lon="5.82487">
        <ele>2089.8000488281</ele>
        <time>2023-10-01T09:50:02.000Z</time>
      </trkpt>
      <trkpt lat="45.00623" lon="5.82486">
        <ele>2089.6000976562</ele>
        <time>2023-10-01T09:50:03.000Z</time>
      </trkpt>
      <trkpt lat="45.00623" lon="5.82486">
        <ele>2089.3999023438</ele>
        <time>2023-10-01T09:50:04.000Z</time>
      </trkpt>
      <trkpt lat="45.00623" lon="5.82486">
        <ele>2089.3999023438</ele>
        <time>2023-10-01T09:50:05.000Z</time>
      </trkpt>
      <trkpt lat="45.00623" lon="5.82486">
        <ele>2089.3999023438</ele>
        <time>2023-10-01T09:50:06.000Z</time>
      </trkpt>
      <trkpt lat="45.00624" lon="5.82486">
        <ele>2089.3999023438</ele>
        <time>2023-10-01T09:50:07.000Z</time>
      </trkpt>
      <trkpt lat="45.00625" lon="5.82486">
        <ele>2089.3999023438</ele>
        <time>2023-10-01T09:50:08.000Z</time>
      </trkpt>
      <trkpt lat="45.00626" lon="5.82485">
        <ele>2089.1999511719</ele>
        <time>2023-10-01T09:50:09.000Z</time>
      </trkpt>
      <trkpt lat="45.00626" lon="5.82485">
        <ele>2089.1999511719</ele>
        <time>2023-10-01T09:50:10.000Z</time>
      </trkpt>
      <trkpt lat="45.00627" lon="5.82485">
        <ele>2089</ele>
        <time>2023-10-01T09:50:11.000Z</time>
      </trkpt>
      <trkpt lat="45.00628" lon="5.82485">
        <ele>2088.8000488281</ele>
        <time>2023-10-01T09:50:12.000Z</time>
      </trkpt>
      <trkpt lat="45.00628" lon="5.82485">
        <ele>2088.6000976562</ele>
        <time>2023-10-01T09:50:13.000Z</time>
      </trkpt>
      <trkpt lat="45.00629" lon="5.82485">
        <ele>2088.3999023438</ele>
        <time>2023-10-01T09:50:14.000Z</time>
      </trkpt>
      <trkpt lat="45.0063" lon="5.82485">
        <ele>2088.3999023438</ele>
        <time>2023-10-01T09:50:15.000Z</time>
      </trkpt>
      <trkpt lat="45.0063" lon="5.82484">
        <ele>2088.1999511719</ele>
        <time>2023-10-01T09:50:16.000Z</time>
      </trkpt>
      <trkpt lat="45.00631" lon="5.82484">
        <ele>2088</ele>
        <time>2023-10-01T09:50:17.000Z</time>
      </trkpt>
      <trkpt lat="45.00632" lon="5.82484">
        <ele>2088</ele>
        <time>2023-10-01T09:50:18.000Z</time>
      </trkpt>
      <trkpt lat="45.00633" lon="5.82484">
        <ele>2087.8000488281</ele>
        <time>2023-10-01T09:50:19.000Z</time>
      </trkpt>
      <trkpt lat="45.00634" lon="5.82484">
        <ele>2087.6000976562</ele>
        <time>2023-10-01T09:50:20.000Z</time>
      </trkpt>
      <trkpt lat="45.00634" lon="5.82483">
        <ele>2087.3999023438</ele>
        <time>2023-10-01T09:50:21.000Z</time>
      </trkpt>
      <trkpt lat="45.00635" lon="5.82483">
        <ele>2087.3999023438</ele>
        <time>2023-10-01T09:50:22.000Z</time>
      </trkpt>
      <trkpt lat="45.00635" lon="5.82483">
        <ele>2087.1999511719</ele>
        <time>2023-10-01T09:50:23.000Z</time>
      </trkpt>
      <trkpt lat="45.00636" lon="5.82483">
        <ele>2087</ele>
        <time>2023-10-01T09:50:24.000Z</time>
      </trkpt>
      <trkpt lat="45.00637" lon="5.82483">
        <ele>2086.8000488281</ele>
        <time>2023-10-01T09:50:25.000Z</time>
      </trkpt>
      <trkpt lat="45.00638" lon="5.82483">
        <ele>2086.6000976562</ele>
        <time>2023-10-01T09:50:26.000Z</time>
      </trkpt>
      <trkpt lat="45.00639" lon="5.82483">
        <ele>2086.6000976562</ele>
        <time>2023-10-01T09:50:27.000Z</time>
      </trkpt>
      <trkpt lat="45.00641" lon="5.82483">
        <ele>2086.3999023438</ele>
        <time>2023-10-01T09:50:28.000Z</time>
      </trkpt>
      <trkpt lat="45.00641" lon="5.82482">
        <ele>2086.1999511719</ele>
        <time>2023-10-01T09:50:29.000Z</time>
      </trkpt>
      <trkpt lat="45.00643" lon="5.82482">
        <ele>2086</ele>
        <time>2023-10-01T09:50:30.000Z</time>
      </trkpt>
      <trkpt lat="45.00644" lon="5.82481">
        <ele>2086</ele>
        <time>2023-10-01T09:50:31.000Z</time>
      </trkpt>
      <trkpt lat="45.00645" lon="5.82481">
        <ele>2085.8000488281</ele>
        <time>2023-10-01T09:50:32.000Z</time>
      </trkpt>
      <trkpt lat="45.00646" lon="5.82481">
        <ele>2085.3999023438</ele>
        <time>2023-10-01T09:50:33.000Z</time>
      </trkpt>
      <trkpt lat="45.00648" lon="5.82481">
        <ele>2085.1999511719</ele>
        <time>2023-10-01T09:50:34.000Z</time>
      </trkpt>
      <trkpt lat="45.00649" lon="5.8248">
        <ele>2085</ele>
        <time>2023-10-01T09:50:35.000Z</time>
      </trkpt>
      <trkpt lat="45.0065" lon="5.8248">
        <ele>2084.8000488281</ele>
        <time>2023-10-01T09:50:36.000Z</time>
      </trkpt>
      <trkpt lat="45.0065" lon="5.8248">
        <ele>2084.3999023438</ele>
        <time>2023-10-01T09:50:37.000Z</time>
      </trkpt>
      <trkpt lat="45.00651" lon="5.82479">
        <ele>2084.3999023438</ele>
        <time>2023-10-01T09:50:38.000Z</time>
      </trkpt>
      <trkpt lat="45.00652" lon="5.82479">
        <ele>2084</ele>
        <time>2023-10-01T09:50:39.000Z</time>
      </trkpt>
      <trkpt lat="45.00653" lon="5.82479">
        <ele>2083.8000488281</ele>
        <time>2023-10-01T09:50:40.000Z</time>
      </trkpt>
      <trkpt lat="45.00654" lon="5.82478">
        <ele>2083.8000488281</ele>
        <time>2023-10-01T09:50:41.000Z</time>
      </trkpt>
      <trkpt lat="45.00655" lon="5.82478">
        <ele>2083.6000976562</ele>
        <time>2023-10-01T09:50:42.000Z</time>
      </trkpt>
      <trkpt lat="45.00656" lon="5.82478">
        <ele>2083.3999023438</ele>
        <time>2023-10-01T09:50:43.000Z</time>
      </trkpt>
      <trkpt lat="45.00657" lon="5.82478">
        <ele>2083.1999511719</ele>
        <time>2023-10-01T09:50:44.000Z</time>
      </trkpt>
      <trkpt lat="45.00658" lon="5.82478">
        <ele>2083</ele>
        <time>2023-10-01T09:50:45.000Z</time>
      </trkpt>
      <trkpt lat="45.00659" lon="5.82477">
        <ele>2082.8000488281</ele>
        <time>2023-10-01T09:50:46.000Z</time>
      </trkpt>
      <trkpt lat="45.0066" lon="5.82477">
        <ele>2082.3999023438</ele>
        <time>2023-10-01T09:50:47.000Z</time>
      </trkpt>
      <trkpt lat="45.0066" lon="5.82476">
        <ele>2082</ele>
        <time>2023-10-01T09:50:48.000Z</time>
      </trkpt>
      <trkpt lat="45.00661" lon="5.82476">
        <ele>2081.8000488281</ele>
        <time>2023-10-01T09:50:49.000Z</time>
      </trkpt>
      <trkpt lat="45.00661" lon="5.82475">
        <ele>2081.6000976562</ele>
        <time>2023-10-01T09:50:50.000Z</time>
      </trkpt>
      <trkpt lat="45.00662" lon="5.82475">
        <ele>2081.3999023438</ele>
        <time>2023-10-01T09:50:51.000Z</time>
      </trkpt>
      <trkpt lat="45.00663" lon="5.82475">
        <ele>2081.1999511719</ele>
        <time>2023-10-01T09:50:52.000Z</time>
      </trkpt>
      <trkpt lat="45.00664" lon="5.82474">
        <ele>2080.8000488281</ele>
        <time>2023-10-01T09:50:53.000Z</time>
      </trkpt>
      <trkpt lat="45.00664" lon="5.82474">
        <ele>2080.8000488281</ele>
        <time>2023-10-01T09:50:54.000Z</time>
      </trkpt>
      <trkpt lat="45.00666" lon="5.82474">
        <ele>2080.6000976562</ele>
        <time>2023-10-01T09:50:55.000Z</time>
      </trkpt>
      <trkpt lat="45.00666" lon="5.82474">
        <ele>2080.3999023438</ele>
        <time>2023-10-01T09:50:56.000Z</time>
      </trkpt>
      <trkpt lat="45.00667" lon="5.82473">
        <ele>2080.1999511719</ele>
        <time>2023-10-01T09:50:57.000Z</time>
      </trkpt>
      <trkpt lat="45.00667" lon="5.82473">
        <ele>2079.8000488281</ele>
        <time>2023-10-01T09:50:58.000Z</time>
      </trkpt>
      <trkpt lat="45.00667" lon="5.82473">
        <ele>2079.6000976562</ele>
        <time>2023-10-01T09:50:59.000Z</time>
      </trkpt>
      <trkpt lat="45.00668" lon="5.82472">
        <ele>2079.3999023438</ele>
        <time>2023-10-01T09:51:00.000Z</time>
      </trkpt>
      <trkpt lat="45.00669" lon="5.82472">
        <ele>2079.3999023438</ele>
        <time>2023-10-01T09:51:01.000Z</time>
      </trkpt>
      <trkpt lat="45.0067" lon="5.82471">
        <ele>2079.3999023438</ele>
        <time>2023-10-01T09:51:02.000Z</time>
      </trkpt>
      <trkpt lat="45.00671" lon="5.82471">
        <ele>2079.1999511719</ele>
        <time>2023-10-01T09:51:03.000Z</time>
      </trkpt>
      <trkpt lat="45.00672" lon="5.82471">
        <ele>2079</ele>
        <time>2023-10-01T09:51:04.000Z</time>
      </trkpt>
      <trkpt lat="45.00673" lon="5.8247">
        <ele>2078.8000488281</ele>
        <time>2023-10-01T09:51:05.000Z</time>
      </trkpt>
      <trkpt lat="45.00674" lon="5.8247">
        <ele>2078.6000976562</ele>
        <time>2023-10-01T09:51:06.000Z</time>
      </trkpt>
      <trkpt lat="45.00675" lon="5.82469">
        <ele>2078.6000976562</ele>
        <time>2023-10-01T09:51:07.000Z</time>
      </trkpt>
      <trkpt lat="45.00676" lon="5.82469">
        <ele>2078.3999023438</ele>
        <time>2023-10-01T09:51:08.000Z</time>
      </trkpt>
      <trkpt lat="45.00677" lon="5.82469">
        <ele>2078.1999511719</ele>
        <time>2023-10-01T09:51:09.000Z</time>
      </trkpt>
      <trkpt lat="45.00677" lon="5.82469">
        <ele>2078</ele>
        <time>2023-10-01T09:51:10.000Z</time>
      </trkpt>
      <trkpt lat="45.00678" lon="5.82468">
        <ele>2077.6000976562</ele>
        <time>2023-10-01T09:51:11.000Z</time>
      </trkpt>
      <trkpt lat="45.00679" lon="5.82468">
        <ele>2077.3999023438</ele>
        <time>2023-10-01T09:51:12.000Z</time>
      </trkpt>
      <trkpt lat="45.0068" lon="5.82468">
        <ele>2077.3999023438</ele>
        <time>2023-10-01T09:51:13.000Z</time>
      </trkpt>
      <trkpt lat="45.00681" lon="5.82467">
        <ele>2077.1999511719</ele>
        <time>2023-10-01T09:51:14.000Z</time>
      </trkpt>
      <trkpt lat="45.00682" lon="5.82466">
        <ele>2077</ele>
        <time>2023-10-01T09:51:15.000Z</time>
      </trkpt>
      <trkpt lat="45.00683" lon="5.82466">
        <ele>2076.8000488281</ele>
        <time>2023-10-01T09:51:16.000Z</time>
      </trkpt>
      <trkpt lat="45.00684" lon="5.82466">
        <ele>2076.6000976562</ele>
        <time>2023-10-01T09:51:17.000Z</time>
      </trkpt>
      <trkpt lat="45.00685" lon="5.82465">
        <ele>2076.3999023438</ele>
        <time>2023-10-01T09:51:18.000Z</time>
      </trkpt>
      <trkpt lat="45.00686" lon="5.82464">
        <ele>2076.1999511719</ele>
        <time>2023-10-01T09:51:19.000Z</time>
      </trkpt>
      <trkpt lat="45.00687" lon="5.82464">
        <ele>2076</ele>
        <time>2023-10-01T09:51:20.000Z</time>
      </trkpt>
      <trkpt lat="45.00688" lon="5.82464">
        <ele>2075.8000488281</ele>
        <time>2023-10-01T09:51:21.000Z</time>
      </trkpt>
      <trkpt lat="45.00689" lon="5.82463">
        <ele>2075.6000976562</ele>
        <time>2023-10-01T09:51:22.000Z</time>
      </trkpt>
      <trkpt lat="45.00689" lon="5.82463">
        <ele>2075.3999023438</ele>
        <time>2023-10-01T09:51:23.000Z</time>
      </trkpt>
      <trkpt lat="45.0069" lon="5.82462">
        <ele>2075.1999511719</ele>
        <time>2023-10-01T09:51:24.000Z</time>
      </trkpt>
      <trkpt lat="45.00691" lon="5.82462">
        <ele>2075</ele>
        <time>2023-10-01T09:51:25.000Z</time>
      </trkpt>
      <trkpt lat="45.00691" lon="5.82462">
        <ele>2074.8000488281</ele>
        <time>2023-10-01T09:51:26.000Z</time>
      </trkpt>
      <trkpt lat="45.00692" lon="5.82461">
        <ele>2074.6000976562</ele>
        <time>2023-10-01T09:51:27.000Z</time>
      </trkpt>
      <trkpt lat="45.00693" lon="5.82461">
        <ele>2074.3999023438</ele>
        <time>2023-10-01T09:51:28.000Z</time>
      </trkpt>
      <trkpt lat="45.00693" lon="5.8246">
        <ele>2074.1999511719</ele>
        <time>2023-10-01T09:51:29.000Z</time>
      </trkpt>
      <trkpt lat="45.00694" lon="5.8246">
        <ele>2074</ele>
        <time>2023-10-01T09:51:30.000Z</time>
      </trkpt>
      <trkpt lat="45.00695" lon="5.8246">
        <ele>2073.8000488281</ele>
        <time>2023-10-01T09:51:31.000Z</time>
      </trkpt>
      <trkpt lat="45.00695" lon="5.8246">
        <ele>2073.6000976562</ele>
        <time>2023-10-01T09:51:32.000Z</time>
      </trkpt>
      <trkpt lat="45.00696" lon="5.82459">
        <ele>2073.3999023438</ele>
        <time>2023-10-01T09:51:33.000Z</time>
      </trkpt>
      <trkpt lat="45.00697" lon="5.82459">
        <ele>2073.1999511719</ele>
        <time>2023-10-01T09:51:34.000Z</time>
      </trkpt>
      <trkpt lat="45.00697" lon="5.82458">
        <ele>2073</ele>
        <time>2023-10-01T09:51:35.000Z</time>
      </trkpt>
      <trkpt lat="45.00698" lon="5.82458">
        <ele>2072.8000488281</ele>
        <time>2023-10-01T09:51:36.000Z</time>
      </trkpt>
      <trkpt lat="45.00699" lon="5.82457">
        <ele>2072.6000976562</ele>
        <time>2023-10-01T09:51:37.000Z</time>
      </trkpt>
      <trkpt lat="45.00699" lon="5.82457">
        <ele>2072.3999023438</ele>
        <time>2023-10-01T09:51:38.000Z</time>
      </trkpt>
      <trkpt lat="45.007" lon="5.82456">
        <ele>2072.1999511719</ele>
        <time>2023-10-01T09:51:39.000Z</time>
      </trkpt>
      <trkpt lat="45.007" lon="5.82456">
        <ele>2072</ele>
        <time>2023-10-01T09:51:40.000Z</time>
      </trkpt>
      <trkpt lat="45.00701" lon="5.82455">
        <ele>2071.8000488281</ele>
        <time>2023-10-01T09:51:41.000Z</time>
      </trkpt>
      <trkpt lat="45.00701" lon="5.82455">
        <ele>2071.6000976562</ele>
        <time>2023-10-01T09:51:42.000Z</time>
      </trkpt>
      <trkpt lat="45.00702" lon="5.82455">
        <ele>2071.3999023438</ele>
        <time>2023-10-01T09:51:43.000Z</time>
      </trkpt>
      <trkpt lat="45.00703" lon="5.82454">
        <ele>2071.1999511719</ele>
        <time>2023-10-01T09:51:44.000Z</time>
      </trkpt>
      <trkpt lat="45.00704" lon="5.82454">
        <ele>2070.8000488281</ele>
        <time>2023-10-01T09:51:45.000Z</time>
      </trkpt>
      <trkpt lat="45.00704" lon="5.82454">
        <ele>2070.6000976562</ele>
        <time>2023-10-01T09:51:46.000Z</time>
      </trkpt>
      <trkpt lat="45.00705" lon="5.82453">
        <ele>2070.3999023438</ele>
        <time>2023-10-01T09:51:47.000Z</time>
      </trkpt>
      <trkpt lat="45.00705" lon="5.82453">
        <ele>2070.1999511719</ele>
        <time>2023-10-01T09:51:48.000Z</time>
      </trkpt>
      <trkpt lat="45.00706" lon="5.82453">
        <ele>2070.1999511719</ele>
        <time>2023-10-01T09:51:49.000Z</time>
      </trkpt>
      <trkpt lat="45.00706" lon="5.82453">
        <ele>2069.8000488281</ele>
        <time>2023-10-01T09:51:50.000Z</time>
      </trkpt>
      <trkpt lat="45.00707" lon="5.82452">
        <ele>2069.6000976562</ele>
        <time>2023-10-01T09:51:51.000Z</time>
      </trkpt>
      <trkpt lat="45.00708" lon="5.82452">
        <ele>2069.6000976562</ele>
        <time>2023-10-01T09:51:52.000Z</time>
      </trkpt>
      <trkpt lat="45.00709" lon="5.82452">
        <ele>2069.3999023438</ele>
        <time>2023-10-01T09:51:53.000Z</time>
      </trkpt>
      <trkpt lat="45.0071" lon="5.82451">
        <ele>2069.1999511719</ele>
        <time>2023-10-01T09:51:54.000Z</time>
      </trkpt>
      <trkpt lat="45.0071" lon="5.82451">
        <ele>2069</ele>
        <time>2023-10-01T09:51:55.000Z</time>
      </trkpt>
      <trkpt lat="45.00711" lon="5.82451">
        <ele>2068.8000488281</ele>
        <time>2023-10-01T09:51:56.000Z</time>
      </trkpt>
      <trkpt lat="45.00712" lon="5.8245">
        <ele>2068.6000976562</ele>
        <time>2023-10-01T09:51:57.000Z</time>
      </trkpt>
      <trkpt lat="45.00713" lon="5.8245">
        <ele>2068.3999023438</ele>
        <time>2023-10-01T09:51:58.000Z</time>
      </trkpt>
      <trkpt lat="45.00713" lon="5.82449">
        <ele>2068</ele>
        <time>2023-10-01T09:51:59.000Z</time>
      </trkpt>
      <trkpt lat="45.00714" lon="5.82449">
        <ele>2067.8000488281</ele>
        <time>2023-10-01T09:52:00.000Z</time>
      </trkpt>
      <trkpt lat="45.00715" lon="5.82449">
        <ele>2067.6000976562</ele>
        <time>2023-10-01T09:52:01.000Z</time>
      </trkpt>
      <trkpt lat="45.00716" lon="5.82448">
        <ele>2067.3999023438</ele>
        <time>2023-10-01T09:52:02.000Z</time>
      </trkpt>
      <trkpt lat="45.00716" lon="5.82448">
        <ele>2067.1999511719</ele>
        <time>2023-10-01T09:52:03.000Z</time>
      </trkpt>
      <trkpt lat="45.00717" lon="5.82447">
        <ele>2066.8000488281</ele>
        <time>2023-10-01T09:52:04.000Z</time>
      </trkpt>
      <trkpt lat="45.00718" lon="5.82447">
        <ele>2066.6000976562</ele>
        <time>2023-10-01T09:52:05.000Z</time>
      </trkpt>
      <trkpt lat="45.00718" lon="5.82447">
        <ele>2066.6000976562</ele>
        <time>2023-10-01T09:52:06.000Z</time>
      </trkpt>
      <trkpt lat="45.00719" lon="5.82446">
        <ele>2066.3999023438</ele>
        <time>2023-10-01T09:52:07.000Z</time>
      </trkpt>
      <trkpt lat="45.0072" lon="5.82446">
        <ele>2066.1999511719</ele>
        <time>2023-10-01T09:52:08.000Z</time>
      </trkpt>
      <trkpt lat="45.00721" lon="5.82446">
        <ele>2066</ele>
        <time>2023-10-01T09:52:09.000Z</time>
      </trkpt>
      <trkpt lat="45.00722" lon="5.82445">
        <ele>2065.8000488281</ele>
        <time>2023-10-01T09:52:10.000Z</time>
      </trkpt>
      <trkpt lat="45.00723" lon="5.82445">
        <ele>2065.3999023438</ele>
        <time>2023-10-01T09:52:11.000Z</time>
      </trkpt>
      <trkpt lat="45.00724" lon="5.82445">
        <ele>2065.1999511719</ele>
        <time>2023-10-01T09:52:12.000Z</time>
      </trkpt>
      <trkpt lat="45.00724" lon="5.82445">
        <ele>2065</ele>
        <time>2023-10-01T09:52:13.000Z</time>
      </trkpt>
      <trkpt lat="45.00725" lon="5.82444">
        <ele>2064.8000488281</ele>
        <time>2023-10-01T09:52:14.000Z</time>
      </trkpt>
      <trkpt lat="45.00726" lon="5.82444">
        <ele>2064.6000976562</ele>
        <time>2023-10-01T09:52:15.000Z</time>
      </trkpt>
      <trkpt lat="45.00726" lon="5.82444">
        <ele>2064.3999023438</ele>
        <time>2023-10-01T09:52:16.000Z</time>
      </trkpt>
      <trkpt lat="45.00727" lon="5.82444">
        <ele>2064</ele>
        <time>2023-10-01T09:52:17.000Z</time>
      </trkpt>
      <trkpt lat="45.00728" lon="5.82443">
        <ele>2063.8000488281</ele>
        <time>2023-10-01T09:52:18.000Z</time>
      </trkpt>
      <trkpt lat="45.00729" lon="5.82443">
        <ele>2063.6000976562</ele>
        <time>2023-10-01T09:52:19.000Z</time>
      </trkpt>
      <trkpt lat="45.0073" lon="5.82442">
        <ele>2063.6000976562</ele>
        <time>2023-10-01T09:52:20.000Z</time>
      </trkpt>
      <trkpt lat="45.0073" lon="5.82442">
        <ele>2063.3999023438</ele>
        <time>2023-10-01T09:52:21.000Z</time>
      </trkpt>
      <trkpt lat="45.00731" lon="5.82441">
        <ele>2063.1999511719</ele>
        <time>2023-10-01T09:52:22.000Z</time>
      </trkpt>
      <trkpt lat="45.00732" lon="5.82441">
        <ele>2062.8000488281</ele>
        <time>2023-10-01T09:52:23.000Z</time>
      </trkpt>
      <trkpt lat="45.00733" lon="5.82441">
        <ele>2062.6000976562</ele>
        <time>2023-10-01T09:52:24.000Z</time>
      </trkpt>
      <trkpt lat="45.00734" lon="5.8244">
        <ele>2062.1999511719</ele>
        <time>2023-10-01T09:52:25.000Z</time>
      </trkpt>
      <trkpt lat="45.00734" lon="5.8244">
        <ele>2062</ele>
        <time>2023-10-01T09:52:26.000Z</time>
      </trkpt>
      <trkpt lat="45.00735" lon="5.8244">
        <ele>2061.8000488281</ele>
        <time>2023-10-01T09:52:27.000Z</time>
      </trkpt>
      <trkpt lat="45.00736" lon="5.8244">
        <ele>2061.3999023438</ele>
        <time>2023-10-01T09:52:28.000Z</time>
      </trkpt>
      <trkpt lat="45.00737" lon="5.82439">
        <ele>2061.1999511719</ele>
        <time>2023-10-01T09:52:29.000Z</time>
      </trkpt>
      <trkpt lat="45.00738" lon="5.82439">
        <ele>2061</ele>
        <time>2023-10-01T09:52:30.000Z</time>
      </trkpt>
      <trkpt lat="45.00739" lon="5.82438">
        <ele>2060.8000488281</ele>
        <time>2023-10-01T09:52:31.000Z</time>
      </trkpt>
      <trkpt lat="45.0074" lon="5.82438">
        <ele>2060.3999023438</ele>
        <time>2023-10-01T09:52:32.000Z</time>
      </trkpt>
      <trkpt lat="45.00741" lon="5.82437">
        <ele>2060.1999511719</ele>
        <time>2023-10-01T09:52:33.000Z</time>
      </trkpt>
      <trkpt lat="45.00741" lon="5.82437">
        <ele>2059.8000488281</ele>
        <time>2023-10-01T09:52:34.000Z</time>
      </trkpt>
      <trkpt lat="45.00742" lon="5.82436">
        <ele>2059.6000976562</ele>
        <time>2023-10-01T09:52:35.000Z</time>
      </trkpt>
      <trkpt lat="45.00744" lon="5.82436">
        <ele>2059.1999511719</ele>
        <time>2023-10-01T09:52:36.000Z</time>
      </trkpt>
      <trkpt lat="45.00745" lon="5.82436">
        <ele>2059</ele>
        <time>2023-10-01T09:52:37.000Z</time>
      </trkpt>
      <trkpt lat="45.00746" lon="5.82435">
        <ele>2058.6000976562</ele>
        <time>2023-10-01T09:52:38.000Z</time>
      </trkpt>
      <trkpt lat="45.00747" lon="5.82435">
        <ele>2058.3999023438</ele>
        <time>2023-10-01T09:52:39.000Z</time>
      </trkpt>
      <trkpt lat="45.00748" lon="5.82435">
        <ele>2058.1999511719</ele>
        <time>2023-10-01T09:52:40.000Z</time>
      </trkpt>
      <trkpt lat="45.00749" lon="5.82435">
        <ele>2057.8000488281</ele>
        <time>2023-10-01T09:52:41.000Z</time>
      </trkpt>
      <trkpt lat="45.0075" lon="5.82434">
        <ele>2057.6000976562</ele>
        <time>2023-10-01T09:52:42.000Z</time>
      </trkpt>
      <trkpt lat="45.00751" lon="5.82434">
        <ele>2057.1999511719</ele>
        <time>2023-10-01T09:52:43.000Z</time>
      </trkpt>
      <trkpt lat="45.00752" lon="5.82433">
        <ele>2057.1999511719</ele>
        <time>2023-10-01T09:52:44.000Z</time>
      </trkpt>
      <trkpt lat="45.00753" lon="5.82433">
        <ele>2057</ele>
        <time>2023-10-01T09:52:45.000Z</time>
      </trkpt>
      <trkpt lat="45.00754" lon="5.82433">
        <ele>2056.8000488281</ele>
        <time>2023-10-01T09:52:46.000Z</time>
      </trkpt>
      <trkpt lat="45.00755" lon="5.82433">
        <ele>2056.3999023438</ele>
        <time>2023-10-01T09:52:47.000Z</time>
      </trkpt>
      <trkpt lat="45.00755" lon="5.82433">
        <ele>2056.1999511719</ele>
        <time>2023-10-01T09:52:48.000Z</time>
      </trkpt>
      <trkpt lat="45.00756" lon="5.82433">
        <ele>2056.1999511719</ele>
        <time>2023-10-01T09:52:49.000Z</time>
      </trkpt>
      <trkpt lat="45.00757" lon="5.82432">
        <ele>2056</ele>
        <time>2023-10-01T09:52:50.000Z</time>
      </trkpt>
      <trkpt lat="45.00758" lon="5.82432">
        <ele>2055.6000976562</ele>
        <time>2023-10-01T09:52:51.000Z</time>
      </trkpt>
      <trkpt lat="45.00759" lon="5.82432">
        <ele>2055.3999023438</ele>
        <time>2023-10-01T09:52:52.000Z</time>
      </trkpt>
      <trkpt lat="45.0076" lon="5.82433">
        <ele>2055.1999511719</ele>
        <time>2023-10-01T09:52:53.000Z</time>
      </trkpt>
      <trkpt lat="45.0076" lon="5.82433">
        <ele>2055</ele>
        <time>2023-10-01T09:52:54.000Z</time>
      </trkpt>
      <trkpt lat="45.00761" lon="5.82433">
        <ele>2054.8000488281</ele>
        <time>2023-10-01T09:52:55.000Z</time>
      </trkpt>
      <trkpt lat="45.00762" lon="5.82433">
        <ele>2054.6000976562</ele>
        <time>2023-10-01T09:52:56.000Z</time>
      </trkpt>
      <trkpt lat="45.00762" lon="5.82433">
        <ele>2054.3999023438</ele>
        <time>2023-10-01T09:52:57.000Z</time>
      </trkpt>
      <trkpt lat="45.00763" lon="5.82433">
        <ele>2054.1999511719</ele>
        <time>2023-10-01T09:52:58.000Z</time>
      </trkpt>
      <trkpt lat="45.00764" lon="5.82433">
        <ele>2054</ele>
        <time>2023-10-01T09:52:59.000Z</time>
      </trkpt>
      <trkpt lat="45.00764" lon="5.82433">
        <ele>2053.8000488281</ele>
        <time>2023-10-01T09:53:00.000Z</time>
      </trkpt>
      <trkpt lat="45.00765" lon="5.82432">
        <ele>2053.6000976562</ele>
        <time>2023-10-01T09:53:01.000Z</time>
      </trkpt>
      <trkpt lat="45.00765" lon="5.82432">
        <ele>2053.3999023438</ele>
        <time>2023-10-01T09:53:02.000Z</time>
      </trkpt>
      <trkpt lat="45.00766" lon="5.82432">
        <ele>2053.1999511719</ele>
        <time>2023-10-01T09:53:03.000Z</time>
      </trkpt>
      <trkpt lat="45.00767" lon="5.82432">
        <ele>2053</ele>
        <time>2023-10-01T09:53:04.000Z</time>
      </trkpt>
      <trkpt lat="45.00767" lon="5.82432">
        <ele>2052.8000488281</ele>
        <time>2023-10-01T09:53:05.000Z</time>
      </trkpt>
      <trkpt lat="45.00768" lon="5.82431">
        <ele>2052.3999023438</ele>
        <time>2023-10-01T09:53:06.000Z</time>
      </trkpt>
      <trkpt lat="45.00769" lon="5.82431">
        <ele>2052.1999511719</ele>
        <time>2023-10-01T09:53:07.000Z</time>
      </trkpt>
      <trkpt lat="45.0077" lon="5.82431">
        <ele>2052</ele>
        <time>2023-10-01T09:53:08.000Z</time>
      </trkpt>
      <trkpt lat="45.0077" lon="5.82431">
        <ele>2051.6000976562</ele>
        <time>2023-10-01T09:53:09.000Z</time>
      </trkpt>
      <trkpt lat="45.00771" lon="5.8243">
        <ele>2051.3999023438</ele>
        <time>2023-10-01T09:53:10.000Z</time>
      </trkpt>
      <trkpt lat="45.00772" lon="5.8243">
        <ele>2051.1999511719</ele>
        <time>2023-10-01T09:53:11.000Z</time>
      </trkpt>
      <trkpt lat="45.00772" lon="5.8243">
        <ele>2051</ele>
        <time>2023-10-01T09:53:12.000Z</time>
      </trkpt>
      <trkpt lat="45.00773" lon="5.8243">
        <ele>2050.8000488281</ele>
        <time>2023-10-01T09:53:13.000Z</time>
      </trkpt>
      <trkpt lat="45.00773" lon="5.8243">
        <ele>2050.3999023438</ele>
        <time>2023-10-01T09:53:14.000Z</time>
      </trkpt>
      <trkpt lat="45.00774" lon="5.82429">
        <ele>2050.1999511719</ele>
        <time>2023-10-01T09:53:15.000Z</time>
      </trkpt>
      <trkpt lat="45.00775" lon="5.82429">
        <ele>2050</ele>
        <time>2023-10-01T09:53:16.000Z</time>
      </trkpt>
      <trkpt lat="45.00776" lon="5.82429">
        <ele>2049.8000488281</ele>
        <time>2023-10-01T09:53:17.000Z</time>
      </trkpt>
      <trkpt lat="45.00776" lon="5.82429">
        <ele>2049.3999023438</ele>
        <time>2023-10-01T09:53:18.000Z</time>
      </trkpt>
      <trkpt lat="45.00777" lon="5.82429">
        <ele>2049.1999511719</ele>
        <time>2023-10-01T09:53:19.000Z</time>
      </trkpt>
      <trkpt lat="45.00778" lon="5.82429">
        <ele>2049</ele>
        <time>2023-10-01T09:53:20.000Z</time>
      </trkpt>
      <trkpt lat="45.00778" lon="5.82429">
        <ele>2048.8000488281</ele>
        <time>2023-10-01T09:53:21.000Z</time>
      </trkpt>
      <trkpt lat="45.00779" lon="5.82428">
        <ele>2048.3999023438</ele>
        <time>2023-10-01T09:53:22.000Z</time>
      </trkpt>
      <trkpt lat="45.00779" lon="5.82428">
        <ele>2048.1999511719</ele>
        <time>2023-10-01T09:53:23.000Z</time>
      </trkpt>
      <trkpt lat="45.0078" lon="5.82428">
        <ele>2048</ele>
        <time>2023-10-01T09:53:24.000Z</time>
      </trkpt>
      <trkpt lat="45.00781" lon="5.82428">
        <ele>2047.8000488281</ele>
        <time>2023-10-01T09:53:25.000Z</time>
      </trkpt>
      <trkpt lat="45.00781" lon="5.82428">
        <ele>2047.5999755859</ele>
        <time>2023-10-01T09:53:26.000Z</time>
      </trkpt>
      <trkpt lat="45.00782" lon="5.82427">
        <ele>2047.4000244141</ele>
        <time>2023-10-01T09:53:27.000Z</time>
      </trkpt>
      <trkpt lat="45.00783" lon="5.82427">
        <ele>2047.1999511719</ele>
        <time>2023-10-01T09:53:28.000Z</time>
      </trkpt>
      <trkpt lat="45.00784" lon="5.82427">
        <ele>2047</ele>
        <time>2023-10-01T09:53:29.000Z</time>
      </trkpt>
      <trkpt lat="45.00785" lon="5.82427">
        <ele>2046.5999755859</ele>
        <time>2023-10-01T09:53:30.000Z</time>
      </trkpt>
      <trkpt lat="45.00785" lon="5.82426">
        <ele>2046.4000244141</ele>
        <time>2023-10-01T09:53:31.000Z</time>
      </trkpt>
      <trkpt lat="45.00786" lon="5.82426">
        <ele>2046.1999511719</ele>
        <time>2023-10-01T09:53:32.000Z</time>
      </trkpt>
      <trkpt lat="45.00787" lon="5.82425">
        <ele>2046</ele>
        <time>2023-10-01T09:53:33.000Z</time>
      </trkpt>
      <trkpt lat="45.00788" lon="5.82425">
        <ele>2045.8000488281</ele>
        <time>2023-10-01T09:53:34.000Z</time>
      </trkpt>
      <trkpt lat="45.0079" lon="5.82425">
        <ele>2045.4000244141</ele>
        <time>2023-10-01T09:53:35.000Z</time>
      </trkpt>
      <trkpt lat="45.00791" lon="5.82424">
        <ele>2045.1999511719</ele>
        <time>2023-10-01T09:53:36.000Z</time>
      </trkpt>
      <trkpt lat="45.00792" lon="5.82424">
        <ele>2044.8000488281</ele>
        <time>2023-10-01T09:53:37.000Z</time>
      </trkpt>
      <trkpt lat="45.00792" lon="5.82424">
        <ele>2044.5999755859</ele>
        <time>2023-10-01T09:53:38.000Z</time>
      </trkpt>
      <trkpt lat="45.00794" lon="5.82424">
        <ele>2044.4000244141</ele>
        <time>2023-10-01T09:53:39.000Z</time>
      </trkpt>
      <trkpt lat="45.00794" lon="5.82423">
        <ele>2044.1999511719</ele>
        <time>2023-10-01T09:53:40.000Z</time>
      </trkpt>
      <trkpt lat="45.00795" lon="5.82423">
        <ele>2044</ele>
        <time>2023-10-01T09:53:41.000Z</time>
      </trkpt>
      <trkpt lat="45.00795" lon="5.82423">
        <ele>2043.8000488281</ele>
        <time>2023-10-01T09:53:42.000Z</time>
      </trkpt>
      <trkpt lat="45.00796" lon="5.82423">
        <ele>2043.5999755859</ele>
        <time>2023-10-01T09:53:43.000Z</time>
      </trkpt>
      <trkpt lat="45.00796" lon="5.82423">
        <ele>2043.4000244141</ele>
        <time>2023-10-01T09:53:44.000Z</time>
      </trkpt>
      <trkpt lat="45.00797" lon="5.82423">
        <ele>2043.4000244141</ele>
        <time>2023-10-01T09:53:45.000Z</time>
      </trkpt>
      <trkpt lat="45.00798" lon="5.82423">
        <ele>2043.1999511719</ele>
        <time>2023-10-01T09:53:46.000Z</time>
      </trkpt>
      <trkpt lat="45.00798" lon="5.82424">
        <ele>2043</ele>
        <time>2023-10-01T09:53:47.000Z</time>
      </trkpt>
      <trkpt lat="45.00798" lon="5.82424">
        <ele>2042.8000488281</ele>
        <time>2023-10-01T09:53:48.000Z</time>
      </trkpt>
      <trkpt lat="45.00797" lon="5.82424">
        <ele>2042.8000488281</ele>
        <time>2023-10-01T09:53:49.000Z</time>
      </trkpt>
      <trkpt lat="45.00797" lon="5.82424">
        <ele>2042.4000244141</ele>
        <time>2023-10-01T09:53:50.000Z</time>
      </trkpt>
      <trkpt lat="45.00797" lon="5.82424">
        <ele>2042.1999511719</ele>
        <time>2023-10-01T09:53:51.000Z</time>
      </trkpt>
      <trkpt lat="45.00797" lon="5.82424">
        <ele>2042.1999511719</ele>
        <time>2023-10-01T09:53:52.000Z</time>
      </trkpt>
      <trkpt lat="45.00797" lon="5.82423">
        <ele>2042.1999511719</ele>
        <time>2023-10-01T09:53:53.000Z</time>
      </trkpt>
      <trkpt lat="45.00797" lon="5.82422">
        <ele>2042.1999511719</ele>
        <time>2023-10-01T09:53:54.000Z</time>
      </trkpt>
      <trkpt lat="45.00796" lon="5.82422">
        <ele>2042.4000244141</ele>
        <time>2023-10-01T09:53:55.000Z</time>
      </trkpt>
      <trkpt lat="45.00795" lon="5.82422">
        <ele>2042.5999755859</ele>
        <time>2023-10-01T09:53:56.000Z</time>
      </trkpt>
      <trkpt lat="45.00794" lon="5.82422">
        <ele>2042.5999755859</ele>
        <time>2023-10-01T09:53:57.000Z</time>
      </trkpt>
      <trkpt lat="45.00793" lon="5.82423">
        <ele>2042.5999755859</ele>
        <time>2023-10-01T09:53:58.000Z</time>
      </trkpt>
      <trkpt lat="45.00793" lon="5.82423">
        <ele>2042.8000488281</ele>
        <time>2023-10-01T09:53:59.000Z</time>
      </trkpt>
      <trkpt lat="45.00792" lon="5.82423">
        <ele>2043</ele>
        <time>2023-10-01T09:54:00.000Z</time>
      </trkpt>
      <trkpt lat="45.00791" lon="5.82423">
        <ele>2043</ele>
        <time>2023-10-01T09:54:01.000Z</time>
      </trkpt>
      <trkpt lat="45.00791" lon="5.82424">
        <ele>2043.1999511719</ele>
        <time>2023-10-01T09:54:02.000Z</time>
      </trkpt>
      <trkpt lat="45.00789" lon="5.82424">
        <ele>2043.4000244141</ele>
        <time>2023-10-01T09:54:03.000Z</time>
      </trkpt>
      <trkpt lat="45.00789" lon="5.82424">
        <ele>2043.5999755859</ele>
        <time>2023-10-01T09:54:04.000Z</time>
      </trkpt>
      <trkpt lat="45.00789" lon="5.82424">
        <ele>2043.5999755859</ele>
        <time>2023-10-01T09:54:05.000Z</time>
      </trkpt>
      <trkpt lat="45.00788" lon="5.82424">
        <ele>2043.8000488281</ele>
        <time>2023-10-01T09:54:06.000Z</time>
      </trkpt>
      <trkpt lat="45.00788" lon="5.82424">
        <ele>2044</ele>
        <time>2023-10-01T09:54:07.000Z</time>
      </trkpt>
      <trkpt lat="45.00787" lon="5.82425">
        <ele>2044.1999511719</ele>
        <time>2023-10-01T09:54:08.000Z</time>
      </trkpt>
      <trkpt lat="45.00786" lon="5.82425">
        <ele>2044.1999511719</ele>
        <time>2023-10-01T09:54:09.000Z</time>
      </trkpt>
      <trkpt lat="45.00786" lon="5.82425">
        <ele>2044.4000244141</ele>
        <time>2023-10-01T09:54:10.000Z</time>
      </trkpt>
      <trkpt lat="45.00785" lon="5.82425">
        <ele>2044.5999755859</ele>
        <time>2023-10-01T09:54:11.000Z</time>
      </trkpt>
      <trkpt lat="45.00785" lon="5.82425">
        <ele>2044.8000488281</ele>
        <time>2023-10-01T09:54:12.000Z</time>
      </trkpt>
      <trkpt lat="45.00784" lon="5.82425">
        <ele>2044.8000488281</ele>
        <time>2023-10-01T09:54:13.000Z</time>
      </trkpt>
      <trkpt lat="45.00784" lon="5.82426">
        <ele>2045</ele>
        <time>2023-10-01T09:54:14.000Z</time>
      </trkpt>
      <trkpt lat="45.00783" lon="5.82425">
        <ele>2045</ele>
        <time>2023-10-01T09:54:15.000Z</time>
      </trkpt>
      <trkpt lat="45.00782" lon="5.82426">
        <ele>2045.1999511719</ele>
        <time>2023-10-01T09:54:16.000Z</time>
      </trkpt>
      <trkpt lat="45.00782" lon="5.82426">
        <ele>2045.1999511719</ele>
        <time>2023-10-01T09:54:17.000Z</time>
      </trkpt>
      <trkpt lat="45.00781" lon="5.82426">
        <ele>2045.4000244141</ele>
        <time>2023-10-01T09:54:18.000Z</time>
      </trkpt>
      <trkpt lat="45.0078" lon="5.82426">
        <ele>2045.5999755859</ele>
        <time>2023-10-01T09:54:19.000Z</time>
      </trkpt>
      <trkpt lat="45.00779" lon="5.82426">
        <ele>2045.8000488281</ele>
        <time>2023-10-01T09:54:20.000Z</time>
      </trkpt>
      <trkpt lat="45.00779" lon="5.82426">
        <ele>2046</ele>
        <time>2023-10-01T09:54:21.000Z</time>
      </trkpt>
      <trkpt lat="45.00778" lon="5.82427">
        <ele>2046.1999511719</ele>
        <time>2023-10-01T09:54:22.000Z</time>
      </trkpt>
      <trkpt lat="45.00778" lon="5.82427">
        <ele>2046.4000244141</ele>
        <time>2023-10-01T09:54:23.000Z</time>
      </trkpt>
      <trkpt lat="45.00778" lon="5.82427">
        <ele>2046.4000244141</ele>
        <time>2023-10-01T09:54:24.000Z</time>
      </trkpt>
      <trkpt lat="45.00777" lon="5.82427">
        <ele>2046.8000488281</ele>
        <time>2023-10-01T09:54:25.000Z</time>
      </trkpt>
      <trkpt lat="45.00776" lon="5.82427">
        <ele>2046.8000488281</ele>
        <time>2023-10-01T09:54:26.000Z</time>
      </trkpt>
      <trkpt lat="45.00776" lon="5.82428">
        <ele>2047</ele>
        <time>2023-10-01T09:54:27.000Z</time>
      </trkpt>
      <trkpt lat="45.00775" lon="5.82428">
        <ele>2047</ele>
        <time>2023-10-01T09:54:28.000Z</time>
      </trkpt>
      <trkpt lat="45.00775" lon="5.82428">
        <ele>2047.1999511719</ele>
        <time>2023-10-01T09:54:29.000Z</time>
      </trkpt>
      <trkpt lat="45.00774" lon="5.82428">
        <ele>2047.4000244141</ele>
        <time>2023-10-01T09:54:30.000Z</time>
      </trkpt>
      <trkpt lat="45.00773" lon="5.82429">
        <ele>2047.5999755859</ele>
        <time>2023-10-01T09:54:31.000Z</time>
      </trkpt>
      <trkpt lat="45.00773" lon="5.82429">
        <ele>2047.8000488281</ele>
        <time>2023-10-01T09:54:32.000Z</time>
      </trkpt>
      <trkpt lat="45.00772" lon="5.82429">
        <ele>2048</ele>
        <time>2023-10-01T09:54:33.000Z</time>
      </trkpt>
      <trkpt lat="45.00772" lon="5.8243">
        <ele>2048.6000976562</ele>
        <time>2023-10-01T09:54:34.000Z</time>
      </trkpt>
      <trkpt lat="45.00772" lon="5.8243">
        <ele>2048.6000976562</ele>
        <time>2023-10-01T09:54:35.000Z</time>
      </trkpt>
      <trkpt lat="45.00771" lon="5.8243">
        <ele>2048.8000488281</ele>
        <time>2023-10-01T09:54:36.000Z</time>
      </trkpt>
      <trkpt lat="45.00771" lon="5.8243">
        <ele>2048.8000488281</ele>
        <time>2023-10-01T09:54:37.000Z</time>
      </trkpt>
      <trkpt lat="45.00771" lon="5.8243">
        <ele>2049</ele>
        <time>2023-10-01T09:54:38.000Z</time>
      </trkpt>
      <trkpt lat="45.0077" lon="5.8243">
        <ele>2049.1999511719</ele>
        <time>2023-10-01T09:54:39.000Z</time>
      </trkpt>
      <trkpt lat="45.0077" lon="5.8243">
        <ele>2049.1999511719</ele>
        <time>2023-10-01T09:54:40.000Z</time>
      </trkpt>
      <trkpt lat="45.0077" lon="5.8243">
        <ele>2049.3999023438</ele>
        <time>2023-10-01T09:54:41.000Z</time>
      </trkpt>
      <trkpt lat="45.00769" lon="5.8243">
        <ele>2049.6000976562</ele>
        <time>2023-10-01T09:54:42.000Z</time>
      </trkpt>
      <trkpt lat="45.00769" lon="5.8243">
        <ele>2049.8000488281</ele>
        <time>2023-10-01T09:54:43.000Z</time>
      </trkpt>
      <trkpt lat="45.00768" lon="5.8243">
        <ele>2050</ele>
        <time>2023-10-01T09:54:44.000Z</time>
      </trkpt>
      <trkpt lat="45.00767" lon="5.8243">
        <ele>2050.1999511719</ele>
        <time>2023-10-01T09:54:45.000Z</time>
      </trkpt>
      <trkpt lat="45.00767" lon="5.82431">
        <ele>2050.1999511719</ele>
        <time>2023-10-01T09:54:46.000Z</time>
      </trkpt>
      <trkpt lat="45.00767" lon="5.82431">
        <ele>2050.3999023438</ele>
        <time>2023-10-01T09:54:47.000Z</time>
      </trkpt>
      <trkpt lat="45.00766" lon="5.82431">
        <ele>2050.3999023438</ele>
        <time>2023-10-01T09:54:48.000Z</time>
      </trkpt>
      <trkpt lat="45.00765" lon="5.82432">
        <ele>2050.6000976562</ele>
        <time>2023-10-01T09:54:49.000Z</time>
      </trkpt>
      <trkpt lat="45.00765" lon="5.82432">
        <ele>2050.6000976562</ele>
        <time>2023-10-01T09:54:50.000Z</time>
      </trkpt>
      <trkpt lat="45.00765" lon="5.82431">
        <ele>2050.6000976562</ele>
        <time>2023-10-01T09:54:51.000Z</time>
      </trkpt>
      <trkpt lat="45.00764" lon="5.82432">
        <ele>2050.6000976562</ele>
        <time>2023-10-01T09:54:52.000Z</time>
      </trkpt>
      <trkpt lat="45.00764" lon="5.82432">
        <ele>2051</ele>
        <time>2023-10-01T09:54:53.000Z</time>
      </trkpt>
      <trkpt lat="45.00763" lon="5.82432">
        <ele>2051.3999023438</ele>
        <time>2023-10-01T09:54:54.000Z</time>
      </trkpt>
      <trkpt lat="45.00762" lon="5.82433">
        <ele>2051.3999023438</ele>
        <time>2023-10-01T09:54:55.000Z</time>
      </trkpt>
      <trkpt lat="45.00762" lon="5.82433">
        <ele>2051.6000976562</ele>
        <time>2023-10-01T09:54:56.000Z</time>
      </trkpt>
      <trkpt lat="45.00761" lon="5.82433">
        <ele>2051.6000976562</ele>
        <time>2023-10-01T09:54:57.000Z</time>
      </trkpt>
      <trkpt lat="45.00759" lon="5.82434">
        <ele>2051.6000976562</ele>
        <time>2023-10-01T09:54:58.000Z</time>
      </trkpt>
      <trkpt lat="45.00759" lon="5.82434">
        <ele>2051.8000488281</ele>
        <time>2023-10-01T09:54:59.000Z</time>
      </trkpt>
      <trkpt lat="45.00758" lon="5.82434">
        <ele>2051.8000488281</ele>
        <time>2023-10-01T09:55:00.000Z</time>
      </trkpt>
      <trkpt lat="45.00757" lon="5.82434">
        <ele>2052</ele>
        <time>2023-10-01T09:55:01.000Z</time>
      </trkpt>
      <trkpt lat="45.00757" lon="5.82434">
        <ele>2052.1999511719</ele>
        <time>2023-10-01T09:55:02.000Z</time>
      </trkpt>
      <trkpt lat="45.00756" lon="5.82434">
        <ele>2052.8000488281</ele>
        <time>2023-10-01T09:55:03.000Z</time>
      </trkpt>
      <trkpt lat="45.00756" lon="5.82434">
        <ele>2052.8000488281</ele>
        <time>2023-10-01T09:55:04.000Z</time>
      </trkpt>
      <trkpt lat="45.00755" lon="5.82434">
        <ele>2052.8000488281</ele>
        <time>2023-10-01T09:55:05.000Z</time>
      </trkpt>
      <trkpt lat="45.00755" lon="5.82434">
        <ele>2052.8000488281</ele>
        <time>2023-10-01T09:55:06.000Z</time>
      </trkpt>
      <trkpt lat="45.00754" lon="5.82435">
        <ele>2053.1999511719</ele>
        <time>2023-10-01T09:55:07.000Z</time>
      </trkpt>
      <trkpt lat="45.00754" lon="5.82435">
        <ele>2053.1999511719</ele>
        <time>2023-10-01T09:55:08.000Z</time>
      </trkpt>
      <trkpt lat="45.00753" lon="5.82435">
        <ele>2053.1999511719</ele>
        <time>2023-10-01T09:55:09.000Z</time>
      </trkpt>
      <trkpt lat="45.00753" lon="5.82435">
        <ele>2053.1999511719</ele>
        <time>2023-10-01T09:55:10.000Z</time>
      </trkpt>
      <trkpt lat="45.00752" lon="5.82435">
        <ele>2053.6000976562</ele>
        <time>2023-10-01T09:55:11.000Z</time>
      </trkpt>
      <trkpt lat="45.00751" lon="5.82435">
        <ele>2053.8000488281</ele>
        <time>2023-10-01T09:55:12.000Z</time>
      </trkpt>
      <trkpt lat="45.0075" lon="5.82435">
        <ele>2053.8000488281</ele>
        <time>2023-10-01T09:55:13.000Z</time>
      </trkpt>
      <trkpt lat="45.0075" lon="5.82435">
        <ele>2054</ele>
        <time>2023-10-01T09:55:14.000Z</time>
      </trkpt>
      <trkpt lat="45.00749" lon="5.82436">
        <ele>2054</ele>
        <time>2023-10-01T09:55:15.000Z</time>
      </trkpt>
      <trkpt lat="45.00748" lon="5.82436">
        <ele>2054.1999511719</ele>
        <time>2023-10-01T09:55:16.000Z</time>
      </trkpt>
      <trkpt lat="45.00747" lon="5.82436">
        <ele>2054.3999023438</ele>
        <time>2023-10-01T09:55:17.000Z</time>
      </trkpt>
      <trkpt lat="45.00747" lon="5.82436">
        <ele>2054.6000976562</ele>
        <time>2023-10-01T09:55:18.000Z</time>
      </trkpt>
      <trkpt lat="45.00746" lon="5.82436">
        <ele>2055</ele>
        <time>2023-10-01T09:55:19.000Z</time>
      </trkpt>
      <trkpt lat="45.00745" lon="5.82436">
        <ele>2055</ele>
        <time>2023-10-01T09:55:20.000Z</time>
      </trkpt>
      <trkpt lat="45.00745" lon="5.82436">
        <ele>2055</ele>
        <time>2023-10-01T09:55:21.000Z</time>
      </trkpt>
      <trkpt lat="45.00745" lon="5.82436">
        <ele>2055.1999511719</ele>
        <time>2023-10-01T09:55:22.000Z</time>
      </trkpt>
      <trkpt lat="45.00745" lon="5.82436">
        <ele>2055.1999511719</ele>
        <time>2023-10-01T09:55:23.000Z</time>
      </trkpt>
      <trkpt lat="45.00745" lon="5.82436">
        <ele>2055.6000976562</ele>
        <time>2023-10-01T09:55:24.000Z</time>
      </trkpt>
      <trkpt lat="45.00745" lon="5.82436">
        <ele>2055.6000976562</ele>
        <time>2023-10-01T09:55:25.000Z</time>
      </trkpt>
      <trkpt lat="45.00744" lon="5.82436">
        <ele>2055.6000976562</ele>
        <time>2023-10-01T09:55:26.000Z</time>
      </trkpt>
      <trkpt lat="45.00743" lon="5.82437">
        <ele>2055.6000976562</ele>
        <time>2023-10-01T09:55:27.000Z</time>
      </trkpt>
      <trkpt lat="45.00743" lon="5.82437">
        <ele>2055.3999023438</ele>
        <time>2023-10-01T09:55:28.000Z</time>
      </trkpt>
      <trkpt lat="45.00742" lon="5.82437">
        <ele>2055.3999023438</ele>
        <time>2023-10-01T09:55:29.000Z</time>
      </trkpt>
      <trkpt lat="45.00741" lon="5.82437">
        <ele>2055.3999023438</ele>
        <time>2023-10-01T09:55:30.000Z</time>
      </trkpt>
      <trkpt lat="45.0074" lon="5.82438">
        <ele>2055.6000976562</ele>
        <time>2023-10-01T09:55:31.000Z</time>
      </trkpt>
      <trkpt lat="45.0074" lon="5.82438">
        <ele>2055.6000976562</ele>
        <time>2023-10-01T09:55:32.000Z</time>
      </trkpt>
      <trkpt lat="45.00739" lon="5.82439">
        <ele>2055.6000976562</ele>
        <time>2023-10-01T09:55:33.000Z</time>
      </trkpt>
      <trkpt lat="45.00739" lon="5.82439">
        <ele>2055.6000976562</ele>
        <time>2023-10-01T09:55:34.000Z</time>
      </trkpt>
      <trkpt lat="45.00738" lon="5.82439">
        <ele>2055.8000488281</ele>
        <time>2023-10-01T09:55:35.000Z</time>
      </trkpt>
      <trkpt lat="45.00738" lon="5.82439">
        <ele>2056</ele>
        <time>2023-10-01T09:55:36.000Z</time>
      </trkpt>
      <trkpt lat="45.00738" lon="5.82439">
        <ele>2056.1999511719</ele>
        <time>2023-10-01T09:55:37.000Z</time>
      </trkpt>
      <trkpt lat="45.00737" lon="5.82439">
        <ele>2056.3999023438</ele>
        <time>2023-10-01T09:55:38.000Z</time>
      </trkpt>
      <trkpt lat="45.00736" lon="5.8244">
        <ele>2056.6000976562</ele>
        <time>2023-10-01T09:55:39.000Z</time>
      </trkpt>
      <trkpt lat="45.00736" lon="5.8244">
        <ele>2056.8000488281</ele>
        <time>2023-10-01T09:55:40.000Z</time>
      </trkpt>
      <trkpt lat="45.00735" lon="5.82441">
        <ele>2057</ele>
        <time>2023-10-01T09:55:41.000Z</time>
      </trkpt>
      <trkpt lat="45.00734" lon="5.82441">
        <ele>2057.1999511719</ele>
        <time>2023-10-01T09:55:42.000Z</time>
      </trkpt>
      <trkpt lat="45.00734" lon="5.82442">
        <ele>2057.1999511719</ele>
        <time>2023-10-01T09:55:43.000Z</time>
      </trkpt>
      <trkpt lat="45.00733" lon="5.82442">
        <ele>2057.3999023438</ele>
        <time>2023-10-01T09:55:44.000Z</time>
      </trkpt>
      <trkpt lat="45.00733" lon="5.82442">
        <ele>2057.6000976562</ele>
        <time>2023-10-01T09:55:45.000Z</time>
      </trkpt>
      <trkpt lat="45.00732" lon="5.82442">
        <ele>2057.6000976562</ele>
        <time>2023-10-01T09:55:46.000Z</time>
      </trkpt>
      <trkpt lat="45.00732" lon="5.82442">
        <ele>2057.8000488281</ele>
        <time>2023-10-01T09:55:47.000Z</time>
      </trkpt>
      <trkpt lat="45.00732" lon="5.82441">
        <ele>2058.1999511719</ele>
        <time>2023-10-01T09:55:48.000Z</time>
      </trkpt>
      <trkpt lat="45.00732" lon="5.82442">
        <ele>2058.3999023438</ele>
        <time>2023-10-01T09:55:49.000Z</time>
      </trkpt>
      <trkpt lat="45.00732" lon="5.82442">
        <ele>2058.3999023438</ele>
        <time>2023-10-01T09:55:50.000Z</time>
      </trkpt>
      <trkpt lat="45.00731" lon="5.82442">
        <ele>2058.3999023438</ele>
        <time>2023-10-01T09:55:51.000Z</time>
      </trkpt>
      <trkpt lat="45.0073" lon="5.82442">
        <ele>2058.3999023438</ele>
        <time>2023-10-01T09:55:52.000Z</time>
      </trkpt>
      <trkpt lat="45.0073" lon="5.82442">
        <ele>2058.3999023438</ele>
        <time>2023-10-01T09:55:53.000Z</time>
      </trkpt>
      <trkpt lat="45.00729" lon="5.82443">
        <ele>2058.3999023438</ele>
        <time>2023-10-01T09:55:54.000Z</time>
      </trkpt>
      <trkpt lat="45.00728" lon="5.82443">
        <ele>2058.3999023438</ele>
        <time>2023-10-01T09:55:55.000Z</time>
      </trkpt>
      <trkpt lat="45.00728" lon="5.82444">
        <ele>2058.3999023438</ele>
        <time>2023-10-01T09:55:56.000Z</time>
      </trkpt>
      <trkpt lat="45.00727" lon="5.82444">
        <ele>2058.8000488281</ele>
        <time>2023-10-01T09:55:57.000Z</time>
      </trkpt>
      <trkpt lat="45.00727" lon="5.82444">
        <ele>2059</ele>
        <time>2023-10-01T09:55:58.000Z</time>
      </trkpt>
      <trkpt lat="45.00726" lon="5.82445">
        <ele>2059.3999023438</ele>
        <time>2023-10-01T09:55:59.000Z</time>
      </trkpt>
      <trkpt lat="45.00725" lon="5.82445">
        <ele>2059.6000976562</ele>
        <time>2023-10-01T09:56:00.000Z</time>
      </trkpt>
      <trkpt lat="45.00725" lon="5.82446">
        <ele>2059.6000976562</ele>
        <time>2023-10-01T09:56:01.000Z</time>
      </trkpt>
      <trkpt lat="45.00724" lon="5.82446">
        <ele>2059.8000488281</ele>
        <time>2023-10-01T09:56:02.000Z</time>
      </trkpt>
      <trkpt lat="45.00723" lon="5.82446">
        <ele>2060</ele>
        <time>2023-10-01T09:56:03.000Z</time>
      </trkpt>
      <trkpt lat="45.00723" lon="5.82447">
        <ele>2060.1999511719</ele>
        <time>2023-10-01T09:56:04.000Z</time>
      </trkpt>
      <trkpt lat="45.00722" lon="5.82447">
        <ele>2060.1999511719</ele>
        <time>2023-10-01T09:56:05.000Z</time>
      </trkpt>
      <trkpt lat="45.00721" lon="5.82447">
        <ele>2060.3999023438</ele>
        <time>2023-10-01T09:56:06.000Z</time>
      </trkpt>
      <trkpt lat="45.00719" lon="5.82447">
        <ele>2060.3999023438</ele>
        <time>2023-10-01T09:56:07.000Z</time>
      </trkpt>
      <trkpt lat="45.00719" lon="5.82448">
        <ele>2060.3999023438</ele>
        <time>2023-10-01T09:56:08.000Z</time>
      </trkpt>
      <trkpt lat="45.00718" lon="5.82448">
        <ele>2061</ele>
        <time>2023-10-01T09:56:09.000Z</time>
      </trkpt>
      <trkpt lat="45.00718" lon="5.82448">
        <ele>2061</ele>
        <time>2023-10-01T09:56:10.000Z</time>
      </trkpt>
      <trkpt lat="45.00717" lon="5.82449">
        <ele>2061.1999511719</ele>
        <time>2023-10-01T09:56:11.000Z</time>
      </trkpt>
      <trkpt lat="45.00715" lon="5.82449">
        <ele>2061.6000976562</ele>
        <time>2023-10-01T09:56:12.000Z</time>
      </trkpt>
      <trkpt lat="45.00715" lon="5.82449">
        <ele>2061.6000976562</ele>
        <time>2023-10-01T09:56:13.000Z</time>
      </trkpt>
      <trkpt lat="45.00714" lon="5.8245">
        <ele>2061.8000488281</ele>
        <time>2023-10-01T09:56:14.000Z</time>
      </trkpt>
      <trkpt lat="45.00713" lon="5.8245">
        <ele>2062</ele>
        <time>2023-10-01T09:56:15.000Z</time>
      </trkpt>
      <trkpt lat="45.00713" lon="5.8245">
        <ele>2062</ele>
        <time>2023-10-01T09:56:16.000Z</time>
      </trkpt>
      <trkpt lat="45.00712" lon="5.82451">
        <ele>2062.1999511719</ele>
        <time>2023-10-01T09:56:17.000Z</time>
      </trkpt>
      <trkpt lat="45.00711" lon="5.82451">
        <ele>2062.3999023438</ele>
        <time>2023-10-01T09:56:18.000Z</time>
      </trkpt>
      <trkpt lat="45.00711" lon="5.82451">
        <ele>2062.6000976562</ele>
        <time>2023-10-01T09:56:19.000Z</time>
      </trkpt>
      <trkpt lat="45.00711" lon="5.82451">
        <ele>2063.1999511719</ele>
        <time>2023-10-01T09:56:20.000Z</time>
      </trkpt>
      <trkpt lat="45.00711" lon="5.82451">
        <ele>2063.3999023438</ele>
        <time>2023-10-01T09:56:21.000Z</time>
      </trkpt>
      <trkpt lat="45.00711" lon="5.82451">
        <ele>2063.3999023438</ele>
        <time>2023-10-01T09:56:22.000Z</time>
      </trkpt>
      <trkpt lat="45.00711" lon="5.82451">
        <ele>2063.3999023438</ele>
        <time>2023-10-01T09:56:23.000Z</time>
      </trkpt>
      <trkpt lat="45.00711" lon="5.82451">
        <ele>2063.3999023438</ele>
        <time>2023-10-01T09:56:24.000Z</time>
      </trkpt>
      <trkpt lat="45.00711" lon="5.82451">
        <ele>2063.3999023438</ele>
        <time>2023-10-01T09:56:25.000Z</time>
      </trkpt>
      <trkpt lat="45.00711" lon="5.82451">
        <ele>2063.3999023438</ele>
        <time>2023-10-01T09:56:26.000Z</time>
      </trkpt>
      <trkpt lat="45.00711" lon="5.82451">
        <ele>2063.1999511719</ele>
        <time>2023-10-01T09:56:27.000Z</time>
      </trkpt>
      <trkpt lat="45.0071" lon="5.82451">
        <ele>2063.1999511719</ele>
        <time>2023-10-01T09:56:28.000Z</time>
      </trkpt>
      <trkpt lat="45.0071" lon="5.82451">
        <ele>2063.1999511719</ele>
        <time>2023-10-01T09:56:29.000Z</time>
      </trkpt>
      <trkpt lat="45.0071" lon="5.82451">
        <ele>2063.1999511719</ele>
        <time>2023-10-01T09:56:30.000Z</time>
      </trkpt>
      <trkpt lat="45.00711" lon="5.82451">
        <ele>2063.1999511719</ele>
        <time>2023-10-01T09:56:31.000Z</time>
      </trkpt>
      <trkpt lat="45.0071" lon="5.82451">
        <ele>2063.1999511719</ele>
        <time>2023-10-01T09:56:32.000Z</time>
      </trkpt>
      <trkpt lat="45.0071" lon="5.82451">
        <ele>2063.1999511719</ele>
        <time>2023-10-01T09:56:33.000Z</time>
      </trkpt>
      <trkpt lat="45.0071" lon="5.82451">
        <ele>2063.1999511719</ele>
        <time>2023-10-01T09:56:34.000Z</time>
      </trkpt>
      <trkpt lat="45.0071" lon="5.82451">
        <ele>2063.1999511719</ele>
        <time>2023-10-01T09:56:35.000Z</time>
      </trkpt>
      <trkpt lat="45.0071" lon="5.82451">
        <ele>2063.1999511719</ele>
        <time>2023-10-01T09:56:36.000Z</time>
      </trkpt>
      <trkpt lat="45.0071" lon="5.82451">
        <ele>2063.1999511719</ele>
        <time>2023-10-01T09:56:37.000Z</time>
      </trkpt>
      <trkpt lat="45.00711" lon="5.82451">
        <ele>2063.3999023438</ele>
        <time>2023-10-01T09:56:38.000Z</time>
      </trkpt>
      <trkpt lat="45.00711" lon="5.82451">
        <ele>2063.3999023438</ele>
        <time>2023-10-01T09:56:39.000Z</time>
      </trkpt>
      <trkpt lat="45.0071" lon="5.82451">
        <ele>2063.3999023438</ele>
        <time>2023-10-01T09:56:40.000Z</time>
      </trkpt>
      <trkpt lat="45.00711" lon="5.82451">
        <ele>2063.3999023438</ele>
        <time>2023-10-01T09:56:41.000Z</time>
      </trkpt>
      <trkpt lat="45.00711" lon="5.82451">
        <ele>2063.3999023438</ele>
        <time>2023-10-01T09:56:42.000Z</time>
      </trkpt>
      <trkpt lat="45.00711" lon="5.82451">
        <ele>2063.3999023438</ele>
        <time>2023-10-01T09:56:43.000Z</time>
      </trkpt>
      <trkpt lat="45.00709" lon="5.82451">
        <ele>2063.3999023438</ele>
        <time>2023-10-01T09:56:44.000Z</time>
      </trkpt>
      <trkpt lat="45.00709" lon="5.82451">
        <ele>2063.3999023438</ele>
        <time>2023-10-01T09:56:45.000Z</time>
      </trkpt>
      <trkpt lat="45.00709" lon="5.82451">
        <ele>2063.3999023438</ele>
        <time>2023-10-01T09:56:46.000Z</time>
      </trkpt>
      <trkpt lat="45.00708" lon="5.82451">
        <ele>2063.6000976562</ele>
        <time>2023-10-01T09:56:47.000Z</time>
      </trkpt>
      <trkpt lat="45.00708" lon="5.82451">
        <ele>2063.6000976562</ele>
        <time>2023-10-01T09:56:48.000Z</time>
      </trkpt>
      <trkpt lat="45.00707" lon="5.82452">
        <ele>2063.8000488281</ele>
        <time>2023-10-01T09:56:49.000Z</time>
      </trkpt>
      <trkpt lat="45.00707" lon="5.82452">
        <ele>2064</ele>
        <time>2023-10-01T09:56:50.000Z</time>
      </trkpt>
      <trkpt lat="45.00707" lon="5.82451">
        <ele>2064</ele>
        <time>2023-10-01T09:56:51.000Z</time>
      </trkpt>
      <trkpt lat="45.00707" lon="5.82451">
        <ele>2064.1999511719</ele>
        <time>2023-10-01T09:56:52.000Z</time>
      </trkpt>
      <trkpt lat="45.00707" lon="5.82451">
        <ele>2064.1999511719</ele>
        <time>2023-10-01T09:56:53.000Z</time>
      </trkpt>
      <trkpt lat="45.00707" lon="5.82451">
        <ele>2064.3999023438</ele>
        <time>2023-10-01T09:56:54.000Z</time>
      </trkpt>
      <trkpt lat="45.00707" lon="5.82452">
        <ele>2064.3999023438</ele>
        <time>2023-10-01T09:56:55.000Z</time>
      </trkpt>
      <trkpt lat="45.00707" lon="5.82452">
        <ele>2064.6000976562</ele>
        <time>2023-10-01T09:56:56.000Z</time>
      </trkpt>
      <trkpt lat="45.00707" lon="5.82452">
        <ele>2064.6000976562</ele>
        <time>2023-10-01T09:56:57.000Z</time>
      </trkpt>
      <trkpt lat="45.00707" lon="5.82452">
        <ele>2064.6000976562</ele>
        <time>2023-10-01T09:56:58.000Z</time>
      </trkpt>
      <trkpt lat="45.00707" lon="5.82451">
        <ele>2064.3999023438</ele>
        <time>2023-10-01T09:56:59.000Z</time>
      </trkpt>
      <trkpt lat="45.00707" lon="5.82452">
        <ele>2064.3999023438</ele>
        <time>2023-10-01T09:57:00.000Z</time>
      </trkpt>
      <trkpt lat="45.00706" lon="5.82452">
        <ele>2064.1999511719</ele>
        <time>2023-10-01T09:57:01.000Z</time>
      </trkpt>
      <trkpt lat="45.00706" lon="5.82452">
        <ele>2064.1999511719</ele>
        <time>2023-10-01T09:57:02.000Z</time>
      </trkpt>
      <trkpt lat="45.00706" lon="5.82452">
        <ele>2064.1999511719</ele>
        <time>2023-10-01T09:57:03.000Z</time>
      </trkpt>
      <trkpt lat="45.00706" lon="5.82452">
        <ele>2064.1999511719</ele>
        <time>2023-10-01T09:57:04.000Z</time>
      </trkpt>
      <trkpt lat="45.00706" lon="5.82452">
        <ele>2064.1999511719</ele>
        <time>2023-10-01T09:57:05.000Z</time>
      </trkpt>
      <trkpt lat="45.00706" lon="5.82452">
        <ele>2064.1999511719</ele>
        <time>2023-10-01T09:57:06.000Z</time>
      </trkpt>
      <trkpt lat="45.00706" lon="5.82452">
        <ele>2064.3999023438</ele>
        <time>2023-10-01T09:57:07.000Z</time>
      </trkpt>
      <trkpt lat="45.00706" lon="5.82452">
        <ele>2064.6000976562</ele>
        <time>2023-10-01T09:57:08.000Z</time>
      </trkpt>
      <trkpt lat="45.00706" lon="5.82452">
        <ele>2064.6000976562</ele>
        <time>2023-10-01T09:57:09.000Z</time>
      </trkpt>
      <trkpt lat="45.00706" lon="5.82452">
        <ele>2064.6000976562</ele>
        <time>2023-10-01T09:57:10.000Z</time>
      </trkpt>
      <trkpt lat="45.00706" lon="5.82452">
        <ele>2064.6000976562</ele>
        <time>2023-10-01T09:57:11.000Z</time>
      </trkpt>
      <trkpt lat="45.00706" lon="5.82452">
        <ele>2064.6000976562</ele>
        <time>2023-10-01T09:57:12.000Z</time>
      </trkpt>
      <trkpt lat="45.00706" lon="5.82452">
        <ele>2064.6000976562</ele>
        <time>2023-10-01T09:57:13.000Z</time>
      </trkpt>
      <trkpt lat="45.00707" lon="5.8245">
        <ele>2064.6000976562</ele>
        <time>2023-10-01T09:57:14.000Z</time>
      </trkpt>
      <trkpt lat="45.00707" lon="5.8245">
        <ele>2064.6000976562</ele>
        <time>2023-10-01T09:57:15.000Z</time>
      </trkpt>
      <trkpt lat="45.00706" lon="5.8245">
        <ele>2064.8000488281</ele>
        <time>2023-10-01T09:57:16.000Z</time>
      </trkpt>
      <trkpt lat="45.00706" lon="5.8245">
        <ele>2064.8000488281</ele>
        <time>2023-10-01T09:57:17.000Z</time>
      </trkpt>
      <trkpt lat="45.00706" lon="5.82451">
        <ele>2064.8000488281</ele>
        <time>2023-10-01T09:57:18.000Z</time>
      </trkpt>
      <trkpt lat="45.00706" lon="5.8245">
        <ele>2064.8000488281</ele>
        <time>2023-10-01T09:57:19.000Z</time>
      </trkpt>
      <trkpt lat="45.00706" lon="5.82451">
        <ele>2064.8000488281</ele>
        <time>2023-10-01T09:57:20.000Z</time>
      </trkpt>
      <trkpt lat="45.00706" lon="5.8245">
        <ele>2064.8000488281</ele>
        <time>2023-10-01T09:57:21.000Z</time>
      </trkpt>
      <trkpt lat="45.00706" lon="5.8245">
        <ele>2064.8000488281</ele>
        <time>2023-10-01T09:57:22.000Z</time>
      </trkpt>
      <trkpt lat="45.00706" lon="5.8245">
        <ele>2064.8000488281</ele>
        <time>2023-10-01T09:57:23.000Z</time>
      </trkpt>
      <trkpt lat="45.00706" lon="5.82451">
        <ele>2064.8000488281</ele>
        <time>2023-10-01T09:57:24.000Z</time>
      </trkpt>
      <trkpt lat="45.00706" lon="5.82451">
        <ele>2064.8000488281</ele>
        <time>2023-10-01T09:57:25.000Z</time>
      </trkpt>
      <trkpt lat="45.00706" lon="5.82451">
        <ele>2064.8000488281</ele>
        <time>2023-10-01T09:57:26.000Z</time>
      </trkpt>
      <trkpt lat="45.00706" lon="5.82451">
        <ele>2064.6000976562</ele>
        <time>2023-10-01T09:57:27.000Z</time>
      </trkpt>
      <trkpt lat="45.00706" lon="5.8245">
        <ele>2064.3999023438</ele>
        <time>2023-10-01T09:57:28.000Z</time>
      </trkpt>
      <trkpt lat="45.00705" lon="5.8245">
        <ele>2064.3999023438</ele>
        <time>2023-10-01T09:57:29.000Z</time>
      </trkpt>
      <trkpt lat="45.00705" lon="5.8245">
        <ele>2064.1999511719</ele>
        <time>2023-10-01T09:57:30.000Z</time>
      </trkpt>
      <trkpt lat="45.00705" lon="5.8245">
        <ele>2064</ele>
        <time>2023-10-01T09:57:31.000Z</time>
      </trkpt>
      <trkpt lat="45.00705" lon="5.8245">
        <ele>2063.6000976562</ele>
        <time>2023-10-01T09:57:32.000Z</time>
      </trkpt>
      <trkpt lat="45.00705" lon="5.82449">
        <ele>2063.3999023438</ele>
        <time>2023-10-01T09:57:33.000Z</time>
      </trkpt>
      <trkpt lat="45.00704" lon="5.82449">
        <ele>2063.1999511719</ele>
        <time>2023-10-01T09:57:34.000Z</time>
      </trkpt>
      <trkpt lat="45.00704" lon="5.82449">
        <ele>2063</ele>
        <time>2023-10-01T09:57:35.000Z</time>
      </trkpt>
      <trkpt lat="45.00704" lon="5.82448">
        <ele>2063</ele>
        <time>2023-10-01T09:57:36.000Z</time>
      </trkpt>
      <trkpt lat="45.00704" lon="5.82448">
        <ele>2063</ele>
        <time>2023-10-01T09:57:37.000Z</time>
      </trkpt>
      <trkpt lat="45.00703" lon="5.82448">
        <ele>2063</ele>
        <time>2023-10-01T09:57:38.000Z</time>
      </trkpt>
      <trkpt lat="45.00703" lon="5.82448">
        <ele>2062.8000488281</ele>
        <time>2023-10-01T09:57:39.000Z</time>
      </trkpt>
      <trkpt lat="45.00703" lon="5.82448">
        <ele>2062.8000488281</ele>
        <time>2023-10-01T09:57:40.000Z</time>
      </trkpt>
      <trkpt lat="45.00702" lon="5.82447">
        <ele>2062.8000488281</ele>
        <time>2023-10-01T09:57:41.000Z</time>
      </trkpt>
      <trkpt lat="45.00702" lon="5.82447">
        <ele>2062.8000488281</ele>
        <time>2023-10-01T09:57:42.000Z</time>
      </trkpt>
      <trkpt lat="45.00702" lon="5.82446">
        <ele>2062.6000976562</ele>
        <time>2023-10-01T09:57:43.000Z</time>
      </trkpt>
      <trkpt lat="45.00702" lon="5.82446">
        <ele>2062.3999023438</ele>
        <time>2023-10-01T09:57:44.000Z</time>
      </trkpt>
      <trkpt lat="45.00702" lon="5.82445">
        <ele>2062</ele>
        <time>2023-10-01T09:57:45.000Z</time>
      </trkpt>
      <trkpt lat="45.00702" lon="5.82445">
        <ele>2061.8000488281</ele>
        <time>2023-10-01T09:57:46.000Z</time>
      </trkpt>
      <trkpt lat="45.00702" lon="5.82444">
        <ele>2061.6000976562</ele>
        <time>2023-10-01T09:57:47.000Z</time>
      </trkpt>
      <trkpt lat="45.00703" lon="5.82443">
        <ele>2061.3999023438</ele>
        <time>2023-10-01T09:57:48.000Z</time>
      </trkpt>
      <trkpt lat="45.00703" lon="5.82443">
        <ele>2061.3999023438</ele>
        <time>2023-10-01T09:57:49.000Z</time>
      </trkpt>
      <trkpt lat="45.00703" lon="5.82442">
        <ele>2061.3999023438</ele>
        <time>2023-10-01T09:57:50.000Z</time>
      </trkpt>
      <trkpt lat="45.00704" lon="5.82441">
        <ele>2061.1999511719</ele>
        <time>2023-10-01T09:57:51.000Z</time>
      </trkpt>
      <trkpt lat="45.00704" lon="5.82441">
        <ele>2061.1999511719</ele>
        <time>2023-10-01T09:57:52.000Z</time>
      </trkpt>
      <trkpt lat="45.00705" lon="5.82441">
        <ele>2060.8000488281</ele>
        <time>2023-10-01T09:57:53.000Z</time>
      </trkpt>
      <trkpt lat="45.00705" lon="5.8244">
        <ele>2060.8000488281</ele>
        <time>2023-10-01T09:57:54.000Z</time>
      </trkpt>
      <trkpt lat="45.00705" lon="5.8244">
        <ele>2060.6000976562</ele>
        <time>2023-10-01T09:57:55.000Z</time>
      </trkpt>
      <trkpt lat="45.00706" lon="5.8244">
        <ele>2060.6000976562</ele>
        <time>2023-10-01T09:57:56.000Z</time>
      </trkpt>
      <trkpt lat="45.00706" lon="5.82439">
        <ele>2060.3999023438</ele>
        <time>2023-10-01T09:57:57.000Z</time>
      </trkpt>
      <trkpt lat="45.00706" lon="5.82439">
        <ele>2060.3999023438</ele>
        <time>2023-10-01T09:57:58.000Z</time>
      </trkpt>
      <trkpt lat="45.00707" lon="5.82439">
        <ele>2060.1999511719</ele>
        <time>2023-10-01T09:57:59.000Z</time>
      </trkpt>
      <trkpt lat="45.00708" lon="5.82439">
        <ele>2060</ele>
        <time>2023-10-01T09:58:00.000Z</time>
      </trkpt>
      <trkpt lat="45.00709" lon="5.82439">
        <ele>2059.8000488281</ele>
        <time>2023-10-01T09:58:01.000Z</time>
      </trkpt>
      <trkpt lat="45.00709" lon="5.82439">
        <ele>2059.6000976562</ele>
        <time>2023-10-01T09:58:02.000Z</time>
      </trkpt>
      <trkpt lat="45.0071" lon="5.82438">
        <ele>2059.3999023438</ele>
        <time>2023-10-01T09:58:03.000Z</time>
      </trkpt>
      <trkpt lat="45.0071" lon="5.82439">
        <ele>2059.3999023438</ele>
        <time>2023-10-01T09:58:04.000Z</time>
      </trkpt>
      <trkpt lat="45.00711" lon="5.82438">
        <ele>2059.1999511719</ele>
        <time>2023-10-01T09:58:05.000Z</time>
      </trkpt>
      <trkpt lat="45.00711" lon="5.82438">
        <ele>2059</ele>
        <time>2023-10-01T09:58:06.000Z</time>
      </trkpt>
      <trkpt lat="45.00711" lon="5.82438">
        <ele>2058.8000488281</ele>
        <time>2023-10-01T09:58:07.000Z</time>
      </trkpt>
      <trkpt lat="45.00712" lon="5.82438">
        <ele>2058.8000488281</ele>
        <time>2023-10-01T09:58:08.000Z</time>
      </trkpt>
      <trkpt lat="45.00712" lon="5.82437">
        <ele>2058.3999023438</ele>
        <time>2023-10-01T09:58:09.000Z</time>
      </trkpt>
      <trkpt lat="45.00712" lon="5.82437">
        <ele>2058.1999511719</ele>
        <time>2023-10-01T09:58:10.000Z</time>
      </trkpt>
      <trkpt lat="45.00713" lon="5.82437">
        <ele>2058.1999511719</ele>
        <time>2023-10-01T09:58:11.000Z</time>
      </trkpt>
      <trkpt lat="45.00713" lon="5.82437">
        <ele>2058.1999511719</ele>
        <time>2023-10-01T09:58:12.000Z</time>
      </trkpt>
      <trkpt lat="45.00713" lon="5.82437">
        <ele>2058</ele>
        <time>2023-10-01T09:58:13.000Z</time>
      </trkpt>
      <trkpt lat="45.00713" lon="5.82438">
        <ele>2058</ele>
        <time>2023-10-01T09:58:14.000Z</time>
      </trkpt>
      <trkpt lat="45.00714" lon="5.82437">
        <ele>2057.8000488281</ele>
        <time>2023-10-01T09:58:15.000Z</time>
      </trkpt>
      <trkpt lat="45.00714" lon="5.82437">
        <ele>2057.6000976562</ele>
        <time>2023-10-01T09:58:16.000Z</time>
      </trkpt>
      <trkpt lat="45.00714" lon="5.82436">
        <ele>2057.6000976562</ele>
        <time>2023-10-01T09:58:17.000Z</time>
      </trkpt>
      <trkpt lat="45.00714" lon="5.82435">
        <ele>2057.3999023438</ele>
        <time>2023-10-01T09:58:18.000Z</time>
      </trkpt>
      <trkpt lat="45.00713" lon="5.82435">
        <ele>2057.1999511719</ele>
        <time>2023-10-01T09:58:19.000Z</time>
      </trkpt>
      <trkpt lat="45.00713" lon="5.82435">
        <ele>2057.1999511719</ele>
        <time>2023-10-01T09:58:20.000Z</time>
      </trkpt>
      <trkpt lat="45.00713" lon="5.82434">
        <ele>2057</ele>
        <time>2023-10-01T09:58:21.000Z</time>
      </trkpt>
      <trkpt lat="45.00712" lon="5.82434">
        <ele>2057</ele>
        <time>2023-10-01T09:58:22.000Z</time>
      </trkpt>
      <trkpt lat="45.00712" lon="5.82434">
        <ele>2056.6000976562</ele>
        <time>2023-10-01T09:58:23.000Z</time>
      </trkpt>
      <trkpt lat="45.00711" lon="5.82433">
        <ele>2056.6000976562</ele>
        <time>2023-10-01T09:58:24.000Z</time>
      </trkpt>
      <trkpt lat="45.00711" lon="5.82433">
        <ele>2056.3999023438</ele>
        <time>2023-10-01T09:58:25.000Z</time>
      </trkpt>
      <trkpt lat="45.00711" lon="5.82433">
        <ele>2056.3999023438</ele>
        <time>2023-10-01T09:58:26.000Z</time>
      </trkpt>
      <trkpt lat="45.00711" lon="5.82432">
        <ele>2056.1999511719</ele>
        <time>2023-10-01T09:58:27.000Z</time>
      </trkpt>
      <trkpt lat="45.0071" lon="5.82432">
        <ele>2056</ele>
        <time>2023-10-01T09:58:28.000Z</time>
      </trkpt>
      <trkpt lat="45.0071" lon="5.82431">
        <ele>2056</ele>
        <time>2023-10-01T09:58:29.000Z</time>
      </trkpt>
      <trkpt lat="45.00709" lon="5.82431">
        <ele>2055.6000976562</ele>
        <time>2023-10-01T09:58:30.000Z</time>
      </trkpt>
      <trkpt lat="45.00708" lon="5.8243">
        <ele>2055.3999023438</ele>
        <time>2023-10-01T09:58:31.000Z</time>
      </trkpt>
      <trkpt lat="45.00707" lon="5.82429">
        <ele>2055.1999511719</ele>
        <time>2023-10-01T09:58:32.000Z</time>
      </trkpt>
      <trkpt lat="45.00707" lon="5.82429">
        <ele>2055.1999511719</ele>
        <time>2023-10-01T09:58:33.000Z</time>
      </trkpt>
      <trkpt lat="45.00706" lon="5.82428">
        <ele>2055.1999511719</ele>
        <time>2023-10-01T09:58:34.000Z</time>
      </trkpt>
      <trkpt lat="45.00705" lon="5.82428">
        <ele>2055.1999511719</ele>
        <time>2023-10-01T09:58:35.000Z</time>
      </trkpt>
      <trkpt lat="45.00705" lon="5.82428">
        <ele>2055.1999511719</ele>
        <time>2023-10-01T09:58:36.000Z</time>
      </trkpt>
      <trkpt lat="45.00705" lon="5.82428">
        <ele>2055.1999511719</ele>
        <time>2023-10-01T09:58:37.000Z</time>
      </trkpt>
      <trkpt lat="45.00705" lon="5.82428">
        <ele>2055.1999511719</ele>
        <time>2023-10-01T09:58:38.000Z</time>
      </trkpt>
      <trkpt lat="45.00705" lon="5.82428">
        <ele>2055.1999511719</ele>
        <time>2023-10-01T09:58:39.000Z</time>
      </trkpt>
      <trkpt lat="45.00705" lon="5.82428">
        <ele>2055</ele>
        <time>2023-10-01T09:58:40.000Z</time>
      </trkpt>
      <trkpt lat="45.00705" lon="5.82428">
        <ele>2054.8000488281</ele>
        <time>2023-10-01T09:58:41.000Z</time>
      </trkpt>
      <trkpt lat="45.00705" lon="5.82428">
        <ele>2054.8000488281</ele>
        <time>2023-10-01T09:58:42.000Z</time>
      </trkpt>
      <trkpt lat="45.00704" lon="5.82427">
        <ele>2054.8000488281</ele>
        <time>2023-10-01T09:58:43.000Z</time>
      </trkpt>
      <trkpt lat="45.00704" lon="5.82427">
        <ele>2054.6000976562</ele>
        <time>2023-10-01T09:58:44.000Z</time>
      </trkpt>
      <trkpt lat="45.00705" lon="5.82427">
        <ele>2054.6000976562</ele>
        <time>2023-10-01T09:58:45.000Z</time>
      </trkpt>
      <trkpt lat="45.00704" lon="5.82426">
        <ele>2054.6000976562</ele>
        <time>2023-10-01T09:58:46.000Z</time>
      </trkpt>
      <trkpt lat="45.00704" lon="5.82426">
        <ele>2054.3999023438</ele>
        <time>2023-10-01T09:58:47.000Z</time>
      </trkpt>
      <trkpt lat="45.00704" lon="5.82425">
        <ele>2054.1999511719</ele>
        <time>2023-10-01T09:58:48.000Z</time>
      </trkpt>
      <trkpt lat="45.00703" lon="5.82425">
        <ele>2054.1999511719</ele>
        <time>2023-10-01T09:58:49.000Z</time>
      </trkpt>
      <trkpt lat="45.00702" lon="5.82425">
        <ele>2054</ele>
        <time>2023-10-01T09:58:50.000Z</time>
      </trkpt>
      <trkpt lat="45.00702" lon="5.82424">
        <ele>2054</ele>
        <time>2023-10-01T09:58:51.000Z</time>
      </trkpt>
      <trkpt lat="45.00701" lon="5.82423">
        <ele>2053.8000488281</ele>
        <time>2023-10-01T09:58:52.000Z</time>
      </trkpt>
      <trkpt lat="45.007" lon="5.82423">
        <ele>2053.8000488281</ele>
        <time>2023-10-01T09:58:53.000Z</time>
      </trkpt>
      <trkpt lat="45.007" lon="5.82422">
        <ele>2053.6000976562</ele>
        <time>2023-10-01T09:58:54.000Z</time>
      </trkpt>
      <trkpt lat="45.00699" lon="5.82421">
        <ele>2053.3999023438</ele>
        <time>2023-10-01T09:58:55.000Z</time>
      </trkpt>
      <trkpt lat="45.00699" lon="5.8242">
        <ele>2053</ele>
        <time>2023-10-01T09:58:56.000Z</time>
      </trkpt>
      <trkpt lat="45.00698" lon="5.82419">
        <ele>2052.8000488281</ele>
        <time>2023-10-01T09:58:57.000Z</time>
      </trkpt>
      <trkpt lat="45.00698" lon="5.82418">
        <ele>2052.6000976562</ele>
        <time>2023-10-01T09:58:58.000Z</time>
      </trkpt>
      <trkpt lat="45.00698" lon="5.82417">
        <ele>2052.1999511719</ele>
        <time>2023-10-01T09:58:59.000Z</time>
      </trkpt>
      <trkpt lat="45.00697" lon="5.82417">
        <ele>2052.1999511719</ele>
        <time>2023-10-01T09:59:00.000Z</time>
      </trkpt>
      <trkpt lat="45.00697" lon="5.82417">
        <ele>2051.6000976562</ele>
        <time>2023-10-01T09:59:01.000Z</time>
      </trkpt>
      <trkpt lat="45.00696" lon="5.82416">
        <ele>2051.6000976562</ele>
        <time>2023-10-01T09:59:02.000Z</time>
      </trkpt>
      <trkpt lat="45.00695" lon="5.82416">
        <ele>2051.1999511719</ele>
        <time>2023-10-01T09:59:03.000Z</time>
      </trkpt>
      <trkpt lat="45.00694" lon="5.82416">
        <ele>2051</ele>
        <time>2023-10-01T09:59:04.000Z</time>
      </trkpt>
      <trkpt lat="45.00693" lon="5.82415">
        <ele>2051</ele>
        <time>2023-10-01T09:59:05.000Z</time>
      </trkpt>
      <trkpt lat="45.00692" lon="5.82415">
        <ele>2051</ele>
        <time>2023-10-01T09:59:06.000Z</time>
      </trkpt>
      <trkpt lat="45.00692" lon="5.82414">
        <ele>2051</ele>
        <time>2023-10-01T09:59:07.000Z</time>
      </trkpt>
      <trkpt lat="45.00691" lon="5.82414">
        <ele>2051</ele>
        <time>2023-10-01T09:59:08.000Z</time>
      </trkpt>
      <trkpt lat="45.00691" lon="5.82413">
        <ele>2050.6000976562</ele>
        <time>2023-10-01T09:59:09.000Z</time>
      </trkpt>
      <trkpt lat="45.0069" lon="5.82412">
        <ele>2050.3999023438</ele>
        <time>2023-10-01T09:59:10.000Z</time>
      </trkpt>
      <trkpt lat="45.0069" lon="5.82412">
        <ele>2050</ele>
        <time>2023-10-01T09:59:11.000Z</time>
      </trkpt>
      <trkpt lat="45.00689" lon="5.82412">
        <ele>2049.8000488281</ele>
        <time>2023-10-01T09:59:12.000Z</time>
      </trkpt>
      <trkpt lat="45.00689" lon="5.82411">
        <ele>2049.8000488281</ele>
        <time>2023-10-01T09:59:13.000Z</time>
      </trkpt>
      <trkpt lat="45.00688" lon="5.8241">
        <ele>2049.8000488281</ele>
        <time>2023-10-01T09:59:14.000Z</time>
      </trkpt>
      <trkpt lat="45.00688" lon="5.8241">
        <ele>2049.6000976562</ele>
        <time>2023-10-01T09:59:15.000Z</time>
      </trkpt>
      <trkpt lat="45.00687" lon="5.82409">
        <ele>2049.3999023438</ele>
        <time>2023-10-01T09:59:16.000Z</time>
      </trkpt>
      <trkpt lat="45.00687" lon="5.82408">
        <ele>2049.1999511719</ele>
        <time>2023-10-01T09:59:17.000Z</time>
      </trkpt>
      <trkpt lat="45.00686" lon="5.82408">
        <ele>2049</ele>
        <time>2023-10-01T09:59:18.000Z</time>
      </trkpt>
      <trkpt lat="45.00686" lon="5.82407">
        <ele>2048.8000488281</ele>
        <time>2023-10-01T09:59:19.000Z</time>
      </trkpt>
      <trkpt lat="45.00685" lon="5.82407">
        <ele>2048.3999023438</ele>
        <time>2023-10-01T09:59:20.000Z</time>
      </trkpt>
      <trkpt lat="45.00685" lon="5.82407">
        <ele>2048.3999023438</ele>
        <time>2023-10-01T09:59:21.000Z</time>
      </trkpt>
      <trkpt lat="45.00684" lon="5.82406">
        <ele>2048.3999023438</ele>
        <time>2023-10-01T09:59:22.000Z</time>
      </trkpt>
      <trkpt lat="45.00683" lon="5.82406">
        <ele>2048.1999511719</ele>
        <time>2023-10-01T09:59:23.000Z</time>
      </trkpt>
      <trkpt lat="45.00682" lon="5.82406">
        <ele>2048.1999511719</ele>
        <time>2023-10-01T09:59:24.000Z</time>
      </trkpt>
      <trkpt lat="45.00681" lon="5.82406">
        <ele>2048</ele>
        <time>2023-10-01T09:59:25.000Z</time>
      </trkpt>
      <trkpt lat="45.00681" lon="5.82406">
        <ele>2048</ele>
        <time>2023-10-01T09:59:26.000Z</time>
      </trkpt>
      <trkpt lat="45.0068" lon="5.82406">
        <ele>2048</ele>
        <time>2023-10-01T09:59:27.000Z</time>
      </trkpt>
      <trkpt lat="45.00679" lon="5.82406">
        <ele>2047.8000488281</ele>
        <time>2023-10-01T09:59:28.000Z</time>
      </trkpt>
      <trkpt lat="45.00679" lon="5.82405">
        <ele>2047.8000488281</ele>
        <time>2023-10-01T09:59:29.000Z</time>
      </trkpt>
      <trkpt lat="45.00678" lon="5.82405">
        <ele>2047.8000488281</ele>
        <time>2023-10-01T09:59:30.000Z</time>
      </trkpt>
      <trkpt lat="45.00678" lon="5.82405">
        <ele>2047.8000488281</ele>
        <time>2023-10-01T09:59:31.000Z</time>
      </trkpt>
      <trkpt lat="45.00678" lon="5.82405">
        <ele>2047.8000488281</ele>
        <time>2023-10-01T09:59:32.000Z</time>
      </trkpt>
      <trkpt lat="45.00678" lon="5.82405">
        <ele>2047.8000488281</ele>
        <time>2023-10-01T09:59:33.000Z</time>
      </trkpt>
      <trkpt lat="45.00678" lon="5.82406">
        <ele>2047.5999755859</ele>
        <time>2023-10-01T09:59:34.000Z</time>
      </trkpt>
      <trkpt lat="45.00678" lon="5.82405">
        <ele>2047</ele>
        <time>2023-10-01T09:59:35.000Z</time>
      </trkpt>
      <trkpt lat="45.00678" lon="5.82405">
        <ele>2046.8000488281</ele>
        <time>2023-10-01T09:59:36.000Z</time>
      </trkpt>
      <trkpt lat="45.00677" lon="5.82404">
        <ele>2046.5999755859</ele>
        <time>2023-10-01T09:59:37.000Z</time>
      </trkpt>
      <trkpt lat="45.00676" lon="5.82404">
        <ele>2046.4000244141</ele>
        <time>2023-10-01T09:59:38.000Z</time>
      </trkpt>
      <trkpt lat="45.00675" lon="5.82403">
        <ele>2046.4000244141</ele>
        <time>2023-10-01T09:59:39.000Z</time>
      </trkpt>
      <trkpt lat="45.00675" lon="5.82403">
        <ele>2046.1999511719</ele>
        <time>2023-10-01T09:59:40.000Z</time>
      </trkpt>
      <trkpt lat="45.00674" lon="5.82402">
        <ele>2046.1999511719</ele>
        <time>2023-10-01T09:59:41.000Z</time>
      </trkpt>
      <trkpt lat="45.00674" lon="5.82402">
        <ele>2046.1999511719</ele>
        <time>2023-10-01T09:59:42.000Z</time>
      </trkpt>
      <trkpt lat="45.00674" lon="5.82402">
        <ele>2046.1999511719</ele>
        <time>2023-10-01T09:59:43.000Z</time>
      </trkpt>
      <trkpt lat="45.00674" lon="5.82402">
        <ele>2046.1999511719</ele>
        <time>2023-10-01T09:59:44.000Z</time>
      </trkpt>
      <trkpt lat="45.00674" lon="5.82401">
        <ele>2046.1999511719</ele>
        <time>2023-10-01T09:59:45.000Z</time>
      </trkpt>
      <trkpt lat="45.00673" lon="5.82401">
        <ele>2046.1999511719</ele>
        <time>2023-10-01T09:59:46.000Z</time>
      </trkpt>
      <trkpt lat="45.00673" lon="5.82401">
        <ele>2046</ele>
        <time>2023-10-01T09:59:47.000Z</time>
      </trkpt>
      <trkpt lat="45.00672" lon="5.824">
        <ele>2045.8000488281</ele>
        <time>2023-10-01T09:59:48.000Z</time>
      </trkpt>
      <trkpt lat="45.00672" lon="5.82401">
        <ele>2045.1999511719</ele>
        <time>2023-10-01T09:59:49.000Z</time>
      </trkpt>
      <trkpt lat="45.00672" lon="5.824">
        <ele>2045.1999511719</ele>
        <time>2023-10-01T09:59:50.000Z</time>
      </trkpt>
      <trkpt lat="45.00672" lon="5.824">
        <ele>2045.1999511719</ele>
        <time>2023-10-01T09:59:51.000Z</time>
      </trkpt>
      <trkpt lat="45.00672" lon="5.824">
        <ele>2045.1999511719</ele>
        <time>2023-10-01T09:59:52.000Z</time>
      </trkpt>
      <trkpt lat="45.00672" lon="5.824">
        <ele>2045.1999511719</ele>
        <time>2023-10-01T09:59:53.000Z</time>
      </trkpt>
      <trkpt lat="45.00673" lon="5.82399">
        <ele>2045.1999511719</ele>
        <time>2023-10-01T09:59:54.000Z</time>
      </trkpt>
      <trkpt lat="45.00673" lon="5.82399">
        <ele>2045.1999511719</ele>
        <time>2023-10-01T09:59:55.000Z</time>
      </trkpt>
      <trkpt lat="45.00674" lon="5.824">
        <ele>2045.4000244141</ele>
        <time>2023-10-01T09:59:56.000Z</time>
      </trkpt>
      <trkpt lat="45.00675" lon="5.824">
        <ele>2045.1999511719</ele>
        <time>2023-10-01T09:59:57.000Z</time>
      </trkpt>
      <trkpt lat="45.00675" lon="5.824">
        <ele>2045.1999511719</ele>
        <time>2023-10-01T09:59:58.000Z</time>
      </trkpt>
      <trkpt lat="45.00675" lon="5.824">
        <ele>2045.1999511719</ele>
        <time>2023-10-01T09:59:59.000Z</time>
      </trkpt>
      <trkpt lat="45.00675" lon="5.824">
        <ele>2045</ele>
        <time>2023-10-01T10:00:00.000Z</time>
      </trkpt>
      <trkpt lat="45.00675" lon="5.824">
        <ele>2044.8000488281</ele>
        <time>2023-10-01T10:00:01.000Z</time>
      </trkpt>
      <trkpt lat="45.00675" lon="5.824">
        <ele>2044.8000488281</ele>
        <time>2023-10-01T10:00:02.000Z</time>
      </trkpt>
      <trkpt lat="45.00675" lon="5.824">
        <ele>2044.8000488281</ele>
        <time>2023-10-01T10:00:03.000Z</time>
      </trkpt>
      <trkpt lat="45.00674" lon="5.82399">
        <ele>2044.8000488281</ele>
        <time>2023-10-01T10:00:04.000Z</time>
      </trkpt>
      <trkpt lat="45.00674" lon="5.82398">
        <ele>2044.5999755859</ele>
        <time>2023-10-01T10:00:05.000Z</time>
      </trkpt>
      <trkpt lat="45.00674" lon="5.82398">
        <ele>2044.5999755859</ele>
        <time>2023-10-01T10:00:06.000Z</time>
      </trkpt>
      <trkpt lat="45.00673" lon="5.82398">
        <ele>2044.5999755859</ele>
        <time>2023-10-01T10:00:07.000Z</time>
      </trkpt>
      <trkpt lat="45.00673" lon="5.82399">
        <ele>2044.5999755859</ele>
        <time>2023-10-01T10:00:08.000Z</time>
      </trkpt>
      <trkpt lat="45.00673" lon="5.82398">
        <ele>2044.5999755859</ele>
        <time>2023-10-01T10:00:09.000Z</time>
      </trkpt>
      <trkpt lat="45.00672" lon="5.82398">
        <ele>2044.5999755859</ele>
        <time>2023-10-01T10:00:10.000Z</time>
      </trkpt>
      <trkpt lat="45.00671" lon="5.82397">
        <ele>2044.5999755859</ele>
        <time>2023-10-01T10:00:11.000Z</time>
      </trkpt>
      <trkpt lat="45.00671" lon="5.82397">
        <ele>2044.1999511719</ele>
        <time>2023-10-01T10:00:12.000Z</time>
      </trkpt>
      <trkpt lat="45.0067" lon="5.82397">
        <ele>2044</ele>
        <time>2023-10-01T10:00:13.000Z</time>
      </trkpt>
      <trkpt lat="45.0067" lon="5.82397">
        <ele>2044</ele>
        <time>2023-10-01T10:00:14.000Z</time>
      </trkpt>
      <trkpt lat="45.00669" lon="5.82396">
        <ele>2044</ele>
        <time>2023-10-01T10:00:15.000Z</time>
      </trkpt>
      <trkpt lat="45.00669" lon="5.82395">
        <ele>2044</ele>
        <time>2023-10-01T10:00:16.000Z</time>
      </trkpt>
      <trkpt lat="45.00668" lon="5.82395">
        <ele>2044.1999511719</ele>
        <time>2023-10-01T10:00:17.000Z</time>
      </trkpt>
      <trkpt lat="45.00668" lon="5.82395">
        <ele>2044.1999511719</ele>
        <time>2023-10-01T10:00:18.000Z</time>
      </trkpt>
      <trkpt lat="45.00667" lon="5.82395">
        <ele>2044.1999511719</ele>
        <time>2023-10-01T10:00:19.000Z</time>
      </trkpt>
      <trkpt lat="45.00666" lon="5.82395">
        <ele>2044.1999511719</ele>
        <time>2023-10-01T10:00:20.000Z</time>
      </trkpt>
      <trkpt lat="45.00665" lon="5.82394">
        <ele>2044.1999511719</ele>
        <time>2023-10-01T10:00:21.000Z</time>
      </trkpt>
      <trkpt lat="45.00665" lon="5.82394">
        <ele>2044</ele>
        <time>2023-10-01T10:00:22.000Z</time>
      </trkpt>
      <trkpt lat="45.00664" lon="5.82394">
        <ele>2043.8000488281</ele>
        <time>2023-10-01T10:00:23.000Z</time>
      </trkpt>
      <trkpt lat="45.00663" lon="5.82393">
        <ele>2043.4000244141</ele>
        <time>2023-10-01T10:00:24.000Z</time>
      </trkpt>
      <trkpt lat="45.00663" lon="5.82393">
        <ele>2043.1999511719</ele>
        <time>2023-10-01T10:00:25.000Z</time>
      </trkpt>
      <trkpt lat="45.00662" lon="5.82393">
        <ele>2043</ele>
        <time>2023-10-01T10:00:26.000Z</time>
      </trkpt>
      <trkpt lat="45.00662" lon="5.82393">
        <ele>2042.8000488281</ele>
        <time>2023-10-01T10:00:27.000Z</time>
      </trkpt>
      <trkpt lat="45.00662" lon="5.82393">
        <ele>2042.8000488281</ele>
        <time>2023-10-01T10:00:28.000Z</time>
      </trkpt>
      <trkpt lat="45.00662" lon="5.82393">
        <ele>2042.8000488281</ele>
        <time>2023-10-01T10:00:29.000Z</time>
      </trkpt>
      <trkpt lat="45.00661" lon="5.82393">
        <ele>2042.8000488281</ele>
        <time>2023-10-01T10:00:30.000Z</time>
      </trkpt>
      <trkpt lat="45.00661" lon="5.82392">
        <ele>2042.8000488281</ele>
        <time>2023-10-01T10:00:31.000Z</time>
      </trkpt>
      <trkpt lat="45.0066" lon="5.82392">
        <ele>2042.8000488281</ele>
        <time>2023-10-01T10:00:32.000Z</time>
      </trkpt>
      <trkpt lat="45.00659" lon="5.82391">
        <ele>2042.5999755859</ele>
        <time>2023-10-01T10:00:33.000Z</time>
      </trkpt>
      <trkpt lat="45.00659" lon="5.82391">
        <ele>2042.4000244141</ele>
        <time>2023-10-01T10:00:34.000Z</time>
      </trkpt>
      <trkpt lat="45.00659" lon="5.8239">
        <ele>2042.4000244141</ele>
        <time>2023-10-01T10:00:35.000Z</time>
      </trkpt>
      <trkpt lat="45.00658" lon="5.8239">
        <ele>2042.4000244141</ele>
        <time>2023-10-01T10:00:36.000Z</time>
      </trkpt>
      <trkpt lat="45.00658" lon="5.8239">
        <ele>2042.4000244141</ele>
        <time>2023-10-01T10:00:37.000Z</time>
      </trkpt>
      <trkpt lat="45.00657" lon="5.8239">
        <ele>2042.4000244141</ele>
        <time>2023-10-01T10:00:38.000Z</time>
      </trkpt>
      <trkpt lat="45.00657" lon="5.8239">
        <ele>2042.4000244141</ele>
        <time>2023-10-01T10:00:39.000Z</time>
      </trkpt>
      <trkpt lat="45.00656" lon="5.8239">
        <ele>2042.4000244141</ele>
        <time>2023-10-01T10:00:40.000Z</time>
      </trkpt>
      <trkpt lat="45.00655" lon="5.82389">
        <ele>2042.1999511719</ele>
        <time>2023-10-01T10:00:41.000Z</time>
      </trkpt>
      <trkpt lat="45.00655" lon="5.82389">
        <ele>2042</ele>
        <time>2023-10-01T10:00:42.000Z</time>
      </trkpt>
      <trkpt lat="45.00655" lon="5.82388">
        <ele>2042</ele>
        <time>2023-10-01T10:00:43.000Z</time>
      </trkpt>
      <trkpt lat="45.00654" lon="5.82387">
        <ele>2042</ele>
        <time>2023-10-01T10:00:44.000Z</time>
      </trkpt>
      <trkpt lat="45.00654" lon="5.82386">
        <ele>2041.8000488281</ele>
        <time>2023-10-01T10:00:45.000Z</time>
      </trkpt>
      <trkpt lat="45.00653" lon="5.82386">
        <ele>2041.5999755859</ele>
        <time>2023-10-01T10:00:46.000Z</time>
      </trkpt>
      <trkpt lat="45.00653" lon="5.82386">
        <ele>2041.4000244141</ele>
        <time>2023-10-01T10:00:47.000Z</time>
      </trkpt>
      <trkpt lat="45.00653" lon="5.82385">
        <ele>2041.1999511719</ele>
        <time>2023-10-01T10:00:48.000Z</time>
      </trkpt>
      <trkpt lat="45.00653" lon="5.82385">
        <ele>2041.1999511719</ele>
        <time>2023-10-01T10:00:49.000Z</time>
      </trkpt>
      <trkpt lat="45.00653" lon="5.82385">
        <ele>2041</ele>
        <time>2023-10-01T10:00:50.000Z</time>
      </trkpt>
      <trkpt lat="45.00652" lon="5.82384">
        <ele>2041</ele>
        <time>2023-10-01T10:00:51.000Z</time>
      </trkpt>
      <trkpt lat="45.00652" lon="5.82384">
        <ele>2040.5999755859</ele>
        <time>2023-10-01T10:00:52.000Z</time>
      </trkpt>
      <trkpt lat="45.00652" lon="5.82384">
        <ele>2040.4000244141</ele>
        <time>2023-10-01T10:00:53.000Z</time>
      </trkpt>
      <trkpt lat="45.00652" lon="5.82384">
        <ele>2040.1999511719</ele>
        <time>2023-10-01T10:00:54.000Z</time>
      </trkpt>
      <trkpt lat="45.00652" lon="5.82383">
        <ele>2040.1999511719</ele>
        <time>2023-10-01T10:00:55.000Z</time>
      </trkpt>
      <trkpt lat="45.00652" lon="5.82382">
        <ele>2040</ele>
        <time>2023-10-01T10:00:56.000Z</time>
      </trkpt>
      <trkpt lat="45.00651" lon="5.82381">
        <ele>2039.8000488281</ele>
        <time>2023-10-01T10:00:57.000Z</time>
      </trkpt>
      <trkpt lat="45.00651" lon="5.82381">
        <ele>2039.5999755859</ele>
        <time>2023-10-01T10:00:58.000Z</time>
      </trkpt>
      <trkpt lat="45.00651" lon="5.8238">
        <ele>2039.4000244141</ele>
        <time>2023-10-01T10:00:59.000Z</time>
      </trkpt>
      <trkpt lat="45.0065" lon="5.82379">
        <ele>2039.1999511719</ele>
        <time>2023-10-01T10:01:00.000Z</time>
      </trkpt>
      <trkpt lat="45.0065" lon="5.82378">
        <ele>2039.1999511719</ele>
        <time>2023-10-01T10:01:01.000Z</time>
      </trkpt>
      <trkpt lat="45.00649" lon="5.82377">
        <ele>2038.8000488281</ele>
        <time>2023-10-01T10:01:02.000Z</time>
      </trkpt>
      <trkpt lat="45.00649" lon="5.82376">
        <ele>2038.8000488281</ele>
        <time>2023-10-01T10:01:03.000Z</time>
      </trkpt>
      <trkpt lat="45.00649" lon="5.82376">
        <ele>2038.5999755859</ele>
        <time>2023-10-01T10:01:04.000Z</time>
      </trkpt>
      <trkpt lat="45.00649" lon="5.82376">
        <ele>2038.1999511719</ele>
        <time>2023-10-01T10:01:05.000Z</time>
      </trkpt>
      <trkpt lat="45.00649" lon="5.82376">
        <ele>2038.1999511719</ele>
        <time>2023-10-01T10:01:06.000Z</time>
      </trkpt>
      <trkpt lat="45.00648" lon="5.82376">
        <ele>2038.1999511719</ele>
        <time>2023-10-01T10:01:07.000Z</time>
      </trkpt>
      <trkpt lat="45.00648" lon="5.82376">
        <ele>2038.1999511719</ele>
        <time>2023-10-01T10:01:08.000Z</time>
      </trkpt>
      <trkpt lat="45.00648" lon="5.82376">
        <ele>2038.1999511719</ele>
        <time>2023-10-01T10:01:09.000Z</time>
      </trkpt>
      <trkpt lat="45.00648" lon="5.82376">
        <ele>2038.1999511719</ele>
        <time>2023-10-01T10:01:10.000Z</time>
      </trkpt>
      <trkpt lat="45.00647" lon="5.82375">
        <ele>2038</ele>
        <time>2023-10-01T10:01:11.000Z</time>
      </trkpt>
      <trkpt lat="45.00647" lon="5.82375">
        <ele>2038</ele>
        <time>2023-10-01T10:01:12.000Z</time>
      </trkpt>
      <trkpt lat="45.00647" lon="5.82374">
        <ele>2037.8000488281</ele>
        <time>2023-10-01T10:01:13.000Z</time>
      </trkpt>
      <trkpt lat="45.00646" lon="5.82374">
        <ele>2037.5999755859</ele>
        <time>2023-10-01T10:01:14.000Z</time>
      </trkpt>
      <trkpt lat="45.00646" lon="5.82374">
        <ele>2037.5999755859</ele>
        <time>2023-10-01T10:01:15.000Z</time>
      </trkpt>
      <trkpt lat="45.00646" lon="5.82373">
        <ele>2037.4000244141</ele>
        <time>2023-10-01T10:01:16.000Z</time>
      </trkpt>
      <trkpt lat="45.00645" lon="5.82372">
        <ele>2037.4000244141</ele>
        <time>2023-10-01T10:01:17.000Z</time>
      </trkpt>
      <trkpt lat="45.00645" lon="5.82371">
        <ele>2037.4000244141</ele>
        <time>2023-10-01T10:01:18.000Z</time>
      </trkpt>
      <trkpt lat="45.00644" lon="5.82371">
        <ele>2037.4000244141</ele>
        <time>2023-10-01T10:01:19.000Z</time>
      </trkpt>
      <trkpt lat="45.00644" lon="5.82371">
        <ele>2037.4000244141</ele>
        <time>2023-10-01T10:01:20.000Z</time>
      </trkpt>
      <trkpt lat="45.00644" lon="5.82371">
        <ele>2037.1999511719</ele>
        <time>2023-10-01T10:01:21.000Z</time>
      </trkpt>
      <trkpt lat="45.00643" lon="5.8237">
        <ele>2037</ele>
        <time>2023-10-01T10:01:22.000Z</time>
      </trkpt>
      <trkpt lat="45.00643" lon="5.82371">
        <ele>2036.8000488281</ele>
        <time>2023-10-01T10:01:23.000Z</time>
      </trkpt>
      <trkpt lat="45.00643" lon="5.8237">
        <ele>2036.5999755859</ele>
        <time>2023-10-01T10:01:24.000Z</time>
      </trkpt>
      <trkpt lat="45.00642" lon="5.8237">
        <ele>2036.5999755859</ele>
        <time>2023-10-01T10:01:25.000Z</time>
      </trkpt>
      <trkpt lat="45.00642" lon="5.82369">
        <ele>2036.5999755859</ele>
        <time>2023-10-01T10:01:26.000Z</time>
      </trkpt>
      <trkpt lat="45.00641" lon="5.82369">
        <ele>2036.1999511719</ele>
        <time>2023-10-01T10:01:27.000Z</time>
      </trkpt>
      <trkpt lat="45.00641" lon="5.82368">
        <ele>2036</ele>
        <time>2023-10-01T10:01:28.000Z</time>
      </trkpt>
      <trkpt lat="45.0064" lon="5.82368">
        <ele>2036</ele>
        <time>2023-10-01T10:01:29.000Z</time>
      </trkpt>
      <trkpt lat="45.0064" lon="5.82367">
        <ele>2035.8000488281</ele>
        <time>2023-10-01T10:01:30.000Z</time>
      </trkpt>
      <trkpt lat="45.00639" lon="5.82366">
        <ele>2035.5999755859</ele>
        <time>2023-10-01T10:01:31.000Z</time>
      </trkpt>
      <trkpt lat="45.00638" lon="5.82366">
        <ele>2035.4000244141</ele>
        <time>2023-10-01T10:01:32.000Z</time>
      </trkpt>
      <trkpt lat="45.00638" lon="5.82365">
        <ele>2035.4000244141</ele>
        <time>2023-10-01T10:01:33.000Z</time>
      </trkpt>
      <trkpt lat="45.00637" lon="5.82364">
        <ele>2035.1999511719</ele>
        <time>2023-10-01T10:01:34.000Z</time>
      </trkpt>
      <trkpt lat="45.00637" lon="5.82364">
        <ele>2035</ele>
        <time>2023-10-01T10:01:35.000Z</time>
      </trkpt>
      <trkpt lat="45.00637" lon="5.82364">
        <ele>2035</ele>
        <time>2023-10-01T10:01:36.000Z</time>
      </trkpt>
      <trkpt lat="45.00637" lon="5.82364">
        <ele>2034.8000488281</ele>
        <time>2023-10-01T10:01:37.000Z</time>
      </trkpt>
      <trkpt lat="45.00637" lon="5.82363">
        <ele>2034.8000488281</ele>
        <time>2023-10-01T10:01:38.000Z</time>
      </trkpt>
      <trkpt lat="45.00637" lon="5.82363">
        <ele>2034.8000488281</ele>
        <time>2023-10-01T10:01:39.000Z</time>
      </trkpt>
      <trkpt lat="45.00636" lon="5.82362">
        <ele>2034.5999755859</ele>
        <time>2023-10-01T10:01:40.000Z</time>
      </trkpt>
      <trkpt lat="45.00636" lon="5.82362">
        <ele>2034.1999511719</ele>
        <time>2023-10-01T10:01:41.000Z</time>
      </trkpt>
      <trkpt lat="45.00635" lon="5.82361">
        <ele>2034</ele>
        <time>2023-10-01T10:01:42.000Z</time>
      </trkpt>
      <trkpt lat="45.00635" lon="5.82361">
        <ele>2034</ele>
        <time>2023-10-01T10:01:43.000Z</time>
      </trkpt>
      <trkpt lat="45.00634" lon="5.82361">
        <ele>2033.8000488281</ele>
        <time>2023-10-01T10:01:44.000Z</time>
      </trkpt>
      <trkpt lat="45.00633" lon="5.82361">
        <ele>2033.4000244141</ele>
        <time>2023-10-01T10:01:45.000Z</time>
      </trkpt>
      <trkpt lat="45.00633" lon="5.82361">
        <ele>2033.1999511719</ele>
        <time>2023-10-01T10:01:46.000Z</time>
      </trkpt>
      <trkpt lat="45.00632" lon="5.8236">
        <ele>2033.1999511719</ele>
        <time>2023-10-01T10:01:47.000Z</time>
      </trkpt>
      <trkpt lat="45.00632" lon="5.8236">
        <ele>2033.1999511719</ele>
        <time>2023-10-01T10:01:48.000Z</time>
      </trkpt>
      <trkpt lat="45.00631" lon="5.82359">
        <ele>2033</ele>
        <time>2023-10-01T10:01:49.000Z</time>
      </trkpt>
      <trkpt lat="45.00631" lon="5.82359">
        <ele>2033</ele>
        <time>2023-10-01T10:01:50.000Z</time>
      </trkpt>
      <trkpt lat="45.00631" lon="5.82359">
        <ele>2032.5999755859</ele>
        <time>2023-10-01T10:01:51.000Z</time>
      </trkpt>
      <trkpt lat="45.00631" lon="5.82358">
        <ele>2032.1999511719</ele>
        <time>2023-10-01T10:01:52.000Z</time>
      </trkpt>
      <trkpt lat="45.00631" lon="5.82358">
        <ele>2032.1999511719</ele>
        <time>2023-10-01T10:01:53.000Z</time>
      </trkpt>
      <trkpt lat="45.00631" lon="5.82358">
        <ele>2032.1999511719</ele>
        <time>2023-10-01T10:01:54.000Z</time>
      </trkpt>
      <trkpt lat="45.00631" lon="5.82358">
        <ele>2032</ele>
        <time>2023-10-01T10:01:55.000Z</time>
      </trkpt>
      <trkpt lat="45.00631" lon="5.82357">
        <ele>2031.5999755859</ele>
        <time>2023-10-01T10:01:56.000Z</time>
      </trkpt>
      <trkpt lat="45.0063" lon="5.82357">
        <ele>2031.5999755859</ele>
        <time>2023-10-01T10:01:57.000Z</time>
      </trkpt>
      <trkpt lat="45.0063" lon="5.82356">
        <ele>2031.4000244141</ele>
        <time>2023-10-01T10:01:58.000Z</time>
      </trkpt>
      <trkpt lat="45.00631" lon="5.82356">
        <ele>2031.4000244141</ele>
        <time>2023-10-01T10:01:59.000Z</time>
      </trkpt>
      <trkpt lat="45.00631" lon="5.82355">
        <ele>2031.1999511719</ele>
        <time>2023-10-01T10:02:00.000Z</time>
      </trkpt>
      <trkpt lat="45.00631" lon="5.82355">
        <ele>2031</ele>
        <time>2023-10-01T10:02:01.000Z</time>
      </trkpt>
      <trkpt lat="45.00632" lon="5.82354">
        <ele>2031</ele>
        <time>2023-10-01T10:02:02.000Z</time>
      </trkpt>
      <trkpt lat="45.00632" lon="5.82354">
        <ele>2031</ele>
        <time>2023-10-01T10:02:03.000Z</time>
      </trkpt>
      <trkpt lat="45.00632" lon="5.82354">
        <ele>2030.8000488281</ele>
        <time>2023-10-01T10:02:04.000Z</time>
      </trkpt>
      <trkpt lat="45.00631" lon="5.82353">
        <ele>2030.8000488281</ele>
        <time>2023-10-01T10:02:05.000Z</time>
      </trkpt>
      <trkpt lat="45.00631" lon="5.82353">
        <ele>2030.4000244141</ele>
        <time>2023-10-01T10:02:06.000Z</time>
      </trkpt>
      <trkpt lat="45.00631" lon="5.82352">
        <ele>2030.1999511719</ele>
        <time>2023-10-01T10:02:07.000Z</time>
      </trkpt>
      <trkpt lat="45.0063" lon="5.82351">
        <ele>2029.8000488281</ele>
        <time>2023-10-01T10:02:08.000Z</time>
      </trkpt>
      <trkpt lat="45.00629" lon="5.82351">
        <ele>2029.5999755859</ele>
        <time>2023-10-01T10:02:09.000Z</time>
      </trkpt>
      <trkpt lat="45.00629" lon="5.8235">
        <ele>2029.4000244141</ele>
        <time>2023-10-01T10:02:10.000Z</time>
      </trkpt>
      <trkpt lat="45.00629" lon="5.8235">
        <ele>2029.4000244141</ele>
        <time>2023-10-01T10:02:11.000Z</time>
      </trkpt>
      <trkpt lat="45.00628" lon="5.82349">
        <ele>2029.1999511719</ele>
        <time>2023-10-01T10:02:12.000Z</time>
      </trkpt>
      <trkpt lat="45.00627" lon="5.82349">
        <ele>2029.1999511719</ele>
        <time>2023-10-01T10:02:13.000Z</time>
      </trkpt>
      <trkpt lat="45.00626" lon="5.82349">
        <ele>2029</ele>
        <time>2023-10-01T10:02:14.000Z</time>
      </trkpt>
      <trkpt lat="45.00625" lon="5.82349">
        <ele>2029</ele>
        <time>2023-10-01T10:02:15.000Z</time>
      </trkpt>
      <trkpt lat="45.00625" lon="5.82348">
        <ele>2029</ele>
        <time>2023-10-01T10:02:16.000Z</time>
      </trkpt>
      <trkpt lat="45.00624" lon="5.82348">
        <ele>2029</ele>
        <time>2023-10-01T10:02:17.000Z</time>
      </trkpt>
      <trkpt lat="45.00624" lon="5.82348">
        <ele>2029</ele>
        <time>2023-10-01T10:02:18.000Z</time>
      </trkpt>
      <trkpt lat="45.00624" lon="5.82348">
        <ele>2028.8000488281</ele>
        <time>2023-10-01T10:02:19.000Z</time>
      </trkpt>
      <trkpt lat="45.00624" lon="5.82349">
        <ele>2028.8000488281</ele>
        <time>2023-10-01T10:02:20.000Z</time>
      </trkpt>
      <trkpt lat="45.00624" lon="5.82349">
        <ele>2028.5999755859</ele>
        <time>2023-10-01T10:02:21.000Z</time>
      </trkpt>
      <trkpt lat="45.00624" lon="5.82349">
        <ele>2028.4000244141</ele>
        <time>2023-10-01T10:02:22.000Z</time>
      </trkpt>
      <trkpt lat="45.00624" lon="5.82348">
        <ele>2028.4000244141</ele>
        <time>2023-10-01T10:02:23.000Z</time>
      </trkpt>
      <trkpt lat="45.00623" lon="5.82348">
        <ele>2028.4000244141</ele>
        <time>2023-10-01T10:02:24.000Z</time>
      </trkpt>
      <trkpt lat="45.00623" lon="5.82348">
        <ele>2028.4000244141</ele>
        <time>2023-10-01T10:02:25.000Z</time>
      </trkpt>
      <trkpt lat="45.00622" lon="5.82346">
        <ele>2028.1999511719</ele>
        <time>2023-10-01T10:02:26.000Z</time>
      </trkpt>
      <trkpt lat="45.00621" lon="5.82345">
        <ele>2028.1999511719</ele>
        <time>2023-10-01T10:02:27.000Z</time>
      </trkpt>
      <trkpt lat="45.00621" lon="5.82345">
        <ele>2027.8000488281</ele>
        <time>2023-10-01T10:02:28.000Z</time>
      </trkpt>
      <trkpt lat="45.0062" lon="5.82345">
        <ele>2027.8000488281</ele>
        <time>2023-10-01T10:02:29.000Z</time>
      </trkpt>
      <trkpt lat="45.0062" lon="5.82345">
        <ele>2027.8000488281</ele>
        <time>2023-10-01T10:02:30.000Z</time>
      </trkpt>
      <trkpt lat="45.0062" lon="5.82344">
        <ele>2027.5999755859</ele>
        <time>2023-10-01T10:02:31.000Z</time>
      </trkpt>
      <trkpt lat="45.00619" lon="5.82344">
        <ele>2027.1999511719</ele>
        <time>2023-10-01T10:02:32.000Z</time>
      </trkpt>
      <trkpt lat="45.00619" lon="5.82343">
        <ele>2027.1999511719</ele>
        <time>2023-10-01T10:02:33.000Z</time>
      </trkpt>
      <trkpt lat="45.00619" lon="5.82343">
        <ele>2027.1999511719</ele>
        <time>2023-10-01T10:02:34.000Z</time>
      </trkpt>
      <trkpt lat="45.00619" lon="5.82342">
        <ele>2027.1999511719</ele>
        <time>2023-10-01T10:02:35.000Z</time>
      </trkpt>
      <trkpt lat="45.00619" lon="5.82342">
        <ele>2027.1999511719</ele>
        <time>2023-10-01T10:02:36.000Z</time>
      </trkpt>
      <trkpt lat="45.00619" lon="5.82342">
        <ele>2027.1999511719</ele>
        <time>2023-10-01T10:02:37.000Z</time>
      </trkpt>
      <trkpt lat="45.00619" lon="5.82342">
        <ele>2027.1999511719</ele>
        <time>2023-10-01T10:02:38.000Z</time>
      </trkpt>
      <trkpt lat="45.00619" lon="5.82342">
        <ele>2027.4000244141</ele>
        <time>2023-10-01T10:02:39.000Z</time>
      </trkpt>
      <trkpt lat="45.00619" lon="5.82342">
        <ele>2027.4000244141</ele>
        <time>2023-10-01T10:02:40.000Z</time>
      </trkpt>
      <trkpt lat="45.00619" lon="5.82342">
        <ele>2027.4000244141</ele>
        <time>2023-10-01T10:02:41.000Z</time>
      </trkpt>
      <trkpt lat="45.00619" lon="5.82342">
        <ele>2027.5999755859</ele>
        <time>2023-10-01T10:02:42.000Z</time>
      </trkpt>
      <trkpt lat="45.00619" lon="5.82342">
        <ele>2027.8000488281</ele>
        <time>2023-10-01T10:02:43.000Z</time>
      </trkpt>
      <trkpt lat="45.00619" lon="5.82343">
        <ele>2027.8000488281</ele>
        <time>2023-10-01T10:02:44.000Z</time>
      </trkpt>
      <trkpt lat="45.00619" lon="5.82344">
        <ele>2027.8000488281</ele>
        <time>2023-10-01T10:02:45.000Z</time>
      </trkpt>
      <trkpt lat="45.00619" lon="5.82344">
        <ele>2027.8000488281</ele>
        <time>2023-10-01T10:02:46.000Z</time>
      </trkpt>
      <trkpt lat="45.00618" lon="5.82344">
        <ele>2027.8000488281</ele>
        <time>2023-10-01T10:02:47.000Z</time>
      </trkpt>
      <trkpt lat="45.00618" lon="5.82343">
        <ele>2027.1999511719</ele>
        <time>2023-10-01T10:02:48.000Z</time>
      </trkpt>
      <trkpt lat="45.00618" lon="5.82343">
        <ele>2027</ele>
        <time>2023-10-01T10:02:49.000Z</time>
      </trkpt>
      <trkpt lat="45.00618" lon="5.82343">
        <ele>2026.8000488281</ele>
        <time>2023-10-01T10:02:50.000Z</time>
      </trkpt>
      <trkpt lat="45.00617" lon="5.82342">
        <ele>2026.5999755859</ele>
        <time>2023-10-01T10:02:51.000Z</time>
      </trkpt>
      <trkpt lat="45.00617" lon="5.82342">
        <ele>2026.4000244141</ele>
        <time>2023-10-01T10:02:52.000Z</time>
      </trkpt>
      <trkpt lat="45.00616" lon="5.82341">
        <ele>2026.1999511719</ele>
        <time>2023-10-01T10:02:53.000Z</time>
      </trkpt>
      <trkpt lat="45.00616" lon="5.82341">
        <ele>2026.1999511719</ele>
        <time>2023-10-01T10:02:54.000Z</time>
      </trkpt>
      <trkpt lat="45.00616" lon="5.8234">
        <ele>2026</ele>
        <time>2023-10-01T10:02:55.000Z</time>
      </trkpt>
      <trkpt lat="45.00616" lon="5.8234">
        <ele>2026</ele>
        <time>2023-10-01T10:02:56.000Z</time>
      </trkpt>
      <trkpt lat="45.00615" lon="5.8234">
        <ele>2025.8000488281</ele>
        <time>2023-10-01T10:02:57.000Z</time>
      </trkpt>
      <trkpt lat="45.00615" lon="5.82339">
        <ele>2025.8000488281</ele>
        <time>2023-10-01T10:02:58.000Z</time>
      </trkpt>
      <trkpt lat="45.00615" lon="5.82338">
        <ele>2025.8000488281</ele>
        <time>2023-10-01T10:02:59.000Z</time>
      </trkpt>
      <trkpt lat="45.00615" lon="5.82338">
        <ele>2025.4000244141</ele>
        <time>2023-10-01T10:03:00.000Z</time>
      </trkpt>
      <trkpt lat="45.00615" lon="5.82337">
        <ele>2025.4000244141</ele>
        <time>2023-10-01T10:03:01.000Z</time>
      </trkpt>
      <trkpt lat="45.00615" lon="5.82336">
        <ele>2025.1999511719</ele>
        <time>2023-10-01T10:03:02.000Z</time>
      </trkpt>
      <trkpt lat="45.00615" lon="5.82336">
        <ele>2025</ele>
        <time>2023-10-01T10:03:03.000Z</time>
      </trkpt>
      <trkpt lat="45.00615" lon="5.82336">
        <ele>2024.8000488281</ele>
        <time>2023-10-01T10:03:04.000Z</time>
      </trkpt>
      <trkpt lat="45.00614" lon="5.82335">
        <ele>2024.5999755859</ele>
        <time>2023-10-01T10:03:05.000Z</time>
      </trkpt>
      <trkpt lat="45.00614" lon="5.82335">
        <ele>2024.1999511719</ele>
        <time>2023-10-01T10:03:06.000Z</time>
      </trkpt>
      <trkpt lat="45.00614" lon="5.82335">
        <ele>2024.1999511719</ele>
        <time>2023-10-01T10:03:07.000Z</time>
      </trkpt>
      <trkpt lat="45.00613" lon="5.82334">
        <ele>2024</ele>
        <time>2023-10-01T10:03:08.000Z</time>
      </trkpt>
      <trkpt lat="45.00612" lon="5.82333">
        <ele>2023.5999755859</ele>
        <time>2023-10-01T10:03:09.000Z</time>
      </trkpt>
      <trkpt lat="45.00612" lon="5.82333">
        <ele>2023.4000244141</ele>
        <time>2023-10-01T10:03:10.000Z</time>
      </trkpt>
      <trkpt lat="45.00613" lon="5.82333">
        <ele>2023.1999511719</ele>
        <time>2023-10-01T10:03:11.000Z</time>
      </trkpt>
      <trkpt lat="45.00613" lon="5.82332">
        <ele>2023.1999511719</ele>
        <time>2023-10-01T10:03:12.000Z</time>
      </trkpt>
      <trkpt lat="45.00614" lon="5.82332">
        <ele>2023.1999511719</ele>
        <time>2023-10-01T10:03:13.000Z</time>
      </trkpt>
      <trkpt lat="45.00614" lon="5.82331">
        <ele>2023.1999511719</ele>
        <time>2023-10-01T10:03:14.000Z</time>
      </trkpt>
      <trkpt lat="45.00614" lon="5.82331">
        <ele>2023.1999511719</ele>
        <time>2023-10-01T10:03:15.000Z</time>
      </trkpt>
      <trkpt lat="45.00614" lon="5.82331">
        <ele>2023</ele>
        <time>2023-10-01T10:03:16.000Z</time>
      </trkpt>
      <trkpt lat="45.00615" lon="5.8233">
        <ele>2023</ele>
        <time>2023-10-01T10:03:17.000Z</time>
      </trkpt>
      <trkpt lat="45.00615" lon="5.8233">
        <ele>2022.8000488281</ele>
        <time>2023-10-01T10:03:18.000Z</time>
      </trkpt>
      <trkpt lat="45.00615" lon="5.8233">
        <ele>2022.4000244141</ele>
        <time>2023-10-01T10:03:19.000Z</time>
      </trkpt>
      <trkpt lat="45.00616" lon="5.82329">
        <ele>2022.1999511719</ele>
        <time>2023-10-01T10:03:20.000Z</time>
      </trkpt>
      <trkpt lat="45.00616" lon="5.82329">
        <ele>2022</ele>
        <time>2023-10-01T10:03:21.000Z</time>
      </trkpt>
      <trkpt lat="45.00617" lon="5.82329">
        <ele>2021.8000488281</ele>
        <time>2023-10-01T10:03:22.000Z</time>
      </trkpt>
      <trkpt lat="45.00617" lon="5.82328">
        <ele>2021.5999755859</ele>
        <time>2023-10-01T10:03:23.000Z</time>
      </trkpt>
      <trkpt lat="45.00618" lon="5.82328">
        <ele>2021.5999755859</ele>
        <time>2023-10-01T10:03:24.000Z</time>
      </trkpt>
      <trkpt lat="45.00619" lon="5.82328">
        <ele>2021.4000244141</ele>
        <time>2023-10-01T10:03:25.000Z</time>
      </trkpt>
      <trkpt lat="45.00619" lon="5.82328">
        <ele>2021.4000244141</ele>
        <time>2023-10-01T10:03:26.000Z</time>
      </trkpt>
      <trkpt lat="45.00619" lon="5.82327">
        <ele>2021.1999511719</ele>
        <time>2023-10-01T10:03:27.000Z</time>
      </trkpt>
      <trkpt lat="45.00619" lon="5.82327">
        <ele>2021</ele>
        <time>2023-10-01T10:03:28.000Z</time>
      </trkpt>
      <trkpt lat="45.00618" lon="5.82327">
        <ele>2020.8000488281</ele>
        <time>2023-10-01T10:03:29.000Z</time>
      </trkpt>
      <trkpt lat="45.00619" lon="5.82326">
        <ele>2020.4000244141</ele>
        <time>2023-10-01T10:03:30.000Z</time>
      </trkpt>
      <trkpt lat="45.00618" lon="5.82326">
        <ele>2020.1999511719</ele>
        <time>2023-10-01T10:03:31.000Z</time>
      </trkpt>
      <trkpt lat="45.00618" lon="5.82325">
        <ele>2019.8000488281</ele>
        <time>2023-10-01T10:03:32.000Z</time>
      </trkpt>
      <trkpt lat="45.00618" lon="5.82325">
        <ele>2019.8000488281</ele>
        <time>2023-10-01T10:03:33.000Z</time>
      </trkpt>
      <trkpt lat="45.00617" lon="5.82324">
        <ele>2019.5999755859</ele>
        <time>2023-10-01T10:03:34.000Z</time>
      </trkpt>
      <trkpt lat="45.00616" lon="5.82324">
        <ele>2019.5999755859</ele>
        <time>2023-10-01T10:03:35.000Z</time>
      </trkpt>
      <trkpt lat="45.00615" lon="5.82324">
        <ele>2019.4000244141</ele>
        <time>2023-10-01T10:03:36.000Z</time>
      </trkpt>
      <trkpt lat="45.00614" lon="5.82323">
        <ele>2019.1999511719</ele>
        <time>2023-10-01T10:03:37.000Z</time>
      </trkpt>
      <trkpt lat="45.00613" lon="5.82323">
        <ele>2019.1999511719</ele>
        <time>2023-10-01T10:03:38.000Z</time>
      </trkpt>
      <trkpt lat="45.00611" lon="5.82322">
        <ele>2019</ele>
        <time>2023-10-01T10:03:39.000Z</time>
      </trkpt>
      <trkpt lat="45.0061" lon="5.82322">
        <ele>2019</ele>
        <time>2023-10-01T10:03:40.000Z</time>
      </trkpt>
      <trkpt lat="45.0061" lon="5.82322">
        <ele>2018.8000488281</ele>
        <time>2023-10-01T10:03:41.000Z</time>
      </trkpt>
      <trkpt lat="45.00609" lon="5.82322">
        <ele>2018.5999755859</ele>
        <time>2023-10-01T10:03:42.000Z</time>
      </trkpt>
      <trkpt lat="45.00608" lon="5.82322">
        <ele>2018.5999755859</ele>
        <time>2023-10-01T10:03:43.000Z</time>
      </trkpt>
      <trkpt lat="45.00607" lon="5.82322">
        <ele>2018.5999755859</ele>
        <time>2023-10-01T10:03:44.000Z</time>
      </trkpt>
      <trkpt lat="45.00607" lon="5.82322">
        <ele>2018.5999755859</ele>
        <time>2023-10-01T10:03:45.000Z</time>
      </trkpt>
      <trkpt lat="45.00606" lon="5.82322">
        <ele>2018.5999755859</ele>
        <time>2023-10-01T10:03:46.000Z</time>
      </trkpt>
      <trkpt lat="45.00606" lon="5.82322">
        <ele>2018.5999755859</ele>
        <time>2023-10-01T10:03:47.000Z</time>
      </trkpt>
      <trkpt lat="45.00605" lon="5.82322">
        <ele>2018.5999755859</ele>
        <time>2023-10-01T10:03:48.000Z</time>
      </trkpt>
      <trkpt lat="45.00604" lon="5.82323">
        <ele>2018.5999755859</ele>
        <time>2023-10-01T10:03:49.000Z</time>
      </trkpt>
      <trkpt lat="45.00604" lon="5.82323">
        <ele>2018.5999755859</ele>
        <time>2023-10-01T10:03:50.000Z</time>
      </trkpt>
      <trkpt lat="45.00603" lon="5.82323">
        <ele>2018.5999755859</ele>
        <time>2023-10-01T10:03:51.000Z</time>
      </trkpt>
      <trkpt lat="45.00602" lon="5.82322">
        <ele>2018.5999755859</ele>
        <time>2023-10-01T10:03:52.000Z</time>
      </trkpt>
      <trkpt lat="45.00601" lon="5.82322">
        <ele>2018.5999755859</ele>
        <time>2023-10-01T10:03:53.000Z</time>
      </trkpt>
      <trkpt lat="45.006" lon="5.82321">
        <ele>2018.5999755859</ele>
        <time>2023-10-01T10:03:54.000Z</time>
      </trkpt>
      <trkpt lat="45.00599" lon="5.82321">
        <ele>2018.5999755859</ele>
        <time>2023-10-01T10:03:55.000Z</time>
      </trkpt>
      <trkpt lat="45.00598" lon="5.82321">
        <ele>2018.5999755859</ele>
        <time>2023-10-01T10:03:56.000Z</time>
      </trkpt>
      <trkpt lat="45.00598" lon="5.82321">
        <ele>2018.4000244141</ele>
        <time>2023-10-01T10:03:57.000Z</time>
      </trkpt>
      <trkpt lat="45.00597" lon="5.82321">
        <ele>2018.1999511719</ele>
        <time>2023-10-01T10:03:58.000Z</time>
      </trkpt>
      <trkpt lat="45.00596" lon="5.82321">
        <ele>2018.1999511719</ele>
        <time>2023-10-01T10:03:59.000Z</time>
      </trkpt>
      <trkpt lat="45.00596" lon="5.8232">
        <ele>2018.1999511719</ele>
        <time>2023-10-01T10:04:00.000Z</time>
      </trkpt>
      <trkpt lat="45.00595" lon="5.8232">
        <ele>2018</ele>
        <time>2023-10-01T10:04:01.000Z</time>
      </trkpt>
      <trkpt lat="45.00595" lon="5.8232">
        <ele>2018</ele>
        <time>2023-10-01T10:04:02.000Z</time>
      </trkpt>
      <trkpt lat="45.00595" lon="5.8232">
        <ele>2018</ele>
        <time>2023-10-01T10:04:03.000Z</time>
      </trkpt>
      <trkpt lat="45.00594" lon="5.82319">
        <ele>2017.8000488281</ele>
        <time>2023-10-01T10:04:04.000Z</time>
      </trkpt>
      <trkpt lat="45.00593" lon="5.82319">
        <ele>2017.8000488281</ele>
        <time>2023-10-01T10:04:05.000Z</time>
      </trkpt>
      <trkpt lat="45.00592" lon="5.82319">
        <ele>2017.8000488281</ele>
        <time>2023-10-01T10:04:06.000Z</time>
      </trkpt>
      <trkpt lat="45.0059" lon="5.82318">
        <ele>2017.8000488281</ele>
        <time>2023-10-01T10:04:07.000Z</time>
      </trkpt>
      <trkpt lat="45.00589" lon="5.82318">
        <ele>2017.8000488281</ele>
        <time>2023-10-01T10:04:08.000Z</time>
      </trkpt>
      <trkpt lat="45.00588" lon="5.82318">
        <ele>2018</ele>
        <time>2023-10-01T10:04:09.000Z</time>
      </trkpt>
      <trkpt lat="45.00587" lon="5.82317">
        <ele>2018</ele>
        <time>2023-10-01T10:04:10.000Z</time>
      </trkpt>
      <trkpt lat="45.00586" lon="5.82317">
        <ele>2018</ele>
        <time>2023-10-01T10:04:11.000Z</time>
      </trkpt>
      <trkpt lat="45.00585" lon="5.82317">
        <ele>2018</ele>
        <time>2023-10-01T10:04:12.000Z</time>
      </trkpt>
      <trkpt lat="45.00584" lon="5.82316">
        <ele>2018</ele>
        <time>2023-10-01T10:04:13.000Z</time>
      </trkpt>
      <trkpt lat="45.00583" lon="5.82316">
        <ele>2017.8000488281</ele>
        <time>2023-10-01T10:04:14.000Z</time>
      </trkpt>
      <trkpt lat="45.00583" lon="5.82316">
        <ele>2017.8000488281</ele>
        <time>2023-10-01T10:04:15.000Z</time>
      </trkpt>
      <trkpt lat="45.00582" lon="5.82316">
        <ele>2017.8000488281</ele>
        <time>2023-10-01T10:04:16.000Z</time>
      </trkpt>
      <trkpt lat="45.00581" lon="5.82316">
        <ele>2017.5999755859</ele>
        <time>2023-10-01T10:04:17.000Z</time>
      </trkpt>
      <trkpt lat="45.00581" lon="5.82316">
        <ele>2017.4000244141</ele>
        <time>2023-10-01T10:04:18.000Z</time>
      </trkpt>
      <trkpt lat="45.0058" lon="5.82315">
        <ele>2017.4000244141</ele>
        <time>2023-10-01T10:04:19.000Z</time>
      </trkpt>
      <trkpt lat="45.0058" lon="5.82314">
        <ele>2017.4000244141</ele>
        <time>2023-10-01T10:04:20.000Z</time>
      </trkpt>
      <trkpt lat="45.00579" lon="5.82314">
        <ele>2017.1999511719</ele>
        <time>2023-10-01T10:04:21.000Z</time>
      </trkpt>
      <trkpt lat="45.00578" lon="5.82313">
        <ele>2017.1999511719</ele>
        <time>2023-10-01T10:04:22.000Z</time>
      </trkpt>
      <trkpt lat="45.00578" lon="5.82313">
        <ele>2017.1999511719</ele>
        <time>2023-10-01T10:04:23.000Z</time>
      </trkpt>
      <trkpt lat="45.00577" lon="5.82313">
        <ele>2017</ele>
        <time>2023-10-01T10:04:24.000Z</time>
      </trkpt>
      <trkpt lat="45.00577" lon="5.82312">
        <ele>2017</ele>
        <time>2023-10-01T10:04:25.000Z</time>
      </trkpt>
      <trkpt lat="45.00577" lon="5.82312">
        <ele>2016.8000488281</ele>
        <time>2023-10-01T10:04:26.000Z</time>
      </trkpt>
      <trkpt lat="45.00576" lon="5.82312">
        <ele>2016.8000488281</ele>
        <time>2023-10-01T10:04:27.000Z</time>
      </trkpt>
      <trkpt lat="45.00576" lon="5.82312">
        <ele>2016.8000488281</ele>
        <time>2023-10-01T10:04:28.000Z</time>
      </trkpt>
      <trkpt lat="45.00576" lon="5.82312">
        <ele>2016.5999755859</ele>
        <time>2023-10-01T10:04:29.000Z</time>
      </trkpt>
      <trkpt lat="45.00576" lon="5.82312">
        <ele>2016.5999755859</ele>
        <time>2023-10-01T10:04:30.000Z</time>
      </trkpt>
      <trkpt lat="45.00575" lon="5.82311">
        <ele>2016.5999755859</ele>
        <time>2023-10-01T10:04:31.000Z</time>
      </trkpt>
      <trkpt lat="45.00575" lon="5.82311">
        <ele>2016.5999755859</ele>
        <time>2023-10-01T10:04:32.000Z</time>
      </trkpt>
      <trkpt lat="45.00574" lon="5.82311">
        <ele>2016.4000244141</ele>
        <time>2023-10-01T10:04:33.000Z</time>
      </trkpt>
      <trkpt lat="45.00573" lon="5.82311">
        <ele>2016.1999511719</ele>
        <time>2023-10-01T10:04:34.000Z</time>
      </trkpt>
      <trkpt lat="45.00572" lon="5.82311">
        <ele>2016.1999511719</ele>
        <time>2023-10-01T10:04:35.000Z</time>
      </trkpt>
      <trkpt lat="45.00571" lon="5.8231">
        <ele>2016.1999511719</ele>
        <time>2023-10-01T10:04:36.000Z</time>
      </trkpt>
      <trkpt lat="45.0057" lon="5.8231">
        <ele>2016</ele>
        <time>2023-10-01T10:04:37.000Z</time>
      </trkpt>
      <trkpt lat="45.0057" lon="5.82309">
        <ele>2015.8000488281</ele>
        <time>2023-10-01T10:04:38.000Z</time>
      </trkpt>
      <trkpt lat="45.00569" lon="5.82309">
        <ele>2015.5999755859</ele>
        <time>2023-10-01T10:04:39.000Z</time>
      </trkpt>
      <trkpt lat="45.00568" lon="5.82308">
        <ele>2015.5999755859</ele>
        <time>2023-10-01T10:04:40.000Z</time>
      </trkpt>
      <trkpt lat="45.00568" lon="5.82308">
        <ele>2015.5999755859</ele>
        <time>2023-10-01T10:04:41.000Z</time>
      </trkpt>
      <trkpt lat="45.00567" lon="5.82308">
        <ele>2015.5999755859</ele>
        <time>2023-10-01T10:04:42.000Z</time>
      </trkpt>
      <trkpt lat="45.00566" lon="5.82307">
        <ele>2015.4000244141</ele>
        <time>2023-10-01T10:04:43.000Z</time>
      </trkpt>
      <trkpt lat="45.00565" lon="5.82307">
        <ele>2015.4000244141</ele>
        <time>2023-10-01T10:04:44.000Z</time>
      </trkpt>
      <trkpt lat="45.00565" lon="5.82306">
        <ele>2015.1999511719</ele>
        <time>2023-10-01T10:04:45.000Z</time>
      </trkpt>
      <trkpt lat="45.00564" lon="5.82306">
        <ele>2015</ele>
        <time>2023-10-01T10:04:46.000Z</time>
      </trkpt>
      <trkpt lat="45.00564" lon="5.82305">
        <ele>2015</ele>
        <time>2023-10-01T10:04:47.000Z</time>
      </trkpt>
      <trkpt lat="45.00563" lon="5.82305">
        <ele>2015</ele>
        <time>2023-10-01T10:04:48.000Z</time>
      </trkpt>
      <trkpt lat="45.00562" lon="5.82304">
        <ele>2015</ele>
        <time>2023-10-01T10:04:49.000Z</time>
      </trkpt>
      <trkpt lat="45.00562" lon="5.82304">
        <ele>2015</ele>
        <time>2023-10-01T10:04:50.000Z</time>
      </trkpt>
      <trkpt lat="45.00562" lon="5.82304">
        <ele>2014.5999755859</ele>
        <time>2023-10-01T10:04:51.000Z</time>
      </trkpt>
      <trkpt lat="45.00561" lon="5.82303">
        <ele>2014.1999511719</ele>
        <time>2023-10-01T10:04:52.000Z</time>
      </trkpt>
      <trkpt lat="45.00562" lon="5.82303">
        <ele>2014.1999511719</ele>
        <time>2023-10-01T10:04:53.000Z</time>
      </trkpt>
      <trkpt lat="45.00561" lon="5.82302">
        <ele>2014.1999511719</ele>
        <time>2023-10-01T10:04:54.000Z</time>
      </trkpt>
      <trkpt lat="45.00561" lon="5.82301">
        <ele>2014</ele>
        <time>2023-10-01T10:04:55.000Z</time>
      </trkpt>
      <trkpt lat="45.0056" lon="5.82301">
        <ele>2014</ele>
        <time>2023-10-01T10:04:56.000Z</time>
      </trkpt>
      <trkpt lat="45.0056" lon="5.823">
        <ele>2013.8000488281</ele>
        <time>2023-10-01T10:04:57.000Z</time>
      </trkpt>
      <trkpt lat="45.00559" lon="5.82299">
        <ele>2013.4000244141</ele>
        <time>2023-10-01T10:04:58.000Z</time>
      </trkpt>
      <trkpt lat="45.00559" lon="5.82299">
        <ele>2013.1999511719</ele>
        <time>2023-10-01T10:04:59.000Z</time>
      </trkpt>
      <trkpt lat="45.00559" lon="5.82299">
        <ele>2012.8000488281</ele>
        <time>2023-10-01T10:05:00.000Z</time>
      </trkpt>
      <trkpt lat="45.00558" lon="5.82299">
        <ele>2012.5999755859</ele>
        <time>2023-10-01T10:05:01.000Z</time>
      </trkpt>
      <trkpt lat="45.00558" lon="5.82298">
        <ele>2012.4000244141</ele>
        <time>2023-10-01T10:05:02.000Z</time>
      </trkpt>
      <trkpt lat="45.00558" lon="5.82298">
        <ele>2012.4000244141</ele>
        <time>2023-10-01T10:05:03.000Z</time>
      </trkpt>
      <trkpt lat="45.00558" lon="5.82297">
        <ele>2012</ele>
        <time>2023-10-01T10:05:04.000Z</time>
      </trkpt>
      <trkpt lat="45.00558" lon="5.82296">
        <ele>2012</ele>
        <time>2023-10-01T10:05:05.000Z</time>
      </trkpt>
      <trkpt lat="45.00557" lon="5.82296">
        <ele>2012</ele>
        <time>2023-10-01T10:05:06.000Z</time>
      </trkpt>
      <trkpt lat="45.00557" lon="5.82295">
        <ele>2011.8000488281</ele>
        <time>2023-10-01T10:05:07.000Z</time>
      </trkpt>
      <trkpt lat="45.00557" lon="5.82294">
        <ele>2011.4000244141</ele>
        <time>2023-10-01T10:05:08.000Z</time>
      </trkpt>
      <trkpt lat="45.00556" lon="5.82294">
        <ele>2011.1999511719</ele>
        <time>2023-10-01T10:05:09.000Z</time>
      </trkpt>
      <trkpt lat="45.00556" lon="5.82294">
        <ele>2010.8000488281</ele>
        <time>2023-10-01T10:05:10.000Z</time>
      </trkpt>
      <trkpt lat="45.00555" lon="5.82293">
        <ele>2010.8000488281</ele>
        <time>2023-10-01T10:05:11.000Z</time>
      </trkpt>
      <trkpt lat="45.00554" lon="5.82293">
        <ele>2010.5999755859</ele>
        <time>2023-10-01T10:05:12.000Z</time>
      </trkpt>
      <trkpt lat="45.00554" lon="5.82293">
        <ele>2010.5999755859</ele>
        <time>2023-10-01T10:05:13.000Z</time>
      </trkpt>
      <trkpt lat="45.00553" lon="5.82292">
        <ele>2010.4000244141</ele>
        <time>2023-10-01T10:05:14.000Z</time>
      </trkpt>
      <trkpt lat="45.00553" lon="5.82292">
        <ele>2010.4000244141</ele>
        <time>2023-10-01T10:05:15.000Z</time>
      </trkpt>
      <trkpt lat="45.00552" lon="5.82291">
        <ele>2010.1999511719</ele>
        <time>2023-10-01T10:05:16.000Z</time>
      </trkpt>
      <trkpt lat="45.00552" lon="5.82291">
        <ele>2010</ele>
        <time>2023-10-01T10:05:17.000Z</time>
      </trkpt>
      <trkpt lat="45.00552" lon="5.82291">
        <ele>2009.8000488281</ele>
        <time>2023-10-01T10:05:18.000Z</time>
      </trkpt>
      <trkpt lat="45.00551" lon="5.8229">
        <ele>2009.4000244141</ele>
        <time>2023-10-01T10:05:19.000Z</time>
      </trkpt>
      <trkpt lat="45.00551" lon="5.8229">
        <ele>2009</ele>
        <time>2023-10-01T10:05:20.000Z</time>
      </trkpt>
      <trkpt lat="45.0055" lon="5.82289">
        <ele>2008.8000488281</ele>
        <time>2023-10-01T10:05:21.000Z</time>
      </trkpt>
      <trkpt lat="45.0055" lon="5.82288">
        <ele>2008.4000244141</ele>
        <time>2023-10-01T10:05:22.000Z</time>
      </trkpt>
      <trkpt lat="45.00549" lon="5.82288">
        <ele>2008</ele>
        <time>2023-10-01T10:05:23.000Z</time>
      </trkpt>
      <trkpt lat="45.00549" lon="5.82287">
        <ele>2007.8000488281</ele>
        <time>2023-10-01T10:05:24.000Z</time>
      </trkpt>
      <trkpt lat="45.00549" lon="5.82287">
        <ele>2007.5999755859</ele>
        <time>2023-10-01T10:05:25.000Z</time>
      </trkpt>
      <trkpt lat="45.00549" lon="5.82286">
        <ele>2007.5999755859</ele>
        <time>2023-10-01T10:05:26.000Z</time>
      </trkpt>
      <trkpt lat="45.00549" lon="5.82285">
        <ele>2007.1999511719</ele>
        <time>2023-10-01T10:05:27.000Z</time>
      </trkpt>
      <trkpt lat="45.00548" lon="5.82284">
        <ele>2007</ele>
        <time>2023-10-01T10:05:28.000Z</time>
      </trkpt>
      <trkpt lat="45.00548" lon="5.82284">
        <ele>2006.5999755859</ele>
        <time>2023-10-01T10:05:29.000Z</time>
      </trkpt>
      <trkpt lat="45.00548" lon="5.82283">
        <ele>2006.4000244141</ele>
        <time>2023-10-01T10:05:30.000Z</time>
      </trkpt>
      <trkpt lat="45.00548" lon="5.82282">
        <ele>2006.4000244141</ele>
        <time>2023-10-01T10:05:31.000Z</time>
      </trkpt>
      <trkpt lat="45.00548" lon="5.82282">
        <ele>2006.4000244141</ele>
        <time>2023-10-01T10:05:32.000Z</time>
      </trkpt>
      <trkpt lat="45.00548" lon="5.82281">
        <ele>2006.1999511719</ele>
        <time>2023-10-01T10:05:33.000Z</time>
      </trkpt>
      <trkpt lat="45.00547" lon="5.82281">
        <ele>2006</ele>
        <time>2023-10-01T10:05:34.000Z</time>
      </trkpt>
      <trkpt lat="45.00547" lon="5.82281">
        <ele>2006</ele>
        <time>2023-10-01T10:05:35.000Z</time>
      </trkpt>
      <trkpt lat="45.00547" lon="5.82281">
        <ele>2005.8000488281</ele>
        <time>2023-10-01T10:05:36.000Z</time>
      </trkpt>
      <trkpt lat="45.00546" lon="5.8228">
        <ele>2005.8000488281</ele>
        <time>2023-10-01T10:05:37.000Z</time>
      </trkpt>
      <trkpt lat="45.00546" lon="5.8228">
        <ele>2005.5999755859</ele>
        <time>2023-10-01T10:05:38.000Z</time>
      </trkpt>
      <trkpt lat="45.00546" lon="5.82279">
        <ele>2005.4000244141</ele>
        <time>2023-10-01T10:05:39.000Z</time>
      </trkpt>
      <trkpt lat="45.00546" lon="5.82279">
        <ele>2005.4000244141</ele>
        <time>2023-10-01T10:05:40.000Z</time>
      </trkpt>
      <trkpt lat="45.00545" lon="5.82278">
        <ele>2005.1999511719</ele>
        <time>2023-10-01T10:05:41.000Z</time>
      </trkpt>
      <trkpt lat="45.00545" lon="5.82277">
        <ele>2005</ele>
        <time>2023-10-01T10:05:42.000Z</time>
      </trkpt>
      <trkpt lat="45.00545" lon="5.82277">
        <ele>2004.8000488281</ele>
        <time>2023-10-01T10:05:43.000Z</time>
      </trkpt>
      <trkpt lat="45.00544" lon="5.82276">
        <ele>2004.5999755859</ele>
        <time>2023-10-01T10:05:44.000Z</time>
      </trkpt>
      <trkpt lat="45.00544" lon="5.82276">
        <ele>2004.5999755859</ele>
        <time>2023-10-01T10:05:45.000Z</time>
      </trkpt>
      <trkpt lat="45.00543" lon="5.82275">
        <ele>2004.4000244141</ele>
        <time>2023-10-01T10:05:46.000Z</time>
      </trkpt>
      <trkpt lat="45.00542" lon="5.82275">
        <ele>2004</ele>
        <time>2023-10-01T10:05:47.000Z</time>
      </trkpt>
      <trkpt lat="45.00542" lon="5.82275">
        <ele>2003.8000488281</ele>
        <time>2023-10-01T10:05:48.000Z</time>
      </trkpt>
      <trkpt lat="45.00541" lon="5.82274">
        <ele>2003.4000244141</ele>
        <time>2023-10-01T10:05:49.000Z</time>
      </trkpt>
      <trkpt lat="45.00541" lon="5.82275">
        <ele>2003.4000244141</ele>
        <time>2023-10-01T10:05:50.000Z</time>
      </trkpt>
      <trkpt lat="45.00541" lon="5.82274">
        <ele>2003.1999511719</ele>
        <time>2023-10-01T10:05:51.000Z</time>
      </trkpt>
      <trkpt lat="45.00541" lon="5.82274">
        <ele>2003</ele>
        <time>2023-10-01T10:05:52.000Z</time>
      </trkpt>
      <trkpt lat="45.00541" lon="5.82274">
        <ele>2003</ele>
        <time>2023-10-01T10:05:53.000Z</time>
      </trkpt>
      <trkpt lat="45.0054" lon="5.82273">
        <ele>2003</ele>
        <time>2023-10-01T10:05:54.000Z</time>
      </trkpt>
      <trkpt lat="45.0054" lon="5.82273">
        <ele>2002.8000488281</ele>
        <time>2023-10-01T10:05:55.000Z</time>
      </trkpt>
      <trkpt lat="45.0054" lon="5.82273">
        <ele>2002.4000244141</ele>
        <time>2023-10-01T10:05:56.000Z</time>
      </trkpt>
      <trkpt lat="45.0054" lon="5.82273">
        <ele>2002.1999511719</ele>
        <time>2023-10-01T10:05:57.000Z</time>
      </trkpt>
      <trkpt lat="45.0054" lon="5.82272">
        <ele>2002</ele>
        <time>2023-10-01T10:05:58.000Z</time>
      </trkpt>
      <trkpt lat="45.0054" lon="5.82272">
        <ele>2001.5999755859</ele>
        <time>2023-10-01T10:05:59.000Z</time>
      </trkpt>
      <trkpt lat="45.00539" lon="5.82271">
        <ele>2001.1999511719</ele>
        <time>2023-10-01T10:06:00.000Z</time>
      </trkpt>
      <trkpt lat="45.00539" lon="5.82271">
        <ele>2001</ele>
        <time>2023-10-01T10:06:01.000Z</time>
      </trkpt>
      <trkpt lat="45.00539" lon="5.8227">
        <ele>2000.8000488281</ele>
        <time>2023-10-01T10:06:02.000Z</time>
      </trkpt>
      <trkpt lat="45.00538" lon="5.82269">
        <ele>2000.4000244141</ele>
        <time>2023-10-01T10:06:03.000Z</time>
      </trkpt>
      <trkpt lat="45.00538" lon="5.82268">
        <ele>2000.4000244141</ele>
        <time>2023-10-01T10:06:04.000Z</time>
      </trkpt>
      <trkpt lat="45.00538" lon="5.82268">
        <ele>2000.1999511719</ele>
        <time>2023-10-01T10:06:05.000Z</time>
      </trkpt>
      <trkpt lat="45.00537" lon="5.82267">
        <ele>2000</ele>
        <time>2023-10-01T10:06:06.000Z</time>
      </trkpt>
      <trkpt lat="45.00537" lon="5.82267">
        <ele>1999.8000488281</ele>
        <time>2023-10-01T10:06:07.000Z</time>
      </trkpt>
      <trkpt lat="45.00537" lon="5.82267">
        <ele>1999.8000488281</ele>
        <time>2023-10-01T10:06:08.000Z</time>
      </trkpt>
      <trkpt lat="45.00537" lon="5.82266">
        <ele>1999.5999755859</ele>
        <time>2023-10-01T10:06:09.000Z</time>
      </trkpt>
      <trkpt lat="45.00537" lon="5.82266">
        <ele>1999.4000244141</ele>
        <time>2023-10-01T10:06:10.000Z</time>
      </trkpt>
      <trkpt lat="45.00537" lon="5.82265">
        <ele>1999</ele>
        <time>2023-10-01T10:06:11.000Z</time>
      </trkpt>
      <trkpt lat="45.00537" lon="5.82264">
        <ele>1998.8000488281</ele>
        <time>2023-10-01T10:06:12.000Z</time>
      </trkpt>
      <trkpt lat="45.00536" lon="5.82264">
        <ele>1998.4000244141</ele>
        <time>2023-10-01T10:06:13.000Z</time>
      </trkpt>
      <trkpt lat="45.00537" lon="5.82263">
        <ele>1998.4000244141</ele>
        <time>2023-10-01T10:06:14.000Z</time>
      </trkpt>
      <trkpt lat="45.00536" lon="5.82262">
        <ele>1997.8000488281</ele>
        <time>2023-10-01T10:06:15.000Z</time>
      </trkpt>
      <trkpt lat="45.00536" lon="5.82262">
        <ele>1997.5999755859</ele>
        <time>2023-10-01T10:06:16.000Z</time>
      </trkpt>
      <trkpt lat="45.00536" lon="5.82261">
        <ele>1997.4000244141</ele>
        <time>2023-10-01T10:06:17.000Z</time>
      </trkpt>
      <trkpt lat="45.00536" lon="5.82261">
        <ele>1997.4000244141</ele>
        <time>2023-10-01T10:06:18.000Z</time>
      </trkpt>
      <trkpt lat="45.00536" lon="5.8226">
        <ele>1997.4000244141</ele>
        <time>2023-10-01T10:06:19.000Z</time>
      </trkpt>
      <trkpt lat="45.00535" lon="5.8226">
        <ele>1997.1999511719</ele>
        <time>2023-10-01T10:06:20.000Z</time>
      </trkpt>
      <trkpt lat="45.00535" lon="5.82259">
        <ele>1996.8000488281</ele>
        <time>2023-10-01T10:06:21.000Z</time>
      </trkpt>
      <trkpt lat="45.00535" lon="5.82259">
        <ele>1996.5999755859</ele>
        <time>2023-10-01T10:06:22.000Z</time>
      </trkpt>
      <trkpt lat="45.00535" lon="5.82258">
        <ele>1996.5999755859</ele>
        <time>2023-10-01T10:06:23.000Z</time>
      </trkpt>
      <trkpt lat="45.00535" lon="5.82258">
        <ele>1996</ele>
        <time>2023-10-01T10:06:24.000Z</time>
      </trkpt>
      <trkpt lat="45.00534" lon="5.82257">
        <ele>1995.8000488281</ele>
        <time>2023-10-01T10:06:25.000Z</time>
      </trkpt>
      <trkpt lat="45.00534" lon="5.82257">
        <ele>1995.5999755859</ele>
        <time>2023-10-01T10:06:26.000Z</time>
      </trkpt>
      <trkpt lat="45.00534" lon="5.82256">
        <ele>1995.4000244141</ele>
        <time>2023-10-01T10:06:27.000Z</time>
      </trkpt>
      <trkpt lat="45.00534" lon="5.82256">
        <ele>1995.4000244141</ele>
        <time>2023-10-01T10:06:28.000Z</time>
      </trkpt>
      <trkpt lat="45.00534" lon="5.82256">
        <ele>1995</ele>
        <time>2023-10-01T10:06:29.000Z</time>
      </trkpt>
      <trkpt lat="45.00534" lon="5.82255">
        <ele>1995</ele>
        <time>2023-10-01T10:06:30.000Z</time>
      </trkpt>
      <trkpt lat="45.00533" lon="5.82255">
        <ele>1994.8000488281</ele>
        <time>2023-10-01T10:06:31.000Z</time>
      </trkpt>
      <trkpt lat="45.00532" lon="5.82254">
        <ele>1994.5999755859</ele>
        <time>2023-10-01T10:06:32.000Z</time>
      </trkpt>
      <trkpt lat="45.00532" lon="5.82253">
        <ele>1994.4000244141</ele>
        <time>2023-10-01T10:06:33.000Z</time>
      </trkpt>
      <trkpt lat="45.00531" lon="5.82253">
        <ele>1994.1999511719</ele>
        <time>2023-10-01T10:06:34.000Z</time>
      </trkpt>
      <trkpt lat="45.00531" lon="5.82252">
        <ele>1993.8000488281</ele>
        <time>2023-10-01T10:06:35.000Z</time>
      </trkpt>
      <trkpt lat="45.00531" lon="5.82252">
        <ele>1993.4000244141</ele>
        <time>2023-10-01T10:06:36.000Z</time>
      </trkpt>
      <trkpt lat="45.00531" lon="5.82251">
        <ele>1993.1999511719</ele>
        <time>2023-10-01T10:06:37.000Z</time>
      </trkpt>
      <trkpt lat="45.0053" lon="5.82251">
        <ele>1992.8000488281</ele>
        <time>2023-10-01T10:06:38.000Z</time>
      </trkpt>
      <trkpt lat="45.0053" lon="5.82251">
        <ele>1992.1999511719</ele>
        <time>2023-10-01T10:06:39.000Z</time>
      </trkpt>
      <trkpt lat="45.0053" lon="5.8225">
        <ele>1992.1999511719</ele>
        <time>2023-10-01T10:06:40.000Z</time>
      </trkpt>
      <trkpt lat="45.0053" lon="5.8225">
        <ele>1992</ele>
        <time>2023-10-01T10:06:41.000Z</time>
      </trkpt>
      <trkpt lat="45.0053" lon="5.8225">
        <ele>1992</ele>
        <time>2023-10-01T10:06:42.000Z</time>
      </trkpt>
      <trkpt lat="45.0053" lon="5.82249">
        <ele>1992</ele>
        <time>2023-10-01T10:06:43.000Z</time>
      </trkpt>
      <trkpt lat="45.00529" lon="5.82249">
        <ele>1991.5999755859</ele>
        <time>2023-10-01T10:06:44.000Z</time>
      </trkpt>
      <trkpt lat="45.00529" lon="5.82249">
        <ele>1991.5999755859</ele>
        <time>2023-10-01T10:06:45.000Z</time>
      </trkpt>
      <trkpt lat="45.00529" lon="5.82248">
        <ele>1991.4000244141</ele>
        <time>2023-10-01T10:06:46.000Z</time>
      </trkpt>
      <trkpt lat="45.00529" lon="5.82248">
        <ele>1991.4000244141</ele>
        <time>2023-10-01T10:06:47.000Z</time>
      </trkpt>
      <trkpt lat="45.00529" lon="5.82249">
        <ele>1991.1999511719</ele>
        <time>2023-10-01T10:06:48.000Z</time>
      </trkpt>
      <trkpt lat="45.00528" lon="5.82247">
        <ele>1990.5999755859</ele>
        <time>2023-10-01T10:06:49.000Z</time>
      </trkpt>
      <trkpt lat="45.00528" lon="5.82246">
        <ele>1990.1999511719</ele>
        <time>2023-10-01T10:06:50.000Z</time>
      </trkpt>
      <trkpt lat="45.00528" lon="5.82246">
        <ele>1990</ele>
        <time>2023-10-01T10:06:51.000Z</time>
      </trkpt>
      <trkpt lat="45.00528" lon="5.82246">
        <ele>1990</ele>
        <time>2023-10-01T10:06:52.000Z</time>
      </trkpt>
      <trkpt lat="45.00528" lon="5.82245">
        <ele>1990</ele>
        <time>2023-10-01T10:06:53.000Z</time>
      </trkpt>
      <trkpt lat="45.00528" lon="5.82245">
        <ele>1990</ele>
        <time>2023-10-01T10:06:54.000Z</time>
      </trkpt>
      <trkpt lat="45.00527" lon="5.82245">
        <ele>1990</ele>
        <time>2023-10-01T10:06:55.000Z</time>
      </trkpt>
      <trkpt lat="45.00527" lon="5.82245">
        <ele>1990</ele>
        <time>2023-10-01T10:06:56.000Z</time>
      </trkpt>
      <trkpt lat="45.00527" lon="5.82245">
        <ele>1990</ele>
        <time>2023-10-01T10:06:57.000Z</time>
      </trkpt>
      <trkpt lat="45.00527" lon="5.82245">
        <ele>1990</ele>
        <time>2023-10-01T10:06:58.000Z</time>
      </trkpt>
      <trkpt lat="45.00527" lon="5.82245">
        <ele>1990</ele>
        <time>2023-10-01T10:06:59.000Z</time>
      </trkpt>
      <trkpt lat="45.00527" lon="5.82245">
        <ele>1990</ele>
        <time>2023-10-01T10:07:00.000Z</time>
      </trkpt>
      <trkpt lat="45.00527" lon="5.82245">
        <ele>1990</ele>
        <time>2023-10-01T10:07:01.000Z</time>
      </trkpt>
      <trkpt lat="45.00527" lon="5.82245">
        <ele>1990</ele>
        <time>2023-10-01T10:07:02.000Z</time>
      </trkpt>
      <trkpt lat="45.00527" lon="5.82245">
        <ele>1990</ele>
        <time>2023-10-01T10:07:03.000Z</time>
      </trkpt>
      <trkpt lat="45.00527" lon="5.82245">
        <ele>1989.8000488281</ele>
        <time>2023-10-01T10:07:04.000Z</time>
      </trkpt>
      <trkpt lat="45.00527" lon="5.82245">
        <ele>1989.8000488281</ele>
        <time>2023-10-01T10:07:05.000Z</time>
      </trkpt>
      <trkpt lat="45.00526" lon="5.82244">
        <ele>1989.8000488281</ele>
        <time>2023-10-01T10:07:06.000Z</time>
      </trkpt>
      <trkpt lat="45.00526" lon="5.82244">
        <ele>1989.8000488281</ele>
        <time>2023-10-01T10:07:07.000Z</time>
      </trkpt>
      <trkpt lat="45.00525" lon="5.82243">
        <ele>1989.4000244141</ele>
        <time>2023-10-01T10:07:08.000Z</time>
      </trkpt>
      <trkpt lat="45.00525" lon="5.82243">
        <ele>1989.1999511719</ele>
        <time>2023-10-01T10:07:09.000Z</time>
      </trkpt>
      <trkpt lat="45.00525" lon="5.82242">
        <ele>1989.1999511719</ele>
        <time>2023-10-01T10:07:10.000Z</time>
      </trkpt>
      <trkpt lat="45.00525" lon="5.82242">
        <ele>1989</ele>
        <time>2023-10-01T10:07:11.000Z</time>
      </trkpt>
      <trkpt lat="45.00525" lon="5.82242">
        <ele>1988.8000488281</ele>
        <time>2023-10-01T10:07:12.000Z</time>
      </trkpt>
      <trkpt lat="45.00524" lon="5.82242">
        <ele>1988.8000488281</ele>
        <time>2023-10-01T10:07:13.000Z</time>
      </trkpt>
      <trkpt lat="45.00524" lon="5.82241">
        <ele>1988.5999755859</ele>
        <time>2023-10-01T10:07:14.000Z</time>
      </trkpt>
      <trkpt lat="45.00524" lon="5.82241">
        <ele>1988.5999755859</ele>
        <time>2023-10-01T10:07:15.000Z</time>
      </trkpt>
      <trkpt lat="45.00524" lon="5.82241">
        <ele>1988.5999755859</ele>
        <time>2023-10-01T10:07:16.000Z</time>
      </trkpt>
      <trkpt lat="45.00524" lon="5.8224">
        <ele>1988.4000244141</ele>
        <time>2023-10-01T10:07:17.000Z</time>
      </trkpt>
      <trkpt lat="45.00523" lon="5.8224">
        <ele>1988.1999511719</ele>
        <time>2023-10-01T10:07:18.000Z</time>
      </trkpt>
      <trkpt lat="45.00522" lon="5.82239">
        <ele>1988</ele>
        <time>2023-10-01T10:07:19.000Z</time>
      </trkpt>
      <trkpt lat="45.00521" lon="5.82238">
        <ele>1988</ele>
        <time>2023-10-01T10:07:20.000Z</time>
      </trkpt>
      <trkpt lat="45.00521" lon="5.82238">
        <ele>1987.8000488281</ele>
        <time>2023-10-01T10:07:21.000Z</time>
      </trkpt>
      <trkpt lat="45.00521" lon="5.82237">
        <ele>1987.1999511719</ele>
        <time>2023-10-01T10:07:22.000Z</time>
      </trkpt>
      <trkpt lat="45.00521" lon="5.82237">
        <ele>1987</ele>
        <time>2023-10-01T10:07:23.000Z</time>
      </trkpt>
      <trkpt lat="45.00521" lon="5.82236">
        <ele>1986.8000488281</ele>
        <time>2023-10-01T10:07:24.000Z</time>
      </trkpt>
      <trkpt lat="45.0052" lon="5.82236">
        <ele>1986.8000488281</ele>
        <time>2023-10-01T10:07:25.000Z</time>
      </trkpt>
      <trkpt lat="45.0052" lon="5.82235">
        <ele>1986.5999755859</ele>
        <time>2023-10-01T10:07:26.000Z</time>
      </trkpt>
      <trkpt lat="45.0052" lon="5.82235">
        <ele>1986.1999511719</ele>
        <time>2023-10-01T10:07:27.000Z</time>
      </trkpt>
      <trkpt lat="45.0052" lon="5.82234">
        <ele>1985.5999755859</ele>
        <time>2023-10-01T10:07:28.000Z</time>
      </trkpt>
      <trkpt lat="45.0052" lon="5.82233">
        <ele>1985.5999755859</ele>
        <time>2023-10-01T10:07:29.000Z</time>
      </trkpt>
      <trkpt lat="45.00519" lon="5.82233">
        <ele>1985.4000244141</ele>
        <time>2023-10-01T10:07:30.000Z</time>
      </trkpt>
      <trkpt lat="45.00519" lon="5.82233">
        <ele>1985.4000244141</ele>
        <time>2023-10-01T10:07:31.000Z</time>
      </trkpt>
      <trkpt lat="45.00519" lon="5.82232">
        <ele>1985.4000244141</ele>
        <time>2023-10-01T10:07:32.000Z</time>
      </trkpt>
      <trkpt lat="45.0052" lon="5.82232">
        <ele>1985.4000244141</ele>
        <time>2023-10-01T10:07:33.000Z</time>
      </trkpt>
      <trkpt lat="45.0052" lon="5.82232">
        <ele>1985.1999511719</ele>
        <time>2023-10-01T10:07:34.000Z</time>
      </trkpt>
      <trkpt lat="45.0052" lon="5.82232">
        <ele>1985.1999511719</ele>
        <time>2023-10-01T10:07:35.000Z</time>
      </trkpt>
      <trkpt lat="45.0052" lon="5.82232">
        <ele>1985.1999511719</ele>
        <time>2023-10-01T10:07:36.000Z</time>
      </trkpt>
      <trkpt lat="45.0052" lon="5.82231">
        <ele>1985</ele>
        <time>2023-10-01T10:07:37.000Z</time>
      </trkpt>
      <trkpt lat="45.0052" lon="5.8223">
        <ele>1984.1999511719</ele>
        <time>2023-10-01T10:07:38.000Z</time>
      </trkpt>
      <trkpt lat="45.00519" lon="5.8223">
        <ele>1983.8000488281</ele>
        <time>2023-10-01T10:07:39.000Z</time>
      </trkpt>
      <trkpt lat="45.00519" lon="5.82229">
        <ele>1983.5999755859</ele>
        <time>2023-10-01T10:07:40.000Z</time>
      </trkpt>
      <trkpt lat="45.00519" lon="5.82228">
        <ele>1983.5999755859</ele>
        <time>2023-10-01T10:07:41.000Z</time>
      </trkpt>
      <trkpt lat="45.00518" lon="5.82227">
        <ele>1983.1999511719</ele>
        <time>2023-10-01T10:07:42.000Z</time>
      </trkpt>
      <trkpt lat="45.00518" lon="5.82226">
        <ele>1983.1999511719</ele>
        <time>2023-10-01T10:07:43.000Z</time>
      </trkpt>
      <trkpt lat="45.00518" lon="5.82225">
        <ele>1983</ele>
        <time>2023-10-01T10:07:44.000Z</time>
      </trkpt>
      <trkpt lat="45.00518" lon="5.82225">
        <ele>1982.8000488281</ele>
        <time>2023-10-01T10:07:45.000Z</time>
      </trkpt>
      <trkpt lat="45.00519" lon="5.82224">
        <ele>1982.5999755859</ele>
        <time>2023-10-01T10:07:46.000Z</time>
      </trkpt>
      <trkpt lat="45.00519" lon="5.82224">
        <ele>1982.5999755859</ele>
        <time>2023-10-01T10:07:47.000Z</time>
      </trkpt>
      <trkpt lat="45.00519" lon="5.82224">
        <ele>1982.5999755859</ele>
        <time>2023-10-01T10:07:48.000Z</time>
      </trkpt>
      <trkpt lat="45.0052" lon="5.82224">
        <ele>1982.5999755859</ele>
        <time>2023-10-01T10:07:49.000Z</time>
      </trkpt>
      <trkpt lat="45.00521" lon="5.82224">
        <ele>1982.5999755859</ele>
        <time>2023-10-01T10:07:50.000Z</time>
      </trkpt>
      <trkpt lat="45.00521" lon="5.82225">
        <ele>1982.4000244141</ele>
        <time>2023-10-01T10:07:51.000Z</time>
      </trkpt>
      <trkpt lat="45.00522" lon="5.82226">
        <ele>1982.1999511719</ele>
        <time>2023-10-01T10:07:52.000Z</time>
      </trkpt>
      <trkpt lat="45.00523" lon="5.82227">
        <ele>1982.1999511719</ele>
        <time>2023-10-01T10:07:53.000Z</time>
      </trkpt>
      <trkpt lat="45.00524" lon="5.82227">
        <ele>1982</ele>
        <time>2023-10-01T10:07:54.000Z</time>
      </trkpt>
      <trkpt lat="45.00525" lon="5.82228">
        <ele>1981.8000488281</ele>
        <time>2023-10-01T10:07:55.000Z</time>
      </trkpt>
      <trkpt lat="45.00526" lon="5.82228">
        <ele>1981.8000488281</ele>
        <time>2023-10-01T10:07:56.000Z</time>
      </trkpt>
      <trkpt lat="45.00527" lon="5.82229">
        <ele>1981.8000488281</ele>
        <time>2023-10-01T10:07:57.000Z</time>
      </trkpt>
      <trkpt lat="45.00528" lon="5.82229">
        <ele>1981.8000488281</ele>
        <time>2023-10-01T10:07:58.000Z</time>
      </trkpt>
      <trkpt lat="45.00529" lon="5.82229">
        <ele>1981.5999755859</ele>
        <time>2023-10-01T10:07:59.000Z</time>
      </trkpt>
      <trkpt lat="45.00529" lon="5.82229">
        <ele>1981.5999755859</ele>
        <time>2023-10-01T10:08:00.000Z</time>
      </trkpt>
      <trkpt lat="45.0053" lon="5.82229">
        <ele>1981.4000244141</ele>
        <time>2023-10-01T10:08:01.000Z</time>
      </trkpt>
      <trkpt lat="45.00531" lon="5.82228">
        <ele>1981.4000244141</ele>
        <time>2023-10-01T10:08:02.000Z</time>
      </trkpt>
      <trkpt lat="45.00532" lon="5.82228">
        <ele>1981.1999511719</ele>
        <time>2023-10-01T10:08:03.000Z</time>
      </trkpt>
      <trkpt lat="45.00533" lon="5.82228">
        <ele>1981.1999511719</ele>
        <time>2023-10-01T10:08:04.000Z</time>
      </trkpt>
      <trkpt lat="45.00533" lon="5.82227">
        <ele>1981.1999511719</ele>
        <time>2023-10-01T10:08:05.000Z</time>
      </trkpt>
      <trkpt lat="45.00533" lon="5.82227">
        <ele>1981.1999511719</ele>
        <time>2023-10-01T10:08:06.000Z</time>
      </trkpt>
      <trkpt lat="45.00532" lon="5.82227">
        <ele>1981</ele>
        <time>2023-10-01T10:08:07.000Z</time>
      </trkpt>
      <trkpt lat="45.00532" lon="5.82226">
        <ele>1981</ele>
        <time>2023-10-01T10:08:08.000Z</time>
      </trkpt>
      <trkpt lat="45.00532" lon="5.82225">
        <ele>1980.8000488281</ele>
        <time>2023-10-01T10:08:09.000Z</time>
      </trkpt>
      <trkpt lat="45.00531" lon="5.82224">
        <ele>1980.5999755859</ele>
        <time>2023-10-01T10:08:10.000Z</time>
      </trkpt>
      <trkpt lat="45.00531" lon="5.82224">
        <ele>1980.1999511719</ele>
        <time>2023-10-01T10:08:11.000Z</time>
      </trkpt>
      <trkpt lat="45.00531" lon="5.82223">
        <ele>1980</ele>
        <time>2023-10-01T10:08:12.000Z</time>
      </trkpt>
      <trkpt lat="45.00531" lon="5.82223">
        <ele>1980</ele>
        <time>2023-10-01T10:08:13.000Z</time>
      </trkpt>
      <trkpt lat="45.0053" lon="5.82222">
        <ele>1979.5999755859</ele>
        <time>2023-10-01T10:08:14.000Z</time>
      </trkpt>
      <trkpt lat="45.0053" lon="5.82222">
        <ele>1979.4000244141</ele>
        <time>2023-10-01T10:08:15.000Z</time>
      </trkpt>
      <trkpt lat="45.0053" lon="5.82222">
        <ele>1979</ele>
        <time>2023-10-01T10:08:16.000Z</time>
      </trkpt>
      <trkpt lat="45.0053" lon="5.82221">
        <ele>1978.8000488281</ele>
        <time>2023-10-01T10:08:17.000Z</time>
      </trkpt>
      <trkpt lat="45.00529" lon="5.8222">
        <ele>1978.5999755859</ele>
        <time>2023-10-01T10:08:18.000Z</time>
      </trkpt>
      <trkpt lat="45.00529" lon="5.82219">
        <ele>1978.1999511719</ele>
        <time>2023-10-01T10:08:19.000Z</time>
      </trkpt>
      <trkpt lat="45.00528" lon="5.82219">
        <ele>1977.8000488281</ele>
        <time>2023-10-01T10:08:20.000Z</time>
      </trkpt>
      <trkpt lat="45.00528" lon="5.82218">
        <ele>1977.5999755859</ele>
        <time>2023-10-01T10:08:21.000Z</time>
      </trkpt>
      <trkpt lat="45.00528" lon="5.82218">
        <ele>1977.5999755859</ele>
        <time>2023-10-01T10:08:22.000Z</time>
      </trkpt>
      <trkpt lat="45.00528" lon="5.82217">
        <ele>1977.4000244141</ele>
        <time>2023-10-01T10:08:23.000Z</time>
      </trkpt>
      <trkpt lat="45.00528" lon="5.82216">
        <ele>1977.1999511719</ele>
        <time>2023-10-01T10:08:24.000Z</time>
      </trkpt>
      <trkpt lat="45.00528" lon="5.82216">
        <ele>1976.8000488281</ele>
        <time>2023-10-01T10:08:25.000Z</time>
      </trkpt>
      <trkpt lat="45.00527" lon="5.82215">
        <ele>1976.5999755859</ele>
        <time>2023-10-01T10:08:26.000Z</time>
      </trkpt>
      <trkpt lat="45.00527" lon="5.82214">
        <ele>1976.1999511719</ele>
        <time>2023-10-01T10:08:27.000Z</time>
      </trkpt>
      <trkpt lat="45.00527" lon="5.82214">
        <ele>1976</ele>
        <time>2023-10-01T10:08:28.000Z</time>
      </trkpt>
      <trkpt lat="45.00526" lon="5.82214">
        <ele>1975.5999755859</ele>
        <time>2023-10-01T10:08:29.000Z</time>
      </trkpt>
      <trkpt lat="45.00526" lon="5.82212">
        <ele>1975.5999755859</ele>
        <time>2023-10-01T10:08:30.000Z</time>
      </trkpt>
      <trkpt lat="45.00527" lon="5.82212">
        <ele>1975.4000244141</ele>
        <time>2023-10-01T10:08:31.000Z</time>
      </trkpt>
      <trkpt lat="45.00527" lon="5.82212">
        <ele>1975.1999511719</ele>
        <time>2023-10-01T10:08:32.000Z</time>
      </trkpt>
      <trkpt lat="45.00528" lon="5.82212">
        <ele>1975</ele>
        <time>2023-10-01T10:08:33.000Z</time>
      </trkpt>
      <trkpt lat="45.00528" lon="5.82211">
        <ele>1974.8000488281</ele>
        <time>2023-10-01T10:08:34.000Z</time>
      </trkpt>
      <trkpt lat="45.00529" lon="5.82211">
        <ele>1974.8000488281</ele>
        <time>2023-10-01T10:08:35.000Z</time>
      </trkpt>
      <trkpt lat="45.00529" lon="5.82211">
        <ele>1974.8000488281</ele>
        <time>2023-10-01T10:08:36.000Z</time>
      </trkpt>
      <trkpt lat="45.0053" lon="5.8221">
        <ele>1974.5999755859</ele>
        <time>2023-10-01T10:08:37.000Z</time>
      </trkpt>
      <trkpt lat="45.0053" lon="5.8221">
        <ele>1974.4000244141</ele>
        <time>2023-10-01T10:08:38.000Z</time>
      </trkpt>
      <trkpt lat="45.00531" lon="5.82209">
        <ele>1974.4000244141</ele>
        <time>2023-10-01T10:08:39.000Z</time>
      </trkpt>
      <trkpt lat="45.00531" lon="5.82209">
        <ele>1974.4000244141</ele>
        <time>2023-10-01T10:08:40.000Z</time>
      </trkpt>
      <trkpt lat="45.00531" lon="5.82209">
        <ele>1974.1999511719</ele>
        <time>2023-10-01T10:08:41.000Z</time>
      </trkpt>
      <trkpt lat="45.00532" lon="5.82208">
        <ele>1974.1999511719</ele>
        <time>2023-10-01T10:08:42.000Z</time>
      </trkpt>
      <trkpt lat="45.00532" lon="5.82207">
        <ele>1973.8000488281</ele>
        <time>2023-10-01T10:08:43.000Z</time>
      </trkpt>
      <trkpt lat="45.00531" lon="5.82207">
        <ele>1973.1999511719</ele>
        <time>2023-10-01T10:08:44.000Z</time>
      </trkpt>
      <trkpt lat="45.00531" lon="5.82206">
        <ele>1972.8000488281</ele>
        <time>2023-10-01T10:08:45.000Z</time>
      </trkpt>
      <trkpt lat="45.00531" lon="5.82205">
        <ele>1972.8000488281</ele>
        <time>2023-10-01T10:08:46.000Z</time>
      </trkpt>
      <trkpt lat="45.00531" lon="5.82205">
        <ele>1972.5999755859</ele>
        <time>2023-10-01T10:08:47.000Z</time>
      </trkpt>
      <trkpt lat="45.0053" lon="5.82204">
        <ele>1972.4000244141</ele>
        <time>2023-10-01T10:08:48.000Z</time>
      </trkpt>
      <trkpt lat="45.0053" lon="5.82203">
        <ele>1972</ele>
        <time>2023-10-01T10:08:49.000Z</time>
      </trkpt>
      <trkpt lat="45.0053" lon="5.82203">
        <ele>1971.5999755859</ele>
        <time>2023-10-01T10:08:50.000Z</time>
      </trkpt>
      <trkpt lat="45.0053" lon="5.82203">
        <ele>1971.4000244141</ele>
        <time>2023-10-01T10:08:51.000Z</time>
      </trkpt>
      <trkpt lat="45.0053" lon="5.82203">
        <ele>1971.4000244141</ele>
        <time>2023-10-01T10:08:52.000Z</time>
      </trkpt>
      <trkpt lat="45.0053" lon="5.82203">
        <ele>1971.1999511719</ele>
        <time>2023-10-01T10:08:53.000Z</time>
      </trkpt>
      <trkpt lat="45.0053" lon="5.82202">
        <ele>1971</ele>
        <time>2023-10-01T10:08:54.000Z</time>
      </trkpt>
      <trkpt lat="45.00529" lon="5.82202">
        <ele>1970.8000488281</ele>
        <time>2023-10-01T10:08:55.000Z</time>
      </trkpt>
      <trkpt lat="45.00529" lon="5.82201">
        <ele>1970.5999755859</ele>
        <time>2023-10-01T10:08:56.000Z</time>
      </trkpt>
      <trkpt lat="45.00529" lon="5.82201">
        <ele>1970.1999511719</ele>
        <time>2023-10-01T10:08:57.000Z</time>
      </trkpt>
      <trkpt lat="45.00529" lon="5.822">
        <ele>1969.8000488281</ele>
        <time>2023-10-01T10:08:58.000Z</time>
      </trkpt>
      <trkpt lat="45.00529" lon="5.822">
        <ele>1969.5999755859</ele>
        <time>2023-10-01T10:08:59.000Z</time>
      </trkpt>
      <trkpt lat="45.00529" lon="5.82199">
        <ele>1969.5999755859</ele>
        <time>2023-10-01T10:09:00.000Z</time>
      </trkpt>
      <trkpt lat="45.00529" lon="5.82198">
        <ele>1969.4000244141</ele>
        <time>2023-10-01T10:09:01.000Z</time>
      </trkpt>
      <trkpt lat="45.0053" lon="5.82197">
        <ele>1969.1999511719</ele>
        <time>2023-10-01T10:09:02.000Z</time>
      </trkpt>
      <trkpt lat="45.0053" lon="5.82196">
        <ele>1969</ele>
        <time>2023-10-01T10:09:03.000Z</time>
      </trkpt>
      <trkpt lat="45.0053" lon="5.82195">
        <ele>1969</ele>
        <time>2023-10-01T10:09:04.000Z</time>
      </trkpt>
      <trkpt lat="45.0053" lon="5.82195">
        <ele>1968.8000488281</ele>
        <time>2023-10-01T10:09:05.000Z</time>
      </trkpt>
      <trkpt lat="45.0053" lon="5.82195">
        <ele>1968.5999755859</ele>
        <time>2023-10-01T10:09:06.000Z</time>
      </trkpt>
      <trkpt lat="45.00529" lon="5.82195">
        <ele>1968.4000244141</ele>
        <time>2023-10-01T10:09:07.000Z</time>
      </trkpt>
      <trkpt lat="45.00528" lon="5.82195">
        <ele>1968.1999511719</ele>
        <time>2023-10-01T10:09:08.000Z</time>
      </trkpt>
      <trkpt lat="45.00527" lon="5.82194">
        <ele>1968</ele>
        <time>2023-10-01T10:09:09.000Z</time>
      </trkpt>
      <trkpt lat="45.00527" lon="5.82193">
        <ele>1968</ele>
        <time>2023-10-01T10:09:10.000Z</time>
      </trkpt>
      <trkpt lat="45.00527" lon="5.82192">
        <ele>1967.5999755859</ele>
        <time>2023-10-01T10:09:11.000Z</time>
      </trkpt>
      <trkpt lat="45.00527" lon="5.82191">
        <ele>1967.4000244141</ele>
        <time>2023-10-01T10:09:12.000Z</time>
      </trkpt>
      <trkpt lat="45.00527" lon="5.8219">
        <ele>1967.1999511719</ele>
        <time>2023-10-01T10:09:13.000Z</time>
      </trkpt>
      <trkpt lat="45.00528" lon="5.82189">
        <ele>1967</ele>
        <time>2023-10-01T10:09:14.000Z</time>
      </trkpt>
      <trkpt lat="45.00528" lon="5.82188">
        <ele>1966.8000488281</ele>
        <time>2023-10-01T10:09:15.000Z</time>
      </trkpt>
      <trkpt lat="45.00529" lon="5.82188">
        <ele>1966.5999755859</ele>
        <time>2023-10-01T10:09:16.000Z</time>
      </trkpt>
      <trkpt lat="45.00529" lon="5.82187">
        <ele>1966.4000244141</ele>
        <time>2023-10-01T10:09:17.000Z</time>
      </trkpt>
      <trkpt lat="45.00529" lon="5.82187">
        <ele>1966.1999511719</ele>
        <time>2023-10-01T10:09:18.000Z</time>
      </trkpt>
      <trkpt lat="45.0053" lon="5.82186">
        <ele>1966</ele>
        <time>2023-10-01T10:09:19.000Z</time>
      </trkpt>
      <trkpt lat="45.0053" lon="5.82185">
        <ele>1965.8000488281</ele>
        <time>2023-10-01T10:09:20.000Z</time>
      </trkpt>
      <trkpt lat="45.00531" lon="5.82185">
        <ele>1965.5999755859</ele>
        <time>2023-10-01T10:09:21.000Z</time>
      </trkpt>
      <trkpt lat="45.00531" lon="5.82185">
        <ele>1965.4000244141</ele>
        <time>2023-10-01T10:09:22.000Z</time>
      </trkpt>
      <trkpt lat="45.00532" lon="5.82184">
        <ele>1965.1999511719</ele>
        <time>2023-10-01T10:09:23.000Z</time>
      </trkpt>
      <trkpt lat="45.00532" lon="5.82184">
        <ele>1965</ele>
        <time>2023-10-01T10:09:24.000Z</time>
      </trkpt>
      <trkpt lat="45.00533" lon="5.82183">
        <ele>1964.8000488281</ele>
        <time>2023-10-01T10:09:25.000Z</time>
      </trkpt>
      <trkpt lat="45.00533" lon="5.82182">
        <ele>1964.5999755859</ele>
        <time>2023-10-01T10:09:26.000Z</time>
      </trkpt>
      <trkpt lat="45.00533" lon="5.82182">
        <ele>1964.4000244141</ele>
        <time>2023-10-01T10:09:27.000Z</time>
      </trkpt>
      <trkpt lat="45.00533" lon="5.82181">
        <ele>1964</ele>
        <time>2023-10-01T10:09:28.000Z</time>
      </trkpt>
      <trkpt lat="45.00533" lon="5.8218">
        <ele>1963.5999755859</ele>
        <time>2023-10-01T10:09:29.000Z</time>
      </trkpt>
      <trkpt lat="45.00532" lon="5.8218">
        <ele>1963.1999511719</ele>
        <time>2023-10-01T10:09:30.000Z</time>
      </trkpt>
      <trkpt lat="45.00532" lon="5.82179">
        <ele>1963</ele>
        <time>2023-10-01T10:09:31.000Z</time>
      </trkpt>
      <trkpt lat="45.00532" lon="5.82178">
        <ele>1962.8000488281</ele>
        <time>2023-10-01T10:09:32.000Z</time>
      </trkpt>
      <trkpt lat="45.00532" lon="5.82177">
        <ele>1962.4000244141</ele>
        <time>2023-10-01T10:09:33.000Z</time>
      </trkpt>
      <trkpt lat="45.00532" lon="5.82177">
        <ele>1962.1999511719</ele>
        <time>2023-10-01T10:09:34.000Z</time>
      </trkpt>
      <trkpt lat="45.00532" lon="5.82177">
        <ele>1961.8000488281</ele>
        <time>2023-10-01T10:09:35.000Z</time>
      </trkpt>
      <trkpt lat="45.00531" lon="5.82176">
        <ele>1961.4000244141</ele>
        <time>2023-10-01T10:09:36.000Z</time>
      </trkpt>
      <trkpt lat="45.00531" lon="5.82176">
        <ele>1961.1999511719</ele>
        <time>2023-10-01T10:09:37.000Z</time>
      </trkpt>
      <trkpt lat="45.00531" lon="5.82175">
        <ele>1961.1999511719</ele>
        <time>2023-10-01T10:09:38.000Z</time>
      </trkpt>
      <trkpt lat="45.00531" lon="5.82175">
        <ele>1961</ele>
        <time>2023-10-01T10:09:39.000Z</time>
      </trkpt>
      <trkpt lat="45.0053" lon="5.82174">
        <ele>1960.8000488281</ele>
        <time>2023-10-01T10:09:40.000Z</time>
      </trkpt>
      <trkpt lat="45.0053" lon="5.82173">
        <ele>1960.4000244141</ele>
        <time>2023-10-01T10:09:41.000Z</time>
      </trkpt>
      <trkpt lat="45.0053" lon="5.82172">
        <ele>1960.1999511719</ele>
        <time>2023-10-01T10:09:42.000Z</time>
      </trkpt>
      <trkpt lat="45.0053" lon="5.82172">
        <ele>1960</ele>
        <time>2023-10-01T10:09:43.000Z</time>
      </trkpt>
      <trkpt lat="45.00531" lon="5.82171">
        <ele>1959.8000488281</ele>
        <time>2023-10-01T10:09:44.000Z</time>
      </trkpt>
      <trkpt lat="45.00532" lon="5.82171">
        <ele>1959.5999755859</ele>
        <time>2023-10-01T10:09:45.000Z</time>
      </trkpt>
      <trkpt lat="45.00532" lon="5.8217">
        <ele>1959.4000244141</ele>
        <time>2023-10-01T10:09:46.000Z</time>
      </trkpt>
      <trkpt lat="45.00533" lon="5.8217">
        <ele>1959.4000244141</ele>
        <time>2023-10-01T10:09:47.000Z</time>
      </trkpt>
      <trkpt lat="45.00534" lon="5.8217">
        <ele>1959.1999511719</ele>
        <time>2023-10-01T10:09:48.000Z</time>
      </trkpt>
      <trkpt lat="45.00535" lon="5.8217">
        <ele>1959</ele>
        <time>2023-10-01T10:09:49.000Z</time>
      </trkpt>
      <trkpt lat="45.00535" lon="5.8217">
        <ele>1958.8000488281</ele>
        <time>2023-10-01T10:09:50.000Z</time>
      </trkpt>
      <trkpt lat="45.00536" lon="5.8217">
        <ele>1958.5999755859</ele>
        <time>2023-10-01T10:09:51.000Z</time>
      </trkpt>
      <trkpt lat="45.00536" lon="5.8217">
        <ele>1958.5999755859</ele>
        <time>2023-10-01T10:09:52.000Z</time>
      </trkpt>
      <trkpt lat="45.00536" lon="5.82169">
        <ele>1958.4000244141</ele>
        <time>2023-10-01T10:09:53.000Z</time>
      </trkpt>
      <trkpt lat="45.00535" lon="5.82168">
        <ele>1958</ele>
        <time>2023-10-01T10:09:54.000Z</time>
      </trkpt>
      <trkpt lat="45.00535" lon="5.82168">
        <ele>1957.8000488281</ele>
        <time>2023-10-01T10:09:55.000Z</time>
      </trkpt>
      <trkpt lat="45.00534" lon="5.82167">
        <ele>1957.4000244141</ele>
        <time>2023-10-01T10:09:56.000Z</time>
      </trkpt>
      <trkpt lat="45.00534" lon="5.82166">
        <ele>1957</ele>
        <time>2023-10-01T10:09:57.000Z</time>
      </trkpt>
      <trkpt lat="45.00533" lon="5.82166">
        <ele>1956.8000488281</ele>
        <time>2023-10-01T10:09:58.000Z</time>
      </trkpt>
      <trkpt lat="45.00533" lon="5.82165">
        <ele>1956.5999755859</ele>
        <time>2023-10-01T10:09:59.000Z</time>
      </trkpt>
      <trkpt lat="45.00532" lon="5.82164">
        <ele>1956.1999511719</ele>
        <time>2023-10-01T10:10:00.000Z</time>
      </trkpt>
      <trkpt lat="45.00532" lon="5.82163">
        <ele>1955.8000488281</ele>
        <time>2023-10-01T10:10:01.000Z</time>
      </trkpt>
      <trkpt lat="45.00532" lon="5.82162">
        <ele>1955.5999755859</ele>
        <time>2023-10-01T10:10:02.000Z</time>
      </trkpt>
      <trkpt lat="45.00533" lon="5.82161">
        <ele>1955.5999755859</ele>
        <time>2023-10-01T10:10:03.000Z</time>
      </trkpt>
      <trkpt lat="45.00534" lon="5.82161">
        <ele>1955.4000244141</ele>
        <time>2023-10-01T10:10:04.000Z</time>
      </trkpt>
      <trkpt lat="45.00535" lon="5.82161">
        <ele>1955.4000244141</ele>
        <time>2023-10-01T10:10:05.000Z</time>
      </trkpt>
      <trkpt lat="45.00535" lon="5.8216">
        <ele>1955.4000244141</ele>
        <time>2023-10-01T10:10:06.000Z</time>
      </trkpt>
      <trkpt lat="45.00536" lon="5.8216">
        <ele>1955.1999511719</ele>
        <time>2023-10-01T10:10:07.000Z</time>
      </trkpt>
      <trkpt lat="45.00537" lon="5.8216">
        <ele>1955.1999511719</ele>
        <time>2023-10-01T10:10:08.000Z</time>
      </trkpt>
      <trkpt lat="45.00536" lon="5.8216">
        <ele>1955.1999511719</ele>
        <time>2023-10-01T10:10:09.000Z</time>
      </trkpt>
      <trkpt lat="45.00536" lon="5.82159">
        <ele>1955</ele>
        <time>2023-10-01T10:10:10.000Z</time>
      </trkpt>
      <trkpt lat="45.00536" lon="5.82159">
        <ele>1954.4000244141</ele>
        <time>2023-10-01T10:10:11.000Z</time>
      </trkpt>
      <trkpt lat="45.00535" lon="5.82158">
        <ele>1953.8000488281</ele>
        <time>2023-10-01T10:10:12.000Z</time>
      </trkpt>
      <trkpt lat="45.00535" lon="5.82158">
        <ele>1953.4000244141</ele>
        <time>2023-10-01T10:10:13.000Z</time>
      </trkpt>
      <trkpt lat="45.00535" lon="5.82157">
        <ele>1953</ele>
        <time>2023-10-01T10:10:14.000Z</time>
      </trkpt>
      <trkpt lat="45.00534" lon="5.82157">
        <ele>1952.5999755859</ele>
        <time>2023-10-01T10:10:15.000Z</time>
      </trkpt>
      <trkpt lat="45.00534" lon="5.82156">
        <ele>1952.5999755859</ele>
        <time>2023-10-01T10:10:16.000Z</time>
      </trkpt>
      <trkpt lat="45.00534" lon="5.82155">
        <ele>1952.1999511719</ele>
        <time>2023-10-01T10:10:17.000Z</time>
      </trkpt>
      <trkpt lat="45.00534" lon="5.82154">
        <ele>1952.1999511719</ele>
        <time>2023-10-01T10:10:18.000Z</time>
      </trkpt>
      <trkpt lat="45.00533" lon="5.82153">
        <ele>1952.1999511719</ele>
        <time>2023-10-01T10:10:19.000Z</time>
      </trkpt>
      <trkpt lat="45.00533" lon="5.82152">
        <ele>1952</ele>
        <time>2023-10-01T10:10:20.000Z</time>
      </trkpt>
      <trkpt lat="45.00533" lon="5.82151">
        <ele>1951.5999755859</ele>
        <time>2023-10-01T10:10:21.000Z</time>
      </trkpt>
      <trkpt lat="45.00532" lon="5.82152">
        <ele>1951.1999511719</ele>
        <time>2023-10-01T10:10:22.000Z</time>
      </trkpt>
      <trkpt lat="45.00531" lon="5.82152">
        <ele>1951</ele>
        <time>2023-10-01T10:10:23.000Z</time>
      </trkpt>
      <trkpt lat="45.0053" lon="5.82151">
        <ele>1950.8000488281</ele>
        <time>2023-10-01T10:10:24.000Z</time>
      </trkpt>
      <trkpt lat="45.0053" lon="5.82151">
        <ele>1950.8000488281</ele>
        <time>2023-10-01T10:10:25.000Z</time>
      </trkpt>
      <trkpt lat="45.00529" lon="5.8215">
        <ele>1950.5999755859</ele>
        <time>2023-10-01T10:10:26.000Z</time>
      </trkpt>
      <trkpt lat="45.00529" lon="5.8215">
        <ele>1950.5999755859</ele>
        <time>2023-10-01T10:10:27.000Z</time>
      </trkpt>
      <trkpt lat="45.00528" lon="5.82149">
        <ele>1950</ele>
        <time>2023-10-01T10:10:28.000Z</time>
      </trkpt>
      <trkpt lat="45.00528" lon="5.82148">
        <ele>1949.8000488281</ele>
        <time>2023-10-01T10:10:29.000Z</time>
      </trkpt>
      <trkpt lat="45.00529" lon="5.82148">
        <ele>1949.5999755859</ele>
        <time>2023-10-01T10:10:30.000Z</time>
      </trkpt>
      <trkpt lat="45.0053" lon="5.82148">
        <ele>1949.1999511719</ele>
        <time>2023-10-01T10:10:31.000Z</time>
      </trkpt>
      <trkpt lat="45.0053" lon="5.82147">
        <ele>1949.1999511719</ele>
        <time>2023-10-01T10:10:32.000Z</time>
      </trkpt>
      <trkpt lat="45.00531" lon="5.82147">
        <ele>1949.1999511719</ele>
        <time>2023-10-01T10:10:33.000Z</time>
      </trkpt>
      <trkpt lat="45.00531" lon="5.82147">
        <ele>1949</ele>
        <time>2023-10-01T10:10:34.000Z</time>
      </trkpt>
      <trkpt lat="45.00532" lon="5.82147">
        <ele>1949</ele>
        <time>2023-10-01T10:10:35.000Z</time>
      </trkpt>
      <trkpt lat="45.00532" lon="5.82147">
        <ele>1948.8000488281</ele>
        <time>2023-10-01T10:10:36.000Z</time>
      </trkpt>
      <trkpt lat="45.00532" lon="5.82146">
        <ele>1948.5999755859</ele>
        <time>2023-10-01T10:10:37.000Z</time>
      </trkpt>
      <trkpt lat="45.00533" lon="5.82146">
        <ele>1948.4000244141</ele>
        <time>2023-10-01T10:10:38.000Z</time>
      </trkpt>
      <trkpt lat="45.00533" lon="5.82145">
        <ele>1948.1999511719</ele>
        <time>2023-10-01T10:10:39.000Z</time>
      </trkpt>
      <trkpt lat="45.00533" lon="5.82144">
        <ele>1948</ele>
        <time>2023-10-01T10:10:40.000Z</time>
      </trkpt>
      <trkpt lat="45.00533" lon="5.82143">
        <ele>1947.8000488281</ele>
        <time>2023-10-01T10:10:41.000Z</time>
      </trkpt>
      <trkpt lat="45.00534" lon="5.82142">
        <ele>1947.4000244141</ele>
        <time>2023-10-01T10:10:42.000Z</time>
      </trkpt>
      <trkpt lat="45.00534" lon="5.82142">
        <ele>1947.1999511719</ele>
        <time>2023-10-01T10:10:43.000Z</time>
      </trkpt>
      <trkpt lat="45.00533" lon="5.82141">
        <ele>1946.8000488281</ele>
        <time>2023-10-01T10:10:44.000Z</time>
      </trkpt>
      <trkpt lat="45.00533" lon="5.82141">
        <ele>1946.5999755859</ele>
        <time>2023-10-01T10:10:45.000Z</time>
      </trkpt>
      <trkpt lat="45.00533" lon="5.8214">
        <ele>1946.1999511719</ele>
        <time>2023-10-01T10:10:46.000Z</time>
      </trkpt>
      <trkpt lat="45.00533" lon="5.8214">
        <ele>1945.8000488281</ele>
        <time>2023-10-01T10:10:47.000Z</time>
      </trkpt>
      <trkpt lat="45.00532" lon="5.82139">
        <ele>1945.4000244141</ele>
        <time>2023-10-01T10:10:48.000Z</time>
      </trkpt>
      <trkpt lat="45.00532" lon="5.82138">
        <ele>1945.4000244141</ele>
        <time>2023-10-01T10:10:49.000Z</time>
      </trkpt>
      <trkpt lat="45.00533" lon="5.82137">
        <ele>1945.1999511719</ele>
        <time>2023-10-01T10:10:50.000Z</time>
      </trkpt>
      <trkpt lat="45.00533" lon="5.82137">
        <ele>1945.1999511719</ele>
        <time>2023-10-01T10:10:51.000Z</time>
      </trkpt>
      <trkpt lat="45.00533" lon="5.82137">
        <ele>1944.5999755859</ele>
        <time>2023-10-01T10:10:52.000Z</time>
      </trkpt>
      <trkpt lat="45.00533" lon="5.82136">
        <ele>1944.4000244141</ele>
        <time>2023-10-01T10:10:53.000Z</time>
      </trkpt>
      <trkpt lat="45.00533" lon="5.82136">
        <ele>1944.1999511719</ele>
        <time>2023-10-01T10:10:54.000Z</time>
      </trkpt>
      <trkpt lat="45.00533" lon="5.82136">
        <ele>1944</ele>
        <time>2023-10-01T10:10:55.000Z</time>
      </trkpt>
      <trkpt lat="45.00533" lon="5.82136">
        <ele>1943.8000488281</ele>
        <time>2023-10-01T10:10:56.000Z</time>
      </trkpt>
      <trkpt lat="45.00533" lon="5.82135">
        <ele>1943.4000244141</ele>
        <time>2023-10-01T10:10:57.000Z</time>
      </trkpt>
      <trkpt lat="45.00534" lon="5.82135">
        <ele>1943.4000244141</ele>
        <time>2023-10-01T10:10:58.000Z</time>
      </trkpt>
      <trkpt lat="45.00534" lon="5.82134">
        <ele>1943.4000244141</ele>
        <time>2023-10-01T10:10:59.000Z</time>
      </trkpt>
      <trkpt lat="45.00535" lon="5.82134">
        <ele>1943</ele>
        <time>2023-10-01T10:11:00.000Z</time>
      </trkpt>
      <trkpt lat="45.00535" lon="5.82134">
        <ele>1943</ele>
        <time>2023-10-01T10:11:01.000Z</time>
      </trkpt>
      <trkpt lat="45.00535" lon="5.82134">
        <ele>1943</ele>
        <time>2023-10-01T10:11:02.000Z</time>
      </trkpt>
      <trkpt lat="45.00535" lon="5.82133">
        <ele>1942.8000488281</ele>
        <time>2023-10-01T10:11:03.000Z</time>
      </trkpt>
      <trkpt lat="45.00535" lon="5.82133">
        <ele>1942.5999755859</ele>
        <time>2023-10-01T10:11:04.000Z</time>
      </trkpt>
      <trkpt lat="45.00535" lon="5.82132">
        <ele>1942.1999511719</ele>
        <time>2023-10-01T10:11:05.000Z</time>
      </trkpt>
      <trkpt lat="45.00535" lon="5.82131">
        <ele>1942</ele>
        <time>2023-10-01T10:11:06.000Z</time>
      </trkpt>
      <trkpt lat="45.00535" lon="5.8213">
        <ele>1941.5999755859</ele>
        <time>2023-10-01T10:11:07.000Z</time>
      </trkpt>
      <trkpt lat="45.00535" lon="5.82129">
        <ele>1941.1999511719</ele>
        <time>2023-10-01T10:11:08.000Z</time>
      </trkpt>
      <trkpt lat="45.00535" lon="5.82128">
        <ele>1940.8000488281</ele>
        <time>2023-10-01T10:11:09.000Z</time>
      </trkpt>
      <trkpt lat="45.00535" lon="5.82127">
        <ele>1940.4000244141</ele>
        <time>2023-10-01T10:11:10.000Z</time>
      </trkpt>
      <trkpt lat="45.00534" lon="5.82127">
        <ele>1940.1999511719</ele>
        <time>2023-10-01T10:11:11.000Z</time>
      </trkpt>
      <trkpt lat="45.00534" lon="5.82126">
        <ele>1940</ele>
        <time>2023-10-01T10:11:12.000Z</time>
      </trkpt>
      <trkpt lat="45.00534" lon="5.82126">
        <ele>1939.5999755859</ele>
        <time>2023-10-01T10:11:13.000Z</time>
      </trkpt>
      <trkpt lat="45.00534" lon="5.82125">
        <ele>1939.1999511719</ele>
        <time>2023-10-01T10:11:14.000Z</time>
      </trkpt>
      <trkpt lat="45.00534" lon="5.82125">
        <ele>1938.8000488281</ele>
        <time>2023-10-01T10:11:15.000Z</time>
      </trkpt>
      <trkpt lat="45.00534" lon="5.82124">
        <ele>1938.8000488281</ele>
        <time>2023-10-01T10:11:16.000Z</time>
      </trkpt>
      <trkpt lat="45.00533" lon="5.82124">
        <ele>1938.8000488281</ele>
        <time>2023-10-01T10:11:17.000Z</time>
      </trkpt>
      <trkpt lat="45.00533" lon="5.82123">
        <ele>1938.5999755859</ele>
        <time>2023-10-01T10:11:18.000Z</time>
      </trkpt>
      <trkpt lat="45.00534" lon="5.82122">
        <ele>1938.4000244141</ele>
        <time>2023-10-01T10:11:19.000Z</time>
      </trkpt>
      <trkpt lat="45.00534" lon="5.82121">
        <ele>1938.4000244141</ele>
        <time>2023-10-01T10:11:20.000Z</time>
      </trkpt>
      <trkpt lat="45.00534" lon="5.82121">
        <ele>1938.4000244141</ele>
        <time>2023-10-01T10:11:21.000Z</time>
      </trkpt>
      <trkpt lat="45.00535" lon="5.82121">
        <ele>1938.1999511719</ele>
        <time>2023-10-01T10:11:22.000Z</time>
      </trkpt>
      <trkpt lat="45.00536" lon="5.82121">
        <ele>1938.1999511719</ele>
        <time>2023-10-01T10:11:23.000Z</time>
      </trkpt>
      <trkpt lat="45.00536" lon="5.8212">
        <ele>1938</ele>
        <time>2023-10-01T10:11:24.000Z</time>
      </trkpt>
      <trkpt lat="45.00536" lon="5.8212">
        <ele>1937.8000488281</ele>
        <time>2023-10-01T10:11:25.000Z</time>
      </trkpt>
      <trkpt lat="45.00536" lon="5.8212">
        <ele>1937.5999755859</ele>
        <time>2023-10-01T10:11:26.000Z</time>
      </trkpt>
      <trkpt lat="45.00536" lon="5.82119">
        <ele>1937.5999755859</ele>
        <time>2023-10-01T10:11:27.000Z</time>
      </trkpt>
      <trkpt lat="45.00536" lon="5.82119">
        <ele>1937.4000244141</ele>
        <time>2023-10-01T10:11:28.000Z</time>
      </trkpt>
      <trkpt lat="45.00535" lon="5.82119">
        <ele>1936.8000488281</ele>
        <time>2023-10-01T10:11:29.000Z</time>
      </trkpt>
      <trkpt lat="45.00535" lon="5.82119">
        <ele>1936.1999511719</ele>
        <time>2023-10-01T10:11:30.000Z</time>
      </trkpt>
      <trkpt lat="45.00535" lon="5.82119">
        <ele>1936.1999511719</ele>
        <time>2023-10-01T10:11:31.000Z</time>
      </trkpt>
      <trkpt lat="45.00534" lon="5.82118">
        <ele>1936</ele>
        <time>2023-10-01T10:11:32.000Z</time>
      </trkpt>
      <trkpt lat="45.00534" lon="5.82117">
        <ele>1936</ele>
        <time>2023-10-01T10:11:33.000Z</time>
      </trkpt>
      <trkpt lat="45.00535" lon="5.82117">
        <ele>1935.8000488281</ele>
        <time>2023-10-01T10:11:34.000Z</time>
      </trkpt>
      <trkpt lat="45.00536" lon="5.82117">
        <ele>1935.4000244141</ele>
        <time>2023-10-01T10:11:35.000Z</time>
      </trkpt>
      <trkpt lat="45.00536" lon="5.82117">
        <ele>1935.1999511719</ele>
        <time>2023-10-01T10:11:36.000Z</time>
      </trkpt>
      <trkpt lat="45.00536" lon="5.82117">
        <ele>1935</ele>
        <time>2023-10-01T10:11:37.000Z</time>
      </trkpt>
      <trkpt lat="45.00537" lon="5.82116">
        <ele>1935</ele>
        <time>2023-10-01T10:11:38.000Z</time>
      </trkpt>
      <trkpt lat="45.00537" lon="5.82116">
        <ele>1935</ele>
        <time>2023-10-01T10:11:39.000Z</time>
      </trkpt>
      <trkpt lat="45.00538" lon="5.82116">
        <ele>1934.8000488281</ele>
        <time>2023-10-01T10:11:40.000Z</time>
      </trkpt>
      <trkpt lat="45.00538" lon="5.82116">
        <ele>1934.5999755859</ele>
        <time>2023-10-01T10:11:41.000Z</time>
      </trkpt>
      <trkpt lat="45.00538" lon="5.82116">
        <ele>1934.1999511719</ele>
        <time>2023-10-01T10:11:42.000Z</time>
      </trkpt>
      <trkpt lat="45.00538" lon="5.82115">
        <ele>1934.1999511719</ele>
        <time>2023-10-01T10:11:43.000Z</time>
      </trkpt>
      <trkpt lat="45.00538" lon="5.82114">
        <ele>1933.8000488281</ele>
        <time>2023-10-01T10:11:44.000Z</time>
      </trkpt>
      <trkpt lat="45.00537" lon="5.82113">
        <ele>1933.4000244141</ele>
        <time>2023-10-01T10:11:45.000Z</time>
      </trkpt>
      <trkpt lat="45.00537" lon="5.82112">
        <ele>1933</ele>
        <time>2023-10-01T10:11:46.000Z</time>
      </trkpt>
      <trkpt lat="45.00537" lon="5.82111">
        <ele>1932.5999755859</ele>
        <time>2023-10-01T10:11:47.000Z</time>
      </trkpt>
      <trkpt lat="45.00537" lon="5.82111">
        <ele>1932.4000244141</ele>
        <time>2023-10-01T10:11:48.000Z</time>
      </trkpt>
      <trkpt lat="45.00538" lon="5.8211">
        <ele>1932.1999511719</ele>
        <time>2023-10-01T10:11:49.000Z</time>
      </trkpt>
      <trkpt lat="45.00538" lon="5.8211">
        <ele>1932</ele>
        <time>2023-10-01T10:11:50.000Z</time>
      </trkpt>
      <trkpt lat="45.00538" lon="5.8211">
        <ele>1932</ele>
        <time>2023-10-01T10:11:51.000Z</time>
      </trkpt>
      <trkpt lat="45.00538" lon="5.82109">
        <ele>1932</ele>
        <time>2023-10-01T10:11:52.000Z</time>
      </trkpt>
      <trkpt lat="45.00539" lon="5.82109">
        <ele>1932</ele>
        <time>2023-10-01T10:11:53.000Z</time>
      </trkpt>
      <trkpt lat="45.00539" lon="5.82108">
        <ele>1931.8000488281</ele>
        <time>2023-10-01T10:11:54.000Z</time>
      </trkpt>
      <trkpt lat="45.00539" lon="5.82108">
        <ele>1931.4000244141</ele>
        <time>2023-10-01T10:11:55.000Z</time>
      </trkpt>
      <trkpt lat="45.00539" lon="5.82107">
        <ele>1931</ele>
        <time>2023-10-01T10:11:56.000Z</time>
      </trkpt>
      <trkpt lat="45.00539" lon="5.82107">
        <ele>1930.8000488281</ele>
        <time>2023-10-01T10:11:57.000Z</time>
      </trkpt>
      <trkpt lat="45.00539" lon="5.82106">
        <ele>1930.1999511719</ele>
        <time>2023-10-01T10:11:58.000Z</time>
      </trkpt>
      <trkpt lat="45.00539" lon="5.82105">
        <ele>1929.8000488281</ele>
        <time>2023-10-01T10:11:59.000Z</time>
      </trkpt>
      <trkpt lat="45.00539" lon="5.82104">
        <ele>1929.4000244141</ele>
        <time>2023-10-01T10:12:00.000Z</time>
      </trkpt>
      <trkpt lat="45.00539" lon="5.82103">
        <ele>1929.1999511719</ele>
        <time>2023-10-01T10:12:01.000Z</time>
      </trkpt>
      <trkpt lat="45.00539" lon="5.82102">
        <ele>1929</ele>
        <time>2023-10-01T10:12:02.000Z</time>
      </trkpt>
      <trkpt lat="45.00539" lon="5.82101">
        <ele>1928.5999755859</ele>
        <time>2023-10-01T10:12:03.000Z</time>
      </trkpt>
      <trkpt lat="45.0054" lon="5.821">
        <ele>1928.1999511719</ele>
        <time>2023-10-01T10:12:04.000Z</time>
      </trkpt>
      <trkpt lat="45.00539" lon="5.82099">
        <ele>1928</ele>
        <time>2023-10-01T10:12:05.000Z</time>
      </trkpt>
      <trkpt lat="45.00539" lon="5.82099">
        <ele>1927.5999755859</ele>
        <time>2023-10-01T10:12:06.000Z</time>
      </trkpt>
      <trkpt lat="45.00539" lon="5.82098">
        <ele>1927.4000244141</ele>
        <time>2023-10-01T10:12:07.000Z</time>
      </trkpt>
      <trkpt lat="45.00539" lon="5.82097">
        <ele>1927</ele>
        <time>2023-10-01T10:12:08.000Z</time>
      </trkpt>
      <trkpt lat="45.00539" lon="5.82097">
        <ele>1926.8000488281</ele>
        <time>2023-10-01T10:12:09.000Z</time>
      </trkpt>
      <trkpt lat="45.00539" lon="5.82096">
        <ele>1926.5999755859</ele>
        <time>2023-10-01T10:12:10.000Z</time>
      </trkpt>
      <trkpt lat="45.00539" lon="5.82096">
        <ele>1926.4000244141</ele>
        <time>2023-10-01T10:12:11.000Z</time>
      </trkpt>
      <trkpt lat="45.0054" lon="5.82096">
        <ele>1926.1999511719</ele>
        <time>2023-10-01T10:12:12.000Z</time>
      </trkpt>
      <trkpt lat="45.00541" lon="5.82096">
        <ele>1926</ele>
        <time>2023-10-01T10:12:13.000Z</time>
      </trkpt>
      <trkpt lat="45.00541" lon="5.82096">
        <ele>1926</ele>
        <time>2023-10-01T10:12:14.000Z</time>
      </trkpt>
      <trkpt lat="45.00542" lon="5.82096">
        <ele>1925.8000488281</ele>
        <time>2023-10-01T10:12:15.000Z</time>
      </trkpt>
      <trkpt lat="45.00542" lon="5.82095">
        <ele>1925.5999755859</ele>
        <time>2023-10-01T10:12:16.000Z</time>
      </trkpt>
      <trkpt lat="45.00543" lon="5.82095">
        <ele>1925.4000244141</ele>
        <time>2023-10-01T10:12:17.000Z</time>
      </trkpt>
      <trkpt lat="45.00543" lon="5.82094">
        <ele>1925.4000244141</ele>
        <time>2023-10-01T10:12:18.000Z</time>
      </trkpt>
      <trkpt lat="45.00543" lon="5.82094">
        <ele>1925</ele>
        <time>2023-10-01T10:12:19.000Z</time>
      </trkpt>
      <trkpt lat="45.00542" lon="5.82093">
        <ele>1924.5999755859</ele>
        <time>2023-10-01T10:12:20.000Z</time>
      </trkpt>
      <trkpt lat="45.00542" lon="5.82092">
        <ele>1924.1999511719</ele>
        <time>2023-10-01T10:12:21.000Z</time>
      </trkpt>
      <trkpt lat="45.00542" lon="5.82092">
        <ele>1924</ele>
        <time>2023-10-01T10:12:22.000Z</time>
      </trkpt>
      <trkpt lat="45.00543" lon="5.82091">
        <ele>1923.8000488281</ele>
        <time>2023-10-01T10:12:23.000Z</time>
      </trkpt>
      <trkpt lat="45.00543" lon="5.82091">
        <ele>1923.5999755859</ele>
        <time>2023-10-01T10:12:24.000Z</time>
      </trkpt>
      <trkpt lat="45.00544" lon="5.8209">
        <ele>1923.4000244141</ele>
        <time>2023-10-01T10:12:25.000Z</time>
      </trkpt>
      <trkpt lat="45.00544" lon="5.8209">
        <ele>1923.1999511719</ele>
        <time>2023-10-01T10:12:26.000Z</time>
      </trkpt>
      <trkpt lat="45.00545" lon="5.82089">
        <ele>1923</ele>
        <time>2023-10-01T10:12:27.000Z</time>
      </trkpt>
      <trkpt lat="45.00545" lon="5.82089">
        <ele>1922.8000488281</ele>
        <time>2023-10-01T10:12:28.000Z</time>
      </trkpt>
      <trkpt lat="45.00545" lon="5.82089">
        <ele>1922.5999755859</ele>
        <time>2023-10-01T10:12:29.000Z</time>
      </trkpt>
      <trkpt lat="45.00545" lon="5.82088">
        <ele>1922.1999511719</ele>
        <time>2023-10-01T10:12:30.000Z</time>
      </trkpt>
      <trkpt lat="45.00545" lon="5.82088">
        <ele>1922</ele>
        <time>2023-10-01T10:12:31.000Z</time>
      </trkpt>
      <trkpt lat="45.00545" lon="5.82088">
        <ele>1921.8000488281</ele>
        <time>2023-10-01T10:12:32.000Z</time>
      </trkpt>
      <trkpt lat="45.00545" lon="5.82088">
        <ele>1921.4000244141</ele>
        <time>2023-10-01T10:12:33.000Z</time>
      </trkpt>
      <trkpt lat="45.00545" lon="5.82088">
        <ele>1921.1999511719</ele>
        <time>2023-10-01T10:12:34.000Z</time>
      </trkpt>
      <trkpt lat="45.00545" lon="5.82087">
        <ele>1921</ele>
        <time>2023-10-01T10:12:35.000Z</time>
      </trkpt>
      <trkpt lat="45.00545" lon="5.82087">
        <ele>1920.8000488281</ele>
        <time>2023-10-01T10:12:36.000Z</time>
      </trkpt>
      <trkpt lat="45.00544" lon="5.82087">
        <ele>1920.5999755859</ele>
        <time>2023-10-01T10:12:37.000Z</time>
      </trkpt>
      <trkpt lat="45.00544" lon="5.82086">
        <ele>1920.4000244141</ele>
        <time>2023-10-01T10:12:38.000Z</time>
      </trkpt>
      <trkpt lat="45.00543" lon="5.82085">
        <ele>1920.1999511719</ele>
        <time>2023-10-01T10:12:39.000Z</time>
      </trkpt>
      <trkpt lat="45.00543" lon="5.82084">
        <ele>1920</ele>
        <time>2023-10-01T10:12:40.000Z</time>
      </trkpt>
      <trkpt lat="45.00543" lon="5.82084">
        <ele>1919.5999755859</ele>
        <time>2023-10-01T10:12:41.000Z</time>
      </trkpt>
      <trkpt lat="45.00543" lon="5.82083">
        <ele>1919.4000244141</ele>
        <time>2023-10-01T10:12:42.000Z</time>
      </trkpt>
      <trkpt lat="45.00543" lon="5.82082">
        <ele>1919.4000244141</ele>
        <time>2023-10-01T10:12:43.000Z</time>
      </trkpt>
      <trkpt lat="45.00542" lon="5.82082">
        <ele>1919.4000244141</ele>
        <time>2023-10-01T10:12:44.000Z</time>
      </trkpt>
      <trkpt lat="45.00542" lon="5.82081">
        <ele>1919.1999511719</ele>
        <time>2023-10-01T10:12:45.000Z</time>
      </trkpt>
      <trkpt lat="45.00542" lon="5.8208">
        <ele>1919</ele>
        <time>2023-10-01T10:12:46.000Z</time>
      </trkpt>
      <trkpt lat="45.00542" lon="5.82079">
        <ele>1919</ele>
        <time>2023-10-01T10:12:47.000Z</time>
      </trkpt>
      <trkpt lat="45.00542" lon="5.82078">
        <ele>1918.5999755859</ele>
        <time>2023-10-01T10:12:48.000Z</time>
      </trkpt>
      <trkpt lat="45.00543" lon="5.82077">
        <ele>1918.4000244141</ele>
        <time>2023-10-01T10:12:49.000Z</time>
      </trkpt>
      <trkpt lat="45.00543" lon="5.82077">
        <ele>1918</ele>
        <time>2023-10-01T10:12:50.000Z</time>
      </trkpt>
      <trkpt lat="45.00543" lon="5.82077">
        <ele>1918</ele>
        <time>2023-10-01T10:12:51.000Z</time>
      </trkpt>
      <trkpt lat="45.00543" lon="5.82077">
        <ele>1917.5999755859</ele>
        <time>2023-10-01T10:12:52.000Z</time>
      </trkpt>
      <trkpt lat="45.00543" lon="5.82076">
        <ele>1917.4000244141</ele>
        <time>2023-10-01T10:12:53.000Z</time>
      </trkpt>
      <trkpt lat="45.00543" lon="5.82076">
        <ele>1917.1999511719</ele>
        <time>2023-10-01T10:12:54.000Z</time>
      </trkpt>
      <trkpt lat="45.00543" lon="5.82076">
        <ele>1917.1999511719</ele>
        <time>2023-10-01T10:12:55.000Z</time>
      </trkpt>
      <trkpt lat="45.00544" lon="5.82076">
        <ele>1917</ele>
        <time>2023-10-01T10:12:56.000Z</time>
      </trkpt>
      <trkpt lat="45.00544" lon="5.82076">
        <ele>1916.5999755859</ele>
        <time>2023-10-01T10:12:57.000Z</time>
      </trkpt>
      <trkpt lat="45.00544" lon="5.82075">
        <ele>1916.1999511719</ele>
        <time>2023-10-01T10:12:58.000Z</time>
      </trkpt>
      <trkpt lat="45.00544" lon="5.82075">
        <ele>1916</ele>
        <time>2023-10-01T10:12:59.000Z</time>
      </trkpt>
      <trkpt lat="45.00544" lon="5.82074">
        <ele>1915.8000488281</ele>
        <time>2023-10-01T10:13:00.000Z</time>
      </trkpt>
      <trkpt lat="45.00544" lon="5.82073">
        <ele>1915.8000488281</ele>
        <time>2023-10-01T10:13:01.000Z</time>
      </trkpt>
      <trkpt lat="45.00544" lon="5.82072">
        <ele>1915.4000244141</ele>
        <time>2023-10-01T10:13:02.000Z</time>
      </trkpt>
      <trkpt lat="45.00544" lon="5.82071">
        <ele>1915.1999511719</ele>
        <time>2023-10-01T10:13:03.000Z</time>
      </trkpt>
      <trkpt lat="45.00544" lon="5.82071">
        <ele>1914.8000488281</ele>
        <time>2023-10-01T10:13:04.000Z</time>
      </trkpt>
      <trkpt lat="45.00544" lon="5.8207">
        <ele>1914.5999755859</ele>
        <time>2023-10-01T10:13:05.000Z</time>
      </trkpt>
      <trkpt lat="45.00544" lon="5.8207">
        <ele>1914.4000244141</ele>
        <time>2023-10-01T10:13:06.000Z</time>
      </trkpt>
      <trkpt lat="45.00543" lon="5.8207">
        <ele>1914.1999511719</ele>
        <time>2023-10-01T10:13:07.000Z</time>
      </trkpt>
      <trkpt lat="45.00543" lon="5.8207">
        <ele>1914</ele>
        <time>2023-10-01T10:13:08.000Z</time>
      </trkpt>
      <trkpt lat="45.00543" lon="5.82069">
        <ele>1913.8000488281</ele>
        <time>2023-10-01T10:13:09.000Z</time>
      </trkpt>
      <trkpt lat="45.00542" lon="5.82069">
        <ele>1913.5999755859</ele>
        <time>2023-10-01T10:13:10.000Z</time>
      </trkpt>
      <trkpt lat="45.00542" lon="5.82068">
        <ele>1913.5999755859</ele>
        <time>2023-10-01T10:13:11.000Z</time>
      </trkpt>
      <trkpt lat="45.00543" lon="5.82067">
        <ele>1913.4000244141</ele>
        <time>2023-10-01T10:13:12.000Z</time>
      </trkpt>
      <trkpt lat="45.00543" lon="5.82066">
        <ele>1913.1999511719</ele>
        <time>2023-10-01T10:13:13.000Z</time>
      </trkpt>
      <trkpt lat="45.00543" lon="5.82066">
        <ele>1912.5999755859</ele>
        <time>2023-10-01T10:13:14.000Z</time>
      </trkpt>
      <trkpt lat="45.00543" lon="5.82065">
        <ele>1912.4000244141</ele>
        <time>2023-10-01T10:13:15.000Z</time>
      </trkpt>
      <trkpt lat="45.00543" lon="5.82065">
        <ele>1912</ele>
        <time>2023-10-01T10:13:16.000Z</time>
      </trkpt>
      <trkpt lat="45.00544" lon="5.82064">
        <ele>1911.8000488281</ele>
        <time>2023-10-01T10:13:17.000Z</time>
      </trkpt>
      <trkpt lat="45.00544" lon="5.82064">
        <ele>1911.4000244141</ele>
        <time>2023-10-01T10:13:18.000Z</time>
      </trkpt>
      <trkpt lat="45.00544" lon="5.82064">
        <ele>1911</ele>
        <time>2023-10-01T10:13:19.000Z</time>
      </trkpt>
      <trkpt lat="45.00544" lon="5.82063">
        <ele>1910.8000488281</ele>
        <time>2023-10-01T10:13:20.000Z</time>
      </trkpt>
      <trkpt lat="45.00545" lon="5.82063">
        <ele>1910.5999755859</ele>
        <time>2023-10-01T10:13:21.000Z</time>
      </trkpt>
      <trkpt lat="45.00545" lon="5.82063">
        <ele>1910.5999755859</ele>
        <time>2023-10-01T10:13:22.000Z</time>
      </trkpt>
      <trkpt lat="45.00546" lon="5.82062">
        <ele>1910.5999755859</ele>
        <time>2023-10-01T10:13:23.000Z</time>
      </trkpt>
      <trkpt lat="45.00546" lon="5.82062">
        <ele>1910.4000244141</ele>
        <time>2023-10-01T10:13:24.000Z</time>
      </trkpt>
      <trkpt lat="45.00547" lon="5.82061">
        <ele>1910.1999511719</ele>
        <time>2023-10-01T10:13:25.000Z</time>
      </trkpt>
      <trkpt lat="45.00547" lon="5.82061">
        <ele>1909.8000488281</ele>
        <time>2023-10-01T10:13:26.000Z</time>
      </trkpt>
      <trkpt lat="45.00547" lon="5.82061">
        <ele>1909.5999755859</ele>
        <time>2023-10-01T10:13:27.000Z</time>
      </trkpt>
      <trkpt lat="45.00546" lon="5.8206">
        <ele>1909.1999511719</ele>
        <time>2023-10-01T10:13:28.000Z</time>
      </trkpt>
      <trkpt lat="45.00546" lon="5.82059">
        <ele>1909</ele>
        <time>2023-10-01T10:13:29.000Z</time>
      </trkpt>
      <trkpt lat="45.00546" lon="5.82059">
        <ele>1908.8000488281</ele>
        <time>2023-10-01T10:13:30.000Z</time>
      </trkpt>
      <trkpt lat="45.00546" lon="5.82059">
        <ele>1908.8000488281</ele>
        <time>2023-10-01T10:13:31.000Z</time>
      </trkpt>
      <trkpt lat="45.00545" lon="5.82058">
        <ele>1908.4000244141</ele>
        <time>2023-10-01T10:13:32.000Z</time>
      </trkpt>
      <trkpt lat="45.00545" lon="5.82058">
        <ele>1908.1999511719</ele>
        <time>2023-10-01T10:13:33.000Z</time>
      </trkpt>
      <trkpt lat="45.00544" lon="5.82057">
        <ele>1908</ele>
        <time>2023-10-01T10:13:34.000Z</time>
      </trkpt>
      <trkpt lat="45.00544" lon="5.82056">
        <ele>1908</ele>
        <time>2023-10-01T10:13:35.000Z</time>
      </trkpt>
      <trkpt lat="45.00544" lon="5.82055">
        <ele>1907.8000488281</ele>
        <time>2023-10-01T10:13:36.000Z</time>
      </trkpt>
      <trkpt lat="45.00545" lon="5.82055">
        <ele>1907</ele>
        <time>2023-10-01T10:13:37.000Z</time>
      </trkpt>
      <trkpt lat="45.00545" lon="5.82054">
        <ele>1906.8000488281</ele>
        <time>2023-10-01T10:13:38.000Z</time>
      </trkpt>
      <trkpt lat="45.00546" lon="5.82053">
        <ele>1906.8000488281</ele>
        <time>2023-10-01T10:13:39.000Z</time>
      </trkpt>
      <trkpt lat="45.00545" lon="5.82053">
        <ele>1906.5999755859</ele>
        <time>2023-10-01T10:13:40.000Z</time>
      </trkpt>
      <trkpt lat="45.00546" lon="5.82052">
        <ele>1906.1999511719</ele>
        <time>2023-10-01T10:13:41.000Z</time>
      </trkpt>
      <trkpt lat="45.00547" lon="5.82051">
        <ele>1906.1999511719</ele>
        <time>2023-10-01T10:13:42.000Z</time>
      </trkpt>
      <trkpt lat="45.00547" lon="5.82051">
        <ele>1906</ele>
        <time>2023-10-01T10:13:43.000Z</time>
      </trkpt>
      <trkpt lat="45.00547" lon="5.8205">
        <ele>1905.5999755859</ele>
        <time>2023-10-01T10:13:44.000Z</time>
      </trkpt>
      <trkpt lat="45.00546" lon="5.8205">
        <ele>1905.4000244141</ele>
        <time>2023-10-01T10:13:45.000Z</time>
      </trkpt>
      <trkpt lat="45.00546" lon="5.82049">
        <ele>1905</ele>
        <time>2023-10-01T10:13:46.000Z</time>
      </trkpt>
      <trkpt lat="45.00546" lon="5.82048">
        <ele>1904.8000488281</ele>
        <time>2023-10-01T10:13:47.000Z</time>
      </trkpt>
      <trkpt lat="45.00547" lon="5.82048">
        <ele>1904.5999755859</ele>
        <time>2023-10-01T10:13:48.000Z</time>
      </trkpt>
      <trkpt lat="45.00547" lon="5.82047">
        <ele>1904.4000244141</ele>
        <time>2023-10-01T10:13:49.000Z</time>
      </trkpt>
      <trkpt lat="45.00548" lon="5.82047">
        <ele>1904.1999511719</ele>
        <time>2023-10-01T10:13:50.000Z</time>
      </trkpt>
      <trkpt lat="45.00548" lon="5.82047">
        <ele>1903.8000488281</ele>
        <time>2023-10-01T10:13:51.000Z</time>
      </trkpt>
      <trkpt lat="45.00549" lon="5.82047">
        <ele>1903.8000488281</ele>
        <time>2023-10-01T10:13:52.000Z</time>
      </trkpt>
      <trkpt lat="45.0055" lon="5.82047">
        <ele>1903.8000488281</ele>
        <time>2023-10-01T10:13:53.000Z</time>
      </trkpt>
      <trkpt lat="45.0055" lon="5.82046">
        <ele>1903.8000488281</ele>
        <time>2023-10-01T10:13:54.000Z</time>
      </trkpt>
      <trkpt lat="45.00551" lon="5.82046">
        <ele>1903.5999755859</ele>
        <time>2023-10-01T10:13:55.000Z</time>
      </trkpt>
      <trkpt lat="45.00551" lon="5.82045">
        <ele>1903.4000244141</ele>
        <time>2023-10-01T10:13:56.000Z</time>
      </trkpt>
      <trkpt lat="45.00551" lon="5.82044">
        <ele>1903</ele>
        <time>2023-10-01T10:13:57.000Z</time>
      </trkpt>
      <trkpt lat="45.00551" lon="5.82044">
        <ele>1902.1999511719</ele>
        <time>2023-10-01T10:13:58.000Z</time>
      </trkpt>
      <trkpt lat="45.0055" lon="5.82043">
        <ele>1901.5999755859</ele>
        <time>2023-10-01T10:13:59.000Z</time>
      </trkpt>
      <trkpt lat="45.0055" lon="5.82042">
        <ele>1901.5999755859</ele>
        <time>2023-10-01T10:14:00.000Z</time>
      </trkpt>
      <trkpt lat="45.0055" lon="5.82041">
        <ele>1901.5999755859</ele>
        <time>2023-10-01T10:14:01.000Z</time>
      </trkpt>
      <trkpt lat="45.0055" lon="5.82041">
        <ele>1901</ele>
        <time>2023-10-01T10:14:02.000Z</time>
      </trkpt>
      <trkpt lat="45.0055" lon="5.8204">
        <ele>1900.4000244141</ele>
        <time>2023-10-01T10:14:03.000Z</time>
      </trkpt>
      <trkpt lat="45.0055" lon="5.8204">
        <ele>1900.1999511719</ele>
        <time>2023-10-01T10:14:04.000Z</time>
      </trkpt>
      <trkpt lat="45.0055" lon="5.82039">
        <ele>1899.8000488281</ele>
        <time>2023-10-01T10:14:05.000Z</time>
      </trkpt>
      <trkpt lat="45.00549" lon="5.82039">
        <ele>1899.5999755859</ele>
        <time>2023-10-01T10:14:06.000Z</time>
      </trkpt>
      <trkpt lat="45.00549" lon="5.82039">
        <ele>1899.4000244141</ele>
        <time>2023-10-01T10:14:07.000Z</time>
      </trkpt>
      <trkpt lat="45.00549" lon="5.82039">
        <ele>1899</ele>
        <time>2023-10-01T10:14:08.000Z</time>
      </trkpt>
      <trkpt lat="45.00549" lon="5.82038">
        <ele>1898.5999755859</ele>
        <time>2023-10-01T10:14:09.000Z</time>
      </trkpt>
      <trkpt lat="45.00549" lon="5.82038">
        <ele>1898.1999511719</ele>
        <time>2023-10-01T10:14:10.000Z</time>
      </trkpt>
      <trkpt lat="45.00549" lon="5.82037">
        <ele>1898.1999511719</ele>
        <time>2023-10-01T10:14:11.000Z</time>
      </trkpt>
      <trkpt lat="45.0055" lon="5.82036">
        <ele>1898</ele>
        <time>2023-10-01T10:14:12.000Z</time>
      </trkpt>
      <trkpt lat="45.0055" lon="5.82035">
        <ele>1897.8000488281</ele>
        <time>2023-10-01T10:14:13.000Z</time>
      </trkpt>
      <trkpt lat="45.0055" lon="5.82034">
        <ele>1897.5999755859</ele>
        <time>2023-10-01T10:14:14.000Z</time>
      </trkpt>
      <trkpt lat="45.00551" lon="5.82034">
        <ele>1897.4000244141</ele>
        <time>2023-10-01T10:14:15.000Z</time>
      </trkpt>
      <trkpt lat="45.00551" lon="5.82034">
        <ele>1897.4000244141</ele>
        <time>2023-10-01T10:14:16.000Z</time>
      </trkpt>
      <trkpt lat="45.00551" lon="5.82034">
        <ele>1897</ele>
        <time>2023-10-01T10:14:17.000Z</time>
      </trkpt>
      <trkpt lat="45.00551" lon="5.82033">
        <ele>1896.5999755859</ele>
        <time>2023-10-01T10:14:18.000Z</time>
      </trkpt>
      <trkpt lat="45.00551" lon="5.82033">
        <ele>1896.4000244141</ele>
        <time>2023-10-01T10:14:19.000Z</time>
      </trkpt>
      <trkpt lat="45.0055" lon="5.82032">
        <ele>1896.1999511719</ele>
        <time>2023-10-01T10:14:20.000Z</time>
      </trkpt>
      <trkpt lat="45.0055" lon="5.82032">
        <ele>1896</ele>
        <time>2023-10-01T10:14:21.000Z</time>
      </trkpt>
      <trkpt lat="45.0055" lon="5.82031">
        <ele>1895.8000488281</ele>
        <time>2023-10-01T10:14:22.000Z</time>
      </trkpt>
      <trkpt lat="45.0055" lon="5.8203">
        <ele>1895.4000244141</ele>
        <time>2023-10-01T10:14:23.000Z</time>
      </trkpt>
      <trkpt lat="45.0055" lon="5.82029">
        <ele>1895.1999511719</ele>
        <time>2023-10-01T10:14:24.000Z</time>
      </trkpt>
      <trkpt lat="45.0055" lon="5.82029">
        <ele>1895</ele>
        <time>2023-10-01T10:14:25.000Z</time>
      </trkpt>
      <trkpt lat="45.00551" lon="5.82029">
        <ele>1894.5999755859</ele>
        <time>2023-10-01T10:14:26.000Z</time>
      </trkpt>
      <trkpt lat="45.00552" lon="5.82029">
        <ele>1894</ele>
        <time>2023-10-01T10:14:27.000Z</time>
      </trkpt>
      <trkpt lat="45.00552" lon="5.82028">
        <ele>1894</ele>
        <time>2023-10-01T10:14:28.000Z</time>
      </trkpt>
      <trkpt lat="45.00552" lon="5.82028">
        <ele>1894</ele>
        <time>2023-10-01T10:14:29.000Z</time>
      </trkpt>
      <trkpt lat="45.00551" lon="5.82028">
        <ele>1893.8000488281</ele>
        <time>2023-10-01T10:14:30.000Z</time>
      </trkpt>
      <trkpt lat="45.00551" lon="5.82027">
        <ele>1893.4000244141</ele>
        <time>2023-10-01T10:14:31.000Z</time>
      </trkpt>
      <trkpt lat="45.00551" lon="5.82027">
        <ele>1892.8000488281</ele>
        <time>2023-10-01T10:14:32.000Z</time>
      </trkpt>
      <trkpt lat="45.00552" lon="5.82027">
        <ele>1892.4000244141</ele>
        <time>2023-10-01T10:14:33.000Z</time>
      </trkpt>
      <trkpt lat="45.00552" lon="5.82027">
        <ele>1892.4000244141</ele>
        <time>2023-10-01T10:14:34.000Z</time>
      </trkpt>
      <trkpt lat="45.00552" lon="5.82027">
        <ele>1892.4000244141</ele>
        <time>2023-10-01T10:14:35.000Z</time>
      </trkpt>
      <trkpt lat="45.00553" lon="5.82026">
        <ele>1892.4000244141</ele>
        <time>2023-10-01T10:14:36.000Z</time>
      </trkpt>
      <trkpt lat="45.00553" lon="5.82025">
        <ele>1892.1999511719</ele>
        <time>2023-10-01T10:14:37.000Z</time>
      </trkpt>
      <trkpt lat="45.00553" lon="5.82025">
        <ele>1892</ele>
        <time>2023-10-01T10:14:38.000Z</time>
      </trkpt>
      <trkpt lat="45.00553" lon="5.82025">
        <ele>1891.8000488281</ele>
        <time>2023-10-01T10:14:39.000Z</time>
      </trkpt>
      <trkpt lat="45.00552" lon="5.82024">
        <ele>1891.4000244141</ele>
        <time>2023-10-01T10:14:40.000Z</time>
      </trkpt>
      <trkpt lat="45.00552" lon="5.82024">
        <ele>1891.4000244141</ele>
        <time>2023-10-01T10:14:41.000Z</time>
      </trkpt>
      <trkpt lat="45.00552" lon="5.82023">
        <ele>1891.1999511719</ele>
        <time>2023-10-01T10:14:42.000Z</time>
      </trkpt>
      <trkpt lat="45.00551" lon="5.82022">
        <ele>1891.1999511719</ele>
        <time>2023-10-01T10:14:43.000Z</time>
      </trkpt>
      <trkpt lat="45.00551" lon="5.82021">
        <ele>1891</ele>
        <time>2023-10-01T10:14:44.000Z</time>
      </trkpt>
      <trkpt lat="45.0055" lon="5.82021">
        <ele>1890.5999755859</ele>
        <time>2023-10-01T10:14:45.000Z</time>
      </trkpt>
      <trkpt lat="45.0055" lon="5.8202">
        <ele>1890.5999755859</ele>
        <time>2023-10-01T10:14:46.000Z</time>
      </trkpt>
      <trkpt lat="45.0055" lon="5.8202">
        <ele>1890.4000244141</ele>
        <time>2023-10-01T10:14:47.000Z</time>
      </trkpt>
      <trkpt lat="45.0055" lon="5.82019">
        <ele>1889.8000488281</ele>
        <time>2023-10-01T10:14:48.000Z</time>
      </trkpt>
      <trkpt lat="45.00551" lon="5.82019">
        <ele>1889.8000488281</ele>
        <time>2023-10-01T10:14:49.000Z</time>
      </trkpt>
      <trkpt lat="45.00551" lon="5.82019">
        <ele>1889.5999755859</ele>
        <time>2023-10-01T10:14:50.000Z</time>
      </trkpt>
      <trkpt lat="45.00552" lon="5.82019">
        <ele>1889.5999755859</ele>
        <time>2023-10-01T10:14:51.000Z</time>
      </trkpt>
      <trkpt lat="45.00552" lon="5.82019">
        <ele>1889.4000244141</ele>
        <time>2023-10-01T10:14:52.000Z</time>
      </trkpt>
      <trkpt lat="45.00552" lon="5.82018">
        <ele>1889.1999511719</ele>
        <time>2023-10-01T10:14:53.000Z</time>
      </trkpt>
      <trkpt lat="45.00551" lon="5.82018">
        <ele>1889</ele>
        <time>2023-10-01T10:14:54.000Z</time>
      </trkpt>
      <trkpt lat="45.00551" lon="5.82018">
        <ele>1889</ele>
        <time>2023-10-01T10:14:55.000Z</time>
      </trkpt>
      <trkpt lat="45.00551" lon="5.82017">
        <ele>1888.8000488281</ele>
        <time>2023-10-01T10:14:56.000Z</time>
      </trkpt>
      <trkpt lat="45.00551" lon="5.82016">
        <ele>1888.5999755859</ele>
        <time>2023-10-01T10:14:57.000Z</time>
      </trkpt>
      <trkpt lat="45.00551" lon="5.82016">
        <ele>1888.1999511719</ele>
        <time>2023-10-01T10:14:58.000Z</time>
      </trkpt>
      <trkpt lat="45.00552" lon="5.82015">
        <ele>1888</ele>
        <time>2023-10-01T10:14:59.000Z</time>
      </trkpt>
      <trkpt lat="45.00552" lon="5.82015">
        <ele>1887.8000488281</ele>
        <time>2023-10-01T10:15:00.000Z</time>
      </trkpt>
      <trkpt lat="45.00553" lon="5.82014">
        <ele>1887.4000244141</ele>
        <time>2023-10-01T10:15:01.000Z</time>
      </trkpt>
      <trkpt lat="45.00553" lon="5.82014">
        <ele>1887.1999511719</ele>
        <time>2023-10-01T10:15:02.000Z</time>
      </trkpt>
      <trkpt lat="45.00554" lon="5.82014">
        <ele>1887</ele>
        <time>2023-10-01T10:15:03.000Z</time>
      </trkpt>
      <trkpt lat="45.00554" lon="5.82013">
        <ele>1886.5999755859</ele>
        <time>2023-10-01T10:15:04.000Z</time>
      </trkpt>
      <trkpt lat="45.00555" lon="5.82013">
        <ele>1886.4000244141</ele>
        <time>2023-10-01T10:15:05.000Z</time>
      </trkpt>
      <trkpt lat="45.00555" lon="5.82012">
        <ele>1886.1999511719</ele>
        <time>2023-10-01T10:15:06.000Z</time>
      </trkpt>
      <trkpt lat="45.00555" lon="5.82012">
        <ele>1885.8000488281</ele>
        <time>2023-10-01T10:15:07.000Z</time>
      </trkpt>
      <trkpt lat="45.00555" lon="5.82012">
        <ele>1885.5999755859</ele>
        <time>2023-10-01T10:15:08.000Z</time>
      </trkpt>
      <trkpt lat="45.00555" lon="5.82011">
        <ele>1885.1999511719</ele>
        <time>2023-10-01T10:15:09.000Z</time>
      </trkpt>
      <trkpt lat="45.00555" lon="5.82011">
        <ele>1884.8000488281</ele>
        <time>2023-10-01T10:15:10.000Z</time>
      </trkpt>
      <trkpt lat="45.00554" lon="5.8201">
        <ele>1884.4000244141</ele>
        <time>2023-10-01T10:15:11.000Z</time>
      </trkpt>
      <trkpt lat="45.00554" lon="5.8201">
        <ele>1884.1999511719</ele>
        <time>2023-10-01T10:15:12.000Z</time>
      </trkpt>
      <trkpt lat="45.00554" lon="5.8201">
        <ele>1884.1999511719</ele>
        <time>2023-10-01T10:15:13.000Z</time>
      </trkpt>
      <trkpt lat="45.00554" lon="5.8201">
        <ele>1884.1999511719</ele>
        <time>2023-10-01T10:15:14.000Z</time>
      </trkpt>
      <trkpt lat="45.00554" lon="5.82009">
        <ele>1883.5999755859</ele>
        <time>2023-10-01T10:15:15.000Z</time>
      </trkpt>
      <trkpt lat="45.00554" lon="5.82008">
        <ele>1883.1999511719</ele>
        <time>2023-10-01T10:15:16.000Z</time>
      </trkpt>
      <trkpt lat="45.00554" lon="5.82007">
        <ele>1883</ele>
        <time>2023-10-01T10:15:17.000Z</time>
      </trkpt>
      <trkpt lat="45.00554" lon="5.82007">
        <ele>1882.5999755859</ele>
        <time>2023-10-01T10:15:18.000Z</time>
      </trkpt>
      <trkpt lat="45.00555" lon="5.82006">
        <ele>1882.5999755859</ele>
        <time>2023-10-01T10:15:19.000Z</time>
      </trkpt>
      <trkpt lat="45.00555" lon="5.82006">
        <ele>1882.4000244141</ele>
        <time>2023-10-01T10:15:20.000Z</time>
      </trkpt>
      <trkpt lat="45.00555" lon="5.82005">
        <ele>1882.1999511719</ele>
        <time>2023-10-01T10:15:21.000Z</time>
      </trkpt>
      <trkpt lat="45.00555" lon="5.82005">
        <ele>1881.8000488281</ele>
        <time>2023-10-01T10:15:22.000Z</time>
      </trkpt>
      <trkpt lat="45.00556" lon="5.82005">
        <ele>1881.8000488281</ele>
        <time>2023-10-01T10:15:23.000Z</time>
      </trkpt>
      <trkpt lat="45.00556" lon="5.82005">
        <ele>1881.4000244141</ele>
        <time>2023-10-01T10:15:24.000Z</time>
      </trkpt>
      <trkpt lat="45.00556" lon="5.82004">
        <ele>1881.1999511719</ele>
        <time>2023-10-01T10:15:25.000Z</time>
      </trkpt>
      <trkpt lat="45.00556" lon="5.82004">
        <ele>1880.8000488281</ele>
        <time>2023-10-01T10:15:26.000Z</time>
      </trkpt>
      <trkpt lat="45.00556" lon="5.82003">
        <ele>1880.4000244141</ele>
        <time>2023-10-01T10:15:27.000Z</time>
      </trkpt>
      <trkpt lat="45.00556" lon="5.82003">
        <ele>1880</ele>
        <time>2023-10-01T10:15:28.000Z</time>
      </trkpt>
      <trkpt lat="45.00556" lon="5.82002">
        <ele>1879.8000488281</ele>
        <time>2023-10-01T10:15:29.000Z</time>
      </trkpt>
      <trkpt lat="45.00556" lon="5.82002">
        <ele>1879.5999755859</ele>
        <time>2023-10-01T10:15:30.000Z</time>
      </trkpt>
      <trkpt lat="45.00555" lon="5.82002">
        <ele>1879.4000244141</ele>
        <time>2023-10-01T10:15:31.000Z</time>
      </trkpt>
      <trkpt lat="45.00555" lon="5.82001">
        <ele>1879.1999511719</ele>
        <time>2023-10-01T10:15:32.000Z</time>
      </trkpt>
      <trkpt lat="45.00555" lon="5.82">
        <ele>1879</ele>
        <time>2023-10-01T10:15:33.000Z</time>
      </trkpt>
      <trkpt lat="45.00555" lon="5.82">
        <ele>1878.8000488281</ele>
        <time>2023-10-01T10:15:34.000Z</time>
      </trkpt>
      <trkpt lat="45.00555" lon="5.81999">
        <ele>1878.4000244141</ele>
        <time>2023-10-01T10:15:35.000Z</time>
      </trkpt>
      <trkpt lat="45.00555" lon="5.81998">
        <ele>1878.1999511719</ele>
        <time>2023-10-01T10:15:36.000Z</time>
      </trkpt>
      <trkpt lat="45.00556" lon="5.81998">
        <ele>1878</ele>
        <time>2023-10-01T10:15:37.000Z</time>
      </trkpt>
      <trkpt lat="45.00556" lon="5.81997">
        <ele>1877.5999755859</ele>
        <time>2023-10-01T10:15:38.000Z</time>
      </trkpt>
      <trkpt lat="45.00556" lon="5.81997">
        <ele>1877.4000244141</ele>
        <time>2023-10-01T10:15:39.000Z</time>
      </trkpt>
      <trkpt lat="45.00556" lon="5.81997">
        <ele>1877.4000244141</ele>
        <time>2023-10-01T10:15:40.000Z</time>
      </trkpt>
      <trkpt lat="45.00556" lon="5.81996">
        <ele>1877.1999511719</ele>
        <time>2023-10-01T10:15:41.000Z</time>
      </trkpt>
      <trkpt lat="45.00556" lon="5.81995">
        <ele>1877.1999511719</ele>
        <time>2023-10-01T10:15:42.000Z</time>
      </trkpt>
      <trkpt lat="45.00556" lon="5.81995">
        <ele>1876.8000488281</ele>
        <time>2023-10-01T10:15:43.000Z</time>
      </trkpt>
      <trkpt lat="45.00555" lon="5.81994">
        <ele>1876.4000244141</ele>
        <time>2023-10-01T10:15:44.000Z</time>
      </trkpt>
      <trkpt lat="45.00555" lon="5.81994">
        <ele>1876.1999511719</ele>
        <time>2023-10-01T10:15:45.000Z</time>
      </trkpt>
      <trkpt lat="45.00555" lon="5.81993">
        <ele>1876</ele>
        <time>2023-10-01T10:15:46.000Z</time>
      </trkpt>
      <trkpt lat="45.00555" lon="5.81993">
        <ele>1876</ele>
        <time>2023-10-01T10:15:47.000Z</time>
      </trkpt>
      <trkpt lat="45.00555" lon="5.81993">
        <ele>1875.5999755859</ele>
        <time>2023-10-01T10:15:48.000Z</time>
      </trkpt>
      <trkpt lat="45.00555" lon="5.81993">
        <ele>1875.1999511719</ele>
        <time>2023-10-01T10:15:49.000Z</time>
      </trkpt>
      <trkpt lat="45.00555" lon="5.81993">
        <ele>1875</ele>
        <time>2023-10-01T10:15:50.000Z</time>
      </trkpt>
      <trkpt lat="45.00555" lon="5.81992">
        <ele>1874.8000488281</ele>
        <time>2023-10-01T10:15:51.000Z</time>
      </trkpt>
      <trkpt lat="45.00555" lon="5.81992">
        <ele>1874.5999755859</ele>
        <time>2023-10-01T10:15:52.000Z</time>
      </trkpt>
      <trkpt lat="45.00555" lon="5.81992">
        <ele>1874</ele>
        <time>2023-10-01T10:15:53.000Z</time>
      </trkpt>
      <trkpt lat="45.00555" lon="5.81992">
        <ele>1873.8000488281</ele>
        <time>2023-10-01T10:15:54.000Z</time>
      </trkpt>
      <trkpt lat="45.00555" lon="5.81992">
        <ele>1873.4000244141</ele>
        <time>2023-10-01T10:15:55.000Z</time>
      </trkpt>
      <trkpt lat="45.00555" lon="5.81991">
        <ele>1873</ele>
        <time>2023-10-01T10:15:56.000Z</time>
      </trkpt>
      <trkpt lat="45.00555" lon="5.8199">
        <ele>1872.5999755859</ele>
        <time>2023-10-01T10:15:57.000Z</time>
      </trkpt>
      <trkpt lat="45.00556" lon="5.8199">
        <ele>1872.5999755859</ele>
        <time>2023-10-01T10:15:58.000Z</time>
      </trkpt>
      <trkpt lat="45.00556" lon="5.81989">
        <ele>1872.5999755859</ele>
        <time>2023-10-01T10:15:59.000Z</time>
      </trkpt>
      <trkpt lat="45.00556" lon="5.81989">
        <ele>1872.5999755859</ele>
        <time>2023-10-01T10:16:00.000Z</time>
      </trkpt>
      <trkpt lat="45.00557" lon="5.81989">
        <ele>1872.5999755859</ele>
        <time>2023-10-01T10:16:01.000Z</time>
      </trkpt>
      <trkpt lat="45.00557" lon="5.81988">
        <ele>1872.5999755859</ele>
        <time>2023-10-01T10:16:02.000Z</time>
      </trkpt>
      <trkpt lat="45.00556" lon="5.81988">
        <ele>1872.5999755859</ele>
        <time>2023-10-01T10:16:03.000Z</time>
      </trkpt>
      <trkpt lat="45.00556" lon="5.81988">
        <ele>1872.4000244141</ele>
        <time>2023-10-01T10:16:04.000Z</time>
      </trkpt>
      <trkpt lat="45.00556" lon="5.81987">
        <ele>1872.1999511719</ele>
        <time>2023-10-01T10:16:05.000Z</time>
      </trkpt>
      <trkpt lat="45.00556" lon="5.81986">
        <ele>1872</ele>
        <time>2023-10-01T10:16:06.000Z</time>
      </trkpt>
      <trkpt lat="45.00556" lon="5.81986">
        <ele>1871.5999755859</ele>
        <time>2023-10-01T10:16:07.000Z</time>
      </trkpt>
      <trkpt lat="45.00557" lon="5.81985">
        <ele>1871.1999511719</ele>
        <time>2023-10-01T10:16:08.000Z</time>
      </trkpt>
      <trkpt lat="45.00557" lon="5.81985">
        <ele>1871</ele>
        <time>2023-10-01T10:16:09.000Z</time>
      </trkpt>
      <trkpt lat="45.00558" lon="5.81984">
        <ele>1870.8000488281</ele>
        <time>2023-10-01T10:16:10.000Z</time>
      </trkpt>
      <trkpt lat="45.00557" lon="5.81984">
        <ele>1870.8000488281</ele>
        <time>2023-10-01T10:16:11.000Z</time>
      </trkpt>
      <trkpt lat="45.00557" lon="5.81984">
        <ele>1870.5999755859</ele>
        <time>2023-10-01T10:16:12.000Z</time>
      </trkpt>
      <trkpt lat="45.00557" lon="5.81984">
        <ele>1870.1999511719</ele>
        <time>2023-10-01T10:16:13.000Z</time>
      </trkpt>
      <trkpt lat="45.00557" lon="5.81983">
        <ele>1870.1999511719</ele>
        <time>2023-10-01T10:16:14.000Z</time>
      </trkpt>
      <trkpt lat="45.00557" lon="5.81983">
        <ele>1870</ele>
        <time>2023-10-01T10:16:15.000Z</time>
      </trkpt>
      <trkpt lat="45.00557" lon="5.81983">
        <ele>1869.8000488281</ele>
        <time>2023-10-01T10:16:16.000Z</time>
      </trkpt>
      <trkpt lat="45.00557" lon="5.81982">
        <ele>1869.5999755859</ele>
        <time>2023-10-01T10:16:17.000Z</time>
      </trkpt>
      <trkpt lat="45.00557" lon="5.81982">
        <ele>1869.1999511719</ele>
        <time>2023-10-01T10:16:18.000Z</time>
      </trkpt>
      <trkpt lat="45.00557" lon="5.81982">
        <ele>1869</ele>
        <time>2023-10-01T10:16:19.000Z</time>
      </trkpt>
      <trkpt lat="45.00557" lon="5.81981">
        <ele>1868.8000488281</ele>
        <time>2023-10-01T10:16:20.000Z</time>
      </trkpt>
      <trkpt lat="45.00558" lon="5.8198">
        <ele>1868.5999755859</ele>
        <time>2023-10-01T10:16:21.000Z</time>
      </trkpt>
      <trkpt lat="45.00558" lon="5.8198">
        <ele>1868.5999755859</ele>
        <time>2023-10-01T10:16:22.000Z</time>
      </trkpt>
      <trkpt lat="45.00558" lon="5.8198">
        <ele>1868.4000244141</ele>
        <time>2023-10-01T10:16:23.000Z</time>
      </trkpt>
      <trkpt lat="45.00558" lon="5.8198">
        <ele>1868</ele>
        <time>2023-10-01T10:16:24.000Z</time>
      </trkpt>
      <trkpt lat="45.00558" lon="5.81979">
        <ele>1867.8000488281</ele>
        <time>2023-10-01T10:16:25.000Z</time>
      </trkpt>
      <trkpt lat="45.00558" lon="5.81979">
        <ele>1867.5999755859</ele>
        <time>2023-10-01T10:16:26.000Z</time>
      </trkpt>
      <trkpt lat="45.00557" lon="5.81978">
        <ele>1867.1999511719</ele>
        <time>2023-10-01T10:16:27.000Z</time>
      </trkpt>
      <trkpt lat="45.00557" lon="5.81978">
        <ele>1867</ele>
        <time>2023-10-01T10:16:28.000Z</time>
      </trkpt>
      <trkpt lat="45.00557" lon="5.81977">
        <ele>1866.8000488281</ele>
        <time>2023-10-01T10:16:29.000Z</time>
      </trkpt>
      <trkpt lat="45.00557" lon="5.81976">
        <ele>1866.8000488281</ele>
        <time>2023-10-01T10:16:30.000Z</time>
      </trkpt>
      <trkpt lat="45.00557" lon="5.81976">
        <ele>1866.4000244141</ele>
        <time>2023-10-01T10:16:31.000Z</time>
      </trkpt>
      <trkpt lat="45.00558" lon="5.81976">
        <ele>1866</ele>
        <time>2023-10-01T10:16:32.000Z</time>
      </trkpt>
      <trkpt lat="45.00558" lon="5.81976">
        <ele>1865.5999755859</ele>
        <time>2023-10-01T10:16:33.000Z</time>
      </trkpt>
      <trkpt lat="45.00559" lon="5.81975">
        <ele>1865.4000244141</ele>
        <time>2023-10-01T10:16:34.000Z</time>
      </trkpt>
      <trkpt lat="45.00559" lon="5.81975">
        <ele>1865.4000244141</ele>
        <time>2023-10-01T10:16:35.000Z</time>
      </trkpt>
      <trkpt lat="45.00559" lon="5.81975">
        <ele>1865</ele>
        <time>2023-10-01T10:16:36.000Z</time>
      </trkpt>
      <trkpt lat="45.00559" lon="5.81974">
        <ele>1864.8000488281</ele>
        <time>2023-10-01T10:16:37.000Z</time>
      </trkpt>
      <trkpt lat="45.00558" lon="5.81974">
        <ele>1864.4000244141</ele>
        <time>2023-10-01T10:16:38.000Z</time>
      </trkpt>
      <trkpt lat="45.00558" lon="5.81973">
        <ele>1864.1999511719</ele>
        <time>2023-10-01T10:16:39.000Z</time>
      </trkpt>
      <trkpt lat="45.00558" lon="5.81972">
        <ele>1864</ele>
        <time>2023-10-01T10:16:40.000Z</time>
      </trkpt>
      <trkpt lat="45.00558" lon="5.81972">
        <ele>1863.5999755859</ele>
        <time>2023-10-01T10:16:41.000Z</time>
      </trkpt>
      <trkpt lat="45.00558" lon="5.81971">
        <ele>1863.1999511719</ele>
        <time>2023-10-01T10:16:42.000Z</time>
      </trkpt>
      <trkpt lat="45.00557" lon="5.81971">
        <ele>1863</ele>
        <time>2023-10-01T10:16:43.000Z</time>
      </trkpt>
      <trkpt lat="45.00557" lon="5.8197">
        <ele>1863</ele>
        <time>2023-10-01T10:16:44.000Z</time>
      </trkpt>
      <trkpt lat="45.00557" lon="5.81969">
        <ele>1862.8000488281</ele>
        <time>2023-10-01T10:16:45.000Z</time>
      </trkpt>
      <trkpt lat="45.00557" lon="5.81968">
        <ele>1862.5999755859</ele>
        <time>2023-10-01T10:16:46.000Z</time>
      </trkpt>
      <trkpt lat="45.00557" lon="5.81967">
        <ele>1862.4000244141</ele>
        <time>2023-10-01T10:16:47.000Z</time>
      </trkpt>
      <trkpt lat="45.00557" lon="5.81967">
        <ele>1862</ele>
        <time>2023-10-01T10:16:48.000Z</time>
      </trkpt>
      <trkpt lat="45.00558" lon="5.81967">
        <ele>1861.8000488281</ele>
        <time>2023-10-01T10:16:49.000Z</time>
      </trkpt>
      <trkpt lat="45.00559" lon="5.81967">
        <ele>1861.4000244141</ele>
        <time>2023-10-01T10:16:50.000Z</time>
      </trkpt>
      <trkpt lat="45.00559" lon="5.81967">
        <ele>1861.1999511719</ele>
        <time>2023-10-01T10:16:51.000Z</time>
      </trkpt>
      <trkpt lat="45.00559" lon="5.81966">
        <ele>1861.1999511719</ele>
        <time>2023-10-01T10:16:52.000Z</time>
      </trkpt>
      <trkpt lat="45.00559" lon="5.81966">
        <ele>1861</ele>
        <time>2023-10-01T10:16:53.000Z</time>
      </trkpt>
      <trkpt lat="45.00559" lon="5.81966">
        <ele>1860.5999755859</ele>
        <time>2023-10-01T10:16:54.000Z</time>
      </trkpt>
      <trkpt lat="45.00558" lon="5.81965">
        <ele>1859.8000488281</ele>
        <time>2023-10-01T10:16:55.000Z</time>
      </trkpt>
      <trkpt lat="45.00557" lon="5.81964">
        <ele>1859.8000488281</ele>
        <time>2023-10-01T10:16:56.000Z</time>
      </trkpt>
      <trkpt lat="45.00557" lon="5.81964">
        <ele>1859.5999755859</ele>
        <time>2023-10-01T10:16:57.000Z</time>
      </trkpt>
      <trkpt lat="45.00557" lon="5.81964">
        <ele>1859.4000244141</ele>
        <time>2023-10-01T10:16:58.000Z</time>
      </trkpt>
      <trkpt lat="45.00557" lon="5.81962">
        <ele>1859.1999511719</ele>
        <time>2023-10-01T10:16:59.000Z</time>
      </trkpt>
      <trkpt lat="45.00557" lon="5.81962">
        <ele>1859</ele>
        <time>2023-10-01T10:17:00.000Z</time>
      </trkpt>
      <trkpt lat="45.00558" lon="5.81962">
        <ele>1858.8000488281</ele>
        <time>2023-10-01T10:17:01.000Z</time>
      </trkpt>
      <trkpt lat="45.00558" lon="5.81962">
        <ele>1858.5999755859</ele>
        <time>2023-10-01T10:17:02.000Z</time>
      </trkpt>
      <trkpt lat="45.00558" lon="5.81961">
        <ele>1858.5999755859</ele>
        <time>2023-10-01T10:17:03.000Z</time>
      </trkpt>
      <trkpt lat="45.00559" lon="5.81961">
        <ele>1858.5999755859</ele>
        <time>2023-10-01T10:17:04.000Z</time>
      </trkpt>
      <trkpt lat="45.00559" lon="5.8196">
        <ele>1858.4000244141</ele>
        <time>2023-10-01T10:17:05.000Z</time>
      </trkpt>
      <trkpt lat="45.00559" lon="5.8196">
        <ele>1858.1999511719</ele>
        <time>2023-10-01T10:17:06.000Z</time>
      </trkpt>
      <trkpt lat="45.00559" lon="5.8196">
        <ele>1858</ele>
        <time>2023-10-01T10:17:07.000Z</time>
      </trkpt>
      <trkpt lat="45.00559" lon="5.8196">
        <ele>1857.8000488281</ele>
        <time>2023-10-01T10:17:08.000Z</time>
      </trkpt>
      <trkpt lat="45.00559" lon="5.81959">
        <ele>1857.4000244141</ele>
        <time>2023-10-01T10:17:09.000Z</time>
      </trkpt>
      <trkpt lat="45.00559" lon="5.81959">
        <ele>1857.1999511719</ele>
        <time>2023-10-01T10:17:10.000Z</time>
      </trkpt>
      <trkpt lat="45.00559" lon="5.81958">
        <ele>1857</ele>
        <time>2023-10-01T10:17:11.000Z</time>
      </trkpt>
      <trkpt lat="45.0056" lon="5.81958">
        <ele>1856.8000488281</ele>
        <time>2023-10-01T10:17:12.000Z</time>
      </trkpt>
      <trkpt lat="45.0056" lon="5.81958">
        <ele>1856.5999755859</ele>
        <time>2023-10-01T10:17:13.000Z</time>
      </trkpt>
      <trkpt lat="45.0056" lon="5.81958">
        <ele>1856.4000244141</ele>
        <time>2023-10-01T10:17:14.000Z</time>
      </trkpt>
      <trkpt lat="45.0056" lon="5.81958">
        <ele>1856</ele>
        <time>2023-10-01T10:17:15.000Z</time>
      </trkpt>
      <trkpt lat="45.00561" lon="5.81958">
        <ele>1855.8000488281</ele>
        <time>2023-10-01T10:17:16.000Z</time>
      </trkpt>
      <trkpt lat="45.00561" lon="5.81957">
        <ele>1855.5999755859</ele>
        <time>2023-10-01T10:17:17.000Z</time>
      </trkpt>
      <trkpt lat="45.00561" lon="5.81957">
        <ele>1855.4000244141</ele>
        <time>2023-10-01T10:17:18.000Z</time>
      </trkpt>
      <trkpt lat="45.00561" lon="5.81957">
        <ele>1855.4000244141</ele>
        <time>2023-10-01T10:17:19.000Z</time>
      </trkpt>
      <trkpt lat="45.00561" lon="5.81956">
        <ele>1855</ele>
        <time>2023-10-01T10:17:20.000Z</time>
      </trkpt>
      <trkpt lat="45.00561" lon="5.81956">
        <ele>1855</ele>
        <time>2023-10-01T10:17:21.000Z</time>
      </trkpt>
      <trkpt lat="45.00561" lon="5.81956">
        <ele>1854.8000488281</ele>
        <time>2023-10-01T10:17:22.000Z</time>
      </trkpt>
      <trkpt lat="45.00562" lon="5.81955">
        <ele>1854.5999755859</ele>
        <time>2023-10-01T10:17:23.000Z</time>
      </trkpt>
      <trkpt lat="45.00561" lon="5.81955">
        <ele>1854.4000244141</ele>
        <time>2023-10-01T10:17:24.000Z</time>
      </trkpt>
      <trkpt lat="45.00562" lon="5.81954">
        <ele>1854</ele>
        <time>2023-10-01T10:17:25.000Z</time>
      </trkpt>
      <trkpt lat="45.00562" lon="5.81953">
        <ele>1853.8000488281</ele>
        <time>2023-10-01T10:17:26.000Z</time>
      </trkpt>
      <trkpt lat="45.00562" lon="5.81953">
        <ele>1853.8000488281</ele>
        <time>2023-10-01T10:17:27.000Z</time>
      </trkpt>
      <trkpt lat="45.00562" lon="5.81952">
        <ele>1853.4000244141</ele>
        <time>2023-10-01T10:17:28.000Z</time>
      </trkpt>
      <trkpt lat="45.00562" lon="5.81952">
        <ele>1853.1999511719</ele>
        <time>2023-10-01T10:17:29.000Z</time>
      </trkpt>
      <trkpt lat="45.00562" lon="5.81952">
        <ele>1853</ele>
        <time>2023-10-01T10:17:30.000Z</time>
      </trkpt>
      <trkpt lat="45.00562" lon="5.81952">
        <ele>1852.5999755859</ele>
        <time>2023-10-01T10:17:31.000Z</time>
      </trkpt>
      <trkpt lat="45.00562" lon="5.81951">
        <ele>1852.4000244141</ele>
        <time>2023-10-01T10:17:32.000Z</time>
      </trkpt>
      <trkpt lat="45.00563" lon="5.8195">
        <ele>1852.1999511719</ele>
        <time>2023-10-01T10:17:33.000Z</time>
      </trkpt>
      <trkpt lat="45.00563" lon="5.8195">
        <ele>1852</ele>
        <time>2023-10-01T10:17:34.000Z</time>
      </trkpt>
      <trkpt lat="45.00563" lon="5.81949">
        <ele>1851.8000488281</ele>
        <time>2023-10-01T10:17:35.000Z</time>
      </trkpt>
      <trkpt lat="45.00564" lon="5.81949">
        <ele>1851.5999755859</ele>
        <time>2023-10-01T10:17:36.000Z</time>
      </trkpt>
      <trkpt lat="45.00564" lon="5.81948">
        <ele>1851.4000244141</ele>
        <time>2023-10-01T10:17:37.000Z</time>
      </trkpt>
      <trkpt lat="45.00564" lon="5.81948">
        <ele>1851.1999511719</ele>
        <time>2023-10-01T10:17:38.000Z</time>
      </trkpt>
      <trkpt lat="45.00564" lon="5.81947">
        <ele>1850.8000488281</ele>
        <time>2023-10-01T10:17:39.000Z</time>
      </trkpt>
      <trkpt lat="45.00564" lon="5.81946">
        <ele>1850.5999755859</ele>
        <time>2023-10-01T10:17:40.000Z</time>
      </trkpt>
      <trkpt lat="45.00564" lon="5.81946">
        <ele>1850.4000244141</ele>
        <time>2023-10-01T10:17:41.000Z</time>
      </trkpt>
      <trkpt lat="45.00564" lon="5.81945">
        <ele>1850</ele>
        <time>2023-10-01T10:17:42.000Z</time>
      </trkpt>
      <trkpt lat="45.00564" lon="5.81945">
        <ele>1849.5999755859</ele>
        <time>2023-10-01T10:17:43.000Z</time>
      </trkpt>
      <trkpt lat="45.00563" lon="5.81945">
        <ele>1849.4000244141</ele>
        <time>2023-10-01T10:17:44.000Z</time>
      </trkpt>
      <trkpt lat="45.00563" lon="5.81945">
        <ele>1849.1999511719</ele>
        <time>2023-10-01T10:17:45.000Z</time>
      </trkpt>
      <trkpt lat="45.00563" lon="5.81944">
        <ele>1849</ele>
        <time>2023-10-01T10:17:46.000Z</time>
      </trkpt>
      <trkpt lat="45.00563" lon="5.81944">
        <ele>1849</ele>
        <time>2023-10-01T10:17:47.000Z</time>
      </trkpt>
      <trkpt lat="45.00563" lon="5.81944">
        <ele>1848.4000244141</ele>
        <time>2023-10-01T10:17:48.000Z</time>
      </trkpt>
      <trkpt lat="45.00563" lon="5.81943">
        <ele>1848.1999511719</ele>
        <time>2023-10-01T10:17:49.000Z</time>
      </trkpt>
      <trkpt lat="45.00563" lon="5.81943">
        <ele>1848</ele>
        <time>2023-10-01T10:17:50.000Z</time>
      </trkpt>
      <trkpt lat="45.00563" lon="5.81943">
        <ele>1847.8000488281</ele>
        <time>2023-10-01T10:17:51.000Z</time>
      </trkpt>
      <trkpt lat="45.00563" lon="5.81942">
        <ele>1847.4000244141</ele>
        <time>2023-10-01T10:17:52.000Z</time>
      </trkpt>
      <trkpt lat="45.00563" lon="5.81941">
        <ele>1847.1999511719</ele>
        <time>2023-10-01T10:17:53.000Z</time>
      </trkpt>
      <trkpt lat="45.00564" lon="5.8194">
        <ele>1847</ele>
        <time>2023-10-01T10:17:54.000Z</time>
      </trkpt>
      <trkpt lat="45.00563" lon="5.8194">
        <ele>1847</ele>
        <time>2023-10-01T10:17:55.000Z</time>
      </trkpt>
      <trkpt lat="45.00563" lon="5.8194">
        <ele>1846.8000488281</ele>
        <time>2023-10-01T10:17:56.000Z</time>
      </trkpt>
      <trkpt lat="45.00563" lon="5.81939">
        <ele>1846.4000244141</ele>
        <time>2023-10-01T10:17:57.000Z</time>
      </trkpt>
      <trkpt lat="45.00564" lon="5.81939">
        <ele>1845.5999755859</ele>
        <time>2023-10-01T10:17:58.000Z</time>
      </trkpt>
      <trkpt lat="45.00565" lon="5.81939">
        <ele>1845.4000244141</ele>
        <time>2023-10-01T10:17:59.000Z</time>
      </trkpt>
      <trkpt lat="45.00565" lon="5.81939">
        <ele>1845.4000244141</ele>
        <time>2023-10-01T10:18:00.000Z</time>
      </trkpt>
      <trkpt lat="45.00566" lon="5.81939">
        <ele>1845.4000244141</ele>
        <time>2023-10-01T10:18:01.000Z</time>
      </trkpt>
      <trkpt lat="45.00566" lon="5.81939">
        <ele>1845.4000244141</ele>
        <time>2023-10-01T10:18:02.000Z</time>
      </trkpt>
      <trkpt lat="45.00566" lon="5.81939">
        <ele>1845.1999511719</ele>
        <time>2023-10-01T10:18:03.000Z</time>
      </trkpt>
      <trkpt lat="45.00566" lon="5.81938">
        <ele>1845</ele>
        <time>2023-10-01T10:18:04.000Z</time>
      </trkpt>
      <trkpt lat="45.00566" lon="5.81938">
        <ele>1844.8000488281</ele>
        <time>2023-10-01T10:18:05.000Z</time>
      </trkpt>
      <trkpt lat="45.00566" lon="5.81937">
        <ele>1844.4000244141</ele>
        <time>2023-10-01T10:18:06.000Z</time>
      </trkpt>
      <trkpt lat="45.00565" lon="5.81937">
        <ele>1844</ele>
        <time>2023-10-01T10:18:07.000Z</time>
      </trkpt>
      <trkpt lat="45.00565" lon="5.81936">
        <ele>1843.5999755859</ele>
        <time>2023-10-01T10:18:08.000Z</time>
      </trkpt>
      <trkpt lat="45.00565" lon="5.81936">
        <ele>1843.4000244141</ele>
        <time>2023-10-01T10:18:09.000Z</time>
      </trkpt>
      <trkpt lat="45.00565" lon="5.81934">
        <ele>1843</ele>
        <time>2023-10-01T10:18:10.000Z</time>
      </trkpt>
      <trkpt lat="45.00565" lon="5.81934">
        <ele>1843</ele>
        <time>2023-10-01T10:18:11.000Z</time>
      </trkpt>
      <trkpt lat="45.00565" lon="5.81934">
        <ele>1842.5999755859</ele>
        <time>2023-10-01T10:18:12.000Z</time>
      </trkpt>
      <trkpt lat="45.00565" lon="5.81933">
        <ele>1842.4000244141</ele>
        <time>2023-10-01T10:18:13.000Z</time>
      </trkpt>
      <trkpt lat="45.00565" lon="5.81933">
        <ele>1842.1999511719</ele>
        <time>2023-10-01T10:18:14.000Z</time>
      </trkpt>
      <trkpt lat="45.00565" lon="5.81933">
        <ele>1842</ele>
        <time>2023-10-01T10:18:15.000Z</time>
      </trkpt>
      <trkpt lat="45.00565" lon="5.81932">
        <ele>1841.5999755859</ele>
        <time>2023-10-01T10:18:16.000Z</time>
      </trkpt>
      <trkpt lat="45.00565" lon="5.81931">
        <ele>1841.4000244141</ele>
        <time>2023-10-01T10:18:17.000Z</time>
      </trkpt>
      <trkpt lat="45.00565" lon="5.81931">
        <ele>1841.4000244141</ele>
        <time>2023-10-01T10:18:18.000Z</time>
      </trkpt>
      <trkpt lat="45.00564" lon="5.81931">
        <ele>1841.1999511719</ele>
        <time>2023-10-01T10:18:19.000Z</time>
      </trkpt>
      <trkpt lat="45.00564" lon="5.81931">
        <ele>1841.1999511719</ele>
        <time>2023-10-01T10:18:20.000Z</time>
      </trkpt>
      <trkpt lat="45.00564" lon="5.81931">
        <ele>1841</ele>
        <time>2023-10-01T10:18:21.000Z</time>
      </trkpt>
      <trkpt lat="45.00564" lon="5.81931">
        <ele>1840.8000488281</ele>
        <time>2023-10-01T10:18:22.000Z</time>
      </trkpt>
      <trkpt lat="45.00564" lon="5.8193">
        <ele>1840.8000488281</ele>
        <time>2023-10-01T10:18:23.000Z</time>
      </trkpt>
      <trkpt lat="45.00564" lon="5.8193">
        <ele>1840.8000488281</ele>
        <time>2023-10-01T10:18:24.000Z</time>
      </trkpt>
      <trkpt lat="45.00565" lon="5.81929">
        <ele>1840.8000488281</ele>
        <time>2023-10-01T10:18:25.000Z</time>
      </trkpt>
      <trkpt lat="45.00565" lon="5.81929">
        <ele>1840.5999755859</ele>
        <time>2023-10-01T10:18:26.000Z</time>
      </trkpt>
      <trkpt lat="45.00565" lon="5.81928">
        <ele>1840.4000244141</ele>
        <time>2023-10-01T10:18:27.000Z</time>
      </trkpt>
      <trkpt lat="45.00565" lon="5.81928">
        <ele>1840.4000244141</ele>
        <time>2023-10-01T10:18:28.000Z</time>
      </trkpt>
      <trkpt lat="45.00565" lon="5.81928">
        <ele>1840</ele>
        <time>2023-10-01T10:18:29.000Z</time>
      </trkpt>
      <trkpt lat="45.00565" lon="5.81927">
        <ele>1839.5999755859</ele>
        <time>2023-10-01T10:18:30.000Z</time>
      </trkpt>
      <trkpt lat="45.00565" lon="5.81927">
        <ele>1839.4000244141</ele>
        <time>2023-10-01T10:18:31.000Z</time>
      </trkpt>
      <trkpt lat="45.00564" lon="5.81926">
        <ele>1839.1999511719</ele>
        <time>2023-10-01T10:18:32.000Z</time>
      </trkpt>
      <trkpt lat="45.00564" lon="5.81926">
        <ele>1839</ele>
        <time>2023-10-01T10:18:33.000Z</time>
      </trkpt>
      <trkpt lat="45.00564" lon="5.81925">
        <ele>1838.8000488281</ele>
        <time>2023-10-01T10:18:34.000Z</time>
      </trkpt>
      <trkpt lat="45.00564" lon="5.81924">
        <ele>1838.4000244141</ele>
        <time>2023-10-01T10:18:35.000Z</time>
      </trkpt>
      <trkpt lat="45.00564" lon="5.81924">
        <ele>1838.1999511719</ele>
        <time>2023-10-01T10:18:36.000Z</time>
      </trkpt>
      <trkpt lat="45.00565" lon="5.81923">
        <ele>1838</ele>
        <time>2023-10-01T10:18:37.000Z</time>
      </trkpt>
      <trkpt lat="45.00565" lon="5.81923">
        <ele>1837.5999755859</ele>
        <time>2023-10-01T10:18:38.000Z</time>
      </trkpt>
      <trkpt lat="45.00566" lon="5.81923">
        <ele>1837.4000244141</ele>
        <time>2023-10-01T10:18:39.000Z</time>
      </trkpt>
      <trkpt lat="45.00567" lon="5.81922">
        <ele>1837.1999511719</ele>
        <time>2023-10-01T10:18:40.000Z</time>
      </trkpt>
      <trkpt lat="45.00567" lon="5.81923">
        <ele>1837</ele>
        <time>2023-10-01T10:18:41.000Z</time>
      </trkpt>
      <trkpt lat="45.00566" lon="5.81923">
        <ele>1836.8000488281</ele>
        <time>2023-10-01T10:18:42.000Z</time>
      </trkpt>
      <trkpt lat="45.00566" lon="5.81923">
        <ele>1836.4000244141</ele>
        <time>2023-10-01T10:18:43.000Z</time>
      </trkpt>
      <trkpt lat="45.00567" lon="5.81923">
        <ele>1836.1999511719</ele>
        <time>2023-10-01T10:18:44.000Z</time>
      </trkpt>
      <trkpt lat="45.00567" lon="5.81923">
        <ele>1836.1999511719</ele>
        <time>2023-10-01T10:18:45.000Z</time>
      </trkpt>
      <trkpt lat="45.00566" lon="5.81922">
        <ele>1836.1999511719</ele>
        <time>2023-10-01T10:18:46.000Z</time>
      </trkpt>
      <trkpt lat="45.00566" lon="5.81922">
        <ele>1836</ele>
        <time>2023-10-01T10:18:47.000Z</time>
      </trkpt>
      <trkpt lat="45.00566" lon="5.81922">
        <ele>1835.8000488281</ele>
        <time>2023-10-01T10:18:48.000Z</time>
      </trkpt>
      <trkpt lat="45.00566" lon="5.81922">
        <ele>1835.8000488281</ele>
        <time>2023-10-01T10:18:49.000Z</time>
      </trkpt>
      <trkpt lat="45.00566" lon="5.81921">
        <ele>1835.8000488281</ele>
        <time>2023-10-01T10:18:50.000Z</time>
      </trkpt>
      <trkpt lat="45.00566" lon="5.81922">
        <ele>1835.8000488281</ele>
        <time>2023-10-01T10:18:51.000Z</time>
      </trkpt>
      <trkpt lat="45.00567" lon="5.81921">
        <ele>1835.8000488281</ele>
        <time>2023-10-01T10:18:52.000Z</time>
      </trkpt>
      <trkpt lat="45.00566" lon="5.81921">
        <ele>1835.5999755859</ele>
        <time>2023-10-01T10:18:53.000Z</time>
      </trkpt>
      <trkpt lat="45.00566" lon="5.8192">
        <ele>1835.5999755859</ele>
        <time>2023-10-01T10:18:54.000Z</time>
      </trkpt>
      <trkpt lat="45.00566" lon="5.81919">
        <ele>1835.4000244141</ele>
        <time>2023-10-01T10:18:55.000Z</time>
      </trkpt>
      <trkpt lat="45.00566" lon="5.81918">
        <ele>1835.4000244141</ele>
        <time>2023-10-01T10:18:56.000Z</time>
      </trkpt>
      <trkpt lat="45.00567" lon="5.81918">
        <ele>1835</ele>
        <time>2023-10-01T10:18:57.000Z</time>
      </trkpt>
      <trkpt lat="45.00567" lon="5.81917">
        <ele>1835</ele>
        <time>2023-10-01T10:18:58.000Z</time>
      </trkpt>
      <trkpt lat="45.00567" lon="5.81916">
        <ele>1834.4000244141</ele>
        <time>2023-10-01T10:18:59.000Z</time>
      </trkpt>
      <trkpt lat="45.00567" lon="5.81916">
        <ele>1834</ele>
        <time>2023-10-01T10:19:00.000Z</time>
      </trkpt>
      <trkpt lat="45.00567" lon="5.81916">
        <ele>1833.8000488281</ele>
        <time>2023-10-01T10:19:01.000Z</time>
      </trkpt>
      <trkpt lat="45.00567" lon="5.81916">
        <ele>1833.5999755859</ele>
        <time>2023-10-01T10:19:02.000Z</time>
      </trkpt>
      <trkpt lat="45.00567" lon="5.81916">
        <ele>1833.4000244141</ele>
        <time>2023-10-01T10:19:03.000Z</time>
      </trkpt>
      <trkpt lat="45.00567" lon="5.81915">
        <ele>1833.1999511719</ele>
        <time>2023-10-01T10:19:04.000Z</time>
      </trkpt>
      <trkpt lat="45.00567" lon="5.81915">
        <ele>1833.1999511719</ele>
        <time>2023-10-01T10:19:05.000Z</time>
      </trkpt>
      <trkpt lat="45.00567" lon="5.81914">
        <ele>1833</ele>
        <time>2023-10-01T10:19:06.000Z</time>
      </trkpt>
      <trkpt lat="45.00567" lon="5.81913">
        <ele>1832.8000488281</ele>
        <time>2023-10-01T10:19:07.000Z</time>
      </trkpt>
      <trkpt lat="45.00567" lon="5.81913">
        <ele>1832.5999755859</ele>
        <time>2023-10-01T10:19:08.000Z</time>
      </trkpt>
      <trkpt lat="45.00567" lon="5.81912">
        <ele>1832.1999511719</ele>
        <time>2023-10-01T10:19:09.000Z</time>
      </trkpt>
      <trkpt lat="45.00567" lon="5.81912">
        <ele>1832</ele>
        <time>2023-10-01T10:19:10.000Z</time>
      </trkpt>
      <trkpt lat="45.00567" lon="5.81912">
        <ele>1831.8000488281</ele>
        <time>2023-10-01T10:19:11.000Z</time>
      </trkpt>
      <trkpt lat="45.00567" lon="5.81912">
        <ele>1831.4000244141</ele>
        <time>2023-10-01T10:19:12.000Z</time>
      </trkpt>
      <trkpt lat="45.00567" lon="5.81912">
        <ele>1831.4000244141</ele>
        <time>2023-10-01T10:19:13.000Z</time>
      </trkpt>
      <trkpt lat="45.00567" lon="5.81912">
        <ele>1831.4000244141</ele>
        <time>2023-10-01T10:19:14.000Z</time>
      </trkpt>
      <trkpt lat="45.00568" lon="5.81912">
        <ele>1831.4000244141</ele>
        <time>2023-10-01T10:19:15.000Z</time>
      </trkpt>
      <trkpt lat="45.00568" lon="5.81911">
        <ele>1831.1999511719</ele>
        <time>2023-10-01T10:19:16.000Z</time>
      </trkpt>
      <trkpt lat="45.00568" lon="5.81911">
        <ele>1831.1999511719</ele>
        <time>2023-10-01T10:19:17.000Z</time>
      </trkpt>
      <trkpt lat="45.00569" lon="5.81911">
        <ele>1831</ele>
        <time>2023-10-01T10:19:18.000Z</time>
      </trkpt>
      <trkpt lat="45.00569" lon="5.81912">
        <ele>1831</ele>
        <time>2023-10-01T10:19:19.000Z</time>
      </trkpt>
      <trkpt lat="45.00569" lon="5.81912">
        <ele>1830.8000488281</ele>
        <time>2023-10-01T10:19:20.000Z</time>
      </trkpt>
      <trkpt lat="45.0057" lon="5.81911">
        <ele>1830.8000488281</ele>
        <time>2023-10-01T10:19:21.000Z</time>
      </trkpt>
      <trkpt lat="45.0057" lon="5.81911">
        <ele>1830.4000244141</ele>
        <time>2023-10-01T10:19:22.000Z</time>
      </trkpt>
      <trkpt lat="45.0057" lon="5.81911">
        <ele>1830.4000244141</ele>
        <time>2023-10-01T10:19:23.000Z</time>
      </trkpt>
      <trkpt lat="45.0057" lon="5.81911">
        <ele>1830.1999511719</ele>
        <time>2023-10-01T10:19:24.000Z</time>
      </trkpt>
      <trkpt lat="45.0057" lon="5.8191">
        <ele>1830</ele>
        <time>2023-10-01T10:19:25.000Z</time>
      </trkpt>
      <trkpt lat="45.0057" lon="5.8191">
        <ele>1830</ele>
        <time>2023-10-01T10:19:26.000Z</time>
      </trkpt>
      <trkpt lat="45.00569" lon="5.81909">
        <ele>1829.4000244141</ele>
        <time>2023-10-01T10:19:27.000Z</time>
      </trkpt>
      <trkpt lat="45.00568" lon="5.81908">
        <ele>1829</ele>
        <time>2023-10-01T10:19:28.000Z</time>
      </trkpt>
      <trkpt lat="45.00568" lon="5.81908">
        <ele>1828.8000488281</ele>
        <time>2023-10-01T10:19:29.000Z</time>
      </trkpt>
      <trkpt lat="45.00568" lon="5.81906">
        <ele>1828.5999755859</ele>
        <time>2023-10-01T10:19:30.000Z</time>
      </trkpt>
      <trkpt lat="45.00568" lon="5.81906">
        <ele>1828.5999755859</ele>
        <time>2023-10-01T10:19:31.000Z</time>
      </trkpt>
      <trkpt lat="45.00568" lon="5.81905">
        <ele>1828.1999511719</ele>
        <time>2023-10-01T10:19:32.000Z</time>
      </trkpt>
      <trkpt lat="45.00568" lon="5.81905">
        <ele>1828.1999511719</ele>
        <time>2023-10-01T10:19:33.000Z</time>
      </trkpt>
      <trkpt lat="45.00568" lon="5.81905">
        <ele>1827.8000488281</ele>
        <time>2023-10-01T10:19:34.000Z</time>
      </trkpt>
      <trkpt lat="45.00569" lon="5.81905">
        <ele>1827.4000244141</ele>
        <time>2023-10-01T10:19:35.000Z</time>
      </trkpt>
      <trkpt lat="45.00568" lon="5.81904">
        <ele>1827.4000244141</ele>
        <time>2023-10-01T10:19:36.000Z</time>
      </trkpt>
      <trkpt lat="45.00568" lon="5.81904">
        <ele>1827.1999511719</ele>
        <time>2023-10-01T10:19:37.000Z</time>
      </trkpt>
      <trkpt lat="45.00568" lon="5.81904">
        <ele>1827.1999511719</ele>
        <time>2023-10-01T10:19:38.000Z</time>
      </trkpt>
      <trkpt lat="45.00568" lon="5.81903">
        <ele>1826.8000488281</ele>
        <time>2023-10-01T10:19:39.000Z</time>
      </trkpt>
      <trkpt lat="45.00568" lon="5.81902">
        <ele>1826.4000244141</ele>
        <time>2023-10-01T10:19:40.000Z</time>
      </trkpt>
      <trkpt lat="45.00568" lon="5.81902">
        <ele>1826</ele>
        <time>2023-10-01T10:19:41.000Z</time>
      </trkpt>
      <trkpt lat="45.00568" lon="5.81902">
        <ele>1825.8000488281</ele>
        <time>2023-10-01T10:19:42.000Z</time>
      </trkpt>
      <trkpt lat="45.00568" lon="5.81901">
        <ele>1825.8000488281</ele>
        <time>2023-10-01T10:19:43.000Z</time>
      </trkpt>
      <trkpt lat="45.00568" lon="5.81901">
        <ele>1825.8000488281</ele>
        <time>2023-10-01T10:19:44.000Z</time>
      </trkpt>
      <trkpt lat="45.00568" lon="5.819">
        <ele>1825.4000244141</ele>
        <time>2023-10-01T10:19:45.000Z</time>
      </trkpt>
      <trkpt lat="45.00568" lon="5.819">
        <ele>1825.4000244141</ele>
        <time>2023-10-01T10:19:46.000Z</time>
      </trkpt>
      <trkpt lat="45.00568" lon="5.819">
        <ele>1825.1999511719</ele>
        <time>2023-10-01T10:19:47.000Z</time>
      </trkpt>
      <trkpt lat="45.00568" lon="5.819">
        <ele>1824.8000488281</ele>
        <time>2023-10-01T10:19:48.000Z</time>
      </trkpt>
      <trkpt lat="45.00568" lon="5.819">
        <ele>1824.5999755859</ele>
        <time>2023-10-01T10:19:49.000Z</time>
      </trkpt>
      <trkpt lat="45.00568" lon="5.819">
        <ele>1824.4000244141</ele>
        <time>2023-10-01T10:19:50.000Z</time>
      </trkpt>
      <trkpt lat="45.00568" lon="5.81899">
        <ele>1824.1999511719</ele>
        <time>2023-10-01T10:19:51.000Z</time>
      </trkpt>
      <trkpt lat="45.00569" lon="5.81899">
        <ele>1824.1999511719</ele>
        <time>2023-10-01T10:19:52.000Z</time>
      </trkpt>
      <trkpt lat="45.00569" lon="5.81898">
        <ele>1823.8000488281</ele>
        <time>2023-10-01T10:19:53.000Z</time>
      </trkpt>
      <trkpt lat="45.00569" lon="5.81898">
        <ele>1823.5999755859</ele>
        <time>2023-10-01T10:19:54.000Z</time>
      </trkpt>
      <trkpt lat="45.00569" lon="5.81897">
        <ele>1823.4000244141</ele>
        <time>2023-10-01T10:19:55.000Z</time>
      </trkpt>
      <trkpt lat="45.00569" lon="5.81897">
        <ele>1823</ele>
        <time>2023-10-01T10:19:56.000Z</time>
      </trkpt>
      <trkpt lat="45.00569" lon="5.81896">
        <ele>1822.8000488281</ele>
        <time>2023-10-01T10:19:57.000Z</time>
      </trkpt>
      <trkpt lat="45.0057" lon="5.81896">
        <ele>1822.5999755859</ele>
        <time>2023-10-01T10:19:58.000Z</time>
      </trkpt>
      <trkpt lat="45.00569" lon="5.81895">
        <ele>1822.5999755859</ele>
        <time>2023-10-01T10:19:59.000Z</time>
      </trkpt>
      <trkpt lat="45.00569" lon="5.81895">
        <ele>1822</ele>
        <time>2023-10-01T10:20:00.000Z</time>
      </trkpt>
      <trkpt lat="45.00569" lon="5.81894">
        <ele>1822</ele>
        <time>2023-10-01T10:20:01.000Z</time>
      </trkpt>
      <trkpt lat="45.00569" lon="5.81894">
        <ele>1821.8000488281</ele>
        <time>2023-10-01T10:20:02.000Z</time>
      </trkpt>
      <trkpt lat="45.00569" lon="5.81894">
        <ele>1821.5999755859</ele>
        <time>2023-10-01T10:20:03.000Z</time>
      </trkpt>
      <trkpt lat="45.00569" lon="5.81894">
        <ele>1821.4000244141</ele>
        <time>2023-10-01T10:20:04.000Z</time>
      </trkpt>
      <trkpt lat="45.0057" lon="5.81894">
        <ele>1821</ele>
        <time>2023-10-01T10:20:05.000Z</time>
      </trkpt>
      <trkpt lat="45.0057" lon="5.81893">
        <ele>1820.8000488281</ele>
        <time>2023-10-01T10:20:06.000Z</time>
      </trkpt>
      <trkpt lat="45.0057" lon="5.81893">
        <ele>1820.8000488281</ele>
        <time>2023-10-01T10:20:07.000Z</time>
      </trkpt>
      <trkpt lat="45.0057" lon="5.81893">
        <ele>1820.5999755859</ele>
        <time>2023-10-01T10:20:08.000Z</time>
      </trkpt>
      <trkpt lat="45.0057" lon="5.81892">
        <ele>1820.5999755859</ele>
        <time>2023-10-01T10:20:09.000Z</time>
      </trkpt>
      <trkpt lat="45.00571" lon="5.81892">
        <ele>1820.4000244141</ele>
        <time>2023-10-01T10:20:10.000Z</time>
      </trkpt>
      <trkpt lat="45.00571" lon="5.81892">
        <ele>1820.1999511719</ele>
        <time>2023-10-01T10:20:11.000Z</time>
      </trkpt>
      <trkpt lat="45.00571" lon="5.81891">
        <ele>1819.8000488281</ele>
        <time>2023-10-01T10:20:12.000Z</time>
      </trkpt>
      <trkpt lat="45.00571" lon="5.81891">
        <ele>1819.8000488281</ele>
        <time>2023-10-01T10:20:13.000Z</time>
      </trkpt>
      <trkpt lat="45.00571" lon="5.81891">
        <ele>1819.4000244141</ele>
        <time>2023-10-01T10:20:14.000Z</time>
      </trkpt>
      <trkpt lat="45.00572" lon="5.8189">
        <ele>1819</ele>
        <time>2023-10-01T10:20:15.000Z</time>
      </trkpt>
      <trkpt lat="45.00572" lon="5.8189">
        <ele>1818.5999755859</ele>
        <time>2023-10-01T10:20:16.000Z</time>
      </trkpt>
      <trkpt lat="45.00573" lon="5.8189">
        <ele>1818.5999755859</ele>
        <time>2023-10-01T10:20:17.000Z</time>
      </trkpt>
      <trkpt lat="45.00573" lon="5.8189">
        <ele>1818.4000244141</ele>
        <time>2023-10-01T10:20:18.000Z</time>
      </trkpt>
      <trkpt lat="45.00573" lon="5.81889">
        <ele>1818.4000244141</ele>
        <time>2023-10-01T10:20:19.000Z</time>
      </trkpt>
      <trkpt lat="45.00572" lon="5.81888">
        <ele>1818.4000244141</ele>
        <time>2023-10-01T10:20:20.000Z</time>
      </trkpt>
      <trkpt lat="45.00572" lon="5.81888">
        <ele>1817.8000488281</ele>
        <time>2023-10-01T10:20:21.000Z</time>
      </trkpt>
      <trkpt lat="45.00572" lon="5.81888">
        <ele>1817.5999755859</ele>
        <time>2023-10-01T10:20:22.000Z</time>
      </trkpt>
      <trkpt lat="45.00571" lon="5.81888">
        <ele>1817.5999755859</ele>
        <time>2023-10-01T10:20:23.000Z</time>
      </trkpt>
      <trkpt lat="45.00571" lon="5.81887">
        <ele>1817.4000244141</ele>
        <time>2023-10-01T10:20:24.000Z</time>
      </trkpt>
      <trkpt lat="45.00571" lon="5.81887">
        <ele>1817.4000244141</ele>
        <time>2023-10-01T10:20:25.000Z</time>
      </trkpt>
      <trkpt lat="45.00571" lon="5.81886">
        <ele>1817.1999511719</ele>
        <time>2023-10-01T10:20:26.000Z</time>
      </trkpt>
      <trkpt lat="45.0057" lon="5.81886">
        <ele>1817.1999511719</ele>
        <time>2023-10-01T10:20:27.000Z</time>
      </trkpt>
      <trkpt lat="45.0057" lon="5.81885">
        <ele>1816.8000488281</ele>
        <time>2023-10-01T10:20:28.000Z</time>
      </trkpt>
      <trkpt lat="45.0057" lon="5.81885">
        <ele>1816.5999755859</ele>
        <time>2023-10-01T10:20:29.000Z</time>
      </trkpt>
      <trkpt lat="45.0057" lon="5.81884">
        <ele>1816.1999511719</ele>
        <time>2023-10-01T10:20:30.000Z</time>
      </trkpt>
      <trkpt lat="45.0057" lon="5.81884">
        <ele>1816.1999511719</ele>
        <time>2023-10-01T10:20:31.000Z</time>
      </trkpt>
      <trkpt lat="45.0057" lon="5.81883">
        <ele>1816.1999511719</ele>
        <time>2023-10-01T10:20:32.000Z</time>
      </trkpt>
      <trkpt lat="45.0057" lon="5.81883">
        <ele>1816</ele>
        <time>2023-10-01T10:20:33.000Z</time>
      </trkpt>
      <trkpt lat="45.0057" lon="5.81883">
        <ele>1815.5999755859</ele>
        <time>2023-10-01T10:20:34.000Z</time>
      </trkpt>
      <trkpt lat="45.0057" lon="5.81883">
        <ele>1815.5999755859</ele>
        <time>2023-10-01T10:20:35.000Z</time>
      </trkpt>
      <trkpt lat="45.0057" lon="5.81883">
        <ele>1815.4000244141</ele>
        <time>2023-10-01T10:20:36.000Z</time>
      </trkpt>
      <trkpt lat="45.0057" lon="5.81882">
        <ele>1815</ele>
        <time>2023-10-01T10:20:37.000Z</time>
      </trkpt>
      <trkpt lat="45.0057" lon="5.81882">
        <ele>1815</ele>
        <time>2023-10-01T10:20:38.000Z</time>
      </trkpt>
      <trkpt lat="45.0057" lon="5.81881">
        <ele>1814.5999755859</ele>
        <time>2023-10-01T10:20:39.000Z</time>
      </trkpt>
      <trkpt lat="45.00571" lon="5.81881">
        <ele>1814.4000244141</ele>
        <time>2023-10-01T10:20:40.000Z</time>
      </trkpt>
      <trkpt lat="45.00571" lon="5.8188">
        <ele>1814.1999511719</ele>
        <time>2023-10-01T10:20:41.000Z</time>
      </trkpt>
      <trkpt lat="45.00571" lon="5.81879">
        <ele>1814</ele>
        <time>2023-10-01T10:20:42.000Z</time>
      </trkpt>
      <trkpt lat="45.00571" lon="5.81879">
        <ele>1813.8000488281</ele>
        <time>2023-10-01T10:20:43.000Z</time>
      </trkpt>
      <trkpt lat="45.00571" lon="5.81878">
        <ele>1813.5999755859</ele>
        <time>2023-10-01T10:20:44.000Z</time>
      </trkpt>
      <trkpt lat="45.00572" lon="5.81878">
        <ele>1813.4000244141</ele>
        <time>2023-10-01T10:20:45.000Z</time>
      </trkpt>
      <trkpt lat="45.00572" lon="5.81877">
        <ele>1813</ele>
        <time>2023-10-01T10:20:46.000Z</time>
      </trkpt>
      <trkpt lat="45.00572" lon="5.81877">
        <ele>1812.8000488281</ele>
        <time>2023-10-01T10:20:47.000Z</time>
      </trkpt>
      <trkpt lat="45.00572" lon="5.81877">
        <ele>1812.4000244141</ele>
        <time>2023-10-01T10:20:48.000Z</time>
      </trkpt>
      <trkpt lat="45.00572" lon="5.81876">
        <ele>1812.1999511719</ele>
        <time>2023-10-01T10:20:49.000Z</time>
      </trkpt>
      <trkpt lat="45.00572" lon="5.81876">
        <ele>1812</ele>
        <time>2023-10-01T10:20:50.000Z</time>
      </trkpt>
      <trkpt lat="45.00572" lon="5.81875">
        <ele>1811.8000488281</ele>
        <time>2023-10-01T10:20:51.000Z</time>
      </trkpt>
      <trkpt lat="45.00572" lon="5.81876">
        <ele>1811.5999755859</ele>
        <time>2023-10-01T10:20:52.000Z</time>
      </trkpt>
      <trkpt lat="45.00572" lon="5.81876">
        <ele>1811.4000244141</ele>
        <time>2023-10-01T10:20:53.000Z</time>
      </trkpt>
      <trkpt lat="45.00572" lon="5.81876">
        <ele>1811.1999511719</ele>
        <time>2023-10-01T10:20:54.000Z</time>
      </trkpt>
      <trkpt lat="45.00572" lon="5.81876">
        <ele>1811.1999511719</ele>
        <time>2023-10-01T10:20:55.000Z</time>
      </trkpt>
      <trkpt lat="45.00572" lon="5.81876">
        <ele>1811</ele>
        <time>2023-10-01T10:20:56.000Z</time>
      </trkpt>
      <trkpt lat="45.00572" lon="5.81876">
        <ele>1810.8000488281</ele>
        <time>2023-10-01T10:20:57.000Z</time>
      </trkpt>
      <trkpt lat="45.00573" lon="5.81875">
        <ele>1810.8000488281</ele>
        <time>2023-10-01T10:20:58.000Z</time>
      </trkpt>
      <trkpt lat="45.00573" lon="5.81876">
        <ele>1810.8000488281</ele>
        <time>2023-10-01T10:20:59.000Z</time>
      </trkpt>
      <trkpt lat="45.00573" lon="5.81875">
        <ele>1810.5999755859</ele>
        <time>2023-10-01T10:21:00.000Z</time>
      </trkpt>
      <trkpt lat="45.00573" lon="5.81875">
        <ele>1810.4000244141</ele>
        <time>2023-10-01T10:21:01.000Z</time>
      </trkpt>
      <trkpt lat="45.00573" lon="5.81874">
        <ele>1810.4000244141</ele>
        <time>2023-10-01T10:21:02.000Z</time>
      </trkpt>
      <trkpt lat="45.00573" lon="5.81874">
        <ele>1810</ele>
        <time>2023-10-01T10:21:03.000Z</time>
      </trkpt>
      <trkpt lat="45.00573" lon="5.81874">
        <ele>1810</ele>
        <time>2023-10-01T10:21:04.000Z</time>
      </trkpt>
      <trkpt lat="45.00573" lon="5.81874">
        <ele>1809.5999755859</ele>
        <time>2023-10-01T10:21:05.000Z</time>
      </trkpt>
      <trkpt lat="45.00573" lon="5.81873">
        <ele>1809.4000244141</ele>
        <time>2023-10-01T10:21:06.000Z</time>
      </trkpt>
      <trkpt lat="45.00574" lon="5.81872">
        <ele>1809.4000244141</ele>
        <time>2023-10-01T10:21:07.000Z</time>
      </trkpt>
      <trkpt lat="45.00574" lon="5.81872">
        <ele>1809.1999511719</ele>
        <time>2023-10-01T10:21:08.000Z</time>
      </trkpt>
      <trkpt lat="45.00574" lon="5.81871">
        <ele>1809</ele>
        <time>2023-10-01T10:21:09.000Z</time>
      </trkpt>
      <trkpt lat="45.00574" lon="5.81871">
        <ele>1808.8000488281</ele>
        <time>2023-10-01T10:21:10.000Z</time>
      </trkpt>
      <trkpt lat="45.00574" lon="5.8187">
        <ele>1808</ele>
        <time>2023-10-01T10:21:11.000Z</time>
      </trkpt>
      <trkpt lat="45.00574" lon="5.81869">
        <ele>1807.8000488281</ele>
        <time>2023-10-01T10:21:12.000Z</time>
      </trkpt>
      <trkpt lat="45.00574" lon="5.81868">
        <ele>1807.4000244141</ele>
        <time>2023-10-01T10:21:13.000Z</time>
      </trkpt>
      <trkpt lat="45.00574" lon="5.81867">
        <ele>1807.1999511719</ele>
        <time>2023-10-01T10:21:14.000Z</time>
      </trkpt>
      <trkpt lat="45.00574" lon="5.81867">
        <ele>1806.8000488281</ele>
        <time>2023-10-01T10:21:15.000Z</time>
      </trkpt>
      <trkpt lat="45.00574" lon="5.81866">
        <ele>1806.4000244141</ele>
        <time>2023-10-01T10:21:16.000Z</time>
      </trkpt>
      <trkpt lat="45.00574" lon="5.81866">
        <ele>1806</ele>
        <time>2023-10-01T10:21:17.000Z</time>
      </trkpt>
      <trkpt lat="45.00574" lon="5.81866">
        <ele>1805.8000488281</ele>
        <time>2023-10-01T10:21:18.000Z</time>
      </trkpt>
      <trkpt lat="45.00574" lon="5.81866">
        <ele>1805.4000244141</ele>
        <time>2023-10-01T10:21:19.000Z</time>
      </trkpt>
      <trkpt lat="45.00575" lon="5.81865">
        <ele>1805.1999511719</ele>
        <time>2023-10-01T10:21:20.000Z</time>
      </trkpt>
      <trkpt lat="45.00575" lon="5.81865">
        <ele>1805</ele>
        <time>2023-10-01T10:21:21.000Z</time>
      </trkpt>
      <trkpt lat="45.00575" lon="5.81864">
        <ele>1804.8000488281</ele>
        <time>2023-10-01T10:21:22.000Z</time>
      </trkpt>
      <trkpt lat="45.00575" lon="5.81864">
        <ele>1804.4000244141</ele>
        <time>2023-10-01T10:21:23.000Z</time>
      </trkpt>
      <trkpt lat="45.00575" lon="5.81864">
        <ele>1804.1999511719</ele>
        <time>2023-10-01T10:21:24.000Z</time>
      </trkpt>
      <trkpt lat="45.00576" lon="5.81864">
        <ele>1804.1999511719</ele>
        <time>2023-10-01T10:21:25.000Z</time>
      </trkpt>
      <trkpt lat="45.00576" lon="5.81863">
        <ele>1804</ele>
        <time>2023-10-01T10:21:26.000Z</time>
      </trkpt>
      <trkpt lat="45.00576" lon="5.81862">
        <ele>1803.8000488281</ele>
        <time>2023-10-01T10:21:27.000Z</time>
      </trkpt>
      <trkpt lat="45.00576" lon="5.81862">
        <ele>1803.5999755859</ele>
        <time>2023-10-01T10:21:28.000Z</time>
      </trkpt>
      <trkpt lat="45.00576" lon="5.81862">
        <ele>1803.4000244141</ele>
        <time>2023-10-01T10:21:29.000Z</time>
      </trkpt>
      <trkpt lat="45.00575" lon="5.81861">
        <ele>1803</ele>
        <time>2023-10-01T10:21:30.000Z</time>
      </trkpt>
      <trkpt lat="45.00576" lon="5.81861">
        <ele>1802.8000488281</ele>
        <time>2023-10-01T10:21:31.000Z</time>
      </trkpt>
      <trkpt lat="45.00576" lon="5.8186">
        <ele>1802.5999755859</ele>
        <time>2023-10-01T10:21:32.000Z</time>
      </trkpt>
      <trkpt lat="45.00576" lon="5.8186">
        <ele>1802.4000244141</ele>
        <time>2023-10-01T10:21:33.000Z</time>
      </trkpt>
      <trkpt lat="45.00576" lon="5.81859">
        <ele>1802.1999511719</ele>
        <time>2023-10-01T10:21:34.000Z</time>
      </trkpt>
      <trkpt lat="45.00576" lon="5.81859">
        <ele>1801.8000488281</ele>
        <time>2023-10-01T10:21:35.000Z</time>
      </trkpt>
      <trkpt lat="45.00576" lon="5.81858">
        <ele>1801.5999755859</ele>
        <time>2023-10-01T10:21:36.000Z</time>
      </trkpt>
      <trkpt lat="45.00576" lon="5.81858">
        <ele>1801.4000244141</ele>
        <time>2023-10-01T10:21:37.000Z</time>
      </trkpt>
      <trkpt lat="45.00576" lon="5.81857">
        <ele>1801.1999511719</ele>
        <time>2023-10-01T10:21:38.000Z</time>
      </trkpt>
      <trkpt lat="45.00576" lon="5.81857">
        <ele>1800.8000488281</ele>
        <time>2023-10-01T10:21:39.000Z</time>
      </trkpt>
      <trkpt lat="45.00575" lon="5.81856">
        <ele>1800.4000244141</ele>
        <time>2023-10-01T10:21:40.000Z</time>
      </trkpt>
      <trkpt lat="45.00575" lon="5.81856">
        <ele>1800</ele>
        <time>2023-10-01T10:21:41.000Z</time>
      </trkpt>
      <trkpt lat="45.00575" lon="5.81855">
        <ele>1800</ele>
        <time>2023-10-01T10:21:42.000Z</time>
      </trkpt>
      <trkpt lat="45.00576" lon="5.81855">
        <ele>1799.8000488281</ele>
        <time>2023-10-01T10:21:43.000Z</time>
      </trkpt>
      <trkpt lat="45.00576" lon="5.81854">
        <ele>1799.5999755859</ele>
        <time>2023-10-01T10:21:44.000Z</time>
      </trkpt>
      <trkpt lat="45.00576" lon="5.81854">
        <ele>1799.1999511719</ele>
        <time>2023-10-01T10:21:45.000Z</time>
      </trkpt>
      <trkpt lat="45.00576" lon="5.81853">
        <ele>1799</ele>
        <time>2023-10-01T10:21:46.000Z</time>
      </trkpt>
      <trkpt lat="45.00576" lon="5.81854">
        <ele>1798.5999755859</ele>
        <time>2023-10-01T10:21:47.000Z</time>
      </trkpt>
      <trkpt lat="45.00577" lon="5.81853">
        <ele>1798.4000244141</ele>
        <time>2023-10-01T10:21:48.000Z</time>
      </trkpt>
      <trkpt lat="45.00576" lon="5.81853">
        <ele>1798.1999511719</ele>
        <time>2023-10-01T10:21:49.000Z</time>
      </trkpt>
      <trkpt lat="45.00577" lon="5.81852">
        <ele>1798.1999511719</ele>
        <time>2023-10-01T10:21:50.000Z</time>
      </trkpt>
      <trkpt lat="45.00577" lon="5.81851">
        <ele>1798</ele>
        <time>2023-10-01T10:21:51.000Z</time>
      </trkpt>
      <trkpt lat="45.00577" lon="5.8185">
        <ele>1798</ele>
        <time>2023-10-01T10:21:52.000Z</time>
      </trkpt>
      <trkpt lat="45.00577" lon="5.8185">
        <ele>1797</ele>
        <time>2023-10-01T10:21:53.000Z</time>
      </trkpt>
      <trkpt lat="45.00577" lon="5.81849">
        <ele>1796.5999755859</ele>
        <time>2023-10-01T10:21:54.000Z</time>
      </trkpt>
      <trkpt lat="45.00577" lon="5.81849">
        <ele>1796.4000244141</ele>
        <time>2023-10-01T10:21:55.000Z</time>
      </trkpt>
      <trkpt lat="45.00577" lon="5.81849">
        <ele>1796.4000244141</ele>
        <time>2023-10-01T10:21:56.000Z</time>
      </trkpt>
      <trkpt lat="45.00576" lon="5.81849">
        <ele>1796.4000244141</ele>
        <time>2023-10-01T10:21:57.000Z</time>
      </trkpt>
      <trkpt lat="45.00576" lon="5.81849">
        <ele>1796.1999511719</ele>
        <time>2023-10-01T10:21:58.000Z</time>
      </trkpt>
      <trkpt lat="45.00576" lon="5.81848">
        <ele>1796.1999511719</ele>
        <time>2023-10-01T10:21:59.000Z</time>
      </trkpt>
      <trkpt lat="45.00576" lon="5.81848">
        <ele>1796</ele>
        <time>2023-10-01T10:22:00.000Z</time>
      </trkpt>
      <trkpt lat="45.00577" lon="5.81848">
        <ele>1795.5999755859</ele>
        <time>2023-10-01T10:22:01.000Z</time>
      </trkpt>
      <trkpt lat="45.00577" lon="5.81848">
        <ele>1795.4000244141</ele>
        <time>2023-10-01T10:22:02.000Z</time>
      </trkpt>
      <trkpt lat="45.00577" lon="5.81848">
        <ele>1795.1999511719</ele>
        <time>2023-10-01T10:22:03.000Z</time>
      </trkpt>
      <trkpt lat="45.00577" lon="5.81847">
        <ele>1795</ele>
        <time>2023-10-01T10:22:04.000Z</time>
      </trkpt>
      <trkpt lat="45.00577" lon="5.81847">
        <ele>1794.8000488281</ele>
        <time>2023-10-01T10:22:05.000Z</time>
      </trkpt>
      <trkpt lat="45.00578" lon="5.81847">
        <ele>1794.5999755859</ele>
        <time>2023-10-01T10:22:06.000Z</time>
      </trkpt>
      <trkpt lat="45.00578" lon="5.81846">
        <ele>1794.5999755859</ele>
        <time>2023-10-01T10:22:07.000Z</time>
      </trkpt>
      <trkpt lat="45.00578" lon="5.81846">
        <ele>1794.4000244141</ele>
        <time>2023-10-01T10:22:08.000Z</time>
      </trkpt>
      <trkpt lat="45.00578" lon="5.81846">
        <ele>1794.1999511719</ele>
        <time>2023-10-01T10:22:09.000Z</time>
      </trkpt>
      <trkpt lat="45.00578" lon="5.81846">
        <ele>1794</ele>
        <time>2023-10-01T10:22:10.000Z</time>
      </trkpt>
      <trkpt lat="45.00578" lon="5.81845">
        <ele>1793.8000488281</ele>
        <time>2023-10-01T10:22:11.000Z</time>
      </trkpt>
      <trkpt lat="45.00578" lon="5.81845">
        <ele>1793.5999755859</ele>
        <time>2023-10-01T10:22:12.000Z</time>
      </trkpt>
      <trkpt lat="45.00578" lon="5.81844">
        <ele>1793.4000244141</ele>
        <time>2023-10-01T10:22:13.000Z</time>
      </trkpt>
      <trkpt lat="45.00578" lon="5.81843">
        <ele>1793.1999511719</ele>
        <time>2023-10-01T10:22:14.000Z</time>
      </trkpt>
      <trkpt lat="45.00578" lon="5.81842">
        <ele>1793</ele>
        <time>2023-10-01T10:22:15.000Z</time>
      </trkpt>
      <trkpt lat="45.00578" lon="5.81842">
        <ele>1792.8000488281</ele>
        <time>2023-10-01T10:22:16.000Z</time>
      </trkpt>
      <trkpt lat="45.00578" lon="5.81841">
        <ele>1792.5999755859</ele>
        <time>2023-10-01T10:22:17.000Z</time>
      </trkpt>
      <trkpt lat="45.00579" lon="5.81841">
        <ele>1792.4000244141</ele>
        <time>2023-10-01T10:22:18.000Z</time>
      </trkpt>
      <trkpt lat="45.00579" lon="5.81841">
        <ele>1792</ele>
        <time>2023-10-01T10:22:19.000Z</time>
      </trkpt>
      <trkpt lat="45.00579" lon="5.81841">
        <ele>1791.5999755859</ele>
        <time>2023-10-01T10:22:20.000Z</time>
      </trkpt>
      <trkpt lat="45.00579" lon="5.81841">
        <ele>1791.4000244141</ele>
        <time>2023-10-01T10:22:21.000Z</time>
      </trkpt>
      <trkpt lat="45.00579" lon="5.8184">
        <ele>1791.4000244141</ele>
        <time>2023-10-01T10:22:22.000Z</time>
      </trkpt>
      <trkpt lat="45.00579" lon="5.8184">
        <ele>1791.1999511719</ele>
        <time>2023-10-01T10:22:23.000Z</time>
      </trkpt>
      <trkpt lat="45.00579" lon="5.81839">
        <ele>1790.8000488281</ele>
        <time>2023-10-01T10:22:24.000Z</time>
      </trkpt>
      <trkpt lat="45.00579" lon="5.81839">
        <ele>1790.5999755859</ele>
        <time>2023-10-01T10:22:25.000Z</time>
      </trkpt>
      <trkpt lat="45.00579" lon="5.81839">
        <ele>1790.4000244141</ele>
        <time>2023-10-01T10:22:26.000Z</time>
      </trkpt>
      <trkpt lat="45.00579" lon="5.81838">
        <ele>1790.1999511719</ele>
        <time>2023-10-01T10:22:27.000Z</time>
      </trkpt>
      <trkpt lat="45.00579" lon="5.81838">
        <ele>1790</ele>
        <time>2023-10-01T10:22:28.000Z</time>
      </trkpt>
      <trkpt lat="45.00579" lon="5.81838">
        <ele>1789.8000488281</ele>
        <time>2023-10-01T10:22:29.000Z</time>
      </trkpt>
      <trkpt lat="45.00579" lon="5.81837">
        <ele>1789.5999755859</ele>
        <time>2023-10-01T10:22:30.000Z</time>
      </trkpt>
      <trkpt lat="45.00579" lon="5.81837">
        <ele>1789</ele>
        <time>2023-10-01T10:22:31.000Z</time>
      </trkpt>
      <trkpt lat="45.0058" lon="5.81837">
        <ele>1788.8000488281</ele>
        <time>2023-10-01T10:22:32.000Z</time>
      </trkpt>
      <trkpt lat="45.0058" lon="5.81837">
        <ele>1788.5999755859</ele>
        <time>2023-10-01T10:22:33.000Z</time>
      </trkpt>
      <trkpt lat="45.00579" lon="5.81837">
        <ele>1788.4000244141</ele>
        <time>2023-10-01T10:22:34.000Z</time>
      </trkpt>
      <trkpt lat="45.00579" lon="5.81837">
        <ele>1788.1999511719</ele>
        <time>2023-10-01T10:22:35.000Z</time>
      </trkpt>
      <trkpt lat="45.00579" lon="5.81837">
        <ele>1788.1999511719</ele>
        <time>2023-10-01T10:22:36.000Z</time>
      </trkpt>
      <trkpt lat="45.00579" lon="5.81837">
        <ele>1788</ele>
        <time>2023-10-01T10:22:37.000Z</time>
      </trkpt>
      <trkpt lat="45.00579" lon="5.81836">
        <ele>1788</ele>
        <time>2023-10-01T10:22:38.000Z</time>
      </trkpt>
      <trkpt lat="45.00579" lon="5.81836">
        <ele>1788</ele>
        <time>2023-10-01T10:22:39.000Z</time>
      </trkpt>
      <trkpt lat="45.00579" lon="5.81835">
        <ele>1787.8000488281</ele>
        <time>2023-10-01T10:22:40.000Z</time>
      </trkpt>
      <trkpt lat="45.00579" lon="5.81835">
        <ele>1787.4000244141</ele>
        <time>2023-10-01T10:22:41.000Z</time>
      </trkpt>
      <trkpt lat="45.00579" lon="5.81834">
        <ele>1787</ele>
        <time>2023-10-01T10:22:42.000Z</time>
      </trkpt>
      <trkpt lat="45.00579" lon="5.81834">
        <ele>1786.8000488281</ele>
        <time>2023-10-01T10:22:43.000Z</time>
      </trkpt>
      <trkpt lat="45.00579" lon="5.81833">
        <ele>1786.5999755859</ele>
        <time>2023-10-01T10:22:44.000Z</time>
      </trkpt>
      <trkpt lat="45.00579" lon="5.81832">
        <ele>1786.4000244141</ele>
        <time>2023-10-01T10:22:45.000Z</time>
      </trkpt>
      <trkpt lat="45.00579" lon="5.81832">
        <ele>1786</ele>
        <time>2023-10-01T10:22:46.000Z</time>
      </trkpt>
      <trkpt lat="45.00579" lon="5.81831">
        <ele>1785.8000488281</ele>
        <time>2023-10-01T10:22:47.000Z</time>
      </trkpt>
      <trkpt lat="45.0058" lon="5.81831">
        <ele>1785.4000244141</ele>
        <time>2023-10-01T10:22:48.000Z</time>
      </trkpt>
      <trkpt lat="45.0058" lon="5.8183">
        <ele>1785.1999511719</ele>
        <time>2023-10-01T10:22:49.000Z</time>
      </trkpt>
      <trkpt lat="45.0058" lon="5.8183">
        <ele>1785</ele>
        <time>2023-10-01T10:22:50.000Z</time>
      </trkpt>
      <trkpt lat="45.0058" lon="5.81829">
        <ele>1784.8000488281</ele>
        <time>2023-10-01T10:22:51.000Z</time>
      </trkpt>
      <trkpt lat="45.0058" lon="5.81829">
        <ele>1784.5999755859</ele>
        <time>2023-10-01T10:22:52.000Z</time>
      </trkpt>
      <trkpt lat="45.0058" lon="5.81829">
        <ele>1783.8000488281</ele>
        <time>2023-10-01T10:22:53.000Z</time>
      </trkpt>
      <trkpt lat="45.0058" lon="5.81829">
        <ele>1783.5999755859</ele>
        <time>2023-10-01T10:22:54.000Z</time>
      </trkpt>
      <trkpt lat="45.0058" lon="5.81828">
        <ele>1783.5999755859</ele>
        <time>2023-10-01T10:22:55.000Z</time>
      </trkpt>
      <trkpt lat="45.0058" lon="5.81828">
        <ele>1783.1999511719</ele>
        <time>2023-10-01T10:22:56.000Z</time>
      </trkpt>
      <trkpt lat="45.0058" lon="5.81828">
        <ele>1783</ele>
        <time>2023-10-01T10:22:57.000Z</time>
      </trkpt>
      <trkpt lat="45.0058" lon="5.81828">
        <ele>1782.8000488281</ele>
        <time>2023-10-01T10:22:58.000Z</time>
      </trkpt>
      <trkpt lat="45.0058" lon="5.81828">
        <ele>1782.8000488281</ele>
        <time>2023-10-01T10:22:59.000Z</time>
      </trkpt>
      <trkpt lat="45.0058" lon="5.81828">
        <ele>1782.5999755859</ele>
        <time>2023-10-01T10:23:00.000Z</time>
      </trkpt>
      <trkpt lat="45.0058" lon="5.81827">
        <ele>1782.5999755859</ele>
        <time>2023-10-01T10:23:01.000Z</time>
      </trkpt>
      <trkpt lat="45.0058" lon="5.81827">
        <ele>1782.5999755859</ele>
        <time>2023-10-01T10:23:02.000Z</time>
      </trkpt>
      <trkpt lat="45.0058" lon="5.81827">
        <ele>1782.4000244141</ele>
        <time>2023-10-01T10:23:03.000Z</time>
      </trkpt>
      <trkpt lat="45.0058" lon="5.81826">
        <ele>1782.1999511719</ele>
        <time>2023-10-01T10:23:04.000Z</time>
      </trkpt>
      <trkpt lat="45.0058" lon="5.81824">
        <ele>1782</ele>
        <time>2023-10-01T10:23:05.000Z</time>
      </trkpt>
      <trkpt lat="45.0058" lon="5.81824">
        <ele>1781.5999755859</ele>
        <time>2023-10-01T10:23:06.000Z</time>
      </trkpt>
      <trkpt lat="45.0058" lon="5.81824">
        <ele>1781.4000244141</ele>
        <time>2023-10-01T10:23:07.000Z</time>
      </trkpt>
      <trkpt lat="45.0058" lon="5.81824">
        <ele>1781</ele>
        <time>2023-10-01T10:23:08.000Z</time>
      </trkpt>
      <trkpt lat="45.0058" lon="5.81824">
        <ele>1781</ele>
        <time>2023-10-01T10:23:09.000Z</time>
      </trkpt>
      <trkpt lat="45.0058" lon="5.81823">
        <ele>1781</ele>
        <time>2023-10-01T10:23:10.000Z</time>
      </trkpt>
      <trkpt lat="45.0058" lon="5.81823">
        <ele>1780.8000488281</ele>
        <time>2023-10-01T10:23:11.000Z</time>
      </trkpt>
      <trkpt lat="45.0058" lon="5.81822">
        <ele>1780.5999755859</ele>
        <time>2023-10-01T10:23:12.000Z</time>
      </trkpt>
      <trkpt lat="45.0058" lon="5.81821">
        <ele>1780.4000244141</ele>
        <time>2023-10-01T10:23:13.000Z</time>
      </trkpt>
      <trkpt lat="45.0058" lon="5.81821">
        <ele>1780.1999511719</ele>
        <time>2023-10-01T10:23:14.000Z</time>
      </trkpt>
      <trkpt lat="45.00581" lon="5.8182">
        <ele>1779.8000488281</ele>
        <time>2023-10-01T10:23:15.000Z</time>
      </trkpt>
      <trkpt lat="45.00581" lon="5.8182">
        <ele>1779.5999755859</ele>
        <time>2023-10-01T10:23:16.000Z</time>
      </trkpt>
      <trkpt lat="45.00581" lon="5.8182">
        <ele>1779.4000244141</ele>
        <time>2023-10-01T10:23:17.000Z</time>
      </trkpt>
      <trkpt lat="45.00581" lon="5.8182">
        <ele>1779</ele>
        <time>2023-10-01T10:23:18.000Z</time>
      </trkpt>
      <trkpt lat="45.00581" lon="5.81819">
        <ele>1778.8000488281</ele>
        <time>2023-10-01T10:23:19.000Z</time>
      </trkpt>
      <trkpt lat="45.00582" lon="5.81818">
        <ele>1778.5999755859</ele>
        <time>2023-10-01T10:23:20.000Z</time>
      </trkpt>
      <trkpt lat="45.00582" lon="5.81818">
        <ele>1778.4000244141</ele>
        <time>2023-10-01T10:23:21.000Z</time>
      </trkpt>
      <trkpt lat="45.00582" lon="5.81818">
        <ele>1778</ele>
        <time>2023-10-01T10:23:22.000Z</time>
      </trkpt>
      <trkpt lat="45.00582" lon="5.81817">
        <ele>1777.8000488281</ele>
        <time>2023-10-01T10:23:23.000Z</time>
      </trkpt>
      <trkpt lat="45.00582" lon="5.81817">
        <ele>1777.5999755859</ele>
        <time>2023-10-01T10:23:24.000Z</time>
      </trkpt>
      <trkpt lat="45.00582" lon="5.81816">
        <ele>1777.4000244141</ele>
        <time>2023-10-01T10:23:25.000Z</time>
      </trkpt>
      <trkpt lat="45.00582" lon="5.81816">
        <ele>1777.1999511719</ele>
        <time>2023-10-01T10:23:26.000Z</time>
      </trkpt>
      <trkpt lat="45.00582" lon="5.81816">
        <ele>1777</ele>
        <time>2023-10-01T10:23:27.000Z</time>
      </trkpt>
      <trkpt lat="45.00582" lon="5.81816">
        <ele>1776.8000488281</ele>
        <time>2023-10-01T10:23:28.000Z</time>
      </trkpt>
      <trkpt lat="45.00582" lon="5.81816">
        <ele>1776.4000244141</ele>
        <time>2023-10-01T10:23:29.000Z</time>
      </trkpt>
      <trkpt lat="45.00582" lon="5.81816">
        <ele>1776.1999511719</ele>
        <time>2023-10-01T10:23:30.000Z</time>
      </trkpt>
      <trkpt lat="45.00582" lon="5.81816">
        <ele>1776.1999511719</ele>
        <time>2023-10-01T10:23:31.000Z</time>
      </trkpt>
      <trkpt lat="45.00581" lon="5.81816">
        <ele>1776.1999511719</ele>
        <time>2023-10-01T10:23:32.000Z</time>
      </trkpt>
      <trkpt lat="45.00581" lon="5.81816">
        <ele>1776.1999511719</ele>
        <time>2023-10-01T10:23:33.000Z</time>
      </trkpt>
      <trkpt lat="45.00581" lon="5.81815">
        <ele>1776.1999511719</ele>
        <time>2023-10-01T10:23:34.000Z</time>
      </trkpt>
      <trkpt lat="45.00581" lon="5.81815">
        <ele>1776.1999511719</ele>
        <time>2023-10-01T10:23:35.000Z</time>
      </trkpt>
      <trkpt lat="45.00581" lon="5.81814">
        <ele>1776</ele>
        <time>2023-10-01T10:23:36.000Z</time>
      </trkpt>
      <trkpt lat="45.00581" lon="5.81814">
        <ele>1775.8000488281</ele>
        <time>2023-10-01T10:23:37.000Z</time>
      </trkpt>
      <trkpt lat="45.00581" lon="5.81814">
        <ele>1775.5999755859</ele>
        <time>2023-10-01T10:23:38.000Z</time>
      </trkpt>
      <trkpt lat="45.00581" lon="5.81814">
        <ele>1775.5999755859</ele>
        <time>2023-10-01T10:23:39.000Z</time>
      </trkpt>
      <trkpt lat="45.00581" lon="5.81813">
        <ele>1775.4000244141</ele>
        <time>2023-10-01T10:23:40.000Z</time>
      </trkpt>
      <trkpt lat="45.00581" lon="5.81813">
        <ele>1775.1999511719</ele>
        <time>2023-10-01T10:23:41.000Z</time>
      </trkpt>
      <trkpt lat="45.00581" lon="5.81813">
        <ele>1774.8000488281</ele>
        <time>2023-10-01T10:23:42.000Z</time>
      </trkpt>
      <trkpt lat="45.00581" lon="5.81813">
        <ele>1774.5999755859</ele>
        <time>2023-10-01T10:23:43.000Z</time>
      </trkpt>
      <trkpt lat="45.00581" lon="5.81813">
        <ele>1774.1999511719</ele>
        <time>2023-10-01T10:23:44.000Z</time>
      </trkpt>
      <trkpt lat="45.00581" lon="5.81813">
        <ele>1774</ele>
        <time>2023-10-01T10:23:45.000Z</time>
      </trkpt>
      <trkpt lat="45.00581" lon="5.81812">
        <ele>1773.8000488281</ele>
        <time>2023-10-01T10:23:46.000Z</time>
      </trkpt>
      <trkpt lat="45.00582" lon="5.81812">
        <ele>1773.5999755859</ele>
        <time>2023-10-01T10:23:47.000Z</time>
      </trkpt>
      <trkpt lat="45.00582" lon="5.8181">
        <ele>1773.4000244141</ele>
        <time>2023-10-01T10:23:48.000Z</time>
      </trkpt>
      <trkpt lat="45.00582" lon="5.8181">
        <ele>1773.1999511719</ele>
        <time>2023-10-01T10:23:49.000Z</time>
      </trkpt>
      <trkpt lat="45.00581" lon="5.8181">
        <ele>1773</ele>
        <time>2023-10-01T10:23:50.000Z</time>
      </trkpt>
      <trkpt lat="45.00582" lon="5.81809">
        <ele>1772.8000488281</ele>
        <time>2023-10-01T10:23:51.000Z</time>
      </trkpt>
      <trkpt lat="45.00582" lon="5.81809">
        <ele>1772.8000488281</ele>
        <time>2023-10-01T10:23:52.000Z</time>
      </trkpt>
      <trkpt lat="45.00582" lon="5.81809">
        <ele>1772.5999755859</ele>
        <time>2023-10-01T10:23:53.000Z</time>
      </trkpt>
      <trkpt lat="45.00582" lon="5.81808">
        <ele>1772.4000244141</ele>
        <time>2023-10-01T10:23:54.000Z</time>
      </trkpt>
      <trkpt lat="45.00582" lon="5.81808">
        <ele>1772.1999511719</ele>
        <time>2023-10-01T10:23:55.000Z</time>
      </trkpt>
      <trkpt lat="45.00582" lon="5.81807">
        <ele>1772.1999511719</ele>
        <time>2023-10-01T10:23:56.000Z</time>
      </trkpt>
      <trkpt lat="45.00582" lon="5.81807">
        <ele>1772</ele>
        <time>2023-10-01T10:23:57.000Z</time>
      </trkpt>
      <trkpt lat="45.00581" lon="5.81806">
        <ele>1771.8000488281</ele>
        <time>2023-10-01T10:23:58.000Z</time>
      </trkpt>
      <trkpt lat="45.00582" lon="5.81806">
        <ele>1771.5999755859</ele>
        <time>2023-10-01T10:23:59.000Z</time>
      </trkpt>
      <trkpt lat="45.00582" lon="5.81805">
        <ele>1771.4000244141</ele>
        <time>2023-10-01T10:24:00.000Z</time>
      </trkpt>
      <trkpt lat="45.00583" lon="5.81806">
        <ele>1771.1999511719</ele>
        <time>2023-10-01T10:24:01.000Z</time>
      </trkpt>
      <trkpt lat="45.00583" lon="5.81806">
        <ele>1771</ele>
        <time>2023-10-01T10:24:02.000Z</time>
      </trkpt>
      <trkpt lat="45.00583" lon="5.81806">
        <ele>1770.8000488281</ele>
        <time>2023-10-01T10:24:03.000Z</time>
      </trkpt>
      <trkpt lat="45.00584" lon="5.81806">
        <ele>1770.8000488281</ele>
        <time>2023-10-01T10:24:04.000Z</time>
      </trkpt>
      <trkpt lat="45.00584" lon="5.81806">
        <ele>1770.8000488281</ele>
        <time>2023-10-01T10:24:05.000Z</time>
      </trkpt>
      <trkpt lat="45.00584" lon="5.81806">
        <ele>1770.8000488281</ele>
        <time>2023-10-01T10:24:06.000Z</time>
      </trkpt>
      <trkpt lat="45.00584" lon="5.81806">
        <ele>1770.5999755859</ele>
        <time>2023-10-01T10:24:07.000Z</time>
      </trkpt>
      <trkpt lat="45.00584" lon="5.81806">
        <ele>1770.4000244141</ele>
        <time>2023-10-01T10:24:08.000Z</time>
      </trkpt>
      <trkpt lat="45.00584" lon="5.81806">
        <ele>1770.4000244141</ele>
        <time>2023-10-01T10:24:09.000Z</time>
      </trkpt>
      <trkpt lat="45.00584" lon="5.81807">
        <ele>1770</ele>
        <time>2023-10-01T10:24:10.000Z</time>
      </trkpt>
      <trkpt lat="45.00584" lon="5.81807">
        <ele>1769.8000488281</ele>
        <time>2023-10-01T10:24:11.000Z</time>
      </trkpt>
      <trkpt lat="45.00585" lon="5.81807">
        <ele>1769.8000488281</ele>
        <time>2023-10-01T10:24:12.000Z</time>
      </trkpt>
      <trkpt lat="45.00586" lon="5.81807">
        <ele>1769.5999755859</ele>
        <time>2023-10-01T10:24:13.000Z</time>
      </trkpt>
      <trkpt lat="45.00586" lon="5.81806">
        <ele>1769.4000244141</ele>
        <time>2023-10-01T10:24:14.000Z</time>
      </trkpt>
      <trkpt lat="45.00586" lon="5.81805">
        <ele>1769.4000244141</ele>
        <time>2023-10-01T10:24:15.000Z</time>
      </trkpt>
      <trkpt lat="45.00586" lon="5.81803">
        <ele>1769.1999511719</ele>
        <time>2023-10-01T10:24:16.000Z</time>
      </trkpt>
      <trkpt lat="45.00586" lon="5.81802">
        <ele>1769.1999511719</ele>
        <time>2023-10-01T10:24:17.000Z</time>
      </trkpt>
      <trkpt lat="45.00586" lon="5.81802">
        <ele>1769</ele>
        <time>2023-10-01T10:24:18.000Z</time>
      </trkpt>
      <trkpt lat="45.00586" lon="5.81802">
        <ele>1768.5999755859</ele>
        <time>2023-10-01T10:24:19.000Z</time>
      </trkpt>
      <trkpt lat="45.00586" lon="5.81802">
        <ele>1768.5999755859</ele>
        <time>2023-10-01T10:24:20.000Z</time>
      </trkpt>
      <trkpt lat="45.00586" lon="5.81802">
        <ele>1768.5999755859</ele>
        <time>2023-10-01T10:24:21.000Z</time>
      </trkpt>
      <trkpt lat="45.00586" lon="5.81802">
        <ele>1768.5999755859</ele>
        <time>2023-10-01T10:24:22.000Z</time>
      </trkpt>
      <trkpt lat="45.00586" lon="5.81802">
        <ele>1768.5999755859</ele>
        <time>2023-10-01T10:24:23.000Z</time>
      </trkpt>
      <trkpt lat="45.00586" lon="5.81802">
        <ele>1768.5999755859</ele>
        <time>2023-10-01T10:24:24.000Z</time>
      </trkpt>
      <trkpt lat="45.00586" lon="5.81802">
        <ele>1768.5999755859</ele>
        <time>2023-10-01T10:24:25.000Z</time>
      </trkpt>
      <trkpt lat="45.00586" lon="5.81802">
        <ele>1768.4000244141</ele>
        <time>2023-10-01T10:24:26.000Z</time>
      </trkpt>
      <trkpt lat="45.00586" lon="5.81802">
        <ele>1768.4000244141</ele>
        <time>2023-10-01T10:24:27.000Z</time>
      </trkpt>
      <trkpt lat="45.00586" lon="5.81804">
        <ele>1768.1999511719</ele>
        <time>2023-10-01T10:24:28.000Z</time>
      </trkpt>
      <trkpt lat="45.00586" lon="5.81804">
        <ele>1768</ele>
        <time>2023-10-01T10:24:29.000Z</time>
      </trkpt>
      <trkpt lat="45.00586" lon="5.81804">
        <ele>1768</ele>
        <time>2023-10-01T10:24:30.000Z</time>
      </trkpt>
      <trkpt lat="45.00586" lon="5.81804">
        <ele>1768</ele>
        <time>2023-10-01T10:24:31.000Z</time>
      </trkpt>
      <trkpt lat="45.00586" lon="5.81804">
        <ele>1768</ele>
        <time>2023-10-01T10:24:32.000Z</time>
      </trkpt>
      <trkpt lat="45.00586" lon="5.81804">
        <ele>1768</ele>
        <time>2023-10-01T10:24:33.000Z</time>
      </trkpt>
      <trkpt lat="45.00586" lon="5.81804">
        <ele>1768</ele>
        <time>2023-10-01T10:24:34.000Z</time>
      </trkpt>
      <trkpt lat="45.00586" lon="5.81804">
        <ele>1768</ele>
        <time>2023-10-01T10:24:35.000Z</time>
      </trkpt>
      <trkpt lat="45.00586" lon="5.81804">
        <ele>1768</ele>
        <time>2023-10-01T10:24:36.000Z</time>
      </trkpt>
      <trkpt lat="45.00586" lon="5.81804">
        <ele>1768.1999511719</ele>
        <time>2023-10-01T10:24:37.000Z</time>
      </trkpt>
      <trkpt lat="45.00586" lon="5.81804">
        <ele>1768.1999511719</ele>
        <time>2023-10-01T10:24:38.000Z</time>
      </trkpt>
      <trkpt lat="45.00587" lon="5.81803">
        <ele>1768.1999511719</ele>
        <time>2023-10-01T10:24:39.000Z</time>
      </trkpt>
      <trkpt lat="45.00588" lon="5.81803">
        <ele>1768.4000244141</ele>
        <time>2023-10-01T10:24:40.000Z</time>
      </trkpt>
      <trkpt lat="45.00588" lon="5.81803">
        <ele>1768.4000244141</ele>
        <time>2023-10-01T10:24:41.000Z</time>
      </trkpt>
      <trkpt lat="45.00588" lon="5.81803">
        <ele>1768.4000244141</ele>
        <time>2023-10-01T10:24:42.000Z</time>
      </trkpt>
      <trkpt lat="45.00588" lon="5.81803">
        <ele>1768.1999511719</ele>
        <time>2023-10-01T10:24:43.000Z</time>
      </trkpt>
      <trkpt lat="45.00588" lon="5.81803">
        <ele>1768.1999511719</ele>
        <time>2023-10-01T10:24:44.000Z</time>
      </trkpt>
      <trkpt lat="45.00588" lon="5.81803">
        <ele>1768.1999511719</ele>
        <time>2023-10-01T10:24:45.000Z</time>
      </trkpt>
      <trkpt lat="45.00588" lon="5.81803">
        <ele>1768.1999511719</ele>
        <time>2023-10-01T10:24:46.000Z</time>
      </trkpt>
      <trkpt lat="45.00588" lon="5.81803">
        <ele>1768.1999511719</ele>
        <time>2023-10-01T10:24:47.000Z</time>
      </trkpt>
      <trkpt lat="45.00588" lon="5.81803">
        <ele>1768.1999511719</ele>
        <time>2023-10-01T10:24:48.000Z</time>
      </trkpt>
      <trkpt lat="45.00588" lon="5.81803">
        <ele>1768.1999511719</ele>
        <time>2023-10-01T10:24:49.000Z</time>
      </trkpt>
      <trkpt lat="45.00588" lon="5.81803">
        <ele>1768.4000244141</ele>
        <time>2023-10-01T10:24:50.000Z</time>
      </trkpt>
      <trkpt lat="45.00588" lon="5.81803">
        <ele>1768.4000244141</ele>
        <time>2023-10-01T10:24:51.000Z</time>
      </trkpt>
      <trkpt lat="45.00588" lon="5.81803">
        <ele>1768.4000244141</ele>
        <time>2023-10-01T10:24:52.000Z</time>
      </trkpt>
      <trkpt lat="45.00588" lon="5.81803">
        <ele>1768.4000244141</ele>
        <time>2023-10-01T10:24:53.000Z</time>
      </trkpt>
      <trkpt lat="45.00588" lon="5.81803">
        <ele>1768.4000244141</ele>
        <time>2023-10-01T10:24:54.000Z</time>
      </trkpt>
      <trkpt lat="45.00588" lon="5.81803">
        <ele>1768.4000244141</ele>
        <time>2023-10-01T10:24:55.000Z</time>
      </trkpt>
      <trkpt lat="45.00588" lon="5.81803">
        <ele>1768.5999755859</ele>
        <time>2023-10-01T10:24:56.000Z</time>
      </trkpt>
      <trkpt lat="45.00588" lon="5.81803">
        <ele>1768.5999755859</ele>
        <time>2023-10-01T10:24:57.000Z</time>
      </trkpt>
      <trkpt lat="45.00588" lon="5.81803">
        <ele>1768.5999755859</ele>
        <time>2023-10-01T10:24:58.000Z</time>
      </trkpt>
      <trkpt lat="45.00588" lon="5.81803">
        <ele>1768.5999755859</ele>
        <time>2023-10-01T10:24:59.000Z</time>
      </trkpt>
      <trkpt lat="45.00588" lon="5.81803">
        <ele>1768.5999755859</ele>
        <time>2023-10-01T10:25:00.000Z</time>
      </trkpt>
      <trkpt lat="45.00588" lon="5.81803">
        <ele>1768.5999755859</ele>
        <time>2023-10-01T10:25:01.000Z</time>
      </trkpt>
      <trkpt lat="45.00588" lon="5.81803">
        <ele>1768.5999755859</ele>
        <time>2023-10-01T10:25:02.000Z</time>
      </trkpt>
      <trkpt lat="45.00588" lon="5.81803">
        <ele>1768.5999755859</ele>
        <time>2023-10-01T10:25:03.000Z</time>
      </trkpt>
      <trkpt lat="45.00588" lon="5.81803">
        <ele>1768.5999755859</ele>
        <time>2023-10-01T10:25:04.000Z</time>
      </trkpt>
      <trkpt lat="45.00588" lon="5.81803">
        <ele>1768.5999755859</ele>
        <time>2023-10-01T10:25:05.000Z</time>
      </trkpt>
      <trkpt lat="45.00588" lon="5.81803">
        <ele>1768.5999755859</ele>
        <time>2023-10-01T10:25:06.000Z</time>
      </trkpt>
      <trkpt lat="45.00588" lon="5.81803">
        <ele>1768.5999755859</ele>
        <time>2023-10-01T10:25:07.000Z</time>
      </trkpt>
      <trkpt lat="45.00588" lon="5.81803">
        <ele>1768.5999755859</ele>
        <time>2023-10-01T10:25:08.000Z</time>
      </trkpt>
      <trkpt lat="45.00588" lon="5.81803">
        <ele>1768.5999755859</ele>
        <time>2023-10-01T10:25:09.000Z</time>
      </trkpt>
      <trkpt lat="45.00588" lon="5.81803">
        <ele>1768.5999755859</ele>
        <time>2023-10-01T10:25:10.000Z</time>
      </trkpt>
      <trkpt lat="45.00588" lon="5.81803">
        <ele>1768.5999755859</ele>
        <time>2023-10-01T10:25:11.000Z</time>
      </trkpt>
      <trkpt lat="45.00588" lon="5.81803">
        <ele>1768.5999755859</ele>
        <time>2023-10-01T10:25:12.000Z</time>
      </trkpt>
      <trkpt lat="45.00588" lon="5.81803">
        <ele>1768.4000244141</ele>
        <time>2023-10-01T10:25:13.000Z</time>
      </trkpt>
      <trkpt lat="45.00588" lon="5.81803">
        <ele>1768.4000244141</ele>
        <time>2023-10-01T10:25:14.000Z</time>
      </trkpt>
      <trkpt lat="45.00588" lon="5.81803">
        <ele>1768.4000244141</ele>
        <time>2023-10-01T10:25:15.000Z</time>
      </trkpt>
      <trkpt lat="45.00588" lon="5.81803">
        <ele>1768.4000244141</ele>
        <time>2023-10-01T10:25:16.000Z</time>
      </trkpt>
      <trkpt lat="45.00588" lon="5.81803">
        <ele>1768.4000244141</ele>
        <time>2023-10-01T10:25:17.000Z</time>
      </trkpt>
      <trkpt lat="45.00588" lon="5.81803">
        <ele>1768.4000244141</ele>
        <time>2023-10-01T10:25:18.000Z</time>
      </trkpt>
      <trkpt lat="45.00588" lon="5.81803">
        <ele>1768.4000244141</ele>
        <time>2023-10-01T10:25:19.000Z</time>
      </trkpt>
      <trkpt lat="45.00588" lon="5.81803">
        <ele>1768.4000244141</ele>
        <time>2023-10-01T10:25:20.000Z</time>
      </trkpt>
      <trkpt lat="45.00587" lon="5.81803">
        <ele>1768.4000244141</ele>
        <time>2023-10-01T10:25:21.000Z</time>
      </trkpt>
      <trkpt lat="45.00587" lon="5.81803">
        <ele>1768.4000244141</ele>
        <time>2023-10-01T10:25:22.000Z</time>
      </trkpt>
      <trkpt lat="45.00586" lon="5.81802">
        <ele>1768.4000244141</ele>
        <time>2023-10-01T10:25:23.000Z</time>
      </trkpt>
      <trkpt lat="45.00585" lon="5.81801">
        <ele>1768.4000244141</ele>
        <time>2023-10-01T10:25:24.000Z</time>
      </trkpt>
      <trkpt lat="45.00584" lon="5.818">
        <ele>1768.1999511719</ele>
        <time>2023-10-01T10:25:25.000Z</time>
      </trkpt>
      <trkpt lat="45.00584" lon="5.81799">
        <ele>1767.8000488281</ele>
        <time>2023-10-01T10:25:26.000Z</time>
      </trkpt>
      <trkpt lat="45.00583" lon="5.81798">
        <ele>1767.8000488281</ele>
        <time>2023-10-01T10:25:27.000Z</time>
      </trkpt>
      <trkpt lat="45.00582" lon="5.81797">
        <ele>1767.8000488281</ele>
        <time>2023-10-01T10:25:28.000Z</time>
      </trkpt>
      <trkpt lat="45.00581" lon="5.81797">
        <ele>1767.5999755859</ele>
        <time>2023-10-01T10:25:29.000Z</time>
      </trkpt>
      <trkpt lat="45.0058" lon="5.81796">
        <ele>1767.5999755859</ele>
        <time>2023-10-01T10:25:30.000Z</time>
      </trkpt>
      <trkpt lat="45.00579" lon="5.81795">
        <ele>1767.4000244141</ele>
        <time>2023-10-01T10:25:31.000Z</time>
      </trkpt>
      <trkpt lat="45.00579" lon="5.81795">
        <ele>1767.1999511719</ele>
        <time>2023-10-01T10:25:32.000Z</time>
      </trkpt>
      <trkpt lat="45.00578" lon="5.81794">
        <ele>1767</ele>
        <time>2023-10-01T10:25:33.000Z</time>
      </trkpt>
      <trkpt lat="45.00578" lon="5.81793">
        <ele>1766.5999755859</ele>
        <time>2023-10-01T10:25:34.000Z</time>
      </trkpt>
      <trkpt lat="45.00577" lon="5.81793">
        <ele>1766.4000244141</ele>
        <time>2023-10-01T10:25:35.000Z</time>
      </trkpt>
      <trkpt lat="45.00576" lon="5.81792">
        <ele>1766.1999511719</ele>
        <time>2023-10-01T10:25:36.000Z</time>
      </trkpt>
      <trkpt lat="45.00576" lon="5.81791">
        <ele>1766</ele>
        <time>2023-10-01T10:25:37.000Z</time>
      </trkpt>
      <trkpt lat="45.00575" lon="5.8179">
        <ele>1765.8000488281</ele>
        <time>2023-10-01T10:25:38.000Z</time>
      </trkpt>
      <trkpt lat="45.00574" lon="5.81789">
        <ele>1765.5999755859</ele>
        <time>2023-10-01T10:25:39.000Z</time>
      </trkpt>
      <trkpt lat="45.00573" lon="5.81788">
        <ele>1765.1999511719</ele>
        <time>2023-10-01T10:25:40.000Z</time>
      </trkpt>
      <trkpt lat="45.00572" lon="5.81788">
        <ele>1764.8000488281</ele>
        <time>2023-10-01T10:25:41.000Z</time>
      </trkpt>
      <trkpt lat="45.00572" lon="5.81787">
        <ele>1764.5999755859</ele>
        <time>2023-10-01T10:25:42.000Z</time>
      </trkpt>
      <trkpt lat="45.00571" lon="5.81787">
        <ele>1764.1999511719</ele>
        <time>2023-10-01T10:25:43.000Z</time>
      </trkpt>
      <trkpt lat="45.0057" lon="5.81786">
        <ele>1764</ele>
        <time>2023-10-01T10:25:44.000Z</time>
      </trkpt>
      <trkpt lat="45.00569" lon="5.81785">
        <ele>1763.5999755859</ele>
        <time>2023-10-01T10:25:45.000Z</time>
      </trkpt>
      <trkpt lat="45.00568" lon="5.81784">
        <ele>1763.4000244141</ele>
        <time>2023-10-01T10:25:46.000Z</time>
      </trkpt>
      <trkpt lat="45.00568" lon="5.81784">
        <ele>1763.1999511719</ele>
        <time>2023-10-01T10:25:47.000Z</time>
      </trkpt>
      <trkpt lat="45.00567" lon="5.81783">
        <ele>1762.8000488281</ele>
        <time>2023-10-01T10:25:48.000Z</time>
      </trkpt>
      <trkpt lat="45.00566" lon="5.81782">
        <ele>1762.1999511719</ele>
        <time>2023-10-01T10:25:49.000Z</time>
      </trkpt>
      <trkpt lat="45.00565" lon="5.81781">
        <ele>1762</ele>
        <time>2023-10-01T10:25:50.000Z</time>
      </trkpt>
      <trkpt lat="45.00564" lon="5.8178">
        <ele>1762</ele>
        <time>2023-10-01T10:25:51.000Z</time>
      </trkpt>
      <trkpt lat="45.00563" lon="5.8178">
        <ele>1761.8000488281</ele>
        <time>2023-10-01T10:25:52.000Z</time>
      </trkpt>
      <trkpt lat="45.00562" lon="5.81779">
        <ele>1761.8000488281</ele>
        <time>2023-10-01T10:25:53.000Z</time>
      </trkpt>
      <trkpt lat="45.00561" lon="5.81778">
        <ele>1761.5999755859</ele>
        <time>2023-10-01T10:25:54.000Z</time>
      </trkpt>
      <trkpt lat="45.0056" lon="5.81777">
        <ele>1761.4000244141</ele>
        <time>2023-10-01T10:25:55.000Z</time>
      </trkpt>
      <trkpt lat="45.00559" lon="5.81776">
        <ele>1761.1999511719</ele>
        <time>2023-10-01T10:25:56.000Z</time>
      </trkpt>
      <trkpt lat="45.00559" lon="5.81776">
        <ele>1760.8000488281</ele>
        <time>2023-10-01T10:25:57.000Z</time>
      </trkpt>
      <trkpt lat="45.00558" lon="5.81775">
        <ele>1760.5999755859</ele>
        <time>2023-10-01T10:25:58.000Z</time>
      </trkpt>
      <trkpt lat="45.00557" lon="5.81774">
        <ele>1760.4000244141</ele>
        <time>2023-10-01T10:25:59.000Z</time>
      </trkpt>
      <trkpt lat="45.00556" lon="5.81773">
        <ele>1760</ele>
        <time>2023-10-01T10:26:00.000Z</time>
      </trkpt>
      <trkpt lat="45.00555" lon="5.81773">
        <ele>1759.8000488281</ele>
        <time>2023-10-01T10:26:01.000Z</time>
      </trkpt>
      <trkpt lat="45.00555" lon="5.81772">
        <ele>1759.4000244141</ele>
        <time>2023-10-01T10:26:02.000Z</time>
      </trkpt>
      <trkpt lat="45.00554" lon="5.81771">
        <ele>1759.1999511719</ele>
        <time>2023-10-01T10:26:03.000Z</time>
      </trkpt>
      <trkpt lat="45.00553" lon="5.81771">
        <ele>1758.5999755859</ele>
        <time>2023-10-01T10:26:04.000Z</time>
      </trkpt>
      <trkpt lat="45.00552" lon="5.8177">
        <ele>1758.4000244141</ele>
        <time>2023-10-01T10:26:05.000Z</time>
      </trkpt>
      <trkpt lat="45.0055" lon="5.8177">
        <ele>1758</ele>
        <time>2023-10-01T10:26:06.000Z</time>
      </trkpt>
      <trkpt lat="45.00549" lon="5.81768">
        <ele>1757.5999755859</ele>
        <time>2023-10-01T10:26:07.000Z</time>
      </trkpt>
      <trkpt lat="45.00548" lon="5.81767">
        <ele>1757.5999755859</ele>
        <time>2023-10-01T10:26:08.000Z</time>
      </trkpt>
      <trkpt lat="45.00547" lon="5.81765">
        <ele>1757.4000244141</ele>
        <time>2023-10-01T10:26:09.000Z</time>
      </trkpt>
      <trkpt lat="45.00546" lon="5.81765">
        <ele>1757.1999511719</ele>
        <time>2023-10-01T10:26:10.000Z</time>
      </trkpt>
      <trkpt lat="45.00545" lon="5.81764">
        <ele>1757</ele>
        <time>2023-10-01T10:26:11.000Z</time>
      </trkpt>
      <trkpt lat="45.00544" lon="5.81764">
        <ele>1756.5999755859</ele>
        <time>2023-10-01T10:26:12.000Z</time>
      </trkpt>
      <trkpt lat="45.00543" lon="5.81763">
        <ele>1756.1999511719</ele>
        <time>2023-10-01T10:26:13.000Z</time>
      </trkpt>
      <trkpt lat="45.00542" lon="5.81762">
        <ele>1756</ele>
        <time>2023-10-01T10:26:14.000Z</time>
      </trkpt>
      <trkpt lat="45.00541" lon="5.81762">
        <ele>1755.8000488281</ele>
        <time>2023-10-01T10:26:15.000Z</time>
      </trkpt>
      <trkpt lat="45.0054" lon="5.81761">
        <ele>1755.5999755859</ele>
        <time>2023-10-01T10:26:16.000Z</time>
      </trkpt>
      <trkpt lat="45.00539" lon="5.8176">
        <ele>1755.4000244141</ele>
        <time>2023-10-01T10:26:17.000Z</time>
      </trkpt>
      <trkpt lat="45.00538" lon="5.8176">
        <ele>1755</ele>
        <time>2023-10-01T10:26:18.000Z</time>
      </trkpt>
      <trkpt lat="45.00536" lon="5.81758">
        <ele>1754.8000488281</ele>
        <time>2023-10-01T10:26:19.000Z</time>
      </trkpt>
      <trkpt lat="45.00535" lon="5.81757">
        <ele>1754.4000244141</ele>
        <time>2023-10-01T10:26:20.000Z</time>
      </trkpt>
      <trkpt lat="45.00534" lon="5.81756">
        <ele>1754</ele>
        <time>2023-10-01T10:26:21.000Z</time>
      </trkpt>
      <trkpt lat="45.00534" lon="5.81756">
        <ele>1753.8000488281</ele>
        <time>2023-10-01T10:26:22.000Z</time>
      </trkpt>
      <trkpt lat="45.00534" lon="5.81755">
        <ele>1753.5999755859</ele>
        <time>2023-10-01T10:26:23.000Z</time>
      </trkpt>
      <trkpt lat="45.00533" lon="5.81754">
        <ele>1753.1999511719</ele>
        <time>2023-10-01T10:26:24.000Z</time>
      </trkpt>
      <trkpt lat="45.00532" lon="5.81753">
        <ele>1753</ele>
        <time>2023-10-01T10:26:25.000Z</time>
      </trkpt>
      <trkpt lat="45.00531" lon="5.81752">
        <ele>1752.8000488281</ele>
        <time>2023-10-01T10:26:26.000Z</time>
      </trkpt>
      <trkpt lat="45.00529" lon="5.81751">
        <ele>1752.4000244141</ele>
        <time>2023-10-01T10:26:27.000Z</time>
      </trkpt>
      <trkpt lat="45.00528" lon="5.8175">
        <ele>1752.1999511719</ele>
        <time>2023-10-01T10:26:28.000Z</time>
      </trkpt>
      <trkpt lat="45.00527" lon="5.81749">
        <ele>1752</ele>
        <time>2023-10-01T10:26:29.000Z</time>
      </trkpt>
      <trkpt lat="45.00527" lon="5.81748">
        <ele>1751.8000488281</ele>
        <time>2023-10-01T10:26:30.000Z</time>
      </trkpt>
      <trkpt lat="45.00526" lon="5.81747">
        <ele>1751.8000488281</ele>
        <time>2023-10-01T10:26:31.000Z</time>
      </trkpt>
      <trkpt lat="45.00525" lon="5.81746">
        <ele>1751.4000244141</ele>
        <time>2023-10-01T10:26:32.000Z</time>
      </trkpt>
      <trkpt lat="45.00523" lon="5.81745">
        <ele>1751.1999511719</ele>
        <time>2023-10-01T10:26:33.000Z</time>
      </trkpt>
      <trkpt lat="45.00523" lon="5.81744">
        <ele>1751</ele>
        <time>2023-10-01T10:26:34.000Z</time>
      </trkpt>
      <trkpt lat="45.00522" lon="5.81743">
        <ele>1750.8000488281</ele>
        <time>2023-10-01T10:26:35.000Z</time>
      </trkpt>
      <trkpt lat="45.00521" lon="5.81742">
        <ele>1750.4000244141</ele>
        <time>2023-10-01T10:26:36.000Z</time>
      </trkpt>
      <trkpt lat="45.0052" lon="5.81742">
        <ele>1749.8000488281</ele>
        <time>2023-10-01T10:26:37.000Z</time>
      </trkpt>
      <trkpt lat="45.00519" lon="5.81742">
        <ele>1749.1999511719</ele>
        <time>2023-10-01T10:26:38.000Z</time>
      </trkpt>
      <trkpt lat="45.00517" lon="5.81741">
        <ele>1749</ele>
        <time>2023-10-01T10:26:39.000Z</time>
      </trkpt>
      <trkpt lat="45.00517" lon="5.8174">
        <ele>1748.5999755859</ele>
        <time>2023-10-01T10:26:40.000Z</time>
      </trkpt>
      <trkpt lat="45.00516" lon="5.81739">
        <ele>1748.4000244141</ele>
        <time>2023-10-01T10:26:41.000Z</time>
      </trkpt>
      <trkpt lat="45.00515" lon="5.81738">
        <ele>1748.1999511719</ele>
        <time>2023-10-01T10:26:42.000Z</time>
      </trkpt>
      <trkpt lat="45.00514" lon="5.81737">
        <ele>1748</ele>
        <time>2023-10-01T10:26:43.000Z</time>
      </trkpt>
      <trkpt lat="45.00512" lon="5.81736">
        <ele>1747.5999755859</ele>
        <time>2023-10-01T10:26:44.000Z</time>
      </trkpt>
      <trkpt lat="45.00511" lon="5.81736">
        <ele>1747.4000244141</ele>
        <time>2023-10-01T10:26:45.000Z</time>
      </trkpt>
      <trkpt lat="45.0051" lon="5.81735">
        <ele>1747.1999511719</ele>
        <time>2023-10-01T10:26:46.000Z</time>
      </trkpt>
      <trkpt lat="45.00509" lon="5.81734">
        <ele>1747</ele>
        <time>2023-10-01T10:26:47.000Z</time>
      </trkpt>
      <trkpt lat="45.00508" lon="5.81733">
        <ele>1746.5999755859</ele>
        <time>2023-10-01T10:26:48.000Z</time>
      </trkpt>
      <trkpt lat="45.00507" lon="5.81732">
        <ele>1746.5999755859</ele>
        <time>2023-10-01T10:26:49.000Z</time>
      </trkpt>
      <trkpt lat="45.00506" lon="5.81731">
        <ele>1746.4000244141</ele>
        <time>2023-10-01T10:26:50.000Z</time>
      </trkpt>
      <trkpt lat="45.00505" lon="5.8173">
        <ele>1746</ele>
        <time>2023-10-01T10:26:51.000Z</time>
      </trkpt>
      <trkpt lat="45.00503" lon="5.81729">
        <ele>1745.8000488281</ele>
        <time>2023-10-01T10:26:52.000Z</time>
      </trkpt>
      <trkpt lat="45.00502" lon="5.81729">
        <ele>1745.4000244141</ele>
        <time>2023-10-01T10:26:53.000Z</time>
      </trkpt>
      <trkpt lat="45.00501" lon="5.81728">
        <ele>1745.1999511719</ele>
        <time>2023-10-01T10:26:54.000Z</time>
      </trkpt>
      <trkpt lat="45.00499" lon="5.81728">
        <ele>1744.8000488281</ele>
        <time>2023-10-01T10:26:55.000Z</time>
      </trkpt>
      <trkpt lat="45.00498" lon="5.81727">
        <ele>1744.5999755859</ele>
        <time>2023-10-01T10:26:56.000Z</time>
      </trkpt>
      <trkpt lat="45.00497" lon="5.81726">
        <ele>1744.4000244141</ele>
        <time>2023-10-01T10:26:57.000Z</time>
      </trkpt>
      <trkpt lat="45.00496" lon="5.81726">
        <ele>1744.1999511719</ele>
        <time>2023-10-01T10:26:58.000Z</time>
      </trkpt>
      <trkpt lat="45.00495" lon="5.81725">
        <ele>1744.1999511719</ele>
        <time>2023-10-01T10:26:59.000Z</time>
      </trkpt>
      <trkpt lat="45.00494" lon="5.81724">
        <ele>1743.8000488281</ele>
        <time>2023-10-01T10:27:00.000Z</time>
      </trkpt>
      <trkpt lat="45.00493" lon="5.81723">
        <ele>1743.8000488281</ele>
        <time>2023-10-01T10:27:01.000Z</time>
      </trkpt>
      <trkpt lat="45.00492" lon="5.81722">
        <ele>1743.5999755859</ele>
        <time>2023-10-01T10:27:02.000Z</time>
      </trkpt>
      <trkpt lat="45.0049" lon="5.81721">
        <ele>1743.1999511719</ele>
        <time>2023-10-01T10:27:03.000Z</time>
      </trkpt>
      <trkpt lat="45.00489" lon="5.81719">
        <ele>1742.8000488281</ele>
        <time>2023-10-01T10:27:04.000Z</time>
      </trkpt>
      <trkpt lat="45.00488" lon="5.81718">
        <ele>1742.5999755859</ele>
        <time>2023-10-01T10:27:05.000Z</time>
      </trkpt>
      <trkpt lat="45.00488" lon="5.81717">
        <ele>1742.4000244141</ele>
        <time>2023-10-01T10:27:06.000Z</time>
      </trkpt>
      <trkpt lat="45.00487" lon="5.81717">
        <ele>1741.8000488281</ele>
        <time>2023-10-01T10:27:07.000Z</time>
      </trkpt>
      <trkpt lat="45.00485" lon="5.81716">
        <ele>1741.8000488281</ele>
        <time>2023-10-01T10:27:08.000Z</time>
      </trkpt>
      <trkpt lat="45.00484" lon="5.81715">
        <ele>1741.5999755859</ele>
        <time>2023-10-01T10:27:09.000Z</time>
      </trkpt>
      <trkpt lat="45.00483" lon="5.81715">
        <ele>1741.4000244141</ele>
        <time>2023-10-01T10:27:10.000Z</time>
      </trkpt>
      <trkpt lat="45.00481" lon="5.81714">
        <ele>1741.4000244141</ele>
        <time>2023-10-01T10:27:11.000Z</time>
      </trkpt>
      <trkpt lat="45.0048" lon="5.81714">
        <ele>1740.8000488281</ele>
        <time>2023-10-01T10:27:12.000Z</time>
      </trkpt>
      <trkpt lat="45.00479" lon="5.81714">
        <ele>1740.4000244141</ele>
        <time>2023-10-01T10:27:13.000Z</time>
      </trkpt>
      <trkpt lat="45.00478" lon="5.81713">
        <ele>1740.1999511719</ele>
        <time>2023-10-01T10:27:14.000Z</time>
      </trkpt>
      <trkpt lat="45.00476" lon="5.81713">
        <ele>1739.4000244141</ele>
        <time>2023-10-01T10:27:15.000Z</time>
      </trkpt>
      <trkpt lat="45.00475" lon="5.81712">
        <ele>1739.1999511719</ele>
        <time>2023-10-01T10:27:16.000Z</time>
      </trkpt>
      <trkpt lat="45.00474" lon="5.81712">
        <ele>1739</ele>
        <time>2023-10-01T10:27:17.000Z</time>
      </trkpt>
      <trkpt lat="45.00473" lon="5.8171">
        <ele>1738.5999755859</ele>
        <time>2023-10-01T10:27:18.000Z</time>
      </trkpt>
      <trkpt lat="45.00472" lon="5.81709">
        <ele>1738.1999511719</ele>
        <time>2023-10-01T10:27:19.000Z</time>
      </trkpt>
      <trkpt lat="45.00472" lon="5.81706">
        <ele>1737.8000488281</ele>
        <time>2023-10-01T10:27:20.000Z</time>
      </trkpt>
      <trkpt lat="45.00473" lon="5.81703">
        <ele>1737.4000244141</ele>
        <time>2023-10-01T10:27:21.000Z</time>
      </trkpt>
      <trkpt lat="45.00475" lon="5.81702">
        <ele>1737</ele>
        <time>2023-10-01T10:27:22.000Z</time>
      </trkpt>
      <trkpt lat="45.00477" lon="5.81701">
        <ele>1736.4000244141</ele>
        <time>2023-10-01T10:27:23.000Z</time>
      </trkpt>
      <trkpt lat="45.00479" lon="5.81702">
        <ele>1736.4000244141</ele>
        <time>2023-10-01T10:27:24.000Z</time>
      </trkpt>
      <trkpt lat="45.00481" lon="5.81702">
        <ele>1736.4000244141</ele>
        <time>2023-10-01T10:27:25.000Z</time>
      </trkpt>
      <trkpt lat="45.00483" lon="5.81702">
        <ele>1736.4000244141</ele>
        <time>2023-10-01T10:27:26.000Z</time>
      </trkpt>
      <trkpt lat="45.00484" lon="5.81702">
        <ele>1736.1999511719</ele>
        <time>2023-10-01T10:27:27.000Z</time>
      </trkpt>
      <trkpt lat="45.00486" lon="5.81702">
        <ele>1736.1999511719</ele>
        <time>2023-10-01T10:27:28.000Z</time>
      </trkpt>
      <trkpt lat="45.00487" lon="5.81703">
        <ele>1736.1999511719</ele>
        <time>2023-10-01T10:27:29.000Z</time>
      </trkpt>
      <trkpt lat="45.00488" lon="5.81702">
        <ele>1736.1999511719</ele>
        <time>2023-10-01T10:27:30.000Z</time>
      </trkpt>
      <trkpt lat="45.0049" lon="5.81702">
        <ele>1736</ele>
        <time>2023-10-01T10:27:31.000Z</time>
      </trkpt>
      <trkpt lat="45.00491" lon="5.81702">
        <ele>1736</ele>
        <time>2023-10-01T10:27:32.000Z</time>
      </trkpt>
      <trkpt lat="45.00492" lon="5.81701">
        <ele>1735.8000488281</ele>
        <time>2023-10-01T10:27:33.000Z</time>
      </trkpt>
      <trkpt lat="45.00494" lon="5.81701">
        <ele>1735.5999755859</ele>
        <time>2023-10-01T10:27:34.000Z</time>
      </trkpt>
      <trkpt lat="45.00496" lon="5.81701">
        <ele>1735.4000244141</ele>
        <time>2023-10-01T10:27:35.000Z</time>
      </trkpt>
      <trkpt lat="45.00497" lon="5.81701">
        <ele>1735</ele>
        <time>2023-10-01T10:27:36.000Z</time>
      </trkpt>
      <trkpt lat="45.00498" lon="5.817">
        <ele>1734.8000488281</ele>
        <time>2023-10-01T10:27:37.000Z</time>
      </trkpt>
      <trkpt lat="45.005" lon="5.817">
        <ele>1734.5999755859</ele>
        <time>2023-10-01T10:27:38.000Z</time>
      </trkpt>
      <trkpt lat="45.00502" lon="5.817">
        <ele>1734.1999511719</ele>
        <time>2023-10-01T10:27:39.000Z</time>
      </trkpt>
      <trkpt lat="45.00503" lon="5.817">
        <ele>1734</ele>
        <time>2023-10-01T10:27:40.000Z</time>
      </trkpt>
      <trkpt lat="45.00505" lon="5.817">
        <ele>1733.8000488281</ele>
        <time>2023-10-01T10:27:41.000Z</time>
      </trkpt>
      <trkpt lat="45.00507" lon="5.817">
        <ele>1733.1999511719</ele>
        <time>2023-10-01T10:27:42.000Z</time>
      </trkpt>
      <trkpt lat="45.00509" lon="5.817">
        <ele>1733</ele>
        <time>2023-10-01T10:27:43.000Z</time>
      </trkpt>
      <trkpt lat="45.0051" lon="5.817">
        <ele>1732.5999755859</ele>
        <time>2023-10-01T10:27:44.000Z</time>
      </trkpt>
      <trkpt lat="45.00512" lon="5.817">
        <ele>1732.1999511719</ele>
        <time>2023-10-01T10:27:45.000Z</time>
      </trkpt>
      <trkpt lat="45.00513" lon="5.817">
        <ele>1731.8000488281</ele>
        <time>2023-10-01T10:27:46.000Z</time>
      </trkpt>
      <trkpt lat="45.00514" lon="5.817">
        <ele>1731.5999755859</ele>
        <time>2023-10-01T10:27:47.000Z</time>
      </trkpt>
      <trkpt lat="45.00515" lon="5.817">
        <ele>1731.4000244141</ele>
        <time>2023-10-01T10:27:48.000Z</time>
      </trkpt>
      <trkpt lat="45.00517" lon="5.817">
        <ele>1731</ele>
        <time>2023-10-01T10:27:49.000Z</time>
      </trkpt>
      <trkpt lat="45.00518" lon="5.817">
        <ele>1730.8000488281</ele>
        <time>2023-10-01T10:27:50.000Z</time>
      </trkpt>
      <trkpt lat="45.00519" lon="5.817">
        <ele>1730.5999755859</ele>
        <time>2023-10-01T10:27:51.000Z</time>
      </trkpt>
      <trkpt lat="45.0052" lon="5.817">
        <ele>1730.4000244141</ele>
        <time>2023-10-01T10:27:52.000Z</time>
      </trkpt>
      <trkpt lat="45.00521" lon="5.817">
        <ele>1730.1999511719</ele>
        <time>2023-10-01T10:27:53.000Z</time>
      </trkpt>
      <trkpt lat="45.00523" lon="5.817">
        <ele>1730</ele>
        <time>2023-10-01T10:27:54.000Z</time>
      </trkpt>
      <trkpt lat="45.00524" lon="5.817">
        <ele>1729.8000488281</ele>
        <time>2023-10-01T10:27:55.000Z</time>
      </trkpt>
      <trkpt lat="45.00525" lon="5.817">
        <ele>1729.4000244141</ele>
        <time>2023-10-01T10:27:56.000Z</time>
      </trkpt>
      <trkpt lat="45.00526" lon="5.81699">
        <ele>1729</ele>
        <time>2023-10-01T10:27:57.000Z</time>
      </trkpt>
      <trkpt lat="45.00528" lon="5.81699">
        <ele>1728.5999755859</ele>
        <time>2023-10-01T10:27:58.000Z</time>
      </trkpt>
      <trkpt lat="45.00529" lon="5.817">
        <ele>1728.5999755859</ele>
        <time>2023-10-01T10:27:59.000Z</time>
      </trkpt>
      <trkpt lat="45.00531" lon="5.817">
        <ele>1728.4000244141</ele>
        <time>2023-10-01T10:28:00.000Z</time>
      </trkpt>
      <trkpt lat="45.00533" lon="5.817">
        <ele>1728.1999511719</ele>
        <time>2023-10-01T10:28:01.000Z</time>
      </trkpt>
      <trkpt lat="45.00534" lon="5.817">
        <ele>1728</ele>
        <time>2023-10-01T10:28:02.000Z</time>
      </trkpt>
      <trkpt lat="45.00536" lon="5.817">
        <ele>1727.5999755859</ele>
        <time>2023-10-01T10:28:03.000Z</time>
      </trkpt>
      <trkpt lat="45.00538" lon="5.81701">
        <ele>1727.5999755859</ele>
        <time>2023-10-01T10:28:04.000Z</time>
      </trkpt>
      <trkpt lat="45.00539" lon="5.81701">
        <ele>1727.1999511719</ele>
        <time>2023-10-01T10:28:05.000Z</time>
      </trkpt>
      <trkpt lat="45.0054" lon="5.81701">
        <ele>1727.1999511719</ele>
        <time>2023-10-01T10:28:06.000Z</time>
      </trkpt>
      <trkpt lat="45.00542" lon="5.81701">
        <ele>1727</ele>
        <time>2023-10-01T10:28:07.000Z</time>
      </trkpt>
      <trkpt lat="45.00543" lon="5.81701">
        <ele>1726.8000488281</ele>
        <time>2023-10-01T10:28:08.000Z</time>
      </trkpt>
      <trkpt lat="45.00544" lon="5.817">
        <ele>1726.5999755859</ele>
        <time>2023-10-01T10:28:09.000Z</time>
      </trkpt>
      <trkpt lat="45.00546" lon="5.817">
        <ele>1726.4000244141</ele>
        <time>2023-10-01T10:28:10.000Z</time>
      </trkpt>
      <trkpt lat="45.00547" lon="5.817">
        <ele>1726</ele>
        <time>2023-10-01T10:28:11.000Z</time>
      </trkpt>
      <trkpt lat="45.00549" lon="5.817">
        <ele>1725.8000488281</ele>
        <time>2023-10-01T10:28:12.000Z</time>
      </trkpt>
      <trkpt lat="45.0055" lon="5.817">
        <ele>1725.5999755859</ele>
        <time>2023-10-01T10:28:13.000Z</time>
      </trkpt>
      <trkpt lat="45.00552" lon="5.81701">
        <ele>1725.1999511719</ele>
        <time>2023-10-01T10:28:14.000Z</time>
      </trkpt>
      <trkpt lat="45.00553" lon="5.81701">
        <ele>1725</ele>
        <time>2023-10-01T10:28:15.000Z</time>
      </trkpt>
      <trkpt lat="45.00554" lon="5.81701">
        <ele>1724.8000488281</ele>
        <time>2023-10-01T10:28:16.000Z</time>
      </trkpt>
      <trkpt lat="45.00556" lon="5.81701">
        <ele>1724.4000244141</ele>
        <time>2023-10-01T10:28:17.000Z</time>
      </trkpt>
      <trkpt lat="45.00557" lon="5.81701">
        <ele>1724</ele>
        <time>2023-10-01T10:28:18.000Z</time>
      </trkpt>
      <trkpt lat="45.00558" lon="5.81701">
        <ele>1723.5999755859</ele>
        <time>2023-10-01T10:28:19.000Z</time>
      </trkpt>
      <trkpt lat="45.0056" lon="5.81701">
        <ele>1723.4000244141</ele>
        <time>2023-10-01T10:28:20.000Z</time>
      </trkpt>
      <trkpt lat="45.00561" lon="5.81701">
        <ele>1723.1999511719</ele>
        <time>2023-10-01T10:28:21.000Z</time>
      </trkpt>
      <trkpt lat="45.00562" lon="5.81701">
        <ele>1723</ele>
        <time>2023-10-01T10:28:22.000Z</time>
      </trkpt>
      <trkpt lat="45.00564" lon="5.81702">
        <ele>1722.5999755859</ele>
        <time>2023-10-01T10:28:23.000Z</time>
      </trkpt>
      <trkpt lat="45.00565" lon="5.81701">
        <ele>1722.4000244141</ele>
        <time>2023-10-01T10:28:24.000Z</time>
      </trkpt>
      <trkpt lat="45.00566" lon="5.81701">
        <ele>1722.1999511719</ele>
        <time>2023-10-01T10:28:25.000Z</time>
      </trkpt>
      <trkpt lat="45.00567" lon="5.81701">
        <ele>1722</ele>
        <time>2023-10-01T10:28:26.000Z</time>
      </trkpt>
      <trkpt lat="45.00569" lon="5.81701">
        <ele>1721.8000488281</ele>
        <time>2023-10-01T10:28:27.000Z</time>
      </trkpt>
      <trkpt lat="45.00571" lon="5.81701">
        <ele>1721.4000244141</ele>
        <time>2023-10-01T10:28:28.000Z</time>
      </trkpt>
      <trkpt lat="45.00572" lon="5.81701">
        <ele>1721</ele>
        <time>2023-10-01T10:28:29.000Z</time>
      </trkpt>
      <trkpt lat="45.00574" lon="5.81701">
        <ele>1720.8000488281</ele>
        <time>2023-10-01T10:28:30.000Z</time>
      </trkpt>
      <trkpt lat="45.00575" lon="5.81701">
        <ele>1720.5999755859</ele>
        <time>2023-10-01T10:28:31.000Z</time>
      </trkpt>
      <trkpt lat="45.00576" lon="5.81701">
        <ele>1720.4000244141</ele>
        <time>2023-10-01T10:28:32.000Z</time>
      </trkpt>
      <trkpt lat="45.00577" lon="5.81701">
        <ele>1720</ele>
        <time>2023-10-01T10:28:33.000Z</time>
      </trkpt>
      <trkpt lat="45.00578" lon="5.81701">
        <ele>1719.5999755859</ele>
        <time>2023-10-01T10:28:34.000Z</time>
      </trkpt>
      <trkpt lat="45.00579" lon="5.81701">
        <ele>1719.4000244141</ele>
        <time>2023-10-01T10:28:35.000Z</time>
      </trkpt>
      <trkpt lat="45.00581" lon="5.81701">
        <ele>1719</ele>
        <time>2023-10-01T10:28:36.000Z</time>
      </trkpt>
      <trkpt lat="45.00583" lon="5.81701">
        <ele>1718.8000488281</ele>
        <time>2023-10-01T10:28:37.000Z</time>
      </trkpt>
      <trkpt lat="45.00584" lon="5.81701">
        <ele>1718.4000244141</ele>
        <time>2023-10-01T10:28:38.000Z</time>
      </trkpt>
      <trkpt lat="45.00585" lon="5.81701">
        <ele>1718.1999511719</ele>
        <time>2023-10-01T10:28:39.000Z</time>
      </trkpt>
      <trkpt lat="45.00587" lon="5.81701">
        <ele>1718</ele>
        <time>2023-10-01T10:28:40.000Z</time>
      </trkpt>
      <trkpt lat="45.00588" lon="5.81702">
        <ele>1717.5999755859</ele>
        <time>2023-10-01T10:28:41.000Z</time>
      </trkpt>
      <trkpt lat="45.00589" lon="5.81701">
        <ele>1717.4000244141</ele>
        <time>2023-10-01T10:28:42.000Z</time>
      </trkpt>
      <trkpt lat="45.0059" lon="5.81702">
        <ele>1717.1999511719</ele>
        <time>2023-10-01T10:28:43.000Z</time>
      </trkpt>
      <trkpt lat="45.00591" lon="5.81702">
        <ele>1717</ele>
        <time>2023-10-01T10:28:44.000Z</time>
      </trkpt>
      <trkpt lat="45.00592" lon="5.81701">
        <ele>1716.8000488281</ele>
        <time>2023-10-01T10:28:45.000Z</time>
      </trkpt>
      <trkpt lat="45.00594" lon="5.81701">
        <ele>1716.4000244141</ele>
        <time>2023-10-01T10:28:46.000Z</time>
      </trkpt>
      <trkpt lat="45.00595" lon="5.81701">
        <ele>1716.1999511719</ele>
        <time>2023-10-01T10:28:47.000Z</time>
      </trkpt>
      <trkpt lat="45.00595" lon="5.81702">
        <ele>1715.8000488281</ele>
        <time>2023-10-01T10:28:48.000Z</time>
      </trkpt>
      <trkpt lat="45.00597" lon="5.81702">
        <ele>1715.5999755859</ele>
        <time>2023-10-01T10:28:49.000Z</time>
      </trkpt>
      <trkpt lat="45.00598" lon="5.81702">
        <ele>1715.4000244141</ele>
        <time>2023-10-01T10:28:50.000Z</time>
      </trkpt>
      <trkpt lat="45.00599" lon="5.81702">
        <ele>1715</ele>
        <time>2023-10-01T10:28:51.000Z</time>
      </trkpt>
      <trkpt lat="45.00601" lon="5.81701">
        <ele>1714.8000488281</ele>
        <time>2023-10-01T10:28:52.000Z</time>
      </trkpt>
      <trkpt lat="45.00602" lon="5.81701">
        <ele>1714.5999755859</ele>
        <time>2023-10-01T10:28:53.000Z</time>
      </trkpt>
      <trkpt lat="45.00603" lon="5.81701">
        <ele>1714.4000244141</ele>
        <time>2023-10-01T10:28:54.000Z</time>
      </trkpt>
      <trkpt lat="45.00604" lon="5.81701">
        <ele>1714.1999511719</ele>
        <time>2023-10-01T10:28:55.000Z</time>
      </trkpt>
      <trkpt lat="45.00606" lon="5.81701">
        <ele>1713.8000488281</ele>
        <time>2023-10-01T10:28:56.000Z</time>
      </trkpt>
      <trkpt lat="45.00607" lon="5.81702">
        <ele>1713.4000244141</ele>
        <time>2023-10-01T10:28:57.000Z</time>
      </trkpt>
      <trkpt lat="45.00609" lon="5.81702">
        <ele>1713.1999511719</ele>
        <time>2023-10-01T10:28:58.000Z</time>
      </trkpt>
      <trkpt lat="45.0061" lon="5.81702">
        <ele>1713</ele>
        <time>2023-10-01T10:28:59.000Z</time>
      </trkpt>
      <trkpt lat="45.00611" lon="5.81702">
        <ele>1712.5999755859</ele>
        <time>2023-10-01T10:29:00.000Z</time>
      </trkpt>
      <trkpt lat="45.00613" lon="5.81702">
        <ele>1712.1999511719</ele>
        <time>2023-10-01T10:29:01.000Z</time>
      </trkpt>
      <trkpt lat="45.00614" lon="5.81703">
        <ele>1712</ele>
        <time>2023-10-01T10:29:02.000Z</time>
      </trkpt>
      <trkpt lat="45.00616" lon="5.81703">
        <ele>1711.5999755859</ele>
        <time>2023-10-01T10:29:03.000Z</time>
      </trkpt>
      <trkpt lat="45.00617" lon="5.81703">
        <ele>1711.4000244141</ele>
        <time>2023-10-01T10:29:04.000Z</time>
      </trkpt>
      <trkpt lat="45.00618" lon="5.81704">
        <ele>1711</ele>
        <time>2023-10-01T10:29:05.000Z</time>
      </trkpt>
      <trkpt lat="45.0062" lon="5.81704">
        <ele>1710.8000488281</ele>
        <time>2023-10-01T10:29:06.000Z</time>
      </trkpt>
      <trkpt lat="45.00622" lon="5.81703">
        <ele>1710.5999755859</ele>
        <time>2023-10-01T10:29:07.000Z</time>
      </trkpt>
      <trkpt lat="45.00624" lon="5.81703">
        <ele>1710.4000244141</ele>
        <time>2023-10-01T10:29:08.000Z</time>
      </trkpt>
      <trkpt lat="45.00626" lon="5.81703">
        <ele>1710.1999511719</ele>
        <time>2023-10-01T10:29:09.000Z</time>
      </trkpt>
      <trkpt lat="45.00627" lon="5.81703">
        <ele>1709.8000488281</ele>
        <time>2023-10-01T10:29:10.000Z</time>
      </trkpt>
      <trkpt lat="45.00629" lon="5.81703">
        <ele>1709.5999755859</ele>
        <time>2023-10-01T10:29:11.000Z</time>
      </trkpt>
      <trkpt lat="45.0063" lon="5.81703">
        <ele>1709.4000244141</ele>
        <time>2023-10-01T10:29:12.000Z</time>
      </trkpt>
      <trkpt lat="45.00632" lon="5.81703">
        <ele>1709</ele>
        <time>2023-10-01T10:29:13.000Z</time>
      </trkpt>
      <trkpt lat="45.00633" lon="5.81702">
        <ele>1708.5999755859</ele>
        <time>2023-10-01T10:29:14.000Z</time>
      </trkpt>
      <trkpt lat="45.00634" lon="5.81702">
        <ele>1708.4000244141</ele>
        <time>2023-10-01T10:29:15.000Z</time>
      </trkpt>
      <trkpt lat="45.00636" lon="5.81702">
        <ele>1708</ele>
        <time>2023-10-01T10:29:16.000Z</time>
      </trkpt>
      <trkpt lat="45.00637" lon="5.81701">
        <ele>1707.5999755859</ele>
        <time>2023-10-01T10:29:17.000Z</time>
      </trkpt>
      <trkpt lat="45.00639" lon="5.81701">
        <ele>1707.4000244141</ele>
        <time>2023-10-01T10:29:18.000Z</time>
      </trkpt>
      <trkpt lat="45.00639" lon="5.81701">
        <ele>1707</ele>
        <time>2023-10-01T10:29:19.000Z</time>
      </trkpt>
      <trkpt lat="45.00641" lon="5.81701">
        <ele>1706.8000488281</ele>
        <time>2023-10-01T10:29:20.000Z</time>
      </trkpt>
      <trkpt lat="45.00642" lon="5.81701">
        <ele>1706.5999755859</ele>
        <time>2023-10-01T10:29:21.000Z</time>
      </trkpt>
      <trkpt lat="45.00643" lon="5.81701">
        <ele>1706.1999511719</ele>
        <time>2023-10-01T10:29:22.000Z</time>
      </trkpt>
      <trkpt lat="45.00645" lon="5.81701">
        <ele>1706</ele>
        <time>2023-10-01T10:29:23.000Z</time>
      </trkpt>
      <trkpt lat="45.00646" lon="5.817">
        <ele>1705.8000488281</ele>
        <time>2023-10-01T10:29:24.000Z</time>
      </trkpt>
      <trkpt lat="45.00648" lon="5.817">
        <ele>1705.5999755859</ele>
        <time>2023-10-01T10:29:25.000Z</time>
      </trkpt>
      <trkpt lat="45.00649" lon="5.817">
        <ele>1705.4000244141</ele>
        <time>2023-10-01T10:29:26.000Z</time>
      </trkpt>
      <trkpt lat="45.00651" lon="5.81699">
        <ele>1705.1999511719</ele>
        <time>2023-10-01T10:29:27.000Z</time>
      </trkpt>
      <trkpt lat="45.00653" lon="5.817">
        <ele>1705</ele>
        <time>2023-10-01T10:29:28.000Z</time>
      </trkpt>
      <trkpt lat="45.00655" lon="5.81699">
        <ele>1704.5999755859</ele>
        <time>2023-10-01T10:29:29.000Z</time>
      </trkpt>
      <trkpt lat="45.00656" lon="5.81699">
        <ele>1704.1999511719</ele>
        <time>2023-10-01T10:29:30.000Z</time>
      </trkpt>
      <trkpt lat="45.00657" lon="5.81699">
        <ele>1704</ele>
        <time>2023-10-01T10:29:31.000Z</time>
      </trkpt>
      <trkpt lat="45.00659" lon="5.81699">
        <ele>1703.5999755859</ele>
        <time>2023-10-01T10:29:32.000Z</time>
      </trkpt>
      <trkpt lat="45.0066" lon="5.81699">
        <ele>1703.4000244141</ele>
        <time>2023-10-01T10:29:33.000Z</time>
      </trkpt>
      <trkpt lat="45.00662" lon="5.81699">
        <ele>1703</ele>
        <time>2023-10-01T10:29:34.000Z</time>
      </trkpt>
      <trkpt lat="45.00663" lon="5.81699">
        <ele>1702.5999755859</ele>
        <time>2023-10-01T10:29:35.000Z</time>
      </trkpt>
      <trkpt lat="45.00664" lon="5.817">
        <ele>1702.4000244141</ele>
        <time>2023-10-01T10:29:36.000Z</time>
      </trkpt>
      <trkpt lat="45.00665" lon="5.817">
        <ele>1702.1999511719</ele>
        <time>2023-10-01T10:29:37.000Z</time>
      </trkpt>
      <trkpt lat="45.00667" lon="5.817">
        <ele>1702</ele>
        <time>2023-10-01T10:29:38.000Z</time>
      </trkpt>
      <trkpt lat="45.00668" lon="5.817">
        <ele>1701.8000488281</ele>
        <time>2023-10-01T10:29:39.000Z</time>
      </trkpt>
      <trkpt lat="45.0067" lon="5.81699">
        <ele>1701.5999755859</ele>
        <time>2023-10-01T10:29:40.000Z</time>
      </trkpt>
      <trkpt lat="45.00671" lon="5.81699">
        <ele>1701.1999511719</ele>
        <time>2023-10-01T10:29:41.000Z</time>
      </trkpt>
      <trkpt lat="45.00672" lon="5.81699">
        <ele>1701</ele>
        <time>2023-10-01T10:29:42.000Z</time>
      </trkpt>
      <trkpt lat="45.00673" lon="5.817">
        <ele>1700.8000488281</ele>
        <time>2023-10-01T10:29:43.000Z</time>
      </trkpt>
      <trkpt lat="45.00675" lon="5.817">
        <ele>1700.5999755859</ele>
        <time>2023-10-01T10:29:44.000Z</time>
      </trkpt>
      <trkpt lat="45.00676" lon="5.81701">
        <ele>1700.1999511719</ele>
        <time>2023-10-01T10:29:45.000Z</time>
      </trkpt>
      <trkpt lat="45.00678" lon="5.81701">
        <ele>1700</ele>
        <time>2023-10-01T10:29:46.000Z</time>
      </trkpt>
      <trkpt lat="45.00679" lon="5.81702">
        <ele>1699.8000488281</ele>
        <time>2023-10-01T10:29:47.000Z</time>
      </trkpt>
      <trkpt lat="45.0068" lon="5.81702">
        <ele>1699.5999755859</ele>
        <time>2023-10-01T10:29:48.000Z</time>
      </trkpt>
      <trkpt lat="45.0068" lon="5.81701">
        <ele>1699.5999755859</ele>
        <time>2023-10-01T10:29:49.000Z</time>
      </trkpt>
      <trkpt lat="45.00682" lon="5.81701">
        <ele>1699.1999511719</ele>
        <time>2023-10-01T10:29:50.000Z</time>
      </trkpt>
      <trkpt lat="45.00683" lon="5.817">
        <ele>1699.1999511719</ele>
        <time>2023-10-01T10:29:51.000Z</time>
      </trkpt>
      <trkpt lat="45.00684" lon="5.81699">
        <ele>1698.8000488281</ele>
        <time>2023-10-01T10:29:52.000Z</time>
      </trkpt>
      <trkpt lat="45.00685" lon="5.81698">
        <ele>1698.4000244141</ele>
        <time>2023-10-01T10:29:53.000Z</time>
      </trkpt>
      <trkpt lat="45.00685" lon="5.81697">
        <ele>1698.1999511719</ele>
        <time>2023-10-01T10:29:54.000Z</time>
      </trkpt>
      <trkpt lat="45.00685" lon="5.81696">
        <ele>1698</ele>
        <time>2023-10-01T10:29:55.000Z</time>
      </trkpt>
      <trkpt lat="45.00684" lon="5.81695">
        <ele>1697.8000488281</ele>
        <time>2023-10-01T10:29:56.000Z</time>
      </trkpt>
      <trkpt lat="45.00684" lon="5.81694">
        <ele>1697.4000244141</ele>
        <time>2023-10-01T10:29:57.000Z</time>
      </trkpt>
      <trkpt lat="45.00682" lon="5.81693">
        <ele>1697.1999511719</ele>
        <time>2023-10-01T10:29:58.000Z</time>
      </trkpt>
      <trkpt lat="45.00681" lon="5.81693">
        <ele>1697.1999511719</ele>
        <time>2023-10-01T10:29:59.000Z</time>
      </trkpt>
      <trkpt lat="45.0068" lon="5.81692">
        <ele>1697.1999511719</ele>
        <time>2023-10-01T10:30:00.000Z</time>
      </trkpt>
      <trkpt lat="45.00679" lon="5.81692">
        <ele>1697.1999511719</ele>
        <time>2023-10-01T10:30:01.000Z</time>
      </trkpt>
      <trkpt lat="45.00677" lon="5.81691">
        <ele>1697.1999511719</ele>
        <time>2023-10-01T10:30:02.000Z</time>
      </trkpt>
      <trkpt lat="45.00676" lon="5.8169">
        <ele>1696.5999755859</ele>
        <time>2023-10-01T10:30:03.000Z</time>
      </trkpt>
      <trkpt lat="45.00675" lon="5.81689">
        <ele>1696.1999511719</ele>
        <time>2023-10-01T10:30:04.000Z</time>
      </trkpt>
      <trkpt lat="45.00674" lon="5.81688">
        <ele>1695.5999755859</ele>
        <time>2023-10-01T10:30:05.000Z</time>
      </trkpt>
      <trkpt lat="45.00673" lon="5.81687">
        <ele>1695.5999755859</ele>
        <time>2023-10-01T10:30:06.000Z</time>
      </trkpt>
      <trkpt lat="45.00672" lon="5.81686">
        <ele>1695.1999511719</ele>
        <time>2023-10-01T10:30:07.000Z</time>
      </trkpt>
      <trkpt lat="45.00671" lon="5.81685">
        <ele>1694.8000488281</ele>
        <time>2023-10-01T10:30:08.000Z</time>
      </trkpt>
      <trkpt lat="45.0067" lon="5.81685">
        <ele>1694.8000488281</ele>
        <time>2023-10-01T10:30:09.000Z</time>
      </trkpt>
      <trkpt lat="45.00669" lon="5.81685">
        <ele>1694.4000244141</ele>
        <time>2023-10-01T10:30:10.000Z</time>
      </trkpt>
      <trkpt lat="45.00669" lon="5.81684">
        <ele>1694</ele>
        <time>2023-10-01T10:30:11.000Z</time>
      </trkpt>
      <trkpt lat="45.00668" lon="5.81684">
        <ele>1694</ele>
        <time>2023-10-01T10:30:12.000Z</time>
      </trkpt>
      <trkpt lat="45.00667" lon="5.81683">
        <ele>1693.5999755859</ele>
        <time>2023-10-01T10:30:13.000Z</time>
      </trkpt>
      <trkpt lat="45.00665" lon="5.81682">
        <ele>1693.4000244141</ele>
        <time>2023-10-01T10:30:14.000Z</time>
      </trkpt>
      <trkpt lat="45.00664" lon="5.81681">
        <ele>1693.1999511719</ele>
        <time>2023-10-01T10:30:15.000Z</time>
      </trkpt>
      <trkpt lat="45.00663" lon="5.8168">
        <ele>1692.8000488281</ele>
        <time>2023-10-01T10:30:16.000Z</time>
      </trkpt>
      <trkpt lat="45.00662" lon="5.8168">
        <ele>1692.5999755859</ele>
        <time>2023-10-01T10:30:17.000Z</time>
      </trkpt>
      <trkpt lat="45.00661" lon="5.81679">
        <ele>1692.1999511719</ele>
        <time>2023-10-01T10:30:18.000Z</time>
      </trkpt>
      <trkpt lat="45.00659" lon="5.81678">
        <ele>1691.8000488281</ele>
        <time>2023-10-01T10:30:19.000Z</time>
      </trkpt>
      <trkpt lat="45.00658" lon="5.81677">
        <ele>1691.5999755859</ele>
        <time>2023-10-01T10:30:20.000Z</time>
      </trkpt>
      <trkpt lat="45.00657" lon="5.81675">
        <ele>1691.1999511719</ele>
        <time>2023-10-01T10:30:21.000Z</time>
      </trkpt>
      <trkpt lat="45.00656" lon="5.81674">
        <ele>1691</ele>
        <time>2023-10-01T10:30:22.000Z</time>
      </trkpt>
      <trkpt lat="45.00655" lon="5.81673">
        <ele>1690.5999755859</ele>
        <time>2023-10-01T10:30:23.000Z</time>
      </trkpt>
      <trkpt lat="45.00654" lon="5.81671">
        <ele>1690.4000244141</ele>
        <time>2023-10-01T10:30:24.000Z</time>
      </trkpt>
      <trkpt lat="45.00653" lon="5.8167">
        <ele>1690</ele>
        <time>2023-10-01T10:30:25.000Z</time>
      </trkpt>
      <trkpt lat="45.00652" lon="5.81669">
        <ele>1689.8000488281</ele>
        <time>2023-10-01T10:30:26.000Z</time>
      </trkpt>
      <trkpt lat="45.00651" lon="5.81668">
        <ele>1689.5999755859</ele>
        <time>2023-10-01T10:30:27.000Z</time>
      </trkpt>
      <trkpt lat="45.00649" lon="5.81667">
        <ele>1689.1999511719</ele>
        <time>2023-10-01T10:30:28.000Z</time>
      </trkpt>
      <trkpt lat="45.00648" lon="5.81666">
        <ele>1688.5999755859</ele>
        <time>2023-10-01T10:30:29.000Z</time>
      </trkpt>
      <trkpt lat="45.00647" lon="5.81665">
        <ele>1688.4000244141</ele>
        <time>2023-10-01T10:30:30.000Z</time>
      </trkpt>
      <trkpt lat="45.00646" lon="5.81664">
        <ele>1688</ele>
        <time>2023-10-01T10:30:31.000Z</time>
      </trkpt>
      <trkpt lat="45.00644" lon="5.81663">
        <ele>1687.8000488281</ele>
        <time>2023-10-01T10:30:32.000Z</time>
      </trkpt>
      <trkpt lat="45.00643" lon="5.81662">
        <ele>1687.8000488281</ele>
        <time>2023-10-01T10:30:33.000Z</time>
      </trkpt>
      <trkpt lat="45.00642" lon="5.81661">
        <ele>1687.4000244141</ele>
        <time>2023-10-01T10:30:34.000Z</time>
      </trkpt>
      <trkpt lat="45.0064" lon="5.8166">
        <ele>1687.1999511719</ele>
        <time>2023-10-01T10:30:35.000Z</time>
      </trkpt>
      <trkpt lat="45.00639" lon="5.81659">
        <ele>1686.5999755859</ele>
        <time>2023-10-01T10:30:36.000Z</time>
      </trkpt>
      <trkpt lat="45.00637" lon="5.81658">
        <ele>1686.5999755859</ele>
        <time>2023-10-01T10:30:37.000Z</time>
      </trkpt>
      <trkpt lat="45.00635" lon="5.81657">
        <ele>1686.4000244141</ele>
        <time>2023-10-01T10:30:38.000Z</time>
      </trkpt>
      <trkpt lat="45.00634" lon="5.81656">
        <ele>1686.1999511719</ele>
        <time>2023-10-01T10:30:39.000Z</time>
      </trkpt>
      <trkpt lat="45.00632" lon="5.81655">
        <ele>1686</ele>
        <time>2023-10-01T10:30:40.000Z</time>
      </trkpt>
      <trkpt lat="45.0063" lon="5.81654">
        <ele>1685.8000488281</ele>
        <time>2023-10-01T10:30:41.000Z</time>
      </trkpt>
      <trkpt lat="45.00628" lon="5.81653">
        <ele>1685.5999755859</ele>
        <time>2023-10-01T10:30:42.000Z</time>
      </trkpt>
      <trkpt lat="45.00626" lon="5.81652">
        <ele>1685.4000244141</ele>
        <time>2023-10-01T10:30:43.000Z</time>
      </trkpt>
      <trkpt lat="45.00624" lon="5.81651">
        <ele>1685.4000244141</ele>
        <time>2023-10-01T10:30:44.000Z</time>
      </trkpt>
      <trkpt lat="45.00622" lon="5.8165">
        <ele>1685</ele>
        <time>2023-10-01T10:30:45.000Z</time>
      </trkpt>
      <trkpt lat="45.00621" lon="5.8165">
        <ele>1684.8000488281</ele>
        <time>2023-10-01T10:30:46.000Z</time>
      </trkpt>
      <trkpt lat="45.00618" lon="5.81648">
        <ele>1684.4000244141</ele>
        <time>2023-10-01T10:30:47.000Z</time>
      </trkpt>
      <trkpt lat="45.00617" lon="5.81648">
        <ele>1684</ele>
        <time>2023-10-01T10:30:48.000Z</time>
      </trkpt>
      <trkpt lat="45.00615" lon="5.81647">
        <ele>1683.8000488281</ele>
        <time>2023-10-01T10:30:49.000Z</time>
      </trkpt>
      <trkpt lat="45.00614" lon="5.81646">
        <ele>1683.4000244141</ele>
        <time>2023-10-01T10:30:50.000Z</time>
      </trkpt>
      <trkpt lat="45.00612" lon="5.81646">
        <ele>1683.1999511719</ele>
        <time>2023-10-01T10:30:51.000Z</time>
      </trkpt>
      <trkpt lat="45.0061" lon="5.81645">
        <ele>1683.1999511719</ele>
        <time>2023-10-01T10:30:52.000Z</time>
      </trkpt>
      <trkpt lat="45.00608" lon="5.81643">
        <ele>1683.1999511719</ele>
        <time>2023-10-01T10:30:53.000Z</time>
      </trkpt>
      <trkpt lat="45.00607" lon="5.81642">
        <ele>1683.1999511719</ele>
        <time>2023-10-01T10:30:54.000Z</time>
      </trkpt>
      <trkpt lat="45.00606" lon="5.81641">
        <ele>1683.1999511719</ele>
        <time>2023-10-01T10:30:55.000Z</time>
      </trkpt>
      <trkpt lat="45.00605" lon="5.8164">
        <ele>1683.1999511719</ele>
        <time>2023-10-01T10:30:56.000Z</time>
      </trkpt>
      <trkpt lat="45.00604" lon="5.81639">
        <ele>1683</ele>
        <time>2023-10-01T10:30:57.000Z</time>
      </trkpt>
      <trkpt lat="45.00603" lon="5.81639">
        <ele>1682.8000488281</ele>
        <time>2023-10-01T10:30:58.000Z</time>
      </trkpt>
      <trkpt lat="45.00602" lon="5.81638">
        <ele>1682.4000244141</ele>
        <time>2023-10-01T10:30:59.000Z</time>
      </trkpt>
      <trkpt lat="45.00601" lon="5.81637">
        <ele>1682.4000244141</ele>
        <time>2023-10-01T10:31:00.000Z</time>
      </trkpt>
      <trkpt lat="45.006" lon="5.81635">
        <ele>1682</ele>
        <time>2023-10-01T10:31:01.000Z</time>
      </trkpt>
      <trkpt lat="45.006" lon="5.81634">
        <ele>1681.5999755859</ele>
        <time>2023-10-01T10:31:02.000Z</time>
      </trkpt>
      <trkpt lat="45.00599" lon="5.81634">
        <ele>1681.4000244141</ele>
        <time>2023-10-01T10:31:03.000Z</time>
      </trkpt>
      <trkpt lat="45.00598" lon="5.81633">
        <ele>1680.8000488281</ele>
        <time>2023-10-01T10:31:04.000Z</time>
      </trkpt>
      <trkpt lat="45.00596" lon="5.81631">
        <ele>1680.4000244141</ele>
        <time>2023-10-01T10:31:05.000Z</time>
      </trkpt>
      <trkpt lat="45.00595" lon="5.8163">
        <ele>1680.4000244141</ele>
        <time>2023-10-01T10:31:06.000Z</time>
      </trkpt>
      <trkpt lat="45.00594" lon="5.81629">
        <ele>1680.1999511719</ele>
        <time>2023-10-01T10:31:07.000Z</time>
      </trkpt>
      <trkpt lat="45.00593" lon="5.81628">
        <ele>1680.1999511719</ele>
        <time>2023-10-01T10:31:08.000Z</time>
      </trkpt>
      <trkpt lat="45.00592" lon="5.81628">
        <ele>1680</ele>
        <time>2023-10-01T10:31:09.000Z</time>
      </trkpt>
      <trkpt lat="45.0059" lon="5.81627">
        <ele>1679.4000244141</ele>
        <time>2023-10-01T10:31:10.000Z</time>
      </trkpt>
      <trkpt lat="45.00589" lon="5.81626">
        <ele>1679</ele>
        <time>2023-10-01T10:31:11.000Z</time>
      </trkpt>
      <trkpt lat="45.00588" lon="5.81625">
        <ele>1678.8000488281</ele>
        <time>2023-10-01T10:31:12.000Z</time>
      </trkpt>
      <trkpt lat="45.00587" lon="5.81624">
        <ele>1678.4000244141</ele>
        <time>2023-10-01T10:31:13.000Z</time>
      </trkpt>
      <trkpt lat="45.00586" lon="5.81624">
        <ele>1678</ele>
        <time>2023-10-01T10:31:14.000Z</time>
      </trkpt>
      <trkpt lat="45.00585" lon="5.81622">
        <ele>1677.8000488281</ele>
        <time>2023-10-01T10:31:15.000Z</time>
      </trkpt>
      <trkpt lat="45.00584" lon="5.81621">
        <ele>1677.4000244141</ele>
        <time>2023-10-01T10:31:16.000Z</time>
      </trkpt>
      <trkpt lat="45.00583" lon="5.8162">
        <ele>1677.4000244141</ele>
        <time>2023-10-01T10:31:17.000Z</time>
      </trkpt>
      <trkpt lat="45.00582" lon="5.81619">
        <ele>1677</ele>
        <time>2023-10-01T10:31:18.000Z</time>
      </trkpt>
      <trkpt lat="45.00581" lon="5.81618">
        <ele>1676.5999755859</ele>
        <time>2023-10-01T10:31:19.000Z</time>
      </trkpt>
      <trkpt lat="45.0058" lon="5.81617">
        <ele>1676.1999511719</ele>
        <time>2023-10-01T10:31:20.000Z</time>
      </trkpt>
      <trkpt lat="45.00579" lon="5.81616">
        <ele>1676</ele>
        <time>2023-10-01T10:31:21.000Z</time>
      </trkpt>
      <trkpt lat="45.00578" lon="5.81615">
        <ele>1675.5999755859</ele>
        <time>2023-10-01T10:31:22.000Z</time>
      </trkpt>
      <trkpt lat="45.00576" lon="5.81614">
        <ele>1675.4000244141</ele>
        <time>2023-10-01T10:31:23.000Z</time>
      </trkpt>
      <trkpt lat="45.00575" lon="5.81613">
        <ele>1675</ele>
        <time>2023-10-01T10:31:24.000Z</time>
      </trkpt>
      <trkpt lat="45.00574" lon="5.81613">
        <ele>1674.8000488281</ele>
        <time>2023-10-01T10:31:25.000Z</time>
      </trkpt>
      <trkpt lat="45.00572" lon="5.81611">
        <ele>1674.5999755859</ele>
        <time>2023-10-01T10:31:26.000Z</time>
      </trkpt>
      <trkpt lat="45.0057" lon="5.8161">
        <ele>1674.1999511719</ele>
        <time>2023-10-01T10:31:27.000Z</time>
      </trkpt>
      <trkpt lat="45.00569" lon="5.8161">
        <ele>1674</ele>
        <time>2023-10-01T10:31:28.000Z</time>
      </trkpt>
      <trkpt lat="45.00568" lon="5.81609">
        <ele>1673.4000244141</ele>
        <time>2023-10-01T10:31:29.000Z</time>
      </trkpt>
      <trkpt lat="45.00566" lon="5.81609">
        <ele>1673</ele>
        <time>2023-10-01T10:31:30.000Z</time>
      </trkpt>
      <trkpt lat="45.00564" lon="5.81608">
        <ele>1672.8000488281</ele>
        <time>2023-10-01T10:31:31.000Z</time>
      </trkpt>
      <trkpt lat="45.00562" lon="5.81607">
        <ele>1672.8000488281</ele>
        <time>2023-10-01T10:31:32.000Z</time>
      </trkpt>
      <trkpt lat="45.00561" lon="5.81607">
        <ele>1672.5999755859</ele>
        <time>2023-10-01T10:31:33.000Z</time>
      </trkpt>
      <trkpt lat="45.0056" lon="5.81606">
        <ele>1672.4000244141</ele>
        <time>2023-10-01T10:31:34.000Z</time>
      </trkpt>
      <trkpt lat="45.00558" lon="5.81605">
        <ele>1672.1999511719</ele>
        <time>2023-10-01T10:31:35.000Z</time>
      </trkpt>
      <trkpt lat="45.00557" lon="5.81604">
        <ele>1672</ele>
        <time>2023-10-01T10:31:36.000Z</time>
      </trkpt>
      <trkpt lat="45.00555" lon="5.81603">
        <ele>1671.5999755859</ele>
        <time>2023-10-01T10:31:37.000Z</time>
      </trkpt>
      <trkpt lat="45.00554" lon="5.81601">
        <ele>1671.4000244141</ele>
        <time>2023-10-01T10:31:38.000Z</time>
      </trkpt>
      <trkpt lat="45.00553" lon="5.81599">
        <ele>1671.1999511719</ele>
        <time>2023-10-01T10:31:39.000Z</time>
      </trkpt>
      <trkpt lat="45.00552" lon="5.81598">
        <ele>1671</ele>
        <time>2023-10-01T10:31:40.000Z</time>
      </trkpt>
      <trkpt lat="45.0055" lon="5.81596">
        <ele>1670.8000488281</ele>
        <time>2023-10-01T10:31:41.000Z</time>
      </trkpt>
      <trkpt lat="45.00549" lon="5.81595">
        <ele>1670.1999511719</ele>
        <time>2023-10-01T10:31:42.000Z</time>
      </trkpt>
      <trkpt lat="45.00548" lon="5.81594">
        <ele>1669.8000488281</ele>
        <time>2023-10-01T10:31:43.000Z</time>
      </trkpt>
      <trkpt lat="45.00546" lon="5.81593">
        <ele>1669.5999755859</ele>
        <time>2023-10-01T10:31:44.000Z</time>
      </trkpt>
      <trkpt lat="45.00545" lon="5.81593">
        <ele>1669.1999511719</ele>
        <time>2023-10-01T10:31:45.000Z</time>
      </trkpt>
      <trkpt lat="45.00544" lon="5.81591">
        <ele>1669.1999511719</ele>
        <time>2023-10-01T10:31:46.000Z</time>
      </trkpt>
      <trkpt lat="45.00543" lon="5.8159">
        <ele>1668.8000488281</ele>
        <time>2023-10-01T10:31:47.000Z</time>
      </trkpt>
      <trkpt lat="45.00542" lon="5.81589">
        <ele>1668.4000244141</ele>
        <time>2023-10-01T10:31:48.000Z</time>
      </trkpt>
      <trkpt lat="45.00541" lon="5.81588">
        <ele>1668.1999511719</ele>
        <time>2023-10-01T10:31:49.000Z</time>
      </trkpt>
      <trkpt lat="45.00539" lon="5.81587">
        <ele>1668</ele>
        <time>2023-10-01T10:31:50.000Z</time>
      </trkpt>
      <trkpt lat="45.00538" lon="5.81587">
        <ele>1667.4000244141</ele>
        <time>2023-10-01T10:31:51.000Z</time>
      </trkpt>
      <trkpt lat="45.00536" lon="5.81586">
        <ele>1667</ele>
        <time>2023-10-01T10:31:52.000Z</time>
      </trkpt>
      <trkpt lat="45.00535" lon="5.81585">
        <ele>1666.8000488281</ele>
        <time>2023-10-01T10:31:53.000Z</time>
      </trkpt>
      <trkpt lat="45.00534" lon="5.81584">
        <ele>1666.1999511719</ele>
        <time>2023-10-01T10:31:54.000Z</time>
      </trkpt>
      <trkpt lat="45.00533" lon="5.81582">
        <ele>1665.5999755859</ele>
        <time>2023-10-01T10:31:55.000Z</time>
      </trkpt>
      <trkpt lat="45.00531" lon="5.81581">
        <ele>1665.1999511719</ele>
        <time>2023-10-01T10:31:56.000Z</time>
      </trkpt>
      <trkpt lat="45.0053" lon="5.8158">
        <ele>1664.8000488281</ele>
        <time>2023-10-01T10:31:57.000Z</time>
      </trkpt>
      <trkpt lat="45.00529" lon="5.81579">
        <ele>1664.4000244141</ele>
        <time>2023-10-01T10:31:58.000Z</time>
      </trkpt>
      <trkpt lat="45.00528" lon="5.81578">
        <ele>1664.1999511719</ele>
        <time>2023-10-01T10:31:59.000Z</time>
      </trkpt>
      <trkpt lat="45.00526" lon="5.81577">
        <ele>1663.5999755859</ele>
        <time>2023-10-01T10:32:00.000Z</time>
      </trkpt>
      <trkpt lat="45.00525" lon="5.81576">
        <ele>1663</ele>
        <time>2023-10-01T10:32:01.000Z</time>
      </trkpt>
      <trkpt lat="45.00523" lon="5.81575">
        <ele>1662.8000488281</ele>
        <time>2023-10-01T10:32:02.000Z</time>
      </trkpt>
      <trkpt lat="45.00522" lon="5.81574">
        <ele>1662.5999755859</ele>
        <time>2023-10-01T10:32:03.000Z</time>
      </trkpt>
      <trkpt lat="45.00521" lon="5.81573">
        <ele>1662.4000244141</ele>
        <time>2023-10-01T10:32:04.000Z</time>
      </trkpt>
      <trkpt lat="45.00519" lon="5.81572">
        <ele>1662</ele>
        <time>2023-10-01T10:32:05.000Z</time>
      </trkpt>
      <trkpt lat="45.00518" lon="5.8157">
        <ele>1661.5999755859</ele>
        <time>2023-10-01T10:32:06.000Z</time>
      </trkpt>
      <trkpt lat="45.00517" lon="5.81569">
        <ele>1661.1999511719</ele>
        <time>2023-10-01T10:32:07.000Z</time>
      </trkpt>
      <trkpt lat="45.00516" lon="5.81568">
        <ele>1661</ele>
        <time>2023-10-01T10:32:08.000Z</time>
      </trkpt>
      <trkpt lat="45.00514" lon="5.81567">
        <ele>1660.5999755859</ele>
        <time>2023-10-01T10:32:09.000Z</time>
      </trkpt>
      <trkpt lat="45.00513" lon="5.81566">
        <ele>1660.4000244141</ele>
        <time>2023-10-01T10:32:10.000Z</time>
      </trkpt>
      <trkpt lat="45.00511" lon="5.81564">
        <ele>1660</ele>
        <time>2023-10-01T10:32:11.000Z</time>
      </trkpt>
      <trkpt lat="45.0051" lon="5.81563">
        <ele>1659.5999755859</ele>
        <time>2023-10-01T10:32:12.000Z</time>
      </trkpt>
      <trkpt lat="45.00509" lon="5.81562">
        <ele>1659.1999511719</ele>
        <time>2023-10-01T10:32:13.000Z</time>
      </trkpt>
      <trkpt lat="45.00507" lon="5.81561">
        <ele>1658.8000488281</ele>
        <time>2023-10-01T10:32:14.000Z</time>
      </trkpt>
      <trkpt lat="45.00506" lon="5.8156">
        <ele>1658.5999755859</ele>
        <time>2023-10-01T10:32:15.000Z</time>
      </trkpt>
      <trkpt lat="45.00504" lon="5.8156">
        <ele>1658.4000244141</ele>
        <time>2023-10-01T10:32:16.000Z</time>
      </trkpt>
      <trkpt lat="45.00503" lon="5.8156">
        <ele>1658.1999511719</ele>
        <time>2023-10-01T10:32:17.000Z</time>
      </trkpt>
      <trkpt lat="45.00502" lon="5.81559">
        <ele>1657.5999755859</ele>
        <time>2023-10-01T10:32:18.000Z</time>
      </trkpt>
      <trkpt lat="45.00501" lon="5.81557">
        <ele>1657</ele>
        <time>2023-10-01T10:32:19.000Z</time>
      </trkpt>
      <trkpt lat="45.00501" lon="5.81556">
        <ele>1656.5999755859</ele>
        <time>2023-10-01T10:32:20.000Z</time>
      </trkpt>
      <trkpt lat="45.005" lon="5.81556">
        <ele>1656.1999511719</ele>
        <time>2023-10-01T10:32:21.000Z</time>
      </trkpt>
      <trkpt lat="45.00498" lon="5.81554">
        <ele>1655.8000488281</ele>
        <time>2023-10-01T10:32:22.000Z</time>
      </trkpt>
      <trkpt lat="45.00496" lon="5.81553">
        <ele>1655.4000244141</ele>
        <time>2023-10-01T10:32:23.000Z</time>
      </trkpt>
      <trkpt lat="45.00495" lon="5.81552">
        <ele>1655.1999511719</ele>
        <time>2023-10-01T10:32:24.000Z</time>
      </trkpt>
      <trkpt lat="45.00493" lon="5.81551">
        <ele>1655</ele>
        <time>2023-10-01T10:32:25.000Z</time>
      </trkpt>
      <trkpt lat="45.00492" lon="5.8155">
        <ele>1654.5999755859</ele>
        <time>2023-10-01T10:32:26.000Z</time>
      </trkpt>
      <trkpt lat="45.00491" lon="5.81549">
        <ele>1654.4000244141</ele>
        <time>2023-10-01T10:32:27.000Z</time>
      </trkpt>
      <trkpt lat="45.00489" lon="5.81548">
        <ele>1653.5999755859</ele>
        <time>2023-10-01T10:32:28.000Z</time>
      </trkpt>
      <trkpt lat="45.00488" lon="5.81547">
        <ele>1653.4000244141</ele>
        <time>2023-10-01T10:32:29.000Z</time>
      </trkpt>
      <trkpt lat="45.00487" lon="5.81547">
        <ele>1653.1999511719</ele>
        <time>2023-10-01T10:32:30.000Z</time>
      </trkpt>
      <trkpt lat="45.00485" lon="5.81545">
        <ele>1652.5999755859</ele>
        <time>2023-10-01T10:32:31.000Z</time>
      </trkpt>
      <trkpt lat="45.00484" lon="5.81545">
        <ele>1652.4000244141</ele>
        <time>2023-10-01T10:32:32.000Z</time>
      </trkpt>
      <trkpt lat="45.00483" lon="5.81544">
        <ele>1652</ele>
        <time>2023-10-01T10:32:33.000Z</time>
      </trkpt>
      <trkpt lat="45.00481" lon="5.81543">
        <ele>1651.4000244141</ele>
        <time>2023-10-01T10:32:34.000Z</time>
      </trkpt>
      <trkpt lat="45.0048" lon="5.81542">
        <ele>1650.8000488281</ele>
        <time>2023-10-01T10:32:35.000Z</time>
      </trkpt>
      <trkpt lat="45.00478" lon="5.81541">
        <ele>1650.4000244141</ele>
        <time>2023-10-01T10:32:36.000Z</time>
      </trkpt>
      <trkpt lat="45.00476" lon="5.8154">
        <ele>1650.1999511719</ele>
        <time>2023-10-01T10:32:37.000Z</time>
      </trkpt>
      <trkpt lat="45.00475" lon="5.81539">
        <ele>1649.8000488281</ele>
        <time>2023-10-01T10:32:38.000Z</time>
      </trkpt>
      <trkpt lat="45.00473" lon="5.81538">
        <ele>1649.5999755859</ele>
        <time>2023-10-01T10:32:39.000Z</time>
      </trkpt>
      <trkpt lat="45.00471" lon="5.81537">
        <ele>1649.4000244141</ele>
        <time>2023-10-01T10:32:40.000Z</time>
      </trkpt>
      <trkpt lat="45.0047" lon="5.81536">
        <ele>1649</ele>
        <time>2023-10-01T10:32:41.000Z</time>
      </trkpt>
      <trkpt lat="45.00469" lon="5.81535">
        <ele>1648.5999755859</ele>
        <time>2023-10-01T10:32:42.000Z</time>
      </trkpt>
      <trkpt lat="45.00468" lon="5.81534">
        <ele>1648.1999511719</ele>
        <time>2023-10-01T10:32:43.000Z</time>
      </trkpt>
      <trkpt lat="45.00466" lon="5.81533">
        <ele>1647.8000488281</ele>
        <time>2023-10-01T10:32:44.000Z</time>
      </trkpt>
      <trkpt lat="45.00465" lon="5.81532">
        <ele>1647.4000244141</ele>
        <time>2023-10-01T10:32:45.000Z</time>
      </trkpt>
      <trkpt lat="45.00464" lon="5.81531">
        <ele>1647.1999511719</ele>
        <time>2023-10-01T10:32:46.000Z</time>
      </trkpt>
      <trkpt lat="45.00463" lon="5.8153">
        <ele>1646.8000488281</ele>
        <time>2023-10-01T10:32:47.000Z</time>
      </trkpt>
      <trkpt lat="45.00462" lon="5.8153">
        <ele>1646.5999755859</ele>
        <time>2023-10-01T10:32:48.000Z</time>
      </trkpt>
      <trkpt lat="45.00461" lon="5.81528">
        <ele>1646.4000244141</ele>
        <time>2023-10-01T10:32:49.000Z</time>
      </trkpt>
      <trkpt lat="45.00459" lon="5.81528">
        <ele>1646.1999511719</ele>
        <time>2023-10-01T10:32:50.000Z</time>
      </trkpt>
      <trkpt lat="45.00458" lon="5.81527">
        <ele>1645.8000488281</ele>
        <time>2023-10-01T10:32:51.000Z</time>
      </trkpt>
      <trkpt lat="45.00456" lon="5.81527">
        <ele>1645.5999755859</ele>
        <time>2023-10-01T10:32:52.000Z</time>
      </trkpt>
      <trkpt lat="45.00455" lon="5.81527">
        <ele>1645.4000244141</ele>
        <time>2023-10-01T10:32:53.000Z</time>
      </trkpt>
      <trkpt lat="45.00454" lon="5.81527">
        <ele>1645.1999511719</ele>
        <time>2023-10-01T10:32:54.000Z</time>
      </trkpt>
      <trkpt lat="45.00452" lon="5.81527">
        <ele>1644.8000488281</ele>
        <time>2023-10-01T10:32:55.000Z</time>
      </trkpt>
      <trkpt lat="45.00451" lon="5.81527">
        <ele>1644.5999755859</ele>
        <time>2023-10-01T10:32:56.000Z</time>
      </trkpt>
      <trkpt lat="45.00449" lon="5.81526">
        <ele>1644.1999511719</ele>
        <time>2023-10-01T10:32:57.000Z</time>
      </trkpt>
      <trkpt lat="45.00448" lon="5.81525">
        <ele>1644</ele>
        <time>2023-10-01T10:32:58.000Z</time>
      </trkpt>
      <trkpt lat="45.00447" lon="5.81524">
        <ele>1643.8000488281</ele>
        <time>2023-10-01T10:32:59.000Z</time>
      </trkpt>
      <trkpt lat="45.00445" lon="5.81522">
        <ele>1643.4000244141</ele>
        <time>2023-10-01T10:33:00.000Z</time>
      </trkpt>
      <trkpt lat="45.00444" lon="5.81521">
        <ele>1643</ele>
        <time>2023-10-01T10:33:01.000Z</time>
      </trkpt>
      <trkpt lat="45.00443" lon="5.8152">
        <ele>1642.5999755859</ele>
        <time>2023-10-01T10:33:02.000Z</time>
      </trkpt>
      <trkpt lat="45.00441" lon="5.81519">
        <ele>1642.1999511719</ele>
        <time>2023-10-01T10:33:03.000Z</time>
      </trkpt>
      <trkpt lat="45.0044" lon="5.81519">
        <ele>1641.8000488281</ele>
        <time>2023-10-01T10:33:04.000Z</time>
      </trkpt>
      <trkpt lat="45.00438" lon="5.81518">
        <ele>1641.4000244141</ele>
        <time>2023-10-01T10:33:05.000Z</time>
      </trkpt>
      <trkpt lat="45.00437" lon="5.81518">
        <ele>1641.4000244141</ele>
        <time>2023-10-01T10:33:06.000Z</time>
      </trkpt>
      <trkpt lat="45.00436" lon="5.81517">
        <ele>1641.1999511719</ele>
        <time>2023-10-01T10:33:07.000Z</time>
      </trkpt>
      <trkpt lat="45.00434" lon="5.81516">
        <ele>1641</ele>
        <time>2023-10-01T10:33:08.000Z</time>
      </trkpt>
      <trkpt lat="45.00432" lon="5.81516">
        <ele>1640.4000244141</ele>
        <time>2023-10-01T10:33:09.000Z</time>
      </trkpt>
      <trkpt lat="45.00431" lon="5.81515">
        <ele>1640.1999511719</ele>
        <time>2023-10-01T10:33:10.000Z</time>
      </trkpt>
      <trkpt lat="45.00429" lon="5.81514">
        <ele>1639.8000488281</ele>
        <time>2023-10-01T10:33:11.000Z</time>
      </trkpt>
      <trkpt lat="45.00428" lon="5.81514">
        <ele>1639.8000488281</ele>
        <time>2023-10-01T10:33:12.000Z</time>
      </trkpt>
      <trkpt lat="45.00426" lon="5.81513">
        <ele>1639.5999755859</ele>
        <time>2023-10-01T10:33:13.000Z</time>
      </trkpt>
      <trkpt lat="45.00425" lon="5.81513">
        <ele>1639</ele>
        <time>2023-10-01T10:33:14.000Z</time>
      </trkpt>
      <trkpt lat="45.00423" lon="5.81513">
        <ele>1638.4000244141</ele>
        <time>2023-10-01T10:33:15.000Z</time>
      </trkpt>
      <trkpt lat="45.00422" lon="5.81512">
        <ele>1638.4000244141</ele>
        <time>2023-10-01T10:33:16.000Z</time>
      </trkpt>
      <trkpt lat="45.00421" lon="5.81512">
        <ele>1638</ele>
        <time>2023-10-01T10:33:17.000Z</time>
      </trkpt>
      <trkpt lat="45.00419" lon="5.81512">
        <ele>1637.8000488281</ele>
        <time>2023-10-01T10:33:18.000Z</time>
      </trkpt>
      <trkpt lat="45.00418" lon="5.81511">
        <ele>1637.4000244141</ele>
        <time>2023-10-01T10:33:19.000Z</time>
      </trkpt>
      <trkpt lat="45.00416" lon="5.8151">
        <ele>1637.4000244141</ele>
        <time>2023-10-01T10:33:20.000Z</time>
      </trkpt>
      <trkpt lat="45.00415" lon="5.81509">
        <ele>1637.1999511719</ele>
        <time>2023-10-01T10:33:21.000Z</time>
      </trkpt>
      <trkpt lat="45.00413" lon="5.81509">
        <ele>1637</ele>
        <time>2023-10-01T10:33:22.000Z</time>
      </trkpt>
      <trkpt lat="45.00411" lon="5.81508">
        <ele>1636.5999755859</ele>
        <time>2023-10-01T10:33:23.000Z</time>
      </trkpt>
      <trkpt lat="45.0041" lon="5.81508">
        <ele>1636.1999511719</ele>
        <time>2023-10-01T10:33:24.000Z</time>
      </trkpt>
      <trkpt lat="45.00408" lon="5.81508">
        <ele>1635.8000488281</ele>
        <time>2023-10-01T10:33:25.000Z</time>
      </trkpt>
      <trkpt lat="45.00406" lon="5.81507">
        <ele>1635.8000488281</ele>
        <time>2023-10-01T10:33:26.000Z</time>
      </trkpt>
      <trkpt lat="45.00405" lon="5.81505">
        <ele>1635.4000244141</ele>
        <time>2023-10-01T10:33:27.000Z</time>
      </trkpt>
      <trkpt lat="45.00405" lon="5.81503">
        <ele>1635</ele>
        <time>2023-10-01T10:33:28.000Z</time>
      </trkpt>
      <trkpt lat="45.00406" lon="5.81501">
        <ele>1634.4000244141</ele>
        <time>2023-10-01T10:33:29.000Z</time>
      </trkpt>
      <trkpt lat="45.00407" lon="5.81501">
        <ele>1633.8000488281</ele>
        <time>2023-10-01T10:33:30.000Z</time>
      </trkpt>
      <trkpt lat="45.00409" lon="5.815">
        <ele>1633.4000244141</ele>
        <time>2023-10-01T10:33:31.000Z</time>
      </trkpt>
      <trkpt lat="45.0041" lon="5.815">
        <ele>1633.1999511719</ele>
        <time>2023-10-01T10:33:32.000Z</time>
      </trkpt>
      <trkpt lat="45.00412" lon="5.815">
        <ele>1633</ele>
        <time>2023-10-01T10:33:33.000Z</time>
      </trkpt>
      <trkpt lat="45.00413" lon="5.81499">
        <ele>1632.5999755859</ele>
        <time>2023-10-01T10:33:34.000Z</time>
      </trkpt>
      <trkpt lat="45.00415" lon="5.81499">
        <ele>1632.4000244141</ele>
        <time>2023-10-01T10:33:35.000Z</time>
      </trkpt>
      <trkpt lat="45.00417" lon="5.81499">
        <ele>1632.4000244141</ele>
        <time>2023-10-01T10:33:36.000Z</time>
      </trkpt>
      <trkpt lat="45.00418" lon="5.81499">
        <ele>1632.1999511719</ele>
        <time>2023-10-01T10:33:37.000Z</time>
      </trkpt>
      <trkpt lat="45.00421" lon="5.81499">
        <ele>1632</ele>
        <time>2023-10-01T10:33:38.000Z</time>
      </trkpt>
      <trkpt lat="45.00422" lon="5.81499">
        <ele>1631.8000488281</ele>
        <time>2023-10-01T10:33:39.000Z</time>
      </trkpt>
      <trkpt lat="45.00423" lon="5.81498">
        <ele>1631.4000244141</ele>
        <time>2023-10-01T10:33:40.000Z</time>
      </trkpt>
      <trkpt lat="45.00425" lon="5.81497">
        <ele>1631.1999511719</ele>
        <time>2023-10-01T10:33:41.000Z</time>
      </trkpt>
      <trkpt lat="45.00426" lon="5.81497">
        <ele>1630.8000488281</ele>
        <time>2023-10-01T10:33:42.000Z</time>
      </trkpt>
      <trkpt lat="45.00427" lon="5.81497">
        <ele>1630.5999755859</ele>
        <time>2023-10-01T10:33:43.000Z</time>
      </trkpt>
      <trkpt lat="45.00428" lon="5.81496">
        <ele>1630.1999511719</ele>
        <time>2023-10-01T10:33:44.000Z</time>
      </trkpt>
      <trkpt lat="45.0043" lon="5.81496">
        <ele>1629.8000488281</ele>
        <time>2023-10-01T10:33:45.000Z</time>
      </trkpt>
      <trkpt lat="45.00431" lon="5.81495">
        <ele>1629.5999755859</ele>
        <time>2023-10-01T10:33:46.000Z</time>
      </trkpt>
      <trkpt lat="45.00433" lon="5.81495">
        <ele>1629.4000244141</ele>
        <time>2023-10-01T10:33:47.000Z</time>
      </trkpt>
      <trkpt lat="45.00434" lon="5.81494">
        <ele>1629</ele>
        <time>2023-10-01T10:33:48.000Z</time>
      </trkpt>
      <trkpt lat="45.00435" lon="5.81494">
        <ele>1628.5999755859</ele>
        <time>2023-10-01T10:33:49.000Z</time>
      </trkpt>
      <trkpt lat="45.00437" lon="5.81494">
        <ele>1628.1999511719</ele>
        <time>2023-10-01T10:33:50.000Z</time>
      </trkpt>
      <trkpt lat="45.00438" lon="5.81494">
        <ele>1627.8000488281</ele>
        <time>2023-10-01T10:33:51.000Z</time>
      </trkpt>
      <trkpt lat="45.00439" lon="5.81494">
        <ele>1627.5999755859</ele>
        <time>2023-10-01T10:33:52.000Z</time>
      </trkpt>
      <trkpt lat="45.00441" lon="5.81494">
        <ele>1627.4000244141</ele>
        <time>2023-10-01T10:33:53.000Z</time>
      </trkpt>
      <trkpt lat="45.00442" lon="5.81494">
        <ele>1627</ele>
        <time>2023-10-01T10:33:54.000Z</time>
      </trkpt>
      <trkpt lat="45.00444" lon="5.81494">
        <ele>1626.8000488281</ele>
        <time>2023-10-01T10:33:55.000Z</time>
      </trkpt>
      <trkpt lat="45.00445" lon="5.81494">
        <ele>1626.5999755859</ele>
        <time>2023-10-01T10:33:56.000Z</time>
      </trkpt>
      <trkpt lat="45.00447" lon="5.81493">
        <ele>1626.4000244141</ele>
        <time>2023-10-01T10:33:57.000Z</time>
      </trkpt>
      <trkpt lat="45.00448" lon="5.81493">
        <ele>1626.1999511719</ele>
        <time>2023-10-01T10:33:58.000Z</time>
      </trkpt>
      <trkpt lat="45.00449" lon="5.81493">
        <ele>1625.8000488281</ele>
        <time>2023-10-01T10:33:59.000Z</time>
      </trkpt>
      <trkpt lat="45.00451" lon="5.81492">
        <ele>1625.4000244141</ele>
        <time>2023-10-01T10:34:00.000Z</time>
      </trkpt>
      <trkpt lat="45.00452" lon="5.81491">
        <ele>1625.1999511719</ele>
        <time>2023-10-01T10:34:01.000Z</time>
      </trkpt>
      <trkpt lat="45.00453" lon="5.8149">
        <ele>1624.8000488281</ele>
        <time>2023-10-01T10:34:02.000Z</time>
      </trkpt>
      <trkpt lat="45.00454" lon="5.8149">
        <ele>1624.5999755859</ele>
        <time>2023-10-01T10:34:03.000Z</time>
      </trkpt>
      <trkpt lat="45.00456" lon="5.81489">
        <ele>1624.1999511719</ele>
        <time>2023-10-01T10:34:04.000Z</time>
      </trkpt>
      <trkpt lat="45.00457" lon="5.81489">
        <ele>1623.8000488281</ele>
        <time>2023-10-01T10:34:05.000Z</time>
      </trkpt>
      <trkpt lat="45.00459" lon="5.81489">
        <ele>1623.5999755859</ele>
        <time>2023-10-01T10:34:06.000Z</time>
      </trkpt>
      <trkpt lat="45.0046" lon="5.81488">
        <ele>1623.4000244141</ele>
        <time>2023-10-01T10:34:07.000Z</time>
      </trkpt>
      <trkpt lat="45.00462" lon="5.81488">
        <ele>1623.1999511719</ele>
        <time>2023-10-01T10:34:08.000Z</time>
      </trkpt>
      <trkpt lat="45.00464" lon="5.81488">
        <ele>1623</ele>
        <time>2023-10-01T10:34:09.000Z</time>
      </trkpt>
      <trkpt lat="45.00465" lon="5.81487">
        <ele>1622.4000244141</ele>
        <time>2023-10-01T10:34:10.000Z</time>
      </trkpt>
      <trkpt lat="45.00467" lon="5.81487">
        <ele>1622.1999511719</ele>
        <time>2023-10-01T10:34:11.000Z</time>
      </trkpt>
      <trkpt lat="45.00469" lon="5.81487">
        <ele>1622</ele>
        <time>2023-10-01T10:34:12.000Z</time>
      </trkpt>
      <trkpt lat="45.00471" lon="5.81487">
        <ele>1621.8000488281</ele>
        <time>2023-10-01T10:34:13.000Z</time>
      </trkpt>
      <trkpt lat="45.00472" lon="5.81487">
        <ele>1621.4000244141</ele>
        <time>2023-10-01T10:34:14.000Z</time>
      </trkpt>
      <trkpt lat="45.00474" lon="5.81486">
        <ele>1621</ele>
        <time>2023-10-01T10:34:15.000Z</time>
      </trkpt>
      <trkpt lat="45.00476" lon="5.81485">
        <ele>1620.8000488281</ele>
        <time>2023-10-01T10:34:16.000Z</time>
      </trkpt>
      <trkpt lat="45.00478" lon="5.81485">
        <ele>1620.4000244141</ele>
        <time>2023-10-01T10:34:17.000Z</time>
      </trkpt>
      <trkpt lat="45.0048" lon="5.81485">
        <ele>1620.1999511719</ele>
        <time>2023-10-01T10:34:18.000Z</time>
      </trkpt>
      <trkpt lat="45.00482" lon="5.81486">
        <ele>1619.8000488281</ele>
        <time>2023-10-01T10:34:19.000Z</time>
      </trkpt>
      <trkpt lat="45.00484" lon="5.81486">
        <ele>1619.5999755859</ele>
        <time>2023-10-01T10:34:20.000Z</time>
      </trkpt>
      <trkpt lat="45.00486" lon="5.81486">
        <ele>1619.1999511719</ele>
        <time>2023-10-01T10:34:21.000Z</time>
      </trkpt>
      <trkpt lat="45.00487" lon="5.81485">
        <ele>1619.1999511719</ele>
        <time>2023-10-01T10:34:22.000Z</time>
      </trkpt>
      <trkpt lat="45.00489" lon="5.81485">
        <ele>1618.8000488281</ele>
        <time>2023-10-01T10:34:23.000Z</time>
      </trkpt>
      <trkpt lat="45.00491" lon="5.81484">
        <ele>1618.5999755859</ele>
        <time>2023-10-01T10:34:24.000Z</time>
      </trkpt>
      <trkpt lat="45.00493" lon="5.81483">
        <ele>1618.4000244141</ele>
        <time>2023-10-01T10:34:25.000Z</time>
      </trkpt>
      <trkpt lat="45.00494" lon="5.81483">
        <ele>1618.1999511719</ele>
        <time>2023-10-01T10:34:26.000Z</time>
      </trkpt>
      <trkpt lat="45.00496" lon="5.81483">
        <ele>1617.8000488281</ele>
        <time>2023-10-01T10:34:27.000Z</time>
      </trkpt>
      <trkpt lat="45.00498" lon="5.81482">
        <ele>1617.5999755859</ele>
        <time>2023-10-01T10:34:28.000Z</time>
      </trkpt>
      <trkpt lat="45.00499" lon="5.81482">
        <ele>1617.1999511719</ele>
        <time>2023-10-01T10:34:29.000Z</time>
      </trkpt>
      <trkpt lat="45.00501" lon="5.81482">
        <ele>1617.1999511719</ele>
        <time>2023-10-01T10:34:30.000Z</time>
      </trkpt>
      <trkpt lat="45.00502" lon="5.81482">
        <ele>1616.5999755859</ele>
        <time>2023-10-01T10:34:31.000Z</time>
      </trkpt>
      <trkpt lat="45.00504" lon="5.81481">
        <ele>1616.1999511719</ele>
        <time>2023-10-01T10:34:32.000Z</time>
      </trkpt>
      <trkpt lat="45.00505" lon="5.8148">
        <ele>1616.1999511719</ele>
        <time>2023-10-01T10:34:33.000Z</time>
      </trkpt>
      <trkpt lat="45.00506" lon="5.81479">
        <ele>1615.8000488281</ele>
        <time>2023-10-01T10:34:34.000Z</time>
      </trkpt>
      <trkpt lat="45.00508" lon="5.81479">
        <ele>1615.5999755859</ele>
        <time>2023-10-01T10:34:35.000Z</time>
      </trkpt>
      <trkpt lat="45.0051" lon="5.81478">
        <ele>1615.1999511719</ele>
        <time>2023-10-01T10:34:36.000Z</time>
      </trkpt>
      <trkpt lat="45.00511" lon="5.81478">
        <ele>1614.8000488281</ele>
        <time>2023-10-01T10:34:37.000Z</time>
      </trkpt>
      <trkpt lat="45.00512" lon="5.81478">
        <ele>1614.5999755859</ele>
        <time>2023-10-01T10:34:38.000Z</time>
      </trkpt>
      <trkpt lat="45.00514" lon="5.81477">
        <ele>1614.4000244141</ele>
        <time>2023-10-01T10:34:39.000Z</time>
      </trkpt>
      <trkpt lat="45.00515" lon="5.81477">
        <ele>1614</ele>
        <time>2023-10-01T10:34:40.000Z</time>
      </trkpt>
      <trkpt lat="45.00516" lon="5.81477">
        <ele>1613.5999755859</ele>
        <time>2023-10-01T10:34:41.000Z</time>
      </trkpt>
      <trkpt lat="45.00518" lon="5.81476">
        <ele>1613.4000244141</ele>
        <time>2023-10-01T10:34:42.000Z</time>
      </trkpt>
      <trkpt lat="45.00519" lon="5.81476">
        <ele>1613</ele>
        <time>2023-10-01T10:34:43.000Z</time>
      </trkpt>
      <trkpt lat="45.0052" lon="5.81476">
        <ele>1612.5999755859</ele>
        <time>2023-10-01T10:34:44.000Z</time>
      </trkpt>
      <trkpt lat="45.00521" lon="5.81475">
        <ele>1612.4000244141</ele>
        <time>2023-10-01T10:34:45.000Z</time>
      </trkpt>
      <trkpt lat="45.00522" lon="5.81475">
        <ele>1612</ele>
        <time>2023-10-01T10:34:46.000Z</time>
      </trkpt>
      <trkpt lat="45.00524" lon="5.81475">
        <ele>1611.5999755859</ele>
        <time>2023-10-01T10:34:47.000Z</time>
      </trkpt>
      <trkpt lat="45.00525" lon="5.81474">
        <ele>1611.1999511719</ele>
        <time>2023-10-01T10:34:48.000Z</time>
      </trkpt>
      <trkpt lat="45.00527" lon="5.81474">
        <ele>1611</ele>
        <time>2023-10-01T10:34:49.000Z</time>
      </trkpt>
      <trkpt lat="45.00528" lon="5.81473">
        <ele>1610.5999755859</ele>
        <time>2023-10-01T10:34:50.000Z</time>
      </trkpt>
      <trkpt lat="45.0053" lon="5.81473">
        <ele>1610.4000244141</ele>
        <time>2023-10-01T10:34:51.000Z</time>
      </trkpt>
      <trkpt lat="45.00532" lon="5.81473">
        <ele>1610</ele>
        <time>2023-10-01T10:34:52.000Z</time>
      </trkpt>
      <trkpt lat="45.00533" lon="5.81472">
        <ele>1609.5999755859</ele>
        <time>2023-10-01T10:34:53.000Z</time>
      </trkpt>
      <trkpt lat="45.00534" lon="5.81472">
        <ele>1609.1999511719</ele>
        <time>2023-10-01T10:34:54.000Z</time>
      </trkpt>
      <trkpt lat="45.00536" lon="5.81472">
        <ele>1609</ele>
        <time>2023-10-01T10:34:55.000Z</time>
      </trkpt>
      <trkpt lat="45.00537" lon="5.81472">
        <ele>1608.4000244141</ele>
        <time>2023-10-01T10:34:56.000Z</time>
      </trkpt>
      <trkpt lat="45.00538" lon="5.81472">
        <ele>1608.1999511719</ele>
        <time>2023-10-01T10:34:57.000Z</time>
      </trkpt>
      <trkpt lat="45.0054" lon="5.81471">
        <ele>1607.5999755859</ele>
        <time>2023-10-01T10:34:58.000Z</time>
      </trkpt>
      <trkpt lat="45.00541" lon="5.81471">
        <ele>1607.1999511719</ele>
        <time>2023-10-01T10:34:59.000Z</time>
      </trkpt>
      <trkpt lat="45.00542" lon="5.81471">
        <ele>1607</ele>
        <time>2023-10-01T10:35:00.000Z</time>
      </trkpt>
      <trkpt lat="45.00544" lon="5.81471">
        <ele>1606.8000488281</ele>
        <time>2023-10-01T10:35:01.000Z</time>
      </trkpt>
      <trkpt lat="45.00545" lon="5.8147">
        <ele>1606.4000244141</ele>
        <time>2023-10-01T10:35:02.000Z</time>
      </trkpt>
      <trkpt lat="45.00546" lon="5.8147">
        <ele>1606</ele>
        <time>2023-10-01T10:35:03.000Z</time>
      </trkpt>
      <trkpt lat="45.00548" lon="5.8147">
        <ele>1605.8000488281</ele>
        <time>2023-10-01T10:35:04.000Z</time>
      </trkpt>
      <trkpt lat="45.0055" lon="5.81469">
        <ele>1605.4000244141</ele>
        <time>2023-10-01T10:35:05.000Z</time>
      </trkpt>
      <trkpt lat="45.00551" lon="5.81469">
        <ele>1604.8000488281</ele>
        <time>2023-10-01T10:35:06.000Z</time>
      </trkpt>
      <trkpt lat="45.00552" lon="5.81469">
        <ele>1604.5999755859</ele>
        <time>2023-10-01T10:35:07.000Z</time>
      </trkpt>
      <trkpt lat="45.00553" lon="5.81468">
        <ele>1604.4000244141</ele>
        <time>2023-10-01T10:35:08.000Z</time>
      </trkpt>
      <trkpt lat="45.00554" lon="5.81468">
        <ele>1604</ele>
        <time>2023-10-01T10:35:09.000Z</time>
      </trkpt>
      <trkpt lat="45.00555" lon="5.81467">
        <ele>1603.4000244141</ele>
        <time>2023-10-01T10:35:10.000Z</time>
      </trkpt>
      <trkpt lat="45.00557" lon="5.81467">
        <ele>1603.1999511719</ele>
        <time>2023-10-01T10:35:11.000Z</time>
      </trkpt>
      <trkpt lat="45.00558" lon="5.81466">
        <ele>1602.8000488281</ele>
        <time>2023-10-01T10:35:12.000Z</time>
      </trkpt>
      <trkpt lat="45.00559" lon="5.81466">
        <ele>1602.4000244141</ele>
        <time>2023-10-01T10:35:13.000Z</time>
      </trkpt>
      <trkpt lat="45.0056" lon="5.81466">
        <ele>1602</ele>
        <time>2023-10-01T10:35:14.000Z</time>
      </trkpt>
      <trkpt lat="45.00561" lon="5.81466">
        <ele>1601.5999755859</ele>
        <time>2023-10-01T10:35:15.000Z</time>
      </trkpt>
      <trkpt lat="45.00563" lon="5.81466">
        <ele>1601.4000244141</ele>
        <time>2023-10-01T10:35:16.000Z</time>
      </trkpt>
      <trkpt lat="45.00565" lon="5.81466">
        <ele>1600.8000488281</ele>
        <time>2023-10-01T10:35:17.000Z</time>
      </trkpt>
      <trkpt lat="45.00566" lon="5.81467">
        <ele>1600.5999755859</ele>
        <time>2023-10-01T10:35:18.000Z</time>
      </trkpt>
      <trkpt lat="45.00567" lon="5.81467">
        <ele>1600.4000244141</ele>
        <time>2023-10-01T10:35:19.000Z</time>
      </trkpt>
      <trkpt lat="45.00568" lon="5.81466">
        <ele>1600</ele>
        <time>2023-10-01T10:35:20.000Z</time>
      </trkpt>
      <trkpt lat="45.00569" lon="5.81466">
        <ele>1599.4000244141</ele>
        <time>2023-10-01T10:35:21.000Z</time>
      </trkpt>
      <trkpt lat="45.0057" lon="5.81466">
        <ele>1599</ele>
        <time>2023-10-01T10:35:22.000Z</time>
      </trkpt>
      <trkpt lat="45.00571" lon="5.81466">
        <ele>1598.4000244141</ele>
        <time>2023-10-01T10:35:23.000Z</time>
      </trkpt>
      <trkpt lat="45.00572" lon="5.81465">
        <ele>1598</ele>
        <time>2023-10-01T10:35:24.000Z</time>
      </trkpt>
      <trkpt lat="45.00573" lon="5.81465">
        <ele>1598</ele>
        <time>2023-10-01T10:35:25.000Z</time>
      </trkpt>
      <trkpt lat="45.00574" lon="5.81465">
        <ele>1597.8000488281</ele>
        <time>2023-10-01T10:35:26.000Z</time>
      </trkpt>
      <trkpt lat="45.00576" lon="5.81464">
        <ele>1597.4000244141</ele>
        <time>2023-10-01T10:35:27.000Z</time>
      </trkpt>
      <trkpt lat="45.00577" lon="5.81464">
        <ele>1597.1999511719</ele>
        <time>2023-10-01T10:35:28.000Z</time>
      </trkpt>
      <trkpt lat="45.00578" lon="5.81464">
        <ele>1596.5999755859</ele>
        <time>2023-10-01T10:35:29.000Z</time>
      </trkpt>
      <trkpt lat="45.0058" lon="5.81464">
        <ele>1596.1999511719</ele>
        <time>2023-10-01T10:35:30.000Z</time>
      </trkpt>
      <trkpt lat="45.00582" lon="5.81463">
        <ele>1595.8000488281</ele>
        <time>2023-10-01T10:35:31.000Z</time>
      </trkpt>
      <trkpt lat="45.00583" lon="5.81463">
        <ele>1595.4000244141</ele>
        <time>2023-10-01T10:35:32.000Z</time>
      </trkpt>
      <trkpt lat="45.00585" lon="5.81462">
        <ele>1595.1999511719</ele>
        <time>2023-10-01T10:35:33.000Z</time>
      </trkpt>
      <trkpt lat="45.00586" lon="5.81462">
        <ele>1594.1999511719</ele>
        <time>2023-10-01T10:35:34.000Z</time>
      </trkpt>
      <trkpt lat="45.00587" lon="5.81461">
        <ele>1593.8000488281</ele>
        <time>2023-10-01T10:35:35.000Z</time>
      </trkpt>
      <trkpt lat="45.00588" lon="5.81461">
        <ele>1593.4000244141</ele>
        <time>2023-10-01T10:35:36.000Z</time>
      </trkpt>
      <trkpt lat="45.00589" lon="5.81461">
        <ele>1593</ele>
        <time>2023-10-01T10:35:37.000Z</time>
      </trkpt>
      <trkpt lat="45.0059" lon="5.8146">
        <ele>1592.4000244141</ele>
        <time>2023-10-01T10:35:38.000Z</time>
      </trkpt>
      <trkpt lat="45.00592" lon="5.8146">
        <ele>1592.4000244141</ele>
        <time>2023-10-01T10:35:39.000Z</time>
      </trkpt>
      <trkpt lat="45.00593" lon="5.8146">
        <ele>1592.1999511719</ele>
        <time>2023-10-01T10:35:40.000Z</time>
      </trkpt>
      <trkpt lat="45.00594" lon="5.81459">
        <ele>1591.8000488281</ele>
        <time>2023-10-01T10:35:41.000Z</time>
      </trkpt>
      <trkpt lat="45.00596" lon="5.81459">
        <ele>1591.1999511719</ele>
        <time>2023-10-01T10:35:42.000Z</time>
      </trkpt>
      <trkpt lat="45.00597" lon="5.81458">
        <ele>1590.8000488281</ele>
        <time>2023-10-01T10:35:43.000Z</time>
      </trkpt>
      <trkpt lat="45.00598" lon="5.81458">
        <ele>1590.5999755859</ele>
        <time>2023-10-01T10:35:44.000Z</time>
      </trkpt>
      <trkpt lat="45.00599" lon="5.81458">
        <ele>1590.4000244141</ele>
        <time>2023-10-01T10:35:45.000Z</time>
      </trkpt>
      <trkpt lat="45.006" lon="5.81458">
        <ele>1590.1999511719</ele>
        <time>2023-10-01T10:35:46.000Z</time>
      </trkpt>
      <trkpt lat="45.00602" lon="5.81458">
        <ele>1589.8000488281</ele>
        <time>2023-10-01T10:35:47.000Z</time>
      </trkpt>
      <trkpt lat="45.00603" lon="5.81458">
        <ele>1589.4000244141</ele>
        <time>2023-10-01T10:35:48.000Z</time>
      </trkpt>
      <trkpt lat="45.00604" lon="5.81458">
        <ele>1589.1999511719</ele>
        <time>2023-10-01T10:35:49.000Z</time>
      </trkpt>
      <trkpt lat="45.00604" lon="5.81458">
        <ele>1588.8000488281</ele>
        <time>2023-10-01T10:35:50.000Z</time>
      </trkpt>
      <trkpt lat="45.00606" lon="5.81458">
        <ele>1588.4000244141</ele>
        <time>2023-10-01T10:35:51.000Z</time>
      </trkpt>
      <trkpt lat="45.00607" lon="5.81458">
        <ele>1588.1999511719</ele>
        <time>2023-10-01T10:35:52.000Z</time>
      </trkpt>
      <trkpt lat="45.00608" lon="5.81458">
        <ele>1588</ele>
        <time>2023-10-01T10:35:53.000Z</time>
      </trkpt>
      <trkpt lat="45.00609" lon="5.81458">
        <ele>1587.4000244141</ele>
        <time>2023-10-01T10:35:54.000Z</time>
      </trkpt>
      <trkpt lat="45.0061" lon="5.81457">
        <ele>1587.1999511719</ele>
        <time>2023-10-01T10:35:55.000Z</time>
      </trkpt>
      <trkpt lat="45.00611" lon="5.81457">
        <ele>1587</ele>
        <time>2023-10-01T10:35:56.000Z</time>
      </trkpt>
      <trkpt lat="45.00612" lon="5.81458">
        <ele>1586.8000488281</ele>
        <time>2023-10-01T10:35:57.000Z</time>
      </trkpt>
      <trkpt lat="45.00614" lon="5.81458">
        <ele>1586.4000244141</ele>
        <time>2023-10-01T10:35:58.000Z</time>
      </trkpt>
      <trkpt lat="45.00616" lon="5.81458">
        <ele>1586</ele>
        <time>2023-10-01T10:35:59.000Z</time>
      </trkpt>
      <trkpt lat="45.00617" lon="5.81458">
        <ele>1585.8000488281</ele>
        <time>2023-10-01T10:36:00.000Z</time>
      </trkpt>
      <trkpt lat="45.00618" lon="5.81458">
        <ele>1585.1999511719</ele>
        <time>2023-10-01T10:36:01.000Z</time>
      </trkpt>
      <trkpt lat="45.0062" lon="5.81458">
        <ele>1584.8000488281</ele>
        <time>2023-10-01T10:36:02.000Z</time>
      </trkpt>
      <trkpt lat="45.00621" lon="5.81457">
        <ele>1584.5999755859</ele>
        <time>2023-10-01T10:36:03.000Z</time>
      </trkpt>
      <trkpt lat="45.00622" lon="5.81457">
        <ele>1584.1999511719</ele>
        <time>2023-10-01T10:36:04.000Z</time>
      </trkpt>
      <trkpt lat="45.00624" lon="5.81457">
        <ele>1583.8000488281</ele>
        <time>2023-10-01T10:36:05.000Z</time>
      </trkpt>
      <trkpt lat="45.00625" lon="5.81457">
        <ele>1583.5999755859</ele>
        <time>2023-10-01T10:36:06.000Z</time>
      </trkpt>
      <trkpt lat="45.00626" lon="5.81457">
        <ele>1583.1999511719</ele>
        <time>2023-10-01T10:36:07.000Z</time>
      </trkpt>
      <trkpt lat="45.00627" lon="5.81456">
        <ele>1582.8000488281</ele>
        <time>2023-10-01T10:36:08.000Z</time>
      </trkpt>
      <trkpt lat="45.00628" lon="5.81456">
        <ele>1582.4000244141</ele>
        <time>2023-10-01T10:36:09.000Z</time>
      </trkpt>
      <trkpt lat="45.00629" lon="5.81456">
        <ele>1582</ele>
        <time>2023-10-01T10:36:10.000Z</time>
      </trkpt>
      <trkpt lat="45.0063" lon="5.81456">
        <ele>1581.8000488281</ele>
        <time>2023-10-01T10:36:11.000Z</time>
      </trkpt>
      <trkpt lat="45.00631" lon="5.81456">
        <ele>1581.4000244141</ele>
        <time>2023-10-01T10:36:12.000Z</time>
      </trkpt>
      <trkpt lat="45.00632" lon="5.81456">
        <ele>1581.1999511719</ele>
        <time>2023-10-01T10:36:13.000Z</time>
      </trkpt>
      <trkpt lat="45.00633" lon="5.81456">
        <ele>1581.1999511719</ele>
        <time>2023-10-01T10:36:14.000Z</time>
      </trkpt>
      <trkpt lat="45.00633" lon="5.81456">
        <ele>1580.5999755859</ele>
        <time>2023-10-01T10:36:15.000Z</time>
      </trkpt>
      <trkpt lat="45.00634" lon="5.81456">
        <ele>1580.1999511719</ele>
        <time>2023-10-01T10:36:16.000Z</time>
      </trkpt>
      <trkpt lat="45.00635" lon="5.81456">
        <ele>1580</ele>
        <time>2023-10-01T10:36:17.000Z</time>
      </trkpt>
      <trkpt lat="45.00637" lon="5.81456">
        <ele>1579.8000488281</ele>
        <time>2023-10-01T10:36:18.000Z</time>
      </trkpt>
      <trkpt lat="45.00638" lon="5.81456">
        <ele>1579.4000244141</ele>
        <time>2023-10-01T10:36:19.000Z</time>
      </trkpt>
      <trkpt lat="45.00639" lon="5.81455">
        <ele>1579</ele>
        <time>2023-10-01T10:36:20.000Z</time>
      </trkpt>
      <trkpt lat="45.00641" lon="5.81455">
        <ele>1578.8000488281</ele>
        <time>2023-10-01T10:36:21.000Z</time>
      </trkpt>
      <trkpt lat="45.00643" lon="5.81455">
        <ele>1578.5999755859</ele>
        <time>2023-10-01T10:36:22.000Z</time>
      </trkpt>
      <trkpt lat="45.00644" lon="5.81454">
        <ele>1578.4000244141</ele>
        <time>2023-10-01T10:36:23.000Z</time>
      </trkpt>
      <trkpt lat="45.00646" lon="5.81454">
        <ele>1577.8000488281</ele>
        <time>2023-10-01T10:36:24.000Z</time>
      </trkpt>
      <trkpt lat="45.00647" lon="5.81454">
        <ele>1577.5999755859</ele>
        <time>2023-10-01T10:36:25.000Z</time>
      </trkpt>
      <trkpt lat="45.00649" lon="5.81454">
        <ele>1577.1999511719</ele>
        <time>2023-10-01T10:36:26.000Z</time>
      </trkpt>
      <trkpt lat="45.0065" lon="5.81454">
        <ele>1576.8000488281</ele>
        <time>2023-10-01T10:36:27.000Z</time>
      </trkpt>
      <trkpt lat="45.00651" lon="5.81454">
        <ele>1576.5999755859</ele>
        <time>2023-10-01T10:36:28.000Z</time>
      </trkpt>
      <trkpt lat="45.00653" lon="5.81454">
        <ele>1576.1999511719</ele>
        <time>2023-10-01T10:36:29.000Z</time>
      </trkpt>
      <trkpt lat="45.00654" lon="5.81455">
        <ele>1575.8000488281</ele>
        <time>2023-10-01T10:36:30.000Z</time>
      </trkpt>
      <trkpt lat="45.00655" lon="5.81455">
        <ele>1575.4000244141</ele>
        <time>2023-10-01T10:36:31.000Z</time>
      </trkpt>
      <trkpt lat="45.00656" lon="5.81455">
        <ele>1575</ele>
        <time>2023-10-01T10:36:32.000Z</time>
      </trkpt>
      <trkpt lat="45.00657" lon="5.81455">
        <ele>1574.8000488281</ele>
        <time>2023-10-01T10:36:33.000Z</time>
      </trkpt>
      <trkpt lat="45.00659" lon="5.81454">
        <ele>1574.1999511719</ele>
        <time>2023-10-01T10:36:34.000Z</time>
      </trkpt>
      <trkpt lat="45.0066" lon="5.81453">
        <ele>1573.8000488281</ele>
        <time>2023-10-01T10:36:35.000Z</time>
      </trkpt>
      <trkpt lat="45.00661" lon="5.81452">
        <ele>1573.5999755859</ele>
        <time>2023-10-01T10:36:36.000Z</time>
      </trkpt>
      <trkpt lat="45.00661" lon="5.8145">
        <ele>1573.4000244141</ele>
        <time>2023-10-01T10:36:37.000Z</time>
      </trkpt>
      <trkpt lat="45.00661" lon="5.81448">
        <ele>1573</ele>
        <time>2023-10-01T10:36:38.000Z</time>
      </trkpt>
      <trkpt lat="45.00661" lon="5.81446">
        <ele>1572.4000244141</ele>
        <time>2023-10-01T10:36:39.000Z</time>
      </trkpt>
      <trkpt lat="45.0066" lon="5.81445">
        <ele>1572.1999511719</ele>
        <time>2023-10-01T10:36:40.000Z</time>
      </trkpt>
      <trkpt lat="45.00659" lon="5.81444">
        <ele>1571.8000488281</ele>
        <time>2023-10-01T10:36:41.000Z</time>
      </trkpt>
      <trkpt lat="45.00658" lon="5.81443">
        <ele>1571.4000244141</ele>
        <time>2023-10-01T10:36:42.000Z</time>
      </trkpt>
      <trkpt lat="45.00656" lon="5.81443">
        <ele>1571.1999511719</ele>
        <time>2023-10-01T10:36:43.000Z</time>
      </trkpt>
      <trkpt lat="45.00655" lon="5.81443">
        <ele>1571.1999511719</ele>
        <time>2023-10-01T10:36:44.000Z</time>
      </trkpt>
      <trkpt lat="45.00653" lon="5.81442">
        <ele>1571</ele>
        <time>2023-10-01T10:36:45.000Z</time>
      </trkpt>
      <trkpt lat="45.00652" lon="5.81442">
        <ele>1570.8000488281</ele>
        <time>2023-10-01T10:36:46.000Z</time>
      </trkpt>
      <trkpt lat="45.00651" lon="5.81442">
        <ele>1570.5999755859</ele>
        <time>2023-10-01T10:36:47.000Z</time>
      </trkpt>
      <trkpt lat="45.0065" lon="5.81441">
        <ele>1570.4000244141</ele>
        <time>2023-10-01T10:36:48.000Z</time>
      </trkpt>
      <trkpt lat="45.00648" lon="5.8144">
        <ele>1570.1999511719</ele>
        <time>2023-10-01T10:36:49.000Z</time>
      </trkpt>
      <trkpt lat="45.00647" lon="5.81439">
        <ele>1570</ele>
        <time>2023-10-01T10:36:50.000Z</time>
      </trkpt>
      <trkpt lat="45.00647" lon="5.81438">
        <ele>1569.8000488281</ele>
        <time>2023-10-01T10:36:51.000Z</time>
      </trkpt>
      <trkpt lat="45.00645" lon="5.81437">
        <ele>1569.5999755859</ele>
        <time>2023-10-01T10:36:52.000Z</time>
      </trkpt>
      <trkpt lat="45.00644" lon="5.81436">
        <ele>1569.4000244141</ele>
        <time>2023-10-01T10:36:53.000Z</time>
      </trkpt>
      <trkpt lat="45.00643" lon="5.81435">
        <ele>1569</ele>
        <time>2023-10-01T10:36:54.000Z</time>
      </trkpt>
      <trkpt lat="45.00641" lon="5.81435">
        <ele>1569</ele>
        <time>2023-10-01T10:36:55.000Z</time>
      </trkpt>
      <trkpt lat="45.00641" lon="5.81433">
        <ele>1568.5999755859</ele>
        <time>2023-10-01T10:36:56.000Z</time>
      </trkpt>
      <trkpt lat="45.0064" lon="5.81432">
        <ele>1568.4000244141</ele>
        <time>2023-10-01T10:36:57.000Z</time>
      </trkpt>
      <trkpt lat="45.00639" lon="5.81432">
        <ele>1568.1999511719</ele>
        <time>2023-10-01T10:36:58.000Z</time>
      </trkpt>
      <trkpt lat="45.00638" lon="5.81431">
        <ele>1568</ele>
        <time>2023-10-01T10:36:59.000Z</time>
      </trkpt>
      <trkpt lat="45.00637" lon="5.8143">
        <ele>1567.5999755859</ele>
        <time>2023-10-01T10:37:00.000Z</time>
      </trkpt>
      <trkpt lat="45.00637" lon="5.81429">
        <ele>1567.4000244141</ele>
        <time>2023-10-01T10:37:01.000Z</time>
      </trkpt>
      <trkpt lat="45.00636" lon="5.81428">
        <ele>1567</ele>
        <time>2023-10-01T10:37:02.000Z</time>
      </trkpt>
      <trkpt lat="45.00634" lon="5.81427">
        <ele>1566.8000488281</ele>
        <time>2023-10-01T10:37:03.000Z</time>
      </trkpt>
      <trkpt lat="45.00634" lon="5.81426">
        <ele>1566.4000244141</ele>
        <time>2023-10-01T10:37:04.000Z</time>
      </trkpt>
      <trkpt lat="45.00633" lon="5.81425">
        <ele>1566</ele>
        <time>2023-10-01T10:37:05.000Z</time>
      </trkpt>
      <trkpt lat="45.00633" lon="5.81424">
        <ele>1565.5999755859</ele>
        <time>2023-10-01T10:37:06.000Z</time>
      </trkpt>
      <trkpt lat="45.00632" lon="5.81423">
        <ele>1565.4000244141</ele>
        <time>2023-10-01T10:37:07.000Z</time>
      </trkpt>
      <trkpt lat="45.00632" lon="5.81422">
        <ele>1565</ele>
        <time>2023-10-01T10:37:08.000Z</time>
      </trkpt>
      <trkpt lat="45.00631" lon="5.81421">
        <ele>1564.8000488281</ele>
        <time>2023-10-01T10:37:09.000Z</time>
      </trkpt>
      <trkpt lat="45.0063" lon="5.8142">
        <ele>1564.4000244141</ele>
        <time>2023-10-01T10:37:10.000Z</time>
      </trkpt>
      <trkpt lat="45.00629" lon="5.8142">
        <ele>1564</ele>
        <time>2023-10-01T10:37:11.000Z</time>
      </trkpt>
      <trkpt lat="45.00628" lon="5.81419">
        <ele>1563.8000488281</ele>
        <time>2023-10-01T10:37:12.000Z</time>
      </trkpt>
      <trkpt lat="45.00628" lon="5.81418">
        <ele>1563.4000244141</ele>
        <time>2023-10-01T10:37:13.000Z</time>
      </trkpt>
      <trkpt lat="45.00627" lon="5.81417">
        <ele>1563</ele>
        <time>2023-10-01T10:37:14.000Z</time>
      </trkpt>
      <trkpt lat="45.00626" lon="5.81416">
        <ele>1562.8000488281</ele>
        <time>2023-10-01T10:37:15.000Z</time>
      </trkpt>
      <trkpt lat="45.00625" lon="5.81415">
        <ele>1562.4000244141</ele>
        <time>2023-10-01T10:37:16.000Z</time>
      </trkpt>
      <trkpt lat="45.00624" lon="5.81414">
        <ele>1562.1999511719</ele>
        <time>2023-10-01T10:37:17.000Z</time>
      </trkpt>
      <trkpt lat="45.00623" lon="5.81413">
        <ele>1562.1999511719</ele>
        <time>2023-10-01T10:37:18.000Z</time>
      </trkpt>
      <trkpt lat="45.00622" lon="5.81412">
        <ele>1561.8000488281</ele>
        <time>2023-10-01T10:37:19.000Z</time>
      </trkpt>
      <trkpt lat="45.00621" lon="5.8141">
        <ele>1561.4000244141</ele>
        <time>2023-10-01T10:37:20.000Z</time>
      </trkpt>
      <trkpt lat="45.0062" lon="5.8141">
        <ele>1561</ele>
        <time>2023-10-01T10:37:21.000Z</time>
      </trkpt>
      <trkpt lat="45.00618" lon="5.81408">
        <ele>1560.8000488281</ele>
        <time>2023-10-01T10:37:22.000Z</time>
      </trkpt>
      <trkpt lat="45.00617" lon="5.81407">
        <ele>1560.1999511719</ele>
        <time>2023-10-01T10:37:23.000Z</time>
      </trkpt>
      <trkpt lat="45.00615" lon="5.81405">
        <ele>1559.8000488281</ele>
        <time>2023-10-01T10:37:24.000Z</time>
      </trkpt>
      <trkpt lat="45.00614" lon="5.81404">
        <ele>1559.4000244141</ele>
        <time>2023-10-01T10:37:25.000Z</time>
      </trkpt>
      <trkpt lat="45.00613" lon="5.81403">
        <ele>1559</ele>
        <time>2023-10-01T10:37:26.000Z</time>
      </trkpt>
      <trkpt lat="45.00612" lon="5.81402">
        <ele>1558.5999755859</ele>
        <time>2023-10-01T10:37:27.000Z</time>
      </trkpt>
      <trkpt lat="45.0061" lon="5.814">
        <ele>1558.4000244141</ele>
        <time>2023-10-01T10:37:28.000Z</time>
      </trkpt>
      <trkpt lat="45.00609" lon="5.81399">
        <ele>1557.8000488281</ele>
        <time>2023-10-01T10:37:29.000Z</time>
      </trkpt>
      <trkpt lat="45.00608" lon="5.81398">
        <ele>1557.5999755859</ele>
        <time>2023-10-01T10:37:30.000Z</time>
      </trkpt>
      <trkpt lat="45.00607" lon="5.81397">
        <ele>1557.4000244141</ele>
        <time>2023-10-01T10:37:31.000Z</time>
      </trkpt>
      <trkpt lat="45.00606" lon="5.81396">
        <ele>1557.1999511719</ele>
        <time>2023-10-01T10:37:32.000Z</time>
      </trkpt>
      <trkpt lat="45.00604" lon="5.81395">
        <ele>1556.8000488281</ele>
        <time>2023-10-01T10:37:33.000Z</time>
      </trkpt>
      <trkpt lat="45.00603" lon="5.81394">
        <ele>1556.4000244141</ele>
        <time>2023-10-01T10:37:34.000Z</time>
      </trkpt>
      <trkpt lat="45.00601" lon="5.81393">
        <ele>1556.1999511719</ele>
        <time>2023-10-01T10:37:35.000Z</time>
      </trkpt>
      <trkpt lat="45.006" lon="5.81392">
        <ele>1556</ele>
        <time>2023-10-01T10:37:36.000Z</time>
      </trkpt>
      <trkpt lat="45.00599" lon="5.81391">
        <ele>1555.8000488281</ele>
        <time>2023-10-01T10:37:37.000Z</time>
      </trkpt>
      <trkpt lat="45.00597" lon="5.8139">
        <ele>1555.5999755859</ele>
        <time>2023-10-01T10:37:38.000Z</time>
      </trkpt>
      <trkpt lat="45.00596" lon="5.81389">
        <ele>1555.1999511719</ele>
        <time>2023-10-01T10:37:39.000Z</time>
      </trkpt>
      <trkpt lat="45.00595" lon="5.81389">
        <ele>1555</ele>
        <time>2023-10-01T10:37:40.000Z</time>
      </trkpt>
      <trkpt lat="45.00594" lon="5.81388">
        <ele>1554.5999755859</ele>
        <time>2023-10-01T10:37:41.000Z</time>
      </trkpt>
      <trkpt lat="45.00592" lon="5.81387">
        <ele>1554.1999511719</ele>
        <time>2023-10-01T10:37:42.000Z</time>
      </trkpt>
      <trkpt lat="45.00591" lon="5.81386">
        <ele>1554.1999511719</ele>
        <time>2023-10-01T10:37:43.000Z</time>
      </trkpt>
      <trkpt lat="45.00589" lon="5.81386">
        <ele>1554</ele>
        <time>2023-10-01T10:37:44.000Z</time>
      </trkpt>
      <trkpt lat="45.00588" lon="5.81385">
        <ele>1553.4000244141</ele>
        <time>2023-10-01T10:37:45.000Z</time>
      </trkpt>
      <trkpt lat="45.00587" lon="5.81384">
        <ele>1553</ele>
        <time>2023-10-01T10:37:46.000Z</time>
      </trkpt>
      <trkpt lat="45.00586" lon="5.81383">
        <ele>1552.5999755859</ele>
        <time>2023-10-01T10:37:47.000Z</time>
      </trkpt>
      <trkpt lat="45.00585" lon="5.81382">
        <ele>1552.4000244141</ele>
        <time>2023-10-01T10:37:48.000Z</time>
      </trkpt>
      <trkpt lat="45.00584" lon="5.81381">
        <ele>1552.1999511719</ele>
        <time>2023-10-01T10:37:49.000Z</time>
      </trkpt>
      <trkpt lat="45.00583" lon="5.8138">
        <ele>1551.8000488281</ele>
        <time>2023-10-01T10:37:50.000Z</time>
      </trkpt>
      <trkpt lat="45.00583" lon="5.81379">
        <ele>1551.5999755859</ele>
        <time>2023-10-01T10:37:51.000Z</time>
      </trkpt>
      <trkpt lat="45.00581" lon="5.81379">
        <ele>1551</ele>
        <time>2023-10-01T10:37:52.000Z</time>
      </trkpt>
      <trkpt lat="45.0058" lon="5.81378">
        <ele>1550.5999755859</ele>
        <time>2023-10-01T10:37:53.000Z</time>
      </trkpt>
      <trkpt lat="45.00579" lon="5.81377">
        <ele>1550.4000244141</ele>
        <time>2023-10-01T10:37:54.000Z</time>
      </trkpt>
      <trkpt lat="45.00578" lon="5.81377">
        <ele>1550.1999511719</ele>
        <time>2023-10-01T10:37:55.000Z</time>
      </trkpt>
      <trkpt lat="45.00578" lon="5.81376">
        <ele>1549.8000488281</ele>
        <time>2023-10-01T10:37:56.000Z</time>
      </trkpt>
      <trkpt lat="45.00577" lon="5.81375">
        <ele>1549.5999755859</ele>
        <time>2023-10-01T10:37:57.000Z</time>
      </trkpt>
      <trkpt lat="45.00576" lon="5.81375">
        <ele>1549</ele>
        <time>2023-10-01T10:37:58.000Z</time>
      </trkpt>
      <trkpt lat="45.00575" lon="5.81374">
        <ele>1548.8000488281</ele>
        <time>2023-10-01T10:37:59.000Z</time>
      </trkpt>
      <trkpt lat="45.00574" lon="5.81373">
        <ele>1548.5999755859</ele>
        <time>2023-10-01T10:38:00.000Z</time>
      </trkpt>
      <trkpt lat="45.00572" lon="5.81373">
        <ele>1548.4000244141</ele>
        <time>2023-10-01T10:38:01.000Z</time>
      </trkpt>
      <trkpt lat="45.00571" lon="5.81372">
        <ele>1548.1999511719</ele>
        <time>2023-10-01T10:38:02.000Z</time>
      </trkpt>
      <trkpt lat="45.00569" lon="5.81372">
        <ele>1547.8000488281</ele>
        <time>2023-10-01T10:38:03.000Z</time>
      </trkpt>
      <trkpt lat="45.00568" lon="5.8137">
        <ele>1547.1999511719</ele>
        <time>2023-10-01T10:38:04.000Z</time>
      </trkpt>
      <trkpt lat="45.00567" lon="5.81369">
        <ele>1547</ele>
        <time>2023-10-01T10:38:05.000Z</time>
      </trkpt>
      <trkpt lat="45.00567" lon="5.81366">
        <ele>1546.5999755859</ele>
        <time>2023-10-01T10:38:06.000Z</time>
      </trkpt>
      <trkpt lat="45.00569" lon="5.81365">
        <ele>1546.1999511719</ele>
        <time>2023-10-01T10:38:07.000Z</time>
      </trkpt>
      <trkpt lat="45.0057" lon="5.81363">
        <ele>1546</ele>
        <time>2023-10-01T10:38:08.000Z</time>
      </trkpt>
      <trkpt lat="45.00572" lon="5.81363">
        <ele>1546</ele>
        <time>2023-10-01T10:38:09.000Z</time>
      </trkpt>
      <trkpt lat="45.00574" lon="5.81362">
        <ele>1545.5999755859</ele>
        <time>2023-10-01T10:38:10.000Z</time>
      </trkpt>
      <trkpt lat="45.00576" lon="5.81363">
        <ele>1545.5999755859</ele>
        <time>2023-10-01T10:38:11.000Z</time>
      </trkpt>
      <trkpt lat="45.00578" lon="5.81363">
        <ele>1545.4000244141</ele>
        <time>2023-10-01T10:38:12.000Z</time>
      </trkpt>
      <trkpt lat="45.00581" lon="5.81364">
        <ele>1545.4000244141</ele>
        <time>2023-10-01T10:38:13.000Z</time>
      </trkpt>
      <trkpt lat="45.00582" lon="5.81364">
        <ele>1545.1999511719</ele>
        <time>2023-10-01T10:38:14.000Z</time>
      </trkpt>
      <trkpt lat="45.00584" lon="5.81365">
        <ele>1545.1999511719</ele>
        <time>2023-10-01T10:38:15.000Z</time>
      </trkpt>
      <trkpt lat="45.00587" lon="5.81365">
        <ele>1545.1999511719</ele>
        <time>2023-10-01T10:38:16.000Z</time>
      </trkpt>
      <trkpt lat="45.00589" lon="5.81366">
        <ele>1545</ele>
        <time>2023-10-01T10:38:17.000Z</time>
      </trkpt>
      <trkpt lat="45.0059" lon="5.81366">
        <ele>1545</ele>
        <time>2023-10-01T10:38:18.000Z</time>
      </trkpt>
      <trkpt lat="45.00592" lon="5.81366">
        <ele>1544.8000488281</ele>
        <time>2023-10-01T10:38:19.000Z</time>
      </trkpt>
      <trkpt lat="45.00594" lon="5.81366">
        <ele>1544.5999755859</ele>
        <time>2023-10-01T10:38:20.000Z</time>
      </trkpt>
      <trkpt lat="45.00595" lon="5.81366">
        <ele>1544.4000244141</ele>
        <time>2023-10-01T10:38:21.000Z</time>
      </trkpt>
      <trkpt lat="45.00597" lon="5.81367">
        <ele>1544.1999511719</ele>
        <time>2023-10-01T10:38:22.000Z</time>
      </trkpt>
      <trkpt lat="45.00598" lon="5.81367">
        <ele>1544</ele>
        <time>2023-10-01T10:38:23.000Z</time>
      </trkpt>
      <trkpt lat="45.006" lon="5.81367">
        <ele>1544</ele>
        <time>2023-10-01T10:38:24.000Z</time>
      </trkpt>
      <trkpt lat="45.00603" lon="5.81367">
        <ele>1543.8000488281</ele>
        <time>2023-10-01T10:38:25.000Z</time>
      </trkpt>
      <trkpt lat="45.00605" lon="5.81367">
        <ele>1543.8000488281</ele>
        <time>2023-10-01T10:38:26.000Z</time>
      </trkpt>
      <trkpt lat="45.00607" lon="5.81368">
        <ele>1543.5999755859</ele>
        <time>2023-10-01T10:38:27.000Z</time>
      </trkpt>
      <trkpt lat="45.00609" lon="5.81369">
        <ele>1543.4000244141</ele>
        <time>2023-10-01T10:38:28.000Z</time>
      </trkpt>
      <trkpt lat="45.00611" lon="5.8137">
        <ele>1543.1999511719</ele>
        <time>2023-10-01T10:38:29.000Z</time>
      </trkpt>
      <trkpt lat="45.00613" lon="5.8137">
        <ele>1543</ele>
        <time>2023-10-01T10:38:30.000Z</time>
      </trkpt>
      <trkpt lat="45.00614" lon="5.8137">
        <ele>1542.8000488281</ele>
        <time>2023-10-01T10:38:31.000Z</time>
      </trkpt>
      <trkpt lat="45.00616" lon="5.81371">
        <ele>1542.5999755859</ele>
        <time>2023-10-01T10:38:32.000Z</time>
      </trkpt>
      <trkpt lat="45.00617" lon="5.8137">
        <ele>1542.5999755859</ele>
        <time>2023-10-01T10:38:33.000Z</time>
      </trkpt>
      <trkpt lat="45.00619" lon="5.8137">
        <ele>1542.1999511719</ele>
        <time>2023-10-01T10:38:34.000Z</time>
      </trkpt>
      <trkpt lat="45.00621" lon="5.8137">
        <ele>1542</ele>
        <time>2023-10-01T10:38:35.000Z</time>
      </trkpt>
      <trkpt lat="45.00623" lon="5.8137">
        <ele>1541.5999755859</ele>
        <time>2023-10-01T10:38:36.000Z</time>
      </trkpt>
      <trkpt lat="45.00625" lon="5.8137">
        <ele>1541.4000244141</ele>
        <time>2023-10-01T10:38:37.000Z</time>
      </trkpt>
      <trkpt lat="45.00627" lon="5.8137">
        <ele>1541.4000244141</ele>
        <time>2023-10-01T10:38:38.000Z</time>
      </trkpt>
      <trkpt lat="45.00629" lon="5.81371">
        <ele>1541.1999511719</ele>
        <time>2023-10-01T10:38:39.000Z</time>
      </trkpt>
      <trkpt lat="45.00631" lon="5.81372">
        <ele>1541</ele>
        <time>2023-10-01T10:38:40.000Z</time>
      </trkpt>
      <trkpt lat="45.00633" lon="5.81373">
        <ele>1540.8000488281</ele>
        <time>2023-10-01T10:38:41.000Z</time>
      </trkpt>
      <trkpt lat="45.00634" lon="5.81373">
        <ele>1540.5999755859</ele>
        <time>2023-10-01T10:38:42.000Z</time>
      </trkpt>
      <trkpt lat="45.00636" lon="5.81374">
        <ele>1540.1999511719</ele>
        <time>2023-10-01T10:38:43.000Z</time>
      </trkpt>
      <trkpt lat="45.00637" lon="5.81374">
        <ele>1539.8000488281</ele>
        <time>2023-10-01T10:38:44.000Z</time>
      </trkpt>
      <trkpt lat="45.00639" lon="5.81374">
        <ele>1539.5999755859</ele>
        <time>2023-10-01T10:38:45.000Z</time>
      </trkpt>
      <trkpt lat="45.00641" lon="5.81374">
        <ele>1539.4000244141</ele>
        <time>2023-10-01T10:38:46.000Z</time>
      </trkpt>
      <trkpt lat="45.00643" lon="5.81374">
        <ele>1539.1999511719</ele>
        <time>2023-10-01T10:38:47.000Z</time>
      </trkpt>
      <trkpt lat="45.00645" lon="5.81374">
        <ele>1539</ele>
        <time>2023-10-01T10:38:48.000Z</time>
      </trkpt>
      <trkpt lat="45.00647" lon="5.81374">
        <ele>1538.8000488281</ele>
        <time>2023-10-01T10:38:49.000Z</time>
      </trkpt>
      <trkpt lat="45.00648" lon="5.81374">
        <ele>1538.5999755859</ele>
        <time>2023-10-01T10:38:50.000Z</time>
      </trkpt>
      <trkpt lat="45.0065" lon="5.81375">
        <ele>1538.5999755859</ele>
        <time>2023-10-01T10:38:51.000Z</time>
      </trkpt>
      <trkpt lat="45.00652" lon="5.81375">
        <ele>1538.4000244141</ele>
        <time>2023-10-01T10:38:52.000Z</time>
      </trkpt>
      <trkpt lat="45.00654" lon="5.81375">
        <ele>1538.1999511719</ele>
        <time>2023-10-01T10:38:53.000Z</time>
      </trkpt>
      <trkpt lat="45.00656" lon="5.81376">
        <ele>1538</ele>
        <time>2023-10-01T10:38:54.000Z</time>
      </trkpt>
      <trkpt lat="45.00658" lon="5.81376">
        <ele>1537.5999755859</ele>
        <time>2023-10-01T10:38:55.000Z</time>
      </trkpt>
      <trkpt lat="45.0066" lon="5.81376">
        <ele>1537.4000244141</ele>
        <time>2023-10-01T10:38:56.000Z</time>
      </trkpt>
      <trkpt lat="45.00662" lon="5.81376">
        <ele>1537.1999511719</ele>
        <time>2023-10-01T10:38:57.000Z</time>
      </trkpt>
      <trkpt lat="45.00664" lon="5.81376">
        <ele>1536.8000488281</ele>
        <time>2023-10-01T10:38:58.000Z</time>
      </trkpt>
      <trkpt lat="45.00666" lon="5.81376">
        <ele>1536.8000488281</ele>
        <time>2023-10-01T10:38:59.000Z</time>
      </trkpt>
      <trkpt lat="45.00668" lon="5.81377">
        <ele>1536.5999755859</ele>
        <time>2023-10-01T10:39:00.000Z</time>
      </trkpt>
      <trkpt lat="45.0067" lon="5.81376">
        <ele>1536.4000244141</ele>
        <time>2023-10-01T10:39:01.000Z</time>
      </trkpt>
      <trkpt lat="45.00672" lon="5.81376">
        <ele>1536</ele>
        <time>2023-10-01T10:39:02.000Z</time>
      </trkpt>
      <trkpt lat="45.00674" lon="5.81377">
        <ele>1535.5999755859</ele>
        <time>2023-10-01T10:39:03.000Z</time>
      </trkpt>
      <trkpt lat="45.00676" lon="5.81377">
        <ele>1535.1999511719</ele>
        <time>2023-10-01T10:39:04.000Z</time>
      </trkpt>
      <trkpt lat="45.00678" lon="5.81377">
        <ele>1535</ele>
        <time>2023-10-01T10:39:05.000Z</time>
      </trkpt>
      <trkpt lat="45.0068" lon="5.81377">
        <ele>1534.8000488281</ele>
        <time>2023-10-01T10:39:06.000Z</time>
      </trkpt>
      <trkpt lat="45.00682" lon="5.81377">
        <ele>1534.8000488281</ele>
        <time>2023-10-01T10:39:07.000Z</time>
      </trkpt>
      <trkpt lat="45.00684" lon="5.81378">
        <ele>1534.5999755859</ele>
        <time>2023-10-01T10:39:08.000Z</time>
      </trkpt>
      <trkpt lat="45.00686" lon="5.81377">
        <ele>1534.4000244141</ele>
        <time>2023-10-01T10:39:09.000Z</time>
      </trkpt>
      <trkpt lat="45.00688" lon="5.81377">
        <ele>1534</ele>
        <time>2023-10-01T10:39:10.000Z</time>
      </trkpt>
      <trkpt lat="45.0069" lon="5.81376">
        <ele>1533.4000244141</ele>
        <time>2023-10-01T10:39:11.000Z</time>
      </trkpt>
      <trkpt lat="45.00692" lon="5.81376">
        <ele>1533.4000244141</ele>
        <time>2023-10-01T10:39:12.000Z</time>
      </trkpt>
      <trkpt lat="45.00693" lon="5.81377">
        <ele>1533</ele>
        <time>2023-10-01T10:39:13.000Z</time>
      </trkpt>
      <trkpt lat="45.00695" lon="5.81376">
        <ele>1532.5999755859</ele>
        <time>2023-10-01T10:39:14.000Z</time>
      </trkpt>
      <trkpt lat="45.00697" lon="5.81377">
        <ele>1532.4000244141</ele>
        <time>2023-10-01T10:39:15.000Z</time>
      </trkpt>
      <trkpt lat="45.00699" lon="5.81377">
        <ele>1532</ele>
        <time>2023-10-01T10:39:16.000Z</time>
      </trkpt>
      <trkpt lat="45.007" lon="5.81378">
        <ele>1531.5999755859</ele>
        <time>2023-10-01T10:39:17.000Z</time>
      </trkpt>
      <trkpt lat="45.00702" lon="5.81379">
        <ele>1531.4000244141</ele>
        <time>2023-10-01T10:39:18.000Z</time>
      </trkpt>
      <trkpt lat="45.00703" lon="5.81379">
        <ele>1531</ele>
        <time>2023-10-01T10:39:19.000Z</time>
      </trkpt>
      <trkpt lat="45.00704" lon="5.8138">
        <ele>1530.8000488281</ele>
        <time>2023-10-01T10:39:20.000Z</time>
      </trkpt>
      <trkpt lat="45.00706" lon="5.81381">
        <ele>1530.5999755859</ele>
        <time>2023-10-01T10:39:21.000Z</time>
      </trkpt>
      <trkpt lat="45.00708" lon="5.81381">
        <ele>1530.5999755859</ele>
        <time>2023-10-01T10:39:22.000Z</time>
      </trkpt>
      <trkpt lat="45.00709" lon="5.81381">
        <ele>1530.1999511719</ele>
        <time>2023-10-01T10:39:23.000Z</time>
      </trkpt>
      <trkpt lat="45.00709" lon="5.81381">
        <ele>1530</ele>
        <time>2023-10-01T10:39:24.000Z</time>
      </trkpt>
      <trkpt lat="45.00709" lon="5.81381">
        <ele>1529.8000488281</ele>
        <time>2023-10-01T10:39:25.000Z</time>
      </trkpt>
      <trkpt lat="45.00709" lon="5.81381">
        <ele>1529.4000244141</ele>
        <time>2023-10-01T10:39:26.000Z</time>
      </trkpt>
      <trkpt lat="45.00709" lon="5.81381">
        <ele>1529.1999511719</ele>
        <time>2023-10-01T10:39:27.000Z</time>
      </trkpt>
      <trkpt lat="45.0071" lon="5.8138">
        <ele>1529.1999511719</ele>
        <time>2023-10-01T10:39:28.000Z</time>
      </trkpt>
      <trkpt lat="45.0071" lon="5.81381">
        <ele>1529</ele>
        <time>2023-10-01T10:39:29.000Z</time>
      </trkpt>
      <trkpt lat="45.00712" lon="5.81381">
        <ele>1529</ele>
        <time>2023-10-01T10:39:30.000Z</time>
      </trkpt>
      <trkpt lat="45.00714" lon="5.81382">
        <ele>1529</ele>
        <time>2023-10-01T10:39:31.000Z</time>
      </trkpt>
      <trkpt lat="45.00716" lon="5.81382">
        <ele>1529</ele>
        <time>2023-10-01T10:39:32.000Z</time>
      </trkpt>
      <trkpt lat="45.00718" lon="5.81382">
        <ele>1529</ele>
        <time>2023-10-01T10:39:33.000Z</time>
      </trkpt>
      <trkpt lat="45.00719" lon="5.81382">
        <ele>1528.8000488281</ele>
        <time>2023-10-01T10:39:34.000Z</time>
      </trkpt>
      <trkpt lat="45.0072" lon="5.81382">
        <ele>1528.5999755859</ele>
        <time>2023-10-01T10:39:35.000Z</time>
      </trkpt>
      <trkpt lat="45.00722" lon="5.81382">
        <ele>1528.4000244141</ele>
        <time>2023-10-01T10:39:36.000Z</time>
      </trkpt>
      <trkpt lat="45.00723" lon="5.81381">
        <ele>1528.4000244141</ele>
        <time>2023-10-01T10:39:37.000Z</time>
      </trkpt>
      <trkpt lat="45.00725" lon="5.8138">
        <ele>1528</ele>
        <time>2023-10-01T10:39:38.000Z</time>
      </trkpt>
      <trkpt lat="45.00726" lon="5.81379">
        <ele>1528</ele>
        <time>2023-10-01T10:39:39.000Z</time>
      </trkpt>
      <trkpt lat="45.00727" lon="5.81378">
        <ele>1527.5999755859</ele>
        <time>2023-10-01T10:39:40.000Z</time>
      </trkpt>
      <trkpt lat="45.00727" lon="5.81378">
        <ele>1527.5999755859</ele>
        <time>2023-10-01T10:39:41.000Z</time>
      </trkpt>
      <trkpt lat="45.00728" lon="5.81376">
        <ele>1527.4000244141</ele>
        <time>2023-10-01T10:39:42.000Z</time>
      </trkpt>
      <trkpt lat="45.00728" lon="5.81376">
        <ele>1527.1999511719</ele>
        <time>2023-10-01T10:39:43.000Z</time>
      </trkpt>
      <trkpt lat="45.00729" lon="5.81375">
        <ele>1527</ele>
        <time>2023-10-01T10:39:44.000Z</time>
      </trkpt>
      <trkpt lat="45.0073" lon="5.81375">
        <ele>1526.8000488281</ele>
        <time>2023-10-01T10:39:45.000Z</time>
      </trkpt>
      <trkpt lat="45.00731" lon="5.81375">
        <ele>1526.8000488281</ele>
        <time>2023-10-01T10:39:46.000Z</time>
      </trkpt>
      <trkpt lat="45.00731" lon="5.81375">
        <ele>1526.8000488281</ele>
        <time>2023-10-01T10:39:47.000Z</time>
      </trkpt>
      <trkpt lat="45.00732" lon="5.81375">
        <ele>1526.8000488281</ele>
        <time>2023-10-01T10:39:48.000Z</time>
      </trkpt>
      <trkpt lat="45.00732" lon="5.81374">
        <ele>1526.8000488281</ele>
        <time>2023-10-01T10:39:49.000Z</time>
      </trkpt>
      <trkpt lat="45.00732" lon="5.81373">
        <ele>1526.5999755859</ele>
        <time>2023-10-01T10:39:50.000Z</time>
      </trkpt>
      <trkpt lat="45.00733" lon="5.81373">
        <ele>1526.5999755859</ele>
        <time>2023-10-01T10:39:51.000Z</time>
      </trkpt>
      <trkpt lat="45.00733" lon="5.81373">
        <ele>1526.5999755859</ele>
        <time>2023-10-01T10:39:52.000Z</time>
      </trkpt>
      <trkpt lat="45.00733" lon="5.81372">
        <ele>1526.4000244141</ele>
        <time>2023-10-01T10:39:53.000Z</time>
      </trkpt>
      <trkpt lat="45.00733" lon="5.81373">
        <ele>1526.4000244141</ele>
        <time>2023-10-01T10:39:54.000Z</time>
      </trkpt>
      <trkpt lat="45.00733" lon="5.81372">
        <ele>1526.1999511719</ele>
        <time>2023-10-01T10:39:55.000Z</time>
      </trkpt>
      <trkpt lat="45.00733" lon="5.81372">
        <ele>1526.1999511719</ele>
        <time>2023-10-01T10:39:56.000Z</time>
      </trkpt>
      <trkpt lat="45.00734" lon="5.81371">
        <ele>1526.1999511719</ele>
        <time>2023-10-01T10:39:57.000Z</time>
      </trkpt>
      <trkpt lat="45.00735" lon="5.8137">
        <ele>1526.1999511719</ele>
        <time>2023-10-01T10:39:58.000Z</time>
      </trkpt>
      <trkpt lat="45.00735" lon="5.81369">
        <ele>1526</ele>
        <time>2023-10-01T10:39:59.000Z</time>
      </trkpt>
      <trkpt lat="45.00736" lon="5.81368">
        <ele>1525.8000488281</ele>
        <time>2023-10-01T10:40:00.000Z</time>
      </trkpt>
      <trkpt lat="45.00737" lon="5.81367">
        <ele>1525.5999755859</ele>
        <time>2023-10-01T10:40:01.000Z</time>
      </trkpt>
      <trkpt lat="45.00737" lon="5.81366">
        <ele>1525.5999755859</ele>
        <time>2023-10-01T10:40:02.000Z</time>
      </trkpt>
      <trkpt lat="45.00738" lon="5.81365">
        <ele>1525.4000244141</ele>
        <time>2023-10-01T10:40:03.000Z</time>
      </trkpt>
      <trkpt lat="45.00739" lon="5.81364">
        <ele>1525.1999511719</ele>
        <time>2023-10-01T10:40:04.000Z</time>
      </trkpt>
      <trkpt lat="45.0074" lon="5.81363">
        <ele>1525</ele>
        <time>2023-10-01T10:40:05.000Z</time>
      </trkpt>
      <trkpt lat="45.00741" lon="5.81362">
        <ele>1524.8000488281</ele>
        <time>2023-10-01T10:40:06.000Z</time>
      </trkpt>
      <trkpt lat="45.00742" lon="5.81361">
        <ele>1524.5999755859</ele>
        <time>2023-10-01T10:40:07.000Z</time>
      </trkpt>
      <trkpt lat="45.00743" lon="5.8136">
        <ele>1524.1999511719</ele>
        <time>2023-10-01T10:40:08.000Z</time>
      </trkpt>
      <trkpt lat="45.00745" lon="5.81359">
        <ele>1524</ele>
        <time>2023-10-01T10:40:09.000Z</time>
      </trkpt>
      <trkpt lat="45.00745" lon="5.81358">
        <ele>1523.5999755859</ele>
        <time>2023-10-01T10:40:10.000Z</time>
      </trkpt>
      <trkpt lat="45.00746" lon="5.81357">
        <ele>1523.4000244141</ele>
        <time>2023-10-01T10:40:11.000Z</time>
      </trkpt>
      <trkpt lat="45.00747" lon="5.81356">
        <ele>1523.1999511719</ele>
        <time>2023-10-01T10:40:12.000Z</time>
      </trkpt>
      <trkpt lat="45.00748" lon="5.81355">
        <ele>1523</ele>
        <time>2023-10-01T10:40:13.000Z</time>
      </trkpt>
      <trkpt lat="45.00749" lon="5.81354">
        <ele>1522.5999755859</ele>
        <time>2023-10-01T10:40:14.000Z</time>
      </trkpt>
      <trkpt lat="45.00751" lon="5.81352">
        <ele>1522.5999755859</ele>
        <time>2023-10-01T10:40:15.000Z</time>
      </trkpt>
      <trkpt lat="45.00752" lon="5.81351">
        <ele>1522.4000244141</ele>
        <time>2023-10-01T10:40:16.000Z</time>
      </trkpt>
      <trkpt lat="45.00753" lon="5.8135">
        <ele>1522</ele>
        <time>2023-10-01T10:40:17.000Z</time>
      </trkpt>
      <trkpt lat="45.00754" lon="5.81349">
        <ele>1521.8000488281</ele>
        <time>2023-10-01T10:40:18.000Z</time>
      </trkpt>
      <trkpt lat="45.00756" lon="5.81347">
        <ele>1521.5999755859</ele>
        <time>2023-10-01T10:40:19.000Z</time>
      </trkpt>
      <trkpt lat="45.00757" lon="5.81346">
        <ele>1521.4000244141</ele>
        <time>2023-10-01T10:40:20.000Z</time>
      </trkpt>
      <trkpt lat="45.00758" lon="5.81345">
        <ele>1521.1999511719</ele>
        <time>2023-10-01T10:40:21.000Z</time>
      </trkpt>
      <trkpt lat="45.00759" lon="5.81343">
        <ele>1521</ele>
        <time>2023-10-01T10:40:22.000Z</time>
      </trkpt>
      <trkpt lat="45.0076" lon="5.81342">
        <ele>1521</ele>
        <time>2023-10-01T10:40:23.000Z</time>
      </trkpt>
      <trkpt lat="45.00761" lon="5.81341">
        <ele>1520.8000488281</ele>
        <time>2023-10-01T10:40:24.000Z</time>
      </trkpt>
      <trkpt lat="45.00762" lon="5.8134">
        <ele>1520.5999755859</ele>
        <time>2023-10-01T10:40:25.000Z</time>
      </trkpt>
      <trkpt lat="45.00764" lon="5.81339">
        <ele>1520.4000244141</ele>
        <time>2023-10-01T10:40:26.000Z</time>
      </trkpt>
      <trkpt lat="45.00765" lon="5.81338">
        <ele>1520</ele>
        <time>2023-10-01T10:40:27.000Z</time>
      </trkpt>
      <trkpt lat="45.00766" lon="5.81336">
        <ele>1520</ele>
        <time>2023-10-01T10:40:28.000Z</time>
      </trkpt>
      <trkpt lat="45.00767" lon="5.81335">
        <ele>1519.5999755859</ele>
        <time>2023-10-01T10:40:29.000Z</time>
      </trkpt>
      <trkpt lat="45.00768" lon="5.81334">
        <ele>1519.4000244141</ele>
        <time>2023-10-01T10:40:30.000Z</time>
      </trkpt>
      <trkpt lat="45.00769" lon="5.81333">
        <ele>1519.1999511719</ele>
        <time>2023-10-01T10:40:31.000Z</time>
      </trkpt>
      <trkpt lat="45.0077" lon="5.81332">
        <ele>1519</ele>
        <time>2023-10-01T10:40:32.000Z</time>
      </trkpt>
      <trkpt lat="45.00771" lon="5.8133">
        <ele>1518.8000488281</ele>
        <time>2023-10-01T10:40:33.000Z</time>
      </trkpt>
      <trkpt lat="45.00772" lon="5.81329">
        <ele>1518.8000488281</ele>
        <time>2023-10-01T10:40:34.000Z</time>
      </trkpt>
      <trkpt lat="45.00773" lon="5.81328">
        <ele>1518.5999755859</ele>
        <time>2023-10-01T10:40:35.000Z</time>
      </trkpt>
      <trkpt lat="45.00774" lon="5.81327">
        <ele>1518.4000244141</ele>
        <time>2023-10-01T10:40:36.000Z</time>
      </trkpt>
      <trkpt lat="45.00775" lon="5.81326">
        <ele>1518</ele>
        <time>2023-10-01T10:40:37.000Z</time>
      </trkpt>
      <trkpt lat="45.00777" lon="5.81325">
        <ele>1518</ele>
        <time>2023-10-01T10:40:38.000Z</time>
      </trkpt>
      <trkpt lat="45.00778" lon="5.81324">
        <ele>1517.8000488281</ele>
        <time>2023-10-01T10:40:39.000Z</time>
      </trkpt>
      <trkpt lat="45.0078" lon="5.81323">
        <ele>1517.5999755859</ele>
        <time>2023-10-01T10:40:40.000Z</time>
      </trkpt>
      <trkpt lat="45.00781" lon="5.81322">
        <ele>1517.4000244141</ele>
        <time>2023-10-01T10:40:41.000Z</time>
      </trkpt>
      <trkpt lat="45.00782" lon="5.81321">
        <ele>1517.1999511719</ele>
        <time>2023-10-01T10:40:42.000Z</time>
      </trkpt>
      <trkpt lat="45.00783" lon="5.8132">
        <ele>1517</ele>
        <time>2023-10-01T10:40:43.000Z</time>
      </trkpt>
      <trkpt lat="45.00785" lon="5.81318">
        <ele>1516.8000488281</ele>
        <time>2023-10-01T10:40:44.000Z</time>
      </trkpt>
      <trkpt lat="45.00786" lon="5.81318">
        <ele>1516.4000244141</ele>
        <time>2023-10-01T10:40:45.000Z</time>
      </trkpt>
      <trkpt lat="45.00788" lon="5.81317">
        <ele>1516.4000244141</ele>
        <time>2023-10-01T10:40:46.000Z</time>
      </trkpt>
      <trkpt lat="45.00789" lon="5.81316">
        <ele>1516.1999511719</ele>
        <time>2023-10-01T10:40:47.000Z</time>
      </trkpt>
      <trkpt lat="45.0079" lon="5.81315">
        <ele>1516</ele>
        <time>2023-10-01T10:40:48.000Z</time>
      </trkpt>
      <trkpt lat="45.00792" lon="5.81314">
        <ele>1515.8000488281</ele>
        <time>2023-10-01T10:40:49.000Z</time>
      </trkpt>
      <trkpt lat="45.00793" lon="5.81313">
        <ele>1515.5999755859</ele>
        <time>2023-10-01T10:40:50.000Z</time>
      </trkpt>
      <trkpt lat="45.00794" lon="5.81312">
        <ele>1515.4000244141</ele>
        <time>2023-10-01T10:40:51.000Z</time>
      </trkpt>
      <trkpt lat="45.00796" lon="5.81311">
        <ele>1515.1999511719</ele>
        <time>2023-10-01T10:40:52.000Z</time>
      </trkpt>
      <trkpt lat="45.00797" lon="5.8131">
        <ele>1515</ele>
        <time>2023-10-01T10:40:53.000Z</time>
      </trkpt>
      <trkpt lat="45.00798" lon="5.81309">
        <ele>1514.8000488281</ele>
        <time>2023-10-01T10:40:54.000Z</time>
      </trkpt>
      <trkpt lat="45.008" lon="5.81309">
        <ele>1514.5999755859</ele>
        <time>2023-10-01T10:40:55.000Z</time>
      </trkpt>
      <trkpt lat="45.00801" lon="5.81308">
        <ele>1514.4000244141</ele>
        <time>2023-10-01T10:40:56.000Z</time>
      </trkpt>
      <trkpt lat="45.00802" lon="5.81307">
        <ele>1514.1999511719</ele>
        <time>2023-10-01T10:40:57.000Z</time>
      </trkpt>
      <trkpt lat="45.00804" lon="5.81307">
        <ele>1514</ele>
        <time>2023-10-01T10:40:58.000Z</time>
      </trkpt>
      <trkpt lat="45.00805" lon="5.81306">
        <ele>1513.8000488281</ele>
        <time>2023-10-01T10:40:59.000Z</time>
      </trkpt>
      <trkpt lat="45.00807" lon="5.81305">
        <ele>1513.5999755859</ele>
        <time>2023-10-01T10:41:00.000Z</time>
      </trkpt>
      <trkpt lat="45.00808" lon="5.81305">
        <ele>1513.5999755859</ele>
        <time>2023-10-01T10:41:01.000Z</time>
      </trkpt>
      <trkpt lat="45.0081" lon="5.81304">
        <ele>1513.4000244141</ele>
        <time>2023-10-01T10:41:02.000Z</time>
      </trkpt>
      <trkpt lat="45.0081" lon="5.81303">
        <ele>1513.4000244141</ele>
        <time>2023-10-01T10:41:03.000Z</time>
      </trkpt>
      <trkpt lat="45.00812" lon="5.81303">
        <ele>1513</ele>
        <time>2023-10-01T10:41:04.000Z</time>
      </trkpt>
      <trkpt lat="45.00813" lon="5.81302">
        <ele>1512.8000488281</ele>
        <time>2023-10-01T10:41:05.000Z</time>
      </trkpt>
      <trkpt lat="45.00815" lon="5.81301">
        <ele>1512.5999755859</ele>
        <time>2023-10-01T10:41:06.000Z</time>
      </trkpt>
      <trkpt lat="45.00816" lon="5.81301">
        <ele>1512.4000244141</ele>
        <time>2023-10-01T10:41:07.000Z</time>
      </trkpt>
      <trkpt lat="45.00817" lon="5.813">
        <ele>1512.4000244141</ele>
        <time>2023-10-01T10:41:08.000Z</time>
      </trkpt>
      <trkpt lat="45.00818" lon="5.813">
        <ele>1512</ele>
        <time>2023-10-01T10:41:09.000Z</time>
      </trkpt>
      <trkpt lat="45.00819" lon="5.81299">
        <ele>1511.8000488281</ele>
        <time>2023-10-01T10:41:10.000Z</time>
      </trkpt>
      <trkpt lat="45.00821" lon="5.81299">
        <ele>1511.5999755859</ele>
        <time>2023-10-01T10:41:11.000Z</time>
      </trkpt>
      <trkpt lat="45.00822" lon="5.81298">
        <ele>1511.4000244141</ele>
        <time>2023-10-01T10:41:12.000Z</time>
      </trkpt>
      <trkpt lat="45.00824" lon="5.81297">
        <ele>1511.4000244141</ele>
        <time>2023-10-01T10:41:13.000Z</time>
      </trkpt>
      <trkpt lat="45.00825" lon="5.81296">
        <ele>1511.1999511719</ele>
        <time>2023-10-01T10:41:14.000Z</time>
      </trkpt>
      <trkpt lat="45.00826" lon="5.81296">
        <ele>1511</ele>
        <time>2023-10-01T10:41:15.000Z</time>
      </trkpt>
      <trkpt lat="45.00828" lon="5.81295">
        <ele>1510.8000488281</ele>
        <time>2023-10-01T10:41:16.000Z</time>
      </trkpt>
      <trkpt lat="45.00829" lon="5.81294">
        <ele>1510.5999755859</ele>
        <time>2023-10-01T10:41:17.000Z</time>
      </trkpt>
      <trkpt lat="45.0083" lon="5.81293">
        <ele>1510.4000244141</ele>
        <time>2023-10-01T10:41:18.000Z</time>
      </trkpt>
      <trkpt lat="45.00832" lon="5.81292">
        <ele>1510.1999511719</ele>
        <time>2023-10-01T10:41:19.000Z</time>
      </trkpt>
      <trkpt lat="45.00833" lon="5.81291">
        <ele>1510</ele>
        <time>2023-10-01T10:41:20.000Z</time>
      </trkpt>
      <trkpt lat="45.00834" lon="5.81291">
        <ele>1509.4000244141</ele>
        <time>2023-10-01T10:41:21.000Z</time>
      </trkpt>
      <trkpt lat="45.00835" lon="5.8129">
        <ele>1509.1999511719</ele>
        <time>2023-10-01T10:41:22.000Z</time>
      </trkpt>
      <trkpt lat="45.00836" lon="5.81289">
        <ele>1508.8000488281</ele>
        <time>2023-10-01T10:41:23.000Z</time>
      </trkpt>
      <trkpt lat="45.00838" lon="5.81289">
        <ele>1508.5999755859</ele>
        <time>2023-10-01T10:41:24.000Z</time>
      </trkpt>
      <trkpt lat="45.00839" lon="5.81288">
        <ele>1508.4000244141</ele>
        <time>2023-10-01T10:41:25.000Z</time>
      </trkpt>
      <trkpt lat="45.0084" lon="5.81287">
        <ele>1508.1999511719</ele>
        <time>2023-10-01T10:41:26.000Z</time>
      </trkpt>
      <trkpt lat="45.00841" lon="5.81286">
        <ele>1508</ele>
        <time>2023-10-01T10:41:27.000Z</time>
      </trkpt>
      <trkpt lat="45.00843" lon="5.81286">
        <ele>1507.5999755859</ele>
        <time>2023-10-01T10:41:28.000Z</time>
      </trkpt>
      <trkpt lat="45.00844" lon="5.81285">
        <ele>1507.4000244141</ele>
        <time>2023-10-01T10:41:29.000Z</time>
      </trkpt>
      <trkpt lat="45.00845" lon="5.81284">
        <ele>1507.1999511719</ele>
        <time>2023-10-01T10:41:30.000Z</time>
      </trkpt>
      <trkpt lat="45.00846" lon="5.81283">
        <ele>1507</ele>
        <time>2023-10-01T10:41:31.000Z</time>
      </trkpt>
      <trkpt lat="45.00848" lon="5.81282">
        <ele>1506.8000488281</ele>
        <time>2023-10-01T10:41:32.000Z</time>
      </trkpt>
      <trkpt lat="45.00849" lon="5.81281">
        <ele>1506.4000244141</ele>
        <time>2023-10-01T10:41:33.000Z</time>
      </trkpt>
      <trkpt lat="45.0085" lon="5.81281">
        <ele>1506.1999511719</ele>
        <time>2023-10-01T10:41:34.000Z</time>
      </trkpt>
      <trkpt lat="45.00852" lon="5.8128">
        <ele>1505.8000488281</ele>
        <time>2023-10-01T10:41:35.000Z</time>
      </trkpt>
      <trkpt lat="45.00853" lon="5.81279">
        <ele>1505.4000244141</ele>
        <time>2023-10-01T10:41:36.000Z</time>
      </trkpt>
      <trkpt lat="45.00855" lon="5.81279">
        <ele>1505.1999511719</ele>
        <time>2023-10-01T10:41:37.000Z</time>
      </trkpt>
      <trkpt lat="45.00856" lon="5.81278">
        <ele>1505</ele>
        <time>2023-10-01T10:41:38.000Z</time>
      </trkpt>
      <trkpt lat="45.00857" lon="5.81277">
        <ele>1504.8000488281</ele>
        <time>2023-10-01T10:41:39.000Z</time>
      </trkpt>
      <trkpt lat="45.00858" lon="5.81277">
        <ele>1504.4000244141</ele>
        <time>2023-10-01T10:41:40.000Z</time>
      </trkpt>
      <trkpt lat="45.00859" lon="5.81276">
        <ele>1504.1999511719</ele>
        <time>2023-10-01T10:41:41.000Z</time>
      </trkpt>
      <trkpt lat="45.00861" lon="5.81275">
        <ele>1504</ele>
        <time>2023-10-01T10:41:42.000Z</time>
      </trkpt>
      <trkpt lat="45.00862" lon="5.81274">
        <ele>1503.8000488281</ele>
        <time>2023-10-01T10:41:43.000Z</time>
      </trkpt>
      <trkpt lat="45.00864" lon="5.81274">
        <ele>1503.5999755859</ele>
        <time>2023-10-01T10:41:44.000Z</time>
      </trkpt>
      <trkpt lat="45.00866" lon="5.81273">
        <ele>1503.4000244141</ele>
        <time>2023-10-01T10:41:45.000Z</time>
      </trkpt>
      <trkpt lat="45.00867" lon="5.81273">
        <ele>1503</ele>
        <time>2023-10-01T10:41:46.000Z</time>
      </trkpt>
      <trkpt lat="45.00868" lon="5.81272">
        <ele>1502.8000488281</ele>
        <time>2023-10-01T10:41:47.000Z</time>
      </trkpt>
      <trkpt lat="45.0087" lon="5.81271">
        <ele>1502.8000488281</ele>
        <time>2023-10-01T10:41:48.000Z</time>
      </trkpt>
      <trkpt lat="45.00871" lon="5.81271">
        <ele>1502.5999755859</ele>
        <time>2023-10-01T10:41:49.000Z</time>
      </trkpt>
      <trkpt lat="45.00872" lon="5.81271">
        <ele>1502.4000244141</ele>
        <time>2023-10-01T10:41:50.000Z</time>
      </trkpt>
      <trkpt lat="45.00873" lon="5.81271">
        <ele>1502.1999511719</ele>
        <time>2023-10-01T10:41:51.000Z</time>
      </trkpt>
      <trkpt lat="45.00875" lon="5.8127">
        <ele>1502</ele>
        <time>2023-10-01T10:41:52.000Z</time>
      </trkpt>
      <trkpt lat="45.00876" lon="5.8127">
        <ele>1501.8000488281</ele>
        <time>2023-10-01T10:41:53.000Z</time>
      </trkpt>
      <trkpt lat="45.00878" lon="5.81269">
        <ele>1501.5999755859</ele>
        <time>2023-10-01T10:41:54.000Z</time>
      </trkpt>
      <trkpt lat="45.00879" lon="5.81269">
        <ele>1501.5999755859</ele>
        <time>2023-10-01T10:41:55.000Z</time>
      </trkpt>
      <trkpt lat="45.0088" lon="5.81269">
        <ele>1501.4000244141</ele>
        <time>2023-10-01T10:41:56.000Z</time>
      </trkpt>
      <trkpt lat="45.00882" lon="5.81268">
        <ele>1501</ele>
        <time>2023-10-01T10:41:57.000Z</time>
      </trkpt>
      <trkpt lat="45.00884" lon="5.81268">
        <ele>1501</ele>
        <time>2023-10-01T10:41:58.000Z</time>
      </trkpt>
      <trkpt lat="45.00886" lon="5.81267">
        <ele>1500.5999755859</ele>
        <time>2023-10-01T10:41:59.000Z</time>
      </trkpt>
      <trkpt lat="45.00887" lon="5.81266">
        <ele>1500.5999755859</ele>
        <time>2023-10-01T10:42:00.000Z</time>
      </trkpt>
      <trkpt lat="45.00888" lon="5.81265">
        <ele>1500.4000244141</ele>
        <time>2023-10-01T10:42:01.000Z</time>
      </trkpt>
      <trkpt lat="45.00889" lon="5.81264">
        <ele>1500.1999511719</ele>
        <time>2023-10-01T10:42:02.000Z</time>
      </trkpt>
      <trkpt lat="45.00891" lon="5.81263">
        <ele>1500.1999511719</ele>
        <time>2023-10-01T10:42:03.000Z</time>
      </trkpt>
      <trkpt lat="45.00893" lon="5.81263">
        <ele>1500</ele>
        <time>2023-10-01T10:42:04.000Z</time>
      </trkpt>
      <trkpt lat="45.00894" lon="5.81262">
        <ele>1499.8000488281</ele>
        <time>2023-10-01T10:42:05.000Z</time>
      </trkpt>
      <trkpt lat="45.00895" lon="5.81262">
        <ele>1499.5999755859</ele>
        <time>2023-10-01T10:42:06.000Z</time>
      </trkpt>
      <trkpt lat="45.00897" lon="5.81262">
        <ele>1499.5999755859</ele>
        <time>2023-10-01T10:42:07.000Z</time>
      </trkpt>
      <trkpt lat="45.00899" lon="5.81261">
        <ele>1499.1999511719</ele>
        <time>2023-10-01T10:42:08.000Z</time>
      </trkpt>
      <trkpt lat="45.009" lon="5.81261">
        <ele>1499</ele>
        <time>2023-10-01T10:42:09.000Z</time>
      </trkpt>
      <trkpt lat="45.00901" lon="5.81261">
        <ele>1498.8000488281</ele>
        <time>2023-10-01T10:42:10.000Z</time>
      </trkpt>
      <trkpt lat="45.00903" lon="5.81261">
        <ele>1498.5999755859</ele>
        <time>2023-10-01T10:42:11.000Z</time>
      </trkpt>
      <trkpt lat="45.00905" lon="5.81261">
        <ele>1498.4000244141</ele>
        <time>2023-10-01T10:42:12.000Z</time>
      </trkpt>
      <trkpt lat="45.00907" lon="5.81261">
        <ele>1498.1999511719</ele>
        <time>2023-10-01T10:42:13.000Z</time>
      </trkpt>
      <trkpt lat="45.00908" lon="5.81261">
        <ele>1497.8000488281</ele>
        <time>2023-10-01T10:42:14.000Z</time>
      </trkpt>
      <trkpt lat="45.0091" lon="5.81261">
        <ele>1497.5999755859</ele>
        <time>2023-10-01T10:42:15.000Z</time>
      </trkpt>
      <trkpt lat="45.00911" lon="5.8126">
        <ele>1497.1999511719</ele>
        <time>2023-10-01T10:42:16.000Z</time>
      </trkpt>
      <trkpt lat="45.00912" lon="5.8126">
        <ele>1497</ele>
        <time>2023-10-01T10:42:17.000Z</time>
      </trkpt>
      <trkpt lat="45.00914" lon="5.81259">
        <ele>1496.8000488281</ele>
        <time>2023-10-01T10:42:18.000Z</time>
      </trkpt>
      <trkpt lat="45.00915" lon="5.81259">
        <ele>1496.5999755859</ele>
        <time>2023-10-01T10:42:19.000Z</time>
      </trkpt>
      <trkpt lat="45.00916" lon="5.81259">
        <ele>1496.4000244141</ele>
        <time>2023-10-01T10:42:20.000Z</time>
      </trkpt>
      <trkpt lat="45.00918" lon="5.81258">
        <ele>1496.1999511719</ele>
        <time>2023-10-01T10:42:21.000Z</time>
      </trkpt>
      <trkpt lat="45.00919" lon="5.81258">
        <ele>1496</ele>
        <time>2023-10-01T10:42:22.000Z</time>
      </trkpt>
      <trkpt lat="45.0092" lon="5.81257">
        <ele>1495.8000488281</ele>
        <time>2023-10-01T10:42:23.000Z</time>
      </trkpt>
      <trkpt lat="45.00922" lon="5.81256">
        <ele>1495.8000488281</ele>
        <time>2023-10-01T10:42:24.000Z</time>
      </trkpt>
      <trkpt lat="45.00923" lon="5.81256">
        <ele>1495.4000244141</ele>
        <time>2023-10-01T10:42:25.000Z</time>
      </trkpt>
      <trkpt lat="45.00924" lon="5.81255">
        <ele>1495.1999511719</ele>
        <time>2023-10-01T10:42:26.000Z</time>
      </trkpt>
      <trkpt lat="45.00926" lon="5.81255">
        <ele>1495</ele>
        <time>2023-10-01T10:42:27.000Z</time>
      </trkpt>
      <trkpt lat="45.00927" lon="5.81254">
        <ele>1494.8000488281</ele>
        <time>2023-10-01T10:42:28.000Z</time>
      </trkpt>
      <trkpt lat="45.00929" lon="5.81254">
        <ele>1494.5999755859</ele>
        <time>2023-10-01T10:42:29.000Z</time>
      </trkpt>
      <trkpt lat="45.00931" lon="5.81253">
        <ele>1494.4000244141</ele>
        <time>2023-10-01T10:42:30.000Z</time>
      </trkpt>
      <trkpt lat="45.00932" lon="5.81253">
        <ele>1494</ele>
        <time>2023-10-01T10:42:31.000Z</time>
      </trkpt>
      <trkpt lat="45.00934" lon="5.81252">
        <ele>1493.8000488281</ele>
        <time>2023-10-01T10:42:32.000Z</time>
      </trkpt>
      <trkpt lat="45.00935" lon="5.81252">
        <ele>1493.1999511719</ele>
        <time>2023-10-01T10:42:33.000Z</time>
      </trkpt>
      <trkpt lat="45.00937" lon="5.81252">
        <ele>1493</ele>
        <time>2023-10-01T10:42:34.000Z</time>
      </trkpt>
      <trkpt lat="45.00939" lon="5.81252">
        <ele>1492.5999755859</ele>
        <time>2023-10-01T10:42:35.000Z</time>
      </trkpt>
      <trkpt lat="45.0094" lon="5.81251">
        <ele>1492.5999755859</ele>
        <time>2023-10-01T10:42:36.000Z</time>
      </trkpt>
      <trkpt lat="45.00941" lon="5.81251">
        <ele>1492.4000244141</ele>
        <time>2023-10-01T10:42:37.000Z</time>
      </trkpt>
      <trkpt lat="45.00943" lon="5.81251">
        <ele>1492.1999511719</ele>
        <time>2023-10-01T10:42:38.000Z</time>
      </trkpt>
      <trkpt lat="45.00945" lon="5.8125">
        <ele>1492</ele>
        <time>2023-10-01T10:42:39.000Z</time>
      </trkpt>
      <trkpt lat="45.00946" lon="5.8125">
        <ele>1491.8000488281</ele>
        <time>2023-10-01T10:42:40.000Z</time>
      </trkpt>
      <trkpt lat="45.00947" lon="5.8125">
        <ele>1491.8000488281</ele>
        <time>2023-10-01T10:42:41.000Z</time>
      </trkpt>
      <trkpt lat="45.00949" lon="5.81249">
        <ele>1491.5999755859</ele>
        <time>2023-10-01T10:42:42.000Z</time>
      </trkpt>
      <trkpt lat="45.0095" lon="5.81249">
        <ele>1491.5999755859</ele>
        <time>2023-10-01T10:42:43.000Z</time>
      </trkpt>
      <trkpt lat="45.00952" lon="5.81249">
        <ele>1491.4000244141</ele>
        <time>2023-10-01T10:42:44.000Z</time>
      </trkpt>
      <trkpt lat="45.00953" lon="5.81249">
        <ele>1491.1999511719</ele>
        <time>2023-10-01T10:42:45.000Z</time>
      </trkpt>
      <trkpt lat="45.00955" lon="5.81249">
        <ele>1491</ele>
        <time>2023-10-01T10:42:46.000Z</time>
      </trkpt>
      <trkpt lat="45.00957" lon="5.81249">
        <ele>1490.8000488281</ele>
        <time>2023-10-01T10:42:47.000Z</time>
      </trkpt>
      <trkpt lat="45.00958" lon="5.81249">
        <ele>1490.5999755859</ele>
        <time>2023-10-01T10:42:48.000Z</time>
      </trkpt>
      <trkpt lat="45.00959" lon="5.81249">
        <ele>1490.4000244141</ele>
        <time>2023-10-01T10:42:49.000Z</time>
      </trkpt>
      <trkpt lat="45.0096" lon="5.81248">
        <ele>1490.4000244141</ele>
        <time>2023-10-01T10:42:50.000Z</time>
      </trkpt>
      <trkpt lat="45.00961" lon="5.81248">
        <ele>1490.1999511719</ele>
        <time>2023-10-01T10:42:51.000Z</time>
      </trkpt>
      <trkpt lat="45.00964" lon="5.81247">
        <ele>1489.8000488281</ele>
        <time>2023-10-01T10:42:52.000Z</time>
      </trkpt>
      <trkpt lat="45.00965" lon="5.81247">
        <ele>1489.5999755859</ele>
        <time>2023-10-01T10:42:53.000Z</time>
      </trkpt>
      <trkpt lat="45.00967" lon="5.81247">
        <ele>1489.4000244141</ele>
        <time>2023-10-01T10:42:54.000Z</time>
      </trkpt>
      <trkpt lat="45.0097" lon="5.81247">
        <ele>1489.1999511719</ele>
        <time>2023-10-01T10:42:55.000Z</time>
      </trkpt>
      <trkpt lat="45.00971" lon="5.81247">
        <ele>1488.8000488281</ele>
        <time>2023-10-01T10:42:56.000Z</time>
      </trkpt>
      <trkpt lat="45.00973" lon="5.81247">
        <ele>1488.4000244141</ele>
        <time>2023-10-01T10:42:57.000Z</time>
      </trkpt>
      <trkpt lat="45.00975" lon="5.81246">
        <ele>1488.1999511719</ele>
        <time>2023-10-01T10:42:58.000Z</time>
      </trkpt>
      <trkpt lat="45.00977" lon="5.81246">
        <ele>1488.1999511719</ele>
        <time>2023-10-01T10:42:59.000Z</time>
      </trkpt>
      <trkpt lat="45.00978" lon="5.81246">
        <ele>1488</ele>
        <time>2023-10-01T10:43:00.000Z</time>
      </trkpt>
      <trkpt lat="45.0098" lon="5.81246">
        <ele>1487.8000488281</ele>
        <time>2023-10-01T10:43:01.000Z</time>
      </trkpt>
      <trkpt lat="45.00982" lon="5.81246">
        <ele>1487.8000488281</ele>
        <time>2023-10-01T10:43:02.000Z</time>
      </trkpt>
      <trkpt lat="45.00984" lon="5.81246">
        <ele>1487.8000488281</ele>
        <time>2023-10-01T10:43:03.000Z</time>
      </trkpt>
      <trkpt lat="45.00986" lon="5.81246">
        <ele>1487.5999755859</ele>
        <time>2023-10-01T10:43:04.000Z</time>
      </trkpt>
      <trkpt lat="45.00987" lon="5.81246">
        <ele>1487.4000244141</ele>
        <time>2023-10-01T10:43:05.000Z</time>
      </trkpt>
      <trkpt lat="45.00989" lon="5.81246">
        <ele>1487.4000244141</ele>
        <time>2023-10-01T10:43:06.000Z</time>
      </trkpt>
      <trkpt lat="45.00991" lon="5.81245">
        <ele>1487.1999511719</ele>
        <time>2023-10-01T10:43:07.000Z</time>
      </trkpt>
      <trkpt lat="45.00992" lon="5.81245">
        <ele>1487</ele>
        <time>2023-10-01T10:43:08.000Z</time>
      </trkpt>
      <trkpt lat="45.00994" lon="5.81245">
        <ele>1487</ele>
        <time>2023-10-01T10:43:09.000Z</time>
      </trkpt>
      <trkpt lat="45.00996" lon="5.81245">
        <ele>1486.5999755859</ele>
        <time>2023-10-01T10:43:10.000Z</time>
      </trkpt>
      <trkpt lat="45.00998" lon="5.81244">
        <ele>1486.4000244141</ele>
        <time>2023-10-01T10:43:11.000Z</time>
      </trkpt>
      <trkpt lat="45.01" lon="5.81244">
        <ele>1486.1999511719</ele>
        <time>2023-10-01T10:43:12.000Z</time>
      </trkpt>
      <trkpt lat="45.01002" lon="5.81244">
        <ele>1486</ele>
        <time>2023-10-01T10:43:13.000Z</time>
      </trkpt>
      <trkpt lat="45.01004" lon="5.81244">
        <ele>1486</ele>
        <time>2023-10-01T10:43:14.000Z</time>
      </trkpt>
      <trkpt lat="45.01006" lon="5.81244">
        <ele>1486</ele>
        <time>2023-10-01T10:43:15.000Z</time>
      </trkpt>
      <trkpt lat="45.01008" lon="5.81244">
        <ele>1486</ele>
        <time>2023-10-01T10:43:16.000Z</time>
      </trkpt>
      <trkpt lat="45.01009" lon="5.81244">
        <ele>1486</ele>
        <time>2023-10-01T10:43:17.000Z</time>
      </trkpt>
      <trkpt lat="45.0101" lon="5.81244">
        <ele>1486</ele>
        <time>2023-10-01T10:43:18.000Z</time>
      </trkpt>
      <trkpt lat="45.01011" lon="5.81244">
        <ele>1485.8000488281</ele>
        <time>2023-10-01T10:43:19.000Z</time>
      </trkpt>
      <trkpt lat="45.01012" lon="5.81244">
        <ele>1485.8000488281</ele>
        <time>2023-10-01T10:43:20.000Z</time>
      </trkpt>
      <trkpt lat="45.01013" lon="5.81243">
        <ele>1485.5999755859</ele>
        <time>2023-10-01T10:43:21.000Z</time>
      </trkpt>
      <trkpt lat="45.01014" lon="5.81243">
        <ele>1485.5999755859</ele>
        <time>2023-10-01T10:43:22.000Z</time>
      </trkpt>
      <trkpt lat="45.01015" lon="5.81242">
        <ele>1485.5999755859</ele>
        <time>2023-10-01T10:43:23.000Z</time>
      </trkpt>
      <trkpt lat="45.01017" lon="5.81242">
        <ele>1485.5999755859</ele>
        <time>2023-10-01T10:43:24.000Z</time>
      </trkpt>
      <trkpt lat="45.01019" lon="5.81242">
        <ele>1485.5999755859</ele>
        <time>2023-10-01T10:43:25.000Z</time>
      </trkpt>
      <trkpt lat="45.0102" lon="5.81242">
        <ele>1485.4000244141</ele>
        <time>2023-10-01T10:43:26.000Z</time>
      </trkpt>
      <trkpt lat="45.01022" lon="5.81242">
        <ele>1485.4000244141</ele>
        <time>2023-10-01T10:43:27.000Z</time>
      </trkpt>
      <trkpt lat="45.01023" lon="5.81242">
        <ele>1485.1999511719</ele>
        <time>2023-10-01T10:43:28.000Z</time>
      </trkpt>
      <trkpt lat="45.01025" lon="5.81242">
        <ele>1485</ele>
        <time>2023-10-01T10:43:29.000Z</time>
      </trkpt>
      <trkpt lat="45.01026" lon="5.81241">
        <ele>1484.8000488281</ele>
        <time>2023-10-01T10:43:30.000Z</time>
      </trkpt>
      <trkpt lat="45.01027" lon="5.81241">
        <ele>1484.5999755859</ele>
        <time>2023-10-01T10:43:31.000Z</time>
      </trkpt>
      <trkpt lat="45.01028" lon="5.81241">
        <ele>1484.5999755859</ele>
        <time>2023-10-01T10:43:32.000Z</time>
      </trkpt>
      <trkpt lat="45.0103" lon="5.81241">
        <ele>1484.4000244141</ele>
        <time>2023-10-01T10:43:33.000Z</time>
      </trkpt>
      <trkpt lat="45.01031" lon="5.8124">
        <ele>1484.1999511719</ele>
        <time>2023-10-01T10:43:34.000Z</time>
      </trkpt>
      <trkpt lat="45.01032" lon="5.81241">
        <ele>1484</ele>
        <time>2023-10-01T10:43:35.000Z</time>
      </trkpt>
      <trkpt lat="45.01034" lon="5.8124">
        <ele>1483.8000488281</ele>
        <time>2023-10-01T10:43:36.000Z</time>
      </trkpt>
      <trkpt lat="45.01035" lon="5.8124">
        <ele>1483.5999755859</ele>
        <time>2023-10-01T10:43:37.000Z</time>
      </trkpt>
      <trkpt lat="45.01037" lon="5.81241">
        <ele>1483.4000244141</ele>
        <time>2023-10-01T10:43:38.000Z</time>
      </trkpt>
      <trkpt lat="45.01039" lon="5.81241">
        <ele>1483.4000244141</ele>
        <time>2023-10-01T10:43:39.000Z</time>
      </trkpt>
      <trkpt lat="45.0104" lon="5.81242">
        <ele>1483.1999511719</ele>
        <time>2023-10-01T10:43:40.000Z</time>
      </trkpt>
      <trkpt lat="45.01041" lon="5.81241">
        <ele>1483</ele>
        <time>2023-10-01T10:43:41.000Z</time>
      </trkpt>
      <trkpt lat="45.01043" lon="5.81241">
        <ele>1482.8000488281</ele>
        <time>2023-10-01T10:43:42.000Z</time>
      </trkpt>
      <trkpt lat="45.01044" lon="5.81241">
        <ele>1482.5999755859</ele>
        <time>2023-10-01T10:43:43.000Z</time>
      </trkpt>
      <trkpt lat="45.01046" lon="5.81241">
        <ele>1482.4000244141</ele>
        <time>2023-10-01T10:43:44.000Z</time>
      </trkpt>
      <trkpt lat="45.01047" lon="5.81241">
        <ele>1482.4000244141</ele>
        <time>2023-10-01T10:43:45.000Z</time>
      </trkpt>
      <trkpt lat="45.01048" lon="5.81241">
        <ele>1482.1999511719</ele>
        <time>2023-10-01T10:43:46.000Z</time>
      </trkpt>
      <trkpt lat="45.0105" lon="5.8124">
        <ele>1482</ele>
        <time>2023-10-01T10:43:47.000Z</time>
      </trkpt>
      <trkpt lat="45.01051" lon="5.8124">
        <ele>1481.8000488281</ele>
        <time>2023-10-01T10:43:48.000Z</time>
      </trkpt>
      <trkpt lat="45.01053" lon="5.8124">
        <ele>1481.5999755859</ele>
        <time>2023-10-01T10:43:49.000Z</time>
      </trkpt>
      <trkpt lat="45.01054" lon="5.8124">
        <ele>1481.4000244141</ele>
        <time>2023-10-01T10:43:50.000Z</time>
      </trkpt>
      <trkpt lat="45.01056" lon="5.8124">
        <ele>1481.1999511719</ele>
        <time>2023-10-01T10:43:51.000Z</time>
      </trkpt>
      <trkpt lat="45.01057" lon="5.8124">
        <ele>1481</ele>
        <time>2023-10-01T10:43:52.000Z</time>
      </trkpt>
      <trkpt lat="45.01058" lon="5.8124">
        <ele>1481</ele>
        <time>2023-10-01T10:43:53.000Z</time>
      </trkpt>
      <trkpt lat="45.0106" lon="5.8124">
        <ele>1480.8000488281</ele>
        <time>2023-10-01T10:43:54.000Z</time>
      </trkpt>
      <trkpt lat="45.01061" lon="5.8124">
        <ele>1480.5999755859</ele>
        <time>2023-10-01T10:43:55.000Z</time>
      </trkpt>
      <trkpt lat="45.01062" lon="5.81239">
        <ele>1480.4000244141</ele>
        <time>2023-10-01T10:43:56.000Z</time>
      </trkpt>
      <trkpt lat="45.01064" lon="5.81239">
        <ele>1480.1999511719</ele>
        <time>2023-10-01T10:43:57.000Z</time>
      </trkpt>
      <trkpt lat="45.01065" lon="5.81239">
        <ele>1480</ele>
        <time>2023-10-01T10:43:58.000Z</time>
      </trkpt>
      <trkpt lat="45.01067" lon="5.81238">
        <ele>1479.8000488281</ele>
        <time>2023-10-01T10:43:59.000Z</time>
      </trkpt>
      <trkpt lat="45.01068" lon="5.81238">
        <ele>1479.5999755859</ele>
        <time>2023-10-01T10:44:00.000Z</time>
      </trkpt>
      <trkpt lat="45.0107" lon="5.81238">
        <ele>1479.5999755859</ele>
        <time>2023-10-01T10:44:01.000Z</time>
      </trkpt>
      <trkpt lat="45.01071" lon="5.81238">
        <ele>1479.1999511719</ele>
        <time>2023-10-01T10:44:02.000Z</time>
      </trkpt>
      <trkpt lat="45.01073" lon="5.81237">
        <ele>1479</ele>
        <time>2023-10-01T10:44:03.000Z</time>
      </trkpt>
      <trkpt lat="45.01074" lon="5.81237">
        <ele>1478.8000488281</ele>
        <time>2023-10-01T10:44:04.000Z</time>
      </trkpt>
      <trkpt lat="45.01075" lon="5.81237">
        <ele>1478.8000488281</ele>
        <time>2023-10-01T10:44:05.000Z</time>
      </trkpt>
      <trkpt lat="45.01077" lon="5.81236">
        <ele>1478.5999755859</ele>
        <time>2023-10-01T10:44:06.000Z</time>
      </trkpt>
      <trkpt lat="45.01078" lon="5.81236">
        <ele>1478.4000244141</ele>
        <time>2023-10-01T10:44:07.000Z</time>
      </trkpt>
      <trkpt lat="45.01079" lon="5.81236">
        <ele>1478.1999511719</ele>
        <time>2023-10-01T10:44:08.000Z</time>
      </trkpt>
      <trkpt lat="45.0108" lon="5.81236">
        <ele>1478</ele>
        <time>2023-10-01T10:44:09.000Z</time>
      </trkpt>
      <trkpt lat="45.01082" lon="5.81236">
        <ele>1477.8000488281</ele>
        <time>2023-10-01T10:44:10.000Z</time>
      </trkpt>
      <trkpt lat="45.01083" lon="5.81236">
        <ele>1477.5999755859</ele>
        <time>2023-10-01T10:44:11.000Z</time>
      </trkpt>
      <trkpt lat="45.01085" lon="5.81236">
        <ele>1477.4000244141</ele>
        <time>2023-10-01T10:44:12.000Z</time>
      </trkpt>
      <trkpt lat="45.01087" lon="5.81236">
        <ele>1477.1999511719</ele>
        <time>2023-10-01T10:44:13.000Z</time>
      </trkpt>
      <trkpt lat="45.01088" lon="5.81236">
        <ele>1477</ele>
        <time>2023-10-01T10:44:14.000Z</time>
      </trkpt>
      <trkpt lat="45.0109" lon="5.81236">
        <ele>1476.8000488281</ele>
        <time>2023-10-01T10:44:15.000Z</time>
      </trkpt>
      <trkpt lat="45.01091" lon="5.81236">
        <ele>1476.8000488281</ele>
        <time>2023-10-01T10:44:16.000Z</time>
      </trkpt>
      <trkpt lat="45.01093" lon="5.81236">
        <ele>1476.5999755859</ele>
        <time>2023-10-01T10:44:17.000Z</time>
      </trkpt>
      <trkpt lat="45.01095" lon="5.81236">
        <ele>1476.1999511719</ele>
        <time>2023-10-01T10:44:18.000Z</time>
      </trkpt>
      <trkpt lat="45.01096" lon="5.81235">
        <ele>1476</ele>
        <time>2023-10-01T10:44:19.000Z</time>
      </trkpt>
      <trkpt lat="45.01098" lon="5.81235">
        <ele>1475.8000488281</ele>
        <time>2023-10-01T10:44:20.000Z</time>
      </trkpt>
      <trkpt lat="45.01099" lon="5.81235">
        <ele>1475.5999755859</ele>
        <time>2023-10-01T10:44:21.000Z</time>
      </trkpt>
      <trkpt lat="45.011" lon="5.81235">
        <ele>1475.1999511719</ele>
        <time>2023-10-01T10:44:22.000Z</time>
      </trkpt>
      <trkpt lat="45.01102" lon="5.81234">
        <ele>1475</ele>
        <time>2023-10-01T10:44:23.000Z</time>
      </trkpt>
      <trkpt lat="45.01103" lon="5.81234">
        <ele>1474.8000488281</ele>
        <time>2023-10-01T10:44:24.000Z</time>
      </trkpt>
      <trkpt lat="45.01105" lon="5.81233">
        <ele>1474.5999755859</ele>
        <time>2023-10-01T10:44:25.000Z</time>
      </trkpt>
      <trkpt lat="45.01106" lon="5.81233">
        <ele>1474.4000244141</ele>
        <time>2023-10-01T10:44:26.000Z</time>
      </trkpt>
      <trkpt lat="45.01107" lon="5.81232">
        <ele>1474.1999511719</ele>
        <time>2023-10-01T10:44:27.000Z</time>
      </trkpt>
      <trkpt lat="45.01109" lon="5.81231">
        <ele>1474</ele>
        <time>2023-10-01T10:44:28.000Z</time>
      </trkpt>
      <trkpt lat="45.0111" lon="5.81231">
        <ele>1473.8000488281</ele>
        <time>2023-10-01T10:44:29.000Z</time>
      </trkpt>
      <trkpt lat="45.01112" lon="5.8123">
        <ele>1473.8000488281</ele>
        <time>2023-10-01T10:44:30.000Z</time>
      </trkpt>
      <trkpt lat="45.01113" lon="5.8123">
        <ele>1473.5999755859</ele>
        <time>2023-10-01T10:44:31.000Z</time>
      </trkpt>
      <trkpt lat="45.01114" lon="5.81231">
        <ele>1473.4000244141</ele>
        <time>2023-10-01T10:44:32.000Z</time>
      </trkpt>
      <trkpt lat="45.01116" lon="5.81231">
        <ele>1473.1999511719</ele>
        <time>2023-10-01T10:44:33.000Z</time>
      </trkpt>
      <trkpt lat="45.01117" lon="5.81231">
        <ele>1473</ele>
        <time>2023-10-01T10:44:34.000Z</time>
      </trkpt>
      <trkpt lat="45.01118" lon="5.81231">
        <ele>1472.8000488281</ele>
        <time>2023-10-01T10:44:35.000Z</time>
      </trkpt>
      <trkpt lat="45.0112" lon="5.8123">
        <ele>1472.5999755859</ele>
        <time>2023-10-01T10:44:36.000Z</time>
      </trkpt>
      <trkpt lat="45.01121" lon="5.8123">
        <ele>1472.1999511719</ele>
        <time>2023-10-01T10:44:37.000Z</time>
      </trkpt>
      <trkpt lat="45.01123" lon="5.8123">
        <ele>1472.1999511719</ele>
        <time>2023-10-01T10:44:38.000Z</time>
      </trkpt>
      <trkpt lat="45.01124" lon="5.8123">
        <ele>1472</ele>
        <time>2023-10-01T10:44:39.000Z</time>
      </trkpt>
      <trkpt lat="45.01126" lon="5.8123">
        <ele>1471.8000488281</ele>
        <time>2023-10-01T10:44:40.000Z</time>
      </trkpt>
      <trkpt lat="45.01127" lon="5.8123">
        <ele>1471.5999755859</ele>
        <time>2023-10-01T10:44:41.000Z</time>
      </trkpt>
      <trkpt lat="45.01129" lon="5.8123">
        <ele>1471.4000244141</ele>
        <time>2023-10-01T10:44:42.000Z</time>
      </trkpt>
      <trkpt lat="45.01131" lon="5.8123">
        <ele>1471.1999511719</ele>
        <time>2023-10-01T10:44:43.000Z</time>
      </trkpt>
      <trkpt lat="45.01133" lon="5.81229">
        <ele>1471.1999511719</ele>
        <time>2023-10-01T10:44:44.000Z</time>
      </trkpt>
      <trkpt lat="45.01134" lon="5.81229">
        <ele>1470.8000488281</ele>
        <time>2023-10-01T10:44:45.000Z</time>
      </trkpt>
      <trkpt lat="45.01136" lon="5.81229">
        <ele>1470.5999755859</ele>
        <time>2023-10-01T10:44:46.000Z</time>
      </trkpt>
      <trkpt lat="45.01137" lon="5.81229">
        <ele>1470.4000244141</ele>
        <time>2023-10-01T10:44:47.000Z</time>
      </trkpt>
      <trkpt lat="45.01139" lon="5.81228">
        <ele>1470.1999511719</ele>
        <time>2023-10-01T10:44:48.000Z</time>
      </trkpt>
      <trkpt lat="45.01139" lon="5.81228">
        <ele>1470</ele>
        <time>2023-10-01T10:44:49.000Z</time>
      </trkpt>
      <trkpt lat="45.01141" lon="5.81228">
        <ele>1469.8000488281</ele>
        <time>2023-10-01T10:44:50.000Z</time>
      </trkpt>
      <trkpt lat="45.01142" lon="5.81228">
        <ele>1469.5999755859</ele>
        <time>2023-10-01T10:44:51.000Z</time>
      </trkpt>
      <trkpt lat="45.01144" lon="5.81227">
        <ele>1469.4000244141</ele>
        <time>2023-10-01T10:44:52.000Z</time>
      </trkpt>
      <trkpt lat="45.01145" lon="5.81227">
        <ele>1469.1999511719</ele>
        <time>2023-10-01T10:44:53.000Z</time>
      </trkpt>
      <trkpt lat="45.01146" lon="5.81227">
        <ele>1469</ele>
        <time>2023-10-01T10:44:54.000Z</time>
      </trkpt>
      <trkpt lat="45.01147" lon="5.81227">
        <ele>1468.8000488281</ele>
        <time>2023-10-01T10:44:55.000Z</time>
      </trkpt>
      <trkpt lat="45.01149" lon="5.81227">
        <ele>1468.5999755859</ele>
        <time>2023-10-01T10:44:56.000Z</time>
      </trkpt>
      <trkpt lat="45.0115" lon="5.81227">
        <ele>1468.1999511719</ele>
        <time>2023-10-01T10:44:57.000Z</time>
      </trkpt>
      <trkpt lat="45.01152" lon="5.81227">
        <ele>1468.1999511719</ele>
        <time>2023-10-01T10:44:58.000Z</time>
      </trkpt>
      <trkpt lat="45.01153" lon="5.81227">
        <ele>1468</ele>
        <time>2023-10-01T10:44:59.000Z</time>
      </trkpt>
      <trkpt lat="45.01154" lon="5.81227">
        <ele>1467.8000488281</ele>
        <time>2023-10-01T10:45:00.000Z</time>
      </trkpt>
      <trkpt lat="45.01156" lon="5.81226">
        <ele>1467.5999755859</ele>
        <time>2023-10-01T10:45:01.000Z</time>
      </trkpt>
      <trkpt lat="45.01157" lon="5.81226">
        <ele>1467.4000244141</ele>
        <time>2023-10-01T10:45:02.000Z</time>
      </trkpt>
      <trkpt lat="45.01159" lon="5.81226">
        <ele>1467.1999511719</ele>
        <time>2023-10-01T10:45:03.000Z</time>
      </trkpt>
      <trkpt lat="45.0116" lon="5.81226">
        <ele>1467</ele>
        <time>2023-10-01T10:45:04.000Z</time>
      </trkpt>
      <trkpt lat="45.01161" lon="5.81226">
        <ele>1466.8000488281</ele>
        <time>2023-10-01T10:45:05.000Z</time>
      </trkpt>
      <trkpt lat="45.01163" lon="5.81227">
        <ele>1466.5999755859</ele>
        <time>2023-10-01T10:45:06.000Z</time>
      </trkpt>
      <trkpt lat="45.01164" lon="5.81227">
        <ele>1466.4000244141</ele>
        <time>2023-10-01T10:45:07.000Z</time>
      </trkpt>
      <trkpt lat="45.01165" lon="5.81226">
        <ele>1466</ele>
        <time>2023-10-01T10:45:08.000Z</time>
      </trkpt>
      <trkpt lat="45.01166" lon="5.81226">
        <ele>1465.5999755859</ele>
        <time>2023-10-01T10:45:09.000Z</time>
      </trkpt>
      <trkpt lat="45.01167" lon="5.81225">
        <ele>1465.4000244141</ele>
        <time>2023-10-01T10:45:10.000Z</time>
      </trkpt>
      <trkpt lat="45.01169" lon="5.81225">
        <ele>1465.1999511719</ele>
        <time>2023-10-01T10:45:11.000Z</time>
      </trkpt>
      <trkpt lat="45.0117" lon="5.81225">
        <ele>1465</ele>
        <time>2023-10-01T10:45:12.000Z</time>
      </trkpt>
      <trkpt lat="45.01171" lon="5.81225">
        <ele>1464.8000488281</ele>
        <time>2023-10-01T10:45:13.000Z</time>
      </trkpt>
      <trkpt lat="45.01172" lon="5.81224">
        <ele>1464.5999755859</ele>
        <time>2023-10-01T10:45:14.000Z</time>
      </trkpt>
      <trkpt lat="45.01173" lon="5.81224">
        <ele>1464.4000244141</ele>
        <time>2023-10-01T10:45:15.000Z</time>
      </trkpt>
      <trkpt lat="45.01175" lon="5.81223">
        <ele>1464.1999511719</ele>
        <time>2023-10-01T10:45:16.000Z</time>
      </trkpt>
      <trkpt lat="45.01177" lon="5.81223">
        <ele>1464</ele>
        <time>2023-10-01T10:45:17.000Z</time>
      </trkpt>
      <trkpt lat="45.01178" lon="5.81223">
        <ele>1463.5999755859</ele>
        <time>2023-10-01T10:45:18.000Z</time>
      </trkpt>
      <trkpt lat="45.01179" lon="5.81223">
        <ele>1463.5999755859</ele>
        <time>2023-10-01T10:45:19.000Z</time>
      </trkpt>
      <trkpt lat="45.0118" lon="5.81223">
        <ele>1463.4000244141</ele>
        <time>2023-10-01T10:45:20.000Z</time>
      </trkpt>
      <trkpt lat="45.01181" lon="5.81223">
        <ele>1463.1999511719</ele>
        <time>2023-10-01T10:45:21.000Z</time>
      </trkpt>
      <trkpt lat="45.01182" lon="5.81222">
        <ele>1463</ele>
        <time>2023-10-01T10:45:22.000Z</time>
      </trkpt>
      <trkpt lat="45.01183" lon="5.81222">
        <ele>1462.8000488281</ele>
        <time>2023-10-01T10:45:23.000Z</time>
      </trkpt>
      <trkpt lat="45.01184" lon="5.81221">
        <ele>1462.5999755859</ele>
        <time>2023-10-01T10:45:24.000Z</time>
      </trkpt>
      <trkpt lat="45.01185" lon="5.81221">
        <ele>1462.4000244141</ele>
        <time>2023-10-01T10:45:25.000Z</time>
      </trkpt>
      <trkpt lat="45.01186" lon="5.81221">
        <ele>1462.1999511719</ele>
        <time>2023-10-01T10:45:26.000Z</time>
      </trkpt>
      <trkpt lat="45.01187" lon="5.8122">
        <ele>1462</ele>
        <time>2023-10-01T10:45:27.000Z</time>
      </trkpt>
      <trkpt lat="45.01189" lon="5.81219">
        <ele>1461.8000488281</ele>
        <time>2023-10-01T10:45:28.000Z</time>
      </trkpt>
      <trkpt lat="45.0119" lon="5.81219">
        <ele>1461.4000244141</ele>
        <time>2023-10-01T10:45:29.000Z</time>
      </trkpt>
      <trkpt lat="45.01191" lon="5.8122">
        <ele>1461.1999511719</ele>
        <time>2023-10-01T10:45:30.000Z</time>
      </trkpt>
      <trkpt lat="45.01192" lon="5.8122">
        <ele>1460.8000488281</ele>
        <time>2023-10-01T10:45:31.000Z</time>
      </trkpt>
      <trkpt lat="45.01193" lon="5.8122">
        <ele>1460.5999755859</ele>
        <time>2023-10-01T10:45:32.000Z</time>
      </trkpt>
      <trkpt lat="45.01195" lon="5.81219">
        <ele>1460.1999511719</ele>
        <time>2023-10-01T10:45:33.000Z</time>
      </trkpt>
      <trkpt lat="45.01196" lon="5.81219">
        <ele>1460</ele>
        <time>2023-10-01T10:45:34.000Z</time>
      </trkpt>
      <trkpt lat="45.01198" lon="5.81218">
        <ele>1459.8000488281</ele>
        <time>2023-10-01T10:45:35.000Z</time>
      </trkpt>
      <trkpt lat="45.01199" lon="5.81218">
        <ele>1459.5999755859</ele>
        <time>2023-10-01T10:45:36.000Z</time>
      </trkpt>
      <trkpt lat="45.012" lon="5.81217">
        <ele>1459.4000244141</ele>
        <time>2023-10-01T10:45:37.000Z</time>
      </trkpt>
      <trkpt lat="45.01201" lon="5.81217">
        <ele>1459</ele>
        <time>2023-10-01T10:45:38.000Z</time>
      </trkpt>
      <trkpt lat="45.01202" lon="5.81217">
        <ele>1458.8000488281</ele>
        <time>2023-10-01T10:45:39.000Z</time>
      </trkpt>
      <trkpt lat="45.01203" lon="5.81216">
        <ele>1458.5999755859</ele>
        <time>2023-10-01T10:45:40.000Z</time>
      </trkpt>
      <trkpt lat="45.01204" lon="5.81216">
        <ele>1458.4000244141</ele>
        <time>2023-10-01T10:45:41.000Z</time>
      </trkpt>
      <trkpt lat="45.01205" lon="5.81216">
        <ele>1458.1999511719</ele>
        <time>2023-10-01T10:45:42.000Z</time>
      </trkpt>
      <trkpt lat="45.01207" lon="5.81215">
        <ele>1458</ele>
        <time>2023-10-01T10:45:43.000Z</time>
      </trkpt>
      <trkpt lat="45.01208" lon="5.81214">
        <ele>1457.8000488281</ele>
        <time>2023-10-01T10:45:44.000Z</time>
      </trkpt>
      <trkpt lat="45.01209" lon="5.81213">
        <ele>1457.4000244141</ele>
        <time>2023-10-01T10:45:45.000Z</time>
      </trkpt>
      <trkpt lat="45.0121" lon="5.81213">
        <ele>1457.1999511719</ele>
        <time>2023-10-01T10:45:46.000Z</time>
      </trkpt>
      <trkpt lat="45.01211" lon="5.81213">
        <ele>1457.1999511719</ele>
        <time>2023-10-01T10:45:47.000Z</time>
      </trkpt>
      <trkpt lat="45.01213" lon="5.81213">
        <ele>1456.8000488281</ele>
        <time>2023-10-01T10:45:48.000Z</time>
      </trkpt>
      <trkpt lat="45.01214" lon="5.81212">
        <ele>1456.5999755859</ele>
        <time>2023-10-01T10:45:49.000Z</time>
      </trkpt>
      <trkpt lat="45.01215" lon="5.81211">
        <ele>1456.4000244141</ele>
        <time>2023-10-01T10:45:50.000Z</time>
      </trkpt>
      <trkpt lat="45.01217" lon="5.81211">
        <ele>1456</ele>
        <time>2023-10-01T10:45:51.000Z</time>
      </trkpt>
      <trkpt lat="45.01218" lon="5.81211">
        <ele>1455.8000488281</ele>
        <time>2023-10-01T10:45:52.000Z</time>
      </trkpt>
      <trkpt lat="45.0122" lon="5.8121">
        <ele>1455.4000244141</ele>
        <time>2023-10-01T10:45:53.000Z</time>
      </trkpt>
      <trkpt lat="45.01221" lon="5.8121">
        <ele>1455.1999511719</ele>
        <time>2023-10-01T10:45:54.000Z</time>
      </trkpt>
      <trkpt lat="45.01223" lon="5.8121">
        <ele>1454.8000488281</ele>
        <time>2023-10-01T10:45:55.000Z</time>
      </trkpt>
      <trkpt lat="45.01225" lon="5.81209">
        <ele>1454.5999755859</ele>
        <time>2023-10-01T10:45:56.000Z</time>
      </trkpt>
      <trkpt lat="45.01226" lon="5.81209">
        <ele>1454.4000244141</ele>
        <time>2023-10-01T10:45:57.000Z</time>
      </trkpt>
      <trkpt lat="45.01227" lon="5.81209">
        <ele>1454</ele>
        <time>2023-10-01T10:45:58.000Z</time>
      </trkpt>
      <trkpt lat="45.01228" lon="5.81209">
        <ele>1453.8000488281</ele>
        <time>2023-10-01T10:45:59.000Z</time>
      </trkpt>
      <trkpt lat="45.0123" lon="5.81209">
        <ele>1453.4000244141</ele>
        <time>2023-10-01T10:46:00.000Z</time>
      </trkpt>
      <trkpt lat="45.01232" lon="5.81209">
        <ele>1453.1999511719</ele>
        <time>2023-10-01T10:46:01.000Z</time>
      </trkpt>
      <trkpt lat="45.01233" lon="5.81209">
        <ele>1452.8000488281</ele>
        <time>2023-10-01T10:46:02.000Z</time>
      </trkpt>
      <trkpt lat="45.01234" lon="5.81209">
        <ele>1452.5999755859</ele>
        <time>2023-10-01T10:46:03.000Z</time>
      </trkpt>
      <trkpt lat="45.01236" lon="5.81209">
        <ele>1452.1999511719</ele>
        <time>2023-10-01T10:46:04.000Z</time>
      </trkpt>
      <trkpt lat="45.01237" lon="5.8121">
        <ele>1452</ele>
        <time>2023-10-01T10:46:05.000Z</time>
      </trkpt>
      <trkpt lat="45.01239" lon="5.8121">
        <ele>1451.5999755859</ele>
        <time>2023-10-01T10:46:06.000Z</time>
      </trkpt>
      <trkpt lat="45.0124" lon="5.8121">
        <ele>1451.4000244141</ele>
        <time>2023-10-01T10:46:07.000Z</time>
      </trkpt>
      <trkpt lat="45.01242" lon="5.81209">
        <ele>1451.1999511719</ele>
        <time>2023-10-01T10:46:08.000Z</time>
      </trkpt>
      <trkpt lat="45.01244" lon="5.8121">
        <ele>1450.8000488281</ele>
        <time>2023-10-01T10:46:09.000Z</time>
      </trkpt>
      <trkpt lat="45.01246" lon="5.8121">
        <ele>1450.4000244141</ele>
        <time>2023-10-01T10:46:10.000Z</time>
      </trkpt>
      <trkpt lat="45.01248" lon="5.8121">
        <ele>1450.1999511719</ele>
        <time>2023-10-01T10:46:11.000Z</time>
      </trkpt>
      <trkpt lat="45.0125" lon="5.81211">
        <ele>1450.1999511719</ele>
        <time>2023-10-01T10:46:12.000Z</time>
      </trkpt>
      <trkpt lat="45.01252" lon="5.81211">
        <ele>1449.8000488281</ele>
        <time>2023-10-01T10:46:13.000Z</time>
      </trkpt>
      <trkpt lat="45.01254" lon="5.81211">
        <ele>1449.5999755859</ele>
        <time>2023-10-01T10:46:14.000Z</time>
      </trkpt>
      <trkpt lat="45.01257" lon="5.81211">
        <ele>1449.4000244141</ele>
        <time>2023-10-01T10:46:15.000Z</time>
      </trkpt>
      <trkpt lat="45.01259" lon="5.81211">
        <ele>1449.1999511719</ele>
        <time>2023-10-01T10:46:16.000Z</time>
      </trkpt>
      <trkpt lat="45.01261" lon="5.81211">
        <ele>1448.8000488281</ele>
        <time>2023-10-01T10:46:17.000Z</time>
      </trkpt>
      <trkpt lat="45.01263" lon="5.81211">
        <ele>1448.5999755859</ele>
        <time>2023-10-01T10:46:18.000Z</time>
      </trkpt>
      <trkpt lat="45.01266" lon="5.81211">
        <ele>1448.4000244141</ele>
        <time>2023-10-01T10:46:19.000Z</time>
      </trkpt>
      <trkpt lat="45.01268" lon="5.81212">
        <ele>1448.1999511719</ele>
        <time>2023-10-01T10:46:20.000Z</time>
      </trkpt>
      <trkpt lat="45.01271" lon="5.81211">
        <ele>1448</ele>
        <time>2023-10-01T10:46:21.000Z</time>
      </trkpt>
      <trkpt lat="45.01273" lon="5.81211">
        <ele>1447.8000488281</ele>
        <time>2023-10-01T10:46:22.000Z</time>
      </trkpt>
      <trkpt lat="45.01276" lon="5.81211">
        <ele>1447.5999755859</ele>
        <time>2023-10-01T10:46:23.000Z</time>
      </trkpt>
      <trkpt lat="45.01278" lon="5.81211">
        <ele>1447</ele>
        <time>2023-10-01T10:46:24.000Z</time>
      </trkpt>
      <trkpt lat="45.0128" lon="5.81212">
        <ele>1446.8000488281</ele>
        <time>2023-10-01T10:46:25.000Z</time>
      </trkpt>
      <trkpt lat="45.01283" lon="5.81211">
        <ele>1446.5999755859</ele>
        <time>2023-10-01T10:46:26.000Z</time>
      </trkpt>
      <trkpt lat="45.01286" lon="5.8121">
        <ele>1446.4000244141</ele>
        <time>2023-10-01T10:46:27.000Z</time>
      </trkpt>
      <trkpt lat="45.01288" lon="5.8121">
        <ele>1446</ele>
        <time>2023-10-01T10:46:28.000Z</time>
      </trkpt>
      <trkpt lat="45.01291" lon="5.81209">
        <ele>1445.8000488281</ele>
        <time>2023-10-01T10:46:29.000Z</time>
      </trkpt>
      <trkpt lat="45.01293" lon="5.81209">
        <ele>1445.5999755859</ele>
        <time>2023-10-01T10:46:30.000Z</time>
      </trkpt>
      <trkpt lat="45.01296" lon="5.81209">
        <ele>1445.4000244141</ele>
        <time>2023-10-01T10:46:31.000Z</time>
      </trkpt>
      <trkpt lat="45.01298" lon="5.8121">
        <ele>1445</ele>
        <time>2023-10-01T10:46:32.000Z</time>
      </trkpt>
      <trkpt lat="45.01299" lon="5.8121">
        <ele>1444.8000488281</ele>
        <time>2023-10-01T10:46:33.000Z</time>
      </trkpt>
      <trkpt lat="45.01303" lon="5.8121">
        <ele>1444.8000488281</ele>
        <time>2023-10-01T10:46:34.000Z</time>
      </trkpt>
      <trkpt lat="45.01304" lon="5.81211">
        <ele>1444.4000244141</ele>
        <time>2023-10-01T10:46:35.000Z</time>
      </trkpt>
      <trkpt lat="45.01307" lon="5.81211">
        <ele>1444.1999511719</ele>
        <time>2023-10-01T10:46:36.000Z</time>
      </trkpt>
      <trkpt lat="45.01309" lon="5.81211">
        <ele>1443.5999755859</ele>
        <time>2023-10-01T10:46:37.000Z</time>
      </trkpt>
      <trkpt lat="45.01311" lon="5.81211">
        <ele>1443.4000244141</ele>
        <time>2023-10-01T10:46:38.000Z</time>
      </trkpt>
      <trkpt lat="45.01314" lon="5.81211">
        <ele>1443</ele>
        <time>2023-10-01T10:46:39.000Z</time>
      </trkpt>
      <trkpt lat="45.01316" lon="5.81211">
        <ele>1442.5999755859</ele>
        <time>2023-10-01T10:46:40.000Z</time>
      </trkpt>
      <trkpt lat="45.01318" lon="5.81211">
        <ele>1442.4000244141</ele>
        <time>2023-10-01T10:46:41.000Z</time>
      </trkpt>
      <trkpt lat="45.0132" lon="5.81211">
        <ele>1442.1999511719</ele>
        <time>2023-10-01T10:46:42.000Z</time>
      </trkpt>
      <trkpt lat="45.01323" lon="5.81211">
        <ele>1441.5999755859</ele>
        <time>2023-10-01T10:46:43.000Z</time>
      </trkpt>
      <trkpt lat="45.01325" lon="5.81212">
        <ele>1441.4000244141</ele>
        <time>2023-10-01T10:46:44.000Z</time>
      </trkpt>
      <trkpt lat="45.01328" lon="5.81212">
        <ele>1441.1999511719</ele>
        <time>2023-10-01T10:46:45.000Z</time>
      </trkpt>
      <trkpt lat="45.0133" lon="5.81212">
        <ele>1441</ele>
        <time>2023-10-01T10:46:46.000Z</time>
      </trkpt>
      <trkpt lat="45.01333" lon="5.81212">
        <ele>1440.5999755859</ele>
        <time>2023-10-01T10:46:47.000Z</time>
      </trkpt>
      <trkpt lat="45.01335" lon="5.81213">
        <ele>1440.4000244141</ele>
        <time>2023-10-01T10:46:48.000Z</time>
      </trkpt>
      <trkpt lat="45.01337" lon="5.81213">
        <ele>1440.1999511719</ele>
        <time>2023-10-01T10:46:49.000Z</time>
      </trkpt>
      <trkpt lat="45.0134" lon="5.81213">
        <ele>1439.8000488281</ele>
        <time>2023-10-01T10:46:50.000Z</time>
      </trkpt>
      <trkpt lat="45.01343" lon="5.81213">
        <ele>1439.5999755859</ele>
        <time>2023-10-01T10:46:51.000Z</time>
      </trkpt>
      <trkpt lat="45.01345" lon="5.81213">
        <ele>1439.1999511719</ele>
        <time>2023-10-01T10:46:52.000Z</time>
      </trkpt>
      <trkpt lat="45.01348" lon="5.81213">
        <ele>1439.1999511719</ele>
        <time>2023-10-01T10:46:53.000Z</time>
      </trkpt>
      <trkpt lat="45.0135" lon="5.81214">
        <ele>1439</ele>
        <time>2023-10-01T10:46:54.000Z</time>
      </trkpt>
      <trkpt lat="45.01353" lon="5.81214">
        <ele>1438.5999755859</ele>
        <time>2023-10-01T10:46:55.000Z</time>
      </trkpt>
      <trkpt lat="45.01356" lon="5.81215">
        <ele>1438.1999511719</ele>
        <time>2023-10-01T10:46:56.000Z</time>
      </trkpt>
      <trkpt lat="45.01358" lon="5.81215">
        <ele>1438</ele>
        <time>2023-10-01T10:46:57.000Z</time>
      </trkpt>
      <trkpt lat="45.0136" lon="5.81216">
        <ele>1437.5999755859</ele>
        <time>2023-10-01T10:46:58.000Z</time>
      </trkpt>
      <trkpt lat="45.01362" lon="5.81216">
        <ele>1437.1999511719</ele>
        <time>2023-10-01T10:46:59.000Z</time>
      </trkpt>
      <trkpt lat="45.01364" lon="5.81216">
        <ele>1436.8000488281</ele>
        <time>2023-10-01T10:47:00.000Z</time>
      </trkpt>
      <trkpt lat="45.01366" lon="5.81216">
        <ele>1436.4000244141</ele>
        <time>2023-10-01T10:47:01.000Z</time>
      </trkpt>
      <trkpt lat="45.01368" lon="5.81216">
        <ele>1436</ele>
        <time>2023-10-01T10:47:02.000Z</time>
      </trkpt>
      <trkpt lat="45.0137" lon="5.81215">
        <ele>1436</ele>
        <time>2023-10-01T10:47:03.000Z</time>
      </trkpt>
      <trkpt lat="45.01372" lon="5.81215">
        <ele>1435.5999755859</ele>
        <time>2023-10-01T10:47:04.000Z</time>
      </trkpt>
      <trkpt lat="45.01374" lon="5.81215">
        <ele>1435.4000244141</ele>
        <time>2023-10-01T10:47:05.000Z</time>
      </trkpt>
      <trkpt lat="45.01376" lon="5.81215">
        <ele>1435</ele>
        <time>2023-10-01T10:47:06.000Z</time>
      </trkpt>
      <trkpt lat="45.01379" lon="5.81216">
        <ele>1434.8000488281</ele>
        <time>2023-10-01T10:47:07.000Z</time>
      </trkpt>
      <trkpt lat="45.01381" lon="5.81216">
        <ele>1434.4000244141</ele>
        <time>2023-10-01T10:47:08.000Z</time>
      </trkpt>
      <trkpt lat="45.01384" lon="5.81215">
        <ele>1433.8000488281</ele>
        <time>2023-10-01T10:47:09.000Z</time>
      </trkpt>
      <trkpt lat="45.01385" lon="5.81215">
        <ele>1433.4000244141</ele>
        <time>2023-10-01T10:47:10.000Z</time>
      </trkpt>
      <trkpt lat="45.01388" lon="5.81216">
        <ele>1432.8000488281</ele>
        <time>2023-10-01T10:47:11.000Z</time>
      </trkpt>
      <trkpt lat="45.0139" lon="5.81216">
        <ele>1432.5999755859</ele>
        <time>2023-10-01T10:47:12.000Z</time>
      </trkpt>
      <trkpt lat="45.01391" lon="5.81216">
        <ele>1432.4000244141</ele>
        <time>2023-10-01T10:47:13.000Z</time>
      </trkpt>
      <trkpt lat="45.01394" lon="5.81216">
        <ele>1432.1999511719</ele>
        <time>2023-10-01T10:47:14.000Z</time>
      </trkpt>
      <trkpt lat="45.01396" lon="5.81216">
        <ele>1432</ele>
        <time>2023-10-01T10:47:15.000Z</time>
      </trkpt>
      <trkpt lat="45.01398" lon="5.81216">
        <ele>1431.4000244141</ele>
        <time>2023-10-01T10:47:16.000Z</time>
      </trkpt>
      <trkpt lat="45.014" lon="5.81216">
        <ele>1431</ele>
        <time>2023-10-01T10:47:17.000Z</time>
      </trkpt>
      <trkpt lat="45.01402" lon="5.81217">
        <ele>1430.5999755859</ele>
        <time>2023-10-01T10:47:18.000Z</time>
      </trkpt>
      <trkpt lat="45.01404" lon="5.81217">
        <ele>1430.4000244141</ele>
        <time>2023-10-01T10:47:19.000Z</time>
      </trkpt>
      <trkpt lat="45.01407" lon="5.81218">
        <ele>1430</ele>
        <time>2023-10-01T10:47:20.000Z</time>
      </trkpt>
      <trkpt lat="45.01409" lon="5.81217">
        <ele>1429.8000488281</ele>
        <time>2023-10-01T10:47:21.000Z</time>
      </trkpt>
      <trkpt lat="45.01412" lon="5.81217">
        <ele>1429.5999755859</ele>
        <time>2023-10-01T10:47:22.000Z</time>
      </trkpt>
      <trkpt lat="45.01414" lon="5.81217">
        <ele>1429.1999511719</ele>
        <time>2023-10-01T10:47:23.000Z</time>
      </trkpt>
      <trkpt lat="45.01416" lon="5.81217">
        <ele>1428.8000488281</ele>
        <time>2023-10-01T10:47:24.000Z</time>
      </trkpt>
      <trkpt lat="45.01419" lon="5.81217">
        <ele>1428.5999755859</ele>
        <time>2023-10-01T10:47:25.000Z</time>
      </trkpt>
      <trkpt lat="45.01421" lon="5.81217">
        <ele>1428.1999511719</ele>
        <time>2023-10-01T10:47:26.000Z</time>
      </trkpt>
      <trkpt lat="45.01423" lon="5.81217">
        <ele>1427.8000488281</ele>
        <time>2023-10-01T10:47:27.000Z</time>
      </trkpt>
      <trkpt lat="45.01426" lon="5.81218">
        <ele>1427.5999755859</ele>
        <time>2023-10-01T10:47:28.000Z</time>
      </trkpt>
      <trkpt lat="45.01428" lon="5.81218">
        <ele>1427.1999511719</ele>
        <time>2023-10-01T10:47:29.000Z</time>
      </trkpt>
      <trkpt lat="45.0143" lon="5.81218">
        <ele>1426.8000488281</ele>
        <time>2023-10-01T10:47:30.000Z</time>
      </trkpt>
      <trkpt lat="45.01433" lon="5.81218">
        <ele>1426.5999755859</ele>
        <time>2023-10-01T10:47:31.000Z</time>
      </trkpt>
      <trkpt lat="45.01435" lon="5.81218">
        <ele>1426.4000244141</ele>
        <time>2023-10-01T10:47:32.000Z</time>
      </trkpt>
      <trkpt lat="45.01437" lon="5.81218">
        <ele>1425.8000488281</ele>
        <time>2023-10-01T10:47:33.000Z</time>
      </trkpt>
      <trkpt lat="45.01439" lon="5.81218">
        <ele>1425.4000244141</ele>
        <time>2023-10-01T10:47:34.000Z</time>
      </trkpt>
      <trkpt lat="45.01442" lon="5.81218">
        <ele>1425.1999511719</ele>
        <time>2023-10-01T10:47:35.000Z</time>
      </trkpt>
      <trkpt lat="45.01444" lon="5.81218">
        <ele>1425</ele>
        <time>2023-10-01T10:47:36.000Z</time>
      </trkpt>
      <trkpt lat="45.01446" lon="5.81218">
        <ele>1424.4000244141</ele>
        <time>2023-10-01T10:47:37.000Z</time>
      </trkpt>
      <trkpt lat="45.01449" lon="5.81217">
        <ele>1424</ele>
        <time>2023-10-01T10:47:38.000Z</time>
      </trkpt>
      <trkpt lat="45.01451" lon="5.81218">
        <ele>1423.4000244141</ele>
        <time>2023-10-01T10:47:39.000Z</time>
      </trkpt>
      <trkpt lat="45.01454" lon="5.81218">
        <ele>1423.1999511719</ele>
        <time>2023-10-01T10:47:40.000Z</time>
      </trkpt>
      <trkpt lat="45.01456" lon="5.81217">
        <ele>1423</ele>
        <time>2023-10-01T10:47:41.000Z</time>
      </trkpt>
      <trkpt lat="45.01458" lon="5.81217">
        <ele>1422.5999755859</ele>
        <time>2023-10-01T10:47:42.000Z</time>
      </trkpt>
      <trkpt lat="45.0146" lon="5.81217">
        <ele>1422.1999511719</ele>
        <time>2023-10-01T10:47:43.000Z</time>
      </trkpt>
      <trkpt lat="45.01462" lon="5.81216">
        <ele>1421.8000488281</ele>
        <time>2023-10-01T10:47:44.000Z</time>
      </trkpt>
      <trkpt lat="45.01465" lon="5.81216">
        <ele>1421.5999755859</ele>
        <time>2023-10-01T10:47:45.000Z</time>
      </trkpt>
      <trkpt lat="45.01467" lon="5.81216">
        <ele>1421.1999511719</ele>
        <time>2023-10-01T10:47:46.000Z</time>
      </trkpt>
      <trkpt lat="45.01469" lon="5.81217">
        <ele>1421</ele>
        <time>2023-10-01T10:47:47.000Z</time>
      </trkpt>
      <trkpt lat="45.01471" lon="5.81217">
        <ele>1420.5999755859</ele>
        <time>2023-10-01T10:47:48.000Z</time>
      </trkpt>
      <trkpt lat="45.01474" lon="5.81217">
        <ele>1420.1999511719</ele>
        <time>2023-10-01T10:47:49.000Z</time>
      </trkpt>
      <trkpt lat="45.01476" lon="5.81217">
        <ele>1420</ele>
        <time>2023-10-01T10:47:50.000Z</time>
      </trkpt>
      <trkpt lat="45.01478" lon="5.81217">
        <ele>1419.5999755859</ele>
        <time>2023-10-01T10:47:51.000Z</time>
      </trkpt>
      <trkpt lat="45.01481" lon="5.81217">
        <ele>1419.1999511719</ele>
        <time>2023-10-01T10:47:52.000Z</time>
      </trkpt>
      <trkpt lat="45.01482" lon="5.81218">
        <ele>1419</ele>
        <time>2023-10-01T10:47:53.000Z</time>
      </trkpt>
      <trkpt lat="45.01485" lon="5.81218">
        <ele>1418.8000488281</ele>
        <time>2023-10-01T10:47:54.000Z</time>
      </trkpt>
      <trkpt lat="45.01486" lon="5.81218">
        <ele>1418.4000244141</ele>
        <time>2023-10-01T10:47:55.000Z</time>
      </trkpt>
      <trkpt lat="45.01489" lon="5.81218">
        <ele>1418.4000244141</ele>
        <time>2023-10-01T10:47:56.000Z</time>
      </trkpt>
      <trkpt lat="45.01491" lon="5.81218">
        <ele>1418.1999511719</ele>
        <time>2023-10-01T10:47:57.000Z</time>
      </trkpt>
      <trkpt lat="45.01493" lon="5.81219">
        <ele>1418</ele>
        <time>2023-10-01T10:47:58.000Z</time>
      </trkpt>
      <trkpt lat="45.01495" lon="5.81219">
        <ele>1417.8000488281</ele>
        <time>2023-10-01T10:47:59.000Z</time>
      </trkpt>
      <trkpt lat="45.01497" lon="5.81219">
        <ele>1417.4000244141</ele>
        <time>2023-10-01T10:48:00.000Z</time>
      </trkpt>
      <trkpt lat="45.015" lon="5.81219">
        <ele>1416.8000488281</ele>
        <time>2023-10-01T10:48:01.000Z</time>
      </trkpt>
      <trkpt lat="45.01501" lon="5.81219">
        <ele>1416.5999755859</ele>
        <time>2023-10-01T10:48:02.000Z</time>
      </trkpt>
      <trkpt lat="45.01504" lon="5.8122">
        <ele>1416.4000244141</ele>
        <time>2023-10-01T10:48:03.000Z</time>
      </trkpt>
      <trkpt lat="45.01505" lon="5.8122">
        <ele>1416.1999511719</ele>
        <time>2023-10-01T10:48:04.000Z</time>
      </trkpt>
      <trkpt lat="45.01508" lon="5.8122">
        <ele>1415.8000488281</ele>
        <time>2023-10-01T10:48:05.000Z</time>
      </trkpt>
      <trkpt lat="45.0151" lon="5.81219">
        <ele>1415.5999755859</ele>
        <time>2023-10-01T10:48:06.000Z</time>
      </trkpt>
      <trkpt lat="45.01512" lon="5.81219">
        <ele>1415.4000244141</ele>
        <time>2023-10-01T10:48:07.000Z</time>
      </trkpt>
      <trkpt lat="45.01514" lon="5.81219">
        <ele>1414.8000488281</ele>
        <time>2023-10-01T10:48:08.000Z</time>
      </trkpt>
      <trkpt lat="45.01516" lon="5.8122">
        <ele>1414.5999755859</ele>
        <time>2023-10-01T10:48:09.000Z</time>
      </trkpt>
      <trkpt lat="45.01517" lon="5.81219">
        <ele>1414.1999511719</ele>
        <time>2023-10-01T10:48:10.000Z</time>
      </trkpt>
      <trkpt lat="45.01519" lon="5.8122">
        <ele>1413.8000488281</ele>
        <time>2023-10-01T10:48:11.000Z</time>
      </trkpt>
      <trkpt lat="45.01521" lon="5.8122">
        <ele>1413.4000244141</ele>
        <time>2023-10-01T10:48:12.000Z</time>
      </trkpt>
      <trkpt lat="45.01523" lon="5.81221">
        <ele>1413.1999511719</ele>
        <time>2023-10-01T10:48:13.000Z</time>
      </trkpt>
      <trkpt lat="45.01525" lon="5.81221">
        <ele>1412.8000488281</ele>
        <time>2023-10-01T10:48:14.000Z</time>
      </trkpt>
      <trkpt lat="45.01528" lon="5.81222">
        <ele>1412.4000244141</ele>
        <time>2023-10-01T10:48:15.000Z</time>
      </trkpt>
      <trkpt lat="45.0153" lon="5.81223">
        <ele>1412.4000244141</ele>
        <time>2023-10-01T10:48:16.000Z</time>
      </trkpt>
      <trkpt lat="45.01533" lon="5.81223">
        <ele>1412</ele>
        <time>2023-10-01T10:48:17.000Z</time>
      </trkpt>
      <trkpt lat="45.01535" lon="5.81223">
        <ele>1411.8000488281</ele>
        <time>2023-10-01T10:48:18.000Z</time>
      </trkpt>
      <trkpt lat="45.01538" lon="5.81223">
        <ele>1411.5999755859</ele>
        <time>2023-10-01T10:48:19.000Z</time>
      </trkpt>
      <trkpt lat="45.01541" lon="5.81223">
        <ele>1411.1999511719</ele>
        <time>2023-10-01T10:48:20.000Z</time>
      </trkpt>
      <trkpt lat="45.01542" lon="5.81223">
        <ele>1411</ele>
        <time>2023-10-01T10:48:21.000Z</time>
      </trkpt>
      <trkpt lat="45.01545" lon="5.81224">
        <ele>1410.8000488281</ele>
        <time>2023-10-01T10:48:22.000Z</time>
      </trkpt>
      <trkpt lat="45.01547" lon="5.81224">
        <ele>1410.5999755859</ele>
        <time>2023-10-01T10:48:23.000Z</time>
      </trkpt>
      <trkpt lat="45.01549" lon="5.81224">
        <ele>1410.5999755859</ele>
        <time>2023-10-01T10:48:24.000Z</time>
      </trkpt>
      <trkpt lat="45.01551" lon="5.81224">
        <ele>1410.1999511719</ele>
        <time>2023-10-01T10:48:25.000Z</time>
      </trkpt>
      <trkpt lat="45.01552" lon="5.81225">
        <ele>1410.1999511719</ele>
        <time>2023-10-01T10:48:26.000Z</time>
      </trkpt>
      <trkpt lat="45.01552" lon="5.81224">
        <ele>1409.8000488281</ele>
        <time>2023-10-01T10:48:27.000Z</time>
      </trkpt>
      <trkpt lat="45.01553" lon="5.81224">
        <ele>1409.8000488281</ele>
        <time>2023-10-01T10:48:28.000Z</time>
      </trkpt>
      <trkpt lat="45.01554" lon="5.81225">
        <ele>1409.5999755859</ele>
        <time>2023-10-01T10:48:29.000Z</time>
      </trkpt>
      <trkpt lat="45.01555" lon="5.81225">
        <ele>1409.5999755859</ele>
        <time>2023-10-01T10:48:30.000Z</time>
      </trkpt>
      <trkpt lat="45.01556" lon="5.81225">
        <ele>1409.4000244141</ele>
        <time>2023-10-01T10:48:31.000Z</time>
      </trkpt>
      <trkpt lat="45.01557" lon="5.81226">
        <ele>1409.4000244141</ele>
        <time>2023-10-01T10:48:32.000Z</time>
      </trkpt>
      <trkpt lat="45.01559" lon="5.81226">
        <ele>1409.4000244141</ele>
        <time>2023-10-01T10:48:33.000Z</time>
      </trkpt>
      <trkpt lat="45.0156" lon="5.81227">
        <ele>1409.1999511719</ele>
        <time>2023-10-01T10:48:34.000Z</time>
      </trkpt>
      <trkpt lat="45.01562" lon="5.81227">
        <ele>1409.1999511719</ele>
        <time>2023-10-01T10:48:35.000Z</time>
      </trkpt>
      <trkpt lat="45.01563" lon="5.81227">
        <ele>1409</ele>
        <time>2023-10-01T10:48:36.000Z</time>
      </trkpt>
      <trkpt lat="45.01564" lon="5.81228">
        <ele>1408.8000488281</ele>
        <time>2023-10-01T10:48:37.000Z</time>
      </trkpt>
      <trkpt lat="45.01566" lon="5.81228">
        <ele>1408.5999755859</ele>
        <time>2023-10-01T10:48:38.000Z</time>
      </trkpt>
      <trkpt lat="45.01567" lon="5.81228">
        <ele>1408.4000244141</ele>
        <time>2023-10-01T10:48:39.000Z</time>
      </trkpt>
      <trkpt lat="45.01569" lon="5.81228">
        <ele>1408.4000244141</ele>
        <time>2023-10-01T10:48:40.000Z</time>
      </trkpt>
      <trkpt lat="45.0157" lon="5.81229">
        <ele>1408.1999511719</ele>
        <time>2023-10-01T10:48:41.000Z</time>
      </trkpt>
      <trkpt lat="45.01572" lon="5.81229">
        <ele>1408</ele>
        <time>2023-10-01T10:48:42.000Z</time>
      </trkpt>
      <trkpt lat="45.01573" lon="5.81229">
        <ele>1407.8000488281</ele>
        <time>2023-10-01T10:48:43.000Z</time>
      </trkpt>
      <trkpt lat="45.01575" lon="5.8123">
        <ele>1407.5999755859</ele>
        <time>2023-10-01T10:48:44.000Z</time>
      </trkpt>
      <trkpt lat="45.01576" lon="5.8123">
        <ele>1407.5999755859</ele>
        <time>2023-10-01T10:48:45.000Z</time>
      </trkpt>
      <trkpt lat="45.01578" lon="5.8123">
        <ele>1407.4000244141</ele>
        <time>2023-10-01T10:48:46.000Z</time>
      </trkpt>
      <trkpt lat="45.01579" lon="5.81231">
        <ele>1407.1999511719</ele>
        <time>2023-10-01T10:48:47.000Z</time>
      </trkpt>
      <trkpt lat="45.01581" lon="5.81231">
        <ele>1406.8000488281</ele>
        <time>2023-10-01T10:48:48.000Z</time>
      </trkpt>
      <trkpt lat="45.01582" lon="5.81231">
        <ele>1406.8000488281</ele>
        <time>2023-10-01T10:48:49.000Z</time>
      </trkpt>
      <trkpt lat="45.01584" lon="5.81231">
        <ele>1406.4000244141</ele>
        <time>2023-10-01T10:48:50.000Z</time>
      </trkpt>
      <trkpt lat="45.01585" lon="5.81231">
        <ele>1406.4000244141</ele>
        <time>2023-10-01T10:48:51.000Z</time>
      </trkpt>
      <trkpt lat="45.01587" lon="5.81231">
        <ele>1406.1999511719</ele>
        <time>2023-10-01T10:48:52.000Z</time>
      </trkpt>
      <trkpt lat="45.01588" lon="5.81231">
        <ele>1406</ele>
        <time>2023-10-01T10:48:53.000Z</time>
      </trkpt>
      <trkpt lat="45.0159" lon="5.81231">
        <ele>1405.8000488281</ele>
        <time>2023-10-01T10:48:54.000Z</time>
      </trkpt>
      <trkpt lat="45.01591" lon="5.81231">
        <ele>1405.8000488281</ele>
        <time>2023-10-01T10:48:55.000Z</time>
      </trkpt>
      <trkpt lat="45.01592" lon="5.81231">
        <ele>1405.5999755859</ele>
        <time>2023-10-01T10:48:56.000Z</time>
      </trkpt>
      <trkpt lat="45.01593" lon="5.81231">
        <ele>1405.5999755859</ele>
        <time>2023-10-01T10:48:57.000Z</time>
      </trkpt>
      <trkpt lat="45.01595" lon="5.81232">
        <ele>1405.1999511719</ele>
        <time>2023-10-01T10:48:58.000Z</time>
      </trkpt>
      <trkpt lat="45.01597" lon="5.81232">
        <ele>1405</ele>
        <time>2023-10-01T10:48:59.000Z</time>
      </trkpt>
      <trkpt lat="45.01598" lon="5.81233">
        <ele>1405</ele>
        <time>2023-10-01T10:49:00.000Z</time>
      </trkpt>
      <trkpt lat="45.016" lon="5.81233">
        <ele>1404.8000488281</ele>
        <time>2023-10-01T10:49:01.000Z</time>
      </trkpt>
      <trkpt lat="45.01601" lon="5.81234">
        <ele>1404.5999755859</ele>
        <time>2023-10-01T10:49:02.000Z</time>
      </trkpt>
      <trkpt lat="45.01603" lon="5.81234">
        <ele>1404.4000244141</ele>
        <time>2023-10-01T10:49:03.000Z</time>
      </trkpt>
      <trkpt lat="45.01604" lon="5.81235">
        <ele>1404.1999511719</ele>
        <time>2023-10-01T10:49:04.000Z</time>
      </trkpt>
      <trkpt lat="45.01606" lon="5.81236">
        <ele>1404</ele>
        <time>2023-10-01T10:49:05.000Z</time>
      </trkpt>
      <trkpt lat="45.01607" lon="5.81236">
        <ele>1404</ele>
        <time>2023-10-01T10:49:06.000Z</time>
      </trkpt>
      <trkpt lat="45.01609" lon="5.81236">
        <ele>1404</ele>
        <time>2023-10-01T10:49:07.000Z</time>
      </trkpt>
      <trkpt lat="45.01611" lon="5.81236">
        <ele>1403.8000488281</ele>
        <time>2023-10-01T10:49:08.000Z</time>
      </trkpt>
      <trkpt lat="45.01612" lon="5.81237">
        <ele>1403.5999755859</ele>
        <time>2023-10-01T10:49:09.000Z</time>
      </trkpt>
      <trkpt lat="45.01614" lon="5.81237">
        <ele>1403.5999755859</ele>
        <time>2023-10-01T10:49:10.000Z</time>
      </trkpt>
      <trkpt lat="45.01615" lon="5.81237">
        <ele>1403.4000244141</ele>
        <time>2023-10-01T10:49:11.000Z</time>
      </trkpt>
      <trkpt lat="45.01617" lon="5.81237">
        <ele>1403.1999511719</ele>
        <time>2023-10-01T10:49:12.000Z</time>
      </trkpt>
      <trkpt lat="45.01618" lon="5.81238">
        <ele>1403</ele>
        <time>2023-10-01T10:49:13.000Z</time>
      </trkpt>
      <trkpt lat="45.0162" lon="5.81238">
        <ele>1403</ele>
        <time>2023-10-01T10:49:14.000Z</time>
      </trkpt>
      <trkpt lat="45.01621" lon="5.81238">
        <ele>1402.8000488281</ele>
        <time>2023-10-01T10:49:15.000Z</time>
      </trkpt>
      <trkpt lat="45.01623" lon="5.81239">
        <ele>1402.5999755859</ele>
        <time>2023-10-01T10:49:16.000Z</time>
      </trkpt>
      <trkpt lat="45.01624" lon="5.81239">
        <ele>1402.4000244141</ele>
        <time>2023-10-01T10:49:17.000Z</time>
      </trkpt>
      <trkpt lat="45.01625" lon="5.8124">
        <ele>1402.4000244141</ele>
        <time>2023-10-01T10:49:18.000Z</time>
      </trkpt>
      <trkpt lat="45.01627" lon="5.81241">
        <ele>1402.1999511719</ele>
        <time>2023-10-01T10:49:19.000Z</time>
      </trkpt>
      <trkpt lat="45.01628" lon="5.81242">
        <ele>1402.1999511719</ele>
        <time>2023-10-01T10:49:20.000Z</time>
      </trkpt>
      <trkpt lat="45.0163" lon="5.81243">
        <ele>1402</ele>
        <time>2023-10-01T10:49:21.000Z</time>
      </trkpt>
      <trkpt lat="45.01632" lon="5.81243">
        <ele>1401.8000488281</ele>
        <time>2023-10-01T10:49:22.000Z</time>
      </trkpt>
      <trkpt lat="45.01633" lon="5.81244">
        <ele>1401.8000488281</ele>
        <time>2023-10-01T10:49:23.000Z</time>
      </trkpt>
      <trkpt lat="45.01634" lon="5.81244">
        <ele>1401.8000488281</ele>
        <time>2023-10-01T10:49:24.000Z</time>
      </trkpt>
      <trkpt lat="45.01636" lon="5.81245">
        <ele>1401.5999755859</ele>
        <time>2023-10-01T10:49:25.000Z</time>
      </trkpt>
      <trkpt lat="45.01637" lon="5.81245">
        <ele>1401.5999755859</ele>
        <time>2023-10-01T10:49:26.000Z</time>
      </trkpt>
      <trkpt lat="45.01638" lon="5.81246">
        <ele>1401.4000244141</ele>
        <time>2023-10-01T10:49:27.000Z</time>
      </trkpt>
      <trkpt lat="45.01639" lon="5.81246">
        <ele>1401.1999511719</ele>
        <time>2023-10-01T10:49:28.000Z</time>
      </trkpt>
      <trkpt lat="45.0164" lon="5.81247">
        <ele>1401.1999511719</ele>
        <time>2023-10-01T10:49:29.000Z</time>
      </trkpt>
      <trkpt lat="45.01641" lon="5.81247">
        <ele>1401</ele>
        <time>2023-10-01T10:49:30.000Z</time>
      </trkpt>
      <trkpt lat="45.01642" lon="5.81247">
        <ele>1400.8000488281</ele>
        <time>2023-10-01T10:49:31.000Z</time>
      </trkpt>
      <trkpt lat="45.01644" lon="5.81247">
        <ele>1400.8000488281</ele>
        <time>2023-10-01T10:49:32.000Z</time>
      </trkpt>
      <trkpt lat="45.01646" lon="5.81248">
        <ele>1400.5999755859</ele>
        <time>2023-10-01T10:49:33.000Z</time>
      </trkpt>
      <trkpt lat="45.01647" lon="5.81248">
        <ele>1400.5999755859</ele>
        <time>2023-10-01T10:49:34.000Z</time>
      </trkpt>
      <trkpt lat="45.01649" lon="5.81249">
        <ele>1400.4000244141</ele>
        <time>2023-10-01T10:49:35.000Z</time>
      </trkpt>
      <trkpt lat="45.0165" lon="5.8125">
        <ele>1400.1999511719</ele>
        <time>2023-10-01T10:49:36.000Z</time>
      </trkpt>
      <trkpt lat="45.01652" lon="5.81251">
        <ele>1400</ele>
        <time>2023-10-01T10:49:37.000Z</time>
      </trkpt>
      <trkpt lat="45.01654" lon="5.81251">
        <ele>1400</ele>
        <time>2023-10-01T10:49:38.000Z</time>
      </trkpt>
      <trkpt lat="45.01655" lon="5.81251">
        <ele>1399.8000488281</ele>
        <time>2023-10-01T10:49:39.000Z</time>
      </trkpt>
      <trkpt lat="45.01657" lon="5.81251">
        <ele>1399.5999755859</ele>
        <time>2023-10-01T10:49:40.000Z</time>
      </trkpt>
      <trkpt lat="45.01659" lon="5.81252">
        <ele>1399.4000244141</ele>
        <time>2023-10-01T10:49:41.000Z</time>
      </trkpt>
      <trkpt lat="45.01661" lon="5.81252">
        <ele>1399.1999511719</ele>
        <time>2023-10-01T10:49:42.000Z</time>
      </trkpt>
      <trkpt lat="45.01662" lon="5.81252">
        <ele>1399</ele>
        <time>2023-10-01T10:49:43.000Z</time>
      </trkpt>
      <trkpt lat="45.01663" lon="5.81253">
        <ele>1399</ele>
        <time>2023-10-01T10:49:44.000Z</time>
      </trkpt>
      <trkpt lat="45.01665" lon="5.81253">
        <ele>1398.5999755859</ele>
        <time>2023-10-01T10:49:45.000Z</time>
      </trkpt>
      <trkpt lat="45.01666" lon="5.81254">
        <ele>1398.5999755859</ele>
        <time>2023-10-01T10:49:46.000Z</time>
      </trkpt>
      <trkpt lat="45.01668" lon="5.81255">
        <ele>1398.4000244141</ele>
        <time>2023-10-01T10:49:47.000Z</time>
      </trkpt>
      <trkpt lat="45.01669" lon="5.81255">
        <ele>1398.4000244141</ele>
        <time>2023-10-01T10:49:48.000Z</time>
      </trkpt>
      <trkpt lat="45.0167" lon="5.81256">
        <ele>1398.1999511719</ele>
        <time>2023-10-01T10:49:49.000Z</time>
      </trkpt>
      <trkpt lat="45.01671" lon="5.81257">
        <ele>1398</ele>
        <time>2023-10-01T10:49:50.000Z</time>
      </trkpt>
      <trkpt lat="45.01672" lon="5.81257">
        <ele>1397.8000488281</ele>
        <time>2023-10-01T10:49:51.000Z</time>
      </trkpt>
      <trkpt lat="45.01674" lon="5.81258">
        <ele>1397.5999755859</ele>
        <time>2023-10-01T10:49:52.000Z</time>
      </trkpt>
      <trkpt lat="45.01675" lon="5.81259">
        <ele>1397.5999755859</ele>
        <time>2023-10-01T10:49:53.000Z</time>
      </trkpt>
      <trkpt lat="45.01676" lon="5.81259">
        <ele>1397.4000244141</ele>
        <time>2023-10-01T10:49:54.000Z</time>
      </trkpt>
      <trkpt lat="45.01678" lon="5.81261">
        <ele>1397.1999511719</ele>
        <time>2023-10-01T10:49:55.000Z</time>
      </trkpt>
      <trkpt lat="45.01679" lon="5.81261">
        <ele>1397.1999511719</ele>
        <time>2023-10-01T10:49:56.000Z</time>
      </trkpt>
      <trkpt lat="45.0168" lon="5.81262">
        <ele>1397</ele>
        <time>2023-10-01T10:49:57.000Z</time>
      </trkpt>
      <trkpt lat="45.01681" lon="5.81263">
        <ele>1396.8000488281</ele>
        <time>2023-10-01T10:49:58.000Z</time>
      </trkpt>
      <trkpt lat="45.01683" lon="5.81263">
        <ele>1396.5999755859</ele>
        <time>2023-10-01T10:49:59.000Z</time>
      </trkpt>
      <trkpt lat="45.01684" lon="5.81264">
        <ele>1396.4000244141</ele>
        <time>2023-10-01T10:50:00.000Z</time>
      </trkpt>
      <trkpt lat="45.01686" lon="5.81265">
        <ele>1396.4000244141</ele>
        <time>2023-10-01T10:50:01.000Z</time>
      </trkpt>
      <trkpt lat="45.01687" lon="5.81266">
        <ele>1396.1999511719</ele>
        <time>2023-10-01T10:50:02.000Z</time>
      </trkpt>
      <trkpt lat="45.01688" lon="5.81267">
        <ele>1395.8000488281</ele>
        <time>2023-10-01T10:50:03.000Z</time>
      </trkpt>
      <trkpt lat="45.01689" lon="5.81268">
        <ele>1395.8000488281</ele>
        <time>2023-10-01T10:50:04.000Z</time>
      </trkpt>
      <trkpt lat="45.0169" lon="5.81269">
        <ele>1395.5999755859</ele>
        <time>2023-10-01T10:50:05.000Z</time>
      </trkpt>
      <trkpt lat="45.01691" lon="5.81269">
        <ele>1395.4000244141</ele>
        <time>2023-10-01T10:50:06.000Z</time>
      </trkpt>
      <trkpt lat="45.01692" lon="5.8127">
        <ele>1395.4000244141</ele>
        <time>2023-10-01T10:50:07.000Z</time>
      </trkpt>
      <trkpt lat="45.01694" lon="5.81271">
        <ele>1395.1999511719</ele>
        <time>2023-10-01T10:50:08.000Z</time>
      </trkpt>
      <trkpt lat="45.01695" lon="5.81271">
        <ele>1395.1999511719</ele>
        <time>2023-10-01T10:50:09.000Z</time>
      </trkpt>
      <trkpt lat="45.01695" lon="5.81272">
        <ele>1395</ele>
        <time>2023-10-01T10:50:10.000Z</time>
      </trkpt>
      <trkpt lat="45.01696" lon="5.81273">
        <ele>1394.8000488281</ele>
        <time>2023-10-01T10:50:11.000Z</time>
      </trkpt>
      <trkpt lat="45.01697" lon="5.81274">
        <ele>1394.5999755859</ele>
        <time>2023-10-01T10:50:12.000Z</time>
      </trkpt>
      <trkpt lat="45.01699" lon="5.81275">
        <ele>1394.4000244141</ele>
        <time>2023-10-01T10:50:13.000Z</time>
      </trkpt>
      <trkpt lat="45.017" lon="5.81277">
        <ele>1394.1999511719</ele>
        <time>2023-10-01T10:50:14.000Z</time>
      </trkpt>
      <trkpt lat="45.01701" lon="5.81278">
        <ele>1394</ele>
        <time>2023-10-01T10:50:15.000Z</time>
      </trkpt>
      <trkpt lat="45.01702" lon="5.8128">
        <ele>1393.8000488281</ele>
        <time>2023-10-01T10:50:16.000Z</time>
      </trkpt>
      <trkpt lat="45.01704" lon="5.81282">
        <ele>1393.5999755859</ele>
        <time>2023-10-01T10:50:17.000Z</time>
      </trkpt>
      <trkpt lat="45.01704" lon="5.81284">
        <ele>1393.4000244141</ele>
        <time>2023-10-01T10:50:18.000Z</time>
      </trkpt>
      <trkpt lat="45.01705" lon="5.81286">
        <ele>1393</ele>
        <time>2023-10-01T10:50:19.000Z</time>
      </trkpt>
      <trkpt lat="45.01705" lon="5.81287">
        <ele>1392.5999755859</ele>
        <time>2023-10-01T10:50:20.000Z</time>
      </trkpt>
      <trkpt lat="45.01706" lon="5.81289">
        <ele>1392.4000244141</ele>
        <time>2023-10-01T10:50:21.000Z</time>
      </trkpt>
      <trkpt lat="45.01707" lon="5.81291">
        <ele>1392.1999511719</ele>
        <time>2023-10-01T10:50:22.000Z</time>
      </trkpt>
      <trkpt lat="45.01708" lon="5.81293">
        <ele>1392.1999511719</ele>
        <time>2023-10-01T10:50:23.000Z</time>
      </trkpt>
      <trkpt lat="45.0171" lon="5.81294">
        <ele>1392</ele>
        <time>2023-10-01T10:50:24.000Z</time>
      </trkpt>
      <trkpt lat="45.01711" lon="5.81294">
        <ele>1391.5999755859</ele>
        <time>2023-10-01T10:50:25.000Z</time>
      </trkpt>
      <trkpt lat="45.01712" lon="5.81295">
        <ele>1391.1999511719</ele>
        <time>2023-10-01T10:50:26.000Z</time>
      </trkpt>
      <trkpt lat="45.01713" lon="5.81297">
        <ele>1391.1999511719</ele>
        <time>2023-10-01T10:50:27.000Z</time>
      </trkpt>
      <trkpt lat="45.01714" lon="5.81298">
        <ele>1391</ele>
        <time>2023-10-01T10:50:28.000Z</time>
      </trkpt>
      <trkpt lat="45.01716" lon="5.81299">
        <ele>1391</ele>
        <time>2023-10-01T10:50:29.000Z</time>
      </trkpt>
      <trkpt lat="45.01717" lon="5.813">
        <ele>1391</ele>
        <time>2023-10-01T10:50:30.000Z</time>
      </trkpt>
      <trkpt lat="45.01719" lon="5.81302">
        <ele>1391</ele>
        <time>2023-10-01T10:50:31.000Z</time>
      </trkpt>
      <trkpt lat="45.0172" lon="5.81303">
        <ele>1391</ele>
        <time>2023-10-01T10:50:32.000Z</time>
      </trkpt>
      <trkpt lat="45.01721" lon="5.81304">
        <ele>1391</ele>
        <time>2023-10-01T10:50:33.000Z</time>
      </trkpt>
      <trkpt lat="45.01721" lon="5.81304">
        <ele>1391</ele>
        <time>2023-10-01T10:50:34.000Z</time>
      </trkpt>
      <trkpt lat="45.01722" lon="5.81305">
        <ele>1391</ele>
        <time>2023-10-01T10:50:35.000Z</time>
      </trkpt>
      <trkpt lat="45.01723" lon="5.81305">
        <ele>1391</ele>
        <time>2023-10-01T10:50:36.000Z</time>
      </trkpt>
      <trkpt lat="45.01723" lon="5.81305">
        <ele>1391</ele>
        <time>2023-10-01T10:50:37.000Z</time>
      </trkpt>
      <trkpt lat="45.01724" lon="5.81304">
        <ele>1391</ele>
        <time>2023-10-01T10:50:38.000Z</time>
      </trkpt>
      <trkpt lat="45.01725" lon="5.81303">
        <ele>1391</ele>
        <time>2023-10-01T10:50:39.000Z</time>
      </trkpt>
      <trkpt lat="45.01725" lon="5.81302">
        <ele>1391</ele>
        <time>2023-10-01T10:50:40.000Z</time>
      </trkpt>
      <trkpt lat="45.01726" lon="5.81301">
        <ele>1391</ele>
        <time>2023-10-01T10:50:41.000Z</time>
      </trkpt>
      <trkpt lat="45.01728" lon="5.813">
        <ele>1391</ele>
        <time>2023-10-01T10:50:42.000Z</time>
      </trkpt>
      <trkpt lat="45.01729" lon="5.81299">
        <ele>1391</ele>
        <time>2023-10-01T10:50:43.000Z</time>
      </trkpt>
      <trkpt lat="45.01731" lon="5.81299">
        <ele>1391</ele>
        <time>2023-10-01T10:50:44.000Z</time>
      </trkpt>
      <trkpt lat="45.01732" lon="5.81298">
        <ele>1391</ele>
        <time>2023-10-01T10:50:45.000Z</time>
      </trkpt>
      <trkpt lat="45.01734" lon="5.81298">
        <ele>1391</ele>
        <time>2023-10-01T10:50:46.000Z</time>
      </trkpt>
      <trkpt lat="45.01736" lon="5.81297">
        <ele>1390.8000488281</ele>
        <time>2023-10-01T10:50:47.000Z</time>
      </trkpt>
      <trkpt lat="45.01737" lon="5.81297">
        <ele>1390.8000488281</ele>
        <time>2023-10-01T10:50:48.000Z</time>
      </trkpt>
      <trkpt lat="45.01739" lon="5.81297">
        <ele>1390.8000488281</ele>
        <time>2023-10-01T10:50:49.000Z</time>
      </trkpt>
      <trkpt lat="45.01741" lon="5.81297">
        <ele>1390.8000488281</ele>
        <time>2023-10-01T10:50:50.000Z</time>
      </trkpt>
      <trkpt lat="45.01743" lon="5.81296">
        <ele>1390.8000488281</ele>
        <time>2023-10-01T10:50:51.000Z</time>
      </trkpt>
      <trkpt lat="45.01744" lon="5.81295">
        <ele>1390.8000488281</ele>
        <time>2023-10-01T10:50:52.000Z</time>
      </trkpt>
      <trkpt lat="45.01746" lon="5.81295">
        <ele>1390.8000488281</ele>
        <time>2023-10-01T10:50:53.000Z</time>
      </trkpt>
      <trkpt lat="45.01747" lon="5.81294">
        <ele>1390.8000488281</ele>
        <time>2023-10-01T10:50:54.000Z</time>
      </trkpt>
      <trkpt lat="45.01749" lon="5.81294">
        <ele>1390.8000488281</ele>
        <time>2023-10-01T10:50:55.000Z</time>
      </trkpt>
      <trkpt lat="45.0175" lon="5.81294">
        <ele>1391</ele>
        <time>2023-10-01T10:50:56.000Z</time>
      </trkpt>
      <trkpt lat="45.01751" lon="5.81294">
        <ele>1391.1999511719</ele>
        <time>2023-10-01T10:50:57.000Z</time>
      </trkpt>
      <trkpt lat="45.01752" lon="5.81294">
        <ele>1391.1999511719</ele>
        <time>2023-10-01T10:50:58.000Z</time>
      </trkpt>
      <trkpt lat="45.01753" lon="5.81294">
        <ele>1391.1999511719</ele>
        <time>2023-10-01T10:50:59.000Z</time>
      </trkpt>
      <trkpt lat="45.01755" lon="5.81294">
        <ele>1391.1999511719</ele>
        <time>2023-10-01T10:51:00.000Z</time>
      </trkpt>
      <trkpt lat="45.01756" lon="5.81293">
        <ele>1391.1999511719</ele>
        <time>2023-10-01T10:51:01.000Z</time>
      </trkpt>
      <trkpt lat="45.01757" lon="5.81293">
        <ele>1391.1999511719</ele>
        <time>2023-10-01T10:51:02.000Z</time>
      </trkpt>
      <trkpt lat="45.01759" lon="5.81292">
        <ele>1391.1999511719</ele>
        <time>2023-10-01T10:51:03.000Z</time>
      </trkpt>
      <trkpt lat="45.0176" lon="5.81292">
        <ele>1391.1999511719</ele>
        <time>2023-10-01T10:51:04.000Z</time>
      </trkpt>
      <trkpt lat="45.01762" lon="5.81291">
        <ele>1391.1999511719</ele>
        <time>2023-10-01T10:51:05.000Z</time>
      </trkpt>
      <trkpt lat="45.01763" lon="5.81291">
        <ele>1391</ele>
        <time>2023-10-01T10:51:06.000Z</time>
      </trkpt>
      <trkpt lat="45.01765" lon="5.81289">
        <ele>1391</ele>
        <time>2023-10-01T10:51:07.000Z</time>
      </trkpt>
      <trkpt lat="45.01766" lon="5.81289">
        <ele>1391</ele>
        <time>2023-10-01T10:51:08.000Z</time>
      </trkpt>
      <trkpt lat="45.01768" lon="5.81288">
        <ele>1391</ele>
        <time>2023-10-01T10:51:09.000Z</time>
      </trkpt>
      <trkpt lat="45.0177" lon="5.81288">
        <ele>1390.8000488281</ele>
        <time>2023-10-01T10:51:10.000Z</time>
      </trkpt>
      <trkpt lat="45.01772" lon="5.81288">
        <ele>1390.8000488281</ele>
        <time>2023-10-01T10:51:11.000Z</time>
      </trkpt>
      <trkpt lat="45.01773" lon="5.81287">
        <ele>1390.5999755859</ele>
        <time>2023-10-01T10:51:12.000Z</time>
      </trkpt>
      <trkpt lat="45.01775" lon="5.81287">
        <ele>1390.4000244141</ele>
        <time>2023-10-01T10:51:13.000Z</time>
      </trkpt>
      <trkpt lat="45.01776" lon="5.81286">
        <ele>1390.4000244141</ele>
        <time>2023-10-01T10:51:14.000Z</time>
      </trkpt>
      <trkpt lat="45.01777" lon="5.81286">
        <ele>1390.1999511719</ele>
        <time>2023-10-01T10:51:15.000Z</time>
      </trkpt>
      <trkpt lat="45.01778" lon="5.81285">
        <ele>1390</ele>
        <time>2023-10-01T10:51:16.000Z</time>
      </trkpt>
      <trkpt lat="45.01778" lon="5.81284">
        <ele>1390</ele>
        <time>2023-10-01T10:51:17.000Z</time>
      </trkpt>
      <trkpt lat="45.01778" lon="5.81284">
        <ele>1389.8000488281</ele>
        <time>2023-10-01T10:51:18.000Z</time>
      </trkpt>
      <trkpt lat="45.01779" lon="5.81285">
        <ele>1389.5999755859</ele>
        <time>2023-10-01T10:51:19.000Z</time>
      </trkpt>
      <trkpt lat="45.01779" lon="5.81285">
        <ele>1389.5999755859</ele>
        <time>2023-10-01T10:51:20.000Z</time>
      </trkpt>
      <trkpt lat="45.0178" lon="5.81285">
        <ele>1389.4000244141</ele>
        <time>2023-10-01T10:51:21.000Z</time>
      </trkpt>
      <trkpt lat="45.0178" lon="5.81286">
        <ele>1389.4000244141</ele>
        <time>2023-10-01T10:51:22.000Z</time>
      </trkpt>
      <trkpt lat="45.0178" lon="5.81286">
        <ele>1389.1999511719</ele>
        <time>2023-10-01T10:51:23.000Z</time>
      </trkpt>
      <trkpt lat="45.0178" lon="5.81286">
        <ele>1389.1999511719</ele>
        <time>2023-10-01T10:51:24.000Z</time>
      </trkpt>
      <trkpt lat="45.0178" lon="5.81287">
        <ele>1389.1999511719</ele>
        <time>2023-10-01T10:51:25.000Z</time>
      </trkpt>
      <trkpt lat="45.01781" lon="5.81286">
        <ele>1389.1999511719</ele>
        <time>2023-10-01T10:51:26.000Z</time>
      </trkpt>
      <trkpt lat="45.01781" lon="5.81287">
        <ele>1389.1999511719</ele>
        <time>2023-10-01T10:51:27.000Z</time>
      </trkpt>
      <trkpt lat="45.01782" lon="5.81287">
        <ele>1389.1999511719</ele>
        <time>2023-10-01T10:51:28.000Z</time>
      </trkpt>
      <trkpt lat="45.01784" lon="5.81286">
        <ele>1389.1999511719</ele>
        <time>2023-10-01T10:51:29.000Z</time>
      </trkpt>
      <trkpt lat="45.01785" lon="5.81286">
        <ele>1389.1999511719</ele>
        <time>2023-10-01T10:51:30.000Z</time>
      </trkpt>
      <trkpt lat="45.01787" lon="5.81286">
        <ele>1389</ele>
        <time>2023-10-01T10:51:31.000Z</time>
      </trkpt>
      <trkpt lat="45.01789" lon="5.81286">
        <ele>1389</ele>
        <time>2023-10-01T10:51:32.000Z</time>
      </trkpt>
      <trkpt lat="45.0179" lon="5.81286">
        <ele>1388.8000488281</ele>
        <time>2023-10-01T10:51:33.000Z</time>
      </trkpt>
      <trkpt lat="45.01792" lon="5.81286">
        <ele>1388.8000488281</ele>
        <time>2023-10-01T10:51:34.000Z</time>
      </trkpt>
      <trkpt lat="45.01793" lon="5.81286">
        <ele>1388.5999755859</ele>
        <time>2023-10-01T10:51:35.000Z</time>
      </trkpt>
      <trkpt lat="45.01795" lon="5.81286">
        <ele>1388.5999755859</ele>
        <time>2023-10-01T10:51:36.000Z</time>
      </trkpt>
      <trkpt lat="45.01796" lon="5.81285">
        <ele>1388.5999755859</ele>
        <time>2023-10-01T10:51:37.000Z</time>
      </trkpt>
      <trkpt lat="45.01798" lon="5.81285">
        <ele>1388.4000244141</ele>
        <time>2023-10-01T10:51:38.000Z</time>
      </trkpt>
      <trkpt lat="45.01799" lon="5.81284">
        <ele>1388.4000244141</ele>
        <time>2023-10-01T10:51:39.000Z</time>
      </trkpt>
      <trkpt lat="45.01801" lon="5.81284">
        <ele>1388.1999511719</ele>
        <time>2023-10-01T10:51:40.000Z</time>
      </trkpt>
      <trkpt lat="45.01803" lon="5.81284">
        <ele>1388</ele>
        <time>2023-10-01T10:51:41.000Z</time>
      </trkpt>
      <trkpt lat="45.01805" lon="5.81283">
        <ele>1387.8000488281</ele>
        <time>2023-10-01T10:51:42.000Z</time>
      </trkpt>
      <trkpt lat="45.01806" lon="5.81282">
        <ele>1387.8000488281</ele>
        <time>2023-10-01T10:51:43.000Z</time>
      </trkpt>
      <trkpt lat="45.01808" lon="5.81282">
        <ele>1387.8000488281</ele>
        <time>2023-10-01T10:51:44.000Z</time>
      </trkpt>
      <trkpt lat="45.01809" lon="5.81281">
        <ele>1387.5999755859</ele>
        <time>2023-10-01T10:51:45.000Z</time>
      </trkpt>
      <trkpt lat="45.01811" lon="5.81281">
        <ele>1387.4000244141</ele>
        <time>2023-10-01T10:51:46.000Z</time>
      </trkpt>
      <trkpt lat="45.01813" lon="5.81281">
        <ele>1387.1999511719</ele>
        <time>2023-10-01T10:51:47.000Z</time>
      </trkpt>
      <trkpt lat="45.01815" lon="5.8128">
        <ele>1386.8000488281</ele>
        <time>2023-10-01T10:51:48.000Z</time>
      </trkpt>
      <trkpt lat="45.01816" lon="5.8128">
        <ele>1386.4000244141</ele>
        <time>2023-10-01T10:51:49.000Z</time>
      </trkpt>
      <trkpt lat="45.01817" lon="5.81279">
        <ele>1386.1999511719</ele>
        <time>2023-10-01T10:51:50.000Z</time>
      </trkpt>
      <trkpt lat="45.01818" lon="5.81279">
        <ele>1386</ele>
        <time>2023-10-01T10:51:51.000Z</time>
      </trkpt>
      <trkpt lat="45.0182" lon="5.81278">
        <ele>1385.8000488281</ele>
        <time>2023-10-01T10:51:52.000Z</time>
      </trkpt>
      <trkpt lat="45.01821" lon="5.81279">
        <ele>1385.5999755859</ele>
        <time>2023-10-01T10:51:53.000Z</time>
      </trkpt>
      <trkpt lat="45.01822" lon="5.81278">
        <ele>1385.5999755859</ele>
        <time>2023-10-01T10:51:54.000Z</time>
      </trkpt>
      <trkpt lat="45.01824" lon="5.81277">
        <ele>1385.4000244141</ele>
        <time>2023-10-01T10:51:55.000Z</time>
      </trkpt>
      <trkpt lat="45.01825" lon="5.81277">
        <ele>1385.1999511719</ele>
        <time>2023-10-01T10:51:56.000Z</time>
      </trkpt>
      <trkpt lat="45.01827" lon="5.81277">
        <ele>1385</ele>
        <time>2023-10-01T10:51:57.000Z</time>
      </trkpt>
      <trkpt lat="45.01828" lon="5.81277">
        <ele>1384.8000488281</ele>
        <time>2023-10-01T10:51:58.000Z</time>
      </trkpt>
      <trkpt lat="45.0183" lon="5.81277">
        <ele>1384.5999755859</ele>
        <time>2023-10-01T10:51:59.000Z</time>
      </trkpt>
      <trkpt lat="45.01832" lon="5.81276">
        <ele>1384.4000244141</ele>
        <time>2023-10-01T10:52:00.000Z</time>
      </trkpt>
      <trkpt lat="45.01833" lon="5.81276">
        <ele>1384.1999511719</ele>
        <time>2023-10-01T10:52:01.000Z</time>
      </trkpt>
      <trkpt lat="45.01834" lon="5.81276">
        <ele>1384.1999511719</ele>
        <time>2023-10-01T10:52:02.000Z</time>
      </trkpt>
      <trkpt lat="45.01836" lon="5.81276">
        <ele>1384.1999511719</ele>
        <time>2023-10-01T10:52:03.000Z</time>
      </trkpt>
      <trkpt lat="45.01837" lon="5.81276">
        <ele>1384</ele>
        <time>2023-10-01T10:52:04.000Z</time>
      </trkpt>
      <trkpt lat="45.01839" lon="5.81276">
        <ele>1383.8000488281</ele>
        <time>2023-10-01T10:52:05.000Z</time>
      </trkpt>
      <trkpt lat="45.0184" lon="5.81276">
        <ele>1383.5999755859</ele>
        <time>2023-10-01T10:52:06.000Z</time>
      </trkpt>
      <trkpt lat="45.01842" lon="5.81276">
        <ele>1383.4000244141</ele>
        <time>2023-10-01T10:52:07.000Z</time>
      </trkpt>
      <trkpt lat="45.01844" lon="5.81276">
        <ele>1383.1999511719</ele>
        <time>2023-10-01T10:52:08.000Z</time>
      </trkpt>
      <trkpt lat="45.01845" lon="5.81276">
        <ele>1383</ele>
        <time>2023-10-01T10:52:09.000Z</time>
      </trkpt>
      <trkpt lat="45.01847" lon="5.81276">
        <ele>1382.5999755859</ele>
        <time>2023-10-01T10:52:10.000Z</time>
      </trkpt>
      <trkpt lat="45.01848" lon="5.81276">
        <ele>1382.4000244141</ele>
        <time>2023-10-01T10:52:11.000Z</time>
      </trkpt>
      <trkpt lat="45.0185" lon="5.81276">
        <ele>1382.1999511719</ele>
        <time>2023-10-01T10:52:12.000Z</time>
      </trkpt>
      <trkpt lat="45.01851" lon="5.81276">
        <ele>1382.1999511719</ele>
        <time>2023-10-01T10:52:13.000Z</time>
      </trkpt>
      <trkpt lat="45.01853" lon="5.81276">
        <ele>1382</ele>
        <time>2023-10-01T10:52:14.000Z</time>
      </trkpt>
      <trkpt lat="45.01854" lon="5.81276">
        <ele>1381.8000488281</ele>
        <time>2023-10-01T10:52:15.000Z</time>
      </trkpt>
      <trkpt lat="45.01855" lon="5.81276">
        <ele>1381.8000488281</ele>
        <time>2023-10-01T10:52:16.000Z</time>
      </trkpt>
      <trkpt lat="45.01857" lon="5.81276">
        <ele>1381.5999755859</ele>
        <time>2023-10-01T10:52:17.000Z</time>
      </trkpt>
      <trkpt lat="45.01858" lon="5.81277">
        <ele>1381.4000244141</ele>
        <time>2023-10-01T10:52:18.000Z</time>
      </trkpt>
      <trkpt lat="45.01859" lon="5.81277">
        <ele>1381.4000244141</ele>
        <time>2023-10-01T10:52:19.000Z</time>
      </trkpt>
      <trkpt lat="45.01861" lon="5.81277">
        <ele>1381.4000244141</ele>
        <time>2023-10-01T10:52:20.000Z</time>
      </trkpt>
      <trkpt lat="45.01863" lon="5.81276">
        <ele>1381.4000244141</ele>
        <time>2023-10-01T10:52:21.000Z</time>
      </trkpt>
      <trkpt lat="45.01864" lon="5.81276">
        <ele>1381.4000244141</ele>
        <time>2023-10-01T10:52:22.000Z</time>
      </trkpt>
      <trkpt lat="45.01866" lon="5.81276">
        <ele>1381.4000244141</ele>
        <time>2023-10-01T10:52:23.000Z</time>
      </trkpt>
      <trkpt lat="45.01868" lon="5.81276">
        <ele>1381.1999511719</ele>
        <time>2023-10-01T10:52:24.000Z</time>
      </trkpt>
      <trkpt lat="45.0187" lon="5.81276">
        <ele>1381</ele>
        <time>2023-10-01T10:52:25.000Z</time>
      </trkpt>
      <trkpt lat="45.01871" lon="5.81276">
        <ele>1380.8000488281</ele>
        <time>2023-10-01T10:52:26.000Z</time>
      </trkpt>
      <trkpt lat="45.01873" lon="5.81276">
        <ele>1380.5999755859</ele>
        <time>2023-10-01T10:52:27.000Z</time>
      </trkpt>
      <trkpt lat="45.01874" lon="5.81276">
        <ele>1380.5999755859</ele>
        <time>2023-10-01T10:52:28.000Z</time>
      </trkpt>
      <trkpt lat="45.01875" lon="5.81276">
        <ele>1380.4000244141</ele>
        <time>2023-10-01T10:52:29.000Z</time>
      </trkpt>
      <trkpt lat="45.01877" lon="5.81275">
        <ele>1380.1999511719</ele>
        <time>2023-10-01T10:52:30.000Z</time>
      </trkpt>
      <trkpt lat="45.01878" lon="5.81275">
        <ele>1380.1999511719</ele>
        <time>2023-10-01T10:52:31.000Z</time>
      </trkpt>
      <trkpt lat="45.0188" lon="5.81275">
        <ele>1380</ele>
        <time>2023-10-01T10:52:32.000Z</time>
      </trkpt>
      <trkpt lat="45.01882" lon="5.81275">
        <ele>1380</ele>
        <time>2023-10-01T10:52:33.000Z</time>
      </trkpt>
      <trkpt lat="45.01883" lon="5.81274">
        <ele>1379.8000488281</ele>
        <time>2023-10-01T10:52:34.000Z</time>
      </trkpt>
      <trkpt lat="45.01884" lon="5.81274">
        <ele>1379.4000244141</ele>
        <time>2023-10-01T10:52:35.000Z</time>
      </trkpt>
      <trkpt lat="45.01886" lon="5.81274">
        <ele>1379.1999511719</ele>
        <time>2023-10-01T10:52:36.000Z</time>
      </trkpt>
      <trkpt lat="45.01887" lon="5.81273">
        <ele>1379</ele>
        <time>2023-10-01T10:52:37.000Z</time>
      </trkpt>
      <trkpt lat="45.01889" lon="5.81274">
        <ele>1378.8000488281</ele>
        <time>2023-10-01T10:52:38.000Z</time>
      </trkpt>
      <trkpt lat="45.01891" lon="5.81274">
        <ele>1378.5999755859</ele>
        <time>2023-10-01T10:52:39.000Z</time>
      </trkpt>
      <trkpt lat="45.01892" lon="5.81273">
        <ele>1378.5999755859</ele>
        <time>2023-10-01T10:52:40.000Z</time>
      </trkpt>
      <trkpt lat="45.01894" lon="5.81273">
        <ele>1378.4000244141</ele>
        <time>2023-10-01T10:52:41.000Z</time>
      </trkpt>
      <trkpt lat="45.01896" lon="5.81273">
        <ele>1378.1999511719</ele>
        <time>2023-10-01T10:52:42.000Z</time>
      </trkpt>
      <trkpt lat="45.01897" lon="5.81273">
        <ele>1378</ele>
        <time>2023-10-01T10:52:43.000Z</time>
      </trkpt>
      <trkpt lat="45.01899" lon="5.81273">
        <ele>1377.8000488281</ele>
        <time>2023-10-01T10:52:44.000Z</time>
      </trkpt>
      <trkpt lat="45.01901" lon="5.81272">
        <ele>1377.8000488281</ele>
        <time>2023-10-01T10:52:45.000Z</time>
      </trkpt>
      <trkpt lat="45.01903" lon="5.81272">
        <ele>1377.4000244141</ele>
        <time>2023-10-01T10:52:46.000Z</time>
      </trkpt>
      <trkpt lat="45.01905" lon="5.81272">
        <ele>1377.1999511719</ele>
        <time>2023-10-01T10:52:47.000Z</time>
      </trkpt>
      <trkpt lat="45.01906" lon="5.81272">
        <ele>1377</ele>
        <time>2023-10-01T10:52:48.000Z</time>
      </trkpt>
      <trkpt lat="45.01908" lon="5.81272">
        <ele>1376.8000488281</ele>
        <time>2023-10-01T10:52:49.000Z</time>
      </trkpt>
      <trkpt lat="45.01909" lon="5.81271">
        <ele>1376.8000488281</ele>
        <time>2023-10-01T10:52:50.000Z</time>
      </trkpt>
      <trkpt lat="45.0191" lon="5.81271">
        <ele>1376.5999755859</ele>
        <time>2023-10-01T10:52:51.000Z</time>
      </trkpt>
      <trkpt lat="45.01912" lon="5.81271">
        <ele>1376.4000244141</ele>
        <time>2023-10-01T10:52:52.000Z</time>
      </trkpt>
      <trkpt lat="45.01913" lon="5.81271">
        <ele>1376.1999511719</ele>
        <time>2023-10-01T10:52:53.000Z</time>
      </trkpt>
      <trkpt lat="45.01915" lon="5.81271">
        <ele>1376.1999511719</ele>
        <time>2023-10-01T10:52:54.000Z</time>
      </trkpt>
      <trkpt lat="45.01917" lon="5.8127">
        <ele>1376</ele>
        <time>2023-10-01T10:52:55.000Z</time>
      </trkpt>
      <trkpt lat="45.01919" lon="5.8127">
        <ele>1375.8000488281</ele>
        <time>2023-10-01T10:52:56.000Z</time>
      </trkpt>
      <trkpt lat="45.01921" lon="5.81269">
        <ele>1375.8000488281</ele>
        <time>2023-10-01T10:52:57.000Z</time>
      </trkpt>
      <trkpt lat="45.01922" lon="5.81269">
        <ele>1375.8000488281</ele>
        <time>2023-10-01T10:52:58.000Z</time>
      </trkpt>
      <trkpt lat="45.01923" lon="5.81269">
        <ele>1375.5999755859</ele>
        <time>2023-10-01T10:52:59.000Z</time>
      </trkpt>
      <trkpt lat="45.01924" lon="5.8127">
        <ele>1375.4000244141</ele>
        <time>2023-10-01T10:53:00.000Z</time>
      </trkpt>
      <trkpt lat="45.01926" lon="5.8127">
        <ele>1375.4000244141</ele>
        <time>2023-10-01T10:53:01.000Z</time>
      </trkpt>
      <trkpt lat="45.01927" lon="5.8127">
        <ele>1375.1999511719</ele>
        <time>2023-10-01T10:53:02.000Z</time>
      </trkpt>
      <trkpt lat="45.01928" lon="5.8127">
        <ele>1375</ele>
        <time>2023-10-01T10:53:03.000Z</time>
      </trkpt>
      <trkpt lat="45.0193" lon="5.8127">
        <ele>1375</ele>
        <time>2023-10-01T10:53:04.000Z</time>
      </trkpt>
      <trkpt lat="45.01931" lon="5.8127">
        <ele>1374.8000488281</ele>
        <time>2023-10-01T10:53:05.000Z</time>
      </trkpt>
      <trkpt lat="45.01933" lon="5.8127">
        <ele>1374.8000488281</ele>
        <time>2023-10-01T10:53:06.000Z</time>
      </trkpt>
      <trkpt lat="45.01934" lon="5.8127">
        <ele>1374.4000244141</ele>
        <time>2023-10-01T10:53:07.000Z</time>
      </trkpt>
      <trkpt lat="45.01936" lon="5.8127">
        <ele>1374.4000244141</ele>
        <time>2023-10-01T10:53:08.000Z</time>
      </trkpt>
      <trkpt lat="45.01938" lon="5.8127">
        <ele>1374.1999511719</ele>
        <time>2023-10-01T10:53:09.000Z</time>
      </trkpt>
      <trkpt lat="45.0194" lon="5.8127">
        <ele>1374.1999511719</ele>
        <time>2023-10-01T10:53:10.000Z</time>
      </trkpt>
      <trkpt lat="45.01941" lon="5.8127">
        <ele>1374</ele>
        <time>2023-10-01T10:53:11.000Z</time>
      </trkpt>
      <trkpt lat="45.01943" lon="5.8127">
        <ele>1373.8000488281</ele>
        <time>2023-10-01T10:53:12.000Z</time>
      </trkpt>
      <trkpt lat="45.01944" lon="5.8127">
        <ele>1373.5999755859</ele>
        <time>2023-10-01T10:53:13.000Z</time>
      </trkpt>
      <trkpt lat="45.01946" lon="5.8127">
        <ele>1373.5999755859</ele>
        <time>2023-10-01T10:53:14.000Z</time>
      </trkpt>
      <trkpt lat="45.01947" lon="5.8127">
        <ele>1373.5999755859</ele>
        <time>2023-10-01T10:53:15.000Z</time>
      </trkpt>
      <trkpt lat="45.01949" lon="5.8127">
        <ele>1373.4000244141</ele>
        <time>2023-10-01T10:53:16.000Z</time>
      </trkpt>
      <trkpt lat="45.0195" lon="5.8127">
        <ele>1373.4000244141</ele>
        <time>2023-10-01T10:53:17.000Z</time>
      </trkpt>
      <trkpt lat="45.01952" lon="5.8127">
        <ele>1373.1999511719</ele>
        <time>2023-10-01T10:53:18.000Z</time>
      </trkpt>
      <trkpt lat="45.01953" lon="5.8127">
        <ele>1373</ele>
        <time>2023-10-01T10:53:19.000Z</time>
      </trkpt>
      <trkpt lat="45.01955" lon="5.81269">
        <ele>1373</ele>
        <time>2023-10-01T10:53:20.000Z</time>
      </trkpt>
      <trkpt lat="45.01957" lon="5.81269">
        <ele>1372.5999755859</ele>
        <time>2023-10-01T10:53:21.000Z</time>
      </trkpt>
      <trkpt lat="45.01959" lon="5.81269">
        <ele>1372.4000244141</ele>
        <time>2023-10-01T10:53:22.000Z</time>
      </trkpt>
      <trkpt lat="45.0196" lon="5.81268">
        <ele>1372.1999511719</ele>
        <time>2023-10-01T10:53:23.000Z</time>
      </trkpt>
      <trkpt lat="45.01962" lon="5.81268">
        <ele>1372</ele>
        <time>2023-10-01T10:53:24.000Z</time>
      </trkpt>
      <trkpt lat="45.01964" lon="5.81267">
        <ele>1371.8000488281</ele>
        <time>2023-10-01T10:53:25.000Z</time>
      </trkpt>
      <trkpt lat="45.01965" lon="5.81267">
        <ele>1371.5999755859</ele>
        <time>2023-10-01T10:53:26.000Z</time>
      </trkpt>
      <trkpt lat="45.01966" lon="5.81266">
        <ele>1371.4000244141</ele>
        <time>2023-10-01T10:53:27.000Z</time>
      </trkpt>
      <trkpt lat="45.01967" lon="5.81266">
        <ele>1371.1999511719</ele>
        <time>2023-10-01T10:53:28.000Z</time>
      </trkpt>
      <trkpt lat="45.01969" lon="5.81265">
        <ele>1371</ele>
        <time>2023-10-01T10:53:29.000Z</time>
      </trkpt>
      <trkpt lat="45.0197" lon="5.81265">
        <ele>1371</ele>
        <time>2023-10-01T10:53:30.000Z</time>
      </trkpt>
      <trkpt lat="45.01972" lon="5.81265">
        <ele>1370.8000488281</ele>
        <time>2023-10-01T10:53:31.000Z</time>
      </trkpt>
      <trkpt lat="45.01974" lon="5.81265">
        <ele>1370.5999755859</ele>
        <time>2023-10-01T10:53:32.000Z</time>
      </trkpt>
      <trkpt lat="45.01976" lon="5.81264">
        <ele>1370.5999755859</ele>
        <time>2023-10-01T10:53:33.000Z</time>
      </trkpt>
      <trkpt lat="45.01977" lon="5.81264">
        <ele>1370.4000244141</ele>
        <time>2023-10-01T10:53:34.000Z</time>
      </trkpt>
      <trkpt lat="45.01978" lon="5.81264">
        <ele>1370.4000244141</ele>
        <time>2023-10-01T10:53:35.000Z</time>
      </trkpt>
      <trkpt lat="45.0198" lon="5.81264">
        <ele>1370.1999511719</ele>
        <time>2023-10-01T10:53:36.000Z</time>
      </trkpt>
      <trkpt lat="45.01981" lon="5.81264">
        <ele>1369.8000488281</ele>
        <time>2023-10-01T10:53:37.000Z</time>
      </trkpt>
      <trkpt lat="45.01983" lon="5.81264">
        <ele>1369.5999755859</ele>
        <time>2023-10-01T10:53:38.000Z</time>
      </trkpt>
      <trkpt lat="45.01985" lon="5.81264">
        <ele>1369.5999755859</ele>
        <time>2023-10-01T10:53:39.000Z</time>
      </trkpt>
      <trkpt lat="45.01986" lon="5.81264">
        <ele>1369.4000244141</ele>
        <time>2023-10-01T10:53:40.000Z</time>
      </trkpt>
      <trkpt lat="45.01988" lon="5.81264">
        <ele>1369.1999511719</ele>
        <time>2023-10-01T10:53:41.000Z</time>
      </trkpt>
      <trkpt lat="45.0199" lon="5.81264">
        <ele>1369.1999511719</ele>
        <time>2023-10-01T10:53:42.000Z</time>
      </trkpt>
      <trkpt lat="45.01992" lon="5.81264">
        <ele>1369</ele>
        <time>2023-10-01T10:53:43.000Z</time>
      </trkpt>
      <trkpt lat="45.01993" lon="5.81264">
        <ele>1368.8000488281</ele>
        <time>2023-10-01T10:53:44.000Z</time>
      </trkpt>
      <trkpt lat="45.01995" lon="5.81263">
        <ele>1368.8000488281</ele>
        <time>2023-10-01T10:53:45.000Z</time>
      </trkpt>
      <trkpt lat="45.01997" lon="5.81263">
        <ele>1368.5999755859</ele>
        <time>2023-10-01T10:53:46.000Z</time>
      </trkpt>
      <trkpt lat="45.01998" lon="5.81263">
        <ele>1368.4000244141</ele>
        <time>2023-10-01T10:53:47.000Z</time>
      </trkpt>
      <trkpt lat="45.01999" lon="5.81263">
        <ele>1368.1999511719</ele>
        <time>2023-10-01T10:53:48.000Z</time>
      </trkpt>
      <trkpt lat="45.02001" lon="5.81263">
        <ele>1368.1999511719</ele>
        <time>2023-10-01T10:53:49.000Z</time>
      </trkpt>
      <trkpt lat="45.02003" lon="5.81263">
        <ele>1368</ele>
        <time>2023-10-01T10:53:50.000Z</time>
      </trkpt>
      <trkpt lat="45.02004" lon="5.81263">
        <ele>1367.8000488281</ele>
        <time>2023-10-01T10:53:51.000Z</time>
      </trkpt>
      <trkpt lat="45.02006" lon="5.81263">
        <ele>1367.8000488281</ele>
        <time>2023-10-01T10:53:52.000Z</time>
      </trkpt>
      <trkpt lat="45.02007" lon="5.81263">
        <ele>1367.5999755859</ele>
        <time>2023-10-01T10:53:53.000Z</time>
      </trkpt>
      <trkpt lat="45.02009" lon="5.81263">
        <ele>1367.5999755859</ele>
        <time>2023-10-01T10:53:54.000Z</time>
      </trkpt>
      <trkpt lat="45.02011" lon="5.81263">
        <ele>1367.4000244141</ele>
        <time>2023-10-01T10:53:55.000Z</time>
      </trkpt>
      <trkpt lat="45.02012" lon="5.81262">
        <ele>1367.1999511719</ele>
        <time>2023-10-01T10:53:56.000Z</time>
      </trkpt>
      <trkpt lat="45.02013" lon="5.81262">
        <ele>1367</ele>
        <time>2023-10-01T10:53:57.000Z</time>
      </trkpt>
      <trkpt lat="45.02015" lon="5.81262">
        <ele>1366.8000488281</ele>
        <time>2023-10-01T10:53:58.000Z</time>
      </trkpt>
      <trkpt lat="45.02017" lon="5.81262">
        <ele>1366.5999755859</ele>
        <time>2023-10-01T10:53:59.000Z</time>
      </trkpt>
      <trkpt lat="45.02019" lon="5.81262">
        <ele>1366.4000244141</ele>
        <time>2023-10-01T10:54:00.000Z</time>
      </trkpt>
      <trkpt lat="45.0202" lon="5.81262">
        <ele>1366.4000244141</ele>
        <time>2023-10-01T10:54:01.000Z</time>
      </trkpt>
      <trkpt lat="45.02022" lon="5.81262">
        <ele>1366.1999511719</ele>
        <time>2023-10-01T10:54:02.000Z</time>
      </trkpt>
      <trkpt lat="45.02023" lon="5.81262">
        <ele>1366.1999511719</ele>
        <time>2023-10-01T10:54:03.000Z</time>
      </trkpt>
      <trkpt lat="45.02025" lon="5.81262">
        <ele>1366</ele>
        <time>2023-10-01T10:54:04.000Z</time>
      </trkpt>
      <trkpt lat="45.02026" lon="5.81263">
        <ele>1366</ele>
        <time>2023-10-01T10:54:05.000Z</time>
      </trkpt>
      <trkpt lat="45.02028" lon="5.81263">
        <ele>1366</ele>
        <time>2023-10-01T10:54:06.000Z</time>
      </trkpt>
      <trkpt lat="45.0203" lon="5.81263">
        <ele>1366</ele>
        <time>2023-10-01T10:54:07.000Z</time>
      </trkpt>
      <trkpt lat="45.02031" lon="5.81264">
        <ele>1365.8000488281</ele>
        <time>2023-10-01T10:54:08.000Z</time>
      </trkpt>
      <trkpt lat="45.02032" lon="5.81264">
        <ele>1365.8000488281</ele>
        <time>2023-10-01T10:54:09.000Z</time>
      </trkpt>
      <trkpt lat="45.02033" lon="5.81264">
        <ele>1365.8000488281</ele>
        <time>2023-10-01T10:54:10.000Z</time>
      </trkpt>
      <trkpt lat="45.02035" lon="5.81264">
        <ele>1365.8000488281</ele>
        <time>2023-10-01T10:54:11.000Z</time>
      </trkpt>
      <trkpt lat="45.02037" lon="5.81264">
        <ele>1365.5999755859</ele>
        <time>2023-10-01T10:54:12.000Z</time>
      </trkpt>
      <trkpt lat="45.02039" lon="5.81264">
        <ele>1365.5999755859</ele>
        <time>2023-10-01T10:54:13.000Z</time>
      </trkpt>
      <trkpt lat="45.02041" lon="5.81264">
        <ele>1365.4000244141</ele>
        <time>2023-10-01T10:54:14.000Z</time>
      </trkpt>
      <trkpt lat="45.02042" lon="5.81264">
        <ele>1365.4000244141</ele>
        <time>2023-10-01T10:54:15.000Z</time>
      </trkpt>
      <trkpt lat="45.02044" lon="5.81264">
        <ele>1365.1999511719</ele>
        <time>2023-10-01T10:54:16.000Z</time>
      </trkpt>
      <trkpt lat="45.02046" lon="5.81265">
        <ele>1365.1999511719</ele>
        <time>2023-10-01T10:54:17.000Z</time>
      </trkpt>
      <trkpt lat="45.02047" lon="5.81265">
        <ele>1365</ele>
        <time>2023-10-01T10:54:18.000Z</time>
      </trkpt>
      <trkpt lat="45.02048" lon="5.81264">
        <ele>1364.8000488281</ele>
        <time>2023-10-01T10:54:19.000Z</time>
      </trkpt>
      <trkpt lat="45.0205" lon="5.81265">
        <ele>1364.5999755859</ele>
        <time>2023-10-01T10:54:20.000Z</time>
      </trkpt>
      <trkpt lat="45.02051" lon="5.81265">
        <ele>1364.4000244141</ele>
        <time>2023-10-01T10:54:21.000Z</time>
      </trkpt>
      <trkpt lat="45.02053" lon="5.81265">
        <ele>1364.1999511719</ele>
        <time>2023-10-01T10:54:22.000Z</time>
      </trkpt>
      <trkpt lat="45.02054" lon="5.81265">
        <ele>1364.1999511719</ele>
        <time>2023-10-01T10:54:23.000Z</time>
      </trkpt>
      <trkpt lat="45.02056" lon="5.81265">
        <ele>1364</ele>
        <time>2023-10-01T10:54:24.000Z</time>
      </trkpt>
      <trkpt lat="45.02058" lon="5.81265">
        <ele>1363.8000488281</ele>
        <time>2023-10-01T10:54:25.000Z</time>
      </trkpt>
      <trkpt lat="45.02059" lon="5.81265">
        <ele>1363.5999755859</ele>
        <time>2023-10-01T10:54:26.000Z</time>
      </trkpt>
      <trkpt lat="45.02061" lon="5.81265">
        <ele>1363.4000244141</ele>
        <time>2023-10-01T10:54:27.000Z</time>
      </trkpt>
      <trkpt lat="45.02062" lon="5.81265">
        <ele>1363.1999511719</ele>
        <time>2023-10-01T10:54:28.000Z</time>
      </trkpt>
      <trkpt lat="45.02064" lon="5.81265">
        <ele>1363</ele>
        <time>2023-10-01T10:54:29.000Z</time>
      </trkpt>
      <trkpt lat="45.02065" lon="5.81265">
        <ele>1362.8000488281</ele>
        <time>2023-10-01T10:54:30.000Z</time>
      </trkpt>
      <trkpt lat="45.02067" lon="5.81265">
        <ele>1362.5999755859</ele>
        <time>2023-10-01T10:54:31.000Z</time>
      </trkpt>
      <trkpt lat="45.02068" lon="5.81265">
        <ele>1362.1999511719</ele>
        <time>2023-10-01T10:54:32.000Z</time>
      </trkpt>
      <trkpt lat="45.02069" lon="5.81266">
        <ele>1362.1999511719</ele>
        <time>2023-10-01T10:54:33.000Z</time>
      </trkpt>
      <trkpt lat="45.02071" lon="5.81266">
        <ele>1362</ele>
        <time>2023-10-01T10:54:34.000Z</time>
      </trkpt>
      <trkpt lat="45.02073" lon="5.81266">
        <ele>1362</ele>
        <time>2023-10-01T10:54:35.000Z</time>
      </trkpt>
      <trkpt lat="45.02075" lon="5.81266">
        <ele>1361.8000488281</ele>
        <time>2023-10-01T10:54:36.000Z</time>
      </trkpt>
      <trkpt lat="45.02076" lon="5.81267">
        <ele>1361.5999755859</ele>
        <time>2023-10-01T10:54:37.000Z</time>
      </trkpt>
      <trkpt lat="45.02078" lon="5.81267">
        <ele>1361.4000244141</ele>
        <time>2023-10-01T10:54:38.000Z</time>
      </trkpt>
      <trkpt lat="45.02079" lon="5.81267">
        <ele>1361.4000244141</ele>
        <time>2023-10-01T10:54:39.000Z</time>
      </trkpt>
      <trkpt lat="45.02081" lon="5.81268">
        <ele>1361.1999511719</ele>
        <time>2023-10-01T10:54:40.000Z</time>
      </trkpt>
      <trkpt lat="45.02082" lon="5.81268">
        <ele>1361</ele>
        <time>2023-10-01T10:54:41.000Z</time>
      </trkpt>
      <trkpt lat="45.02084" lon="5.81269">
        <ele>1361</ele>
        <time>2023-10-01T10:54:42.000Z</time>
      </trkpt>
      <trkpt lat="45.02086" lon="5.81269">
        <ele>1360.8000488281</ele>
        <time>2023-10-01T10:54:43.000Z</time>
      </trkpt>
      <trkpt lat="45.02087" lon="5.81269">
        <ele>1360.5999755859</ele>
        <time>2023-10-01T10:54:44.000Z</time>
      </trkpt>
      <trkpt lat="45.02088" lon="5.81269">
        <ele>1360.5999755859</ele>
        <time>2023-10-01T10:54:45.000Z</time>
      </trkpt>
      <trkpt lat="45.0209" lon="5.81269">
        <ele>1360.4000244141</ele>
        <time>2023-10-01T10:54:46.000Z</time>
      </trkpt>
      <trkpt lat="45.02092" lon="5.81269">
        <ele>1360.4000244141</ele>
        <time>2023-10-01T10:54:47.000Z</time>
      </trkpt>
      <trkpt lat="45.02093" lon="5.81269">
        <ele>1360.1999511719</ele>
        <time>2023-10-01T10:54:48.000Z</time>
      </trkpt>
      <trkpt lat="45.02095" lon="5.8127">
        <ele>1360.1999511719</ele>
        <time>2023-10-01T10:54:49.000Z</time>
      </trkpt>
      <trkpt lat="45.02097" lon="5.8127">
        <ele>1360</ele>
        <time>2023-10-01T10:54:50.000Z</time>
      </trkpt>
      <trkpt lat="45.02098" lon="5.8127">
        <ele>1359.8000488281</ele>
        <time>2023-10-01T10:54:51.000Z</time>
      </trkpt>
      <trkpt lat="45.021" lon="5.8127">
        <ele>1359.5999755859</ele>
        <time>2023-10-01T10:54:52.000Z</time>
      </trkpt>
      <trkpt lat="45.02101" lon="5.81271">
        <ele>1359.5999755859</ele>
        <time>2023-10-01T10:54:53.000Z</time>
      </trkpt>
      <trkpt lat="45.02103" lon="5.8127">
        <ele>1359.4000244141</ele>
        <time>2023-10-01T10:54:54.000Z</time>
      </trkpt>
      <trkpt lat="45.02104" lon="5.81271">
        <ele>1359.1999511719</ele>
        <time>2023-10-01T10:54:55.000Z</time>
      </trkpt>
      <trkpt lat="45.02106" lon="5.81271">
        <ele>1359</ele>
        <time>2023-10-01T10:54:56.000Z</time>
      </trkpt>
      <trkpt lat="45.02107" lon="5.81271">
        <ele>1359</ele>
        <time>2023-10-01T10:54:57.000Z</time>
      </trkpt>
      <trkpt lat="45.02108" lon="5.81271">
        <ele>1358.8000488281</ele>
        <time>2023-10-01T10:54:58.000Z</time>
      </trkpt>
      <trkpt lat="45.0211" lon="5.81271">
        <ele>1358.5999755859</ele>
        <time>2023-10-01T10:54:59.000Z</time>
      </trkpt>
      <trkpt lat="45.02111" lon="5.81271">
        <ele>1358.4000244141</ele>
        <time>2023-10-01T10:55:00.000Z</time>
      </trkpt>
      <trkpt lat="45.02112" lon="5.81271">
        <ele>1358.1999511719</ele>
        <time>2023-10-01T10:55:01.000Z</time>
      </trkpt>
      <trkpt lat="45.02114" lon="5.81272">
        <ele>1357.8000488281</ele>
        <time>2023-10-01T10:55:02.000Z</time>
      </trkpt>
      <trkpt lat="45.02115" lon="5.81273">
        <ele>1357.5999755859</ele>
        <time>2023-10-01T10:55:03.000Z</time>
      </trkpt>
      <trkpt lat="45.02116" lon="5.81273">
        <ele>1357.4000244141</ele>
        <time>2023-10-01T10:55:04.000Z</time>
      </trkpt>
      <trkpt lat="45.02118" lon="5.81273">
        <ele>1357</ele>
        <time>2023-10-01T10:55:05.000Z</time>
      </trkpt>
      <trkpt lat="45.02119" lon="5.81273">
        <ele>1356.8000488281</ele>
        <time>2023-10-01T10:55:06.000Z</time>
      </trkpt>
      <trkpt lat="45.02121" lon="5.81273">
        <ele>1356.4000244141</ele>
        <time>2023-10-01T10:55:07.000Z</time>
      </trkpt>
      <trkpt lat="45.02122" lon="5.81274">
        <ele>1356.1999511719</ele>
        <time>2023-10-01T10:55:08.000Z</time>
      </trkpt>
      <trkpt lat="45.02124" lon="5.81274">
        <ele>1356</ele>
        <time>2023-10-01T10:55:09.000Z</time>
      </trkpt>
      <trkpt lat="45.02126" lon="5.81274">
        <ele>1356</ele>
        <time>2023-10-01T10:55:10.000Z</time>
      </trkpt>
      <trkpt lat="45.02127" lon="5.81275">
        <ele>1355.8000488281</ele>
        <time>2023-10-01T10:55:11.000Z</time>
      </trkpt>
      <trkpt lat="45.02129" lon="5.81275">
        <ele>1355.8000488281</ele>
        <time>2023-10-01T10:55:12.000Z</time>
      </trkpt>
      <trkpt lat="45.0213" lon="5.81275">
        <ele>1355.8000488281</ele>
        <time>2023-10-01T10:55:13.000Z</time>
      </trkpt>
      <trkpt lat="45.02131" lon="5.81276">
        <ele>1355.5999755859</ele>
        <time>2023-10-01T10:55:14.000Z</time>
      </trkpt>
      <trkpt lat="45.02133" lon="5.81277">
        <ele>1355.4000244141</ele>
        <time>2023-10-01T10:55:15.000Z</time>
      </trkpt>
      <trkpt lat="45.02135" lon="5.81277">
        <ele>1355.4000244141</ele>
        <time>2023-10-01T10:55:16.000Z</time>
      </trkpt>
      <trkpt lat="45.02137" lon="5.81278">
        <ele>1355.1999511719</ele>
        <time>2023-10-01T10:55:17.000Z</time>
      </trkpt>
      <trkpt lat="45.02139" lon="5.81279">
        <ele>1355.1999511719</ele>
        <time>2023-10-01T10:55:18.000Z</time>
      </trkpt>
      <trkpt lat="45.02141" lon="5.81279">
        <ele>1355.1999511719</ele>
        <time>2023-10-01T10:55:19.000Z</time>
      </trkpt>
      <trkpt lat="45.02142" lon="5.81279">
        <ele>1355.1999511719</ele>
        <time>2023-10-01T10:55:20.000Z</time>
      </trkpt>
      <trkpt lat="45.02143" lon="5.81279">
        <ele>1355</ele>
        <time>2023-10-01T10:55:21.000Z</time>
      </trkpt>
      <trkpt lat="45.02145" lon="5.8128">
        <ele>1355</ele>
        <time>2023-10-01T10:55:22.000Z</time>
      </trkpt>
      <trkpt lat="45.02146" lon="5.8128">
        <ele>1355</ele>
        <time>2023-10-01T10:55:23.000Z</time>
      </trkpt>
      <trkpt lat="45.02148" lon="5.8128">
        <ele>1354.8000488281</ele>
        <time>2023-10-01T10:55:24.000Z</time>
      </trkpt>
      <trkpt lat="45.02149" lon="5.81281">
        <ele>1354.8000488281</ele>
        <time>2023-10-01T10:55:25.000Z</time>
      </trkpt>
      <trkpt lat="45.02151" lon="5.81282">
        <ele>1354.8000488281</ele>
        <time>2023-10-01T10:55:26.000Z</time>
      </trkpt>
      <trkpt lat="45.02152" lon="5.81283">
        <ele>1354.5999755859</ele>
        <time>2023-10-01T10:55:27.000Z</time>
      </trkpt>
      <trkpt lat="45.02154" lon="5.81284">
        <ele>1354.5999755859</ele>
        <time>2023-10-01T10:55:28.000Z</time>
      </trkpt>
      <trkpt lat="45.02156" lon="5.81284">
        <ele>1354.5999755859</ele>
        <time>2023-10-01T10:55:29.000Z</time>
      </trkpt>
      <trkpt lat="45.02157" lon="5.81284">
        <ele>1354.5999755859</ele>
        <time>2023-10-01T10:55:30.000Z</time>
      </trkpt>
      <trkpt lat="45.02159" lon="5.81285">
        <ele>1354.4000244141</ele>
        <time>2023-10-01T10:55:31.000Z</time>
      </trkpt>
      <trkpt lat="45.0216" lon="5.81285">
        <ele>1354.1999511719</ele>
        <time>2023-10-01T10:55:32.000Z</time>
      </trkpt>
      <trkpt lat="45.02162" lon="5.81285">
        <ele>1354.1999511719</ele>
        <time>2023-10-01T10:55:33.000Z</time>
      </trkpt>
      <trkpt lat="45.02163" lon="5.81286">
        <ele>1354.1999511719</ele>
        <time>2023-10-01T10:55:34.000Z</time>
      </trkpt>
      <trkpt lat="45.02165" lon="5.81287">
        <ele>1354</ele>
        <time>2023-10-01T10:55:35.000Z</time>
      </trkpt>
      <trkpt lat="45.02166" lon="5.81287">
        <ele>1353.8000488281</ele>
        <time>2023-10-01T10:55:36.000Z</time>
      </trkpt>
      <trkpt lat="45.02168" lon="5.81288">
        <ele>1353.8000488281</ele>
        <time>2023-10-01T10:55:37.000Z</time>
      </trkpt>
      <trkpt lat="45.02169" lon="5.81289">
        <ele>1353.4000244141</ele>
        <time>2023-10-01T10:55:38.000Z</time>
      </trkpt>
      <trkpt lat="45.0217" lon="5.8129">
        <ele>1353.1999511719</ele>
        <time>2023-10-01T10:55:39.000Z</time>
      </trkpt>
      <trkpt lat="45.02172" lon="5.8129">
        <ele>1353.1999511719</ele>
        <time>2023-10-01T10:55:40.000Z</time>
      </trkpt>
      <trkpt lat="45.02174" lon="5.8129">
        <ele>1353</ele>
        <time>2023-10-01T10:55:41.000Z</time>
      </trkpt>
      <trkpt lat="45.02175" lon="5.81291">
        <ele>1352.8000488281</ele>
        <time>2023-10-01T10:55:42.000Z</time>
      </trkpt>
      <trkpt lat="45.02177" lon="5.81292">
        <ele>1352.5999755859</ele>
        <time>2023-10-01T10:55:43.000Z</time>
      </trkpt>
      <trkpt lat="45.02178" lon="5.81293">
        <ele>1352.4000244141</ele>
        <time>2023-10-01T10:55:44.000Z</time>
      </trkpt>
      <trkpt lat="45.02179" lon="5.81293">
        <ele>1352.1999511719</ele>
        <time>2023-10-01T10:55:45.000Z</time>
      </trkpt>
      <trkpt lat="45.02181" lon="5.81293">
        <ele>1352.1999511719</ele>
        <time>2023-10-01T10:55:46.000Z</time>
      </trkpt>
      <trkpt lat="45.02182" lon="5.81294">
        <ele>1352</ele>
        <time>2023-10-01T10:55:47.000Z</time>
      </trkpt>
      <trkpt lat="45.02183" lon="5.81294">
        <ele>1351.5999755859</ele>
        <time>2023-10-01T10:55:48.000Z</time>
      </trkpt>
      <trkpt lat="45.02185" lon="5.81295">
        <ele>1351.5999755859</ele>
        <time>2023-10-01T10:55:49.000Z</time>
      </trkpt>
      <trkpt lat="45.02187" lon="5.81295">
        <ele>1351.4000244141</ele>
        <time>2023-10-01T10:55:50.000Z</time>
      </trkpt>
      <trkpt lat="45.02188" lon="5.81296">
        <ele>1351.1999511719</ele>
        <time>2023-10-01T10:55:51.000Z</time>
      </trkpt>
      <trkpt lat="45.0219" lon="5.81296">
        <ele>1351</ele>
        <time>2023-10-01T10:55:52.000Z</time>
      </trkpt>
      <trkpt lat="45.02191" lon="5.81296">
        <ele>1350.8000488281</ele>
        <time>2023-10-01T10:55:53.000Z</time>
      </trkpt>
      <trkpt lat="45.02193" lon="5.81297">
        <ele>1350.5999755859</ele>
        <time>2023-10-01T10:55:54.000Z</time>
      </trkpt>
      <trkpt lat="45.02194" lon="5.81297">
        <ele>1350.1999511719</ele>
        <time>2023-10-01T10:55:55.000Z</time>
      </trkpt>
      <trkpt lat="45.02196" lon="5.81298">
        <ele>1350</ele>
        <time>2023-10-01T10:55:56.000Z</time>
      </trkpt>
      <trkpt lat="45.02198" lon="5.81298">
        <ele>1349.8000488281</ele>
        <time>2023-10-01T10:55:57.000Z</time>
      </trkpt>
      <trkpt lat="45.022" lon="5.81299">
        <ele>1349.8000488281</ele>
        <time>2023-10-01T10:55:58.000Z</time>
      </trkpt>
      <trkpt lat="45.02201" lon="5.81299">
        <ele>1349.5999755859</ele>
        <time>2023-10-01T10:55:59.000Z</time>
      </trkpt>
      <trkpt lat="45.02203" lon="5.813">
        <ele>1349.4000244141</ele>
        <time>2023-10-01T10:56:00.000Z</time>
      </trkpt>
      <trkpt lat="45.02205" lon="5.81301">
        <ele>1349.1999511719</ele>
        <time>2023-10-01T10:56:01.000Z</time>
      </trkpt>
      <trkpt lat="45.02206" lon="5.81302">
        <ele>1349.1999511719</ele>
        <time>2023-10-01T10:56:02.000Z</time>
      </trkpt>
      <trkpt lat="45.02208" lon="5.81303">
        <ele>1349</ele>
        <time>2023-10-01T10:56:03.000Z</time>
      </trkpt>
      <trkpt lat="45.02209" lon="5.81303">
        <ele>1348.8000488281</ele>
        <time>2023-10-01T10:56:04.000Z</time>
      </trkpt>
      <trkpt lat="45.0221" lon="5.81303">
        <ele>1348.8000488281</ele>
        <time>2023-10-01T10:56:05.000Z</time>
      </trkpt>
      <trkpt lat="45.02212" lon="5.81303">
        <ele>1348.8000488281</ele>
        <time>2023-10-01T10:56:06.000Z</time>
      </trkpt>
      <trkpt lat="45.02214" lon="5.81304">
        <ele>1348.5999755859</ele>
        <time>2023-10-01T10:56:07.000Z</time>
      </trkpt>
      <trkpt lat="45.02215" lon="5.81304">
        <ele>1348.4000244141</ele>
        <time>2023-10-01T10:56:08.000Z</time>
      </trkpt>
      <trkpt lat="45.02217" lon="5.81305">
        <ele>1348.4000244141</ele>
        <time>2023-10-01T10:56:09.000Z</time>
      </trkpt>
      <trkpt lat="45.02219" lon="5.81305">
        <ele>1348.1999511719</ele>
        <time>2023-10-01T10:56:10.000Z</time>
      </trkpt>
      <trkpt lat="45.0222" lon="5.81304">
        <ele>1348</ele>
        <time>2023-10-01T10:56:11.000Z</time>
      </trkpt>
      <trkpt lat="45.02221" lon="5.81305">
        <ele>1348</ele>
        <time>2023-10-01T10:56:12.000Z</time>
      </trkpt>
      <trkpt lat="45.02223" lon="5.81305">
        <ele>1347.8000488281</ele>
        <time>2023-10-01T10:56:13.000Z</time>
      </trkpt>
      <trkpt lat="45.02225" lon="5.81305">
        <ele>1347.8000488281</ele>
        <time>2023-10-01T10:56:14.000Z</time>
      </trkpt>
      <trkpt lat="45.02226" lon="5.81306">
        <ele>1347.5999755859</ele>
        <time>2023-10-01T10:56:15.000Z</time>
      </trkpt>
      <trkpt lat="45.02228" lon="5.81306">
        <ele>1347.4000244141</ele>
        <time>2023-10-01T10:56:16.000Z</time>
      </trkpt>
      <trkpt lat="45.0223" lon="5.81307">
        <ele>1347.1999511719</ele>
        <time>2023-10-01T10:56:17.000Z</time>
      </trkpt>
      <trkpt lat="45.02232" lon="5.81308">
        <ele>1347.1999511719</ele>
        <time>2023-10-01T10:56:18.000Z</time>
      </trkpt>
      <trkpt lat="45.02233" lon="5.81309">
        <ele>1347</ele>
        <time>2023-10-01T10:56:19.000Z</time>
      </trkpt>
      <trkpt lat="45.02234" lon="5.81309">
        <ele>1346.8000488281</ele>
        <time>2023-10-01T10:56:20.000Z</time>
      </trkpt>
      <trkpt lat="45.02236" lon="5.81309">
        <ele>1346.5999755859</ele>
        <time>2023-10-01T10:56:21.000Z</time>
      </trkpt>
      <trkpt lat="45.02237" lon="5.8131">
        <ele>1346.4000244141</ele>
        <time>2023-10-01T10:56:22.000Z</time>
      </trkpt>
      <trkpt lat="45.02239" lon="5.81311">
        <ele>1346.1999511719</ele>
        <time>2023-10-01T10:56:23.000Z</time>
      </trkpt>
      <trkpt lat="45.02241" lon="5.81311">
        <ele>1346</ele>
        <time>2023-10-01T10:56:24.000Z</time>
      </trkpt>
      <trkpt lat="45.02242" lon="5.81311">
        <ele>1345.8000488281</ele>
        <time>2023-10-01T10:56:25.000Z</time>
      </trkpt>
      <trkpt lat="45.02243" lon="5.81312">
        <ele>1345.5999755859</ele>
        <time>2023-10-01T10:56:26.000Z</time>
      </trkpt>
      <trkpt lat="45.02245" lon="5.81313">
        <ele>1345.5999755859</ele>
        <time>2023-10-01T10:56:27.000Z</time>
      </trkpt>
      <trkpt lat="45.02247" lon="5.81314">
        <ele>1345.4000244141</ele>
        <time>2023-10-01T10:56:28.000Z</time>
      </trkpt>
      <trkpt lat="45.02248" lon="5.81315">
        <ele>1345.1999511719</ele>
        <time>2023-10-01T10:56:29.000Z</time>
      </trkpt>
      <trkpt lat="45.0225" lon="5.81315">
        <ele>1345</ele>
        <time>2023-10-01T10:56:30.000Z</time>
      </trkpt>
      <trkpt lat="45.02251" lon="5.81316">
        <ele>1345</ele>
        <time>2023-10-01T10:56:31.000Z</time>
      </trkpt>
      <trkpt lat="45.02253" lon="5.81317">
        <ele>1344.8000488281</ele>
        <time>2023-10-01T10:56:32.000Z</time>
      </trkpt>
      <trkpt lat="45.02254" lon="5.81318">
        <ele>1344.5999755859</ele>
        <time>2023-10-01T10:56:33.000Z</time>
      </trkpt>
      <trkpt lat="45.02256" lon="5.81318">
        <ele>1344.5999755859</ele>
        <time>2023-10-01T10:56:34.000Z</time>
      </trkpt>
      <trkpt lat="45.02257" lon="5.81319">
        <ele>1344.4000244141</ele>
        <time>2023-10-01T10:56:35.000Z</time>
      </trkpt>
      <trkpt lat="45.02259" lon="5.8132">
        <ele>1344.1999511719</ele>
        <time>2023-10-01T10:56:36.000Z</time>
      </trkpt>
      <trkpt lat="45.0226" lon="5.81321">
        <ele>1344</ele>
        <time>2023-10-01T10:56:37.000Z</time>
      </trkpt>
      <trkpt lat="45.02262" lon="5.81321">
        <ele>1344</ele>
        <time>2023-10-01T10:56:38.000Z</time>
      </trkpt>
      <trkpt lat="45.02264" lon="5.81322">
        <ele>1343.8000488281</ele>
        <time>2023-10-01T10:56:39.000Z</time>
      </trkpt>
      <trkpt lat="45.02265" lon="5.81323">
        <ele>1343.8000488281</ele>
        <time>2023-10-01T10:56:40.000Z</time>
      </trkpt>
      <trkpt lat="45.02267" lon="5.81324">
        <ele>1343.5999755859</ele>
        <time>2023-10-01T10:56:41.000Z</time>
      </trkpt>
      <trkpt lat="45.02268" lon="5.81324">
        <ele>1343.4000244141</ele>
        <time>2023-10-01T10:56:42.000Z</time>
      </trkpt>
      <trkpt lat="45.0227" lon="5.81325">
        <ele>1343.4000244141</ele>
        <time>2023-10-01T10:56:43.000Z</time>
      </trkpt>
      <trkpt lat="45.02271" lon="5.81326">
        <ele>1343.4000244141</ele>
        <time>2023-10-01T10:56:44.000Z</time>
      </trkpt>
      <trkpt lat="45.02273" lon="5.81327">
        <ele>1343</ele>
        <time>2023-10-01T10:56:45.000Z</time>
      </trkpt>
      <trkpt lat="45.02275" lon="5.81328">
        <ele>1342.8000488281</ele>
        <time>2023-10-01T10:56:46.000Z</time>
      </trkpt>
      <trkpt lat="45.02275" lon="5.81328">
        <ele>1342.8000488281</ele>
        <time>2023-10-01T10:56:47.000Z</time>
      </trkpt>
      <trkpt lat="45.02277" lon="5.81329">
        <ele>1342.5999755859</ele>
        <time>2023-10-01T10:56:48.000Z</time>
      </trkpt>
      <trkpt lat="45.02278" lon="5.8133">
        <ele>1342.4000244141</ele>
        <time>2023-10-01T10:56:49.000Z</time>
      </trkpt>
      <trkpt lat="45.0228" lon="5.81331">
        <ele>1342.1999511719</ele>
        <time>2023-10-01T10:56:50.000Z</time>
      </trkpt>
      <trkpt lat="45.02281" lon="5.81332">
        <ele>1342</ele>
        <time>2023-10-01T10:56:51.000Z</time>
      </trkpt>
      <trkpt lat="45.02283" lon="5.81333">
        <ele>1341.8000488281</ele>
        <time>2023-10-01T10:56:52.000Z</time>
      </trkpt>
      <trkpt lat="45.02284" lon="5.81333">
        <ele>1341.8000488281</ele>
        <time>2023-10-01T10:56:53.000Z</time>
      </trkpt>
      <trkpt lat="45.02285" lon="5.81334">
        <ele>1341.8000488281</ele>
        <time>2023-10-01T10:56:54.000Z</time>
      </trkpt>
      <trkpt lat="45.02287" lon="5.81334">
        <ele>1341.8000488281</ele>
        <time>2023-10-01T10:56:55.000Z</time>
      </trkpt>
      <trkpt lat="45.02288" lon="5.81335">
        <ele>1341.5999755859</ele>
        <time>2023-10-01T10:56:56.000Z</time>
      </trkpt>
      <trkpt lat="45.02289" lon="5.81335">
        <ele>1341.4000244141</ele>
        <time>2023-10-01T10:56:57.000Z</time>
      </trkpt>
      <trkpt lat="45.02291" lon="5.81336">
        <ele>1341.1999511719</ele>
        <time>2023-10-01T10:56:58.000Z</time>
      </trkpt>
      <trkpt lat="45.02293" lon="5.81337">
        <ele>1341.1999511719</ele>
        <time>2023-10-01T10:56:59.000Z</time>
      </trkpt>
      <trkpt lat="45.02294" lon="5.81338">
        <ele>1341</ele>
        <time>2023-10-01T10:57:00.000Z</time>
      </trkpt>
      <trkpt lat="45.02295" lon="5.81339">
        <ele>1340.8000488281</ele>
        <time>2023-10-01T10:57:01.000Z</time>
      </trkpt>
      <trkpt lat="45.02296" lon="5.8134">
        <ele>1340.8000488281</ele>
        <time>2023-10-01T10:57:02.000Z</time>
      </trkpt>
      <trkpt lat="45.02298" lon="5.8134">
        <ele>1340.4000244141</ele>
        <time>2023-10-01T10:57:03.000Z</time>
      </trkpt>
      <trkpt lat="45.02299" lon="5.81341">
        <ele>1340.4000244141</ele>
        <time>2023-10-01T10:57:04.000Z</time>
      </trkpt>
      <trkpt lat="45.02301" lon="5.81341">
        <ele>1340.1999511719</ele>
        <time>2023-10-01T10:57:05.000Z</time>
      </trkpt>
      <trkpt lat="45.02302" lon="5.81342">
        <ele>1340</ele>
        <time>2023-10-01T10:57:06.000Z</time>
      </trkpt>
      <trkpt lat="45.02304" lon="5.81343">
        <ele>1339.8000488281</ele>
        <time>2023-10-01T10:57:07.000Z</time>
      </trkpt>
      <trkpt lat="45.02306" lon="5.81344">
        <ele>1339.5999755859</ele>
        <time>2023-10-01T10:57:08.000Z</time>
      </trkpt>
      <trkpt lat="45.02307" lon="5.81344">
        <ele>1339.4000244141</ele>
        <time>2023-10-01T10:57:09.000Z</time>
      </trkpt>
      <trkpt lat="45.02309" lon="5.81345">
        <ele>1339.1999511719</ele>
        <time>2023-10-01T10:57:10.000Z</time>
      </trkpt>
      <trkpt lat="45.0231" lon="5.81346">
        <ele>1338.8000488281</ele>
        <time>2023-10-01T10:57:11.000Z</time>
      </trkpt>
      <trkpt lat="45.02312" lon="5.81347">
        <ele>1338.5999755859</ele>
        <time>2023-10-01T10:57:12.000Z</time>
      </trkpt>
      <trkpt lat="45.02314" lon="5.81348">
        <ele>1338.1999511719</ele>
        <time>2023-10-01T10:57:13.000Z</time>
      </trkpt>
      <trkpt lat="45.02315" lon="5.81348">
        <ele>1338</ele>
        <time>2023-10-01T10:57:14.000Z</time>
      </trkpt>
      <trkpt lat="45.02317" lon="5.81349">
        <ele>1337.8000488281</ele>
        <time>2023-10-01T10:57:15.000Z</time>
      </trkpt>
      <trkpt lat="45.02318" lon="5.8135">
        <ele>1337.5999755859</ele>
        <time>2023-10-01T10:57:16.000Z</time>
      </trkpt>
      <trkpt lat="45.02319" lon="5.8135">
        <ele>1337.5999755859</ele>
        <time>2023-10-01T10:57:17.000Z</time>
      </trkpt>
      <trkpt lat="45.02321" lon="5.81351">
        <ele>1337.1999511719</ele>
        <time>2023-10-01T10:57:18.000Z</time>
      </trkpt>
      <trkpt lat="45.02322" lon="5.81352">
        <ele>1337</ele>
        <time>2023-10-01T10:57:19.000Z</time>
      </trkpt>
      <trkpt lat="45.02323" lon="5.81353">
        <ele>1337</ele>
        <time>2023-10-01T10:57:20.000Z</time>
      </trkpt>
      <trkpt lat="45.02324" lon="5.81353">
        <ele>1336.8000488281</ele>
        <time>2023-10-01T10:57:21.000Z</time>
      </trkpt>
      <trkpt lat="45.02325" lon="5.81354">
        <ele>1336.4000244141</ele>
        <time>2023-10-01T10:57:22.000Z</time>
      </trkpt>
      <trkpt lat="45.02327" lon="5.81354">
        <ele>1336.1999511719</ele>
        <time>2023-10-01T10:57:23.000Z</time>
      </trkpt>
      <trkpt lat="45.02328" lon="5.81355">
        <ele>1336</ele>
        <time>2023-10-01T10:57:24.000Z</time>
      </trkpt>
      <trkpt lat="45.02329" lon="5.81356">
        <ele>1335.8000488281</ele>
        <time>2023-10-01T10:57:25.000Z</time>
      </trkpt>
      <trkpt lat="45.02331" lon="5.81357">
        <ele>1335.5999755859</ele>
        <time>2023-10-01T10:57:26.000Z</time>
      </trkpt>
      <trkpt lat="45.02332" lon="5.81358">
        <ele>1335.4000244141</ele>
        <time>2023-10-01T10:57:27.000Z</time>
      </trkpt>
      <trkpt lat="45.02333" lon="5.81358">
        <ele>1335.1999511719</ele>
        <time>2023-10-01T10:57:28.000Z</time>
      </trkpt>
      <trkpt lat="45.02334" lon="5.81359">
        <ele>1335</ele>
        <time>2023-10-01T10:57:29.000Z</time>
      </trkpt>
      <trkpt lat="45.02335" lon="5.81359">
        <ele>1334.8000488281</ele>
        <time>2023-10-01T10:57:30.000Z</time>
      </trkpt>
      <trkpt lat="45.02337" lon="5.8136">
        <ele>1334.5999755859</ele>
        <time>2023-10-01T10:57:31.000Z</time>
      </trkpt>
      <trkpt lat="45.02338" lon="5.81361">
        <ele>1334.5999755859</ele>
        <time>2023-10-01T10:57:32.000Z</time>
      </trkpt>
      <trkpt lat="45.02339" lon="5.81362">
        <ele>1334.4000244141</ele>
        <time>2023-10-01T10:57:33.000Z</time>
      </trkpt>
      <trkpt lat="45.02341" lon="5.81364">
        <ele>1334.4000244141</ele>
        <time>2023-10-01T10:57:34.000Z</time>
      </trkpt>
      <trkpt lat="45.02343" lon="5.81365">
        <ele>1334</ele>
        <time>2023-10-01T10:57:35.000Z</time>
      </trkpt>
      <trkpt lat="45.02344" lon="5.81366">
        <ele>1333.8000488281</ele>
        <time>2023-10-01T10:57:36.000Z</time>
      </trkpt>
      <trkpt lat="45.02345" lon="5.81367">
        <ele>1333.5999755859</ele>
        <time>2023-10-01T10:57:37.000Z</time>
      </trkpt>
      <trkpt lat="45.02347" lon="5.81368">
        <ele>1333.4000244141</ele>
        <time>2023-10-01T10:57:38.000Z</time>
      </trkpt>
      <trkpt lat="45.02348" lon="5.81368">
        <ele>1333.1999511719</ele>
        <time>2023-10-01T10:57:39.000Z</time>
      </trkpt>
      <trkpt lat="45.0235" lon="5.8137">
        <ele>1333.1999511719</ele>
        <time>2023-10-01T10:57:40.000Z</time>
      </trkpt>
      <trkpt lat="45.02352" lon="5.8137">
        <ele>1333</ele>
        <time>2023-10-01T10:57:41.000Z</time>
      </trkpt>
      <trkpt lat="45.02353" lon="5.81372">
        <ele>1332.8000488281</ele>
        <time>2023-10-01T10:57:42.000Z</time>
      </trkpt>
      <trkpt lat="45.02354" lon="5.81372">
        <ele>1332.5999755859</ele>
        <time>2023-10-01T10:57:43.000Z</time>
      </trkpt>
      <trkpt lat="45.02356" lon="5.81374">
        <ele>1332.5999755859</ele>
        <time>2023-10-01T10:57:44.000Z</time>
      </trkpt>
      <trkpt lat="45.02357" lon="5.81375">
        <ele>1332.5999755859</ele>
        <time>2023-10-01T10:57:45.000Z</time>
      </trkpt>
      <trkpt lat="45.02358" lon="5.81376">
        <ele>1332.4000244141</ele>
        <time>2023-10-01T10:57:46.000Z</time>
      </trkpt>
      <trkpt lat="45.02359" lon="5.81376">
        <ele>1332.1999511719</ele>
        <time>2023-10-01T10:57:47.000Z</time>
      </trkpt>
      <trkpt lat="45.0236" lon="5.81377">
        <ele>1331.8000488281</ele>
        <time>2023-10-01T10:57:48.000Z</time>
      </trkpt>
      <trkpt lat="45.02362" lon="5.81379">
        <ele>1331.5999755859</ele>
        <time>2023-10-01T10:57:49.000Z</time>
      </trkpt>
      <trkpt lat="45.02363" lon="5.81379">
        <ele>1331.5999755859</ele>
        <time>2023-10-01T10:57:50.000Z</time>
      </trkpt>
      <trkpt lat="45.02364" lon="5.8138">
        <ele>1331.5999755859</ele>
        <time>2023-10-01T10:57:51.000Z</time>
      </trkpt>
      <trkpt lat="45.02366" lon="5.81381">
        <ele>1331.5999755859</ele>
        <time>2023-10-01T10:57:52.000Z</time>
      </trkpt>
      <trkpt lat="45.02367" lon="5.81383">
        <ele>1331.4000244141</ele>
        <time>2023-10-01T10:57:53.000Z</time>
      </trkpt>
      <trkpt lat="45.02368" lon="5.81384">
        <ele>1331.4000244141</ele>
        <time>2023-10-01T10:57:54.000Z</time>
      </trkpt>
      <trkpt lat="45.0237" lon="5.81385">
        <ele>1331.1999511719</ele>
        <time>2023-10-01T10:57:55.000Z</time>
      </trkpt>
      <trkpt lat="45.02371" lon="5.81387">
        <ele>1331.1999511719</ele>
        <time>2023-10-01T10:57:56.000Z</time>
      </trkpt>
      <trkpt lat="45.02373" lon="5.81388">
        <ele>1331</ele>
        <time>2023-10-01T10:57:57.000Z</time>
      </trkpt>
      <trkpt lat="45.02374" lon="5.81389">
        <ele>1331</ele>
        <time>2023-10-01T10:57:58.000Z</time>
      </trkpt>
      <trkpt lat="45.02375" lon="5.8139">
        <ele>1330.8000488281</ele>
        <time>2023-10-01T10:57:59.000Z</time>
      </trkpt>
      <trkpt lat="45.02377" lon="5.81392">
        <ele>1330.8000488281</ele>
        <time>2023-10-01T10:58:00.000Z</time>
      </trkpt>
      <trkpt lat="45.02378" lon="5.81392">
        <ele>1330.5999755859</ele>
        <time>2023-10-01T10:58:01.000Z</time>
      </trkpt>
      <trkpt lat="45.02379" lon="5.81393">
        <ele>1330.5999755859</ele>
        <time>2023-10-01T10:58:02.000Z</time>
      </trkpt>
      <trkpt lat="45.02381" lon="5.81393">
        <ele>1330.5999755859</ele>
        <time>2023-10-01T10:58:03.000Z</time>
      </trkpt>
      <trkpt lat="45.02382" lon="5.81395">
        <ele>1330.4000244141</ele>
        <time>2023-10-01T10:58:04.000Z</time>
      </trkpt>
      <trkpt lat="45.02383" lon="5.81396">
        <ele>1330.4000244141</ele>
        <time>2023-10-01T10:58:05.000Z</time>
      </trkpt>
      <trkpt lat="45.02384" lon="5.81397">
        <ele>1330.4000244141</ele>
        <time>2023-10-01T10:58:06.000Z</time>
      </trkpt>
      <trkpt lat="45.02386" lon="5.81398">
        <ele>1330.1999511719</ele>
        <time>2023-10-01T10:58:07.000Z</time>
      </trkpt>
      <trkpt lat="45.02387" lon="5.81399">
        <ele>1330.1999511719</ele>
        <time>2023-10-01T10:58:08.000Z</time>
      </trkpt>
      <trkpt lat="45.02388" lon="5.81401">
        <ele>1330</ele>
        <time>2023-10-01T10:58:09.000Z</time>
      </trkpt>
      <trkpt lat="45.02389" lon="5.81402">
        <ele>1330</ele>
        <time>2023-10-01T10:58:10.000Z</time>
      </trkpt>
      <trkpt lat="45.0239" lon="5.81404">
        <ele>1330</ele>
        <time>2023-10-01T10:58:11.000Z</time>
      </trkpt>
      <trkpt lat="45.02391" lon="5.81405">
        <ele>1329.8000488281</ele>
        <time>2023-10-01T10:58:12.000Z</time>
      </trkpt>
      <trkpt lat="45.02392" lon="5.81407">
        <ele>1329.5999755859</ele>
        <time>2023-10-01T10:58:13.000Z</time>
      </trkpt>
      <trkpt lat="45.02393" lon="5.81408">
        <ele>1329.5999755859</ele>
        <time>2023-10-01T10:58:14.000Z</time>
      </trkpt>
      <trkpt lat="45.02394" lon="5.81409">
        <ele>1329.4000244141</ele>
        <time>2023-10-01T10:58:15.000Z</time>
      </trkpt>
      <trkpt lat="45.02395" lon="5.8141">
        <ele>1329.4000244141</ele>
        <time>2023-10-01T10:58:16.000Z</time>
      </trkpt>
      <trkpt lat="45.02397" lon="5.81411">
        <ele>1329.4000244141</ele>
        <time>2023-10-01T10:58:17.000Z</time>
      </trkpt>
      <trkpt lat="45.02398" lon="5.81412">
        <ele>1329.1999511719</ele>
        <time>2023-10-01T10:58:18.000Z</time>
      </trkpt>
      <trkpt lat="45.024" lon="5.81414">
        <ele>1329.1999511719</ele>
        <time>2023-10-01T10:58:19.000Z</time>
      </trkpt>
      <trkpt lat="45.02401" lon="5.81415">
        <ele>1328.8000488281</ele>
        <time>2023-10-01T10:58:20.000Z</time>
      </trkpt>
      <trkpt lat="45.02403" lon="5.81417">
        <ele>1328.5999755859</ele>
        <time>2023-10-01T10:58:21.000Z</time>
      </trkpt>
      <trkpt lat="45.02404" lon="5.81418">
        <ele>1328.5999755859</ele>
        <time>2023-10-01T10:58:22.000Z</time>
      </trkpt>
      <trkpt lat="45.02405" lon="5.81419">
        <ele>1328.4000244141</ele>
        <time>2023-10-01T10:58:23.000Z</time>
      </trkpt>
      <trkpt lat="45.02406" lon="5.8142">
        <ele>1328.4000244141</ele>
        <time>2023-10-01T10:58:24.000Z</time>
      </trkpt>
      <trkpt lat="45.02408" lon="5.81421">
        <ele>1328.1999511719</ele>
        <time>2023-10-01T10:58:25.000Z</time>
      </trkpt>
      <trkpt lat="45.02409" lon="5.81422">
        <ele>1328</ele>
        <time>2023-10-01T10:58:26.000Z</time>
      </trkpt>
      <trkpt lat="45.0241" lon="5.81423">
        <ele>1327.5999755859</ele>
        <time>2023-10-01T10:58:27.000Z</time>
      </trkpt>
      <trkpt lat="45.02411" lon="5.81423">
        <ele>1327.4000244141</ele>
        <time>2023-10-01T10:58:28.000Z</time>
      </trkpt>
      <trkpt lat="45.02412" lon="5.81425">
        <ele>1327.1999511719</ele>
        <time>2023-10-01T10:58:29.000Z</time>
      </trkpt>
      <trkpt lat="45.02413" lon="5.81426">
        <ele>1327</ele>
        <time>2023-10-01T10:58:30.000Z</time>
      </trkpt>
      <trkpt lat="45.02414" lon="5.81426">
        <ele>1326.8000488281</ele>
        <time>2023-10-01T10:58:31.000Z</time>
      </trkpt>
      <trkpt lat="45.02416" lon="5.81427">
        <ele>1326.4000244141</ele>
        <time>2023-10-01T10:58:32.000Z</time>
      </trkpt>
      <trkpt lat="45.02417" lon="5.81428">
        <ele>1326.1999511719</ele>
        <time>2023-10-01T10:58:33.000Z</time>
      </trkpt>
      <trkpt lat="45.02418" lon="5.81429">
        <ele>1326</ele>
        <time>2023-10-01T10:58:34.000Z</time>
      </trkpt>
      <trkpt lat="45.02419" lon="5.8143">
        <ele>1325.8000488281</ele>
        <time>2023-10-01T10:58:35.000Z</time>
      </trkpt>
      <trkpt lat="45.0242" lon="5.81431">
        <ele>1325.5999755859</ele>
        <time>2023-10-01T10:58:36.000Z</time>
      </trkpt>
      <trkpt lat="45.02421" lon="5.81432">
        <ele>1325.4000244141</ele>
        <time>2023-10-01T10:58:37.000Z</time>
      </trkpt>
      <trkpt lat="45.02423" lon="5.81433">
        <ele>1325.1999511719</ele>
        <time>2023-10-01T10:58:38.000Z</time>
      </trkpt>
      <trkpt lat="45.02424" lon="5.81434">
        <ele>1324.8000488281</ele>
        <time>2023-10-01T10:58:39.000Z</time>
      </trkpt>
      <trkpt lat="45.02425" lon="5.81435">
        <ele>1324.5999755859</ele>
        <time>2023-10-01T10:58:40.000Z</time>
      </trkpt>
      <trkpt lat="45.02426" lon="5.81436">
        <ele>1324.1999511719</ele>
        <time>2023-10-01T10:58:41.000Z</time>
      </trkpt>
      <trkpt lat="45.02427" lon="5.81437">
        <ele>1323.8000488281</ele>
        <time>2023-10-01T10:58:42.000Z</time>
      </trkpt>
      <trkpt lat="45.02428" lon="5.81437">
        <ele>1323.5999755859</ele>
        <time>2023-10-01T10:58:43.000Z</time>
      </trkpt>
      <trkpt lat="45.02429" lon="5.81438">
        <ele>1323.1999511719</ele>
        <time>2023-10-01T10:58:44.000Z</time>
      </trkpt>
      <trkpt lat="45.0243" lon="5.81439">
        <ele>1323</ele>
        <time>2023-10-01T10:58:45.000Z</time>
      </trkpt>
      <trkpt lat="45.02432" lon="5.81439">
        <ele>1322.8000488281</ele>
        <time>2023-10-01T10:58:46.000Z</time>
      </trkpt>
      <trkpt lat="45.02433" lon="5.81439">
        <ele>1322.5999755859</ele>
        <time>2023-10-01T10:58:47.000Z</time>
      </trkpt>
      <trkpt lat="45.02434" lon="5.81437">
        <ele>1322.4000244141</ele>
        <time>2023-10-01T10:58:48.000Z</time>
      </trkpt>
      <trkpt lat="45.02434" lon="5.81436">
        <ele>1322.1999511719</ele>
        <time>2023-10-01T10:58:49.000Z</time>
      </trkpt>
      <trkpt lat="45.02434" lon="5.81436">
        <ele>1322</ele>
        <time>2023-10-01T10:58:50.000Z</time>
      </trkpt>
      <trkpt lat="45.02435" lon="5.81435">
        <ele>1321.8000488281</ele>
        <time>2023-10-01T10:58:51.000Z</time>
      </trkpt>
      <trkpt lat="45.02435" lon="5.81433">
        <ele>1321.5999755859</ele>
        <time>2023-10-01T10:58:52.000Z</time>
      </trkpt>
      <trkpt lat="45.02434" lon="5.81432">
        <ele>1321.4000244141</ele>
        <time>2023-10-01T10:58:53.000Z</time>
      </trkpt>
      <trkpt lat="45.02434" lon="5.8143">
        <ele>1321.1999511719</ele>
        <time>2023-10-01T10:58:54.000Z</time>
      </trkpt>
      <trkpt lat="45.02433" lon="5.81428">
        <ele>1320.8000488281</ele>
        <time>2023-10-01T10:58:55.000Z</time>
      </trkpt>
      <trkpt lat="45.02433" lon="5.81427">
        <ele>1320.5999755859</ele>
        <time>2023-10-01T10:58:56.000Z</time>
      </trkpt>
      <trkpt lat="45.02432" lon="5.81425">
        <ele>1320.1999511719</ele>
        <time>2023-10-01T10:58:57.000Z</time>
      </trkpt>
      <trkpt lat="45.02431" lon="5.81424">
        <ele>1320</ele>
        <time>2023-10-01T10:58:58.000Z</time>
      </trkpt>
      <trkpt lat="45.02431" lon="5.81422">
        <ele>1319.5999755859</ele>
        <time>2023-10-01T10:58:59.000Z</time>
      </trkpt>
      <trkpt lat="45.0243" lon="5.81422">
        <ele>1319.4000244141</ele>
        <time>2023-10-01T10:59:00.000Z</time>
      </trkpt>
      <trkpt lat="45.02429" lon="5.8142">
        <ele>1319.1999511719</ele>
        <time>2023-10-01T10:59:01.000Z</time>
      </trkpt>
      <trkpt lat="45.02429" lon="5.81419">
        <ele>1319</ele>
        <time>2023-10-01T10:59:02.000Z</time>
      </trkpt>
      <trkpt lat="45.02428" lon="5.81418">
        <ele>1318.8000488281</ele>
        <time>2023-10-01T10:59:03.000Z</time>
      </trkpt>
      <trkpt lat="45.02427" lon="5.81417">
        <ele>1318.5999755859</ele>
        <time>2023-10-01T10:59:04.000Z</time>
      </trkpt>
      <trkpt lat="45.02427" lon="5.81416">
        <ele>1318.4000244141</ele>
        <time>2023-10-01T10:59:05.000Z</time>
      </trkpt>
      <trkpt lat="45.02427" lon="5.81415">
        <ele>1318.1999511719</ele>
        <time>2023-10-01T10:59:06.000Z</time>
      </trkpt>
      <trkpt lat="45.02426" lon="5.81414">
        <ele>1318</ele>
        <time>2023-10-01T10:59:07.000Z</time>
      </trkpt>
      <trkpt lat="45.02426" lon="5.81413">
        <ele>1317.8000488281</ele>
        <time>2023-10-01T10:59:08.000Z</time>
      </trkpt>
      <trkpt lat="45.02425" lon="5.81412">
        <ele>1317.4000244141</ele>
        <time>2023-10-01T10:59:09.000Z</time>
      </trkpt>
      <trkpt lat="45.02424" lon="5.81411">
        <ele>1317.1999511719</ele>
        <time>2023-10-01T10:59:10.000Z</time>
      </trkpt>
      <trkpt lat="45.02424" lon="5.81409">
        <ele>1316.8000488281</ele>
        <time>2023-10-01T10:59:11.000Z</time>
      </trkpt>
      <trkpt lat="45.02423" lon="5.81408">
        <ele>1316.5999755859</ele>
        <time>2023-10-01T10:59:12.000Z</time>
      </trkpt>
      <trkpt lat="45.02422" lon="5.81407">
        <ele>1316.1999511719</ele>
        <time>2023-10-01T10:59:13.000Z</time>
      </trkpt>
      <trkpt lat="45.02421" lon="5.81406">
        <ele>1315.8000488281</ele>
        <time>2023-10-01T10:59:14.000Z</time>
      </trkpt>
      <trkpt lat="45.02421" lon="5.81405">
        <ele>1315.8000488281</ele>
        <time>2023-10-01T10:59:15.000Z</time>
      </trkpt>
      <trkpt lat="45.02421" lon="5.81403">
        <ele>1315.4000244141</ele>
        <time>2023-10-01T10:59:16.000Z</time>
      </trkpt>
      <trkpt lat="45.0242" lon="5.81402">
        <ele>1315</ele>
        <time>2023-10-01T10:59:17.000Z</time>
      </trkpt>
      <trkpt lat="45.0242" lon="5.814">
        <ele>1314.8000488281</ele>
        <time>2023-10-01T10:59:18.000Z</time>
      </trkpt>
      <trkpt lat="45.0242" lon="5.81399">
        <ele>1314.5999755859</ele>
        <time>2023-10-01T10:59:19.000Z</time>
      </trkpt>
      <trkpt lat="45.02419" lon="5.81398">
        <ele>1314.1999511719</ele>
        <time>2023-10-01T10:59:20.000Z</time>
      </trkpt>
      <trkpt lat="45.02419" lon="5.81396">
        <ele>1314</ele>
        <time>2023-10-01T10:59:21.000Z</time>
      </trkpt>
      <trkpt lat="45.02419" lon="5.81395">
        <ele>1313.8000488281</ele>
        <time>2023-10-01T10:59:22.000Z</time>
      </trkpt>
      <trkpt lat="45.02418" lon="5.81393">
        <ele>1313.4000244141</ele>
        <time>2023-10-01T10:59:23.000Z</time>
      </trkpt>
      <trkpt lat="45.02418" lon="5.81391">
        <ele>1313.1999511719</ele>
        <time>2023-10-01T10:59:24.000Z</time>
      </trkpt>
      <trkpt lat="45.02418" lon="5.8139">
        <ele>1313</ele>
        <time>2023-10-01T10:59:25.000Z</time>
      </trkpt>
      <trkpt lat="45.02417" lon="5.81389">
        <ele>1312.8000488281</ele>
        <time>2023-10-01T10:59:26.000Z</time>
      </trkpt>
      <trkpt lat="45.02417" lon="5.81387">
        <ele>1312.4000244141</ele>
        <time>2023-10-01T10:59:27.000Z</time>
      </trkpt>
      <trkpt lat="45.02416" lon="5.81386">
        <ele>1312.1999511719</ele>
        <time>2023-10-01T10:59:28.000Z</time>
      </trkpt>
      <trkpt lat="45.02415" lon="5.81384">
        <ele>1311.8000488281</ele>
        <time>2023-10-01T10:59:29.000Z</time>
      </trkpt>
      <trkpt lat="45.02415" lon="5.81383">
        <ele>1311.5999755859</ele>
        <time>2023-10-01T10:59:30.000Z</time>
      </trkpt>
      <trkpt lat="45.02414" lon="5.81381">
        <ele>1311.4000244141</ele>
        <time>2023-10-01T10:59:31.000Z</time>
      </trkpt>
      <trkpt lat="45.02413" lon="5.81379">
        <ele>1311.1999511719</ele>
        <time>2023-10-01T10:59:32.000Z</time>
      </trkpt>
      <trkpt lat="45.02412" lon="5.81377">
        <ele>1311</ele>
        <time>2023-10-01T10:59:33.000Z</time>
      </trkpt>
      <trkpt lat="45.02412" lon="5.81375">
        <ele>1310.8000488281</ele>
        <time>2023-10-01T10:59:34.000Z</time>
      </trkpt>
      <trkpt lat="45.02412" lon="5.81373">
        <ele>1310.4000244141</ele>
        <time>2023-10-01T10:59:35.000Z</time>
      </trkpt>
      <trkpt lat="45.02412" lon="5.81371">
        <ele>1310</ele>
        <time>2023-10-01T10:59:36.000Z</time>
      </trkpt>
      <trkpt lat="45.02412" lon="5.81369">
        <ele>1309.8000488281</ele>
        <time>2023-10-01T10:59:37.000Z</time>
      </trkpt>
      <trkpt lat="45.02411" lon="5.81367">
        <ele>1309.5999755859</ele>
        <time>2023-10-01T10:59:38.000Z</time>
      </trkpt>
      <trkpt lat="45.02411" lon="5.81365">
        <ele>1309.5999755859</ele>
        <time>2023-10-01T10:59:39.000Z</time>
      </trkpt>
      <trkpt lat="45.02411" lon="5.81363">
        <ele>1309.4000244141</ele>
        <time>2023-10-01T10:59:40.000Z</time>
      </trkpt>
      <trkpt lat="45.0241" lon="5.81362">
        <ele>1309.4000244141</ele>
        <time>2023-10-01T10:59:41.000Z</time>
      </trkpt>
      <trkpt lat="45.02409" lon="5.8136">
        <ele>1309</ele>
        <time>2023-10-01T10:59:42.000Z</time>
      </trkpt>
      <trkpt lat="45.02409" lon="5.81358">
        <ele>1308.8000488281</ele>
        <time>2023-10-01T10:59:43.000Z</time>
      </trkpt>
      <trkpt lat="45.02408" lon="5.81357">
        <ele>1308.5999755859</ele>
        <time>2023-10-01T10:59:44.000Z</time>
      </trkpt>
      <trkpt lat="45.02408" lon="5.81355">
        <ele>1308.4000244141</ele>
        <time>2023-10-01T10:59:45.000Z</time>
      </trkpt>
      <trkpt lat="45.02408" lon="5.81353">
        <ele>1308.1999511719</ele>
        <time>2023-10-01T10:59:46.000Z</time>
      </trkpt>
      <trkpt lat="45.02407" lon="5.81351">
        <ele>1308</ele>
        <time>2023-10-01T10:59:47.000Z</time>
      </trkpt>
      <trkpt lat="45.02407" lon="5.81349">
        <ele>1307.5999755859</ele>
        <time>2023-10-01T10:59:48.000Z</time>
      </trkpt>
      <trkpt lat="45.02406" lon="5.81348">
        <ele>1307.4000244141</ele>
        <time>2023-10-01T10:59:49.000Z</time>
      </trkpt>
      <trkpt lat="45.02406" lon="5.81346">
        <ele>1307.1999511719</ele>
        <time>2023-10-01T10:59:50.000Z</time>
      </trkpt>
      <trkpt lat="45.02405" lon="5.81344">
        <ele>1307</ele>
        <time>2023-10-01T10:59:51.000Z</time>
      </trkpt>
      <trkpt lat="45.02405" lon="5.81342">
        <ele>1306.8000488281</ele>
        <time>2023-10-01T10:59:52.000Z</time>
      </trkpt>
      <trkpt lat="45.02404" lon="5.81341">
        <ele>1306.5999755859</ele>
        <time>2023-10-01T10:59:53.000Z</time>
      </trkpt>
      <trkpt lat="45.02403" lon="5.81339">
        <ele>1306.4000244141</ele>
        <time>2023-10-01T10:59:54.000Z</time>
      </trkpt>
      <trkpt lat="45.02403" lon="5.81337">
        <ele>1306.1999511719</ele>
        <time>2023-10-01T10:59:55.000Z</time>
      </trkpt>
      <trkpt lat="45.02402" lon="5.81336">
        <ele>1306</ele>
        <time>2023-10-01T10:59:56.000Z</time>
      </trkpt>
      <trkpt lat="45.02401" lon="5.81334">
        <ele>1305.8000488281</ele>
        <time>2023-10-01T10:59:57.000Z</time>
      </trkpt>
      <trkpt lat="45.02401" lon="5.81333">
        <ele>1305.5999755859</ele>
        <time>2023-10-01T10:59:58.000Z</time>
      </trkpt>
      <trkpt lat="45.024" lon="5.81331">
        <ele>1305.4000244141</ele>
        <time>2023-10-01T10:59:59.000Z</time>
      </trkpt>
      <trkpt lat="45.024" lon="5.8133">
        <ele>1305.1999511719</ele>
        <time>2023-10-01T11:00:00.000Z</time>
      </trkpt>
      <trkpt lat="45.02399" lon="5.81329">
        <ele>1305</ele>
        <time>2023-10-01T11:00:01.000Z</time>
      </trkpt>
      <trkpt lat="45.02399" lon="5.81327">
        <ele>1304.8000488281</ele>
        <time>2023-10-01T11:00:02.000Z</time>
      </trkpt>
      <trkpt lat="45.02398" lon="5.81326">
        <ele>1304.4000244141</ele>
        <time>2023-10-01T11:00:03.000Z</time>
      </trkpt>
      <trkpt lat="45.02398" lon="5.81325">
        <ele>1304.1999511719</ele>
        <time>2023-10-01T11:00:04.000Z</time>
      </trkpt>
      <trkpt lat="45.02398" lon="5.81323">
        <ele>1304</ele>
        <time>2023-10-01T11:00:05.000Z</time>
      </trkpt>
      <trkpt lat="45.02397" lon="5.81322">
        <ele>1303.8000488281</ele>
        <time>2023-10-01T11:00:06.000Z</time>
      </trkpt>
      <trkpt lat="45.02396" lon="5.8132">
        <ele>1303.4000244141</ele>
        <time>2023-10-01T11:00:07.000Z</time>
      </trkpt>
      <trkpt lat="45.02395" lon="5.81319">
        <ele>1303.1999511719</ele>
        <time>2023-10-01T11:00:08.000Z</time>
      </trkpt>
      <trkpt lat="45.02395" lon="5.81318">
        <ele>1303</ele>
        <time>2023-10-01T11:00:09.000Z</time>
      </trkpt>
      <trkpt lat="45.02394" lon="5.81316">
        <ele>1302.8000488281</ele>
        <time>2023-10-01T11:00:10.000Z</time>
      </trkpt>
      <trkpt lat="45.02393" lon="5.81315">
        <ele>1302.5999755859</ele>
        <time>2023-10-01T11:00:11.000Z</time>
      </trkpt>
      <trkpt lat="45.02393" lon="5.81314">
        <ele>1302.1999511719</ele>
        <time>2023-10-01T11:00:12.000Z</time>
      </trkpt>
      <trkpt lat="45.02393" lon="5.81312">
        <ele>1302.1999511719</ele>
        <time>2023-10-01T11:00:13.000Z</time>
      </trkpt>
      <trkpt lat="45.02392" lon="5.8131">
        <ele>1301.8000488281</ele>
        <time>2023-10-01T11:00:14.000Z</time>
      </trkpt>
      <trkpt lat="45.02391" lon="5.81308">
        <ele>1301.5999755859</ele>
        <time>2023-10-01T11:00:15.000Z</time>
      </trkpt>
      <trkpt lat="45.0239" lon="5.81307">
        <ele>1301.4000244141</ele>
        <time>2023-10-01T11:00:16.000Z</time>
      </trkpt>
      <trkpt lat="45.0239" lon="5.81305">
        <ele>1301</ele>
        <time>2023-10-01T11:00:17.000Z</time>
      </trkpt>
      <trkpt lat="45.02389" lon="5.81304">
        <ele>1300.5999755859</ele>
        <time>2023-10-01T11:00:18.000Z</time>
      </trkpt>
      <trkpt lat="45.02388" lon="5.81303">
        <ele>1300.4000244141</ele>
        <time>2023-10-01T11:00:19.000Z</time>
      </trkpt>
      <trkpt lat="45.02387" lon="5.81302">
        <ele>1300.4000244141</ele>
        <time>2023-10-01T11:00:20.000Z</time>
      </trkpt>
      <trkpt lat="45.02387" lon="5.81301">
        <ele>1300.1999511719</ele>
        <time>2023-10-01T11:00:21.000Z</time>
      </trkpt>
      <trkpt lat="45.02386" lon="5.81299">
        <ele>1300</ele>
        <time>2023-10-01T11:00:22.000Z</time>
      </trkpt>
      <trkpt lat="45.02385" lon="5.81298">
        <ele>1299.8000488281</ele>
        <time>2023-10-01T11:00:23.000Z</time>
      </trkpt>
      <trkpt lat="45.02385" lon="5.81296">
        <ele>1299.4000244141</ele>
        <time>2023-10-01T11:00:24.000Z</time>
      </trkpt>
      <trkpt lat="45.02385" lon="5.81294">
        <ele>1299</ele>
        <time>2023-10-01T11:00:25.000Z</time>
      </trkpt>
      <trkpt lat="45.02384" lon="5.81293">
        <ele>1298.8000488281</ele>
        <time>2023-10-01T11:00:26.000Z</time>
      </trkpt>
      <trkpt lat="45.02383" lon="5.81291">
        <ele>1298.4000244141</ele>
        <time>2023-10-01T11:00:27.000Z</time>
      </trkpt>
      <trkpt lat="45.02383" lon="5.8129">
        <ele>1298.1999511719</ele>
        <time>2023-10-01T11:00:28.000Z</time>
      </trkpt>
      <trkpt lat="45.02382" lon="5.81289">
        <ele>1298</ele>
        <time>2023-10-01T11:00:29.000Z</time>
      </trkpt>
      <trkpt lat="45.02382" lon="5.81288">
        <ele>1297.8000488281</ele>
        <time>2023-10-01T11:00:30.000Z</time>
      </trkpt>
      <trkpt lat="45.02381" lon="5.81286">
        <ele>1297.5999755859</ele>
        <time>2023-10-01T11:00:31.000Z</time>
      </trkpt>
      <trkpt lat="45.0238" lon="5.81285">
        <ele>1297.4000244141</ele>
        <time>2023-10-01T11:00:32.000Z</time>
      </trkpt>
      <trkpt lat="45.02379" lon="5.81283">
        <ele>1297</ele>
        <time>2023-10-01T11:00:33.000Z</time>
      </trkpt>
      <trkpt lat="45.02379" lon="5.81281">
        <ele>1296.8000488281</ele>
        <time>2023-10-01T11:00:34.000Z</time>
      </trkpt>
      <trkpt lat="45.02378" lon="5.81279">
        <ele>1296.4000244141</ele>
        <time>2023-10-01T11:00:35.000Z</time>
      </trkpt>
      <trkpt lat="45.02378" lon="5.81278">
        <ele>1296</ele>
        <time>2023-10-01T11:00:36.000Z</time>
      </trkpt>
      <trkpt lat="45.02377" lon="5.81276">
        <ele>1295.8000488281</ele>
        <time>2023-10-01T11:00:37.000Z</time>
      </trkpt>
      <trkpt lat="45.02376" lon="5.81275">
        <ele>1295.5999755859</ele>
        <time>2023-10-01T11:00:38.000Z</time>
      </trkpt>
      <trkpt lat="45.02376" lon="5.81274">
        <ele>1295.4000244141</ele>
        <time>2023-10-01T11:00:39.000Z</time>
      </trkpt>
      <trkpt lat="45.02375" lon="5.81273">
        <ele>1295.1999511719</ele>
        <time>2023-10-01T11:00:40.000Z</time>
      </trkpt>
      <trkpt lat="45.02375" lon="5.81272">
        <ele>1295.1999511719</ele>
        <time>2023-10-01T11:00:41.000Z</time>
      </trkpt>
      <trkpt lat="45.02374" lon="5.81271">
        <ele>1294.8000488281</ele>
        <time>2023-10-01T11:00:42.000Z</time>
      </trkpt>
      <trkpt lat="45.02373" lon="5.81269">
        <ele>1294.5999755859</ele>
        <time>2023-10-01T11:00:43.000Z</time>
      </trkpt>
      <trkpt lat="45.02372" lon="5.81267">
        <ele>1294.4000244141</ele>
        <time>2023-10-01T11:00:44.000Z</time>
      </trkpt>
      <trkpt lat="45.02371" lon="5.81266">
        <ele>1294.1999511719</ele>
        <time>2023-10-01T11:00:45.000Z</time>
      </trkpt>
      <trkpt lat="45.0237" lon="5.81265">
        <ele>1294</ele>
        <time>2023-10-01T11:00:46.000Z</time>
      </trkpt>
      <trkpt lat="45.0237" lon="5.81263">
        <ele>1293.4000244141</ele>
        <time>2023-10-01T11:00:47.000Z</time>
      </trkpt>
      <trkpt lat="45.02369" lon="5.81261">
        <ele>1293</ele>
        <time>2023-10-01T11:00:48.000Z</time>
      </trkpt>
      <trkpt lat="45.02369" lon="5.81259">
        <ele>1292.8000488281</ele>
        <time>2023-10-01T11:00:49.000Z</time>
      </trkpt>
      <trkpt lat="45.02368" lon="5.81258">
        <ele>1292.4000244141</ele>
        <time>2023-10-01T11:00:50.000Z</time>
      </trkpt>
      <trkpt lat="45.02367" lon="5.81255">
        <ele>1292</ele>
        <time>2023-10-01T11:00:51.000Z</time>
      </trkpt>
      <trkpt lat="45.02367" lon="5.81254">
        <ele>1291.8000488281</ele>
        <time>2023-10-01T11:00:52.000Z</time>
      </trkpt>
      <trkpt lat="45.02366" lon="5.81253">
        <ele>1291.5999755859</ele>
        <time>2023-10-01T11:00:53.000Z</time>
      </trkpt>
      <trkpt lat="45.02365" lon="5.81252">
        <ele>1291.4000244141</ele>
        <time>2023-10-01T11:00:54.000Z</time>
      </trkpt>
      <trkpt lat="45.02364" lon="5.8125">
        <ele>1291</ele>
        <time>2023-10-01T11:00:55.000Z</time>
      </trkpt>
      <trkpt lat="45.02364" lon="5.81249">
        <ele>1290.8000488281</ele>
        <time>2023-10-01T11:00:56.000Z</time>
      </trkpt>
      <trkpt lat="45.02362" lon="5.81247">
        <ele>1290.5999755859</ele>
        <time>2023-10-01T11:00:57.000Z</time>
      </trkpt>
      <trkpt lat="45.02362" lon="5.81246">
        <ele>1290.4000244141</ele>
        <time>2023-10-01T11:00:58.000Z</time>
      </trkpt>
      <trkpt lat="45.02361" lon="5.81244">
        <ele>1290.1999511719</ele>
        <time>2023-10-01T11:00:59.000Z</time>
      </trkpt>
      <trkpt lat="45.0236" lon="5.81242">
        <ele>1289.8000488281</ele>
        <time>2023-10-01T11:01:00.000Z</time>
      </trkpt>
      <trkpt lat="45.02359" lon="5.81241">
        <ele>1289.8000488281</ele>
        <time>2023-10-01T11:01:01.000Z</time>
      </trkpt>
      <trkpt lat="45.02358" lon="5.8124">
        <ele>1289.4000244141</ele>
        <time>2023-10-01T11:01:02.000Z</time>
      </trkpt>
      <trkpt lat="45.02357" lon="5.81239">
        <ele>1289.1999511719</ele>
        <time>2023-10-01T11:01:03.000Z</time>
      </trkpt>
      <trkpt lat="45.02356" lon="5.81237">
        <ele>1288.8000488281</ele>
        <time>2023-10-01T11:01:04.000Z</time>
      </trkpt>
      <trkpt lat="45.02355" lon="5.81236">
        <ele>1288.4000244141</ele>
        <time>2023-10-01T11:01:05.000Z</time>
      </trkpt>
      <trkpt lat="45.02354" lon="5.81234">
        <ele>1288</ele>
        <time>2023-10-01T11:01:06.000Z</time>
      </trkpt>
      <trkpt lat="45.02353" lon="5.81232">
        <ele>1287.8000488281</ele>
        <time>2023-10-01T11:01:07.000Z</time>
      </trkpt>
      <trkpt lat="45.02353" lon="5.81231">
        <ele>1287.5999755859</ele>
        <time>2023-10-01T11:01:08.000Z</time>
      </trkpt>
      <trkpt lat="45.02351" lon="5.81229">
        <ele>1287.1999511719</ele>
        <time>2023-10-01T11:01:09.000Z</time>
      </trkpt>
      <trkpt lat="45.0235" lon="5.81228">
        <ele>1287</ele>
        <time>2023-10-01T11:01:10.000Z</time>
      </trkpt>
      <trkpt lat="45.0235" lon="5.81227">
        <ele>1286.8000488281</ele>
        <time>2023-10-01T11:01:11.000Z</time>
      </trkpt>
      <trkpt lat="45.02349" lon="5.81225">
        <ele>1286.5999755859</ele>
        <time>2023-10-01T11:01:12.000Z</time>
      </trkpt>
      <trkpt lat="45.02348" lon="5.81224">
        <ele>1286.4000244141</ele>
        <time>2023-10-01T11:01:13.000Z</time>
      </trkpt>
      <trkpt lat="45.02347" lon="5.81223">
        <ele>1286</ele>
        <time>2023-10-01T11:01:14.000Z</time>
      </trkpt>
      <trkpt lat="45.02346" lon="5.81222">
        <ele>1285.8000488281</ele>
        <time>2023-10-01T11:01:15.000Z</time>
      </trkpt>
      <trkpt lat="45.02345" lon="5.81221">
        <ele>1285.5999755859</ele>
        <time>2023-10-01T11:01:16.000Z</time>
      </trkpt>
      <trkpt lat="45.02344" lon="5.8122">
        <ele>1285.4000244141</ele>
        <time>2023-10-01T11:01:17.000Z</time>
      </trkpt>
      <trkpt lat="45.02343" lon="5.81219">
        <ele>1285</ele>
        <time>2023-10-01T11:01:18.000Z</time>
      </trkpt>
      <trkpt lat="45.02343" lon="5.81219">
        <ele>1284.8000488281</ele>
        <time>2023-10-01T11:01:19.000Z</time>
      </trkpt>
      <trkpt lat="45.02342" lon="5.81218">
        <ele>1284.4000244141</ele>
        <time>2023-10-01T11:01:20.000Z</time>
      </trkpt>
      <trkpt lat="45.02341" lon="5.81217">
        <ele>1284.1999511719</ele>
        <time>2023-10-01T11:01:21.000Z</time>
      </trkpt>
      <trkpt lat="45.0234" lon="5.81216">
        <ele>1283.8000488281</ele>
        <time>2023-10-01T11:01:22.000Z</time>
      </trkpt>
      <trkpt lat="45.02339" lon="5.81214">
        <ele>1283.5999755859</ele>
        <time>2023-10-01T11:01:23.000Z</time>
      </trkpt>
      <trkpt lat="45.02337" lon="5.81214">
        <ele>1283.4000244141</ele>
        <time>2023-10-01T11:01:24.000Z</time>
      </trkpt>
      <trkpt lat="45.02336" lon="5.81213">
        <ele>1283.1999511719</ele>
        <time>2023-10-01T11:01:25.000Z</time>
      </trkpt>
      <trkpt lat="45.02335" lon="5.81211">
        <ele>1283</ele>
        <time>2023-10-01T11:01:26.000Z</time>
      </trkpt>
      <trkpt lat="45.02334" lon="5.8121">
        <ele>1282.5999755859</ele>
        <time>2023-10-01T11:01:27.000Z</time>
      </trkpt>
      <trkpt lat="45.02333" lon="5.81208">
        <ele>1282.1999511719</ele>
        <time>2023-10-01T11:01:28.000Z</time>
      </trkpt>
      <trkpt lat="45.02332" lon="5.81206">
        <ele>1282.1999511719</ele>
        <time>2023-10-01T11:01:29.000Z</time>
      </trkpt>
      <trkpt lat="45.0233" lon="5.81205">
        <ele>1282</ele>
        <time>2023-10-01T11:01:30.000Z</time>
      </trkpt>
      <trkpt lat="45.02329" lon="5.81204">
        <ele>1281.8000488281</ele>
        <time>2023-10-01T11:01:31.000Z</time>
      </trkpt>
      <trkpt lat="45.02329" lon="5.81202">
        <ele>1281.5999755859</ele>
        <time>2023-10-01T11:01:32.000Z</time>
      </trkpt>
      <trkpt lat="45.02328" lon="5.812">
        <ele>1281.4000244141</ele>
        <time>2023-10-01T11:01:33.000Z</time>
      </trkpt>
      <trkpt lat="45.02327" lon="5.81199">
        <ele>1281.1999511719</ele>
        <time>2023-10-01T11:01:34.000Z</time>
      </trkpt>
      <trkpt lat="45.02326" lon="5.81198">
        <ele>1281</ele>
        <time>2023-10-01T11:01:35.000Z</time>
      </trkpt>
      <trkpt lat="45.02326" lon="5.81196">
        <ele>1280.8000488281</ele>
        <time>2023-10-01T11:01:36.000Z</time>
      </trkpt>
      <trkpt lat="45.02325" lon="5.81195">
        <ele>1280.8000488281</ele>
        <time>2023-10-01T11:01:37.000Z</time>
      </trkpt>
      <trkpt lat="45.02324" lon="5.81193">
        <ele>1280.5999755859</ele>
        <time>2023-10-01T11:01:38.000Z</time>
      </trkpt>
      <trkpt lat="45.02323" lon="5.81192">
        <ele>1280.4000244141</ele>
        <time>2023-10-01T11:01:39.000Z</time>
      </trkpt>
      <trkpt lat="45.02321" lon="5.81191">
        <ele>1280.1999511719</ele>
        <time>2023-10-01T11:01:40.000Z</time>
      </trkpt>
      <trkpt lat="45.02321" lon="5.8119">
        <ele>1280</ele>
        <time>2023-10-01T11:01:41.000Z</time>
      </trkpt>
      <trkpt lat="45.0232" lon="5.81189">
        <ele>1279.8000488281</ele>
        <time>2023-10-01T11:01:42.000Z</time>
      </trkpt>
      <trkpt lat="45.02319" lon="5.81187">
        <ele>1279.5999755859</ele>
        <time>2023-10-01T11:01:43.000Z</time>
      </trkpt>
      <trkpt lat="45.02318" lon="5.81186">
        <ele>1279.4000244141</ele>
        <time>2023-10-01T11:01:44.000Z</time>
      </trkpt>
      <trkpt lat="45.02316" lon="5.81185">
        <ele>1279.1999511719</ele>
        <time>2023-10-01T11:01:45.000Z</time>
      </trkpt>
      <trkpt lat="45.02315" lon="5.81184">
        <ele>1279</ele>
        <time>2023-10-01T11:01:46.000Z</time>
      </trkpt>
      <trkpt lat="45.02314" lon="5.81182">
        <ele>1279</ele>
        <time>2023-10-01T11:01:47.000Z</time>
      </trkpt>
      <trkpt lat="45.02313" lon="5.8118">
        <ele>1278.8000488281</ele>
        <time>2023-10-01T11:01:48.000Z</time>
      </trkpt>
      <trkpt lat="45.02312" lon="5.81179">
        <ele>1278.5999755859</ele>
        <time>2023-10-01T11:01:49.000Z</time>
      </trkpt>
      <trkpt lat="45.02311" lon="5.81179">
        <ele>1278.4000244141</ele>
        <time>2023-10-01T11:01:50.000Z</time>
      </trkpt>
      <trkpt lat="45.02311" lon="5.81179">
        <ele>1278.1999511719</ele>
        <time>2023-10-01T11:01:51.000Z</time>
      </trkpt>
      <trkpt lat="45.0231" lon="5.81179">
        <ele>1278</ele>
        <time>2023-10-01T11:01:52.000Z</time>
      </trkpt>
      <trkpt lat="45.0231" lon="5.81179">
        <ele>1277.8000488281</ele>
        <time>2023-10-01T11:01:53.000Z</time>
      </trkpt>
      <trkpt lat="45.0231" lon="5.81179">
        <ele>1277.5999755859</ele>
        <time>2023-10-01T11:01:54.000Z</time>
      </trkpt>
      <trkpt lat="45.0231" lon="5.81179">
        <ele>1277.5999755859</ele>
        <time>2023-10-01T11:01:55.000Z</time>
      </trkpt>
      <trkpt lat="45.0231" lon="5.81179">
        <ele>1277.4000244141</ele>
        <time>2023-10-01T11:01:56.000Z</time>
      </trkpt>
      <trkpt lat="45.02309" lon="5.81179">
        <ele>1277.4000244141</ele>
        <time>2023-10-01T11:01:57.000Z</time>
      </trkpt>
      <trkpt lat="45.02309" lon="5.81178">
        <ele>1277.4000244141</ele>
        <time>2023-10-01T11:01:58.000Z</time>
      </trkpt>
      <trkpt lat="45.02309" lon="5.81177">
        <ele>1277.4000244141</ele>
        <time>2023-10-01T11:01:59.000Z</time>
      </trkpt>
      <trkpt lat="45.02308" lon="5.81176">
        <ele>1277.4000244141</ele>
        <time>2023-10-01T11:02:00.000Z</time>
      </trkpt>
      <trkpt lat="45.02307" lon="5.81175">
        <ele>1277.1999511719</ele>
        <time>2023-10-01T11:02:01.000Z</time>
      </trkpt>
      <trkpt lat="45.02306" lon="5.81173">
        <ele>1277.1999511719</ele>
        <time>2023-10-01T11:02:02.000Z</time>
      </trkpt>
      <trkpt lat="45.02305" lon="5.81172">
        <ele>1277</ele>
        <time>2023-10-01T11:02:03.000Z</time>
      </trkpt>
      <trkpt lat="45.02304" lon="5.81171">
        <ele>1277</ele>
        <time>2023-10-01T11:02:04.000Z</time>
      </trkpt>
      <trkpt lat="45.02303" lon="5.8117">
        <ele>1276.5999755859</ele>
        <time>2023-10-01T11:02:05.000Z</time>
      </trkpt>
      <trkpt lat="45.02301" lon="5.81168">
        <ele>1276.4000244141</ele>
        <time>2023-10-01T11:02:06.000Z</time>
      </trkpt>
      <trkpt lat="45.023" lon="5.81166">
        <ele>1276.4000244141</ele>
        <time>2023-10-01T11:02:07.000Z</time>
      </trkpt>
      <trkpt lat="45.02299" lon="5.81165">
        <ele>1276</ele>
        <time>2023-10-01T11:02:08.000Z</time>
      </trkpt>
      <trkpt lat="45.02298" lon="5.81163">
        <ele>1275.5999755859</ele>
        <time>2023-10-01T11:02:09.000Z</time>
      </trkpt>
      <trkpt lat="45.02297" lon="5.81162">
        <ele>1275.4000244141</ele>
        <time>2023-10-01T11:02:10.000Z</time>
      </trkpt>
      <trkpt lat="45.02296" lon="5.81161">
        <ele>1275</ele>
        <time>2023-10-01T11:02:11.000Z</time>
      </trkpt>
      <trkpt lat="45.02295" lon="5.81159">
        <ele>1274.8000488281</ele>
        <time>2023-10-01T11:02:12.000Z</time>
      </trkpt>
      <trkpt lat="45.02293" lon="5.81157">
        <ele>1274.4000244141</ele>
        <time>2023-10-01T11:02:13.000Z</time>
      </trkpt>
      <trkpt lat="45.02292" lon="5.81156">
        <ele>1274.1999511719</ele>
        <time>2023-10-01T11:02:14.000Z</time>
      </trkpt>
      <trkpt lat="45.02291" lon="5.81154">
        <ele>1274</ele>
        <time>2023-10-01T11:02:15.000Z</time>
      </trkpt>
      <trkpt lat="45.02289" lon="5.81153">
        <ele>1273.4000244141</ele>
        <time>2023-10-01T11:02:16.000Z</time>
      </trkpt>
      <trkpt lat="45.02288" lon="5.81152">
        <ele>1273.1999511719</ele>
        <time>2023-10-01T11:02:17.000Z</time>
      </trkpt>
      <trkpt lat="45.02287" lon="5.8115">
        <ele>1272.8000488281</ele>
        <time>2023-10-01T11:02:18.000Z</time>
      </trkpt>
      <trkpt lat="45.02286" lon="5.81148">
        <ele>1272.4000244141</ele>
        <time>2023-10-01T11:02:19.000Z</time>
      </trkpt>
      <trkpt lat="45.02285" lon="5.81146">
        <ele>1272</ele>
        <time>2023-10-01T11:02:20.000Z</time>
      </trkpt>
      <trkpt lat="45.02284" lon="5.81145">
        <ele>1271.5999755859</ele>
        <time>2023-10-01T11:02:21.000Z</time>
      </trkpt>
      <trkpt lat="45.02283" lon="5.81144">
        <ele>1271.4000244141</ele>
        <time>2023-10-01T11:02:22.000Z</time>
      </trkpt>
      <trkpt lat="45.02281" lon="5.81142">
        <ele>1271</ele>
        <time>2023-10-01T11:02:23.000Z</time>
      </trkpt>
      <trkpt lat="45.0228" lon="5.81141">
        <ele>1270.5999755859</ele>
        <time>2023-10-01T11:02:24.000Z</time>
      </trkpt>
      <trkpt lat="45.02278" lon="5.81139">
        <ele>1270.4000244141</ele>
        <time>2023-10-01T11:02:25.000Z</time>
      </trkpt>
      <trkpt lat="45.02276" lon="5.81137">
        <ele>1270</ele>
        <time>2023-10-01T11:02:26.000Z</time>
      </trkpt>
      <trkpt lat="45.02275" lon="5.81136">
        <ele>1269.5999755859</ele>
        <time>2023-10-01T11:02:27.000Z</time>
      </trkpt>
      <trkpt lat="45.02272" lon="5.81134">
        <ele>1269.4000244141</ele>
        <time>2023-10-01T11:02:28.000Z</time>
      </trkpt>
      <trkpt lat="45.0227" lon="5.81133">
        <ele>1268.8000488281</ele>
        <time>2023-10-01T11:02:29.000Z</time>
      </trkpt>
      <trkpt lat="45.02268" lon="5.81132">
        <ele>1268.5999755859</ele>
        <time>2023-10-01T11:02:30.000Z</time>
      </trkpt>
      <trkpt lat="45.02267" lon="5.81131">
        <ele>1268.1999511719</ele>
        <time>2023-10-01T11:02:31.000Z</time>
      </trkpt>
      <trkpt lat="45.02266" lon="5.81129">
        <ele>1268</ele>
        <time>2023-10-01T11:02:32.000Z</time>
      </trkpt>
      <trkpt lat="45.02264" lon="5.81128">
        <ele>1267.5999755859</ele>
        <time>2023-10-01T11:02:33.000Z</time>
      </trkpt>
      <trkpt lat="45.02263" lon="5.81127">
        <ele>1267.1999511719</ele>
        <time>2023-10-01T11:02:34.000Z</time>
      </trkpt>
      <trkpt lat="45.02262" lon="5.81126">
        <ele>1267</ele>
        <time>2023-10-01T11:02:35.000Z</time>
      </trkpt>
      <trkpt lat="45.02261" lon="5.81124">
        <ele>1266.8000488281</ele>
        <time>2023-10-01T11:02:36.000Z</time>
      </trkpt>
      <trkpt lat="45.0226" lon="5.81123">
        <ele>1266.8000488281</ele>
        <time>2023-10-01T11:02:37.000Z</time>
      </trkpt>
      <trkpt lat="45.0226" lon="5.81121">
        <ele>1266.5999755859</ele>
        <time>2023-10-01T11:02:38.000Z</time>
      </trkpt>
      <trkpt lat="45.02259" lon="5.8112">
        <ele>1266.4000244141</ele>
        <time>2023-10-01T11:02:39.000Z</time>
      </trkpt>
      <trkpt lat="45.02259" lon="5.81118">
        <ele>1266</ele>
        <time>2023-10-01T11:02:40.000Z</time>
      </trkpt>
      <trkpt lat="45.02258" lon="5.81116">
        <ele>1266</ele>
        <time>2023-10-01T11:02:41.000Z</time>
      </trkpt>
      <trkpt lat="45.02257" lon="5.81115">
        <ele>1265.8000488281</ele>
        <time>2023-10-01T11:02:42.000Z</time>
      </trkpt>
      <trkpt lat="45.02256" lon="5.81114">
        <ele>1265.5999755859</ele>
        <time>2023-10-01T11:02:43.000Z</time>
      </trkpt>
      <trkpt lat="45.02256" lon="5.81114">
        <ele>1265.5999755859</ele>
        <time>2023-10-01T11:02:44.000Z</time>
      </trkpt>
      <trkpt lat="45.02256" lon="5.81113">
        <ele>1265.4000244141</ele>
        <time>2023-10-01T11:02:45.000Z</time>
      </trkpt>
      <trkpt lat="45.02256" lon="5.81113">
        <ele>1265.4000244141</ele>
        <time>2023-10-01T11:02:46.000Z</time>
      </trkpt>
      <trkpt lat="45.02256" lon="5.81113">
        <ele>1265.1999511719</ele>
        <time>2023-10-01T11:02:47.000Z</time>
      </trkpt>
      <trkpt lat="45.02256" lon="5.81113">
        <ele>1265</ele>
        <time>2023-10-01T11:02:48.000Z</time>
      </trkpt>
      <trkpt lat="45.02255" lon="5.81113">
        <ele>1264.8000488281</ele>
        <time>2023-10-01T11:02:49.000Z</time>
      </trkpt>
      <trkpt lat="45.02255" lon="5.81112">
        <ele>1264.8000488281</ele>
        <time>2023-10-01T11:02:50.000Z</time>
      </trkpt>
      <trkpt lat="45.02254" lon="5.81111">
        <ele>1264.5999755859</ele>
        <time>2023-10-01T11:02:51.000Z</time>
      </trkpt>
      <trkpt lat="45.02253" lon="5.8111">
        <ele>1264.5999755859</ele>
        <time>2023-10-01T11:02:52.000Z</time>
      </trkpt>
      <trkpt lat="45.02252" lon="5.81109">
        <ele>1264.4000244141</ele>
        <time>2023-10-01T11:02:53.000Z</time>
      </trkpt>
      <trkpt lat="45.02251" lon="5.81109">
        <ele>1264.1999511719</ele>
        <time>2023-10-01T11:02:54.000Z</time>
      </trkpt>
      <trkpt lat="45.0225" lon="5.81108">
        <ele>1263.8000488281</ele>
        <time>2023-10-01T11:02:55.000Z</time>
      </trkpt>
      <trkpt lat="45.02249" lon="5.81107">
        <ele>1263.5999755859</ele>
        <time>2023-10-01T11:02:56.000Z</time>
      </trkpt>
      <trkpt lat="45.02248" lon="5.81106">
        <ele>1263.1999511719</ele>
        <time>2023-10-01T11:02:57.000Z</time>
      </trkpt>
      <trkpt lat="45.02247" lon="5.81106">
        <ele>1262.8000488281</ele>
        <time>2023-10-01T11:02:58.000Z</time>
      </trkpt>
      <trkpt lat="45.02246" lon="5.81105">
        <ele>1262.5999755859</ele>
        <time>2023-10-01T11:02:59.000Z</time>
      </trkpt>
      <trkpt lat="45.02245" lon="5.81104">
        <ele>1262.1999511719</ele>
        <time>2023-10-01T11:03:00.000Z</time>
      </trkpt>
      <trkpt lat="45.02244" lon="5.81104">
        <ele>1262</ele>
        <time>2023-10-01T11:03:01.000Z</time>
      </trkpt>
      <trkpt lat="45.02243" lon="5.81103">
        <ele>1261.5999755859</ele>
        <time>2023-10-01T11:03:02.000Z</time>
      </trkpt>
      <trkpt lat="45.02242" lon="5.81103">
        <ele>1261.4000244141</ele>
        <time>2023-10-01T11:03:03.000Z</time>
      </trkpt>
      <trkpt lat="45.02241" lon="5.81102">
        <ele>1261.1999511719</ele>
        <time>2023-10-01T11:03:04.000Z</time>
      </trkpt>
      <trkpt lat="45.0224" lon="5.81101">
        <ele>1260.8000488281</ele>
        <time>2023-10-01T11:03:05.000Z</time>
      </trkpt>
      <trkpt lat="45.02239" lon="5.811">
        <ele>1260.5999755859</ele>
        <time>2023-10-01T11:03:06.000Z</time>
      </trkpt>
      <trkpt lat="45.02238" lon="5.81099">
        <ele>1260.4000244141</ele>
        <time>2023-10-01T11:03:07.000Z</time>
      </trkpt>
      <trkpt lat="45.02237" lon="5.81098">
        <ele>1260</ele>
        <time>2023-10-01T11:03:08.000Z</time>
      </trkpt>
      <trkpt lat="45.02235" lon="5.81097">
        <ele>1259.5999755859</ele>
        <time>2023-10-01T11:03:09.000Z</time>
      </trkpt>
      <trkpt lat="45.02234" lon="5.81097">
        <ele>1259.4000244141</ele>
        <time>2023-10-01T11:03:10.000Z</time>
      </trkpt>
      <trkpt lat="45.02233" lon="5.81096">
        <ele>1259.1999511719</ele>
        <time>2023-10-01T11:03:11.000Z</time>
      </trkpt>
      <trkpt lat="45.02231" lon="5.81094">
        <ele>1259</ele>
        <time>2023-10-01T11:03:12.000Z</time>
      </trkpt>
      <trkpt lat="45.02229" lon="5.81093">
        <ele>1258.5999755859</ele>
        <time>2023-10-01T11:03:13.000Z</time>
      </trkpt>
      <trkpt lat="45.02228" lon="5.81092">
        <ele>1258.4000244141</ele>
        <time>2023-10-01T11:03:14.000Z</time>
      </trkpt>
      <trkpt lat="45.02227" lon="5.8109">
        <ele>1258.1999511719</ele>
        <time>2023-10-01T11:03:15.000Z</time>
      </trkpt>
      <trkpt lat="45.02225" lon="5.81089">
        <ele>1258</ele>
        <time>2023-10-01T11:03:16.000Z</time>
      </trkpt>
      <trkpt lat="45.02224" lon="5.81088">
        <ele>1258</ele>
        <time>2023-10-01T11:03:17.000Z</time>
      </trkpt>
      <trkpt lat="45.02223" lon="5.81087">
        <ele>1258</ele>
        <time>2023-10-01T11:03:18.000Z</time>
      </trkpt>
      <trkpt lat="45.02222" lon="5.81085">
        <ele>1258</ele>
        <time>2023-10-01T11:03:19.000Z</time>
      </trkpt>
      <trkpt lat="45.0222" lon="5.81084">
        <ele>1257.8000488281</ele>
        <time>2023-10-01T11:03:20.000Z</time>
      </trkpt>
      <trkpt lat="45.02219" lon="5.81083">
        <ele>1257.8000488281</ele>
        <time>2023-10-01T11:03:21.000Z</time>
      </trkpt>
      <trkpt lat="45.02218" lon="5.81081">
        <ele>1257.8000488281</ele>
        <time>2023-10-01T11:03:22.000Z</time>
      </trkpt>
      <trkpt lat="45.02217" lon="5.8108">
        <ele>1257.5999755859</ele>
        <time>2023-10-01T11:03:23.000Z</time>
      </trkpt>
      <trkpt lat="45.02216" lon="5.81078">
        <ele>1257.4000244141</ele>
        <time>2023-10-01T11:03:24.000Z</time>
      </trkpt>
      <trkpt lat="45.02215" lon="5.81077">
        <ele>1257.4000244141</ele>
        <time>2023-10-01T11:03:25.000Z</time>
      </trkpt>
      <trkpt lat="45.02214" lon="5.81076">
        <ele>1257.1999511719</ele>
        <time>2023-10-01T11:03:26.000Z</time>
      </trkpt>
      <trkpt lat="45.02212" lon="5.81074">
        <ele>1257</ele>
        <time>2023-10-01T11:03:27.000Z</time>
      </trkpt>
      <trkpt lat="45.02211" lon="5.81073">
        <ele>1256.5999755859</ele>
        <time>2023-10-01T11:03:28.000Z</time>
      </trkpt>
      <trkpt lat="45.0221" lon="5.81072">
        <ele>1256.5999755859</ele>
        <time>2023-10-01T11:03:29.000Z</time>
      </trkpt>
      <trkpt lat="45.02208" lon="5.81071">
        <ele>1256.1999511719</ele>
        <time>2023-10-01T11:03:30.000Z</time>
      </trkpt>
      <trkpt lat="45.02207" lon="5.81069">
        <ele>1256</ele>
        <time>2023-10-01T11:03:31.000Z</time>
      </trkpt>
      <trkpt lat="45.02206" lon="5.81068">
        <ele>1255.8000488281</ele>
        <time>2023-10-01T11:03:32.000Z</time>
      </trkpt>
      <trkpt lat="45.02205" lon="5.81068">
        <ele>1255.5999755859</ele>
        <time>2023-10-01T11:03:33.000Z</time>
      </trkpt>
      <trkpt lat="45.02204" lon="5.81067">
        <ele>1255.4000244141</ele>
        <time>2023-10-01T11:03:34.000Z</time>
      </trkpt>
      <trkpt lat="45.02202" lon="5.81065">
        <ele>1255.4000244141</ele>
        <time>2023-10-01T11:03:35.000Z</time>
      </trkpt>
      <trkpt lat="45.02201" lon="5.81064">
        <ele>1255.1999511719</ele>
        <time>2023-10-01T11:03:36.000Z</time>
      </trkpt>
      <trkpt lat="45.022" lon="5.81064">
        <ele>1255.1999511719</ele>
        <time>2023-10-01T11:03:37.000Z</time>
      </trkpt>
      <trkpt lat="45.02198" lon="5.81063">
        <ele>1255.1999511719</ele>
        <time>2023-10-01T11:03:38.000Z</time>
      </trkpt>
      <trkpt lat="45.02196" lon="5.81062">
        <ele>1255.1999511719</ele>
        <time>2023-10-01T11:03:39.000Z</time>
      </trkpt>
      <trkpt lat="45.02195" lon="5.81061">
        <ele>1255</ele>
        <time>2023-10-01T11:03:40.000Z</time>
      </trkpt>
      <trkpt lat="45.02193" lon="5.8106">
        <ele>1254.8000488281</ele>
        <time>2023-10-01T11:03:41.000Z</time>
      </trkpt>
      <trkpt lat="45.02191" lon="5.8106">
        <ele>1254.5999755859</ele>
        <time>2023-10-01T11:03:42.000Z</time>
      </trkpt>
      <trkpt lat="45.0219" lon="5.81059">
        <ele>1254.4000244141</ele>
        <time>2023-10-01T11:03:43.000Z</time>
      </trkpt>
      <trkpt lat="45.02188" lon="5.81059">
        <ele>1254.4000244141</ele>
        <time>2023-10-01T11:03:44.000Z</time>
      </trkpt>
      <trkpt lat="45.02186" lon="5.81058">
        <ele>1254</ele>
        <time>2023-10-01T11:03:45.000Z</time>
      </trkpt>
      <trkpt lat="45.02185" lon="5.81057">
        <ele>1253.8000488281</ele>
        <time>2023-10-01T11:03:46.000Z</time>
      </trkpt>
      <trkpt lat="45.02183" lon="5.81057">
        <ele>1253.4000244141</ele>
        <time>2023-10-01T11:03:47.000Z</time>
      </trkpt>
      <trkpt lat="45.02181" lon="5.81056">
        <ele>1253.1999511719</ele>
        <time>2023-10-01T11:03:48.000Z</time>
      </trkpt>
      <trkpt lat="45.02179" lon="5.81055">
        <ele>1252.8000488281</ele>
        <time>2023-10-01T11:03:49.000Z</time>
      </trkpt>
      <trkpt lat="45.02177" lon="5.81054">
        <ele>1252.5999755859</ele>
        <time>2023-10-01T11:03:50.000Z</time>
      </trkpt>
      <trkpt lat="45.02175" lon="5.81053">
        <ele>1252.4000244141</ele>
        <time>2023-10-01T11:03:51.000Z</time>
      </trkpt>
      <trkpt lat="45.02173" lon="5.81052">
        <ele>1252.1999511719</ele>
        <time>2023-10-01T11:03:52.000Z</time>
      </trkpt>
      <trkpt lat="45.02171" lon="5.8105">
        <ele>1252</ele>
        <time>2023-10-01T11:03:53.000Z</time>
      </trkpt>
      <trkpt lat="45.0217" lon="5.81048">
        <ele>1251.8000488281</ele>
        <time>2023-10-01T11:03:54.000Z</time>
      </trkpt>
      <trkpt lat="45.02168" lon="5.81047">
        <ele>1251.4000244141</ele>
        <time>2023-10-01T11:03:55.000Z</time>
      </trkpt>
      <trkpt lat="45.02167" lon="5.81046">
        <ele>1251.1999511719</ele>
        <time>2023-10-01T11:03:56.000Z</time>
      </trkpt>
      <trkpt lat="45.02165" lon="5.81045">
        <ele>1251</ele>
        <time>2023-10-01T11:03:57.000Z</time>
      </trkpt>
      <trkpt lat="45.02164" lon="5.81044">
        <ele>1250.8000488281</ele>
        <time>2023-10-01T11:03:58.000Z</time>
      </trkpt>
      <trkpt lat="45.02162" lon="5.81043">
        <ele>1250.5999755859</ele>
        <time>2023-10-01T11:03:59.000Z</time>
      </trkpt>
      <trkpt lat="45.0216" lon="5.81042">
        <ele>1250.4000244141</ele>
        <time>2023-10-01T11:04:00.000Z</time>
      </trkpt>
      <trkpt lat="45.02159" lon="5.81041">
        <ele>1250.4000244141</ele>
        <time>2023-10-01T11:04:01.000Z</time>
      </trkpt>
      <trkpt lat="45.02157" lon="5.81041">
        <ele>1250.4000244141</ele>
        <time>2023-10-01T11:04:02.000Z</time>
      </trkpt>
      <trkpt lat="45.02155" lon="5.8104">
        <ele>1250.4000244141</ele>
        <time>2023-10-01T11:04:03.000Z</time>
      </trkpt>
      <trkpt lat="45.02154" lon="5.81039">
        <ele>1250.4000244141</ele>
        <time>2023-10-01T11:04:04.000Z</time>
      </trkpt>
      <trkpt lat="45.02152" lon="5.81038">
        <ele>1250.4000244141</ele>
        <time>2023-10-01T11:04:05.000Z</time>
      </trkpt>
      <trkpt lat="45.02151" lon="5.81037">
        <ele>1250.4000244141</ele>
        <time>2023-10-01T11:04:06.000Z</time>
      </trkpt>
      <trkpt lat="45.0215" lon="5.81036">
        <ele>1250.4000244141</ele>
        <time>2023-10-01T11:04:07.000Z</time>
      </trkpt>
      <trkpt lat="45.02148" lon="5.81035">
        <ele>1250.4000244141</ele>
        <time>2023-10-01T11:04:08.000Z</time>
      </trkpt>
      <trkpt lat="45.02146" lon="5.81034">
        <ele>1250.4000244141</ele>
        <time>2023-10-01T11:04:09.000Z</time>
      </trkpt>
      <trkpt lat="45.02144" lon="5.81034">
        <ele>1250.4000244141</ele>
        <time>2023-10-01T11:04:10.000Z</time>
      </trkpt>
      <trkpt lat="45.02142" lon="5.81033">
        <ele>1250.4000244141</ele>
        <time>2023-10-01T11:04:11.000Z</time>
      </trkpt>
      <trkpt lat="45.0214" lon="5.81033">
        <ele>1250.4000244141</ele>
        <time>2023-10-01T11:04:12.000Z</time>
      </trkpt>
      <trkpt lat="45.02139" lon="5.81032">
        <ele>1250.4000244141</ele>
        <time>2023-10-01T11:04:13.000Z</time>
      </trkpt>
      <trkpt lat="45.02137" lon="5.81032">
        <ele>1250.5999755859</ele>
        <time>2023-10-01T11:04:14.000Z</time>
      </trkpt>
      <trkpt lat="45.02135" lon="5.81032">
        <ele>1250.5999755859</ele>
        <time>2023-10-01T11:04:15.000Z</time>
      </trkpt>
      <trkpt lat="45.02134" lon="5.81031">
        <ele>1250.8000488281</ele>
        <time>2023-10-01T11:04:16.000Z</time>
      </trkpt>
      <trkpt lat="45.02132" lon="5.8103">
        <ele>1251</ele>
        <time>2023-10-01T11:04:17.000Z</time>
      </trkpt>
      <trkpt lat="45.0213" lon="5.81029">
        <ele>1251.1999511719</ele>
        <time>2023-10-01T11:04:18.000Z</time>
      </trkpt>
      <trkpt lat="45.02128" lon="5.81028">
        <ele>1251.1999511719</ele>
        <time>2023-10-01T11:04:19.000Z</time>
      </trkpt>
      <trkpt lat="45.02126" lon="5.81027">
        <ele>1251.1999511719</ele>
        <time>2023-10-01T11:04:20.000Z</time>
      </trkpt>
      <trkpt lat="45.02124" lon="5.81026">
        <ele>1251.1999511719</ele>
        <time>2023-10-01T11:04:21.000Z</time>
      </trkpt>
      <trkpt lat="45.02122" lon="5.81025">
        <ele>1251.1999511719</ele>
        <time>2023-10-01T11:04:22.000Z</time>
      </trkpt>
      <trkpt lat="45.02121" lon="5.81025">
        <ele>1251</ele>
        <time>2023-10-01T11:04:23.000Z</time>
      </trkpt>
      <trkpt lat="45.02119" lon="5.81024">
        <ele>1251</ele>
        <time>2023-10-01T11:04:24.000Z</time>
      </trkpt>
      <trkpt lat="45.02118" lon="5.81023">
        <ele>1250.8000488281</ele>
        <time>2023-10-01T11:04:25.000Z</time>
      </trkpt>
      <trkpt lat="45.02116" lon="5.81022">
        <ele>1250.8000488281</ele>
        <time>2023-10-01T11:04:26.000Z</time>
      </trkpt>
      <trkpt lat="45.02115" lon="5.81022">
        <ele>1250.5999755859</ele>
        <time>2023-10-01T11:04:27.000Z</time>
      </trkpt>
      <trkpt lat="45.02113" lon="5.8102">
        <ele>1250.4000244141</ele>
        <time>2023-10-01T11:04:28.000Z</time>
      </trkpt>
      <trkpt lat="45.02111" lon="5.8102">
        <ele>1250.1999511719</ele>
        <time>2023-10-01T11:04:29.000Z</time>
      </trkpt>
      <trkpt lat="45.0211" lon="5.81019">
        <ele>1249.8000488281</ele>
        <time>2023-10-01T11:04:30.000Z</time>
      </trkpt>
      <trkpt lat="45.02108" lon="5.81018">
        <ele>1249.5999755859</ele>
        <time>2023-10-01T11:04:31.000Z</time>
      </trkpt>
      <trkpt lat="45.02107" lon="5.81016">
        <ele>1249.4000244141</ele>
        <time>2023-10-01T11:04:32.000Z</time>
      </trkpt>
      <trkpt lat="45.02105" lon="5.81015">
        <ele>1249</ele>
        <time>2023-10-01T11:04:33.000Z</time>
      </trkpt>
      <trkpt lat="45.02103" lon="5.81015">
        <ele>1248.8000488281</ele>
        <time>2023-10-01T11:04:34.000Z</time>
      </trkpt>
      <trkpt lat="45.02101" lon="5.81014">
        <ele>1248.4000244141</ele>
        <time>2023-10-01T11:04:35.000Z</time>
      </trkpt>
      <trkpt lat="45.02099" lon="5.81012">
        <ele>1248.1999511719</ele>
        <time>2023-10-01T11:04:36.000Z</time>
      </trkpt>
      <trkpt lat="45.02097" lon="5.81011">
        <ele>1247.8000488281</ele>
        <time>2023-10-01T11:04:37.000Z</time>
      </trkpt>
      <trkpt lat="45.02096" lon="5.8101">
        <ele>1247.8000488281</ele>
        <time>2023-10-01T11:04:38.000Z</time>
      </trkpt>
      <trkpt lat="45.02093" lon="5.81008">
        <ele>1247.4000244141</ele>
        <time>2023-10-01T11:04:39.000Z</time>
      </trkpt>
      <trkpt lat="45.02091" lon="5.81007">
        <ele>1247.1999511719</ele>
        <time>2023-10-01T11:04:40.000Z</time>
      </trkpt>
      <trkpt lat="45.02088" lon="5.81006">
        <ele>1247</ele>
        <time>2023-10-01T11:04:41.000Z</time>
      </trkpt>
      <trkpt lat="45.02085" lon="5.81006">
        <ele>1246.8000488281</ele>
        <time>2023-10-01T11:04:42.000Z</time>
      </trkpt>
      <trkpt lat="45.02083" lon="5.81006">
        <ele>1246.5999755859</ele>
        <time>2023-10-01T11:04:43.000Z</time>
      </trkpt>
      <trkpt lat="45.0208" lon="5.81006">
        <ele>1246.5999755859</ele>
        <time>2023-10-01T11:04:44.000Z</time>
      </trkpt>
      <trkpt lat="45.02078" lon="5.81006">
        <ele>1246.4000244141</ele>
        <time>2023-10-01T11:04:45.000Z</time>
      </trkpt>
      <trkpt lat="45.02076" lon="5.81005">
        <ele>1246.1999511719</ele>
        <time>2023-10-01T11:04:46.000Z</time>
      </trkpt>
      <trkpt lat="45.02073" lon="5.81005">
        <ele>1246.1999511719</ele>
        <time>2023-10-01T11:04:47.000Z</time>
      </trkpt>
      <trkpt lat="45.02071" lon="5.81005">
        <ele>1246.1999511719</ele>
        <time>2023-10-01T11:04:48.000Z</time>
      </trkpt>
      <trkpt lat="45.02069" lon="5.81004">
        <ele>1246</ele>
        <time>2023-10-01T11:04:49.000Z</time>
      </trkpt>
      <trkpt lat="45.02068" lon="5.81004">
        <ele>1246</ele>
        <time>2023-10-01T11:04:50.000Z</time>
      </trkpt>
      <trkpt lat="45.02066" lon="5.81003">
        <ele>1246</ele>
        <time>2023-10-01T11:04:51.000Z</time>
      </trkpt>
      <trkpt lat="45.02064" lon="5.81002">
        <ele>1246</ele>
        <time>2023-10-01T11:04:52.000Z</time>
      </trkpt>
      <trkpt lat="45.02062" lon="5.81002">
        <ele>1246</ele>
        <time>2023-10-01T11:04:53.000Z</time>
      </trkpt>
      <trkpt lat="45.0206" lon="5.81001">
        <ele>1246</ele>
        <time>2023-10-01T11:04:54.000Z</time>
      </trkpt>
      <trkpt lat="45.02058" lon="5.81">
        <ele>1246</ele>
        <time>2023-10-01T11:04:55.000Z</time>
      </trkpt>
      <trkpt lat="45.02056" lon="5.80999">
        <ele>1246.1999511719</ele>
        <time>2023-10-01T11:04:56.000Z</time>
      </trkpt>
      <trkpt lat="45.02054" lon="5.80999">
        <ele>1246.1999511719</ele>
        <time>2023-10-01T11:04:57.000Z</time>
      </trkpt>
      <trkpt lat="45.02052" lon="5.80999">
        <ele>1246.1999511719</ele>
        <time>2023-10-01T11:04:58.000Z</time>
      </trkpt>
      <trkpt lat="45.0205" lon="5.80999">
        <ele>1246.1999511719</ele>
        <time>2023-10-01T11:04:59.000Z</time>
      </trkpt>
      <trkpt lat="45.02048" lon="5.80999">
        <ele>1246.1999511719</ele>
        <time>2023-10-01T11:05:00.000Z</time>
      </trkpt>
      <trkpt lat="45.02046" lon="5.80998">
        <ele>1246.1999511719</ele>
        <time>2023-10-01T11:05:01.000Z</time>
      </trkpt>
      <trkpt lat="45.02044" lon="5.80998">
        <ele>1246.1999511719</ele>
        <time>2023-10-01T11:05:02.000Z</time>
      </trkpt>
      <trkpt lat="45.02043" lon="5.80998">
        <ele>1246.4000244141</ele>
        <time>2023-10-01T11:05:03.000Z</time>
      </trkpt>
      <trkpt lat="45.02041" lon="5.80997">
        <ele>1246.1999511719</ele>
        <time>2023-10-01T11:05:04.000Z</time>
      </trkpt>
      <trkpt lat="45.02039" lon="5.80997">
        <ele>1246.1999511719</ele>
        <time>2023-10-01T11:05:05.000Z</time>
      </trkpt>
      <trkpt lat="45.02037" lon="5.80997">
        <ele>1246.4000244141</ele>
        <time>2023-10-01T11:05:06.000Z</time>
      </trkpt>
      <trkpt lat="45.02035" lon="5.80997">
        <ele>1246.1999511719</ele>
        <time>2023-10-01T11:05:07.000Z</time>
      </trkpt>
      <trkpt lat="45.02033" lon="5.80997">
        <ele>1246.1999511719</ele>
        <time>2023-10-01T11:05:08.000Z</time>
      </trkpt>
      <trkpt lat="45.02032" lon="5.80996">
        <ele>1246.4000244141</ele>
        <time>2023-10-01T11:05:09.000Z</time>
      </trkpt>
      <trkpt lat="45.02032" lon="5.80996">
        <ele>1246.4000244141</ele>
        <time>2023-10-01T11:05:10.000Z</time>
      </trkpt>
      <trkpt lat="45.02032" lon="5.80996">
        <ele>1246.1999511719</ele>
        <time>2023-10-01T11:05:11.000Z</time>
      </trkpt>
      <trkpt lat="45.02032" lon="5.80996">
        <ele>1246.1999511719</ele>
        <time>2023-10-01T11:05:12.000Z</time>
      </trkpt>
      <trkpt lat="45.02032" lon="5.80995">
        <ele>1246.1999511719</ele>
        <time>2023-10-01T11:05:13.000Z</time>
      </trkpt>
      <trkpt lat="45.02031" lon="5.80995">
        <ele>1246.1999511719</ele>
        <time>2023-10-01T11:05:14.000Z</time>
      </trkpt>
      <trkpt lat="45.02031" lon="5.80995">
        <ele>1246.1999511719</ele>
        <time>2023-10-01T11:05:15.000Z</time>
      </trkpt>
      <trkpt lat="45.0203" lon="5.80995">
        <ele>1246.1999511719</ele>
        <time>2023-10-01T11:05:16.000Z</time>
      </trkpt>
      <trkpt lat="45.02029" lon="5.80995">
        <ele>1246.1999511719</ele>
        <time>2023-10-01T11:05:17.000Z</time>
      </trkpt>
      <trkpt lat="45.02028" lon="5.80995">
        <ele>1246.1999511719</ele>
        <time>2023-10-01T11:05:18.000Z</time>
      </trkpt>
      <trkpt lat="45.02026" lon="5.80995">
        <ele>1246.1999511719</ele>
        <time>2023-10-01T11:05:19.000Z</time>
      </trkpt>
      <trkpt lat="45.02024" lon="5.80995">
        <ele>1246.1999511719</ele>
        <time>2023-10-01T11:05:20.000Z</time>
      </trkpt>
      <trkpt lat="45.02023" lon="5.80995">
        <ele>1246.4000244141</ele>
        <time>2023-10-01T11:05:21.000Z</time>
      </trkpt>
      <trkpt lat="45.02021" lon="5.80995">
        <ele>1246.4000244141</ele>
        <time>2023-10-01T11:05:22.000Z</time>
      </trkpt>
      <trkpt lat="45.02019" lon="5.80994">
        <ele>1246.4000244141</ele>
        <time>2023-10-01T11:05:23.000Z</time>
      </trkpt>
      <trkpt lat="45.02017" lon="5.80993">
        <ele>1246.5999755859</ele>
        <time>2023-10-01T11:05:24.000Z</time>
      </trkpt>
      <trkpt lat="45.02016" lon="5.80993">
        <ele>1246.8000488281</ele>
        <time>2023-10-01T11:05:25.000Z</time>
      </trkpt>
      <trkpt lat="45.02014" lon="5.80992">
        <ele>1246.8000488281</ele>
        <time>2023-10-01T11:05:26.000Z</time>
      </trkpt>
      <trkpt lat="45.02012" lon="5.80991">
        <ele>1246.8000488281</ele>
        <time>2023-10-01T11:05:27.000Z</time>
      </trkpt>
      <trkpt lat="45.02011" lon="5.8099">
        <ele>1247</ele>
        <time>2023-10-01T11:05:28.000Z</time>
      </trkpt>
      <trkpt lat="45.02008" lon="5.8099">
        <ele>1247</ele>
        <time>2023-10-01T11:05:29.000Z</time>
      </trkpt>
      <trkpt lat="45.02006" lon="5.80989">
        <ele>1247</ele>
        <time>2023-10-01T11:05:30.000Z</time>
      </trkpt>
      <trkpt lat="45.02005" lon="5.80989">
        <ele>1247</ele>
        <time>2023-10-01T11:05:31.000Z</time>
      </trkpt>
      <trkpt lat="45.02002" lon="5.80989">
        <ele>1247</ele>
        <time>2023-10-01T11:05:32.000Z</time>
      </trkpt>
      <trkpt lat="45.02001" lon="5.80988">
        <ele>1247</ele>
        <time>2023-10-01T11:05:33.000Z</time>
      </trkpt>
      <trkpt lat="45.01999" lon="5.80987">
        <ele>1247</ele>
        <time>2023-10-01T11:05:34.000Z</time>
      </trkpt>
      <trkpt lat="45.01997" lon="5.80986">
        <ele>1247</ele>
        <time>2023-10-01T11:05:35.000Z</time>
      </trkpt>
      <trkpt lat="45.01996" lon="5.80985">
        <ele>1246.8000488281</ele>
        <time>2023-10-01T11:05:36.000Z</time>
      </trkpt>
      <trkpt lat="45.01994" lon="5.80984">
        <ele>1246.5999755859</ele>
        <time>2023-10-01T11:05:37.000Z</time>
      </trkpt>
      <trkpt lat="45.01992" lon="5.80983">
        <ele>1246.5999755859</ele>
        <time>2023-10-01T11:05:38.000Z</time>
      </trkpt>
      <trkpt lat="45.0199" lon="5.80982">
        <ele>1246.5999755859</ele>
        <time>2023-10-01T11:05:39.000Z</time>
      </trkpt>
      <trkpt lat="45.01988" lon="5.80981">
        <ele>1246.5999755859</ele>
        <time>2023-10-01T11:05:40.000Z</time>
      </trkpt>
      <trkpt lat="45.01986" lon="5.8098">
        <ele>1246.5999755859</ele>
        <time>2023-10-01T11:05:41.000Z</time>
      </trkpt>
      <trkpt lat="45.01985" lon="5.8098">
        <ele>1246.4000244141</ele>
        <time>2023-10-01T11:05:42.000Z</time>
      </trkpt>
      <trkpt lat="45.01982" lon="5.80979">
        <ele>1246.4000244141</ele>
        <time>2023-10-01T11:05:43.000Z</time>
      </trkpt>
      <trkpt lat="45.0198" lon="5.80978">
        <ele>1246.1999511719</ele>
        <time>2023-10-01T11:05:44.000Z</time>
      </trkpt>
      <trkpt lat="45.01978" lon="5.80977">
        <ele>1246.1999511719</ele>
        <time>2023-10-01T11:05:45.000Z</time>
      </trkpt>
      <trkpt lat="45.01976" lon="5.80977">
        <ele>1246</ele>
        <time>2023-10-01T11:05:46.000Z</time>
      </trkpt>
      <trkpt lat="45.01974" lon="5.80977">
        <ele>1246</ele>
        <time>2023-10-01T11:05:47.000Z</time>
      </trkpt>
      <trkpt lat="45.01972" lon="5.80977">
        <ele>1246</ele>
        <time>2023-10-01T11:05:48.000Z</time>
      </trkpt>
      <trkpt lat="45.0197" lon="5.80977">
        <ele>1246</ele>
        <time>2023-10-01T11:05:49.000Z</time>
      </trkpt>
      <trkpt lat="45.01968" lon="5.80976">
        <ele>1246</ele>
        <time>2023-10-01T11:05:50.000Z</time>
      </trkpt>
      <trkpt lat="45.01966" lon="5.80975">
        <ele>1246</ele>
        <time>2023-10-01T11:05:51.000Z</time>
      </trkpt>
      <trkpt lat="45.01964" lon="5.80974">
        <ele>1246</ele>
        <time>2023-10-01T11:05:52.000Z</time>
      </trkpt>
      <trkpt lat="45.01963" lon="5.80973">
        <ele>1246</ele>
        <time>2023-10-01T11:05:53.000Z</time>
      </trkpt>
      <trkpt lat="45.01961" lon="5.80972">
        <ele>1246</ele>
        <time>2023-10-01T11:05:54.000Z</time>
      </trkpt>
      <trkpt lat="45.01958" lon="5.80971">
        <ele>1246</ele>
        <time>2023-10-01T11:05:55.000Z</time>
      </trkpt>
      <trkpt lat="45.01956" lon="5.8097">
        <ele>1246</ele>
        <time>2023-10-01T11:05:56.000Z</time>
      </trkpt>
      <trkpt lat="45.01954" lon="5.80969">
        <ele>1246</ele>
        <time>2023-10-01T11:05:57.000Z</time>
      </trkpt>
      <trkpt lat="45.01952" lon="5.80969">
        <ele>1246</ele>
        <time>2023-10-01T11:05:58.000Z</time>
      </trkpt>
      <trkpt lat="45.0195" lon="5.80968">
        <ele>1246</ele>
        <time>2023-10-01T11:05:59.000Z</time>
      </trkpt>
      <trkpt lat="45.01949" lon="5.80968">
        <ele>1245.8000488281</ele>
        <time>2023-10-01T11:06:00.000Z</time>
      </trkpt>
      <trkpt lat="45.01947" lon="5.80967">
        <ele>1245.5999755859</ele>
        <time>2023-10-01T11:06:01.000Z</time>
      </trkpt>
      <trkpt lat="45.01945" lon="5.80967">
        <ele>1245.4000244141</ele>
        <time>2023-10-01T11:06:02.000Z</time>
      </trkpt>
      <trkpt lat="45.01944" lon="5.80966">
        <ele>1245.4000244141</ele>
        <time>2023-10-01T11:06:03.000Z</time>
      </trkpt>
      <trkpt lat="45.01942" lon="5.80965">
        <ele>1245.1999511719</ele>
        <time>2023-10-01T11:06:04.000Z</time>
      </trkpt>
      <trkpt lat="45.01941" lon="5.80964">
        <ele>1245</ele>
        <time>2023-10-01T11:06:05.000Z</time>
      </trkpt>
      <trkpt lat="45.0194" lon="5.80963">
        <ele>1245</ele>
        <time>2023-10-01T11:06:06.000Z</time>
      </trkpt>
      <trkpt lat="45.01939" lon="5.80962">
        <ele>1245</ele>
        <time>2023-10-01T11:06:07.000Z</time>
      </trkpt>
      <trkpt lat="45.01938" lon="5.80962">
        <ele>1244.8000488281</ele>
        <time>2023-10-01T11:06:08.000Z</time>
      </trkpt>
      <trkpt lat="45.01936" lon="5.80961">
        <ele>1244.5999755859</ele>
        <time>2023-10-01T11:06:09.000Z</time>
      </trkpt>
      <trkpt lat="45.01935" lon="5.8096">
        <ele>1244.5999755859</ele>
        <time>2023-10-01T11:06:10.000Z</time>
      </trkpt>
      <trkpt lat="45.01934" lon="5.8096">
        <ele>1244.4000244141</ele>
        <time>2023-10-01T11:06:11.000Z</time>
      </trkpt>
      <trkpt lat="45.01932" lon="5.80959">
        <ele>1244.1999511719</ele>
        <time>2023-10-01T11:06:12.000Z</time>
      </trkpt>
      <trkpt lat="45.01931" lon="5.80958">
        <ele>1244.1999511719</ele>
        <time>2023-10-01T11:06:13.000Z</time>
      </trkpt>
      <trkpt lat="45.0193" lon="5.80958">
        <ele>1244</ele>
        <time>2023-10-01T11:06:14.000Z</time>
      </trkpt>
      <trkpt lat="45.01929" lon="5.80957">
        <ele>1243.8000488281</ele>
        <time>2023-10-01T11:06:15.000Z</time>
      </trkpt>
      <trkpt lat="45.01928" lon="5.80957">
        <ele>1243.8000488281</ele>
        <time>2023-10-01T11:06:16.000Z</time>
      </trkpt>
      <trkpt lat="45.01927" lon="5.80957">
        <ele>1243.8000488281</ele>
        <time>2023-10-01T11:06:17.000Z</time>
      </trkpt>
      <trkpt lat="45.01925" lon="5.80957">
        <ele>1243.5999755859</ele>
        <time>2023-10-01T11:06:18.000Z</time>
      </trkpt>
      <trkpt lat="45.01925" lon="5.80956">
        <ele>1243.5999755859</ele>
        <time>2023-10-01T11:06:19.000Z</time>
      </trkpt>
      <trkpt lat="45.01924" lon="5.80956">
        <ele>1243.5999755859</ele>
        <time>2023-10-01T11:06:20.000Z</time>
      </trkpt>
      <trkpt lat="45.01922" lon="5.80956">
        <ele>1243.4000244141</ele>
        <time>2023-10-01T11:06:21.000Z</time>
      </trkpt>
      <trkpt lat="45.01922" lon="5.80956">
        <ele>1243.4000244141</ele>
        <time>2023-10-01T11:06:22.000Z</time>
      </trkpt>
      <trkpt lat="45.01921" lon="5.80956">
        <ele>1243.4000244141</ele>
        <time>2023-10-01T11:06:23.000Z</time>
      </trkpt>
      <trkpt lat="45.0192" lon="5.80956">
        <ele>1243.4000244141</ele>
        <time>2023-10-01T11:06:24.000Z</time>
      </trkpt>
      <trkpt lat="45.0192" lon="5.80956">
        <ele>1243.4000244141</ele>
        <time>2023-10-01T11:06:25.000Z</time>
      </trkpt>
      <trkpt lat="45.01919" lon="5.80955">
        <ele>1243.4000244141</ele>
        <time>2023-10-01T11:06:26.000Z</time>
      </trkpt>
      <trkpt lat="45.01918" lon="5.80955">
        <ele>1243.4000244141</ele>
        <time>2023-10-01T11:06:27.000Z</time>
      </trkpt>
      <trkpt lat="45.01917" lon="5.80955">
        <ele>1243.4000244141</ele>
        <time>2023-10-01T11:06:28.000Z</time>
      </trkpt>
      <trkpt lat="45.01916" lon="5.80954">
        <ele>1243.4000244141</ele>
        <time>2023-10-01T11:06:29.000Z</time>
      </trkpt>
      <trkpt lat="45.01915" lon="5.80953">
        <ele>1243.4000244141</ele>
        <time>2023-10-01T11:06:30.000Z</time>
      </trkpt>
      <trkpt lat="45.01914" lon="5.80953">
        <ele>1243.4000244141</ele>
        <time>2023-10-01T11:06:31.000Z</time>
      </trkpt>
      <trkpt lat="45.01913" lon="5.80952">
        <ele>1243.4000244141</ele>
        <time>2023-10-01T11:06:32.000Z</time>
      </trkpt>
      <trkpt lat="45.01911" lon="5.80951">
        <ele>1243.4000244141</ele>
        <time>2023-10-01T11:06:33.000Z</time>
      </trkpt>
      <trkpt lat="45.0191" lon="5.8095">
        <ele>1243.5999755859</ele>
        <time>2023-10-01T11:06:34.000Z</time>
      </trkpt>
      <trkpt lat="45.01909" lon="5.8095">
        <ele>1243.5999755859</ele>
        <time>2023-10-01T11:06:35.000Z</time>
      </trkpt>
      <trkpt lat="45.01908" lon="5.80949">
        <ele>1243.5999755859</ele>
        <time>2023-10-01T11:06:36.000Z</time>
      </trkpt>
      <trkpt lat="45.01906" lon="5.80948">
        <ele>1243.5999755859</ele>
        <time>2023-10-01T11:06:37.000Z</time>
      </trkpt>
      <trkpt lat="45.01905" lon="5.80947">
        <ele>1243.8000488281</ele>
        <time>2023-10-01T11:06:38.000Z</time>
      </trkpt>
      <trkpt lat="45.01905" lon="5.80947">
        <ele>1243.8000488281</ele>
        <time>2023-10-01T11:06:39.000Z</time>
      </trkpt>
      <trkpt lat="45.01905" lon="5.80947">
        <ele>1243.8000488281</ele>
        <time>2023-10-01T11:06:40.000Z</time>
      </trkpt>
      <trkpt lat="45.01905" lon="5.80947">
        <ele>1243.8000488281</ele>
        <time>2023-10-01T11:06:41.000Z</time>
      </trkpt>
      <trkpt lat="45.01904" lon="5.80947">
        <ele>1243.5999755859</ele>
        <time>2023-10-01T11:06:42.000Z</time>
      </trkpt>
      <trkpt lat="45.01902" lon="5.80946">
        <ele>1243.5999755859</ele>
        <time>2023-10-01T11:06:43.000Z</time>
      </trkpt>
      <trkpt lat="45.01901" lon="5.80945">
        <ele>1243.5999755859</ele>
        <time>2023-10-01T11:06:44.000Z</time>
      </trkpt>
      <trkpt lat="45.01899" lon="5.80945">
        <ele>1243.5999755859</ele>
        <time>2023-10-01T11:06:45.000Z</time>
      </trkpt>
      <trkpt lat="45.01897" lon="5.80944">
        <ele>1243.5999755859</ele>
        <time>2023-10-01T11:06:46.000Z</time>
      </trkpt>
      <trkpt lat="45.01896" lon="5.80943">
        <ele>1243.5999755859</ele>
        <time>2023-10-01T11:06:47.000Z</time>
      </trkpt>
      <trkpt lat="45.01894" lon="5.80942">
        <ele>1243.5999755859</ele>
        <time>2023-10-01T11:06:48.000Z</time>
      </trkpt>
      <trkpt lat="45.01893" lon="5.80941">
        <ele>1243.5999755859</ele>
        <time>2023-10-01T11:06:49.000Z</time>
      </trkpt>
      <trkpt lat="45.01891" lon="5.8094">
        <ele>1243.5999755859</ele>
        <time>2023-10-01T11:06:50.000Z</time>
      </trkpt>
      <trkpt lat="45.0189" lon="5.80939">
        <ele>1243.5999755859</ele>
        <time>2023-10-01T11:06:51.000Z</time>
      </trkpt>
      <trkpt lat="45.01888" lon="5.80938">
        <ele>1243.5999755859</ele>
        <time>2023-10-01T11:06:52.000Z</time>
      </trkpt>
      <trkpt lat="45.01886" lon="5.80936">
        <ele>1243.5999755859</ele>
        <time>2023-10-01T11:06:53.000Z</time>
      </trkpt>
      <trkpt lat="45.01884" lon="5.80935">
        <ele>1243.5999755859</ele>
        <time>2023-10-01T11:06:54.000Z</time>
      </trkpt>
      <trkpt lat="45.01882" lon="5.80934">
        <ele>1243.5999755859</ele>
        <time>2023-10-01T11:06:55.000Z</time>
      </trkpt>
      <trkpt lat="45.0188" lon="5.80933">
        <ele>1243.4000244141</ele>
        <time>2023-10-01T11:06:56.000Z</time>
      </trkpt>
      <trkpt lat="45.01878" lon="5.80931">
        <ele>1243.1999511719</ele>
        <time>2023-10-01T11:06:57.000Z</time>
      </trkpt>
      <trkpt lat="45.01876" lon="5.80929">
        <ele>1243.1999511719</ele>
        <time>2023-10-01T11:06:58.000Z</time>
      </trkpt>
      <trkpt lat="45.01874" lon="5.80928">
        <ele>1243</ele>
        <time>2023-10-01T11:06:59.000Z</time>
      </trkpt>
      <trkpt lat="45.01872" lon="5.80926">
        <ele>1243</ele>
        <time>2023-10-01T11:07:00.000Z</time>
      </trkpt>
      <trkpt lat="45.0187" lon="5.80925">
        <ele>1243</ele>
        <time>2023-10-01T11:07:01.000Z</time>
      </trkpt>
      <trkpt lat="45.01868" lon="5.80924">
        <ele>1243</ele>
        <time>2023-10-01T11:07:02.000Z</time>
      </trkpt>
      <trkpt lat="45.01866" lon="5.80923">
        <ele>1243</ele>
        <time>2023-10-01T11:07:03.000Z</time>
      </trkpt>
      <trkpt lat="45.01864" lon="5.80922">
        <ele>1243</ele>
        <time>2023-10-01T11:07:04.000Z</time>
      </trkpt>
      <trkpt lat="45.01862" lon="5.8092">
        <ele>1243</ele>
        <time>2023-10-01T11:07:05.000Z</time>
      </trkpt>
      <trkpt lat="45.01861" lon="5.80919">
        <ele>1243</ele>
        <time>2023-10-01T11:07:06.000Z</time>
      </trkpt>
      <trkpt lat="45.01859" lon="5.80917">
        <ele>1242.8000488281</ele>
        <time>2023-10-01T11:07:07.000Z</time>
      </trkpt>
      <trkpt lat="45.01857" lon="5.80916">
        <ele>1242.8000488281</ele>
        <time>2023-10-01T11:07:08.000Z</time>
      </trkpt>
      <trkpt lat="45.01856" lon="5.80915">
        <ele>1242.5999755859</ele>
        <time>2023-10-01T11:07:09.000Z</time>
      </trkpt>
      <trkpt lat="45.01855" lon="5.80915">
        <ele>1242.4000244141</ele>
        <time>2023-10-01T11:07:10.000Z</time>
      </trkpt>
      <trkpt lat="45.01855" lon="5.80915">
        <ele>1242.1999511719</ele>
        <time>2023-10-01T11:07:11.000Z</time>
      </trkpt>
      <trkpt lat="45.01854" lon="5.80915">
        <ele>1241.8000488281</ele>
        <time>2023-10-01T11:07:12.000Z</time>
      </trkpt>
      <trkpt lat="45.01854" lon="5.80915">
        <ele>1241.4000244141</ele>
        <time>2023-10-01T11:07:13.000Z</time>
      </trkpt>
      <trkpt lat="45.01854" lon="5.80916">
        <ele>1241.4000244141</ele>
        <time>2023-10-01T11:07:14.000Z</time>
      </trkpt>
      <trkpt lat="45.01854" lon="5.80916">
        <ele>1241.1999511719</ele>
        <time>2023-10-01T11:07:15.000Z</time>
      </trkpt>
      <trkpt lat="45.01854" lon="5.80916">
        <ele>1241.1999511719</ele>
        <time>2023-10-01T11:07:16.000Z</time>
      </trkpt>
      <trkpt lat="45.01854" lon="5.80917">
        <ele>1241.1999511719</ele>
        <time>2023-10-01T11:07:17.000Z</time>
      </trkpt>
      <trkpt lat="45.01854" lon="5.80917">
        <ele>1241.1999511719</ele>
        <time>2023-10-01T11:07:18.000Z</time>
      </trkpt>
      <trkpt lat="45.01854" lon="5.80917">
        <ele>1241.1999511719</ele>
        <time>2023-10-01T11:07:19.000Z</time>
      </trkpt>
      <trkpt lat="45.01854" lon="5.80917">
        <ele>1241.1999511719</ele>
        <time>2023-10-01T11:07:20.000Z</time>
      </trkpt>
      <trkpt lat="45.01854" lon="5.80917">
        <ele>1241.1999511719</ele>
        <time>2023-10-01T11:07:21.000Z</time>
      </trkpt>
      <trkpt lat="45.01854" lon="5.80917">
        <ele>1241.1999511719</ele>
        <time>2023-10-01T11:07:22.000Z</time>
      </trkpt>
      <trkpt lat="45.01853" lon="5.80917">
        <ele>1241.1999511719</ele>
        <time>2023-10-01T11:07:23.000Z</time>
      </trkpt>
      <trkpt lat="45.01854" lon="5.80917">
        <ele>1241.1999511719</ele>
        <time>2023-10-01T11:07:24.000Z</time>
      </trkpt>
      <trkpt lat="45.01854" lon="5.80918">
        <ele>1241.1999511719</ele>
        <time>2023-10-01T11:07:25.000Z</time>
      </trkpt>
      <trkpt lat="45.01854" lon="5.80917">
        <ele>1241.1999511719</ele>
        <time>2023-10-01T11:07:26.000Z</time>
      </trkpt>
      <trkpt lat="45.01854" lon="5.80917">
        <ele>1241.1999511719</ele>
        <time>2023-10-01T11:07:27.000Z</time>
      </trkpt>
      <trkpt lat="45.01854" lon="5.80917">
        <ele>1241.1999511719</ele>
        <time>2023-10-01T11:07:28.000Z</time>
      </trkpt>
      <trkpt lat="45.01854" lon="5.80917">
        <ele>1241.1999511719</ele>
        <time>2023-10-01T11:07:29.000Z</time>
      </trkpt>
      <trkpt lat="45.01854" lon="5.80917">
        <ele>1241.1999511719</ele>
        <time>2023-10-01T11:07:30.000Z</time>
      </trkpt>
      <trkpt lat="45.01854" lon="5.80917">
        <ele>1241.1999511719</ele>
        <time>2023-10-01T11:07:31.000Z</time>
      </trkpt>
      <trkpt lat="45.01853" lon="5.80918">
        <ele>1241.1999511719</ele>
        <time>2023-10-01T11:07:32.000Z</time>
      </trkpt>
      <trkpt lat="45.01853" lon="5.80918">
        <ele>1241.1999511719</ele>
        <time>2023-10-01T11:07:33.000Z</time>
      </trkpt>
      <trkpt lat="45.01853" lon="5.80918">
        <ele>1241</ele>
        <time>2023-10-01T11:07:34.000Z</time>
      </trkpt>
      <trkpt lat="45.01853" lon="5.80918">
        <ele>1241</ele>
        <time>2023-10-01T11:07:35.000Z</time>
      </trkpt>
      <trkpt lat="45.01853" lon="5.80918">
        <ele>1241</ele>
        <time>2023-10-01T11:07:36.000Z</time>
      </trkpt>
      <trkpt lat="45.01852" lon="5.80919">
        <ele>1241</ele>
        <time>2023-10-01T11:07:37.000Z</time>
      </trkpt>
      <trkpt lat="45.01852" lon="5.80919">
        <ele>1241</ele>
        <time>2023-10-01T11:07:38.000Z</time>
      </trkpt>
      <trkpt lat="45.01852" lon="5.80919">
        <ele>1241</ele>
        <time>2023-10-01T11:07:39.000Z</time>
      </trkpt>
      <trkpt lat="45.01852" lon="5.80919">
        <ele>1241</ele>
        <time>2023-10-01T11:07:40.000Z</time>
      </trkpt>
      <trkpt lat="45.01852" lon="5.80919">
        <ele>1241</ele>
        <time>2023-10-01T11:07:41.000Z</time>
      </trkpt>
      <trkpt lat="45.01852" lon="5.80919">
        <ele>1241</ele>
        <time>2023-10-01T11:07:42.000Z</time>
      </trkpt>
      <trkpt lat="45.01852" lon="5.80919">
        <ele>1241</ele>
        <time>2023-10-01T11:07:43.000Z</time>
      </trkpt>
      <trkpt lat="45.01851" lon="5.80919">
        <ele>1241</ele>
        <time>2023-10-01T11:07:44.000Z</time>
      </trkpt>
      <trkpt lat="45.01851" lon="5.80919">
        <ele>1241</ele>
        <time>2023-10-01T11:07:45.000Z</time>
      </trkpt>
      <trkpt lat="45.01851" lon="5.80919">
        <ele>1240.8000488281</ele>
        <time>2023-10-01T11:07:46.000Z</time>
      </trkpt>
      <trkpt lat="45.01851" lon="5.80919">
        <ele>1240.8000488281</ele>
        <time>2023-10-01T11:07:47.000Z</time>
      </trkpt>
      <trkpt lat="45.01851" lon="5.80919">
        <ele>1240.8000488281</ele>
        <time>2023-10-01T11:07:48.000Z</time>
      </trkpt>
      <trkpt lat="45.01851" lon="5.80919">
        <ele>1240.8000488281</ele>
        <time>2023-10-01T11:07:49.000Z</time>
      </trkpt>
      <trkpt lat="45.01851" lon="5.80919">
        <ele>1240.8000488281</ele>
        <time>2023-10-01T11:07:50.000Z</time>
      </trkpt>
      <trkpt lat="45.01851" lon="5.80919">
        <ele>1240.8000488281</ele>
        <time>2023-10-01T11:07:51.000Z</time>
      </trkpt>
      <trkpt lat="45.01851" lon="5.80919">
        <ele>1240.8000488281</ele>
        <time>2023-10-01T11:07:52.000Z</time>
      </trkpt>
      <trkpt lat="45.01851" lon="5.80919">
        <ele>1240.8000488281</ele>
        <time>2023-10-01T11:07:53.000Z</time>
      </trkpt>
      <trkpt lat="45.01851" lon="5.80919">
        <ele>1240.8000488281</ele>
        <time>2023-10-01T11:07:54.000Z</time>
      </trkpt>
      <trkpt lat="45.01851" lon="5.80919">
        <ele>1240.8000488281</ele>
        <time>2023-10-01T11:07:55.000Z</time>
      </trkpt>
      <trkpt lat="45.01851" lon="5.80919">
        <ele>1240.8000488281</ele>
        <time>2023-10-01T11:07:56.000Z</time>
      </trkpt>
      <trkpt lat="45.01851" lon="5.80919">
        <ele>1240.8000488281</ele>
        <time>2023-10-01T11:07:57.000Z</time>
      </trkpt>
      <trkpt lat="45.01851" lon="5.80919">
        <ele>1240.8000488281</ele>
        <time>2023-10-01T11:07:58.000Z</time>
      </trkpt>
      <trkpt lat="45.01852" lon="5.80919">
        <ele>1240.8000488281</ele>
        <time>2023-10-01T11:07:59.000Z</time>
      </trkpt>
      <trkpt lat="45.01852" lon="5.80919">
        <ele>1240.8000488281</ele>
        <time>2023-10-01T11:08:00.000Z</time>
      </trkpt>
      <trkpt lat="45.01853" lon="5.80918">
        <ele>1240.8000488281</ele>
        <time>2023-10-01T11:08:01.000Z</time>
      </trkpt>
      <trkpt lat="45.01853" lon="5.80918">
        <ele>1240.8000488281</ele>
        <time>2023-10-01T11:08:02.000Z</time>
      </trkpt>
      <trkpt lat="45.01854" lon="5.80918">
        <ele>1240.8000488281</ele>
        <time>2023-10-01T11:08:03.000Z</time>
      </trkpt>
      <trkpt lat="45.01854" lon="5.80918">
        <ele>1240.8000488281</ele>
        <time>2023-10-01T11:08:04.000Z</time>
      </trkpt>
      <trkpt lat="45.01855" lon="5.80917">
        <ele>1240.8000488281</ele>
        <time>2023-10-01T11:08:05.000Z</time>
      </trkpt>
      <trkpt lat="45.01855" lon="5.80917">
        <ele>1240.8000488281</ele>
        <time>2023-10-01T11:08:06.000Z</time>
      </trkpt>
      <trkpt lat="45.01855" lon="5.80917">
        <ele>1240.8000488281</ele>
        <time>2023-10-01T11:08:07.000Z</time>
      </trkpt>
      <trkpt lat="45.01855" lon="5.80917">
        <ele>1240.8000488281</ele>
        <time>2023-10-01T11:08:08.000Z</time>
      </trkpt>
      <trkpt lat="45.01854" lon="5.80917">
        <ele>1240.8000488281</ele>
        <time>2023-10-01T11:08:09.000Z</time>
      </trkpt>
      <trkpt lat="45.01853" lon="5.80917">
        <ele>1240.8000488281</ele>
        <time>2023-10-01T11:08:10.000Z</time>
      </trkpt>
      <trkpt lat="45.01852" lon="5.80916">
        <ele>1240.8000488281</ele>
        <time>2023-10-01T11:08:11.000Z</time>
      </trkpt>
      <trkpt lat="45.01849" lon="5.80914">
        <ele>1240.8000488281</ele>
        <time>2023-10-01T11:08:12.000Z</time>
      </trkpt>
      <trkpt lat="45.01848" lon="5.80914">
        <ele>1240.8000488281</ele>
        <time>2023-10-01T11:08:13.000Z</time>
      </trkpt>
      <trkpt lat="45.01847" lon="5.80913">
        <ele>1240.8000488281</ele>
        <time>2023-10-01T11:08:14.000Z</time>
      </trkpt>
      <trkpt lat="45.01845" lon="5.80912">
        <ele>1240.8000488281</ele>
        <time>2023-10-01T11:08:15.000Z</time>
      </trkpt>
      <trkpt lat="45.01843" lon="5.8091">
        <ele>1240.8000488281</ele>
        <time>2023-10-01T11:08:16.000Z</time>
      </trkpt>
      <trkpt lat="45.01842" lon="5.80908">
        <ele>1240.5999755859</ele>
        <time>2023-10-01T11:08:17.000Z</time>
      </trkpt>
      <trkpt lat="45.0184" lon="5.80907">
        <ele>1240.5999755859</ele>
        <time>2023-10-01T11:08:18.000Z</time>
      </trkpt>
      <trkpt lat="45.01839" lon="5.80905">
        <ele>1240.5999755859</ele>
        <time>2023-10-01T11:08:19.000Z</time>
      </trkpt>
      <trkpt lat="45.01838" lon="5.80905">
        <ele>1240.1999511719</ele>
        <time>2023-10-01T11:08:20.000Z</time>
      </trkpt>
      <trkpt lat="45.01837" lon="5.80904">
        <ele>1240</ele>
        <time>2023-10-01T11:08:21.000Z</time>
      </trkpt>
      <trkpt lat="45.01837" lon="5.80904">
        <ele>1239.8000488281</ele>
        <time>2023-10-01T11:08:22.000Z</time>
      </trkpt>
      <trkpt lat="45.01836" lon="5.80903">
        <ele>1239.5999755859</ele>
        <time>2023-10-01T11:08:23.000Z</time>
      </trkpt>
      <trkpt lat="45.01835" lon="5.80902">
        <ele>1239.4000244141</ele>
        <time>2023-10-01T11:08:24.000Z</time>
      </trkpt>
      <trkpt lat="45.01835" lon="5.80901">
        <ele>1239</ele>
        <time>2023-10-01T11:08:25.000Z</time>
      </trkpt>
      <trkpt lat="45.01835" lon="5.80901">
        <ele>1238.5999755859</ele>
        <time>2023-10-01T11:08:26.000Z</time>
      </trkpt>
      <trkpt lat="45.01834" lon="5.80901">
        <ele>1238.1999511719</ele>
        <time>2023-10-01T11:08:27.000Z</time>
      </trkpt>
      <trkpt lat="45.01834" lon="5.80901">
        <ele>1237.8000488281</ele>
        <time>2023-10-01T11:08:28.000Z</time>
      </trkpt>
      <trkpt lat="45.01834" lon="5.80901">
        <ele>1237.5999755859</ele>
        <time>2023-10-01T11:08:29.000Z</time>
      </trkpt>
      <trkpt lat="45.01834" lon="5.80901">
        <ele>1237.5999755859</ele>
        <time>2023-10-01T11:08:30.000Z</time>
      </trkpt>
      <trkpt lat="45.01834" lon="5.80901">
        <ele>1237.4000244141</ele>
        <time>2023-10-01T11:08:31.000Z</time>
      </trkpt>
      <trkpt lat="45.01834" lon="5.80901">
        <ele>1237.4000244141</ele>
        <time>2023-10-01T11:08:32.000Z</time>
      </trkpt>
      <trkpt lat="45.01834" lon="5.80901">
        <ele>1237.4000244141</ele>
        <time>2023-10-01T11:08:33.000Z</time>
      </trkpt>
      <trkpt lat="45.01834" lon="5.80901">
        <ele>1237.4000244141</ele>
        <time>2023-10-01T11:08:34.000Z</time>
      </trkpt>
      <trkpt lat="45.01834" lon="5.80901">
        <ele>1237.4000244141</ele>
        <time>2023-10-01T11:08:35.000Z</time>
      </trkpt>
      <trkpt lat="45.01834" lon="5.80901">
        <ele>1237.4000244141</ele>
        <time>2023-10-01T11:08:36.000Z</time>
      </trkpt>
      <trkpt lat="45.01834" lon="5.80901">
        <ele>1237.4000244141</ele>
        <time>2023-10-01T11:08:37.000Z</time>
      </trkpt>
      <trkpt lat="45.01833" lon="5.80901">
        <ele>1237.1999511719</ele>
        <time>2023-10-01T11:08:38.000Z</time>
      </trkpt>
      <trkpt lat="45.01833" lon="5.809">
        <ele>1237.1999511719</ele>
        <time>2023-10-01T11:08:39.000Z</time>
      </trkpt>
      <trkpt lat="45.01832" lon="5.80899">
        <ele>1237</ele>
        <time>2023-10-01T11:08:40.000Z</time>
      </trkpt>
      <trkpt lat="45.01831" lon="5.80898">
        <ele>1236.8000488281</ele>
        <time>2023-10-01T11:08:41.000Z</time>
      </trkpt>
      <trkpt lat="45.01831" lon="5.80898">
        <ele>1236.5999755859</ele>
        <time>2023-10-01T11:08:42.000Z</time>
      </trkpt>
      <trkpt lat="45.0183" lon="5.80897">
        <ele>1236.4000244141</ele>
        <time>2023-10-01T11:08:43.000Z</time>
      </trkpt>
      <trkpt lat="45.0183" lon="5.80897">
        <ele>1236.1999511719</ele>
        <time>2023-10-01T11:08:44.000Z</time>
      </trkpt>
      <trkpt lat="45.01829" lon="5.80896">
        <ele>1235.8000488281</ele>
        <time>2023-10-01T11:08:45.000Z</time>
      </trkpt>
      <trkpt lat="45.01829" lon="5.80895">
        <ele>1235.5999755859</ele>
        <time>2023-10-01T11:08:46.000Z</time>
      </trkpt>
      <trkpt lat="45.01828" lon="5.80895">
        <ele>1235.4000244141</ele>
        <time>2023-10-01T11:08:47.000Z</time>
      </trkpt>
      <trkpt lat="45.01827" lon="5.80894">
        <ele>1235</ele>
        <time>2023-10-01T11:08:48.000Z</time>
      </trkpt>
      <trkpt lat="45.01827" lon="5.80894">
        <ele>1234.8000488281</ele>
        <time>2023-10-01T11:08:49.000Z</time>
      </trkpt>
      <trkpt lat="45.01826" lon="5.80893">
        <ele>1234.4000244141</ele>
        <time>2023-10-01T11:08:50.000Z</time>
      </trkpt>
      <trkpt lat="45.01826" lon="5.80893">
        <ele>1234</ele>
        <time>2023-10-01T11:08:51.000Z</time>
      </trkpt>
      <trkpt lat="45.01825" lon="5.80892">
        <ele>1233.8000488281</ele>
        <time>2023-10-01T11:08:52.000Z</time>
      </trkpt>
      <trkpt lat="45.01824" lon="5.8089">
        <ele>1233.4000244141</ele>
        <time>2023-10-01T11:08:53.000Z</time>
      </trkpt>
      <trkpt lat="45.01824" lon="5.80889">
        <ele>1233</ele>
        <time>2023-10-01T11:08:54.000Z</time>
      </trkpt>
      <trkpt lat="45.01823" lon="5.80888">
        <ele>1232.8000488281</ele>
        <time>2023-10-01T11:08:55.000Z</time>
      </trkpt>
      <trkpt lat="45.01822" lon="5.80888">
        <ele>1232.4000244141</ele>
        <time>2023-10-01T11:08:56.000Z</time>
      </trkpt>
      <trkpt lat="45.01822" lon="5.80887">
        <ele>1232</ele>
        <time>2023-10-01T11:08:57.000Z</time>
      </trkpt>
      <trkpt lat="45.0182" lon="5.80887">
        <ele>1231.8000488281</ele>
        <time>2023-10-01T11:08:58.000Z</time>
      </trkpt>
      <trkpt lat="45.01819" lon="5.80885">
        <ele>1231.4000244141</ele>
        <time>2023-10-01T11:08:59.000Z</time>
      </trkpt>
      <trkpt lat="45.01818" lon="5.80883">
        <ele>1231</ele>
        <time>2023-10-01T11:09:00.000Z</time>
      </trkpt>
      <trkpt lat="45.01817" lon="5.8088">
        <ele>1230.8000488281</ele>
        <time>2023-10-01T11:09:01.000Z</time>
      </trkpt>
      <trkpt lat="45.01817" lon="5.80878">
        <ele>1230.1999511719</ele>
        <time>2023-10-01T11:09:02.000Z</time>
      </trkpt>
      <trkpt lat="45.01816" lon="5.80876">
        <ele>1229.8000488281</ele>
        <time>2023-10-01T11:09:03.000Z</time>
      </trkpt>
      <trkpt lat="45.01816" lon="5.80873">
        <ele>1229.4000244141</ele>
        <time>2023-10-01T11:09:04.000Z</time>
      </trkpt>
      <trkpt lat="45.01816" lon="5.80871">
        <ele>1229.1999511719</ele>
        <time>2023-10-01T11:09:05.000Z</time>
      </trkpt>
      <trkpt lat="45.01815" lon="5.80869">
        <ele>1229.1999511719</ele>
        <time>2023-10-01T11:09:06.000Z</time>
      </trkpt>
      <trkpt lat="45.01815" lon="5.80867">
        <ele>1229.1999511719</ele>
        <time>2023-10-01T11:09:07.000Z</time>
      </trkpt>
      <trkpt lat="45.01814" lon="5.80865">
        <ele>1229.4000244141</ele>
        <time>2023-10-01T11:09:08.000Z</time>
      </trkpt>
      <trkpt lat="45.01813" lon="5.80864">
        <ele>1229.5999755859</ele>
        <time>2023-10-01T11:09:09.000Z</time>
      </trkpt>
      <trkpt lat="45.01813" lon="5.80862">
        <ele>1230</ele>
        <time>2023-10-01T11:09:10.000Z</time>
      </trkpt>
      <trkpt lat="45.01812" lon="5.80861">
        <ele>1230.1999511719</ele>
        <time>2023-10-01T11:09:11.000Z</time>
      </trkpt>
      <trkpt lat="45.01811" lon="5.8086">
        <ele>1230.5999755859</ele>
        <time>2023-10-01T11:09:12.000Z</time>
      </trkpt>
      <trkpt lat="45.0181" lon="5.80859">
        <ele>1231</ele>
        <time>2023-10-01T11:09:13.000Z</time>
      </trkpt>
      <trkpt lat="45.01809" lon="5.80858">
        <ele>1231.1999511719</ele>
        <time>2023-10-01T11:09:14.000Z</time>
      </trkpt>
      <trkpt lat="45.01808" lon="5.80856">
        <ele>1231.4000244141</ele>
        <time>2023-10-01T11:09:15.000Z</time>
      </trkpt>
      <trkpt lat="45.01807" lon="5.80855">
        <ele>1231.8000488281</ele>
        <time>2023-10-01T11:09:16.000Z</time>
      </trkpt>
      <trkpt lat="45.01806" lon="5.80853">
        <ele>1232</ele>
        <time>2023-10-01T11:09:17.000Z</time>
      </trkpt>
      <trkpt lat="45.01804" lon="5.80851">
        <ele>1232.1999511719</ele>
        <time>2023-10-01T11:09:18.000Z</time>
      </trkpt>
      <trkpt lat="45.01803" lon="5.80851">
        <ele>1232.5999755859</ele>
        <time>2023-10-01T11:09:19.000Z</time>
      </trkpt>
      <trkpt lat="45.01802" lon="5.8085">
        <ele>1232.5999755859</ele>
        <time>2023-10-01T11:09:20.000Z</time>
      </trkpt>
      <trkpt lat="45.018" lon="5.80849">
        <ele>1232.5999755859</ele>
        <time>2023-10-01T11:09:21.000Z</time>
      </trkpt>
      <trkpt lat="45.01798" lon="5.80848">
        <ele>1232.8000488281</ele>
        <time>2023-10-01T11:09:22.000Z</time>
      </trkpt>
      <trkpt lat="45.01797" lon="5.80847">
        <ele>1233</ele>
        <time>2023-10-01T11:09:23.000Z</time>
      </trkpt>
      <trkpt lat="45.01796" lon="5.80846">
        <ele>1233</ele>
        <time>2023-10-01T11:09:24.000Z</time>
      </trkpt>
      <trkpt lat="45.01794" lon="5.80844">
        <ele>1233.1999511719</ele>
        <time>2023-10-01T11:09:25.000Z</time>
      </trkpt>
      <trkpt lat="45.01793" lon="5.80843">
        <ele>1233.4000244141</ele>
        <time>2023-10-01T11:09:26.000Z</time>
      </trkpt>
      <trkpt lat="45.01792" lon="5.80842">
        <ele>1233.4000244141</ele>
        <time>2023-10-01T11:09:27.000Z</time>
      </trkpt>
      <trkpt lat="45.01792" lon="5.80842">
        <ele>1233.5999755859</ele>
        <time>2023-10-01T11:09:28.000Z</time>
      </trkpt>
      <trkpt lat="45.01791" lon="5.80841">
        <ele>1233.8000488281</ele>
        <time>2023-10-01T11:09:29.000Z</time>
      </trkpt>
      <trkpt lat="45.01791" lon="5.80841">
        <ele>1234</ele>
        <time>2023-10-01T11:09:30.000Z</time>
      </trkpt>
      <trkpt lat="45.01791" lon="5.80841">
        <ele>1234</ele>
        <time>2023-10-01T11:09:31.000Z</time>
      </trkpt>
      <trkpt lat="45.01791" lon="5.80841">
        <ele>1234</ele>
        <time>2023-10-01T11:09:32.000Z</time>
      </trkpt>
      <trkpt lat="45.01791" lon="5.80841">
        <ele>1234</ele>
        <time>2023-10-01T11:09:33.000Z</time>
      </trkpt>
      <trkpt lat="45.0179" lon="5.8084">
        <ele>1234</ele>
        <time>2023-10-01T11:09:34.000Z</time>
      </trkpt>
      <trkpt lat="45.0179" lon="5.8084">
        <ele>1234</ele>
        <time>2023-10-01T11:09:35.000Z</time>
      </trkpt>
      <trkpt lat="45.01789" lon="5.8084">
        <ele>1234</ele>
        <time>2023-10-01T11:09:36.000Z</time>
      </trkpt>
      <trkpt lat="45.01788" lon="5.80839">
        <ele>1234</ele>
        <time>2023-10-01T11:09:37.000Z</time>
      </trkpt>
      <trkpt lat="45.01786" lon="5.80839">
        <ele>1234</ele>
        <time>2023-10-01T11:09:38.000Z</time>
      </trkpt>
      <trkpt lat="45.01785" lon="5.80838">
        <ele>1234</ele>
        <time>2023-10-01T11:09:39.000Z</time>
      </trkpt>
      <trkpt lat="45.01784" lon="5.80837">
        <ele>1234</ele>
        <time>2023-10-01T11:09:40.000Z</time>
      </trkpt>
      <trkpt lat="45.01783" lon="5.80837">
        <ele>1234</ele>
        <time>2023-10-01T11:09:41.000Z</time>
      </trkpt>
      <trkpt lat="45.01781" lon="5.80837">
        <ele>1234</ele>
        <time>2023-10-01T11:09:42.000Z</time>
      </trkpt>
      <trkpt lat="45.01779" lon="5.80836">
        <ele>1234.1999511719</ele>
        <time>2023-10-01T11:09:43.000Z</time>
      </trkpt>
      <trkpt lat="45.01777" lon="5.80835">
        <ele>1234.4000244141</ele>
        <time>2023-10-01T11:09:44.000Z</time>
      </trkpt>
      <trkpt lat="45.01776" lon="5.80834">
        <ele>1234.4000244141</ele>
        <time>2023-10-01T11:09:45.000Z</time>
      </trkpt>
      <trkpt lat="45.01774" lon="5.80833">
        <ele>1234.4000244141</ele>
        <time>2023-10-01T11:09:46.000Z</time>
      </trkpt>
      <trkpt lat="45.01772" lon="5.80832">
        <ele>1234.5999755859</ele>
        <time>2023-10-01T11:09:47.000Z</time>
      </trkpt>
      <trkpt lat="45.0177" lon="5.80831">
        <ele>1234.5999755859</ele>
        <time>2023-10-01T11:09:48.000Z</time>
      </trkpt>
      <trkpt lat="45.01769" lon="5.8083">
        <ele>1234.8000488281</ele>
        <time>2023-10-01T11:09:49.000Z</time>
      </trkpt>
      <trkpt lat="45.01767" lon="5.8083">
        <ele>1234.8000488281</ele>
        <time>2023-10-01T11:09:50.000Z</time>
      </trkpt>
      <trkpt lat="45.01765" lon="5.80829">
        <ele>1234.8000488281</ele>
        <time>2023-10-01T11:09:51.000Z</time>
      </trkpt>
      <trkpt lat="45.01764" lon="5.80828">
        <ele>1234.8000488281</ele>
        <time>2023-10-01T11:09:52.000Z</time>
      </trkpt>
      <trkpt lat="45.01762" lon="5.80828">
        <ele>1234.8000488281</ele>
        <time>2023-10-01T11:09:53.000Z</time>
      </trkpt>
      <trkpt lat="45.01761" lon="5.80827">
        <ele>1234.8000488281</ele>
        <time>2023-10-01T11:09:54.000Z</time>
      </trkpt>
      <trkpt lat="45.01759" lon="5.80827">
        <ele>1234.8000488281</ele>
        <time>2023-10-01T11:09:55.000Z</time>
      </trkpt>
      <trkpt lat="45.01758" lon="5.80827">
        <ele>1234.8000488281</ele>
        <time>2023-10-01T11:09:56.000Z</time>
      </trkpt>
      <trkpt lat="45.01756" lon="5.80828">
        <ele>1234.8000488281</ele>
        <time>2023-10-01T11:09:57.000Z</time>
      </trkpt>
      <trkpt lat="45.01754" lon="5.80829">
        <ele>1235</ele>
        <time>2023-10-01T11:09:58.000Z</time>
      </trkpt>
      <trkpt lat="45.01752" lon="5.8083">
        <ele>1235</ele>
        <time>2023-10-01T11:09:59.000Z</time>
      </trkpt>
      <trkpt lat="45.0175" lon="5.8083">
        <ele>1235</ele>
        <time>2023-10-01T11:10:00.000Z</time>
      </trkpt>
      <trkpt lat="45.01748" lon="5.8083">
        <ele>1235.1999511719</ele>
        <time>2023-10-01T11:10:01.000Z</time>
      </trkpt>
      <trkpt lat="45.01746" lon="5.8083">
        <ele>1235.4000244141</ele>
        <time>2023-10-01T11:10:02.000Z</time>
      </trkpt>
      <trkpt lat="45.01744" lon="5.80829">
        <ele>1235.5999755859</ele>
        <time>2023-10-01T11:10:03.000Z</time>
      </trkpt>
      <trkpt lat="45.01742" lon="5.80829">
        <ele>1235.5999755859</ele>
        <time>2023-10-01T11:10:04.000Z</time>
      </trkpt>
      <trkpt lat="45.01741" lon="5.80828">
        <ele>1235.8000488281</ele>
        <time>2023-10-01T11:10:05.000Z</time>
      </trkpt>
      <trkpt lat="45.01741" lon="5.80829">
        <ele>1236</ele>
        <time>2023-10-01T11:10:06.000Z</time>
      </trkpt>
      <trkpt lat="45.01741" lon="5.80829">
        <ele>1236.1999511719</ele>
        <time>2023-10-01T11:10:07.000Z</time>
      </trkpt>
      <trkpt lat="45.0174" lon="5.80829">
        <ele>1236.1999511719</ele>
        <time>2023-10-01T11:10:08.000Z</time>
      </trkpt>
      <trkpt lat="45.01741" lon="5.8083">
        <ele>1236.1999511719</ele>
        <time>2023-10-01T11:10:09.000Z</time>
      </trkpt>
      <trkpt lat="45.0174" lon="5.80829">
        <ele>1236.1999511719</ele>
        <time>2023-10-01T11:10:10.000Z</time>
      </trkpt>
      <trkpt lat="45.01739" lon="5.80829">
        <ele>1236.1999511719</ele>
        <time>2023-10-01T11:10:11.000Z</time>
      </trkpt>
      <trkpt lat="45.01737" lon="5.80828">
        <ele>1236.1999511719</ele>
        <time>2023-10-01T11:10:12.000Z</time>
      </trkpt>
      <trkpt lat="45.01736" lon="5.80828">
        <ele>1236.1999511719</ele>
        <time>2023-10-01T11:10:13.000Z</time>
      </trkpt>
      <trkpt lat="45.01734" lon="5.80827">
        <ele>1236.1999511719</ele>
        <time>2023-10-01T11:10:14.000Z</time>
      </trkpt>
      <trkpt lat="45.01732" lon="5.80827">
        <ele>1236.4000244141</ele>
        <time>2023-10-01T11:10:15.000Z</time>
      </trkpt>
      <trkpt lat="45.01731" lon="5.80826">
        <ele>1236.4000244141</ele>
        <time>2023-10-01T11:10:16.000Z</time>
      </trkpt>
      <trkpt lat="45.01729" lon="5.80826">
        <ele>1236.5999755859</ele>
        <time>2023-10-01T11:10:17.000Z</time>
      </trkpt>
      <trkpt lat="45.01727" lon="5.80825">
        <ele>1236.5999755859</ele>
        <time>2023-10-01T11:10:18.000Z</time>
      </trkpt>
      <trkpt lat="45.01726" lon="5.80825">
        <ele>1236.8000488281</ele>
        <time>2023-10-01T11:10:19.000Z</time>
      </trkpt>
      <trkpt lat="45.01724" lon="5.80825">
        <ele>1236.8000488281</ele>
        <time>2023-10-01T11:10:20.000Z</time>
      </trkpt>
      <trkpt lat="45.01722" lon="5.80824">
        <ele>1236.8000488281</ele>
        <time>2023-10-01T11:10:21.000Z</time>
      </trkpt>
      <trkpt lat="45.0172" lon="5.80823">
        <ele>1236.8000488281</ele>
        <time>2023-10-01T11:10:22.000Z</time>
      </trkpt>
      <trkpt lat="45.01718" lon="5.80823">
        <ele>1236.8000488281</ele>
        <time>2023-10-01T11:10:23.000Z</time>
      </trkpt>
      <trkpt lat="45.01715" lon="5.80822">
        <ele>1236.8000488281</ele>
        <time>2023-10-01T11:10:24.000Z</time>
      </trkpt>
      <trkpt lat="45.01713" lon="5.80821">
        <ele>1236.8000488281</ele>
        <time>2023-10-01T11:10:25.000Z</time>
      </trkpt>
      <trkpt lat="45.01711" lon="5.8082">
        <ele>1236.8000488281</ele>
        <time>2023-10-01T11:10:26.000Z</time>
      </trkpt>
      <trkpt lat="45.01709" lon="5.80819">
        <ele>1236.8000488281</ele>
        <time>2023-10-01T11:10:27.000Z</time>
      </trkpt>
      <trkpt lat="45.01708" lon="5.80819">
        <ele>1236.8000488281</ele>
        <time>2023-10-01T11:10:28.000Z</time>
      </trkpt>
      <trkpt lat="45.01706" lon="5.80818">
        <ele>1236.5999755859</ele>
        <time>2023-10-01T11:10:29.000Z</time>
      </trkpt>
      <trkpt lat="45.01704" lon="5.80817">
        <ele>1236.5999755859</ele>
        <time>2023-10-01T11:10:30.000Z</time>
      </trkpt>
      <trkpt lat="45.01703" lon="5.80817">
        <ele>1236.4000244141</ele>
        <time>2023-10-01T11:10:31.000Z</time>
      </trkpt>
      <trkpt lat="45.017" lon="5.80817">
        <ele>1236.4000244141</ele>
        <time>2023-10-01T11:10:32.000Z</time>
      </trkpt>
      <trkpt lat="45.01698" lon="5.80816">
        <ele>1236.4000244141</ele>
        <time>2023-10-01T11:10:33.000Z</time>
      </trkpt>
      <trkpt lat="45.01697" lon="5.80816">
        <ele>1236.4000244141</ele>
        <time>2023-10-01T11:10:34.000Z</time>
      </trkpt>
      <trkpt lat="45.01695" lon="5.80816">
        <ele>1236.4000244141</ele>
        <time>2023-10-01T11:10:35.000Z</time>
      </trkpt>
      <trkpt lat="45.01692" lon="5.80817">
        <ele>1236.4000244141</ele>
        <time>2023-10-01T11:10:36.000Z</time>
      </trkpt>
      <trkpt lat="45.01691" lon="5.80817">
        <ele>1236.4000244141</ele>
        <time>2023-10-01T11:10:37.000Z</time>
      </trkpt>
      <trkpt lat="45.01688" lon="5.80817">
        <ele>1236.4000244141</ele>
        <time>2023-10-01T11:10:38.000Z</time>
      </trkpt>
      <trkpt lat="45.01686" lon="5.80816">
        <ele>1236.4000244141</ele>
        <time>2023-10-01T11:10:39.000Z</time>
      </trkpt>
      <trkpt lat="45.01684" lon="5.80816">
        <ele>1236.1999511719</ele>
        <time>2023-10-01T11:10:40.000Z</time>
      </trkpt>
      <trkpt lat="45.01681" lon="5.80816">
        <ele>1236.1999511719</ele>
        <time>2023-10-01T11:10:41.000Z</time>
      </trkpt>
      <trkpt lat="45.01679" lon="5.80816">
        <ele>1236</ele>
        <time>2023-10-01T11:10:42.000Z</time>
      </trkpt>
      <trkpt lat="45.01677" lon="5.80816">
        <ele>1235.8000488281</ele>
        <time>2023-10-01T11:10:43.000Z</time>
      </trkpt>
      <trkpt lat="45.01676" lon="5.80816">
        <ele>1235.4000244141</ele>
        <time>2023-10-01T11:10:44.000Z</time>
      </trkpt>
      <trkpt lat="45.01674" lon="5.80816">
        <ele>1235.1999511719</ele>
        <time>2023-10-01T11:10:45.000Z</time>
      </trkpt>
      <trkpt lat="45.01672" lon="5.80815">
        <ele>1235.1999511719</ele>
        <time>2023-10-01T11:10:46.000Z</time>
      </trkpt>
      <trkpt lat="45.0167" lon="5.80815">
        <ele>1235</ele>
        <time>2023-10-01T11:10:47.000Z</time>
      </trkpt>
      <trkpt lat="45.01668" lon="5.80815">
        <ele>1235</ele>
        <time>2023-10-01T11:10:48.000Z</time>
      </trkpt>
      <trkpt lat="45.01667" lon="5.80815">
        <ele>1235</ele>
        <time>2023-10-01T11:10:49.000Z</time>
      </trkpt>
      <trkpt lat="45.01664" lon="5.80814">
        <ele>1235</ele>
        <time>2023-10-01T11:10:50.000Z</time>
      </trkpt>
      <trkpt lat="45.01662" lon="5.80812">
        <ele>1234.8000488281</ele>
        <time>2023-10-01T11:10:51.000Z</time>
      </trkpt>
      <trkpt lat="45.0166" lon="5.80811">
        <ele>1234.8000488281</ele>
        <time>2023-10-01T11:10:52.000Z</time>
      </trkpt>
      <trkpt lat="45.01659" lon="5.80811">
        <ele>1234.8000488281</ele>
        <time>2023-10-01T11:10:53.000Z</time>
      </trkpt>
      <trkpt lat="45.01656" lon="5.8081">
        <ele>1234.8000488281</ele>
        <time>2023-10-01T11:10:54.000Z</time>
      </trkpt>
      <trkpt lat="45.01655" lon="5.8081">
        <ele>1234.8000488281</ele>
        <time>2023-10-01T11:10:55.000Z</time>
      </trkpt>
      <trkpt lat="45.01654" lon="5.80809">
        <ele>1234.8000488281</ele>
        <time>2023-10-01T11:10:56.000Z</time>
      </trkpt>
      <trkpt lat="45.01653" lon="5.80809">
        <ele>1234.8000488281</ele>
        <time>2023-10-01T11:10:57.000Z</time>
      </trkpt>
      <trkpt lat="45.01651" lon="5.80809">
        <ele>1234.8000488281</ele>
        <time>2023-10-01T11:10:58.000Z</time>
      </trkpt>
      <trkpt lat="45.01649" lon="5.80808">
        <ele>1234.5999755859</ele>
        <time>2023-10-01T11:10:59.000Z</time>
      </trkpt>
      <trkpt lat="45.01648" lon="5.80808">
        <ele>1234.5999755859</ele>
        <time>2023-10-01T11:11:00.000Z</time>
      </trkpt>
      <trkpt lat="45.01646" lon="5.80807">
        <ele>1234.5999755859</ele>
        <time>2023-10-01T11:11:01.000Z</time>
      </trkpt>
      <trkpt lat="45.01644" lon="5.80807">
        <ele>1234.5999755859</ele>
        <time>2023-10-01T11:11:02.000Z</time>
      </trkpt>
      <trkpt lat="45.01642" lon="5.80807">
        <ele>1234.4000244141</ele>
        <time>2023-10-01T11:11:03.000Z</time>
      </trkpt>
      <trkpt lat="45.0164" lon="5.80807">
        <ele>1234.4000244141</ele>
        <time>2023-10-01T11:11:04.000Z</time>
      </trkpt>
      <trkpt lat="45.01638" lon="5.80807">
        <ele>1234.4000244141</ele>
        <time>2023-10-01T11:11:05.000Z</time>
      </trkpt>
      <trkpt lat="45.01636" lon="5.80806">
        <ele>1234.4000244141</ele>
        <time>2023-10-01T11:11:06.000Z</time>
      </trkpt>
      <trkpt lat="45.01634" lon="5.80805">
        <ele>1234.5999755859</ele>
        <time>2023-10-01T11:11:07.000Z</time>
      </trkpt>
      <trkpt lat="45.01632" lon="5.80805">
        <ele>1234.5999755859</ele>
        <time>2023-10-01T11:11:08.000Z</time>
      </trkpt>
      <trkpt lat="45.0163" lon="5.80805">
        <ele>1234.5999755859</ele>
        <time>2023-10-01T11:11:09.000Z</time>
      </trkpt>
      <trkpt lat="45.01627" lon="5.80804">
        <ele>1234.8000488281</ele>
        <time>2023-10-01T11:11:10.000Z</time>
      </trkpt>
      <trkpt lat="45.01626" lon="5.80803">
        <ele>1234.8000488281</ele>
        <time>2023-10-01T11:11:11.000Z</time>
      </trkpt>
      <trkpt lat="45.01624" lon="5.80802">
        <ele>1234.5999755859</ele>
        <time>2023-10-01T11:11:12.000Z</time>
      </trkpt>
      <trkpt lat="45.01622" lon="5.80801">
        <ele>1234.5999755859</ele>
        <time>2023-10-01T11:11:13.000Z</time>
      </trkpt>
      <trkpt lat="45.0162" lon="5.808">
        <ele>1234.5999755859</ele>
        <time>2023-10-01T11:11:14.000Z</time>
      </trkpt>
      <trkpt lat="45.01618" lon="5.80799">
        <ele>1234.5999755859</ele>
        <time>2023-10-01T11:11:15.000Z</time>
      </trkpt>
      <trkpt lat="45.01616" lon="5.80798">
        <ele>1234.4000244141</ele>
        <time>2023-10-01T11:11:16.000Z</time>
      </trkpt>
      <trkpt lat="45.01614" lon="5.80798">
        <ele>1234.4000244141</ele>
        <time>2023-10-01T11:11:17.000Z</time>
      </trkpt>
      <trkpt lat="45.01612" lon="5.80798">
        <ele>1234.1999511719</ele>
        <time>2023-10-01T11:11:18.000Z</time>
      </trkpt>
      <trkpt lat="45.0161" lon="5.80798">
        <ele>1234.1999511719</ele>
        <time>2023-10-01T11:11:19.000Z</time>
      </trkpt>
      <trkpt lat="45.01608" lon="5.80798">
        <ele>1234.1999511719</ele>
        <time>2023-10-01T11:11:20.000Z</time>
      </trkpt>
      <trkpt lat="45.01607" lon="5.80797">
        <ele>1234.1999511719</ele>
        <time>2023-10-01T11:11:21.000Z</time>
      </trkpt>
      <trkpt lat="45.01605" lon="5.80797">
        <ele>1234.1999511719</ele>
        <time>2023-10-01T11:11:22.000Z</time>
      </trkpt>
      <trkpt lat="45.01604" lon="5.80796">
        <ele>1234.1999511719</ele>
        <time>2023-10-01T11:11:23.000Z</time>
      </trkpt>
      <trkpt lat="45.01602" lon="5.80796">
        <ele>1234.1999511719</ele>
        <time>2023-10-01T11:11:24.000Z</time>
      </trkpt>
      <trkpt lat="45.016" lon="5.80795">
        <ele>1234.1999511719</ele>
        <time>2023-10-01T11:11:25.000Z</time>
      </trkpt>
      <trkpt lat="45.01598" lon="5.80796">
        <ele>1234.1999511719</ele>
        <time>2023-10-01T11:11:26.000Z</time>
      </trkpt>
      <trkpt lat="45.01597" lon="5.80796">
        <ele>1234.1999511719</ele>
        <time>2023-10-01T11:11:27.000Z</time>
      </trkpt>
      <trkpt lat="45.01594" lon="5.80796">
        <ele>1234.1999511719</ele>
        <time>2023-10-01T11:11:28.000Z</time>
      </trkpt>
      <trkpt lat="45.01592" lon="5.80795">
        <ele>1234.1999511719</ele>
        <time>2023-10-01T11:11:29.000Z</time>
      </trkpt>
      <trkpt lat="45.0159" lon="5.80795">
        <ele>1234.1999511719</ele>
        <time>2023-10-01T11:11:30.000Z</time>
      </trkpt>
      <trkpt lat="45.01588" lon="5.80795">
        <ele>1234.1999511719</ele>
        <time>2023-10-01T11:11:31.000Z</time>
      </trkpt>
      <trkpt lat="45.01585" lon="5.80794">
        <ele>1234.1999511719</ele>
        <time>2023-10-01T11:11:32.000Z</time>
      </trkpt>
      <trkpt lat="45.01583" lon="5.80794">
        <ele>1234.4000244141</ele>
        <time>2023-10-01T11:11:33.000Z</time>
      </trkpt>
      <trkpt lat="45.01582" lon="5.80793">
        <ele>1234.4000244141</ele>
        <time>2023-10-01T11:11:34.000Z</time>
      </trkpt>
      <trkpt lat="45.0158" lon="5.80792">
        <ele>1234.5999755859</ele>
        <time>2023-10-01T11:11:35.000Z</time>
      </trkpt>
      <trkpt lat="45.01578" lon="5.80792">
        <ele>1234.5999755859</ele>
        <time>2023-10-01T11:11:36.000Z</time>
      </trkpt>
      <trkpt lat="45.01576" lon="5.80791">
        <ele>1234.5999755859</ele>
        <time>2023-10-01T11:11:37.000Z</time>
      </trkpt>
      <trkpt lat="45.01574" lon="5.80791">
        <ele>1234.8000488281</ele>
        <time>2023-10-01T11:11:38.000Z</time>
      </trkpt>
      <trkpt lat="45.01572" lon="5.80791">
        <ele>1234.8000488281</ele>
        <time>2023-10-01T11:11:39.000Z</time>
      </trkpt>
      <trkpt lat="45.01571" lon="5.8079">
        <ele>1234.8000488281</ele>
        <time>2023-10-01T11:11:40.000Z</time>
      </trkpt>
      <trkpt lat="45.01569" lon="5.8079">
        <ele>1234.8000488281</ele>
        <time>2023-10-01T11:11:41.000Z</time>
      </trkpt>
      <trkpt lat="45.01566" lon="5.80789">
        <ele>1234.8000488281</ele>
        <time>2023-10-01T11:11:42.000Z</time>
      </trkpt>
      <trkpt lat="45.01565" lon="5.80789">
        <ele>1234.8000488281</ele>
        <time>2023-10-01T11:11:43.000Z</time>
      </trkpt>
      <trkpt lat="45.01563" lon="5.80789">
        <ele>1234.5999755859</ele>
        <time>2023-10-01T11:11:44.000Z</time>
      </trkpt>
      <trkpt lat="45.0156" lon="5.80788">
        <ele>1234.5999755859</ele>
        <time>2023-10-01T11:11:45.000Z</time>
      </trkpt>
      <trkpt lat="45.01559" lon="5.80787">
        <ele>1234.5999755859</ele>
        <time>2023-10-01T11:11:46.000Z</time>
      </trkpt>
      <trkpt lat="45.01557" lon="5.80787">
        <ele>1234.5999755859</ele>
        <time>2023-10-01T11:11:47.000Z</time>
      </trkpt>
      <trkpt lat="45.01555" lon="5.80787">
        <ele>1234.5999755859</ele>
        <time>2023-10-01T11:11:48.000Z</time>
      </trkpt>
      <trkpt lat="45.01553" lon="5.80787">
        <ele>1234.5999755859</ele>
        <time>2023-10-01T11:11:49.000Z</time>
      </trkpt>
      <trkpt lat="45.01551" lon="5.80787">
        <ele>1234.5999755859</ele>
        <time>2023-10-01T11:11:50.000Z</time>
      </trkpt>
      <trkpt lat="45.01549" lon="5.80786">
        <ele>1234.5999755859</ele>
        <time>2023-10-01T11:11:51.000Z</time>
      </trkpt>
      <trkpt lat="45.01548" lon="5.80786">
        <ele>1234.5999755859</ele>
        <time>2023-10-01T11:11:52.000Z</time>
      </trkpt>
      <trkpt lat="45.01546" lon="5.80785">
        <ele>1234.5999755859</ele>
        <time>2023-10-01T11:11:53.000Z</time>
      </trkpt>
      <trkpt lat="45.01544" lon="5.80784">
        <ele>1234.5999755859</ele>
        <time>2023-10-01T11:11:54.000Z</time>
      </trkpt>
      <trkpt lat="45.01542" lon="5.80783">
        <ele>1234.5999755859</ele>
        <time>2023-10-01T11:11:55.000Z</time>
      </trkpt>
      <trkpt lat="45.0154" lon="5.80783">
        <ele>1234.5999755859</ele>
        <time>2023-10-01T11:11:56.000Z</time>
      </trkpt>
      <trkpt lat="45.01538" lon="5.80783">
        <ele>1234.5999755859</ele>
        <time>2023-10-01T11:11:57.000Z</time>
      </trkpt>
      <trkpt lat="45.01536" lon="5.80782">
        <ele>1234.5999755859</ele>
        <time>2023-10-01T11:11:58.000Z</time>
      </trkpt>
      <trkpt lat="45.01534" lon="5.80782">
        <ele>1234.5999755859</ele>
        <time>2023-10-01T11:11:59.000Z</time>
      </trkpt>
      <trkpt lat="45.01532" lon="5.80782">
        <ele>1234.5999755859</ele>
        <time>2023-10-01T11:12:00.000Z</time>
      </trkpt>
      <trkpt lat="45.0153" lon="5.80782">
        <ele>1234.5999755859</ele>
        <time>2023-10-01T11:12:01.000Z</time>
      </trkpt>
      <trkpt lat="45.01529" lon="5.80782">
        <ele>1234.5999755859</ele>
        <time>2023-10-01T11:12:02.000Z</time>
      </trkpt>
      <trkpt lat="45.01526" lon="5.80782">
        <ele>1234.8000488281</ele>
        <time>2023-10-01T11:12:03.000Z</time>
      </trkpt>
      <trkpt lat="45.01524" lon="5.80782">
        <ele>1234.8000488281</ele>
        <time>2023-10-01T11:12:04.000Z</time>
      </trkpt>
      <trkpt lat="45.01522" lon="5.80781">
        <ele>1234.8000488281</ele>
        <time>2023-10-01T11:12:05.000Z</time>
      </trkpt>
      <trkpt lat="45.0152" lon="5.8078">
        <ele>1234.8000488281</ele>
        <time>2023-10-01T11:12:06.000Z</time>
      </trkpt>
      <trkpt lat="45.01518" lon="5.80779">
        <ele>1234.8000488281</ele>
        <time>2023-10-01T11:12:07.000Z</time>
      </trkpt>
      <trkpt lat="45.01516" lon="5.80778">
        <ele>1234.8000488281</ele>
        <time>2023-10-01T11:12:08.000Z</time>
      </trkpt>
      <trkpt lat="45.01514" lon="5.80778">
        <ele>1234.8000488281</ele>
        <time>2023-10-01T11:12:09.000Z</time>
      </trkpt>
      <trkpt lat="45.01512" lon="5.80777">
        <ele>1234.5999755859</ele>
        <time>2023-10-01T11:12:10.000Z</time>
      </trkpt>
      <trkpt lat="45.01511" lon="5.80777">
        <ele>1234.5999755859</ele>
        <time>2023-10-01T11:12:11.000Z</time>
      </trkpt>
      <trkpt lat="45.01508" lon="5.80778">
        <ele>1234.4000244141</ele>
        <time>2023-10-01T11:12:12.000Z</time>
      </trkpt>
      <trkpt lat="45.01506" lon="5.80778">
        <ele>1234.4000244141</ele>
        <time>2023-10-01T11:12:13.000Z</time>
      </trkpt>
      <trkpt lat="45.01504" lon="5.80777">
        <ele>1234.4000244141</ele>
        <time>2023-10-01T11:12:14.000Z</time>
      </trkpt>
      <trkpt lat="45.01502" lon="5.80777">
        <ele>1234.4000244141</ele>
        <time>2023-10-01T11:12:15.000Z</time>
      </trkpt>
      <trkpt lat="45.015" lon="5.80777">
        <ele>1234.4000244141</ele>
        <time>2023-10-01T11:12:16.000Z</time>
      </trkpt>
      <trkpt lat="45.01499" lon="5.80777">
        <ele>1234.4000244141</ele>
        <time>2023-10-01T11:12:17.000Z</time>
      </trkpt>
      <trkpt lat="45.01496" lon="5.80777">
        <ele>1234.4000244141</ele>
        <time>2023-10-01T11:12:18.000Z</time>
      </trkpt>
      <trkpt lat="45.01494" lon="5.80776">
        <ele>1234.5999755859</ele>
        <time>2023-10-01T11:12:19.000Z</time>
      </trkpt>
      <trkpt lat="45.01493" lon="5.80775">
        <ele>1234.5999755859</ele>
        <time>2023-10-01T11:12:20.000Z</time>
      </trkpt>
      <trkpt lat="45.01491" lon="5.80774">
        <ele>1234.5999755859</ele>
        <time>2023-10-01T11:12:21.000Z</time>
      </trkpt>
      <trkpt lat="45.01489" lon="5.80773">
        <ele>1234.4000244141</ele>
        <time>2023-10-01T11:12:22.000Z</time>
      </trkpt>
      <trkpt lat="45.01487" lon="5.80773">
        <ele>1234.1999511719</ele>
        <time>2023-10-01T11:12:23.000Z</time>
      </trkpt>
      <trkpt lat="45.01485" lon="5.80772">
        <ele>1234.1999511719</ele>
        <time>2023-10-01T11:12:24.000Z</time>
      </trkpt>
      <trkpt lat="45.01483" lon="5.80772">
        <ele>1234.1999511719</ele>
        <time>2023-10-01T11:12:25.000Z</time>
      </trkpt>
      <trkpt lat="45.01481" lon="5.80771">
        <ele>1234.1999511719</ele>
        <time>2023-10-01T11:12:26.000Z</time>
      </trkpt>
      <trkpt lat="45.0148" lon="5.80771">
        <ele>1234.1999511719</ele>
        <time>2023-10-01T11:12:27.000Z</time>
      </trkpt>
      <trkpt lat="45.01479" lon="5.80771">
        <ele>1234.1999511719</ele>
        <time>2023-10-01T11:12:28.000Z</time>
      </trkpt>
      <trkpt lat="45.01479" lon="5.80771">
        <ele>1234.1999511719</ele>
        <time>2023-10-01T11:12:29.000Z</time>
      </trkpt>
      <trkpt lat="45.01479" lon="5.80772">
        <ele>1234.1999511719</ele>
        <time>2023-10-01T11:12:30.000Z</time>
      </trkpt>
      <trkpt lat="45.01479" lon="5.80771">
        <ele>1234</ele>
        <time>2023-10-01T11:12:31.000Z</time>
      </trkpt>
      <trkpt lat="45.01479" lon="5.80771">
        <ele>1234</ele>
        <time>2023-10-01T11:12:32.000Z</time>
      </trkpt>
      <trkpt lat="45.01479" lon="5.80771">
        <ele>1234</ele>
        <time>2023-10-01T11:12:33.000Z</time>
      </trkpt>
      <trkpt lat="45.01478" lon="5.80771">
        <ele>1233.8000488281</ele>
        <time>2023-10-01T11:12:34.000Z</time>
      </trkpt>
      <trkpt lat="45.01477" lon="5.8077">
        <ele>1233.8000488281</ele>
        <time>2023-10-01T11:12:35.000Z</time>
      </trkpt>
      <trkpt lat="45.01477" lon="5.8077">
        <ele>1233.8000488281</ele>
        <time>2023-10-01T11:12:36.000Z</time>
      </trkpt>
      <trkpt lat="45.01477" lon="5.8077">
        <ele>1233.8000488281</ele>
        <time>2023-10-01T11:12:37.000Z</time>
      </trkpt>
      <trkpt lat="45.01477" lon="5.80769">
        <ele>1233.8000488281</ele>
        <time>2023-10-01T11:12:38.000Z</time>
      </trkpt>
      <trkpt lat="45.01477" lon="5.8077">
        <ele>1233.8000488281</ele>
        <time>2023-10-01T11:12:39.000Z</time>
      </trkpt>
      <trkpt lat="45.01478" lon="5.8077">
        <ele>1233.8000488281</ele>
        <time>2023-10-01T11:12:40.000Z</time>
      </trkpt>
      <trkpt lat="45.01478" lon="5.8077">
        <ele>1233.5999755859</ele>
        <time>2023-10-01T11:12:41.000Z</time>
      </trkpt>
      <trkpt lat="45.01479" lon="5.8077">
        <ele>1233.5999755859</ele>
        <time>2023-10-01T11:12:42.000Z</time>
      </trkpt>
      <trkpt lat="45.0148" lon="5.8077">
        <ele>1233.5999755859</ele>
        <time>2023-10-01T11:12:43.000Z</time>
      </trkpt>
      <trkpt lat="45.0148" lon="5.80771">
        <ele>1233.5999755859</ele>
        <time>2023-10-01T11:12:44.000Z</time>
      </trkpt>
      <trkpt lat="45.0148" lon="5.80771">
        <ele>1233.5999755859</ele>
        <time>2023-10-01T11:12:45.000Z</time>
      </trkpt>
      <trkpt lat="45.01481" lon="5.80771">
        <ele>1233.5999755859</ele>
        <time>2023-10-01T11:12:46.000Z</time>
      </trkpt>
      <trkpt lat="45.01482" lon="5.80771">
        <ele>1233.5999755859</ele>
        <time>2023-10-01T11:12:47.000Z</time>
      </trkpt>
      <trkpt lat="45.01482" lon="5.80771">
        <ele>1233.5999755859</ele>
        <time>2023-10-01T11:12:48.000Z</time>
      </trkpt>
      <trkpt lat="45.01482" lon="5.80772">
        <ele>1233.5999755859</ele>
        <time>2023-10-01T11:12:49.000Z</time>
      </trkpt>
      <trkpt lat="45.01482" lon="5.80772">
        <ele>1233.5999755859</ele>
        <time>2023-10-01T11:12:50.000Z</time>
      </trkpt>
      <trkpt lat="45.01481" lon="5.80772">
        <ele>1233.5999755859</ele>
        <time>2023-10-01T11:12:51.000Z</time>
      </trkpt>
      <trkpt lat="45.01481" lon="5.80771">
        <ele>1233.5999755859</ele>
        <time>2023-10-01T11:12:52.000Z</time>
      </trkpt>
      <trkpt lat="45.01479" lon="5.80771">
        <ele>1233.5999755859</ele>
        <time>2023-10-01T11:12:53.000Z</time>
      </trkpt>
      <trkpt lat="45.01477" lon="5.8077">
        <ele>1233.5999755859</ele>
        <time>2023-10-01T11:12:54.000Z</time>
      </trkpt>
      <trkpt lat="45.01476" lon="5.80769">
        <ele>1233.5999755859</ele>
        <time>2023-10-01T11:12:55.000Z</time>
      </trkpt>
      <trkpt lat="45.01474" lon="5.80769">
        <ele>1233.5999755859</ele>
        <time>2023-10-01T11:12:56.000Z</time>
      </trkpt>
      <trkpt lat="45.01472" lon="5.80769">
        <ele>1233.5999755859</ele>
        <time>2023-10-01T11:12:57.000Z</time>
      </trkpt>
      <trkpt lat="45.0147" lon="5.80769">
        <ele>1233.8000488281</ele>
        <time>2023-10-01T11:12:58.000Z</time>
      </trkpt>
      <trkpt lat="45.01468" lon="5.80768">
        <ele>1233.8000488281</ele>
        <time>2023-10-01T11:12:59.000Z</time>
      </trkpt>
      <trkpt lat="45.01466" lon="5.80768">
        <ele>1233.5999755859</ele>
        <time>2023-10-01T11:13:00.000Z</time>
      </trkpt>
      <trkpt lat="45.01464" lon="5.80767">
        <ele>1233.5999755859</ele>
        <time>2023-10-01T11:13:01.000Z</time>
      </trkpt>
      <trkpt lat="45.01461" lon="5.80767">
        <ele>1233.5999755859</ele>
        <time>2023-10-01T11:13:02.000Z</time>
      </trkpt>
      <trkpt lat="45.0146" lon="5.80767">
        <ele>1233.5999755859</ele>
        <time>2023-10-01T11:13:03.000Z</time>
      </trkpt>
      <trkpt lat="45.01458" lon="5.80766">
        <ele>1233.5999755859</ele>
        <time>2023-10-01T11:13:04.000Z</time>
      </trkpt>
      <trkpt lat="45.01456" lon="5.80765">
        <ele>1233.8000488281</ele>
        <time>2023-10-01T11:13:05.000Z</time>
      </trkpt>
      <trkpt lat="45.01454" lon="5.80765">
        <ele>1233.8000488281</ele>
        <time>2023-10-01T11:13:06.000Z</time>
      </trkpt>
      <trkpt lat="45.01452" lon="5.80764">
        <ele>1233.8000488281</ele>
        <time>2023-10-01T11:13:07.000Z</time>
      </trkpt>
      <trkpt lat="45.0145" lon="5.80764">
        <ele>1233.8000488281</ele>
        <time>2023-10-01T11:13:08.000Z</time>
      </trkpt>
      <trkpt lat="45.01448" lon="5.80763">
        <ele>1233.8000488281</ele>
        <time>2023-10-01T11:13:09.000Z</time>
      </trkpt>
      <trkpt lat="45.01445" lon="5.80763">
        <ele>1233.8000488281</ele>
        <time>2023-10-01T11:13:10.000Z</time>
      </trkpt>
      <trkpt lat="45.01443" lon="5.80762">
        <ele>1233.8000488281</ele>
        <time>2023-10-01T11:13:11.000Z</time>
      </trkpt>
      <trkpt lat="45.01441" lon="5.80762">
        <ele>1233.8000488281</ele>
        <time>2023-10-01T11:13:12.000Z</time>
      </trkpt>
      <trkpt lat="45.01439" lon="5.8076">
        <ele>1233.8000488281</ele>
        <time>2023-10-01T11:13:13.000Z</time>
      </trkpt>
      <trkpt lat="45.01436" lon="5.8076">
        <ele>1233.8000488281</ele>
        <time>2023-10-01T11:13:14.000Z</time>
      </trkpt>
      <trkpt lat="45.01435" lon="5.80759">
        <ele>1233.8000488281</ele>
        <time>2023-10-01T11:13:15.000Z</time>
      </trkpt>
      <trkpt lat="45.01432" lon="5.80758">
        <ele>1233.5999755859</ele>
        <time>2023-10-01T11:13:16.000Z</time>
      </trkpt>
      <trkpt lat="45.01431" lon="5.80758">
        <ele>1233.5999755859</ele>
        <time>2023-10-01T11:13:17.000Z</time>
      </trkpt>
      <trkpt lat="45.01428" lon="5.80758">
        <ele>1233.5999755859</ele>
        <time>2023-10-01T11:13:18.000Z</time>
      </trkpt>
      <trkpt lat="45.01426" lon="5.80758">
        <ele>1233.8000488281</ele>
        <time>2023-10-01T11:13:19.000Z</time>
      </trkpt>
      <trkpt lat="45.01424" lon="5.80758">
        <ele>1233.8000488281</ele>
        <time>2023-10-01T11:13:20.000Z</time>
      </trkpt>
      <trkpt lat="45.01422" lon="5.80757">
        <ele>1233.8000488281</ele>
        <time>2023-10-01T11:13:21.000Z</time>
      </trkpt>
      <trkpt lat="45.01421" lon="5.80757">
        <ele>1233.8000488281</ele>
        <time>2023-10-01T11:13:22.000Z</time>
      </trkpt>
      <trkpt lat="45.01419" lon="5.80757">
        <ele>1233.8000488281</ele>
        <time>2023-10-01T11:13:23.000Z</time>
      </trkpt>
      <trkpt lat="45.01416" lon="5.80756">
        <ele>1233.8000488281</ele>
        <time>2023-10-01T11:13:24.000Z</time>
      </trkpt>
      <trkpt lat="45.01414" lon="5.80756">
        <ele>1233.8000488281</ele>
        <time>2023-10-01T11:13:25.000Z</time>
      </trkpt>
      <trkpt lat="45.01412" lon="5.80756">
        <ele>1233.8000488281</ele>
        <time>2023-10-01T11:13:26.000Z</time>
      </trkpt>
      <trkpt lat="45.0141" lon="5.80755">
        <ele>1233.8000488281</ele>
        <time>2023-10-01T11:13:27.000Z</time>
      </trkpt>
      <trkpt lat="45.01408" lon="5.80755">
        <ele>1233.8000488281</ele>
        <time>2023-10-01T11:13:28.000Z</time>
      </trkpt>
      <trkpt lat="45.01406" lon="5.80754">
        <ele>1234</ele>
        <time>2023-10-01T11:13:29.000Z</time>
      </trkpt>
      <trkpt lat="45.01404" lon="5.80754">
        <ele>1234</ele>
        <time>2023-10-01T11:13:30.000Z</time>
      </trkpt>
      <trkpt lat="45.01402" lon="5.80754">
        <ele>1234</ele>
        <time>2023-10-01T11:13:31.000Z</time>
      </trkpt>
      <trkpt lat="45.01399" lon="5.80754">
        <ele>1234</ele>
        <time>2023-10-01T11:13:32.000Z</time>
      </trkpt>
      <trkpt lat="45.01397" lon="5.80754">
        <ele>1234</ele>
        <time>2023-10-01T11:13:33.000Z</time>
      </trkpt>
      <trkpt lat="45.01394" lon="5.80753">
        <ele>1234</ele>
        <time>2023-10-01T11:13:34.000Z</time>
      </trkpt>
      <trkpt lat="45.01392" lon="5.80753">
        <ele>1234</ele>
        <time>2023-10-01T11:13:35.000Z</time>
      </trkpt>
      <trkpt lat="45.0139" lon="5.80753">
        <ele>1234.1999511719</ele>
        <time>2023-10-01T11:13:36.000Z</time>
      </trkpt>
      <trkpt lat="45.01388" lon="5.80752">
        <ele>1234.1999511719</ele>
        <time>2023-10-01T11:13:37.000Z</time>
      </trkpt>
      <trkpt lat="45.01386" lon="5.80751">
        <ele>1234.1999511719</ele>
        <time>2023-10-01T11:13:38.000Z</time>
      </trkpt>
      <trkpt lat="45.01384" lon="5.80751">
        <ele>1234.1999511719</ele>
        <time>2023-10-01T11:13:39.000Z</time>
      </trkpt>
      <trkpt lat="45.01381" lon="5.8075">
        <ele>1234.1999511719</ele>
        <time>2023-10-01T11:13:40.000Z</time>
      </trkpt>
      <trkpt lat="45.01379" lon="5.80749">
        <ele>1234.1999511719</ele>
        <time>2023-10-01T11:13:41.000Z</time>
      </trkpt>
      <trkpt lat="45.01377" lon="5.80749">
        <ele>1234.1999511719</ele>
        <time>2023-10-01T11:13:42.000Z</time>
      </trkpt>
      <trkpt lat="45.01375" lon="5.80748">
        <ele>1234</ele>
        <time>2023-10-01T11:13:43.000Z</time>
      </trkpt>
      <trkpt lat="45.01373" lon="5.80748">
        <ele>1234</ele>
        <time>2023-10-01T11:13:44.000Z</time>
      </trkpt>
      <trkpt lat="45.01371" lon="5.80748">
        <ele>1233.8000488281</ele>
        <time>2023-10-01T11:13:45.000Z</time>
      </trkpt>
      <trkpt lat="45.01369" lon="5.80747">
        <ele>1233.8000488281</ele>
        <time>2023-10-01T11:13:46.000Z</time>
      </trkpt>
      <trkpt lat="45.01367" lon="5.80746">
        <ele>1233.5999755859</ele>
        <time>2023-10-01T11:13:47.000Z</time>
      </trkpt>
      <trkpt lat="45.01365" lon="5.80746">
        <ele>1233.5999755859</ele>
        <time>2023-10-01T11:13:48.000Z</time>
      </trkpt>
      <trkpt lat="45.01363" lon="5.80745">
        <ele>1233.8000488281</ele>
        <time>2023-10-01T11:13:49.000Z</time>
      </trkpt>
      <trkpt lat="45.01361" lon="5.80745">
        <ele>1233.8000488281</ele>
        <time>2023-10-01T11:13:50.000Z</time>
      </trkpt>
      <trkpt lat="45.01358" lon="5.80744">
        <ele>1233.8000488281</ele>
        <time>2023-10-01T11:13:51.000Z</time>
      </trkpt>
      <trkpt lat="45.01356" lon="5.80744">
        <ele>1233.8000488281</ele>
        <time>2023-10-01T11:13:52.000Z</time>
      </trkpt>
      <trkpt lat="45.01354" lon="5.80743">
        <ele>1233.8000488281</ele>
        <time>2023-10-01T11:13:53.000Z</time>
      </trkpt>
      <trkpt lat="45.01351" lon="5.80743">
        <ele>1233.8000488281</ele>
        <time>2023-10-01T11:13:54.000Z</time>
      </trkpt>
      <trkpt lat="45.01349" lon="5.80742">
        <ele>1233.8000488281</ele>
        <time>2023-10-01T11:13:55.000Z</time>
      </trkpt>
      <trkpt lat="45.01347" lon="5.80742">
        <ele>1233.8000488281</ele>
        <time>2023-10-01T11:13:56.000Z</time>
      </trkpt>
      <trkpt lat="45.01345" lon="5.80742">
        <ele>1233.8000488281</ele>
        <time>2023-10-01T11:13:57.000Z</time>
      </trkpt>
      <trkpt lat="45.01343" lon="5.80742">
        <ele>1233.8000488281</ele>
        <time>2023-10-01T11:13:58.000Z</time>
      </trkpt>
      <trkpt lat="45.0134" lon="5.80742">
        <ele>1233.8000488281</ele>
        <time>2023-10-01T11:13:59.000Z</time>
      </trkpt>
      <trkpt lat="45.01339" lon="5.80741">
        <ele>1233.8000488281</ele>
        <time>2023-10-01T11:14:00.000Z</time>
      </trkpt>
      <trkpt lat="45.01336" lon="5.80741">
        <ele>1233.8000488281</ele>
        <time>2023-10-01T11:14:01.000Z</time>
      </trkpt>
      <trkpt lat="45.01334" lon="5.80741">
        <ele>1233.5999755859</ele>
        <time>2023-10-01T11:14:02.000Z</time>
      </trkpt>
      <trkpt lat="45.01332" lon="5.8074">
        <ele>1233.8000488281</ele>
        <time>2023-10-01T11:14:03.000Z</time>
      </trkpt>
      <trkpt lat="45.0133" lon="5.8074">
        <ele>1234</ele>
        <time>2023-10-01T11:14:04.000Z</time>
      </trkpt>
      <trkpt lat="45.01328" lon="5.80739">
        <ele>1234</ele>
        <time>2023-10-01T11:14:05.000Z</time>
      </trkpt>
      <trkpt lat="45.01326" lon="5.80739">
        <ele>1234</ele>
        <time>2023-10-01T11:14:06.000Z</time>
      </trkpt>
      <trkpt lat="45.01323" lon="5.80739">
        <ele>1234</ele>
        <time>2023-10-01T11:14:07.000Z</time>
      </trkpt>
      <trkpt lat="45.01321" lon="5.80739">
        <ele>1234</ele>
        <time>2023-10-01T11:14:08.000Z</time>
      </trkpt>
      <trkpt lat="45.01319" lon="5.80738">
        <ele>1234</ele>
        <time>2023-10-01T11:14:09.000Z</time>
      </trkpt>
      <trkpt lat="45.01316" lon="5.80738">
        <ele>1234.1999511719</ele>
        <time>2023-10-01T11:14:10.000Z</time>
      </trkpt>
      <trkpt lat="45.01315" lon="5.80737">
        <ele>1234.1999511719</ele>
        <time>2023-10-01T11:14:11.000Z</time>
      </trkpt>
      <trkpt lat="45.01312" lon="5.80737">
        <ele>1234.1999511719</ele>
        <time>2023-10-01T11:14:12.000Z</time>
      </trkpt>
      <trkpt lat="45.0131" lon="5.80736">
        <ele>1234.1999511719</ele>
        <time>2023-10-01T11:14:13.000Z</time>
      </trkpt>
      <trkpt lat="45.01308" lon="5.80735">
        <ele>1234.1999511719</ele>
        <time>2023-10-01T11:14:14.000Z</time>
      </trkpt>
      <trkpt lat="45.01306" lon="5.80735">
        <ele>1234.1999511719</ele>
        <time>2023-10-01T11:14:15.000Z</time>
      </trkpt>
      <trkpt lat="45.01304" lon="5.80734">
        <ele>1234.1999511719</ele>
        <time>2023-10-01T11:14:16.000Z</time>
      </trkpt>
      <trkpt lat="45.01302" lon="5.80733">
        <ele>1234</ele>
        <time>2023-10-01T11:14:17.000Z</time>
      </trkpt>
      <trkpt lat="45.01299" lon="5.80732">
        <ele>1233.8000488281</ele>
        <time>2023-10-01T11:14:18.000Z</time>
      </trkpt>
      <trkpt lat="45.01297" lon="5.80731">
        <ele>1233.4000244141</ele>
        <time>2023-10-01T11:14:19.000Z</time>
      </trkpt>
      <trkpt lat="45.01295" lon="5.80731">
        <ele>1233.1999511719</ele>
        <time>2023-10-01T11:14:20.000Z</time>
      </trkpt>
      <trkpt lat="45.01293" lon="5.80731">
        <ele>1233.1999511719</ele>
        <time>2023-10-01T11:14:21.000Z</time>
      </trkpt>
      <trkpt lat="45.01291" lon="5.8073">
        <ele>1233.1999511719</ele>
        <time>2023-10-01T11:14:22.000Z</time>
      </trkpt>
      <trkpt lat="45.01289" lon="5.80731">
        <ele>1233</ele>
        <time>2023-10-01T11:14:23.000Z</time>
      </trkpt>
      <trkpt lat="45.01286" lon="5.8073">
        <ele>1233</ele>
        <time>2023-10-01T11:14:24.000Z</time>
      </trkpt>
      <trkpt lat="45.01284" lon="5.8073">
        <ele>1233</ele>
        <time>2023-10-01T11:14:25.000Z</time>
      </trkpt>
      <trkpt lat="45.01282" lon="5.80729">
        <ele>1232.8000488281</ele>
        <time>2023-10-01T11:14:26.000Z</time>
      </trkpt>
      <trkpt lat="45.0128" lon="5.80728">
        <ele>1232.5999755859</ele>
        <time>2023-10-01T11:14:27.000Z</time>
      </trkpt>
      <trkpt lat="45.01278" lon="5.80727">
        <ele>1232.4000244141</ele>
        <time>2023-10-01T11:14:28.000Z</time>
      </trkpt>
      <trkpt lat="45.01275" lon="5.80726">
        <ele>1232.4000244141</ele>
        <time>2023-10-01T11:14:29.000Z</time>
      </trkpt>
      <trkpt lat="45.01273" lon="5.80726">
        <ele>1232.1999511719</ele>
        <time>2023-10-01T11:14:30.000Z</time>
      </trkpt>
      <trkpt lat="45.0127" lon="5.80725">
        <ele>1232.1999511719</ele>
        <time>2023-10-01T11:14:31.000Z</time>
      </trkpt>
      <trkpt lat="45.01268" lon="5.80725">
        <ele>1232.1999511719</ele>
        <time>2023-10-01T11:14:32.000Z</time>
      </trkpt>
      <trkpt lat="45.01266" lon="5.80725">
        <ele>1232</ele>
        <time>2023-10-01T11:14:33.000Z</time>
      </trkpt>
      <trkpt lat="45.01263" lon="5.80724">
        <ele>1232</ele>
        <time>2023-10-01T11:14:34.000Z</time>
      </trkpt>
      <trkpt lat="45.01261" lon="5.80723">
        <ele>1231.8000488281</ele>
        <time>2023-10-01T11:14:35.000Z</time>
      </trkpt>
      <trkpt lat="45.01259" lon="5.80722">
        <ele>1231.8000488281</ele>
        <time>2023-10-01T11:14:36.000Z</time>
      </trkpt>
      <trkpt lat="45.01257" lon="5.80722">
        <ele>1231.8000488281</ele>
        <time>2023-10-01T11:14:37.000Z</time>
      </trkpt>
      <trkpt lat="45.01255" lon="5.80722">
        <ele>1231.8000488281</ele>
        <time>2023-10-01T11:14:38.000Z</time>
      </trkpt>
      <trkpt lat="45.01252" lon="5.80721">
        <ele>1231.5999755859</ele>
        <time>2023-10-01T11:14:39.000Z</time>
      </trkpt>
      <trkpt lat="45.0125" lon="5.80721">
        <ele>1231.5999755859</ele>
        <time>2023-10-01T11:14:40.000Z</time>
      </trkpt>
      <trkpt lat="45.01248" lon="5.80721">
        <ele>1231.4000244141</ele>
        <time>2023-10-01T11:14:41.000Z</time>
      </trkpt>
      <trkpt lat="45.01246" lon="5.8072">
        <ele>1231.4000244141</ele>
        <time>2023-10-01T11:14:42.000Z</time>
      </trkpt>
      <trkpt lat="45.01243" lon="5.8072">
        <ele>1231.4000244141</ele>
        <time>2023-10-01T11:14:43.000Z</time>
      </trkpt>
      <trkpt lat="45.01241" lon="5.80719">
        <ele>1231.1999511719</ele>
        <time>2023-10-01T11:14:44.000Z</time>
      </trkpt>
      <trkpt lat="45.01239" lon="5.80718">
        <ele>1231.1999511719</ele>
        <time>2023-10-01T11:14:45.000Z</time>
      </trkpt>
      <trkpt lat="45.01237" lon="5.80718">
        <ele>1231.1999511719</ele>
        <time>2023-10-01T11:14:46.000Z</time>
      </trkpt>
      <trkpt lat="45.01235" lon="5.80717">
        <ele>1231.1999511719</ele>
        <time>2023-10-01T11:14:47.000Z</time>
      </trkpt>
      <trkpt lat="45.01233" lon="5.80717">
        <ele>1231.1999511719</ele>
        <time>2023-10-01T11:14:48.000Z</time>
      </trkpt>
      <trkpt lat="45.0123" lon="5.80716">
        <ele>1231.1999511719</ele>
        <time>2023-10-01T11:14:49.000Z</time>
      </trkpt>
      <trkpt lat="45.01228" lon="5.80716">
        <ele>1231.1999511719</ele>
        <time>2023-10-01T11:14:50.000Z</time>
      </trkpt>
      <trkpt lat="45.01226" lon="5.80716">
        <ele>1231.1999511719</ele>
        <time>2023-10-01T11:14:51.000Z</time>
      </trkpt>
      <trkpt lat="45.01223" lon="5.80716">
        <ele>1231.1999511719</ele>
        <time>2023-10-01T11:14:52.000Z</time>
      </trkpt>
      <trkpt lat="45.01221" lon="5.80716">
        <ele>1231.4000244141</ele>
        <time>2023-10-01T11:14:53.000Z</time>
      </trkpt>
      <trkpt lat="45.01219" lon="5.80716">
        <ele>1231.5999755859</ele>
        <time>2023-10-01T11:14:54.000Z</time>
      </trkpt>
      <trkpt lat="45.01217" lon="5.80715">
        <ele>1231.5999755859</ele>
        <time>2023-10-01T11:14:55.000Z</time>
      </trkpt>
      <trkpt lat="45.01215" lon="5.80715">
        <ele>1231.5999755859</ele>
        <time>2023-10-01T11:14:56.000Z</time>
      </trkpt>
      <trkpt lat="45.01212" lon="5.80715">
        <ele>1231.5999755859</ele>
        <time>2023-10-01T11:14:57.000Z</time>
      </trkpt>
      <trkpt lat="45.0121" lon="5.80715">
        <ele>1231.8000488281</ele>
        <time>2023-10-01T11:14:58.000Z</time>
      </trkpt>
      <trkpt lat="45.01208" lon="5.80715">
        <ele>1231.8000488281</ele>
        <time>2023-10-01T11:14:59.000Z</time>
      </trkpt>
      <trkpt lat="45.01205" lon="5.80715">
        <ele>1231.8000488281</ele>
        <time>2023-10-01T11:15:00.000Z</time>
      </trkpt>
      <trkpt lat="45.01203" lon="5.80715">
        <ele>1231.8000488281</ele>
        <time>2023-10-01T11:15:01.000Z</time>
      </trkpt>
      <trkpt lat="45.01201" lon="5.80715">
        <ele>1231.8000488281</ele>
        <time>2023-10-01T11:15:02.000Z</time>
      </trkpt>
      <trkpt lat="45.01198" lon="5.80714">
        <ele>1231.8000488281</ele>
        <time>2023-10-01T11:15:03.000Z</time>
      </trkpt>
      <trkpt lat="45.01196" lon="5.80714">
        <ele>1232</ele>
        <time>2023-10-01T11:15:04.000Z</time>
      </trkpt>
      <trkpt lat="45.01193" lon="5.80713">
        <ele>1232</ele>
        <time>2023-10-01T11:15:05.000Z</time>
      </trkpt>
      <trkpt lat="45.01191" lon="5.80713">
        <ele>1232</ele>
        <time>2023-10-01T11:15:06.000Z</time>
      </trkpt>
      <trkpt lat="45.01188" lon="5.80712">
        <ele>1232</ele>
        <time>2023-10-01T11:15:07.000Z</time>
      </trkpt>
      <trkpt lat="45.01186" lon="5.80711">
        <ele>1232</ele>
        <time>2023-10-01T11:15:08.000Z</time>
      </trkpt>
      <trkpt lat="45.01184" lon="5.8071">
        <ele>1231.8000488281</ele>
        <time>2023-10-01T11:15:09.000Z</time>
      </trkpt>
      <trkpt lat="45.01181" lon="5.80708">
        <ele>1231.8000488281</ele>
        <time>2023-10-01T11:15:10.000Z</time>
      </trkpt>
      <trkpt lat="45.01179" lon="5.80707">
        <ele>1231.8000488281</ele>
        <time>2023-10-01T11:15:11.000Z</time>
      </trkpt>
      <trkpt lat="45.01177" lon="5.80706">
        <ele>1231.5999755859</ele>
        <time>2023-10-01T11:15:12.000Z</time>
      </trkpt>
      <trkpt lat="45.01175" lon="5.80705">
        <ele>1231.4000244141</ele>
        <time>2023-10-01T11:15:13.000Z</time>
      </trkpt>
      <trkpt lat="45.01173" lon="5.80704">
        <ele>1231.4000244141</ele>
        <time>2023-10-01T11:15:14.000Z</time>
      </trkpt>
      <trkpt lat="45.0117" lon="5.80704">
        <ele>1231.1999511719</ele>
        <time>2023-10-01T11:15:15.000Z</time>
      </trkpt>
      <trkpt lat="45.01168" lon="5.80703">
        <ele>1231.1999511719</ele>
        <time>2023-10-01T11:15:16.000Z</time>
      </trkpt>
      <trkpt lat="45.01166" lon="5.80702">
        <ele>1231.1999511719</ele>
        <time>2023-10-01T11:15:17.000Z</time>
      </trkpt>
      <trkpt lat="45.01163" lon="5.80702">
        <ele>1231</ele>
        <time>2023-10-01T11:15:18.000Z</time>
      </trkpt>
      <trkpt lat="45.01161" lon="5.80701">
        <ele>1231</ele>
        <time>2023-10-01T11:15:19.000Z</time>
      </trkpt>
      <trkpt lat="45.01158" lon="5.80701">
        <ele>1231</ele>
        <time>2023-10-01T11:15:20.000Z</time>
      </trkpt>
      <trkpt lat="45.01156" lon="5.80701">
        <ele>1230.8000488281</ele>
        <time>2023-10-01T11:15:21.000Z</time>
      </trkpt>
      <trkpt lat="45.01153" lon="5.80701">
        <ele>1230.8000488281</ele>
        <time>2023-10-01T11:15:22.000Z</time>
      </trkpt>
      <trkpt lat="45.01151" lon="5.80701">
        <ele>1230.8000488281</ele>
        <time>2023-10-01T11:15:23.000Z</time>
      </trkpt>
      <trkpt lat="45.01149" lon="5.80702">
        <ele>1230.8000488281</ele>
        <time>2023-10-01T11:15:24.000Z</time>
      </trkpt>
      <trkpt lat="45.01147" lon="5.80701">
        <ele>1230.8000488281</ele>
        <time>2023-10-01T11:15:25.000Z</time>
      </trkpt>
      <trkpt lat="45.01145" lon="5.80701">
        <ele>1230.8000488281</ele>
        <time>2023-10-01T11:15:26.000Z</time>
      </trkpt>
      <trkpt lat="45.01143" lon="5.80701">
        <ele>1230.8000488281</ele>
        <time>2023-10-01T11:15:27.000Z</time>
      </trkpt>
      <trkpt lat="45.01141" lon="5.807">
        <ele>1231</ele>
        <time>2023-10-01T11:15:28.000Z</time>
      </trkpt>
      <trkpt lat="45.01139" lon="5.807">
        <ele>1230.8000488281</ele>
        <time>2023-10-01T11:15:29.000Z</time>
      </trkpt>
      <trkpt lat="45.01136" lon="5.807">
        <ele>1231</ele>
        <time>2023-10-01T11:15:30.000Z</time>
      </trkpt>
      <trkpt lat="45.01134" lon="5.807">
        <ele>1231</ele>
        <time>2023-10-01T11:15:31.000Z</time>
      </trkpt>
      <trkpt lat="45.01131" lon="5.80699">
        <ele>1231</ele>
        <time>2023-10-01T11:15:32.000Z</time>
      </trkpt>
      <trkpt lat="45.0113" lon="5.80698">
        <ele>1231.1999511719</ele>
        <time>2023-10-01T11:15:33.000Z</time>
      </trkpt>
      <trkpt lat="45.01128" lon="5.80698">
        <ele>1231.4000244141</ele>
        <time>2023-10-01T11:15:34.000Z</time>
      </trkpt>
      <trkpt lat="45.01125" lon="5.80697">
        <ele>1231.4000244141</ele>
        <time>2023-10-01T11:15:35.000Z</time>
      </trkpt>
      <trkpt lat="45.01123" lon="5.80696">
        <ele>1231.5999755859</ele>
        <time>2023-10-01T11:15:36.000Z</time>
      </trkpt>
      <trkpt lat="45.01121" lon="5.80696">
        <ele>1231.5999755859</ele>
        <time>2023-10-01T11:15:37.000Z</time>
      </trkpt>
      <trkpt lat="45.0112" lon="5.80696">
        <ele>1231.8000488281</ele>
        <time>2023-10-01T11:15:38.000Z</time>
      </trkpt>
      <trkpt lat="45.01119" lon="5.80696">
        <ele>1232</ele>
        <time>2023-10-01T11:15:39.000Z</time>
      </trkpt>
      <trkpt lat="45.01119" lon="5.80696">
        <ele>1232</ele>
        <time>2023-10-01T11:15:40.000Z</time>
      </trkpt>
      <trkpt lat="45.01119" lon="5.80696">
        <ele>1232</ele>
        <time>2023-10-01T11:15:41.000Z</time>
      </trkpt>
      <trkpt lat="45.01119" lon="5.80696">
        <ele>1232</ele>
        <time>2023-10-01T11:15:42.000Z</time>
      </trkpt>
      <trkpt lat="45.0112" lon="5.80696">
        <ele>1231.8000488281</ele>
        <time>2023-10-01T11:15:43.000Z</time>
      </trkpt>
      <trkpt lat="45.01119" lon="5.80697">
        <ele>1231.8000488281</ele>
        <time>2023-10-01T11:15:44.000Z</time>
      </trkpt>
      <trkpt lat="45.01118" lon="5.80697">
        <ele>1231.5999755859</ele>
        <time>2023-10-01T11:15:45.000Z</time>
      </trkpt>
      <trkpt lat="45.01116" lon="5.80697">
        <ele>1231.5999755859</ele>
        <time>2023-10-01T11:15:46.000Z</time>
      </trkpt>
      <trkpt lat="45.01114" lon="5.80697">
        <ele>1231.5999755859</ele>
        <time>2023-10-01T11:15:47.000Z</time>
      </trkpt>
      <trkpt lat="45.01113" lon="5.80698">
        <ele>1231.5999755859</ele>
        <time>2023-10-01T11:15:48.000Z</time>
      </trkpt>
      <trkpt lat="45.0111" lon="5.80699">
        <ele>1231.5999755859</ele>
        <time>2023-10-01T11:15:49.000Z</time>
      </trkpt>
      <trkpt lat="45.01108" lon="5.80699">
        <ele>1231.8000488281</ele>
        <time>2023-10-01T11:15:50.000Z</time>
      </trkpt>
      <trkpt lat="45.01106" lon="5.80699">
        <ele>1232</ele>
        <time>2023-10-01T11:15:51.000Z</time>
      </trkpt>
      <trkpt lat="45.01104" lon="5.80699">
        <ele>1232</ele>
        <time>2023-10-01T11:15:52.000Z</time>
      </trkpt>
      <trkpt lat="45.01102" lon="5.80699">
        <ele>1232</ele>
        <time>2023-10-01T11:15:53.000Z</time>
      </trkpt>
      <trkpt lat="45.011" lon="5.80699">
        <ele>1232</ele>
        <time>2023-10-01T11:15:54.000Z</time>
      </trkpt>
      <trkpt lat="45.01097" lon="5.80698">
        <ele>1232</ele>
        <time>2023-10-01T11:15:55.000Z</time>
      </trkpt>
      <trkpt lat="45.01095" lon="5.80698">
        <ele>1232</ele>
        <time>2023-10-01T11:15:56.000Z</time>
      </trkpt>
      <trkpt lat="45.01093" lon="5.80698">
        <ele>1232</ele>
        <time>2023-10-01T11:15:57.000Z</time>
      </trkpt>
      <trkpt lat="45.0109" lon="5.80698">
        <ele>1232</ele>
        <time>2023-10-01T11:15:58.000Z</time>
      </trkpt>
      <trkpt lat="45.01087" lon="5.80698">
        <ele>1232.1999511719</ele>
        <time>2023-10-01T11:15:59.000Z</time>
      </trkpt>
      <trkpt lat="45.01086" lon="5.80697">
        <ele>1232.1999511719</ele>
        <time>2023-10-01T11:16:00.000Z</time>
      </trkpt>
      <trkpt lat="45.01083" lon="5.80698">
        <ele>1232.1999511719</ele>
        <time>2023-10-01T11:16:01.000Z</time>
      </trkpt>
      <trkpt lat="45.01081" lon="5.80698">
        <ele>1232.1999511719</ele>
        <time>2023-10-01T11:16:02.000Z</time>
      </trkpt>
      <trkpt lat="45.01079" lon="5.80698">
        <ele>1232.4000244141</ele>
        <time>2023-10-01T11:16:03.000Z</time>
      </trkpt>
      <trkpt lat="45.01077" lon="5.80698">
        <ele>1232.8000488281</ele>
        <time>2023-10-01T11:16:04.000Z</time>
      </trkpt>
      <trkpt lat="45.01075" lon="5.80698">
        <ele>1232.8000488281</ele>
        <time>2023-10-01T11:16:05.000Z</time>
      </trkpt>
      <trkpt lat="45.01072" lon="5.80698">
        <ele>1232.8000488281</ele>
        <time>2023-10-01T11:16:06.000Z</time>
      </trkpt>
      <trkpt lat="45.0107" lon="5.80698">
        <ele>1232.8000488281</ele>
        <time>2023-10-01T11:16:07.000Z</time>
      </trkpt>
      <trkpt lat="45.01068" lon="5.80698">
        <ele>1232.8000488281</ele>
        <time>2023-10-01T11:16:08.000Z</time>
      </trkpt>
      <trkpt lat="45.01066" lon="5.80698">
        <ele>1232.8000488281</ele>
        <time>2023-10-01T11:16:09.000Z</time>
      </trkpt>
      <trkpt lat="45.01063" lon="5.80698">
        <ele>1233</ele>
        <time>2023-10-01T11:16:10.000Z</time>
      </trkpt>
      <trkpt lat="45.01061" lon="5.80697">
        <ele>1233</ele>
        <time>2023-10-01T11:16:11.000Z</time>
      </trkpt>
      <trkpt lat="45.01059" lon="5.80697">
        <ele>1232.8000488281</ele>
        <time>2023-10-01T11:16:12.000Z</time>
      </trkpt>
      <trkpt lat="45.01057" lon="5.80696">
        <ele>1232.8000488281</ele>
        <time>2023-10-01T11:16:13.000Z</time>
      </trkpt>
      <trkpt lat="45.01055" lon="5.80695">
        <ele>1232.8000488281</ele>
        <time>2023-10-01T11:16:14.000Z</time>
      </trkpt>
      <trkpt lat="45.01053" lon="5.80695">
        <ele>1232.8000488281</ele>
        <time>2023-10-01T11:16:15.000Z</time>
      </trkpt>
      <trkpt lat="45.01052" lon="5.80695">
        <ele>1232.8000488281</ele>
        <time>2023-10-01T11:16:16.000Z</time>
      </trkpt>
      <trkpt lat="45.0105" lon="5.80695">
        <ele>1232.8000488281</ele>
        <time>2023-10-01T11:16:17.000Z</time>
      </trkpt>
      <trkpt lat="45.01048" lon="5.80695">
        <ele>1232.8000488281</ele>
        <time>2023-10-01T11:16:18.000Z</time>
      </trkpt>
      <trkpt lat="45.01046" lon="5.80696">
        <ele>1232.8000488281</ele>
        <time>2023-10-01T11:16:19.000Z</time>
      </trkpt>
      <trkpt lat="45.01044" lon="5.80696">
        <ele>1232.8000488281</ele>
        <time>2023-10-01T11:16:20.000Z</time>
      </trkpt>
      <trkpt lat="45.01042" lon="5.80696">
        <ele>1232.8000488281</ele>
        <time>2023-10-01T11:16:21.000Z</time>
      </trkpt>
      <trkpt lat="45.0104" lon="5.80696">
        <ele>1233.1999511719</ele>
        <time>2023-10-01T11:16:22.000Z</time>
      </trkpt>
      <trkpt lat="45.01038" lon="5.80697">
        <ele>1233.4000244141</ele>
        <time>2023-10-01T11:16:23.000Z</time>
      </trkpt>
      <trkpt lat="45.01036" lon="5.80697">
        <ele>1233.5999755859</ele>
        <time>2023-10-01T11:16:24.000Z</time>
      </trkpt>
      <trkpt lat="45.01034" lon="5.80697">
        <ele>1233.8000488281</ele>
        <time>2023-10-01T11:16:25.000Z</time>
      </trkpt>
      <trkpt lat="45.01032" lon="5.80698">
        <ele>1233.8000488281</ele>
        <time>2023-10-01T11:16:26.000Z</time>
      </trkpt>
      <trkpt lat="45.01031" lon="5.80698">
        <ele>1234</ele>
        <time>2023-10-01T11:16:27.000Z</time>
      </trkpt>
      <trkpt lat="45.01029" lon="5.80697">
        <ele>1234</ele>
        <time>2023-10-01T11:16:28.000Z</time>
      </trkpt>
      <trkpt lat="45.01027" lon="5.80697">
        <ele>1234</ele>
        <time>2023-10-01T11:16:29.000Z</time>
      </trkpt>
      <trkpt lat="45.01024" lon="5.80696">
        <ele>1234.1999511719</ele>
        <time>2023-10-01T11:16:30.000Z</time>
      </trkpt>
      <trkpt lat="45.01022" lon="5.80696">
        <ele>1234.4000244141</ele>
        <time>2023-10-01T11:16:31.000Z</time>
      </trkpt>
      <trkpt lat="45.0102" lon="5.80696">
        <ele>1234.4000244141</ele>
        <time>2023-10-01T11:16:32.000Z</time>
      </trkpt>
      <trkpt lat="45.01017" lon="5.80695">
        <ele>1234.1999511719</ele>
        <time>2023-10-01T11:16:33.000Z</time>
      </trkpt>
      <trkpt lat="45.01015" lon="5.80694">
        <ele>1234.4000244141</ele>
        <time>2023-10-01T11:16:34.000Z</time>
      </trkpt>
      <trkpt lat="45.01013" lon="5.80693">
        <ele>1234.1999511719</ele>
        <time>2023-10-01T11:16:35.000Z</time>
      </trkpt>
      <trkpt lat="45.01011" lon="5.80693">
        <ele>1234.1999511719</ele>
        <time>2023-10-01T11:16:36.000Z</time>
      </trkpt>
      <trkpt lat="45.01009" lon="5.80693">
        <ele>1234.1999511719</ele>
        <time>2023-10-01T11:16:37.000Z</time>
      </trkpt>
      <trkpt lat="45.01006" lon="5.80693">
        <ele>1234.1999511719</ele>
        <time>2023-10-01T11:16:38.000Z</time>
      </trkpt>
      <trkpt lat="45.01005" lon="5.80693">
        <ele>1234.1999511719</ele>
        <time>2023-10-01T11:16:39.000Z</time>
      </trkpt>
      <trkpt lat="45.01002" lon="5.80694">
        <ele>1234.1999511719</ele>
        <time>2023-10-01T11:16:40.000Z</time>
      </trkpt>
      <trkpt lat="45.01" lon="5.80694">
        <ele>1234.1999511719</ele>
        <time>2023-10-01T11:16:41.000Z</time>
      </trkpt>
      <trkpt lat="45.00998" lon="5.80694">
        <ele>1234.1999511719</ele>
        <time>2023-10-01T11:16:42.000Z</time>
      </trkpt>
      <trkpt lat="45.00996" lon="5.80695">
        <ele>1234.4000244141</ele>
        <time>2023-10-01T11:16:43.000Z</time>
      </trkpt>
      <trkpt lat="45.00994" lon="5.80695">
        <ele>1234.4000244141</ele>
        <time>2023-10-01T11:16:44.000Z</time>
      </trkpt>
      <trkpt lat="45.00992" lon="5.80696">
        <ele>1234.4000244141</ele>
        <time>2023-10-01T11:16:45.000Z</time>
      </trkpt>
      <trkpt lat="45.0099" lon="5.80697">
        <ele>1234.4000244141</ele>
        <time>2023-10-01T11:16:46.000Z</time>
      </trkpt>
      <trkpt lat="45.00988" lon="5.80697">
        <ele>1234.4000244141</ele>
        <time>2023-10-01T11:16:47.000Z</time>
      </trkpt>
      <trkpt lat="45.00987" lon="5.80697">
        <ele>1234.4000244141</ele>
        <time>2023-10-01T11:16:48.000Z</time>
      </trkpt>
      <trkpt lat="45.00985" lon="5.80695">
        <ele>1234.5999755859</ele>
        <time>2023-10-01T11:16:49.000Z</time>
      </trkpt>
      <trkpt lat="45.00984" lon="5.80694">
        <ele>1234.5999755859</ele>
        <time>2023-10-01T11:16:50.000Z</time>
      </trkpt>
      <trkpt lat="45.00982" lon="5.80693">
        <ele>1234.5999755859</ele>
        <time>2023-10-01T11:16:51.000Z</time>
      </trkpt>
      <trkpt lat="45.0098" lon="5.80693">
        <ele>1235</ele>
        <time>2023-10-01T11:16:52.000Z</time>
      </trkpt>
      <trkpt lat="45.00978" lon="5.80693">
        <ele>1235.1999511719</ele>
        <time>2023-10-01T11:16:53.000Z</time>
      </trkpt>
      <trkpt lat="45.00976" lon="5.80693">
        <ele>1235.4000244141</ele>
        <time>2023-10-01T11:16:54.000Z</time>
      </trkpt>
      <trkpt lat="45.00974" lon="5.80693">
        <ele>1235.4000244141</ele>
        <time>2023-10-01T11:16:55.000Z</time>
      </trkpt>
      <trkpt lat="45.00972" lon="5.80693">
        <ele>1235.5999755859</ele>
        <time>2023-10-01T11:16:56.000Z</time>
      </trkpt>
      <trkpt lat="45.00969" lon="5.80694">
        <ele>1235.5999755859</ele>
        <time>2023-10-01T11:16:57.000Z</time>
      </trkpt>
      <trkpt lat="45.00966" lon="5.80694">
        <ele>1235.8000488281</ele>
        <time>2023-10-01T11:16:58.000Z</time>
      </trkpt>
      <trkpt lat="45.00964" lon="5.80694">
        <ele>1235.8000488281</ele>
        <time>2023-10-01T11:16:59.000Z</time>
      </trkpt>
      <trkpt lat="45.00962" lon="5.80694">
        <ele>1235.8000488281</ele>
        <time>2023-10-01T11:17:00.000Z</time>
      </trkpt>
      <trkpt lat="45.00959" lon="5.80694">
        <ele>1235.8000488281</ele>
        <time>2023-10-01T11:17:01.000Z</time>
      </trkpt>
      <trkpt lat="45.00957" lon="5.80693">
        <ele>1235.8000488281</ele>
        <time>2023-10-01T11:17:02.000Z</time>
      </trkpt>
      <trkpt lat="45.00955" lon="5.80693">
        <ele>1235.8000488281</ele>
        <time>2023-10-01T11:17:03.000Z</time>
      </trkpt>
      <trkpt lat="45.00953" lon="5.80693">
        <ele>1236</ele>
        <time>2023-10-01T11:17:04.000Z</time>
      </trkpt>
      <trkpt lat="45.00951" lon="5.80694">
        <ele>1236</ele>
        <time>2023-10-01T11:17:05.000Z</time>
      </trkpt>
      <trkpt lat="45.00949" lon="5.80695">
        <ele>1236</ele>
        <time>2023-10-01T11:17:06.000Z</time>
      </trkpt>
      <trkpt lat="45.00948" lon="5.80696">
        <ele>1236</ele>
        <time>2023-10-01T11:17:07.000Z</time>
      </trkpt>
      <trkpt lat="45.00946" lon="5.80697">
        <ele>1236</ele>
        <time>2023-10-01T11:17:08.000Z</time>
      </trkpt>
      <trkpt lat="45.00943" lon="5.80698">
        <ele>1236</ele>
        <time>2023-10-01T11:17:09.000Z</time>
      </trkpt>
      <trkpt lat="45.00942" lon="5.80698">
        <ele>1236</ele>
        <time>2023-10-01T11:17:10.000Z</time>
      </trkpt>
      <trkpt lat="45.0094" lon="5.80699">
        <ele>1236.1999511719</ele>
        <time>2023-10-01T11:17:11.000Z</time>
      </trkpt>
      <trkpt lat="45.00938" lon="5.80699">
        <ele>1236.1999511719</ele>
        <time>2023-10-01T11:17:12.000Z</time>
      </trkpt>
      <trkpt lat="45.00936" lon="5.807">
        <ele>1236.5999755859</ele>
        <time>2023-10-01T11:17:13.000Z</time>
      </trkpt>
      <trkpt lat="45.00933" lon="5.80701">
        <ele>1236.5999755859</ele>
        <time>2023-10-01T11:17:14.000Z</time>
      </trkpt>
      <trkpt lat="45.00931" lon="5.80701">
        <ele>1236.8000488281</ele>
        <time>2023-10-01T11:17:15.000Z</time>
      </trkpt>
      <trkpt lat="45.0093" lon="5.80701">
        <ele>1236.8000488281</ele>
        <time>2023-10-01T11:17:16.000Z</time>
      </trkpt>
      <trkpt lat="45.00927" lon="5.80702">
        <ele>1237</ele>
        <time>2023-10-01T11:17:17.000Z</time>
      </trkpt>
      <trkpt lat="45.00925" lon="5.80701">
        <ele>1237</ele>
        <time>2023-10-01T11:17:18.000Z</time>
      </trkpt>
      <trkpt lat="45.00923" lon="5.80702">
        <ele>1237</ele>
        <time>2023-10-01T11:17:19.000Z</time>
      </trkpt>
      <trkpt lat="45.00922" lon="5.80703">
        <ele>1237.1999511719</ele>
        <time>2023-10-01T11:17:20.000Z</time>
      </trkpt>
      <trkpt lat="45.0092" lon="5.80703">
        <ele>1237.1999511719</ele>
        <time>2023-10-01T11:17:21.000Z</time>
      </trkpt>
      <trkpt lat="45.00918" lon="5.80703">
        <ele>1237.1999511719</ele>
        <time>2023-10-01T11:17:22.000Z</time>
      </trkpt>
      <trkpt lat="45.00916" lon="5.80702">
        <ele>1237.4000244141</ele>
        <time>2023-10-01T11:17:23.000Z</time>
      </trkpt>
      <trkpt lat="45.00914" lon="5.80704">
        <ele>1237.4000244141</ele>
        <time>2023-10-01T11:17:24.000Z</time>
      </trkpt>
      <trkpt lat="45.00912" lon="5.80705">
        <ele>1237.5999755859</ele>
        <time>2023-10-01T11:17:25.000Z</time>
      </trkpt>
      <trkpt lat="45.0091" lon="5.80706">
        <ele>1237.5999755859</ele>
        <time>2023-10-01T11:17:26.000Z</time>
      </trkpt>
      <trkpt lat="45.00909" lon="5.80706">
        <ele>1237.5999755859</ele>
        <time>2023-10-01T11:17:27.000Z</time>
      </trkpt>
      <trkpt lat="45.00907" lon="5.80707">
        <ele>1237.8000488281</ele>
        <time>2023-10-01T11:17:28.000Z</time>
      </trkpt>
      <trkpt lat="45.00906" lon="5.80707">
        <ele>1238.1999511719</ele>
        <time>2023-10-01T11:17:29.000Z</time>
      </trkpt>
      <trkpt lat="45.00904" lon="5.80707">
        <ele>1238.4000244141</ele>
        <time>2023-10-01T11:17:30.000Z</time>
      </trkpt>
      <trkpt lat="45.00903" lon="5.80707">
        <ele>1238.5999755859</ele>
        <time>2023-10-01T11:17:31.000Z</time>
      </trkpt>
      <trkpt lat="45.00901" lon="5.80708">
        <ele>1238.8000488281</ele>
        <time>2023-10-01T11:17:32.000Z</time>
      </trkpt>
      <trkpt lat="45.00899" lon="5.80708">
        <ele>1238.8000488281</ele>
        <time>2023-10-01T11:17:33.000Z</time>
      </trkpt>
      <trkpt lat="45.00898" lon="5.80708">
        <ele>1238.8000488281</ele>
        <time>2023-10-01T11:17:34.000Z</time>
      </trkpt>
      <trkpt lat="45.00896" lon="5.80708">
        <ele>1239</ele>
        <time>2023-10-01T11:17:35.000Z</time>
      </trkpt>
      <trkpt lat="45.00894" lon="5.80708">
        <ele>1239</ele>
        <time>2023-10-01T11:17:36.000Z</time>
      </trkpt>
      <trkpt lat="45.00892" lon="5.80708">
        <ele>1239.1999511719</ele>
        <time>2023-10-01T11:17:37.000Z</time>
      </trkpt>
      <trkpt lat="45.00891" lon="5.80708">
        <ele>1239.4000244141</ele>
        <time>2023-10-01T11:17:38.000Z</time>
      </trkpt>
      <trkpt lat="45.00888" lon="5.80708">
        <ele>1239.5999755859</ele>
        <time>2023-10-01T11:17:39.000Z</time>
      </trkpt>
      <trkpt lat="45.00887" lon="5.80708">
        <ele>1239.5999755859</ele>
        <time>2023-10-01T11:17:40.000Z</time>
      </trkpt>
      <trkpt lat="45.00885" lon="5.80708">
        <ele>1239.8000488281</ele>
        <time>2023-10-01T11:17:41.000Z</time>
      </trkpt>
      <trkpt lat="45.00883" lon="5.80708">
        <ele>1239.8000488281</ele>
        <time>2023-10-01T11:17:42.000Z</time>
      </trkpt>
      <trkpt lat="45.00881" lon="5.80708">
        <ele>1239.8000488281</ele>
        <time>2023-10-01T11:17:43.000Z</time>
      </trkpt>
      <trkpt lat="45.00878" lon="5.80709">
        <ele>1239.8000488281</ele>
        <time>2023-10-01T11:17:44.000Z</time>
      </trkpt>
      <trkpt lat="45.00876" lon="5.8071">
        <ele>1240</ele>
        <time>2023-10-01T11:17:45.000Z</time>
      </trkpt>
      <trkpt lat="45.00874" lon="5.8071">
        <ele>1240</ele>
        <time>2023-10-01T11:17:46.000Z</time>
      </trkpt>
      <trkpt lat="45.00873" lon="5.80712">
        <ele>1240.1999511719</ele>
        <time>2023-10-01T11:17:47.000Z</time>
      </trkpt>
      <trkpt lat="45.0087" lon="5.80713">
        <ele>1240.1999511719</ele>
        <time>2023-10-01T11:17:48.000Z</time>
      </trkpt>
      <trkpt lat="45.00869" lon="5.80714">
        <ele>1240.5999755859</ele>
        <time>2023-10-01T11:17:49.000Z</time>
      </trkpt>
      <trkpt lat="45.00866" lon="5.80715">
        <ele>1240.5999755859</ele>
        <time>2023-10-01T11:17:50.000Z</time>
      </trkpt>
      <trkpt lat="45.00864" lon="5.80714">
        <ele>1240.5999755859</ele>
        <time>2023-10-01T11:17:51.000Z</time>
      </trkpt>
      <trkpt lat="45.00862" lon="5.80714">
        <ele>1240.5999755859</ele>
        <time>2023-10-01T11:17:52.000Z</time>
      </trkpt>
      <trkpt lat="45.0086" lon="5.80713">
        <ele>1240.5999755859</ele>
        <time>2023-10-01T11:17:53.000Z</time>
      </trkpt>
      <trkpt lat="45.00859" lon="5.80712">
        <ele>1240.8000488281</ele>
        <time>2023-10-01T11:17:54.000Z</time>
      </trkpt>
      <trkpt lat="45.00858" lon="5.80711">
        <ele>1241</ele>
        <time>2023-10-01T11:17:55.000Z</time>
      </trkpt>
      <trkpt lat="45.00857" lon="5.80711">
        <ele>1241.1999511719</ele>
        <time>2023-10-01T11:17:56.000Z</time>
      </trkpt>
      <trkpt lat="45.00855" lon="5.80711">
        <ele>1241.5999755859</ele>
        <time>2023-10-01T11:17:57.000Z</time>
      </trkpt>
      <trkpt lat="45.00853" lon="5.8071">
        <ele>1241.8000488281</ele>
        <time>2023-10-01T11:17:58.000Z</time>
      </trkpt>
      <trkpt lat="45.00851" lon="5.8071">
        <ele>1241.8000488281</ele>
        <time>2023-10-01T11:17:59.000Z</time>
      </trkpt>
      <trkpt lat="45.00849" lon="5.8071">
        <ele>1241.8000488281</ele>
        <time>2023-10-01T11:18:00.000Z</time>
      </trkpt>
      <trkpt lat="45.00846" lon="5.8071">
        <ele>1241.8000488281</ele>
        <time>2023-10-01T11:18:01.000Z</time>
      </trkpt>
      <trkpt lat="45.00845" lon="5.8071">
        <ele>1241.8000488281</ele>
        <time>2023-10-01T11:18:02.000Z</time>
      </trkpt>
      <trkpt lat="45.00842" lon="5.80709">
        <ele>1241.8000488281</ele>
        <time>2023-10-01T11:18:03.000Z</time>
      </trkpt>
      <trkpt lat="45.0084" lon="5.80707">
        <ele>1241.5999755859</ele>
        <time>2023-10-01T11:18:04.000Z</time>
      </trkpt>
      <trkpt lat="45.00839" lon="5.80707">
        <ele>1241.5999755859</ele>
        <time>2023-10-01T11:18:05.000Z</time>
      </trkpt>
      <trkpt lat="45.00836" lon="5.80706">
        <ele>1241.5999755859</ele>
        <time>2023-10-01T11:18:06.000Z</time>
      </trkpt>
      <trkpt lat="45.00834" lon="5.80706">
        <ele>1241.5999755859</ele>
        <time>2023-10-01T11:18:07.000Z</time>
      </trkpt>
      <trkpt lat="45.00832" lon="5.80707">
        <ele>1241.4000244141</ele>
        <time>2023-10-01T11:18:08.000Z</time>
      </trkpt>
      <trkpt lat="45.0083" lon="5.80707">
        <ele>1241.1999511719</ele>
        <time>2023-10-01T11:18:09.000Z</time>
      </trkpt>
      <trkpt lat="45.00828" lon="5.80706">
        <ele>1241.1999511719</ele>
        <time>2023-10-01T11:18:10.000Z</time>
      </trkpt>
      <trkpt lat="45.00826" lon="5.80706">
        <ele>1241.1999511719</ele>
        <time>2023-10-01T11:18:11.000Z</time>
      </trkpt>
      <trkpt lat="45.00824" lon="5.80706">
        <ele>1241.1999511719</ele>
        <time>2023-10-01T11:18:12.000Z</time>
      </trkpt>
      <trkpt lat="45.00822" lon="5.80705">
        <ele>1241.4000244141</ele>
        <time>2023-10-01T11:18:13.000Z</time>
      </trkpt>
      <trkpt lat="45.0082" lon="5.80705">
        <ele>1241.4000244141</ele>
        <time>2023-10-01T11:18:14.000Z</time>
      </trkpt>
      <trkpt lat="45.00818" lon="5.80705">
        <ele>1241.4000244141</ele>
        <time>2023-10-01T11:18:15.000Z</time>
      </trkpt>
      <trkpt lat="45.00816" lon="5.80705">
        <ele>1241.4000244141</ele>
        <time>2023-10-01T11:18:16.000Z</time>
      </trkpt>
      <trkpt lat="45.00814" lon="5.80704">
        <ele>1241.1999511719</ele>
        <time>2023-10-01T11:18:17.000Z</time>
      </trkpt>
      <trkpt lat="45.00812" lon="5.80704">
        <ele>1241.1999511719</ele>
        <time>2023-10-01T11:18:18.000Z</time>
      </trkpt>
      <trkpt lat="45.0081" lon="5.80704">
        <ele>1241.1999511719</ele>
        <time>2023-10-01T11:18:19.000Z</time>
      </trkpt>
      <trkpt lat="45.00807" lon="5.80703">
        <ele>1241.1999511719</ele>
        <time>2023-10-01T11:18:20.000Z</time>
      </trkpt>
      <trkpt lat="45.00805" lon="5.80703">
        <ele>1241</ele>
        <time>2023-10-01T11:18:21.000Z</time>
      </trkpt>
      <trkpt lat="45.00803" lon="5.80703">
        <ele>1241</ele>
        <time>2023-10-01T11:18:22.000Z</time>
      </trkpt>
      <trkpt lat="45.00801" lon="5.80703">
        <ele>1241</ele>
        <time>2023-10-01T11:18:23.000Z</time>
      </trkpt>
      <trkpt lat="45.00798" lon="5.80703">
        <ele>1241</ele>
        <time>2023-10-01T11:18:24.000Z</time>
      </trkpt>
      <trkpt lat="45.00796" lon="5.80703">
        <ele>1241</ele>
        <time>2023-10-01T11:18:25.000Z</time>
      </trkpt>
      <trkpt lat="45.00793" lon="5.80703">
        <ele>1240.8000488281</ele>
        <time>2023-10-01T11:18:26.000Z</time>
      </trkpt>
      <trkpt lat="45.00791" lon="5.80703">
        <ele>1240.8000488281</ele>
        <time>2023-10-01T11:18:27.000Z</time>
      </trkpt>
      <trkpt lat="45.00789" lon="5.80703">
        <ele>1240.8000488281</ele>
        <time>2023-10-01T11:18:28.000Z</time>
      </trkpt>
      <trkpt lat="45.00787" lon="5.80703">
        <ele>1241</ele>
        <time>2023-10-01T11:18:29.000Z</time>
      </trkpt>
      <trkpt lat="45.00785" lon="5.80704">
        <ele>1241</ele>
        <time>2023-10-01T11:18:30.000Z</time>
      </trkpt>
      <trkpt lat="45.00782" lon="5.80704">
        <ele>1241</ele>
        <time>2023-10-01T11:18:31.000Z</time>
      </trkpt>
      <trkpt lat="45.0078" lon="5.80704">
        <ele>1241.1999511719</ele>
        <time>2023-10-01T11:18:32.000Z</time>
      </trkpt>
      <trkpt lat="45.00778" lon="5.80703">
        <ele>1241.1999511719</ele>
        <time>2023-10-01T11:18:33.000Z</time>
      </trkpt>
      <trkpt lat="45.00777" lon="5.80702">
        <ele>1241.1999511719</ele>
        <time>2023-10-01T11:18:34.000Z</time>
      </trkpt>
      <trkpt lat="45.00774" lon="5.80702">
        <ele>1241.1999511719</ele>
        <time>2023-10-01T11:18:35.000Z</time>
      </trkpt>
      <trkpt lat="45.00772" lon="5.80701">
        <ele>1241.4000244141</ele>
        <time>2023-10-01T11:18:36.000Z</time>
      </trkpt>
      <trkpt lat="45.0077" lon="5.80701">
        <ele>1241.1999511719</ele>
        <time>2023-10-01T11:18:37.000Z</time>
      </trkpt>
      <trkpt lat="45.00767" lon="5.80701">
        <ele>1241.1999511719</ele>
        <time>2023-10-01T11:18:38.000Z</time>
      </trkpt>
      <trkpt lat="45.00765" lon="5.80701">
        <ele>1241.1999511719</ele>
        <time>2023-10-01T11:18:39.000Z</time>
      </trkpt>
      <trkpt lat="45.00763" lon="5.807">
        <ele>1241.1999511719</ele>
        <time>2023-10-01T11:18:40.000Z</time>
      </trkpt>
      <trkpt lat="45.0076" lon="5.807">
        <ele>1241.1999511719</ele>
        <time>2023-10-01T11:18:41.000Z</time>
      </trkpt>
      <trkpt lat="45.00759" lon="5.807">
        <ele>1241</ele>
        <time>2023-10-01T11:18:42.000Z</time>
      </trkpt>
      <trkpt lat="45.00756" lon="5.80701">
        <ele>1241</ele>
        <time>2023-10-01T11:18:43.000Z</time>
      </trkpt>
      <trkpt lat="45.00754" lon="5.80701">
        <ele>1241</ele>
        <time>2023-10-01T11:18:44.000Z</time>
      </trkpt>
      <trkpt lat="45.00753" lon="5.80701">
        <ele>1241</ele>
        <time>2023-10-01T11:18:45.000Z</time>
      </trkpt>
      <trkpt lat="45.00751" lon="5.80702">
        <ele>1241.1999511719</ele>
        <time>2023-10-01T11:18:46.000Z</time>
      </trkpt>
      <trkpt lat="45.00749" lon="5.80702">
        <ele>1241.1999511719</ele>
        <time>2023-10-01T11:18:47.000Z</time>
      </trkpt>
      <trkpt lat="45.00748" lon="5.80703">
        <ele>1241.1999511719</ele>
        <time>2023-10-01T11:18:48.000Z</time>
      </trkpt>
      <trkpt lat="45.00746" lon="5.80703">
        <ele>1241.5999755859</ele>
        <time>2023-10-01T11:18:49.000Z</time>
      </trkpt>
      <trkpt lat="45.00745" lon="5.80704">
        <ele>1241.8000488281</ele>
        <time>2023-10-01T11:18:50.000Z</time>
      </trkpt>
      <trkpt lat="45.00744" lon="5.80704">
        <ele>1242.1999511719</ele>
        <time>2023-10-01T11:18:51.000Z</time>
      </trkpt>
      <trkpt lat="45.00743" lon="5.80705">
        <ele>1242.4000244141</ele>
        <time>2023-10-01T11:18:52.000Z</time>
      </trkpt>
      <trkpt lat="45.00741" lon="5.80706">
        <ele>1242.4000244141</ele>
        <time>2023-10-01T11:18:53.000Z</time>
      </trkpt>
      <trkpt lat="45.00739" lon="5.80706">
        <ele>1242.5999755859</ele>
        <time>2023-10-01T11:18:54.000Z</time>
      </trkpt>
      <trkpt lat="45.00738" lon="5.80707">
        <ele>1243</ele>
        <time>2023-10-01T11:18:55.000Z</time>
      </trkpt>
      <trkpt lat="45.00737" lon="5.80707">
        <ele>1243.1999511719</ele>
        <time>2023-10-01T11:18:56.000Z</time>
      </trkpt>
      <trkpt lat="45.00736" lon="5.80708">
        <ele>1243.5999755859</ele>
        <time>2023-10-01T11:18:57.000Z</time>
      </trkpt>
      <trkpt lat="45.00735" lon="5.80709">
        <ele>1243.8000488281</ele>
        <time>2023-10-01T11:18:58.000Z</time>
      </trkpt>
      <trkpt lat="45.00734" lon="5.80709">
        <ele>1244.4000244141</ele>
        <time>2023-10-01T11:18:59.000Z</time>
      </trkpt>
      <trkpt lat="45.00733" lon="5.80709">
        <ele>1244.5999755859</ele>
        <time>2023-10-01T11:19:00.000Z</time>
      </trkpt>
      <trkpt lat="45.00732" lon="5.80708">
        <ele>1244.8000488281</ele>
        <time>2023-10-01T11:19:01.000Z</time>
      </trkpt>
      <trkpt lat="45.00731" lon="5.80708">
        <ele>1245</ele>
        <time>2023-10-01T11:19:02.000Z</time>
      </trkpt>
      <trkpt lat="45.00731" lon="5.80708">
        <ele>1245.1999511719</ele>
        <time>2023-10-01T11:19:03.000Z</time>
      </trkpt>
      <trkpt lat="45.00731" lon="5.80707">
        <ele>1245.1999511719</ele>
        <time>2023-10-01T11:19:04.000Z</time>
      </trkpt>
      <trkpt lat="45.0073" lon="5.80706">
        <ele>1245.1999511719</ele>
        <time>2023-10-01T11:19:05.000Z</time>
      </trkpt>
      <trkpt lat="45.00728" lon="5.80706">
        <ele>1245.1999511719</ele>
        <time>2023-10-01T11:19:06.000Z</time>
      </trkpt>
      <trkpt lat="45.00727" lon="5.80706">
        <ele>1245.1999511719</ele>
        <time>2023-10-01T11:19:07.000Z</time>
      </trkpt>
      <trkpt lat="45.00725" lon="5.80706">
        <ele>1245</ele>
        <time>2023-10-01T11:19:08.000Z</time>
      </trkpt>
      <trkpt lat="45.00724" lon="5.80706">
        <ele>1244.8000488281</ele>
        <time>2023-10-01T11:19:09.000Z</time>
      </trkpt>
      <trkpt lat="45.00722" lon="5.80706">
        <ele>1244.4000244141</ele>
        <time>2023-10-01T11:19:10.000Z</time>
      </trkpt>
      <trkpt lat="45.00721" lon="5.80706">
        <ele>1244.1999511719</ele>
        <time>2023-10-01T11:19:11.000Z</time>
      </trkpt>
      <trkpt lat="45.0072" lon="5.80706">
        <ele>1244.1999511719</ele>
        <time>2023-10-01T11:19:12.000Z</time>
      </trkpt>
      <trkpt lat="45.00719" lon="5.80706">
        <ele>1244.1999511719</ele>
        <time>2023-10-01T11:19:13.000Z</time>
      </trkpt>
      <trkpt lat="45.00718" lon="5.80706">
        <ele>1244</ele>
        <time>2023-10-01T11:19:14.000Z</time>
      </trkpt>
      <trkpt lat="45.00716" lon="5.80706">
        <ele>1244</ele>
        <time>2023-10-01T11:19:15.000Z</time>
      </trkpt>
      <trkpt lat="45.00715" lon="5.80705">
        <ele>1244</ele>
        <time>2023-10-01T11:19:16.000Z</time>
      </trkpt>
      <trkpt lat="45.00714" lon="5.80704">
        <ele>1244</ele>
        <time>2023-10-01T11:19:17.000Z</time>
      </trkpt>
      <trkpt lat="45.00712" lon="5.80704">
        <ele>1243.8000488281</ele>
        <time>2023-10-01T11:19:18.000Z</time>
      </trkpt>
      <trkpt lat="45.00711" lon="5.80703">
        <ele>1243.8000488281</ele>
        <time>2023-10-01T11:19:19.000Z</time>
      </trkpt>
      <trkpt lat="45.00709" lon="5.80703">
        <ele>1243.5999755859</ele>
        <time>2023-10-01T11:19:20.000Z</time>
      </trkpt>
      <trkpt lat="45.00708" lon="5.80703">
        <ele>1243.4000244141</ele>
        <time>2023-10-01T11:19:21.000Z</time>
      </trkpt>
      <trkpt lat="45.00707" lon="5.80703">
        <ele>1243.4000244141</ele>
        <time>2023-10-01T11:19:22.000Z</time>
      </trkpt>
      <trkpt lat="45.00705" lon="5.80703">
        <ele>1243.4000244141</ele>
        <time>2023-10-01T11:19:23.000Z</time>
      </trkpt>
      <trkpt lat="45.00703" lon="5.80703">
        <ele>1243.1999511719</ele>
        <time>2023-10-01T11:19:24.000Z</time>
      </trkpt>
      <trkpt lat="45.00702" lon="5.80703">
        <ele>1243.1999511719</ele>
        <time>2023-10-01T11:19:25.000Z</time>
      </trkpt>
      <trkpt lat="45.007" lon="5.80704">
        <ele>1243</ele>
        <time>2023-10-01T11:19:26.000Z</time>
      </trkpt>
      <trkpt lat="45.00698" lon="5.80705">
        <ele>1242.8000488281</ele>
        <time>2023-10-01T11:19:27.000Z</time>
      </trkpt>
      <trkpt lat="45.00697" lon="5.80705">
        <ele>1242.5999755859</ele>
        <time>2023-10-01T11:19:28.000Z</time>
      </trkpt>
      <trkpt lat="45.00695" lon="5.80706">
        <ele>1242.1999511719</ele>
        <time>2023-10-01T11:19:29.000Z</time>
      </trkpt>
      <trkpt lat="45.00694" lon="5.80705">
        <ele>1242</ele>
        <time>2023-10-01T11:19:30.000Z</time>
      </trkpt>
      <trkpt lat="45.00693" lon="5.80705">
        <ele>1242</ele>
        <time>2023-10-01T11:19:31.000Z</time>
      </trkpt>
      <trkpt lat="45.00692" lon="5.80704">
        <ele>1241.8000488281</ele>
        <time>2023-10-01T11:19:32.000Z</time>
      </trkpt>
      <trkpt lat="45.00691" lon="5.80704">
        <ele>1241.8000488281</ele>
        <time>2023-10-01T11:19:33.000Z</time>
      </trkpt>
      <trkpt lat="45.0069" lon="5.80703">
        <ele>1241.5999755859</ele>
        <time>2023-10-01T11:19:34.000Z</time>
      </trkpt>
      <trkpt lat="45.00689" lon="5.80703">
        <ele>1241.5999755859</ele>
        <time>2023-10-01T11:19:35.000Z</time>
      </trkpt>
      <trkpt lat="45.00689" lon="5.80702">
        <ele>1241.4000244141</ele>
        <time>2023-10-01T11:19:36.000Z</time>
      </trkpt>
      <trkpt lat="45.00688" lon="5.80701">
        <ele>1241.4000244141</ele>
        <time>2023-10-01T11:19:37.000Z</time>
      </trkpt>
      <trkpt lat="45.00688" lon="5.80701">
        <ele>1241.1999511719</ele>
        <time>2023-10-01T11:19:38.000Z</time>
      </trkpt>
      <trkpt lat="45.00688" lon="5.807">
        <ele>1241</ele>
        <time>2023-10-01T11:19:39.000Z</time>
      </trkpt>
      <trkpt lat="45.00688" lon="5.80699">
        <ele>1240.5999755859</ele>
        <time>2023-10-01T11:19:40.000Z</time>
      </trkpt>
      <trkpt lat="45.00688" lon="5.80699">
        <ele>1240.5999755859</ele>
        <time>2023-10-01T11:19:41.000Z</time>
      </trkpt>
      <trkpt lat="45.00688" lon="5.80699">
        <ele>1240.4000244141</ele>
        <time>2023-10-01T11:19:42.000Z</time>
      </trkpt>
      <trkpt lat="45.00689" lon="5.80698">
        <ele>1240.1999511719</ele>
        <time>2023-10-01T11:19:43.000Z</time>
      </trkpt>
      <trkpt lat="45.00689" lon="5.80698">
        <ele>1240</ele>
        <time>2023-10-01T11:19:44.000Z</time>
      </trkpt>
      <trkpt lat="45.00689" lon="5.80697">
        <ele>1239.8000488281</ele>
        <time>2023-10-01T11:19:45.000Z</time>
      </trkpt>
      <trkpt lat="45.00689" lon="5.80697">
        <ele>1239.4000244141</ele>
        <time>2023-10-01T11:19:46.000Z</time>
      </trkpt>
      <trkpt lat="45.0069" lon="5.80696">
        <ele>1239.1999511719</ele>
        <time>2023-10-01T11:19:47.000Z</time>
      </trkpt>
      <trkpt lat="45.0069" lon="5.80694">
        <ele>1239</ele>
        <time>2023-10-01T11:19:48.000Z</time>
      </trkpt>
      <trkpt lat="45.00689" lon="5.80694">
        <ele>1238.5999755859</ele>
        <time>2023-10-01T11:19:49.000Z</time>
      </trkpt>
      <trkpt lat="45.00689" lon="5.80693">
        <ele>1238.4000244141</ele>
        <time>2023-10-01T11:19:50.000Z</time>
      </trkpt>
      <trkpt lat="45.00689" lon="5.80691">
        <ele>1238</ele>
        <time>2023-10-01T11:19:51.000Z</time>
      </trkpt>
      <trkpt lat="45.00688" lon="5.80691">
        <ele>1237.8000488281</ele>
        <time>2023-10-01T11:19:52.000Z</time>
      </trkpt>
      <trkpt lat="45.00688" lon="5.80689">
        <ele>1237.4000244141</ele>
        <time>2023-10-01T11:19:53.000Z</time>
      </trkpt>
      <trkpt lat="45.00688" lon="5.80688">
        <ele>1237.1999511719</ele>
        <time>2023-10-01T11:19:54.000Z</time>
      </trkpt>
      <trkpt lat="45.00688" lon="5.80687">
        <ele>1236.8000488281</ele>
        <time>2023-10-01T11:19:55.000Z</time>
      </trkpt>
      <trkpt lat="45.00688" lon="5.80686">
        <ele>1236.4000244141</ele>
        <time>2023-10-01T11:19:56.000Z</time>
      </trkpt>
      <trkpt lat="45.00688" lon="5.80685">
        <ele>1236</ele>
        <time>2023-10-01T11:19:57.000Z</time>
      </trkpt>
      <trkpt lat="45.00689" lon="5.80684">
        <ele>1235.5999755859</ele>
        <time>2023-10-01T11:19:58.000Z</time>
      </trkpt>
      <trkpt lat="45.00689" lon="5.80683">
        <ele>1235.4000244141</ele>
        <time>2023-10-01T11:19:59.000Z</time>
      </trkpt>
      <trkpt lat="45.00689" lon="5.80682">
        <ele>1235</ele>
        <time>2023-10-01T11:20:00.000Z</time>
      </trkpt>
      <trkpt lat="45.00689" lon="5.80681">
        <ele>1234.8000488281</ele>
        <time>2023-10-01T11:20:01.000Z</time>
      </trkpt>
      <trkpt lat="45.00689" lon="5.80681">
        <ele>1234.4000244141</ele>
        <time>2023-10-01T11:20:02.000Z</time>
      </trkpt>
      <trkpt lat="45.00689" lon="5.80681">
        <ele>1234.1999511719</ele>
        <time>2023-10-01T11:20:03.000Z</time>
      </trkpt>
      <trkpt lat="45.00689" lon="5.80681">
        <ele>1234</ele>
        <time>2023-10-01T11:20:04.000Z</time>
      </trkpt>
      <trkpt lat="45.00689" lon="5.80682">
        <ele>1233.5999755859</ele>
        <time>2023-10-01T11:20:05.000Z</time>
      </trkpt>
      <trkpt lat="45.00689" lon="5.80682">
        <ele>1233.5999755859</ele>
        <time>2023-10-01T11:20:06.000Z</time>
      </trkpt>
      <trkpt lat="45.00689" lon="5.80682">
        <ele>1233.5999755859</ele>
        <time>2023-10-01T11:20:07.000Z</time>
      </trkpt>
      <trkpt lat="45.00689" lon="5.80682">
        <ele>1233.5999755859</ele>
        <time>2023-10-01T11:20:08.000Z</time>
      </trkpt>
      <trkpt lat="45.00689" lon="5.80681">
        <ele>1233.5999755859</ele>
        <time>2023-10-01T11:20:09.000Z</time>
      </trkpt>
      <trkpt lat="45.00689" lon="5.80681">
        <ele>1233.5999755859</ele>
        <time>2023-10-01T11:20:10.000Z</time>
      </trkpt>
      <trkpt lat="45.00689" lon="5.80681">
        <ele>1233.5999755859</ele>
        <time>2023-10-01T11:20:11.000Z</time>
      </trkpt>
      <trkpt lat="45.00689" lon="5.80681">
        <ele>1233.5999755859</ele>
        <time>2023-10-01T11:20:12.000Z</time>
      </trkpt>
      <trkpt lat="45.00689" lon="5.80681">
        <ele>1233.5999755859</ele>
        <time>2023-10-01T11:20:13.000Z</time>
      </trkpt>
      <trkpt lat="45.00689" lon="5.80681">
        <ele>1233.4000244141</ele>
        <time>2023-10-01T11:20:14.000Z</time>
      </trkpt>
      <trkpt lat="45.00689" lon="5.80681">
        <ele>1233.4000244141</ele>
        <time>2023-10-01T11:20:15.000Z</time>
      </trkpt>
      <trkpt lat="45.00689" lon="5.8068">
        <ele>1233.4000244141</ele>
        <time>2023-10-01T11:20:16.000Z</time>
      </trkpt>
      <trkpt lat="45.00689" lon="5.80679">
        <ele>1233.4000244141</ele>
        <time>2023-10-01T11:20:17.000Z</time>
      </trkpt>
      <trkpt lat="45.00688" lon="5.80679">
        <ele>1233.4000244141</ele>
        <time>2023-10-01T11:20:18.000Z</time>
      </trkpt>
      <trkpt lat="45.00688" lon="5.80678">
        <ele>1233.4000244141</ele>
        <time>2023-10-01T11:20:19.000Z</time>
      </trkpt>
      <trkpt lat="45.00688" lon="5.80678">
        <ele>1233.4000244141</ele>
        <time>2023-10-01T11:20:20.000Z</time>
      </trkpt>
      <trkpt lat="45.00688" lon="5.80678">
        <ele>1233.4000244141</ele>
        <time>2023-10-01T11:20:21.000Z</time>
      </trkpt>
      <trkpt lat="45.00688" lon="5.80676">
        <ele>1233.4000244141</ele>
        <time>2023-10-01T11:20:22.000Z</time>
      </trkpt>
      <trkpt lat="45.00688" lon="5.80675">
        <ele>1233.1999511719</ele>
        <time>2023-10-01T11:20:23.000Z</time>
      </trkpt>
      <trkpt lat="45.00688" lon="5.80675">
        <ele>1233</ele>
        <time>2023-10-01T11:20:24.000Z</time>
      </trkpt>
      <trkpt lat="45.00688" lon="5.80675">
        <ele>1232.8000488281</ele>
        <time>2023-10-01T11:20:25.000Z</time>
      </trkpt>
      <trkpt lat="45.00688" lon="5.80672">
        <ele>1232.4000244141</ele>
        <time>2023-10-01T11:20:26.000Z</time>
      </trkpt>
      <trkpt lat="45.00688" lon="5.80671">
        <ele>1232.1999511719</ele>
        <time>2023-10-01T11:20:27.000Z</time>
      </trkpt>
      <trkpt lat="45.00688" lon="5.8067">
        <ele>1231.8000488281</ele>
        <time>2023-10-01T11:20:28.000Z</time>
      </trkpt>
      <trkpt lat="45.00688" lon="5.8067">
        <ele>1231.5999755859</ele>
        <time>2023-10-01T11:20:29.000Z</time>
      </trkpt>
      <trkpt lat="45.00688" lon="5.80667">
        <ele>1231.4000244141</ele>
        <time>2023-10-01T11:20:30.000Z</time>
      </trkpt>
      <trkpt lat="45.00688" lon="5.80668">
        <ele>1231</ele>
        <time>2023-10-01T11:20:31.000Z</time>
      </trkpt>
      <trkpt lat="45.00688" lon="5.80668">
        <ele>1230.5999755859</ele>
        <time>2023-10-01T11:20:32.000Z</time>
      </trkpt>
      <trkpt lat="45.00688" lon="5.80667">
        <ele>1230.1999511719</ele>
        <time>2023-10-01T11:20:33.000Z</time>
      </trkpt>
      <trkpt lat="45.00688" lon="5.80667">
        <ele>1230</ele>
        <time>2023-10-01T11:20:34.000Z</time>
      </trkpt>
      <trkpt lat="45.00688" lon="5.80667">
        <ele>1229.8000488281</ele>
        <time>2023-10-01T11:20:35.000Z</time>
      </trkpt>
      <trkpt lat="45.00688" lon="5.80667">
        <ele>1229.8000488281</ele>
        <time>2023-10-01T11:20:36.000Z</time>
      </trkpt>
      <trkpt lat="45.00688" lon="5.80667">
        <ele>1229.8000488281</ele>
        <time>2023-10-01T11:20:37.000Z</time>
      </trkpt>
      <trkpt lat="45.00688" lon="5.80667">
        <ele>1229.5999755859</ele>
        <time>2023-10-01T11:20:38.000Z</time>
      </trkpt>
      <trkpt lat="45.00688" lon="5.80667">
        <ele>1229.5999755859</ele>
        <time>2023-10-01T11:20:39.000Z</time>
      </trkpt>
      <trkpt lat="45.00688" lon="5.80667">
        <ele>1229.5999755859</ele>
        <time>2023-10-01T11:20:40.000Z</time>
      </trkpt>
      <trkpt lat="45.00688" lon="5.80667">
        <ele>1229.5999755859</ele>
        <time>2023-10-01T11:20:41.000Z</time>
      </trkpt>
      <trkpt lat="45.00688" lon="5.80666">
        <ele>1229.5999755859</ele>
        <time>2023-10-01T11:20:42.000Z</time>
      </trkpt>
      <trkpt lat="45.00688" lon="5.80666">
        <ele>1229.5999755859</ele>
        <time>2023-10-01T11:20:43.000Z</time>
      </trkpt>
      <trkpt lat="45.00688" lon="5.80666">
        <ele>1229.5999755859</ele>
        <time>2023-10-01T11:20:44.000Z</time>
      </trkpt>
      <trkpt lat="45.00688" lon="5.80666">
        <ele>1229.5999755859</ele>
        <time>2023-10-01T11:20:45.000Z</time>
      </trkpt>
      <trkpt lat="45.00688" lon="5.80667">
        <ele>1229.5999755859</ele>
        <time>2023-10-01T11:20:46.000Z</time>
      </trkpt>
      <trkpt lat="45.00688" lon="5.80668">
        <ele>1229.5999755859</ele>
        <time>2023-10-01T11:20:47.000Z</time>
      </trkpt>
      <trkpt lat="45.00688" lon="5.80669">
        <ele>1229.5999755859</ele>
        <time>2023-10-01T11:20:48.000Z</time>
      </trkpt>
      <trkpt lat="45.00688" lon="5.80669">
        <ele>1229.5999755859</ele>
        <time>2023-10-01T11:20:49.000Z</time>
      </trkpt>
      <trkpt lat="45.00688" lon="5.80669">
        <ele>1229.8000488281</ele>
        <time>2023-10-01T11:20:50.000Z</time>
      </trkpt>
      <trkpt lat="45.00688" lon="5.8067">
        <ele>1230</ele>
        <time>2023-10-01T11:20:51.000Z</time>
      </trkpt>
      <trkpt lat="45.00688" lon="5.80668">
        <ele>1230</ele>
        <time>2023-10-01T11:20:52.000Z</time>
      </trkpt>
      <trkpt lat="45.00688" lon="5.80671">
        <ele>1230.1999511719</ele>
        <time>2023-10-01T11:20:53.000Z</time>
      </trkpt>
      <trkpt lat="45.00688" lon="5.80671">
        <ele>1230.1999511719</ele>
        <time>2023-10-01T11:20:54.000Z</time>
      </trkpt>
      <trkpt lat="45.00688" lon="5.80671">
        <ele>1230.4000244141</ele>
        <time>2023-10-01T11:20:55.000Z</time>
      </trkpt>
      <trkpt lat="45.00688" lon="5.80671">
        <ele>1230.4000244141</ele>
        <time>2023-10-01T11:20:56.000Z</time>
      </trkpt>
      <trkpt lat="45.00688" lon="5.80671">
        <ele>1230.5999755859</ele>
        <time>2023-10-01T11:20:57.000Z</time>
      </trkpt>
      <trkpt lat="45.00688" lon="5.80673">
        <ele>1230.5999755859</ele>
        <time>2023-10-01T11:20:58.000Z</time>
      </trkpt>
      <trkpt lat="45.00689" lon="5.80674">
        <ele>1230.8000488281</ele>
        <time>2023-10-01T11:20:59.000Z</time>
      </trkpt>
      <trkpt lat="45.00689" lon="5.80674">
        <ele>1231</ele>
        <time>2023-10-01T11:21:00.000Z</time>
      </trkpt>
      <trkpt lat="45.00689" lon="5.80674">
        <ele>1231.1999511719</ele>
        <time>2023-10-01T11:21:01.000Z</time>
      </trkpt>
      <trkpt lat="45.00689" lon="5.80674">
        <ele>1231.1999511719</ele>
        <time>2023-10-01T11:21:02.000Z</time>
      </trkpt>
      <trkpt lat="45.00689" lon="5.80674">
        <ele>1231.5999755859</ele>
        <time>2023-10-01T11:21:03.000Z</time>
      </trkpt>
      <trkpt lat="45.00688" lon="5.80675">
        <ele>1231.5999755859</ele>
        <time>2023-10-01T11:21:04.000Z</time>
      </trkpt>
      <trkpt lat="45.00688" lon="5.80675">
        <ele>1231.5999755859</ele>
        <time>2023-10-01T11:21:05.000Z</time>
      </trkpt>
      <trkpt lat="45.00688" lon="5.80675">
        <ele>1231.8000488281</ele>
        <time>2023-10-01T11:21:06.000Z</time>
      </trkpt>
      <trkpt lat="45.00688" lon="5.80675">
        <ele>1231.8000488281</ele>
        <time>2023-10-01T11:21:07.000Z</time>
      </trkpt>
      <trkpt lat="45.00689" lon="5.80674">
        <ele>1232</ele>
        <time>2023-10-01T11:21:08.000Z</time>
      </trkpt>
      <trkpt lat="45.00688" lon="5.80675">
        <ele>1232</ele>
        <time>2023-10-01T11:21:09.000Z</time>
      </trkpt>
      <trkpt lat="45.00689" lon="5.80674">
        <ele>1232</ele>
        <time>2023-10-01T11:21:10.000Z</time>
      </trkpt>
      <trkpt lat="45.00689" lon="5.80674">
        <ele>1232</ele>
        <time>2023-10-01T11:21:11.000Z</time>
      </trkpt>
      <trkpt lat="45.00688" lon="5.80675">
        <ele>1232</ele>
        <time>2023-10-01T11:21:12.000Z</time>
      </trkpt>
      <trkpt lat="45.00688" lon="5.80675">
        <ele>1232</ele>
        <time>2023-10-01T11:21:13.000Z</time>
      </trkpt>
      <trkpt lat="45.00689" lon="5.80674">
        <ele>1232</ele>
        <time>2023-10-01T11:21:14.000Z</time>
      </trkpt>
      <trkpt lat="45.00689" lon="5.80674">
        <ele>1232</ele>
        <time>2023-10-01T11:21:15.000Z</time>
      </trkpt>
      <trkpt lat="45.00689" lon="5.80674">
        <ele>1232</ele>
        <time>2023-10-01T11:21:16.000Z</time>
      </trkpt>
      <trkpt lat="45.00689" lon="5.80674">
        <ele>1231.8000488281</ele>
        <time>2023-10-01T11:21:17.000Z</time>
      </trkpt>
      <trkpt lat="45.00689" lon="5.80674">
        <ele>1231.8000488281</ele>
        <time>2023-10-01T11:21:18.000Z</time>
      </trkpt>
      <trkpt lat="45.00688" lon="5.80678">
        <ele>1231.8000488281</ele>
        <time>2023-10-01T11:21:19.000Z</time>
      </trkpt>
      <trkpt lat="45.00689" lon="5.80678">
        <ele>1231.8000488281</ele>
        <time>2023-10-01T11:21:20.000Z</time>
      </trkpt>
      <trkpt lat="45.00689" lon="5.80678">
        <ele>1232</ele>
        <time>2023-10-01T11:21:21.000Z</time>
      </trkpt>
      <trkpt lat="45.00689" lon="5.80679">
        <ele>1232</ele>
        <time>2023-10-01T11:21:22.000Z</time>
      </trkpt>
      <trkpt lat="45.00689" lon="5.80679">
        <ele>1232.1999511719</ele>
        <time>2023-10-01T11:21:23.000Z</time>
      </trkpt>
      <trkpt lat="45.00689" lon="5.80678">
        <ele>1232.1999511719</ele>
        <time>2023-10-01T11:21:24.000Z</time>
      </trkpt>
      <trkpt lat="45.00689" lon="5.80678">
        <ele>1232.4000244141</ele>
        <time>2023-10-01T11:21:25.000Z</time>
      </trkpt>
      <trkpt lat="45.00689" lon="5.80678">
        <ele>1232.4000244141</ele>
        <time>2023-10-01T11:21:26.000Z</time>
      </trkpt>
      <trkpt lat="45.00689" lon="5.80678">
        <ele>1232.4000244141</ele>
        <time>2023-10-01T11:21:27.000Z</time>
      </trkpt>
      <trkpt lat="45.00689" lon="5.80678">
        <ele>1232.5999755859</ele>
        <time>2023-10-01T11:21:28.000Z</time>
      </trkpt>
      <trkpt lat="45.00689" lon="5.80679">
        <ele>1232.8000488281</ele>
        <time>2023-10-01T11:21:29.000Z</time>
      </trkpt>
      <trkpt lat="45.00689" lon="5.80678">
        <ele>1232.8000488281</ele>
        <time>2023-10-01T11:21:30.000Z</time>
      </trkpt>
      <trkpt lat="45.00689" lon="5.80679">
        <ele>1232.8000488281</ele>
        <time>2023-10-01T11:21:31.000Z</time>
      </trkpt>
      <trkpt lat="45.00689" lon="5.80678">
        <ele>1232.8000488281</ele>
        <time>2023-10-01T11:21:32.000Z</time>
      </trkpt>
      <trkpt lat="45.00689" lon="5.80679">
        <ele>1232.8000488281</ele>
        <time>2023-10-01T11:21:33.000Z</time>
      </trkpt>
      <trkpt lat="45.00689" lon="5.80678">
        <ele>1232.8000488281</ele>
        <time>2023-10-01T11:21:34.000Z</time>
      </trkpt>
      <trkpt lat="45.00689" lon="5.80678">
        <ele>1232.8000488281</ele>
        <time>2023-10-01T11:21:35.000Z</time>
      </trkpt>
      <trkpt lat="45.00689" lon="5.8068">
        <ele>1232.8000488281</ele>
        <time>2023-10-01T11:21:36.000Z</time>
      </trkpt>
      <trkpt lat="45.00689" lon="5.80681">
        <ele>1232.8000488281</ele>
        <time>2023-10-01T11:21:37.000Z</time>
      </trkpt>
      <trkpt lat="45.00689" lon="5.80681">
        <ele>1232.8000488281</ele>
        <time>2023-10-01T11:21:38.000Z</time>
      </trkpt>
      <trkpt lat="45.00689" lon="5.80681">
        <ele>1233</ele>
        <time>2023-10-01T11:21:39.000Z</time>
      </trkpt>
      <trkpt lat="45.00689" lon="5.80681">
        <ele>1233</ele>
        <time>2023-10-01T11:21:40.000Z</time>
      </trkpt>
      <trkpt lat="45.00689" lon="5.80681">
        <ele>1233</ele>
        <time>2023-10-01T11:21:41.000Z</time>
      </trkpt>
      <trkpt lat="45.00689" lon="5.80681">
        <ele>1233</ele>
        <time>2023-10-01T11:21:42.000Z</time>
      </trkpt>
      <trkpt lat="45.00689" lon="5.80681">
        <ele>1233</ele>
        <time>2023-10-01T11:21:43.000Z</time>
      </trkpt>
      <trkpt lat="45.00689" lon="5.80681">
        <ele>1233</ele>
        <time>2023-10-01T11:21:44.000Z</time>
      </trkpt>
      <trkpt lat="45.00689" lon="5.80681">
        <ele>1233</ele>
        <time>2023-10-01T11:21:45.000Z</time>
      </trkpt>
      <trkpt lat="45.00689" lon="5.80681">
        <ele>1233</ele>
        <time>2023-10-01T11:21:46.000Z</time>
      </trkpt>
      <trkpt lat="45.00689" lon="5.80681">
        <ele>1233.1999511719</ele>
        <time>2023-10-01T11:21:47.000Z</time>
      </trkpt>
      <trkpt lat="45.00689" lon="5.80681">
        <ele>1233</ele>
        <time>2023-10-01T11:21:48.000Z</time>
      </trkpt>
      <trkpt lat="45.00689" lon="5.80681">
        <ele>1233.1999511719</ele>
        <time>2023-10-01T11:21:49.000Z</time>
      </trkpt>
      <trkpt lat="45.00689" lon="5.80681">
        <ele>1233.1999511719</ele>
        <time>2023-10-01T11:21:50.000Z</time>
      </trkpt>
      <trkpt lat="45.00689" lon="5.80681">
        <ele>1233.1999511719</ele>
        <time>2023-10-01T11:21:51.000Z</time>
      </trkpt>
      <trkpt lat="45.00689" lon="5.80681">
        <ele>1233.1999511719</ele>
        <time>2023-10-01T11:21:52.000Z</time>
      </trkpt>
      <trkpt lat="45.00689" lon="5.80681">
        <ele>1233</ele>
        <time>2023-10-01T11:21:53.000Z</time>
      </trkpt>
      <trkpt lat="45.00689" lon="5.80681">
        <ele>1233</ele>
        <time>2023-10-01T11:21:54.000Z</time>
      </trkpt>
      <trkpt lat="45.00689" lon="5.80681">
        <ele>1233</ele>
        <time>2023-10-01T11:21:55.000Z</time>
      </trkpt>
      <trkpt lat="45.00689" lon="5.80681">
        <ele>1233</ele>
        <time>2023-10-01T11:21:56.000Z</time>
      </trkpt>
      <trkpt lat="45.00689" lon="5.80679">
        <ele>1233</ele>
        <time>2023-10-01T11:21:57.000Z</time>
      </trkpt>
      <trkpt lat="45.00689" lon="5.8068">
        <ele>1232.8000488281</ele>
        <time>2023-10-01T11:21:58.000Z</time>
      </trkpt>
      <trkpt lat="45.00689" lon="5.8068">
        <ele>1232.8000488281</ele>
        <time>2023-10-01T11:21:59.000Z</time>
      </trkpt>
      <trkpt lat="45.00689" lon="5.80681">
        <ele>1232.8000488281</ele>
        <time>2023-10-01T11:22:00.000Z</time>
      </trkpt>
      <trkpt lat="45.00689" lon="5.80681">
        <ele>1232.8000488281</ele>
        <time>2023-10-01T11:22:01.000Z</time>
      </trkpt>
      <trkpt lat="45.00689" lon="5.80681">
        <ele>1233</ele>
        <time>2023-10-01T11:22:02.000Z</time>
      </trkpt>
      <trkpt lat="45.00689" lon="5.80681">
        <ele>1233</ele>
        <time>2023-10-01T11:22:03.000Z</time>
      </trkpt>
      <trkpt lat="45.00689" lon="5.80681">
        <ele>1233</ele>
        <time>2023-10-01T11:22:04.000Z</time>
      </trkpt>
      <trkpt lat="45.00689" lon="5.80681">
        <ele>1233</ele>
        <time>2023-10-01T11:22:05.000Z</time>
      </trkpt>
      <trkpt lat="45.00689" lon="5.80681">
        <ele>1233</ele>
        <time>2023-10-01T11:22:06.000Z</time>
      </trkpt>
      <trkpt lat="45.00689" lon="5.80681">
        <ele>1233</ele>
        <time>2023-10-01T11:22:07.000Z</time>
      </trkpt>
      <trkpt lat="45.00689" lon="5.80681">
        <ele>1233</ele>
        <time>2023-10-01T11:22:08.000Z</time>
      </trkpt>
      <trkpt lat="45.00689" lon="5.80681">
        <ele>1233</ele>
        <time>2023-10-01T11:22:09.000Z</time>
      </trkpt>
      <trkpt lat="45.00689" lon="5.80681">
        <ele>1233</ele>
        <time>2023-10-01T11:22:10.000Z</time>
      </trkpt>
      <trkpt lat="45.00689" lon="5.80681">
        <ele>1233</ele>
        <time>2023-10-01T11:22:11.000Z</time>
      </trkpt>
      <trkpt lat="45.00689" lon="5.80681">
        <ele>1232.8000488281</ele>
        <time>2023-10-01T11:22:12.000Z</time>
      </trkpt>
      <trkpt lat="45.00689" lon="5.80681">
        <ele>1232.8000488281</ele>
        <time>2023-10-01T11:22:13.000Z</time>
      </trkpt>
      <trkpt lat="45.00689" lon="5.80681">
        <ele>1233</ele>
        <time>2023-10-01T11:22:14.000Z</time>
      </trkpt>
      <trkpt lat="45.00689" lon="5.80681">
        <ele>1233</ele>
        <time>2023-10-01T11:22:15.000Z</time>
      </trkpt>
      <trkpt lat="45.00689" lon="5.80681">
        <ele>1233</ele>
        <time>2023-10-01T11:22:16.000Z</time>
      </trkpt>
      <trkpt lat="45.00689" lon="5.80681">
        <ele>1233</ele>
        <time>2023-10-01T11:22:17.000Z</time>
      </trkpt>
      <trkpt lat="45.00689" lon="5.80681">
        <ele>1233</ele>
        <time>2023-10-01T11:22:18.000Z</time>
      </trkpt>
      <trkpt lat="45.00689" lon="5.80681">
        <ele>1233</ele>
        <time>2023-10-01T11:22:19.000Z</time>
      </trkpt>
      <trkpt lat="45.00689" lon="5.80681">
        <ele>1233.1999511719</ele>
        <time>2023-10-01T11:22:20.000Z</time>
      </trkpt>
      <trkpt lat="45.00689" lon="5.80681">
        <ele>1233.1999511719</ele>
        <time>2023-10-01T11:22:21.000Z</time>
      </trkpt>
      <trkpt lat="45.00689" lon="5.80681">
        <ele>1233.1999511719</ele>
        <time>2023-10-01T11:22:22.000Z</time>
      </trkpt>
      <trkpt lat="45.00689" lon="5.80681">
        <ele>1233.1999511719</ele>
        <time>2023-10-01T11:22:23.000Z</time>
      </trkpt>
      <trkpt lat="45.00689" lon="5.80681">
        <ele>1233.1999511719</ele>
        <time>2023-10-01T11:22:24.000Z</time>
      </trkpt>
      <trkpt lat="45.00689" lon="5.80682">
        <ele>1233</ele>
        <time>2023-10-01T11:22:25.000Z</time>
      </trkpt>
      <trkpt lat="45.00689" lon="5.80682">
        <ele>1233</ele>
        <time>2023-10-01T11:22:26.000Z</time>
      </trkpt>
      <trkpt lat="45.00689" lon="5.80682">
        <ele>1233</ele>
        <time>2023-10-01T11:22:27.000Z</time>
      </trkpt>
      <trkpt lat="45.00689" lon="5.80682">
        <ele>1233</ele>
        <time>2023-10-01T11:22:28.000Z</time>
      </trkpt>
      <trkpt lat="45.00689" lon="5.80682">
        <ele>1233</ele>
        <time>2023-10-01T11:22:29.000Z</time>
      </trkpt>
      <trkpt lat="45.00689" lon="5.80682">
        <ele>1233</ele>
        <time>2023-10-01T11:22:30.000Z</time>
      </trkpt>
      <trkpt lat="45.00689" lon="5.80682">
        <ele>1233</ele>
        <time>2023-10-01T11:22:31.000Z</time>
      </trkpt>
      <trkpt lat="45.00689" lon="5.80682">
        <ele>1233</ele>
        <time>2023-10-01T11:22:32.000Z</time>
      </trkpt>
      <trkpt lat="45.00689" lon="5.80682">
        <ele>1233</ele>
        <time>2023-10-01T11:22:33.000Z</time>
      </trkpt>
      <trkpt lat="45.0069" lon="5.80682">
        <ele>1232.8000488281</ele>
        <time>2023-10-01T11:22:34.000Z</time>
      </trkpt>
      <trkpt lat="45.0069" lon="5.80682">
        <ele>1232.8000488281</ele>
        <time>2023-10-01T11:22:35.000Z</time>
      </trkpt>
      <trkpt lat="45.0069" lon="5.80683">
        <ele>1232.8000488281</ele>
        <time>2023-10-01T11:22:36.000Z</time>
      </trkpt>
      <trkpt lat="45.0069" lon="5.80683">
        <ele>1232.8000488281</ele>
        <time>2023-10-01T11:22:37.000Z</time>
      </trkpt>
      <trkpt lat="45.00689" lon="5.80682">
        <ele>1232.8000488281</ele>
        <time>2023-10-01T11:22:38.000Z</time>
      </trkpt>
      <trkpt lat="45.00689" lon="5.80682">
        <ele>1232.8000488281</ele>
        <time>2023-10-01T11:22:39.000Z</time>
      </trkpt>
      <trkpt lat="45.0069" lon="5.80682">
        <ele>1232.8000488281</ele>
        <time>2023-10-01T11:22:40.000Z</time>
      </trkpt>
      <trkpt lat="45.0069" lon="5.80682">
        <ele>1232.8000488281</ele>
        <time>2023-10-01T11:22:41.000Z</time>
      </trkpt>
      <trkpt lat="45.0069" lon="5.80682">
        <ele>1232.5999755859</ele>
        <time>2023-10-01T11:22:42.000Z</time>
      </trkpt>
      <trkpt lat="45.0069" lon="5.80682">
        <ele>1232.5999755859</ele>
        <time>2023-10-01T11:22:43.000Z</time>
      </trkpt>
      <trkpt lat="45.0069" lon="5.80682">
        <ele>1232.5999755859</ele>
        <time>2023-10-01T11:22:44.000Z</time>
      </trkpt>
      <trkpt lat="45.0069" lon="5.80682">
        <ele>1232.5999755859</ele>
        <time>2023-10-01T11:22:45.000Z</time>
      </trkpt>
      <trkpt lat="45.00689" lon="5.80682">
        <ele>1232.5999755859</ele>
        <time>2023-10-01T11:22:46.000Z</time>
      </trkpt>
      <trkpt lat="45.00689" lon="5.80679">
        <ele>1232.4000244141</ele>
        <time>2023-10-01T11:22:47.000Z</time>
      </trkpt>
      <trkpt lat="45.00689" lon="5.80678">
        <ele>1232.4000244141</ele>
        <time>2023-10-01T11:22:48.000Z</time>
      </trkpt>
      <trkpt lat="45.00688" lon="5.80677">
        <ele>1232.4000244141</ele>
        <time>2023-10-01T11:22:49.000Z</time>
      </trkpt>
      <trkpt lat="45.00689" lon="5.80676">
        <ele>1232.4000244141</ele>
        <time>2023-10-01T11:22:50.000Z</time>
      </trkpt>
      <trkpt lat="45.00688" lon="5.80675">
        <ele>1232.1999511719</ele>
        <time>2023-10-01T11:22:51.000Z</time>
      </trkpt>
      <trkpt lat="45.00688" lon="5.80674">
        <ele>1232</ele>
        <time>2023-10-01T11:22:52.000Z</time>
      </trkpt>
      <trkpt lat="45.00688" lon="5.80673">
        <ele>1231.8000488281</ele>
        <time>2023-10-01T11:22:53.000Z</time>
      </trkpt>
      <trkpt lat="45.00688" lon="5.80672">
        <ele>1231.4000244141</ele>
        <time>2023-10-01T11:22:54.000Z</time>
      </trkpt>
      <trkpt lat="45.00688" lon="5.80672">
        <ele>1231.1999511719</ele>
        <time>2023-10-01T11:22:55.000Z</time>
      </trkpt>
      <trkpt lat="45.00688" lon="5.8067">
        <ele>1230.8000488281</ele>
        <time>2023-10-01T11:22:56.000Z</time>
      </trkpt>
      <trkpt lat="45.00688" lon="5.80669">
        <ele>1230.5999755859</ele>
        <time>2023-10-01T11:22:57.000Z</time>
      </trkpt>
      <trkpt lat="45.00688" lon="5.80668">
        <ele>1230.1999511719</ele>
        <time>2023-10-01T11:22:58.000Z</time>
      </trkpt>
      <trkpt lat="45.00688" lon="5.80666">
        <ele>1229.8000488281</ele>
        <time>2023-10-01T11:22:59.000Z</time>
      </trkpt>
      <trkpt lat="45.00688" lon="5.80665">
        <ele>1229.5999755859</ele>
        <time>2023-10-01T11:23:00.000Z</time>
      </trkpt>
      <trkpt lat="45.00688" lon="5.80664">
        <ele>1229.4000244141</ele>
        <time>2023-10-01T11:23:01.000Z</time>
      </trkpt>
      <trkpt lat="45.00688" lon="5.80662">
        <ele>1229</ele>
        <time>2023-10-01T11:23:02.000Z</time>
      </trkpt>
      <trkpt lat="45.00688" lon="5.80661">
        <ele>1228.8000488281</ele>
        <time>2023-10-01T11:23:03.000Z</time>
      </trkpt>
      <trkpt lat="45.00688" lon="5.8066">
        <ele>1228.4000244141</ele>
        <time>2023-10-01T11:23:04.000Z</time>
      </trkpt>
      <trkpt lat="45.00688" lon="5.80659">
        <ele>1228.1999511719</ele>
        <time>2023-10-01T11:23:05.000Z</time>
      </trkpt>
      <trkpt lat="45.00689" lon="5.80658">
        <ele>1227.8000488281</ele>
        <time>2023-10-01T11:23:06.000Z</time>
      </trkpt>
      <trkpt lat="45.00689" lon="5.80657">
        <ele>1227.4000244141</ele>
        <time>2023-10-01T11:23:07.000Z</time>
      </trkpt>
      <trkpt lat="45.00689" lon="5.80656">
        <ele>1227</ele>
        <time>2023-10-01T11:23:08.000Z</time>
      </trkpt>
      <trkpt lat="45.00689" lon="5.80656">
        <ele>1226.5999755859</ele>
        <time>2023-10-01T11:23:09.000Z</time>
      </trkpt>
      <trkpt lat="45.00689" lon="5.80654">
        <ele>1226.4000244141</ele>
        <time>2023-10-01T11:23:10.000Z</time>
      </trkpt>
      <trkpt lat="45.00689" lon="5.80653">
        <ele>1226</ele>
        <time>2023-10-01T11:23:11.000Z</time>
      </trkpt>
      <trkpt lat="45.00689" lon="5.80652">
        <ele>1225.8000488281</ele>
        <time>2023-10-01T11:23:12.000Z</time>
      </trkpt>
      <trkpt lat="45.00689" lon="5.80651">
        <ele>1225.5999755859</ele>
        <time>2023-10-01T11:23:13.000Z</time>
      </trkpt>
      <trkpt lat="45.00689" lon="5.80651">
        <ele>1225.4000244141</ele>
        <time>2023-10-01T11:23:14.000Z</time>
      </trkpt>
      <trkpt lat="45.00689" lon="5.8065">
        <ele>1225</ele>
        <time>2023-10-01T11:23:15.000Z</time>
      </trkpt>
      <trkpt lat="45.00689" lon="5.80649">
        <ele>1224.8000488281</ele>
        <time>2023-10-01T11:23:16.000Z</time>
      </trkpt>
      <trkpt lat="45.00689" lon="5.80648">
        <ele>1224.5999755859</ele>
        <time>2023-10-01T11:23:17.000Z</time>
      </trkpt>
      <trkpt lat="45.0069" lon="5.80645">
        <ele>1224.1999511719</ele>
        <time>2023-10-01T11:23:18.000Z</time>
      </trkpt>
      <trkpt lat="45.00691" lon="5.80643">
        <ele>1223.8000488281</ele>
        <time>2023-10-01T11:23:19.000Z</time>
      </trkpt>
      <trkpt lat="45.00691" lon="5.80641">
        <ele>1223.4000244141</ele>
        <time>2023-10-01T11:23:20.000Z</time>
      </trkpt>
      <trkpt lat="45.00692" lon="5.80639">
        <ele>1223</ele>
        <time>2023-10-01T11:23:21.000Z</time>
      </trkpt>
      <trkpt lat="45.00692" lon="5.80638">
        <ele>1222.5999755859</ele>
        <time>2023-10-01T11:23:22.000Z</time>
      </trkpt>
      <trkpt lat="45.00693" lon="5.80636">
        <ele>1222.4000244141</ele>
        <time>2023-10-01T11:23:23.000Z</time>
      </trkpt>
      <trkpt lat="45.00693" lon="5.80635">
        <ele>1222.1999511719</ele>
        <time>2023-10-01T11:23:24.000Z</time>
      </trkpt>
      <trkpt lat="45.00694" lon="5.80634">
        <ele>1222</ele>
        <time>2023-10-01T11:23:25.000Z</time>
      </trkpt>
      <trkpt lat="45.00694" lon="5.80633">
        <ele>1222</ele>
        <time>2023-10-01T11:23:26.000Z</time>
      </trkpt>
      <trkpt lat="45.00694" lon="5.80633">
        <ele>1222</ele>
        <time>2023-10-01T11:23:27.000Z</time>
      </trkpt>
      <trkpt lat="45.00694" lon="5.80632">
        <ele>1221.5999755859</ele>
        <time>2023-10-01T11:23:28.000Z</time>
      </trkpt>
      <trkpt lat="45.00694" lon="5.80631">
        <ele>1221.4000244141</ele>
        <time>2023-10-01T11:23:29.000Z</time>
      </trkpt>
      <trkpt lat="45.00694" lon="5.80629">
        <ele>1221.1999511719</ele>
        <time>2023-10-01T11:23:30.000Z</time>
      </trkpt>
      <trkpt lat="45.00694" lon="5.80628">
        <ele>1221</ele>
        <time>2023-10-01T11:23:31.000Z</time>
      </trkpt>
      <trkpt lat="45.00694" lon="5.80627">
        <ele>1220.5999755859</ele>
        <time>2023-10-01T11:23:32.000Z</time>
      </trkpt>
      <trkpt lat="45.00695" lon="5.80625">
        <ele>1220.1999511719</ele>
        <time>2023-10-01T11:23:33.000Z</time>
      </trkpt>
      <trkpt lat="45.00696" lon="5.80623">
        <ele>1219.5999755859</ele>
        <time>2023-10-01T11:23:34.000Z</time>
      </trkpt>
      <trkpt lat="45.00696" lon="5.80621">
        <ele>1219.4000244141</ele>
        <time>2023-10-01T11:23:35.000Z</time>
      </trkpt>
      <trkpt lat="45.00697" lon="5.8062">
        <ele>1219</ele>
        <time>2023-10-01T11:23:36.000Z</time>
      </trkpt>
      <trkpt lat="45.00697" lon="5.80619">
        <ele>1218.5999755859</ele>
        <time>2023-10-01T11:23:37.000Z</time>
      </trkpt>
      <trkpt lat="45.00697" lon="5.80618">
        <ele>1218.1999511719</ele>
        <time>2023-10-01T11:23:38.000Z</time>
      </trkpt>
      <trkpt lat="45.00697" lon="5.80617">
        <ele>1217.5999755859</ele>
        <time>2023-10-01T11:23:39.000Z</time>
      </trkpt>
      <trkpt lat="45.00697" lon="5.80616">
        <ele>1217.1999511719</ele>
        <time>2023-10-01T11:23:40.000Z</time>
      </trkpt>
      <trkpt lat="45.00697" lon="5.80614">
        <ele>1217</ele>
        <time>2023-10-01T11:23:41.000Z</time>
      </trkpt>
      <trkpt lat="45.00697" lon="5.80612">
        <ele>1216.8000488281</ele>
        <time>2023-10-01T11:23:42.000Z</time>
      </trkpt>
      <trkpt lat="45.00697" lon="5.80611">
        <ele>1216.5999755859</ele>
        <time>2023-10-01T11:23:43.000Z</time>
      </trkpt>
      <trkpt lat="45.00697" lon="5.80608">
        <ele>1216.1999511719</ele>
        <time>2023-10-01T11:23:44.000Z</time>
      </trkpt>
      <trkpt lat="45.00697" lon="5.80607">
        <ele>1215.8000488281</ele>
        <time>2023-10-01T11:23:45.000Z</time>
      </trkpt>
      <trkpt lat="45.00697" lon="5.80605">
        <ele>1215.5999755859</ele>
        <time>2023-10-01T11:23:46.000Z</time>
      </trkpt>
      <trkpt lat="45.00698" lon="5.80604">
        <ele>1215.1999511719</ele>
        <time>2023-10-01T11:23:47.000Z</time>
      </trkpt>
      <trkpt lat="45.00698" lon="5.80602">
        <ele>1214.5999755859</ele>
        <time>2023-10-01T11:23:48.000Z</time>
      </trkpt>
      <trkpt lat="45.00698" lon="5.80601">
        <ele>1214.1999511719</ele>
        <time>2023-10-01T11:23:49.000Z</time>
      </trkpt>
      <trkpt lat="45.00698" lon="5.80601">
        <ele>1214</ele>
        <time>2023-10-01T11:23:50.000Z</time>
      </trkpt>
      <trkpt lat="45.00698" lon="5.80601">
        <ele>1213.5999755859</ele>
        <time>2023-10-01T11:23:51.000Z</time>
      </trkpt>
      <trkpt lat="45.00698" lon="5.806">
        <ele>1213.4000244141</ele>
        <time>2023-10-01T11:23:52.000Z</time>
      </trkpt>
      <trkpt lat="45.00698" lon="5.806">
        <ele>1213</ele>
        <time>2023-10-01T11:23:53.000Z</time>
      </trkpt>
      <trkpt lat="45.00698" lon="5.80599">
        <ele>1212.8000488281</ele>
        <time>2023-10-01T11:23:54.000Z</time>
      </trkpt>
      <trkpt lat="45.00698" lon="5.80598">
        <ele>1212.5999755859</ele>
        <time>2023-10-01T11:23:55.000Z</time>
      </trkpt>
      <trkpt lat="45.00698" lon="5.80597">
        <ele>1212.4000244141</ele>
        <time>2023-10-01T11:23:56.000Z</time>
      </trkpt>
      <trkpt lat="45.00699" lon="5.80597">
        <ele>1212.4000244141</ele>
        <time>2023-10-01T11:23:57.000Z</time>
      </trkpt>
      <trkpt lat="45.00698" lon="5.80596">
        <ele>1212</ele>
        <time>2023-10-01T11:23:58.000Z</time>
      </trkpt>
      <trkpt lat="45.00698" lon="5.80595">
        <ele>1211.8000488281</ele>
        <time>2023-10-01T11:23:59.000Z</time>
      </trkpt>
      <trkpt lat="45.00698" lon="5.80594">
        <ele>1211.5999755859</ele>
        <time>2023-10-01T11:24:00.000Z</time>
      </trkpt>
      <trkpt lat="45.00698" lon="5.80594">
        <ele>1211.4000244141</ele>
        <time>2023-10-01T11:24:01.000Z</time>
      </trkpt>
      <trkpt lat="45.00698" lon="5.80592">
        <ele>1211</ele>
        <time>2023-10-01T11:24:02.000Z</time>
      </trkpt>
      <trkpt lat="45.00698" lon="5.80591">
        <ele>1210.5999755859</ele>
        <time>2023-10-01T11:24:03.000Z</time>
      </trkpt>
      <trkpt lat="45.00698" lon="5.80591">
        <ele>1210.4000244141</ele>
        <time>2023-10-01T11:24:04.000Z</time>
      </trkpt>
      <trkpt lat="45.00699" lon="5.8059">
        <ele>1210</ele>
        <time>2023-10-01T11:24:05.000Z</time>
      </trkpt>
      <trkpt lat="45.00699" lon="5.80589">
        <ele>1209.5999755859</ele>
        <time>2023-10-01T11:24:06.000Z</time>
      </trkpt>
      <trkpt lat="45.00699" lon="5.80588">
        <ele>1209.4000244141</ele>
        <time>2023-10-01T11:24:07.000Z</time>
      </trkpt>
      <trkpt lat="45.007" lon="5.80587">
        <ele>1209</ele>
        <time>2023-10-01T11:24:08.000Z</time>
      </trkpt>
      <trkpt lat="45.007" lon="5.80586">
        <ele>1208.8000488281</ele>
        <time>2023-10-01T11:24:09.000Z</time>
      </trkpt>
      <trkpt lat="45.00701" lon="5.80584">
        <ele>1208.4000244141</ele>
        <time>2023-10-01T11:24:10.000Z</time>
      </trkpt>
      <trkpt lat="45.00701" lon="5.80582">
        <ele>1208</ele>
        <time>2023-10-01T11:24:11.000Z</time>
      </trkpt>
      <trkpt lat="45.00702" lon="5.8058">
        <ele>1207.5999755859</ele>
        <time>2023-10-01T11:24:12.000Z</time>
      </trkpt>
      <trkpt lat="45.00702" lon="5.80578">
        <ele>1207.1999511719</ele>
        <time>2023-10-01T11:24:13.000Z</time>
      </trkpt>
      <trkpt lat="45.00702" lon="5.80577">
        <ele>1206.8000488281</ele>
        <time>2023-10-01T11:24:14.000Z</time>
      </trkpt>
      <trkpt lat="45.00702" lon="5.80575">
        <ele>1206.4000244141</ele>
        <time>2023-10-01T11:24:15.000Z</time>
      </trkpt>
      <trkpt lat="45.00702" lon="5.80574">
        <ele>1206</ele>
        <time>2023-10-01T11:24:16.000Z</time>
      </trkpt>
      <trkpt lat="45.00702" lon="5.80572">
        <ele>1205.5999755859</ele>
        <time>2023-10-01T11:24:17.000Z</time>
      </trkpt>
      <trkpt lat="45.00703" lon="5.8057">
        <ele>1205.4000244141</ele>
        <time>2023-10-01T11:24:18.000Z</time>
      </trkpt>
      <trkpt lat="45.00703" lon="5.80568">
        <ele>1205</ele>
        <time>2023-10-01T11:24:19.000Z</time>
      </trkpt>
      <trkpt lat="45.00703" lon="5.80567">
        <ele>1204.5999755859</ele>
        <time>2023-10-01T11:24:20.000Z</time>
      </trkpt>
      <trkpt lat="45.00703" lon="5.80565">
        <ele>1204.1999511719</ele>
        <time>2023-10-01T11:24:21.000Z</time>
      </trkpt>
      <trkpt lat="45.00703" lon="5.80564">
        <ele>1203.8000488281</ele>
        <time>2023-10-01T11:24:22.000Z</time>
      </trkpt>
      <trkpt lat="45.00703" lon="5.80563">
        <ele>1203.4000244141</ele>
        <time>2023-10-01T11:24:23.000Z</time>
      </trkpt>
      <trkpt lat="45.00702" lon="5.80561">
        <ele>1203</ele>
        <time>2023-10-01T11:24:24.000Z</time>
      </trkpt>
      <trkpt lat="45.00702" lon="5.80559">
        <ele>1202.5999755859</ele>
        <time>2023-10-01T11:24:25.000Z</time>
      </trkpt>
      <trkpt lat="45.00702" lon="5.80557">
        <ele>1202.1999511719</ele>
        <time>2023-10-01T11:24:26.000Z</time>
      </trkpt>
      <trkpt lat="45.00702" lon="5.80555">
        <ele>1201.8000488281</ele>
        <time>2023-10-01T11:24:27.000Z</time>
      </trkpt>
      <trkpt lat="45.00702" lon="5.80553">
        <ele>1201.4000244141</ele>
        <time>2023-10-01T11:24:28.000Z</time>
      </trkpt>
      <trkpt lat="45.00702" lon="5.80551">
        <ele>1201</ele>
        <time>2023-10-01T11:24:29.000Z</time>
      </trkpt>
      <trkpt lat="45.00703" lon="5.80549">
        <ele>1200.5999755859</ele>
        <time>2023-10-01T11:24:30.000Z</time>
      </trkpt>
      <trkpt lat="45.00703" lon="5.80547">
        <ele>1200.1999511719</ele>
        <time>2023-10-01T11:24:31.000Z</time>
      </trkpt>
      <trkpt lat="45.00703" lon="5.80545">
        <ele>1199.5999755859</ele>
        <time>2023-10-01T11:24:32.000Z</time>
      </trkpt>
      <trkpt lat="45.00703" lon="5.80542">
        <ele>1199</ele>
        <time>2023-10-01T11:24:33.000Z</time>
      </trkpt>
      <trkpt lat="45.00703" lon="5.80541">
        <ele>1198.4000244141</ele>
        <time>2023-10-01T11:24:34.000Z</time>
      </trkpt>
      <trkpt lat="45.00703" lon="5.80539">
        <ele>1198.1999511719</ele>
        <time>2023-10-01T11:24:35.000Z</time>
      </trkpt>
      <trkpt lat="45.00703" lon="5.80537">
        <ele>1197.8000488281</ele>
        <time>2023-10-01T11:24:36.000Z</time>
      </trkpt>
      <trkpt lat="45.00703" lon="5.80535">
        <ele>1197.1999511719</ele>
        <time>2023-10-01T11:24:37.000Z</time>
      </trkpt>
      <trkpt lat="45.00703" lon="5.80533">
        <ele>1197</ele>
        <time>2023-10-01T11:24:38.000Z</time>
      </trkpt>
      <trkpt lat="45.00703" lon="5.80531">
        <ele>1196.4000244141</ele>
        <time>2023-10-01T11:24:39.000Z</time>
      </trkpt>
      <trkpt lat="45.00703" lon="5.80529">
        <ele>1195.8000488281</ele>
        <time>2023-10-01T11:24:40.000Z</time>
      </trkpt>
      <trkpt lat="45.00703" lon="5.80528">
        <ele>1195.4000244141</ele>
        <time>2023-10-01T11:24:41.000Z</time>
      </trkpt>
      <trkpt lat="45.00703" lon="5.80526">
        <ele>1195</ele>
        <time>2023-10-01T11:24:42.000Z</time>
      </trkpt>
      <trkpt lat="45.00703" lon="5.80524">
        <ele>1194.5999755859</ele>
        <time>2023-10-01T11:24:43.000Z</time>
      </trkpt>
      <trkpt lat="45.00703" lon="5.80523">
        <ele>1194</ele>
        <time>2023-10-01T11:24:44.000Z</time>
      </trkpt>
      <trkpt lat="45.00703" lon="5.80521">
        <ele>1193.4000244141</ele>
        <time>2023-10-01T11:24:45.000Z</time>
      </trkpt>
      <trkpt lat="45.00703" lon="5.80519">
        <ele>1193</ele>
        <time>2023-10-01T11:24:46.000Z</time>
      </trkpt>
      <trkpt lat="45.00703" lon="5.80517">
        <ele>1192.5999755859</ele>
        <time>2023-10-01T11:24:47.000Z</time>
      </trkpt>
      <trkpt lat="45.00704" lon="5.80515">
        <ele>1192</ele>
        <time>2023-10-01T11:24:48.000Z</time>
      </trkpt>
      <trkpt lat="45.00704" lon="5.80514">
        <ele>1191.8000488281</ele>
        <time>2023-10-01T11:24:49.000Z</time>
      </trkpt>
      <trkpt lat="45.00704" lon="5.80512">
        <ele>1191.4000244141</ele>
        <time>2023-10-01T11:24:50.000Z</time>
      </trkpt>
      <trkpt lat="45.00705" lon="5.80511">
        <ele>1190.8000488281</ele>
        <time>2023-10-01T11:24:51.000Z</time>
      </trkpt>
      <trkpt lat="45.00705" lon="5.8051">
        <ele>1190.4000244141</ele>
        <time>2023-10-01T11:24:52.000Z</time>
      </trkpt>
      <trkpt lat="45.00706" lon="5.80508">
        <ele>1189.8000488281</ele>
        <time>2023-10-01T11:24:53.000Z</time>
      </trkpt>
      <trkpt lat="45.00706" lon="5.80506">
        <ele>1189.5999755859</ele>
        <time>2023-10-01T11:24:54.000Z</time>
      </trkpt>
      <trkpt lat="45.00706" lon="5.80505">
        <ele>1189</ele>
        <time>2023-10-01T11:24:55.000Z</time>
      </trkpt>
      <trkpt lat="45.00706" lon="5.80502">
        <ele>1188.5999755859</ele>
        <time>2023-10-01T11:24:56.000Z</time>
      </trkpt>
      <trkpt lat="45.00707" lon="5.805">
        <ele>1188.1999511719</ele>
        <time>2023-10-01T11:24:57.000Z</time>
      </trkpt>
      <trkpt lat="45.00707" lon="5.80498">
        <ele>1187.5999755859</ele>
        <time>2023-10-01T11:24:58.000Z</time>
      </trkpt>
      <trkpt lat="45.00707" lon="5.80497">
        <ele>1187.4000244141</ele>
        <time>2023-10-01T11:24:59.000Z</time>
      </trkpt>
      <trkpt lat="45.00707" lon="5.80495">
        <ele>1186.8000488281</ele>
        <time>2023-10-01T11:25:00.000Z</time>
      </trkpt>
      <trkpt lat="45.00708" lon="5.80494">
        <ele>1186.4000244141</ele>
        <time>2023-10-01T11:25:01.000Z</time>
      </trkpt>
      <trkpt lat="45.00708" lon="5.80492">
        <ele>1186</ele>
        <time>2023-10-01T11:25:02.000Z</time>
      </trkpt>
      <trkpt lat="45.00708" lon="5.8049">
        <ele>1185.5999755859</ele>
        <time>2023-10-01T11:25:03.000Z</time>
      </trkpt>
      <trkpt lat="45.00708" lon="5.80489">
        <ele>1185.1999511719</ele>
        <time>2023-10-01T11:25:04.000Z</time>
      </trkpt>
      <trkpt lat="45.00708" lon="5.80487">
        <ele>1184.8000488281</ele>
        <time>2023-10-01T11:25:05.000Z</time>
      </trkpt>
      <trkpt lat="45.00709" lon="5.80486">
        <ele>1184.4000244141</ele>
        <time>2023-10-01T11:25:06.000Z</time>
      </trkpt>
      <trkpt lat="45.00709" lon="5.80484">
        <ele>1183.8000488281</ele>
        <time>2023-10-01T11:25:07.000Z</time>
      </trkpt>
      <trkpt lat="45.00709" lon="5.80482">
        <ele>1183.4000244141</ele>
        <time>2023-10-01T11:25:08.000Z</time>
      </trkpt>
      <trkpt lat="45.00709" lon="5.8048">
        <ele>1183</ele>
        <time>2023-10-01T11:25:09.000Z</time>
      </trkpt>
      <trkpt lat="45.00709" lon="5.80478">
        <ele>1182.5999755859</ele>
        <time>2023-10-01T11:25:10.000Z</time>
      </trkpt>
      <trkpt lat="45.0071" lon="5.80476">
        <ele>1182.1999511719</ele>
        <time>2023-10-01T11:25:11.000Z</time>
      </trkpt>
      <trkpt lat="45.0071" lon="5.80474">
        <ele>1181.5999755859</ele>
        <time>2023-10-01T11:25:12.000Z</time>
      </trkpt>
      <trkpt lat="45.0071" lon="5.80473">
        <ele>1181</ele>
        <time>2023-10-01T11:25:13.000Z</time>
      </trkpt>
      <trkpt lat="45.0071" lon="5.80471">
        <ele>1180.5999755859</ele>
        <time>2023-10-01T11:25:14.000Z</time>
      </trkpt>
      <trkpt lat="45.00711" lon="5.8047">
        <ele>1180.1999511719</ele>
        <time>2023-10-01T11:25:15.000Z</time>
      </trkpt>
      <trkpt lat="45.00711" lon="5.80468">
        <ele>1179.5999755859</ele>
        <time>2023-10-01T11:25:16.000Z</time>
      </trkpt>
      <trkpt lat="45.00711" lon="5.80466">
        <ele>1179.4000244141</ele>
        <time>2023-10-01T11:25:17.000Z</time>
      </trkpt>
      <trkpt lat="45.00712" lon="5.80463">
        <ele>1179</ele>
        <time>2023-10-01T11:25:18.000Z</time>
      </trkpt>
      <trkpt lat="45.00712" lon="5.80461">
        <ele>1178.5999755859</ele>
        <time>2023-10-01T11:25:19.000Z</time>
      </trkpt>
      <trkpt lat="45.00713" lon="5.80459">
        <ele>1178</ele>
        <time>2023-10-01T11:25:20.000Z</time>
      </trkpt>
      <trkpt lat="45.00713" lon="5.80457">
        <ele>1177.5999755859</ele>
        <time>2023-10-01T11:25:21.000Z</time>
      </trkpt>
      <trkpt lat="45.00713" lon="5.80456">
        <ele>1177.1999511719</ele>
        <time>2023-10-01T11:25:22.000Z</time>
      </trkpt>
      <trkpt lat="45.00713" lon="5.80455">
        <ele>1176.8000488281</ele>
        <time>2023-10-01T11:25:23.000Z</time>
      </trkpt>
      <trkpt lat="45.00713" lon="5.80453">
        <ele>1176.1999511719</ele>
        <time>2023-10-01T11:25:24.000Z</time>
      </trkpt>
      <trkpt lat="45.00714" lon="5.80451">
        <ele>1175.5999755859</ele>
        <time>2023-10-01T11:25:25.000Z</time>
      </trkpt>
      <trkpt lat="45.00714" lon="5.80449">
        <ele>1175.1999511719</ele>
        <time>2023-10-01T11:25:26.000Z</time>
      </trkpt>
      <trkpt lat="45.00715" lon="5.80446">
        <ele>1174.8000488281</ele>
        <time>2023-10-01T11:25:27.000Z</time>
      </trkpt>
      <trkpt lat="45.00716" lon="5.80445">
        <ele>1174.4000244141</ele>
        <time>2023-10-01T11:25:28.000Z</time>
      </trkpt>
      <trkpt lat="45.00716" lon="5.80443">
        <ele>1174</ele>
        <time>2023-10-01T11:25:29.000Z</time>
      </trkpt>
      <trkpt lat="45.00716" lon="5.80441">
        <ele>1173.4000244141</ele>
        <time>2023-10-01T11:25:30.000Z</time>
      </trkpt>
      <trkpt lat="45.00716" lon="5.80439">
        <ele>1173</ele>
        <time>2023-10-01T11:25:31.000Z</time>
      </trkpt>
      <trkpt lat="45.00717" lon="5.80437">
        <ele>1172.4000244141</ele>
        <time>2023-10-01T11:25:32.000Z</time>
      </trkpt>
      <trkpt lat="45.00717" lon="5.80435">
        <ele>1171.8000488281</ele>
        <time>2023-10-01T11:25:33.000Z</time>
      </trkpt>
      <trkpt lat="45.00717" lon="5.80433">
        <ele>1171.4000244141</ele>
        <time>2023-10-01T11:25:34.000Z</time>
      </trkpt>
      <trkpt lat="45.00718" lon="5.80431">
        <ele>1171.1999511719</ele>
        <time>2023-10-01T11:25:35.000Z</time>
      </trkpt>
      <trkpt lat="45.00718" lon="5.80429">
        <ele>1170.4000244141</ele>
        <time>2023-10-01T11:25:36.000Z</time>
      </trkpt>
      <trkpt lat="45.00718" lon="5.80427">
        <ele>1169.8000488281</ele>
        <time>2023-10-01T11:25:37.000Z</time>
      </trkpt>
      <trkpt lat="45.00719" lon="5.80426">
        <ele>1169.4000244141</ele>
        <time>2023-10-01T11:25:38.000Z</time>
      </trkpt>
      <trkpt lat="45.00719" lon="5.80424">
        <ele>1169</ele>
        <time>2023-10-01T11:25:39.000Z</time>
      </trkpt>
      <trkpt lat="45.00719" lon="5.80422">
        <ele>1168.4000244141</ele>
        <time>2023-10-01T11:25:40.000Z</time>
      </trkpt>
      <trkpt lat="45.0072" lon="5.8042">
        <ele>1168</ele>
        <time>2023-10-01T11:25:41.000Z</time>
      </trkpt>
      <trkpt lat="45.0072" lon="5.80418">
        <ele>1167.4000244141</ele>
        <time>2023-10-01T11:25:42.000Z</time>
      </trkpt>
      <trkpt lat="45.0072" lon="5.80416">
        <ele>1167</ele>
        <time>2023-10-01T11:25:43.000Z</time>
      </trkpt>
      <trkpt lat="45.0072" lon="5.80415">
        <ele>1166.4000244141</ele>
        <time>2023-10-01T11:25:44.000Z</time>
      </trkpt>
      <trkpt lat="45.00721" lon="5.80414">
        <ele>1166</ele>
        <time>2023-10-01T11:25:45.000Z</time>
      </trkpt>
      <trkpt lat="45.00721" lon="5.80412">
        <ele>1165.5999755859</ele>
        <time>2023-10-01T11:25:46.000Z</time>
      </trkpt>
      <trkpt lat="45.00721" lon="5.8041">
        <ele>1165.1999511719</ele>
        <time>2023-10-01T11:25:47.000Z</time>
      </trkpt>
      <trkpt lat="45.00721" lon="5.80409">
        <ele>1164.8000488281</ele>
        <time>2023-10-01T11:25:48.000Z</time>
      </trkpt>
      <trkpt lat="45.00722" lon="5.80407">
        <ele>1164.4000244141</ele>
        <time>2023-10-01T11:25:49.000Z</time>
      </trkpt>
      <trkpt lat="45.00722" lon="5.80406">
        <ele>1164</ele>
        <time>2023-10-01T11:25:50.000Z</time>
      </trkpt>
      <trkpt lat="45.00722" lon="5.80404">
        <ele>1163.5999755859</ele>
        <time>2023-10-01T11:25:51.000Z</time>
      </trkpt>
      <trkpt lat="45.00723" lon="5.80402">
        <ele>1163.1999511719</ele>
        <time>2023-10-01T11:25:52.000Z</time>
      </trkpt>
      <trkpt lat="45.00724" lon="5.804">
        <ele>1162.8000488281</ele>
        <time>2023-10-01T11:25:53.000Z</time>
      </trkpt>
      <trkpt lat="45.00724" lon="5.80398">
        <ele>1162.4000244141</ele>
        <time>2023-10-01T11:25:54.000Z</time>
      </trkpt>
      <trkpt lat="45.00725" lon="5.80396">
        <ele>1161.8000488281</ele>
        <time>2023-10-01T11:25:55.000Z</time>
      </trkpt>
      <trkpt lat="45.00725" lon="5.80394">
        <ele>1161.5999755859</ele>
        <time>2023-10-01T11:25:56.000Z</time>
      </trkpt>
      <trkpt lat="45.00726" lon="5.80393">
        <ele>1161</ele>
        <time>2023-10-01T11:25:57.000Z</time>
      </trkpt>
      <trkpt lat="45.00726" lon="5.80391">
        <ele>1160.1999511719</ele>
        <time>2023-10-01T11:25:58.000Z</time>
      </trkpt>
      <trkpt lat="45.00726" lon="5.80389">
        <ele>1159.8000488281</ele>
        <time>2023-10-01T11:25:59.000Z</time>
      </trkpt>
      <trkpt lat="45.00727" lon="5.80387">
        <ele>1159.5999755859</ele>
        <time>2023-10-01T11:26:00.000Z</time>
      </trkpt>
      <trkpt lat="45.00727" lon="5.80385">
        <ele>1159</ele>
        <time>2023-10-01T11:26:01.000Z</time>
      </trkpt>
      <trkpt lat="45.00728" lon="5.80383">
        <ele>1158.5999755859</ele>
        <time>2023-10-01T11:26:02.000Z</time>
      </trkpt>
      <trkpt lat="45.00729" lon="5.80382">
        <ele>1158</ele>
        <time>2023-10-01T11:26:03.000Z</time>
      </trkpt>
      <trkpt lat="45.00729" lon="5.80381">
        <ele>1157.4000244141</ele>
        <time>2023-10-01T11:26:04.000Z</time>
      </trkpt>
      <trkpt lat="45.0073" lon="5.80379">
        <ele>1157</ele>
        <time>2023-10-01T11:26:05.000Z</time>
      </trkpt>
      <trkpt lat="45.0073" lon="5.80378">
        <ele>1156.4000244141</ele>
        <time>2023-10-01T11:26:06.000Z</time>
      </trkpt>
      <trkpt lat="45.00731" lon="5.80376">
        <ele>1155.8000488281</ele>
        <time>2023-10-01T11:26:07.000Z</time>
      </trkpt>
      <trkpt lat="45.00732" lon="5.80375">
        <ele>1155.5999755859</ele>
        <time>2023-10-01T11:26:08.000Z</time>
      </trkpt>
      <trkpt lat="45.00733" lon="5.80373">
        <ele>1155.1999511719</ele>
        <time>2023-10-01T11:26:09.000Z</time>
      </trkpt>
      <trkpt lat="45.00734" lon="5.80372">
        <ele>1154.8000488281</ele>
        <time>2023-10-01T11:26:10.000Z</time>
      </trkpt>
      <trkpt lat="45.00734" lon="5.8037">
        <ele>1154.1999511719</ele>
        <time>2023-10-01T11:26:11.000Z</time>
      </trkpt>
      <trkpt lat="45.00734" lon="5.80369">
        <ele>1153.5999755859</ele>
        <time>2023-10-01T11:26:12.000Z</time>
      </trkpt>
      <trkpt lat="45.00734" lon="5.80368">
        <ele>1153.1999511719</ele>
        <time>2023-10-01T11:26:13.000Z</time>
      </trkpt>
      <trkpt lat="45.00735" lon="5.80366">
        <ele>1152.8000488281</ele>
        <time>2023-10-01T11:26:14.000Z</time>
      </trkpt>
      <trkpt lat="45.00735" lon="5.80365">
        <ele>1152.4000244141</ele>
        <time>2023-10-01T11:26:15.000Z</time>
      </trkpt>
      <trkpt lat="45.00736" lon="5.80363">
        <ele>1152</ele>
        <time>2023-10-01T11:26:16.000Z</time>
      </trkpt>
      <trkpt lat="45.00736" lon="5.80362">
        <ele>1151.5999755859</ele>
        <time>2023-10-01T11:26:17.000Z</time>
      </trkpt>
      <trkpt lat="45.00736" lon="5.8036">
        <ele>1151.1999511719</ele>
        <time>2023-10-01T11:26:18.000Z</time>
      </trkpt>
      <trkpt lat="45.00736" lon="5.80359">
        <ele>1151</ele>
        <time>2023-10-01T11:26:19.000Z</time>
      </trkpt>
      <trkpt lat="45.00736" lon="5.80357">
        <ele>1150.4000244141</ele>
        <time>2023-10-01T11:26:20.000Z</time>
      </trkpt>
      <trkpt lat="45.00736" lon="5.80356">
        <ele>1149.8000488281</ele>
        <time>2023-10-01T11:26:21.000Z</time>
      </trkpt>
      <trkpt lat="45.00737" lon="5.80355">
        <ele>1149.4000244141</ele>
        <time>2023-10-01T11:26:22.000Z</time>
      </trkpt>
      <trkpt lat="45.00737" lon="5.80354">
        <ele>1149</ele>
        <time>2023-10-01T11:26:23.000Z</time>
      </trkpt>
      <trkpt lat="45.00737" lon="5.80353">
        <ele>1148.8000488281</ele>
        <time>2023-10-01T11:26:24.000Z</time>
      </trkpt>
      <trkpt lat="45.00737" lon="5.80353">
        <ele>1148.5999755859</ele>
        <time>2023-10-01T11:26:25.000Z</time>
      </trkpt>
      <trkpt lat="45.00737" lon="5.80352">
        <ele>1148.1999511719</ele>
        <time>2023-10-01T11:26:26.000Z</time>
      </trkpt>
      <trkpt lat="45.00737" lon="5.80351">
        <ele>1148</ele>
        <time>2023-10-01T11:26:27.000Z</time>
      </trkpt>
      <trkpt lat="45.00737" lon="5.8035">
        <ele>1147.8000488281</ele>
        <time>2023-10-01T11:26:28.000Z</time>
      </trkpt>
      <trkpt lat="45.00737" lon="5.80349">
        <ele>1147.5999755859</ele>
        <time>2023-10-01T11:26:29.000Z</time>
      </trkpt>
      <trkpt lat="45.00737" lon="5.80349">
        <ele>1147.1999511719</ele>
        <time>2023-10-01T11:26:30.000Z</time>
      </trkpt>
      <trkpt lat="45.00737" lon="5.80348">
        <ele>1147</ele>
        <time>2023-10-01T11:26:31.000Z</time>
      </trkpt>
      <trkpt lat="45.00737" lon="5.80347">
        <ele>1146.5999755859</ele>
        <time>2023-10-01T11:26:32.000Z</time>
      </trkpt>
      <trkpt lat="45.00737" lon="5.80345">
        <ele>1146.4000244141</ele>
        <time>2023-10-01T11:26:33.000Z</time>
      </trkpt>
      <trkpt lat="45.00737" lon="5.80343">
        <ele>1146.1999511719</ele>
        <time>2023-10-01T11:26:34.000Z</time>
      </trkpt>
      <trkpt lat="45.00738" lon="5.80341">
        <ele>1146</ele>
        <time>2023-10-01T11:26:35.000Z</time>
      </trkpt>
      <trkpt lat="45.00738" lon="5.8034">
        <ele>1145.8000488281</ele>
        <time>2023-10-01T11:26:36.000Z</time>
      </trkpt>
      <trkpt lat="45.00739" lon="5.80338">
        <ele>1145.4000244141</ele>
        <time>2023-10-01T11:26:37.000Z</time>
      </trkpt>
      <trkpt lat="45.00739" lon="5.80337">
        <ele>1144.8000488281</ele>
        <time>2023-10-01T11:26:38.000Z</time>
      </trkpt>
      <trkpt lat="45.00739" lon="5.80335">
        <ele>1144.1999511719</ele>
        <time>2023-10-01T11:26:39.000Z</time>
      </trkpt>
      <trkpt lat="45.0074" lon="5.80334">
        <ele>1143.8000488281</ele>
        <time>2023-10-01T11:26:40.000Z</time>
      </trkpt>
      <trkpt lat="45.0074" lon="5.80332">
        <ele>1143.5999755859</ele>
        <time>2023-10-01T11:26:41.000Z</time>
      </trkpt>
      <trkpt lat="45.0074" lon="5.80331">
        <ele>1143.1999511719</ele>
        <time>2023-10-01T11:26:42.000Z</time>
      </trkpt>
      <trkpt lat="45.00741" lon="5.80329">
        <ele>1143</ele>
        <time>2023-10-01T11:26:43.000Z</time>
      </trkpt>
      <trkpt lat="45.00741" lon="5.80328">
        <ele>1142.5999755859</ele>
        <time>2023-10-01T11:26:44.000Z</time>
      </trkpt>
      <trkpt lat="45.00741" lon="5.80326">
        <ele>1142.1999511719</ele>
        <time>2023-10-01T11:26:45.000Z</time>
      </trkpt>
      <trkpt lat="45.00742" lon="5.80324">
        <ele>1141.8000488281</ele>
        <time>2023-10-01T11:26:46.000Z</time>
      </trkpt>
      <trkpt lat="45.00742" lon="5.80323">
        <ele>1141.4000244141</ele>
        <time>2023-10-01T11:26:47.000Z</time>
      </trkpt>
      <trkpt lat="45.00742" lon="5.80321">
        <ele>1141</ele>
        <time>2023-10-01T11:26:48.000Z</time>
      </trkpt>
      <trkpt lat="45.00742" lon="5.80319">
        <ele>1140.5999755859</ele>
        <time>2023-10-01T11:26:49.000Z</time>
      </trkpt>
      <trkpt lat="45.00742" lon="5.80317">
        <ele>1140.1999511719</ele>
        <time>2023-10-01T11:26:50.000Z</time>
      </trkpt>
      <trkpt lat="45.00743" lon="5.80316">
        <ele>1139.8000488281</ele>
        <time>2023-10-01T11:26:51.000Z</time>
      </trkpt>
      <trkpt lat="45.00743" lon="5.80314">
        <ele>1139.4000244141</ele>
        <time>2023-10-01T11:26:52.000Z</time>
      </trkpt>
      <trkpt lat="45.00743" lon="5.80312">
        <ele>1138.8000488281</ele>
        <time>2023-10-01T11:26:53.000Z</time>
      </trkpt>
      <trkpt lat="45.00743" lon="5.80311">
        <ele>1138.4000244141</ele>
        <time>2023-10-01T11:26:54.000Z</time>
      </trkpt>
      <trkpt lat="45.00743" lon="5.80309">
        <ele>1138</ele>
        <time>2023-10-01T11:26:55.000Z</time>
      </trkpt>
      <trkpt lat="45.00744" lon="5.80308">
        <ele>1137.8000488281</ele>
        <time>2023-10-01T11:26:56.000Z</time>
      </trkpt>
      <trkpt lat="45.00744" lon="5.80306">
        <ele>1137</ele>
        <time>2023-10-01T11:26:57.000Z</time>
      </trkpt>
      <trkpt lat="45.00744" lon="5.80304">
        <ele>1136.4000244141</ele>
        <time>2023-10-01T11:26:58.000Z</time>
      </trkpt>
      <trkpt lat="45.00744" lon="5.80303">
        <ele>1136.1999511719</ele>
        <time>2023-10-01T11:26:59.000Z</time>
      </trkpt>
      <trkpt lat="45.00745" lon="5.80302">
        <ele>1135.8000488281</ele>
        <time>2023-10-01T11:27:00.000Z</time>
      </trkpt>
      <trkpt lat="45.00745" lon="5.803">
        <ele>1135.4000244141</ele>
        <time>2023-10-01T11:27:01.000Z</time>
      </trkpt>
      <trkpt lat="45.00745" lon="5.80298">
        <ele>1135</ele>
        <time>2023-10-01T11:27:02.000Z</time>
      </trkpt>
      <trkpt lat="45.00745" lon="5.80297">
        <ele>1134.8000488281</ele>
        <time>2023-10-01T11:27:03.000Z</time>
      </trkpt>
      <trkpt lat="45.00745" lon="5.80296">
        <ele>1134.4000244141</ele>
        <time>2023-10-01T11:27:04.000Z</time>
      </trkpt>
      <trkpt lat="45.00745" lon="5.80295">
        <ele>1134</ele>
        <time>2023-10-01T11:27:05.000Z</time>
      </trkpt>
      <trkpt lat="45.00746" lon="5.80294">
        <ele>1133.5999755859</ele>
        <time>2023-10-01T11:27:06.000Z</time>
      </trkpt>
      <trkpt lat="45.00746" lon="5.80292">
        <ele>1133.1999511719</ele>
        <time>2023-10-01T11:27:07.000Z</time>
      </trkpt>
      <trkpt lat="45.00747" lon="5.80291">
        <ele>1132.8000488281</ele>
        <time>2023-10-01T11:27:08.000Z</time>
      </trkpt>
      <trkpt lat="45.00747" lon="5.80289">
        <ele>1132.5999755859</ele>
        <time>2023-10-01T11:27:09.000Z</time>
      </trkpt>
      <trkpt lat="45.00747" lon="5.80287">
        <ele>1132</ele>
        <time>2023-10-01T11:27:10.000Z</time>
      </trkpt>
      <trkpt lat="45.00747" lon="5.80286">
        <ele>1131.8000488281</ele>
        <time>2023-10-01T11:27:11.000Z</time>
      </trkpt>
      <trkpt lat="45.00747" lon="5.80284">
        <ele>1131.4000244141</ele>
        <time>2023-10-01T11:27:12.000Z</time>
      </trkpt>
      <trkpt lat="45.00747" lon="5.80283">
        <ele>1131</ele>
        <time>2023-10-01T11:27:13.000Z</time>
      </trkpt>
      <trkpt lat="45.00748" lon="5.80281">
        <ele>1130.5999755859</ele>
        <time>2023-10-01T11:27:14.000Z</time>
      </trkpt>
      <trkpt lat="45.00748" lon="5.80279">
        <ele>1130.1999511719</ele>
        <time>2023-10-01T11:27:15.000Z</time>
      </trkpt>
      <trkpt lat="45.00748" lon="5.80276">
        <ele>1130</ele>
        <time>2023-10-01T11:27:16.000Z</time>
      </trkpt>
      <trkpt lat="45.00748" lon="5.80275">
        <ele>1129.5999755859</ele>
        <time>2023-10-01T11:27:17.000Z</time>
      </trkpt>
      <trkpt lat="45.00748" lon="5.80273">
        <ele>1129.4000244141</ele>
        <time>2023-10-01T11:27:18.000Z</time>
      </trkpt>
      <trkpt lat="45.00748" lon="5.80271">
        <ele>1128.8000488281</ele>
        <time>2023-10-01T11:27:19.000Z</time>
      </trkpt>
      <trkpt lat="45.00748" lon="5.80269">
        <ele>1128.4000244141</ele>
        <time>2023-10-01T11:27:20.000Z</time>
      </trkpt>
      <trkpt lat="45.00748" lon="5.80268">
        <ele>1127.8000488281</ele>
        <time>2023-10-01T11:27:21.000Z</time>
      </trkpt>
      <trkpt lat="45.00749" lon="5.80265">
        <ele>1127.5999755859</ele>
        <time>2023-10-01T11:27:22.000Z</time>
      </trkpt>
      <trkpt lat="45.00749" lon="5.80264">
        <ele>1127.1999511719</ele>
        <time>2023-10-01T11:27:23.000Z</time>
      </trkpt>
      <trkpt lat="45.00749" lon="5.80262">
        <ele>1126.8000488281</ele>
        <time>2023-10-01T11:27:24.000Z</time>
      </trkpt>
      <trkpt lat="45.00749" lon="5.8026">
        <ele>1126.4000244141</ele>
        <time>2023-10-01T11:27:25.000Z</time>
      </trkpt>
      <trkpt lat="45.0075" lon="5.80258">
        <ele>1126</ele>
        <time>2023-10-01T11:27:26.000Z</time>
      </trkpt>
      <trkpt lat="45.0075" lon="5.80256">
        <ele>1125.5999755859</ele>
        <time>2023-10-01T11:27:27.000Z</time>
      </trkpt>
      <trkpt lat="45.0075" lon="5.80254">
        <ele>1125.1999511719</ele>
        <time>2023-10-01T11:27:28.000Z</time>
      </trkpt>
      <trkpt lat="45.0075" lon="5.80252">
        <ele>1124.5999755859</ele>
        <time>2023-10-01T11:27:29.000Z</time>
      </trkpt>
      <trkpt lat="45.00751" lon="5.8025">
        <ele>1124.1999511719</ele>
        <time>2023-10-01T11:27:30.000Z</time>
      </trkpt>
      <trkpt lat="45.00751" lon="5.80248">
        <ele>1124</ele>
        <time>2023-10-01T11:27:31.000Z</time>
      </trkpt>
      <trkpt lat="45.00751" lon="5.80246">
        <ele>1123.5999755859</ele>
        <time>2023-10-01T11:27:32.000Z</time>
      </trkpt>
      <trkpt lat="45.00751" lon="5.80243">
        <ele>1123.1999511719</ele>
        <time>2023-10-01T11:27:33.000Z</time>
      </trkpt>
      <trkpt lat="45.00752" lon="5.80241">
        <ele>1122.5999755859</ele>
        <time>2023-10-01T11:27:34.000Z</time>
      </trkpt>
      <trkpt lat="45.00752" lon="5.80239">
        <ele>1122</ele>
        <time>2023-10-01T11:27:35.000Z</time>
      </trkpt>
      <trkpt lat="45.00753" lon="5.80236">
        <ele>1121.5999755859</ele>
        <time>2023-10-01T11:27:36.000Z</time>
      </trkpt>
      <trkpt lat="45.00753" lon="5.80234">
        <ele>1121.1999511719</ele>
        <time>2023-10-01T11:27:37.000Z</time>
      </trkpt>
      <trkpt lat="45.00754" lon="5.80231">
        <ele>1120.8000488281</ele>
        <time>2023-10-01T11:27:38.000Z</time>
      </trkpt>
      <trkpt lat="45.00754" lon="5.80229">
        <ele>1120.5999755859</ele>
        <time>2023-10-01T11:27:39.000Z</time>
      </trkpt>
      <trkpt lat="45.00754" lon="5.80226">
        <ele>1120</ele>
        <time>2023-10-01T11:27:40.000Z</time>
      </trkpt>
      <trkpt lat="45.00754" lon="5.80224">
        <ele>1119.5999755859</ele>
        <time>2023-10-01T11:27:41.000Z</time>
      </trkpt>
      <trkpt lat="45.00754" lon="5.80222">
        <ele>1119</ele>
        <time>2023-10-01T11:27:42.000Z</time>
      </trkpt>
      <trkpt lat="45.00755" lon="5.8022">
        <ele>1118.5999755859</ele>
        <time>2023-10-01T11:27:43.000Z</time>
      </trkpt>
      <trkpt lat="45.00755" lon="5.80218">
        <ele>1118.1999511719</ele>
        <time>2023-10-01T11:27:44.000Z</time>
      </trkpt>
      <trkpt lat="45.00755" lon="5.80216">
        <ele>1118</ele>
        <time>2023-10-01T11:27:45.000Z</time>
      </trkpt>
      <trkpt lat="45.00755" lon="5.80214">
        <ele>1117.5999755859</ele>
        <time>2023-10-01T11:27:46.000Z</time>
      </trkpt>
      <trkpt lat="45.00756" lon="5.80211">
        <ele>1117.1999511719</ele>
        <time>2023-10-01T11:27:47.000Z</time>
      </trkpt>
      <trkpt lat="45.00756" lon="5.80209">
        <ele>1116.8000488281</ele>
        <time>2023-10-01T11:27:48.000Z</time>
      </trkpt>
      <trkpt lat="45.00756" lon="5.80207">
        <ele>1116.5999755859</ele>
        <time>2023-10-01T11:27:49.000Z</time>
      </trkpt>
      <trkpt lat="45.00757" lon="5.80204">
        <ele>1116.1999511719</ele>
        <time>2023-10-01T11:27:50.000Z</time>
      </trkpt>
      <trkpt lat="45.00757" lon="5.80201">
        <ele>1115.8000488281</ele>
        <time>2023-10-01T11:27:51.000Z</time>
      </trkpt>
      <trkpt lat="45.00757" lon="5.80198">
        <ele>1115.1999511719</ele>
        <time>2023-10-01T11:27:52.000Z</time>
      </trkpt>
      <trkpt lat="45.00758" lon="5.80196">
        <ele>1114.8000488281</ele>
        <time>2023-10-01T11:27:53.000Z</time>
      </trkpt>
      <trkpt lat="45.00758" lon="5.80193">
        <ele>1114.4000244141</ele>
        <time>2023-10-01T11:27:54.000Z</time>
      </trkpt>
      <trkpt lat="45.00758" lon="5.8019">
        <ele>1114</ele>
        <time>2023-10-01T11:27:55.000Z</time>
      </trkpt>
      <trkpt lat="45.00759" lon="5.80187">
        <ele>1113.5999755859</ele>
        <time>2023-10-01T11:27:56.000Z</time>
      </trkpt>
      <trkpt lat="45.00759" lon="5.80185">
        <ele>1113.1999511719</ele>
        <time>2023-10-01T11:27:57.000Z</time>
      </trkpt>
      <trkpt lat="45.00759" lon="5.80183">
        <ele>1112.5999755859</ele>
        <time>2023-10-01T11:27:58.000Z</time>
      </trkpt>
      <trkpt lat="45.0076" lon="5.8018">
        <ele>1112.4000244141</ele>
        <time>2023-10-01T11:27:59.000Z</time>
      </trkpt>
      <trkpt lat="45.0076" lon="5.80177">
        <ele>1112</ele>
        <time>2023-10-01T11:28:00.000Z</time>
      </trkpt>
      <trkpt lat="45.0076" lon="5.80174">
        <ele>1111.5999755859</ele>
        <time>2023-10-01T11:28:01.000Z</time>
      </trkpt>
      <trkpt lat="45.0076" lon="5.80171">
        <ele>1111.4000244141</ele>
        <time>2023-10-01T11:28:02.000Z</time>
      </trkpt>
      <trkpt lat="45.0076" lon="5.80169">
        <ele>1110.8000488281</ele>
        <time>2023-10-01T11:28:03.000Z</time>
      </trkpt>
      <trkpt lat="45.00761" lon="5.80166">
        <ele>1110.1999511719</ele>
        <time>2023-10-01T11:28:04.000Z</time>
      </trkpt>
      <trkpt lat="45.00761" lon="5.80163">
        <ele>1110</ele>
        <time>2023-10-01T11:28:05.000Z</time>
      </trkpt>
      <trkpt lat="45.00761" lon="5.8016">
        <ele>1109.5999755859</ele>
        <time>2023-10-01T11:28:06.000Z</time>
      </trkpt>
      <trkpt lat="45.00762" lon="5.80157">
        <ele>1109.1999511719</ele>
        <time>2023-10-01T11:28:07.000Z</time>
      </trkpt>
      <trkpt lat="45.00762" lon="5.80155">
        <ele>1108.8000488281</ele>
        <time>2023-10-01T11:28:08.000Z</time>
      </trkpt>
      <trkpt lat="45.00762" lon="5.80152">
        <ele>1108.4000244141</ele>
        <time>2023-10-01T11:28:09.000Z</time>
      </trkpt>
      <trkpt lat="45.00763" lon="5.80149">
        <ele>1108</ele>
        <time>2023-10-01T11:28:10.000Z</time>
      </trkpt>
      <trkpt lat="45.00763" lon="5.80146">
        <ele>1107.8000488281</ele>
        <time>2023-10-01T11:28:11.000Z</time>
      </trkpt>
      <trkpt lat="45.00764" lon="5.80143">
        <ele>1107.4000244141</ele>
        <time>2023-10-01T11:28:12.000Z</time>
      </trkpt>
      <trkpt lat="45.00764" lon="5.8014">
        <ele>1107</ele>
        <time>2023-10-01T11:28:13.000Z</time>
      </trkpt>
      <trkpt lat="45.00764" lon="5.80137">
        <ele>1106.4000244141</ele>
        <time>2023-10-01T11:28:14.000Z</time>
      </trkpt>
      <trkpt lat="45.00764" lon="5.80135">
        <ele>1106</ele>
        <time>2023-10-01T11:28:15.000Z</time>
      </trkpt>
      <trkpt lat="45.00765" lon="5.80131">
        <ele>1105.5999755859</ele>
        <time>2023-10-01T11:28:16.000Z</time>
      </trkpt>
      <trkpt lat="45.00765" lon="5.80128">
        <ele>1105.4000244141</ele>
        <time>2023-10-01T11:28:17.000Z</time>
      </trkpt>
      <trkpt lat="45.00765" lon="5.80125">
        <ele>1105.1999511719</ele>
        <time>2023-10-01T11:28:18.000Z</time>
      </trkpt>
      <trkpt lat="45.00765" lon="5.80122">
        <ele>1105</ele>
        <time>2023-10-01T11:28:19.000Z</time>
      </trkpt>
      <trkpt lat="45.00766" lon="5.80118">
        <ele>1104.4000244141</ele>
        <time>2023-10-01T11:28:20.000Z</time>
      </trkpt>
      <trkpt lat="45.00766" lon="5.80115">
        <ele>1104.1999511719</ele>
        <time>2023-10-01T11:28:21.000Z</time>
      </trkpt>
      <trkpt lat="45.00766" lon="5.80112">
        <ele>1103.5999755859</ele>
        <time>2023-10-01T11:28:22.000Z</time>
      </trkpt>
      <trkpt lat="45.00767" lon="5.8011">
        <ele>1103.1999511719</ele>
        <time>2023-10-01T11:28:23.000Z</time>
      </trkpt>
      <trkpt lat="45.00767" lon="5.80106">
        <ele>1103</ele>
        <time>2023-10-01T11:28:24.000Z</time>
      </trkpt>
      <trkpt lat="45.00767" lon="5.80103">
        <ele>1102.5999755859</ele>
        <time>2023-10-01T11:28:25.000Z</time>
      </trkpt>
      <trkpt lat="45.00767" lon="5.801">
        <ele>1102.4000244141</ele>
        <time>2023-10-01T11:28:26.000Z</time>
      </trkpt>
      <trkpt lat="45.00768" lon="5.80097">
        <ele>1102.1999511719</ele>
        <time>2023-10-01T11:28:27.000Z</time>
      </trkpt>
      <trkpt lat="45.00768" lon="5.80094">
        <ele>1101.5999755859</ele>
        <time>2023-10-01T11:28:28.000Z</time>
      </trkpt>
      <trkpt lat="45.00768" lon="5.8009">
        <ele>1101.4000244141</ele>
        <time>2023-10-01T11:28:29.000Z</time>
      </trkpt>
      <trkpt lat="45.00768" lon="5.80087">
        <ele>1101.1999511719</ele>
        <time>2023-10-01T11:28:30.000Z</time>
      </trkpt>
      <trkpt lat="45.00769" lon="5.80085">
        <ele>1100.8000488281</ele>
        <time>2023-10-01T11:28:31.000Z</time>
      </trkpt>
      <trkpt lat="45.00769" lon="5.80082">
        <ele>1100.4000244141</ele>
        <time>2023-10-01T11:28:32.000Z</time>
      </trkpt>
      <trkpt lat="45.0077" lon="5.80079">
        <ele>1100.1999511719</ele>
        <time>2023-10-01T11:28:33.000Z</time>
      </trkpt>
      <trkpt lat="45.0077" lon="5.80076">
        <ele>1100</ele>
        <time>2023-10-01T11:28:34.000Z</time>
      </trkpt>
      <trkpt lat="45.0077" lon="5.80073">
        <ele>1099.8000488281</ele>
        <time>2023-10-01T11:28:35.000Z</time>
      </trkpt>
      <trkpt lat="45.00771" lon="5.80069">
        <ele>1099.5999755859</ele>
        <time>2023-10-01T11:28:36.000Z</time>
      </trkpt>
      <trkpt lat="45.00771" lon="5.80065">
        <ele>1099.4000244141</ele>
        <time>2023-10-01T11:28:37.000Z</time>
      </trkpt>
      <trkpt lat="45.00772" lon="5.80063">
        <ele>1099</ele>
        <time>2023-10-01T11:28:38.000Z</time>
      </trkpt>
      <trkpt lat="45.00773" lon="5.80059">
        <ele>1098.8000488281</ele>
        <time>2023-10-01T11:28:39.000Z</time>
      </trkpt>
      <trkpt lat="45.00773" lon="5.80056">
        <ele>1098.5999755859</ele>
        <time>2023-10-01T11:28:40.000Z</time>
      </trkpt>
      <trkpt lat="45.00774" lon="5.80052">
        <ele>1098.1999511719</ele>
        <time>2023-10-01T11:28:41.000Z</time>
      </trkpt>
      <trkpt lat="45.00774" lon="5.80049">
        <ele>1097.8000488281</ele>
        <time>2023-10-01T11:28:42.000Z</time>
      </trkpt>
      <trkpt lat="45.00774" lon="5.80046">
        <ele>1097.4000244141</ele>
        <time>2023-10-01T11:28:43.000Z</time>
      </trkpt>
      <trkpt lat="45.00774" lon="5.80043">
        <ele>1097</ele>
        <time>2023-10-01T11:28:44.000Z</time>
      </trkpt>
      <trkpt lat="45.00775" lon="5.80039">
        <ele>1096.5999755859</ele>
        <time>2023-10-01T11:28:45.000Z</time>
      </trkpt>
      <trkpt lat="45.00775" lon="5.80036">
        <ele>1096.4000244141</ele>
        <time>2023-10-01T11:28:46.000Z</time>
      </trkpt>
      <trkpt lat="45.00776" lon="5.80033">
        <ele>1096.1999511719</ele>
        <time>2023-10-01T11:28:47.000Z</time>
      </trkpt>
      <trkpt lat="45.00776" lon="5.8003">
        <ele>1096</ele>
        <time>2023-10-01T11:28:48.000Z</time>
      </trkpt>
      <trkpt lat="45.00777" lon="5.80027">
        <ele>1095.5999755859</ele>
        <time>2023-10-01T11:28:49.000Z</time>
      </trkpt>
      <trkpt lat="45.00778" lon="5.80024">
        <ele>1095.1999511719</ele>
        <time>2023-10-01T11:28:50.000Z</time>
      </trkpt>
      <trkpt lat="45.00778" lon="5.8002">
        <ele>1095</ele>
        <time>2023-10-01T11:28:51.000Z</time>
      </trkpt>
      <trkpt lat="45.00779" lon="5.80017">
        <ele>1094.5999755859</ele>
        <time>2023-10-01T11:28:52.000Z</time>
      </trkpt>
      <trkpt lat="45.00779" lon="5.80014">
        <ele>1094.1999511719</ele>
        <time>2023-10-01T11:28:53.000Z</time>
      </trkpt>
      <trkpt lat="45.00779" lon="5.80011">
        <ele>1094</ele>
        <time>2023-10-01T11:28:54.000Z</time>
      </trkpt>
      <trkpt lat="45.00778" lon="5.80008">
        <ele>1093.8000488281</ele>
        <time>2023-10-01T11:28:55.000Z</time>
      </trkpt>
      <trkpt lat="45.00777" lon="5.80005">
        <ele>1093.8000488281</ele>
        <time>2023-10-01T11:28:56.000Z</time>
      </trkpt>
      <trkpt lat="45.00776" lon="5.80002">
        <ele>1093.1999511719</ele>
        <time>2023-10-01T11:28:57.000Z</time>
      </trkpt>
      <trkpt lat="45.00775" lon="5.8">
        <ele>1093</ele>
        <time>2023-10-01T11:28:58.000Z</time>
      </trkpt>
      <trkpt lat="45.00773" lon="5.79999">
        <ele>1092.8000488281</ele>
        <time>2023-10-01T11:28:59.000Z</time>
      </trkpt>
      <trkpt lat="45.00772" lon="5.79997">
        <ele>1092.5999755859</ele>
        <time>2023-10-01T11:29:00.000Z</time>
      </trkpt>
      <trkpt lat="45.0077" lon="5.79995">
        <ele>1092.4000244141</ele>
        <time>2023-10-01T11:29:01.000Z</time>
      </trkpt>
      <trkpt lat="45.00769" lon="5.79993">
        <ele>1091.8000488281</ele>
        <time>2023-10-01T11:29:02.000Z</time>
      </trkpt>
      <trkpt lat="45.00767" lon="5.7999">
        <ele>1091.1999511719</ele>
        <time>2023-10-01T11:29:03.000Z</time>
      </trkpt>
      <trkpt lat="45.00766" lon="5.79987">
        <ele>1091</ele>
        <time>2023-10-01T11:29:04.000Z</time>
      </trkpt>
      <trkpt lat="45.00765" lon="5.79984">
        <ele>1090.4000244141</ele>
        <time>2023-10-01T11:29:05.000Z</time>
      </trkpt>
      <trkpt lat="45.00764" lon="5.79982">
        <ele>1090.1999511719</ele>
        <time>2023-10-01T11:29:06.000Z</time>
      </trkpt>
      <trkpt lat="45.00762" lon="5.7998">
        <ele>1089.8000488281</ele>
        <time>2023-10-01T11:29:07.000Z</time>
      </trkpt>
      <trkpt lat="45.00761" lon="5.79978">
        <ele>1089.4000244141</ele>
        <time>2023-10-01T11:29:08.000Z</time>
      </trkpt>
      <trkpt lat="45.0076" lon="5.79976">
        <ele>1088.8000488281</ele>
        <time>2023-10-01T11:29:09.000Z</time>
      </trkpt>
      <trkpt lat="45.00758" lon="5.79973">
        <ele>1088.4000244141</ele>
        <time>2023-10-01T11:29:10.000Z</time>
      </trkpt>
      <trkpt lat="45.00756" lon="5.79971">
        <ele>1088.1999511719</ele>
        <time>2023-10-01T11:29:11.000Z</time>
      </trkpt>
      <trkpt lat="45.00755" lon="5.79968">
        <ele>1087.5999755859</ele>
        <time>2023-10-01T11:29:12.000Z</time>
      </trkpt>
      <trkpt lat="45.00753" lon="5.79966">
        <ele>1087.4000244141</ele>
        <time>2023-10-01T11:29:13.000Z</time>
      </trkpt>
      <trkpt lat="45.00752" lon="5.79963">
        <ele>1086.8000488281</ele>
        <time>2023-10-01T11:29:14.000Z</time>
      </trkpt>
      <trkpt lat="45.0075" lon="5.79961">
        <ele>1086.5999755859</ele>
        <time>2023-10-01T11:29:15.000Z</time>
      </trkpt>
      <trkpt lat="45.00749" lon="5.79958">
        <ele>1086.4000244141</ele>
        <time>2023-10-01T11:29:16.000Z</time>
      </trkpt>
      <trkpt lat="45.00748" lon="5.79956">
        <ele>1086</ele>
        <time>2023-10-01T11:29:17.000Z</time>
      </trkpt>
      <trkpt lat="45.00746" lon="5.79954">
        <ele>1085.1999511719</ele>
        <time>2023-10-01T11:29:18.000Z</time>
      </trkpt>
      <trkpt lat="45.00745" lon="5.79951">
        <ele>1084.8000488281</ele>
        <time>2023-10-01T11:29:19.000Z</time>
      </trkpt>
      <trkpt lat="45.00744" lon="5.79948">
        <ele>1084.5999755859</ele>
        <time>2023-10-01T11:29:20.000Z</time>
      </trkpt>
      <trkpt lat="45.00742" lon="5.79945">
        <ele>1084.1999511719</ele>
        <time>2023-10-01T11:29:21.000Z</time>
      </trkpt>
      <trkpt lat="45.00741" lon="5.79942">
        <ele>1083.8000488281</ele>
        <time>2023-10-01T11:29:22.000Z</time>
      </trkpt>
      <trkpt lat="45.0074" lon="5.79939">
        <ele>1083.4000244141</ele>
        <time>2023-10-01T11:29:23.000Z</time>
      </trkpt>
      <trkpt lat="45.00739" lon="5.79936">
        <ele>1082.8000488281</ele>
        <time>2023-10-01T11:29:24.000Z</time>
      </trkpt>
      <trkpt lat="45.00738" lon="5.79934">
        <ele>1082.5999755859</ele>
        <time>2023-10-01T11:29:25.000Z</time>
      </trkpt>
      <trkpt lat="45.00737" lon="5.79931">
        <ele>1082.1999511719</ele>
        <time>2023-10-01T11:29:26.000Z</time>
      </trkpt>
      <trkpt lat="45.00737" lon="5.79929">
        <ele>1081.8000488281</ele>
        <time>2023-10-01T11:29:27.000Z</time>
      </trkpt>
      <trkpt lat="45.00736" lon="5.79926">
        <ele>1081.4000244141</ele>
        <time>2023-10-01T11:29:28.000Z</time>
      </trkpt>
      <trkpt lat="45.00734" lon="5.79923">
        <ele>1081</ele>
        <time>2023-10-01T11:29:29.000Z</time>
      </trkpt>
      <trkpt lat="45.00733" lon="5.7992">
        <ele>1080.8000488281</ele>
        <time>2023-10-01T11:29:30.000Z</time>
      </trkpt>
      <trkpt lat="45.00732" lon="5.79918">
        <ele>1080.4000244141</ele>
        <time>2023-10-01T11:29:31.000Z</time>
      </trkpt>
      <trkpt lat="45.00731" lon="5.79915">
        <ele>1080.1999511719</ele>
        <time>2023-10-01T11:29:32.000Z</time>
      </trkpt>
      <trkpt lat="45.0073" lon="5.79912">
        <ele>1080</ele>
        <time>2023-10-01T11:29:33.000Z</time>
      </trkpt>
      <trkpt lat="45.00729" lon="5.79909">
        <ele>1079.5999755859</ele>
        <time>2023-10-01T11:29:34.000Z</time>
      </trkpt>
      <trkpt lat="45.00728" lon="5.79905">
        <ele>1079.1999511719</ele>
        <time>2023-10-01T11:29:35.000Z</time>
      </trkpt>
      <trkpt lat="45.00727" lon="5.79903">
        <ele>1079</ele>
        <time>2023-10-01T11:29:36.000Z</time>
      </trkpt>
      <trkpt lat="45.00726" lon="5.79899">
        <ele>1078.5999755859</ele>
        <time>2023-10-01T11:29:37.000Z</time>
      </trkpt>
      <trkpt lat="45.00724" lon="5.79896">
        <ele>1078.4000244141</ele>
        <time>2023-10-01T11:29:38.000Z</time>
      </trkpt>
      <trkpt lat="45.00723" lon="5.79893">
        <ele>1078</ele>
        <time>2023-10-01T11:29:39.000Z</time>
      </trkpt>
      <trkpt lat="45.00722" lon="5.79889">
        <ele>1077.8000488281</ele>
        <time>2023-10-01T11:29:40.000Z</time>
      </trkpt>
      <trkpt lat="45.00721" lon="5.79886">
        <ele>1077.5999755859</ele>
        <time>2023-10-01T11:29:41.000Z</time>
      </trkpt>
      <trkpt lat="45.0072" lon="5.79883">
        <ele>1077</ele>
        <time>2023-10-01T11:29:42.000Z</time>
      </trkpt>
      <trkpt lat="45.00719" lon="5.7988">
        <ele>1076.8000488281</ele>
        <time>2023-10-01T11:29:43.000Z</time>
      </trkpt>
      <trkpt lat="45.00718" lon="5.79877">
        <ele>1076.5999755859</ele>
        <time>2023-10-01T11:29:44.000Z</time>
      </trkpt>
      <trkpt lat="45.00716" lon="5.79875">
        <ele>1076.4000244141</ele>
        <time>2023-10-01T11:29:45.000Z</time>
      </trkpt>
      <trkpt lat="45.00715" lon="5.79871">
        <ele>1076.1999511719</ele>
        <time>2023-10-01T11:29:46.000Z</time>
      </trkpt>
      <trkpt lat="45.00714" lon="5.79869">
        <ele>1076</ele>
        <time>2023-10-01T11:29:47.000Z</time>
      </trkpt>
      <trkpt lat="45.00712" lon="5.79865">
        <ele>1075.8000488281</ele>
        <time>2023-10-01T11:29:48.000Z</time>
      </trkpt>
      <trkpt lat="45.00711" lon="5.79862">
        <ele>1075.4000244141</ele>
        <time>2023-10-01T11:29:49.000Z</time>
      </trkpt>
      <trkpt lat="45.0071" lon="5.79858">
        <ele>1075</ele>
        <time>2023-10-01T11:29:50.000Z</time>
      </trkpt>
      <trkpt lat="45.00709" lon="5.79855">
        <ele>1074.5999755859</ele>
        <time>2023-10-01T11:29:51.000Z</time>
      </trkpt>
      <trkpt lat="45.00708" lon="5.79851">
        <ele>1074.1999511719</ele>
        <time>2023-10-01T11:29:52.000Z</time>
      </trkpt>
      <trkpt lat="45.00707" lon="5.79848">
        <ele>1074</ele>
        <time>2023-10-01T11:29:53.000Z</time>
      </trkpt>
      <trkpt lat="45.00706" lon="5.79845">
        <ele>1073.8000488281</ele>
        <time>2023-10-01T11:29:54.000Z</time>
      </trkpt>
      <trkpt lat="45.00705" lon="5.79842">
        <ele>1073.5999755859</ele>
        <time>2023-10-01T11:29:55.000Z</time>
      </trkpt>
      <trkpt lat="45.00704" lon="5.79839">
        <ele>1073.1999511719</ele>
        <time>2023-10-01T11:29:56.000Z</time>
      </trkpt>
      <trkpt lat="45.00702" lon="5.79835">
        <ele>1073</ele>
        <time>2023-10-01T11:29:57.000Z</time>
      </trkpt>
      <trkpt lat="45.00701" lon="5.79832">
        <ele>1072.5999755859</ele>
        <time>2023-10-01T11:29:58.000Z</time>
      </trkpt>
      <trkpt lat="45.00699" lon="5.79829">
        <ele>1072.1999511719</ele>
        <time>2023-10-01T11:29:59.000Z</time>
      </trkpt>
      <trkpt lat="45.00698" lon="5.79826">
        <ele>1072</ele>
        <time>2023-10-01T11:30:00.000Z</time>
      </trkpt>
      <trkpt lat="45.00697" lon="5.79823">
        <ele>1071.8000488281</ele>
        <time>2023-10-01T11:30:01.000Z</time>
      </trkpt>
      <trkpt lat="45.00695" lon="5.7982">
        <ele>1071.5999755859</ele>
        <time>2023-10-01T11:30:02.000Z</time>
      </trkpt>
      <trkpt lat="45.00694" lon="5.79818">
        <ele>1071.5999755859</ele>
        <time>2023-10-01T11:30:03.000Z</time>
      </trkpt>
      <trkpt lat="45.00692" lon="5.79815">
        <ele>1071.5999755859</ele>
        <time>2023-10-01T11:30:04.000Z</time>
      </trkpt>
      <trkpt lat="45.00692" lon="5.79813">
        <ele>1071.4000244141</ele>
        <time>2023-10-01T11:30:05.000Z</time>
      </trkpt>
      <trkpt lat="45.00692" lon="5.79811">
        <ele>1071.4000244141</ele>
        <time>2023-10-01T11:30:06.000Z</time>
      </trkpt>
      <trkpt lat="45.00692" lon="5.79809">
        <ele>1071.1999511719</ele>
        <time>2023-10-01T11:30:07.000Z</time>
      </trkpt>
    </trkseg>
  </trk>
</gpx>